<?xml version="1.0" encoding="utf-8" standalone="yes"?>
<gpx version="1.1" creator="Locus Map, Android"
 xmlns="http://www.topografix.com/GPX/1/1"
 xmlns:xsi="http://www.w3.org/2001/XMLSchema-instance"
 xsi:schemaLocation="http://www.topografix.com/GPX/1/1 http://www.topografix.com/GPX/1/1/gpx.xsd"
 xmlns:gpxx="http://www.garmin.com/xmlschemas/GpxExtensions/v3"
 xmlns:gpxtrkx="http://www.garmin.com/xmlschemas/TrackStatsExtension/v1"
 xmlns:gpxtpx="http://www.garmin.com/xmlschemas/TrackPointExtension/v2"
 xmlns:locus="http://www.locusmap.eu">
	<metadata>
		<desc>File with points/tracks from Locus Map Classic/3.70.7</desc>
		<time>2024-03-31T19:30:17.370Z</time>
	</metadata>
<trk>
<name>Val Poschiavina e Laghi di Campagneda</name>
	<extensions>
		<line xmlns="http://www.topografix.com/GPX/gpx_style/0/2">
			<color>0000FF</color>
			<opacity>0.59</opacity>
			<width>6.0</width>
			<extensions>
				<locus:lsColorBase>#960000FF</locus:lsColorBase>
				<locus:lsWidth>6.0</locus:lsWidth>
				<locus:lsUnits>PIXELS</locus:lsUnits>
			</extensions>
		</line>
		<locus:activity>hiking</locus:activity>
	</extensions>
<trkseg>
<trkpt lat="46.3037330" lon="9.9308740">
	<ele>1999.20</ele>
	<time>2021-08-31T06:44:20.000Z</time>
</trkpt>
<trkpt lat="46.3037300" lon="9.9308670">
	<ele>1999.20</ele>
	<time>2021-08-31T06:44:22.000Z</time>
</trkpt>
<trkpt lat="46.3037830" lon="9.9309270">
	<ele>1998.80</ele>
	<time>2021-08-31T06:44:26.000Z</time>
</trkpt>
<trkpt lat="46.3038140" lon="9.9309450">
	<ele>1998.60</ele>
	<time>2021-08-31T06:44:28.000Z</time>
</trkpt>
<trkpt lat="46.3038670" lon="9.9310380">
	<ele>1998.40</ele>
	<time>2021-08-31T06:44:35.000Z</time>
</trkpt>
<trkpt lat="46.3038680" lon="9.9310540">
	<ele>1998.40</ele>
	<time>2021-08-31T06:44:36.000Z</time>
</trkpt>
<trkpt lat="46.3038760" lon="9.9310770">
	<ele>1998.20</ele>
	<time>2021-08-31T06:44:37.000Z</time>
</trkpt>
<trkpt lat="46.3039130" lon="9.9311780">
	<ele>1998.20</ele>
	<time>2021-08-31T06:44:43.000Z</time>
</trkpt>
<trkpt lat="46.3039420" lon="9.9312530">
	<ele>1998.40</ele>
	<time>2021-08-31T06:44:47.000Z</time>
</trkpt>
<trkpt lat="46.3039600" lon="9.9313080">
	<ele>1998.20</ele>
	<time>2021-08-31T06:44:50.000Z</time>
</trkpt>
<trkpt lat="46.3039760" lon="9.9313560">
	<ele>1998.40</ele>
	<time>2021-08-31T06:44:53.000Z</time>
</trkpt>
<trkpt lat="46.3040190" lon="9.9314840">
	<ele>1998.60</ele>
	<time>2021-08-31T06:45:00.000Z</time>
</trkpt>
<trkpt lat="46.3040490" lon="9.9315710">
	<ele>1998.80</ele>
	<time>2021-08-31T06:45:04.000Z</time>
</trkpt>
<trkpt lat="46.3040410" lon="9.9316640">
	<ele>1998.80</ele>
	<time>2021-08-31T06:45:09.000Z</time>
</trkpt>
<trkpt lat="46.3040710" lon="9.9317660">
	<ele>1999.00</ele>
	<time>2021-08-31T06:45:14.000Z</time>
</trkpt>
<trkpt lat="46.3041010" lon="9.9318480">
	<ele>1999.00</ele>
	<time>2021-08-31T06:45:18.000Z</time>
</trkpt>
<trkpt lat="46.3040960" lon="9.9318990">
	<ele>1999.20</ele>
	<time>2021-08-31T06:45:21.000Z</time>
</trkpt>
<trkpt lat="46.3040940" lon="9.9319370">
	<ele>1999.40</ele>
	<time>2021-08-31T06:45:23.000Z</time>
</trkpt>
<trkpt lat="46.3040890" lon="9.9319910">
	<ele>1999.60</ele>
	<time>2021-08-31T06:45:26.000Z</time>
</trkpt>
<trkpt lat="46.3040930" lon="9.9320070">
	<ele>1999.60</ele>
	<time>2021-08-31T06:45:27.000Z</time>
</trkpt>
<trkpt lat="46.3041380" lon="9.9320680">
	<ele>1999.40</ele>
	<time>2021-08-31T06:45:31.000Z</time>
</trkpt>
<trkpt lat="46.3041600" lon="9.9321200">
	<ele>1999.40</ele>
	<time>2021-08-31T06:45:34.000Z</time>
</trkpt>
<trkpt lat="46.3041620" lon="9.9321580">
	<ele>1999.60</ele>
	<time>2021-08-31T06:45:36.000Z</time>
</trkpt>
<trkpt lat="46.3041720" lon="9.9321840">
	<ele>1999.60</ele>
	<time>2021-08-31T06:45:38.000Z</time>
</trkpt>
<trkpt lat="46.3041790" lon="9.9322140">
	<ele>1999.60</ele>
	<time>2021-08-31T06:45:40.000Z</time>
</trkpt>
<trkpt lat="46.3041780" lon="9.9323570">
	<ele>1999.80</ele>
	<time>2021-08-31T06:45:48.000Z</time>
</trkpt>
<trkpt lat="46.3042010" lon="9.9324280">
	<ele>1999.80</ele>
	<time>2021-08-31T06:45:52.000Z</time>
</trkpt>
<trkpt lat="46.3042040" lon="9.9324480">
	<ele>1999.80</ele>
	<time>2021-08-31T06:45:53.000Z</time>
</trkpt>
<trkpt lat="46.3042090" lon="9.9325030">
	<ele>2000.00</ele>
	<time>2021-08-31T06:45:56.000Z</time>
</trkpt>
<trkpt lat="46.3042320" lon="9.9326960">
	<ele>2000.20</ele>
	<time>2021-08-31T06:46:05.000Z</time>
</trkpt>
<trkpt lat="46.3042460" lon="9.9328920">
	<ele>2000.40</ele>
	<time>2021-08-31T06:46:15.000Z</time>
</trkpt>
<trkpt lat="46.3042470" lon="9.9329120">
	<ele>2000.40</ele>
	<time>2021-08-31T06:46:16.000Z</time>
</trkpt>
<trkpt lat="46.3042930" lon="9.9330950">
	<ele>2000.60</ele>
	<time>2021-08-31T06:46:24.000Z</time>
</trkpt>
<trkpt lat="46.3042940" lon="9.9331220">
	<ele>2000.80</ele>
	<time>2021-08-31T06:46:26.000Z</time>
</trkpt>
<trkpt lat="46.3042940" lon="9.9331440">
	<ele>2000.80</ele>
	<time>2021-08-31T06:46:27.000Z</time>
</trkpt>
<trkpt lat="46.3043110" lon="9.9332180">
	<ele>2000.80</ele>
	<time>2021-08-31T06:46:31.000Z</time>
</trkpt>
<trkpt lat="46.3043640" lon="9.9333720">
	<ele>2000.80</ele>
	<time>2021-08-31T06:46:38.000Z</time>
</trkpt>
<trkpt lat="46.3043720" lon="9.9333950">
	<ele>2000.80</ele>
	<time>2021-08-31T06:46:39.000Z</time>
</trkpt>
<trkpt lat="46.3043840" lon="9.9334810">
	<ele>2001.00</ele>
	<time>2021-08-31T06:46:43.000Z</time>
</trkpt>
<trkpt lat="46.3044000" lon="9.9335400">
	<ele>2001.20</ele>
	<time>2021-08-31T06:46:46.000Z</time>
</trkpt>
<trkpt lat="46.3044220" lon="9.9336210">
	<ele>2001.40</ele>
	<time>2021-08-31T06:46:50.000Z</time>
</trkpt>
<trkpt lat="46.3044400" lon="9.9336490">
	<ele>2001.40</ele>
	<time>2021-08-31T06:46:52.000Z</time>
</trkpt>
<trkpt lat="46.3044580" lon="9.9337110">
	<ele>2001.60</ele>
	<time>2021-08-31T06:46:55.000Z</time>
</trkpt>
<trkpt lat="46.3044740" lon="9.9337790">
	<ele>2001.80</ele>
	<time>2021-08-31T06:46:59.000Z</time>
</trkpt>
<trkpt lat="46.3044870" lon="9.9338450">
	<ele>2001.80</ele>
	<time>2021-08-31T06:47:02.000Z</time>
</trkpt>
<trkpt lat="46.3044920" lon="9.9339650">
	<ele>2001.80</ele>
	<time>2021-08-31T06:47:09.000Z</time>
</trkpt>
<trkpt lat="46.3044980" lon="9.9339870">
	<ele>2002.00</ele>
	<time>2021-08-31T06:47:10.000Z</time>
</trkpt>
<trkpt lat="46.3045080" lon="9.9341800">
	<ele>2002.00</ele>
	<time>2021-08-31T06:47:19.000Z</time>
</trkpt>
<trkpt lat="46.3045100" lon="9.9342920">
	<ele>2002.20</ele>
	<time>2021-08-31T06:47:25.000Z</time>
</trkpt>
<trkpt lat="46.3045170" lon="9.9343040">
	<ele>2002.20</ele>
	<time>2021-08-31T06:47:26.000Z</time>
</trkpt>
<trkpt lat="46.3045870" lon="9.9344460">
	<ele>2002.40</ele>
	<time>2021-08-31T06:47:34.000Z</time>
</trkpt>
<trkpt lat="46.3045870" lon="9.9344630">
	<ele>2002.40</ele>
	<time>2021-08-31T06:47:35.000Z</time>
</trkpt>
<trkpt lat="46.3045930" lon="9.9344830">
	<ele>2002.60</ele>
	<time>2021-08-31T06:47:36.000Z</time>
</trkpt>
<trkpt lat="46.3046210" lon="9.9345670">
	<ele>2002.60</ele>
	<time>2021-08-31T06:47:40.000Z</time>
</trkpt>
<trkpt lat="46.3046480" lon="9.9346570">
	<ele>2002.60</ele>
	<time>2021-08-31T06:47:44.000Z</time>
</trkpt>
<trkpt lat="46.3046760" lon="9.9346920">
	<ele>2002.80</ele>
	<time>2021-08-31T06:47:47.000Z</time>
</trkpt>
<trkpt lat="46.3047550" lon="9.9348090">
	<ele>2002.80</ele>
	<time>2021-08-31T06:47:53.000Z</time>
</trkpt>
<trkpt lat="46.3047680" lon="9.9348460">
	<ele>2002.80</ele>
	<time>2021-08-31T06:47:55.000Z</time>
</trkpt>
<trkpt lat="46.3047530" lon="9.9349610">
	<ele>2003.00</ele>
	<time>2021-08-31T06:48:00.000Z</time>
</trkpt>
<trkpt lat="46.3047490" lon="9.9351110">
	<ele>2003.20</ele>
	<time>2021-08-31T06:48:08.000Z</time>
</trkpt>
<trkpt lat="46.3047530" lon="9.9352590">
	<ele>2003.40</ele>
	<time>2021-08-31T06:48:16.000Z</time>
</trkpt>
<trkpt lat="46.3047580" lon="9.9352780">
	<ele>2003.40</ele>
	<time>2021-08-31T06:48:17.000Z</time>
</trkpt>
<trkpt lat="46.3047650" lon="9.9353310">
	<ele>2003.40</ele>
	<time>2021-08-31T06:48:20.000Z</time>
</trkpt>
<trkpt lat="46.3047880" lon="9.9353860">
	<ele>2003.60</ele>
	<time>2021-08-31T06:48:23.000Z</time>
</trkpt>
<trkpt lat="46.3047960" lon="9.9354070">
	<ele>2003.60</ele>
	<time>2021-08-31T06:48:25.000Z</time>
</trkpt>
<trkpt lat="46.3048290" lon="9.9355450">
	<ele>2003.60</ele>
	<time>2021-08-31T06:48:32.000Z</time>
</trkpt>
<trkpt lat="46.3048290" lon="9.9355810">
	<ele>2003.60</ele>
	<time>2021-08-31T06:48:34.000Z</time>
</trkpt>
<trkpt lat="46.3048650" lon="9.9356520">
	<ele>2003.80</ele>
	<time>2021-08-31T06:48:40.000Z</time>
</trkpt>
<trkpt lat="46.3048660" lon="9.9356470">
	<ele>2003.80</ele>
	<time>2021-08-31T06:48:41.000Z</time>
</trkpt>
<trkpt lat="46.3049540" lon="9.9357590">
	<ele>2003.80</ele>
	<time>2021-08-31T06:48:49.000Z</time>
</trkpt>
<trkpt lat="46.3050190" lon="9.9358930">
	<ele>2004.20</ele>
	<time>2021-08-31T06:48:57.000Z</time>
</trkpt>
<trkpt lat="46.3050720" lon="9.9359760">
	<ele>2004.20</ele>
	<time>2021-08-31T06:49:03.000Z</time>
</trkpt>
<trkpt lat="46.3050820" lon="9.9359980">
	<ele>2004.20</ele>
	<time>2021-08-31T06:49:05.000Z</time>
</trkpt>
<trkpt lat="46.3051550" lon="9.9360990">
	<ele>2004.60</ele>
	<time>2021-08-31T06:49:12.000Z</time>
</trkpt>
<trkpt lat="46.3052050" lon="9.9361940">
	<ele>2004.60</ele>
	<time>2021-08-31T06:49:17.000Z</time>
</trkpt>
<trkpt lat="46.3052750" lon="9.9363030">
	<ele>2004.80</ele>
	<time>2021-08-31T06:49:23.000Z</time>
</trkpt>
<trkpt lat="46.3053150" lon="9.9364230">
	<ele>2004.80</ele>
	<time>2021-08-31T06:49:29.000Z</time>
</trkpt>
<trkpt lat="46.3053250" lon="9.9365030">
	<ele>2004.80</ele>
	<time>2021-08-31T06:49:33.000Z</time>
</trkpt>
<trkpt lat="46.3053300" lon="9.9365390">
	<ele>2004.80</ele>
	<time>2021-08-31T06:49:35.000Z</time>
</trkpt>
<trkpt lat="46.3053310" lon="9.9365550">
	<ele>2004.80</ele>
	<time>2021-08-31T06:49:36.000Z</time>
</trkpt>
<trkpt lat="46.3053260" lon="9.9365850">
	<ele>2004.80</ele>
	<time>2021-08-31T06:49:38.000Z</time>
</trkpt>
<trkpt lat="46.3053370" lon="9.9366350">
	<ele>2004.80</ele>
	<time>2021-08-31T06:49:41.000Z</time>
</trkpt>
<trkpt lat="46.3053460" lon="9.9366640">
	<ele>2004.80</ele>
	<time>2021-08-31T06:49:43.000Z</time>
</trkpt>
<trkpt lat="46.3053530" lon="9.9367170">
	<ele>2004.80</ele>
	<time>2021-08-31T06:49:46.000Z</time>
</trkpt>
<trkpt lat="46.3053610" lon="9.9367590">
	<ele>2004.80</ele>
	<time>2021-08-31T06:49:48.000Z</time>
</trkpt>
<trkpt lat="46.3053800" lon="9.9368220">
	<ele>2005.00</ele>
	<time>2021-08-31T06:49:52.000Z</time>
</trkpt>
<trkpt lat="46.3054030" lon="9.9369510">
	<ele>2004.80</ele>
	<time>2021-08-31T06:49:59.000Z</time>
</trkpt>
<trkpt lat="46.3054820" lon="9.9370820">
	<ele>2005.20</ele>
	<time>2021-08-31T06:50:07.000Z</time>
</trkpt>
<trkpt lat="46.3054970" lon="9.9371150">
	<ele>2005.20</ele>
	<time>2021-08-31T06:50:09.000Z</time>
</trkpt>
<trkpt lat="46.3055310" lon="9.9371690">
	<ele>2005.40</ele>
	<time>2021-08-31T06:50:13.000Z</time>
</trkpt>
<trkpt lat="46.3055600" lon="9.9372050">
	<ele>2005.60</ele>
	<time>2021-08-31T06:50:16.000Z</time>
</trkpt>
<trkpt lat="46.3055690" lon="9.9372180">
	<ele>2005.60</ele>
	<time>2021-08-31T06:50:17.000Z</time>
</trkpt>
<trkpt lat="46.3056120" lon="9.9372820">
	<ele>2005.60</ele>
	<time>2021-08-31T06:50:22.000Z</time>
</trkpt>
<trkpt lat="46.3057100" lon="9.9374200">
	<ele>2006.00</ele>
	<time>2021-08-31T06:50:32.000Z</time>
</trkpt>
<trkpt lat="46.3057950" lon="9.9376470">
	<ele>2006.60</ele>
	<time>2021-08-31T06:50:45.000Z</time>
</trkpt>
<trkpt lat="46.3058020" lon="9.9376620">
	<ele>2006.60</ele>
	<time>2021-08-31T06:50:46.000Z</time>
</trkpt>
<trkpt lat="46.3058190" lon="9.9377560">
	<ele>2006.80</ele>
	<time>2021-08-31T06:50:51.000Z</time>
</trkpt>
<trkpt lat="46.3058870" lon="9.9379490">
	<ele>2007.20</ele>
	<time>2021-08-31T06:51:01.000Z</time>
</trkpt>
<trkpt lat="46.3059000" lon="9.9380230">
	<ele>2007.40</ele>
	<time>2021-08-31T06:51:06.000Z</time>
</trkpt>
<trkpt lat="46.3059110" lon="9.9380500">
	<ele>2007.40</ele>
	<time>2021-08-31T06:51:08.000Z</time>
</trkpt>
<trkpt lat="46.3059190" lon="9.9380820">
	<ele>2007.40</ele>
	<time>2021-08-31T06:51:10.000Z</time>
</trkpt>
<trkpt lat="46.3059230" lon="9.9380970">
	<ele>2007.40</ele>
	<time>2021-08-31T06:51:11.000Z</time>
</trkpt>
<trkpt lat="46.3059300" lon="9.9381070">
	<ele>2007.40</ele>
	<time>2021-08-31T06:51:12.000Z</time>
</trkpt>
<trkpt lat="46.3059600" lon="9.9381410">
	<ele>2007.60</ele>
	<time>2021-08-31T06:51:15.000Z</time>
</trkpt>
<trkpt lat="46.3059740" lon="9.9381560">
	<ele>2007.60</ele>
	<time>2021-08-31T06:51:16.000Z</time>
</trkpt>
<trkpt lat="46.3060060" lon="9.9382030">
	<ele>2007.80</ele>
	<time>2021-08-31T06:51:19.000Z</time>
</trkpt>
<trkpt lat="46.3060980" lon="9.9383490">
	<ele>2008.20</ele>
	<time>2021-08-31T06:51:27.000Z</time>
</trkpt>
<trkpt lat="46.3061180" lon="9.9384060">
	<ele>2008.20</ele>
	<time>2021-08-31T06:51:30.000Z</time>
</trkpt>
<trkpt lat="46.3061260" lon="9.9384230">
	<ele>2008.40</ele>
	<time>2021-08-31T06:51:31.000Z</time>
</trkpt>
<trkpt lat="46.3061450" lon="9.9384900">
	<ele>2008.60</ele>
	<time>2021-08-31T06:51:35.000Z</time>
</trkpt>
<trkpt lat="46.3061760" lon="9.9385570">
	<ele>2008.60</ele>
	<time>2021-08-31T06:51:39.000Z</time>
</trkpt>
<trkpt lat="46.3062110" lon="9.9386290">
	<ele>2008.80</ele>
	<time>2021-08-31T06:51:43.000Z</time>
</trkpt>
<trkpt lat="46.3062360" lon="9.9386710">
	<ele>2009.00</ele>
	<time>2021-08-31T06:51:45.000Z</time>
</trkpt>
<trkpt lat="46.3062570" lon="9.9387080">
	<ele>2009.00</ele>
	<time>2021-08-31T06:51:47.000Z</time>
</trkpt>
<trkpt lat="46.3063000" lon="9.9388190">
	<ele>2009.20</ele>
	<time>2021-08-31T06:51:53.000Z</time>
</trkpt>
<trkpt lat="46.3063120" lon="9.9389660">
	<ele>2009.60</ele>
	<time>2021-08-31T06:52:01.000Z</time>
</trkpt>
<trkpt lat="46.3063190" lon="9.9390030">
	<ele>2009.60</ele>
	<time>2021-08-31T06:52:03.000Z</time>
</trkpt>
<trkpt lat="46.3063260" lon="9.9390480">
	<ele>2009.80</ele>
	<time>2021-08-31T06:52:06.000Z</time>
</trkpt>
<trkpt lat="46.3063580" lon="9.9391180">
	<ele>2009.80</ele>
	<time>2021-08-31T06:52:12.000Z</time>
</trkpt>
<trkpt lat="46.3063660" lon="9.9391320">
	<ele>2009.80</ele>
	<time>2021-08-31T06:52:13.000Z</time>
</trkpt>
<trkpt lat="46.3063920" lon="9.9391660">
	<ele>2010.00</ele>
	<time>2021-08-31T06:52:16.000Z</time>
</trkpt>
<trkpt lat="46.3064400" lon="9.9392380">
	<ele>2010.20</ele>
	<time>2021-08-31T06:52:21.000Z</time>
</trkpt>
<trkpt lat="46.3064660" lon="9.9392720">
	<ele>2010.20</ele>
	<time>2021-08-31T06:52:24.000Z</time>
</trkpt>
<trkpt lat="46.3065790" lon="9.9393740">
	<ele>2010.40</ele>
	<time>2021-08-31T06:52:34.000Z</time>
</trkpt>
<trkpt lat="46.3066380" lon="9.9394140">
	<ele>2010.60</ele>
	<time>2021-08-31T06:52:40.000Z</time>
</trkpt>
<trkpt lat="46.3066480" lon="9.9394240">
	<ele>2010.80</ele>
	<time>2021-08-31T06:52:41.000Z</time>
</trkpt>
<trkpt lat="46.3066570" lon="9.9394380">
	<ele>2010.80</ele>
	<time>2021-08-31T06:52:42.000Z</time>
</trkpt>
<trkpt lat="46.3067320" lon="9.9395720">
	<ele>2010.80</ele>
	<time>2021-08-31T06:52:48.000Z</time>
</trkpt>
<trkpt lat="46.3067790" lon="9.9396370">
	<ele>2011.00</ele>
	<time>2021-08-31T06:52:52.000Z</time>
</trkpt>
<trkpt lat="46.3068190" lon="9.9396650">
	<ele>2011.00</ele>
	<time>2021-08-31T06:52:55.000Z</time>
</trkpt>
<trkpt lat="46.3069020" lon="9.9397470">
	<ele>2011.20</ele>
	<time>2021-08-31T06:53:04.000Z</time>
</trkpt>
<trkpt lat="46.3069160" lon="9.9397510">
	<ele>2011.20</ele>
	<time>2021-08-31T06:53:05.000Z</time>
</trkpt>
<trkpt lat="46.3069300" lon="9.9397560">
	<ele>2011.20</ele>
	<time>2021-08-31T06:53:06.000Z</time>
</trkpt>
<trkpt lat="46.3070370" lon="9.9397690">
	<ele>2011.20</ele>
	<time>2021-08-31T06:53:14.000Z</time>
</trkpt>
<trkpt lat="46.3070880" lon="9.9397800">
	<ele>2011.20</ele>
	<time>2021-08-31T06:53:18.000Z</time>
</trkpt>
<trkpt lat="46.3071220" lon="9.9397930">
	<ele>2011.40</ele>
	<time>2021-08-31T06:53:22.000Z</time>
</trkpt>
<trkpt lat="46.3071810" lon="9.9398250">
	<ele>2011.40</ele>
	<time>2021-08-31T06:53:27.000Z</time>
</trkpt>
<trkpt lat="46.3072230" lon="9.9398510">
	<ele>2011.60</ele>
	<time>2021-08-31T06:53:30.000Z</time>
</trkpt>
<trkpt lat="46.3072930" lon="9.9399070">
	<ele>2011.80</ele>
	<time>2021-08-31T06:53:36.000Z</time>
</trkpt>
<trkpt lat="46.3073300" lon="9.9399330">
	<ele>2011.80</ele>
	<time>2021-08-31T06:53:39.000Z</time>
</trkpt>
<trkpt lat="46.3073470" lon="9.9399470">
	<ele>2011.80</ele>
	<time>2021-08-31T06:53:41.000Z</time>
</trkpt>
<trkpt lat="46.3073570" lon="9.9399560">
	<ele>2012.00</ele>
	<time>2021-08-31T06:53:42.000Z</time>
</trkpt>
<trkpt lat="46.3074370" lon="9.9400580">
	<ele>2012.20</ele>
	<time>2021-08-31T06:53:49.000Z</time>
</trkpt>
<trkpt lat="46.3075030" lon="9.9402180">
	<ele>2012.40</ele>
	<time>2021-08-31T06:53:57.000Z</time>
</trkpt>
<trkpt lat="46.3075100" lon="9.9402380">
	<ele>2012.60</ele>
	<time>2021-08-31T06:53:58.000Z</time>
</trkpt>
<trkpt lat="46.3075350" lon="9.9402820">
	<ele>2012.80</ele>
	<time>2021-08-31T06:54:01.000Z</time>
</trkpt>
<trkpt lat="46.3075390" lon="9.9402990">
	<ele>2012.80</ele>
	<time>2021-08-31T06:54:02.000Z</time>
</trkpt>
<trkpt lat="46.3075410" lon="9.9403140">
	<ele>2012.80</ele>
	<time>2021-08-31T06:54:03.000Z</time>
</trkpt>
<trkpt lat="46.3075450" lon="9.9403940">
	<ele>2012.80</ele>
	<time>2021-08-31T06:54:07.000Z</time>
</trkpt>
<trkpt lat="46.3075890" lon="9.9405470">
	<ele>2012.80</ele>
	<time>2021-08-31T06:54:15.000Z</time>
</trkpt>
<trkpt lat="46.3076500" lon="9.9405670">
	<ele>2013.00</ele>
	<time>2021-08-31T06:54:22.000Z</time>
</trkpt>
<trkpt lat="46.3076520" lon="9.9405570">
	<ele>2013.00</ele>
	<time>2021-08-31T06:54:23.000Z</time>
</trkpt>
<trkpt lat="46.3076930" lon="9.9405580">
	<ele>2013.20</ele>
	<time>2021-08-31T06:54:27.000Z</time>
</trkpt>
<trkpt lat="46.3077320" lon="9.9405430">
	<ele>2012.80</ele>
	<time>2021-08-31T06:54:32.000Z</time>
</trkpt>
<trkpt lat="46.3077780" lon="9.9405250">
	<ele>2013.20</ele>
	<time>2021-08-31T06:54:37.000Z</time>
</trkpt>
<trkpt lat="46.3078010" lon="9.9405040">
	<ele>2013.20</ele>
	<time>2021-08-31T06:54:39.000Z</time>
</trkpt>
<trkpt lat="46.3078050" lon="9.9404670">
	<ele>2013.20</ele>
	<time>2021-08-31T06:54:41.000Z</time>
</trkpt>
<trkpt lat="46.3078150" lon="9.9404540">
	<ele>2013.20</ele>
	<time>2021-08-31T06:54:43.000Z</time>
</trkpt>
<trkpt lat="46.3078210" lon="9.9404430">
	<ele>2013.40</ele>
	<time>2021-08-31T06:54:45.000Z</time>
</trkpt>
<trkpt lat="46.3078260" lon="9.9404800">
	<ele>2013.40</ele>
	<time>2021-08-31T06:54:47.000Z</time>
</trkpt>
<trkpt lat="46.3079050" lon="9.9405770">
	<ele>2013.40</ele>
	<time>2021-08-31T06:54:52.000Z</time>
</trkpt>
<trkpt lat="46.3080180" lon="9.9406200">
	<ele>2013.60</ele>
	<time>2021-08-31T06:54:59.000Z</time>
</trkpt>
<trkpt lat="46.3080530" lon="9.9406370">
	<ele>2013.80</ele>
	<time>2021-08-31T06:55:01.000Z</time>
</trkpt>
<trkpt lat="46.3080830" lon="9.9406530">
	<ele>2014.20</ele>
	<time>2021-08-31T06:55:05.000Z</time>
</trkpt>
<trkpt lat="46.3088130" lon="9.9409990">
	<ele>2015.00</ele>
	<time>2021-08-31T06:55:49.000Z</time>
</trkpt>
<trkpt lat="46.3088170" lon="9.9410520">
	<ele>2015.00</ele>
	<time>2021-08-31T06:55:50.000Z</time>
</trkpt>
<trkpt lat="46.3089520" lon="9.9410570">
	<ele>2015.60</ele>
	<time>2021-08-31T06:55:56.000Z</time>
</trkpt>
<trkpt lat="46.3089600" lon="9.9411220">
	<ele>2015.60</ele>
	<time>2021-08-31T06:56:00.000Z</time>
</trkpt>
<trkpt lat="46.3089630" lon="9.9411330">
	<ele>2015.40</ele>
	<time>2021-08-31T06:56:01.000Z</time>
</trkpt>
<trkpt lat="46.3090540" lon="9.9412460">
	<ele>2015.20</ele>
	<time>2021-08-31T06:56:09.000Z</time>
</trkpt>
<trkpt lat="46.3090710" lon="9.9412810">
	<ele>2015.20</ele>
	<time>2021-08-31T06:56:11.000Z</time>
</trkpt>
<trkpt lat="46.3091120" lon="9.9413430">
	<ele>2015.20</ele>
	<time>2021-08-31T06:56:16.000Z</time>
</trkpt>
<trkpt lat="46.3091270" lon="9.9413690">
	<ele>2015.20</ele>
	<time>2021-08-31T06:56:18.000Z</time>
</trkpt>
<trkpt lat="46.3092040" lon="9.9414460">
	<ele>2015.20</ele>
	<time>2021-08-31T06:56:25.000Z</time>
</trkpt>
<trkpt lat="46.3092550" lon="9.9415450">
	<ele>2015.40</ele>
	<time>2021-08-31T06:56:31.000Z</time>
</trkpt>
<trkpt lat="46.3093340" lon="9.9416630">
	<ele>2015.40</ele>
	<time>2021-08-31T06:56:40.000Z</time>
</trkpt>
<trkpt lat="46.3093990" lon="9.9417550">
	<ele>2015.80</ele>
	<time>2021-08-31T06:56:46.000Z</time>
</trkpt>
<trkpt lat="46.3094360" lon="9.9418130">
	<ele>2016.20</ele>
	<time>2021-08-31T06:56:50.000Z</time>
</trkpt>
<trkpt lat="46.3095000" lon="9.9418990">
	<ele>2016.00</ele>
	<time>2021-08-31T06:56:57.000Z</time>
</trkpt>
<trkpt lat="46.3095250" lon="9.9420370">
	<ele>2016.60</ele>
	<time>2021-08-31T06:57:04.000Z</time>
</trkpt>
<trkpt lat="46.3095330" lon="9.9421550">
	<ele>2016.60</ele>
	<time>2021-08-31T06:57:10.000Z</time>
</trkpt>
<trkpt lat="46.3095600" lon="9.9422340">
	<ele>2016.60</ele>
	<time>2021-08-31T06:57:14.000Z</time>
</trkpt>
<trkpt lat="46.3095710" lon="9.9422500">
	<ele>2016.60</ele>
	<time>2021-08-31T06:57:15.000Z</time>
</trkpt>
<trkpt lat="46.3095890" lon="9.9422740">
	<ele>2016.80</ele>
	<time>2021-08-31T06:57:17.000Z</time>
</trkpt>
<trkpt lat="46.3095970" lon="9.9422900">
	<ele>2017.00</ele>
	<time>2021-08-31T06:57:18.000Z</time>
</trkpt>
<trkpt lat="46.3096540" lon="9.9423640">
	<ele>2016.80</ele>
	<time>2021-08-31T06:57:24.000Z</time>
</trkpt>
<trkpt lat="46.3096650" lon="9.9424000">
	<ele>2016.60</ele>
	<time>2021-08-31T06:57:26.000Z</time>
</trkpt>
<trkpt lat="46.3096490" lon="9.9424480">
	<ele>2017.00</ele>
	<time>2021-08-31T06:57:29.000Z</time>
</trkpt>
<trkpt lat="46.3096270" lon="9.9424830">
	<ele>2017.00</ele>
	<time>2021-08-31T06:57:32.000Z</time>
</trkpt>
<trkpt lat="46.3096180" lon="9.9424890">
	<ele>2017.00</ele>
	<time>2021-08-31T06:57:33.000Z</time>
</trkpt>
<trkpt lat="46.3095660" lon="9.9425230">
	<ele>2017.20</ele>
	<time>2021-08-31T06:57:37.000Z</time>
</trkpt>
<trkpt lat="46.3095550" lon="9.9425340">
	<ele>2017.20</ele>
	<time>2021-08-31T06:57:38.000Z</time>
</trkpt>
<trkpt lat="46.3095300" lon="9.9425450">
	<ele>2017.60</ele>
	<time>2021-08-31T06:57:40.000Z</time>
</trkpt>
<trkpt lat="46.3095000" lon="9.9425450">
	<ele>2017.60</ele>
	<time>2021-08-31T06:57:42.000Z</time>
</trkpt>
<trkpt lat="46.3094460" lon="9.9425430">
	<ele>2017.80</ele>
	<time>2021-08-31T06:57:46.000Z</time>
</trkpt>
<trkpt lat="46.3093960" lon="9.9424900">
	<ele>2018.20</ele>
	<time>2021-08-31T06:57:51.000Z</time>
</trkpt>
<trkpt lat="46.3093000" lon="9.9423410">
	<ele>2018.80</ele>
	<time>2021-08-31T06:58:01.000Z</time>
</trkpt>
<trkpt lat="46.3092910" lon="9.9423260">
	<ele>2018.80</ele>
	<time>2021-08-31T06:58:02.000Z</time>
</trkpt>
<trkpt lat="46.3092680" lon="9.9422800">
	<ele>2019.00</ele>
	<time>2021-08-31T06:58:05.000Z</time>
</trkpt>
<trkpt lat="46.3092540" lon="9.9422560">
	<ele>2019.20</ele>
	<time>2021-08-31T06:58:07.000Z</time>
</trkpt>
<trkpt lat="46.3091740" lon="9.9421720">
	<ele>2019.80</ele>
	<time>2021-08-31T06:58:14.000Z</time>
</trkpt>
<trkpt lat="46.3091660" lon="9.9421570">
	<ele>2020.00</ele>
	<time>2021-08-31T06:58:15.000Z</time>
</trkpt>
<trkpt lat="46.3091570" lon="9.9421440">
	<ele>2020.20</ele>
	<time>2021-08-31T06:58:16.000Z</time>
</trkpt>
<trkpt lat="46.3091090" lon="9.9420910">
	<ele>2020.40</ele>
	<time>2021-08-31T06:58:21.000Z</time>
</trkpt>
<trkpt lat="46.3090430" lon="9.9419720">
	<ele>2021.20</ele>
	<time>2021-08-31T06:58:30.000Z</time>
</trkpt>
<trkpt lat="46.3089650" lon="9.9419550">
	<ele>2021.80</ele>
	<time>2021-08-31T06:58:37.000Z</time>
</trkpt>
<trkpt lat="46.3089510" lon="9.9419800">
	<ele>2022.20</ele>
	<time>2021-08-31T06:58:39.000Z</time>
</trkpt>
<trkpt lat="46.3089410" lon="9.9420630">
	<ele>2023.40</ele>
	<time>2021-08-31T06:58:44.000Z</time>
</trkpt>
<trkpt lat="46.3089670" lon="9.9421990">
	<ele>2024.40</ele>
	<time>2021-08-31T06:58:52.000Z</time>
</trkpt>
<trkpt lat="46.3089720" lon="9.9422150">
	<ele>2024.60</ele>
	<time>2021-08-31T06:58:53.000Z</time>
</trkpt>
<trkpt lat="46.3090040" lon="9.9423080">
	<ele>2025.40</ele>
	<time>2021-08-31T06:58:59.000Z</time>
</trkpt>
<trkpt lat="46.3090090" lon="9.9423260">
	<ele>2025.60</ele>
	<time>2021-08-31T06:59:00.000Z</time>
</trkpt>
<trkpt lat="46.3090240" lon="9.9423540">
	<ele>2025.80</ele>
	<time>2021-08-31T06:59:02.000Z</time>
</trkpt>
<trkpt lat="46.3090510" lon="9.9424040">
	<ele>2026.60</ele>
	<time>2021-08-31T06:59:06.000Z</time>
</trkpt>
<trkpt lat="46.3090810" lon="9.9424430">
	<ele>2026.80</ele>
	<time>2021-08-31T06:59:10.000Z</time>
</trkpt>
<trkpt lat="46.3091220" lon="9.9424980">
	<ele>2027.40</ele>
	<time>2021-08-31T06:59:15.000Z</time>
</trkpt>
<trkpt lat="46.3091450" lon="9.9425330">
	<ele>2027.80</ele>
	<time>2021-08-31T06:59:18.000Z</time>
</trkpt>
<trkpt lat="46.3091620" lon="9.9425800">
	<ele>2028.20</ele>
	<time>2021-08-31T06:59:21.000Z</time>
</trkpt>
<trkpt lat="46.3091980" lon="9.9426500">
	<ele>2028.80</ele>
	<time>2021-08-31T06:59:26.000Z</time>
</trkpt>
<trkpt lat="46.3092240" lon="9.9427050">
	<ele>2029.40</ele>
	<time>2021-08-31T06:59:30.000Z</time>
</trkpt>
<trkpt lat="46.3092420" lon="9.9427340">
	<ele>2029.80</ele>
	<time>2021-08-31T06:59:32.000Z</time>
</trkpt>
<trkpt lat="46.3092940" lon="9.9428280">
	<ele>2030.60</ele>
	<time>2021-08-31T06:59:40.000Z</time>
</trkpt>
<trkpt lat="46.3093080" lon="9.9428490">
	<ele>2030.80</ele>
	<time>2021-08-31T06:59:42.000Z</time>
</trkpt>
<trkpt lat="46.3093490" lon="9.9429220">
	<ele>2031.60</ele>
	<time>2021-08-31T06:59:48.000Z</time>
</trkpt>
<trkpt lat="46.3093630" lon="9.9429490">
	<ele>2031.80</ele>
	<time>2021-08-31T06:59:50.000Z</time>
</trkpt>
<trkpt lat="46.3093720" lon="9.9429810">
	<ele>2032.20</ele>
	<time>2021-08-31T06:59:52.000Z</time>
</trkpt>
<trkpt lat="46.3094190" lon="9.9430620">
	<ele>2033.00</ele>
	<time>2021-08-31T06:59:59.000Z</time>
</trkpt>
<trkpt lat="46.3094280" lon="9.9430730">
	<ele>2033.00</ele>
	<time>2021-08-31T07:00:00.000Z</time>
</trkpt>
<trkpt lat="46.3094560" lon="9.9431280">
	<ele>2034.00</ele>
	<time>2021-08-31T07:00:04.000Z</time>
</trkpt>
<trkpt lat="46.3094680" lon="9.9431530">
	<ele>2034.60</ele>
	<time>2021-08-31T07:00:06.000Z</time>
</trkpt>
<trkpt lat="46.3095040" lon="9.9432270">
	<ele>2034.80</ele>
	<time>2021-08-31T07:00:11.000Z</time>
</trkpt>
<trkpt lat="46.3095310" lon="9.9432630">
	<ele>2035.20</ele>
	<time>2021-08-31T07:00:14.000Z</time>
</trkpt>
<trkpt lat="46.3095960" lon="9.9433770">
	<ele>2036.20</ele>
	<time>2021-08-31T07:00:23.000Z</time>
</trkpt>
<trkpt lat="46.3096360" lon="9.9434830">
	<ele>2037.40</ele>
	<time>2021-08-31T07:00:31.000Z</time>
</trkpt>
<trkpt lat="46.3096470" lon="9.9435110">
	<ele>2037.40</ele>
	<time>2021-08-31T07:00:33.000Z</time>
</trkpt>
<trkpt lat="46.3096980" lon="9.9435970">
	<ele>2038.40</ele>
	<time>2021-08-31T07:00:40.000Z</time>
</trkpt>
<trkpt lat="46.3097280" lon="9.9436530">
	<ele>2038.80</ele>
	<time>2021-08-31T07:00:44.000Z</time>
</trkpt>
<trkpt lat="46.3097630" lon="9.9437170">
	<ele>2039.60</ele>
	<time>2021-08-31T07:00:49.000Z</time>
</trkpt>
<trkpt lat="46.3097780" lon="9.9437540">
	<ele>2039.60</ele>
	<time>2021-08-31T07:00:52.000Z</time>
</trkpt>
<trkpt lat="46.3097980" lon="9.9437930">
	<ele>2040.00</ele>
	<time>2021-08-31T07:00:55.000Z</time>
</trkpt>
<trkpt lat="46.3098220" lon="9.9438200">
	<ele>2040.60</ele>
	<time>2021-08-31T07:00:58.000Z</time>
</trkpt>
<trkpt lat="46.3098260" lon="9.9438330">
	<ele>2040.60</ele>
	<time>2021-08-31T07:00:59.000Z</time>
</trkpt>
<trkpt lat="46.3098530" lon="9.9439030">
	<ele>2041.00</ele>
	<time>2021-08-31T07:01:04.000Z</time>
</trkpt>
<trkpt lat="46.3098750" lon="9.9439410">
	<ele>2041.00</ele>
	<time>2021-08-31T07:01:07.000Z</time>
</trkpt>
<trkpt lat="46.3098980" lon="9.9439750">
	<ele>2041.60</ele>
	<time>2021-08-31T07:01:10.000Z</time>
</trkpt>
<trkpt lat="46.3099270" lon="9.9440300">
	<ele>2042.20</ele>
	<time>2021-08-31T07:01:15.000Z</time>
</trkpt>
<trkpt lat="46.3099550" lon="9.9440840">
	<ele>2042.80</ele>
	<time>2021-08-31T07:01:19.000Z</time>
</trkpt>
<trkpt lat="46.3100010" lon="9.9441580">
	<ele>2043.40</ele>
	<time>2021-08-31T07:01:25.000Z</time>
</trkpt>
<trkpt lat="46.3100300" lon="9.9442080">
	<ele>2043.80</ele>
	<time>2021-08-31T07:01:29.000Z</time>
</trkpt>
<trkpt lat="46.3100760" lon="9.9442790">
	<ele>2044.20</ele>
	<time>2021-08-31T07:01:35.000Z</time>
</trkpt>
<trkpt lat="46.3101060" lon="9.9443150">
	<ele>2044.80</ele>
	<time>2021-08-31T07:01:39.000Z</time>
</trkpt>
<trkpt lat="46.3101640" lon="9.9443580">
	<ele>2046.00</ele>
	<time>2021-08-31T07:01:45.000Z</time>
</trkpt>
<trkpt lat="46.3101750" lon="9.9443660">
	<ele>2046.00</ele>
	<time>2021-08-31T07:01:46.000Z</time>
</trkpt>
<trkpt lat="46.3102400" lon="9.9444160">
	<ele>2047.00</ele>
	<time>2021-08-31T07:01:53.000Z</time>
</trkpt>
<trkpt lat="46.3102510" lon="9.9444210">
	<ele>2047.20</ele>
	<time>2021-08-31T07:01:54.000Z</time>
</trkpt>
<trkpt lat="46.3103010" lon="9.9444530">
	<ele>2048.40</ele>
	<time>2021-08-31T07:02:00.000Z</time>
</trkpt>
<trkpt lat="46.3103310" lon="9.9444610">
	<ele>2048.60</ele>
	<time>2021-08-31T07:02:03.000Z</time>
</trkpt>
<trkpt lat="46.3103640" lon="9.9444570">
	<ele>2049.40</ele>
	<time>2021-08-31T07:02:06.000Z</time>
</trkpt>
<trkpt lat="46.3104270" lon="9.9444640">
	<ele>2049.80</ele>
	<time>2021-08-31T07:02:13.000Z</time>
</trkpt>
<trkpt lat="46.3104880" lon="9.9444970">
	<ele>2050.40</ele>
	<time>2021-08-31T07:02:19.000Z</time>
</trkpt>
<trkpt lat="46.3105200" lon="9.9445030">
	<ele>2051.00</ele>
	<time>2021-08-31T07:02:22.000Z</time>
</trkpt>
<trkpt lat="46.3105760" lon="9.9445460">
	<ele>2051.60</ele>
	<time>2021-08-31T07:02:28.000Z</time>
</trkpt>
<trkpt lat="46.3105980" lon="9.9445710">
	<ele>2052.00</ele>
	<time>2021-08-31T07:02:31.000Z</time>
</trkpt>
<trkpt lat="46.3106460" lon="9.9446280">
	<ele>2052.80</ele>
	<time>2021-08-31T07:02:37.000Z</time>
</trkpt>
<trkpt lat="46.3106540" lon="9.9446400">
	<ele>2053.20</ele>
	<time>2021-08-31T07:02:38.000Z</time>
</trkpt>
<trkpt lat="46.3107010" lon="9.9447360">
	<ele>2053.60</ele>
	<time>2021-08-31T07:02:46.000Z</time>
</trkpt>
<trkpt lat="46.3107110" lon="9.9447600">
	<ele>2054.20</ele>
	<time>2021-08-31T07:02:48.000Z</time>
</trkpt>
<trkpt lat="46.3107180" lon="9.9447710">
	<ele>2054.60</ele>
	<time>2021-08-31T07:02:49.000Z</time>
</trkpt>
<trkpt lat="46.3107430" lon="9.9448400">
	<ele>2055.20</ele>
	<time>2021-08-31T07:02:54.000Z</time>
</trkpt>
<trkpt lat="46.3107720" lon="9.9449180">
	<ele>2055.80</ele>
	<time>2021-08-31T07:03:00.000Z</time>
</trkpt>
<trkpt lat="46.3107970" lon="9.9449830">
	<ele>2056.40</ele>
	<time>2021-08-31T07:03:05.000Z</time>
</trkpt>
<trkpt lat="46.3108170" lon="9.9450350">
	<ele>2056.60</ele>
	<time>2021-08-31T07:03:09.000Z</time>
</trkpt>
<trkpt lat="46.3108570" lon="9.9451110">
	<ele>2057.40</ele>
	<time>2021-08-31T07:03:15.000Z</time>
</trkpt>
<trkpt lat="46.3108930" lon="9.9451680">
	<ele>2058.20</ele>
	<time>2021-08-31T07:03:20.000Z</time>
</trkpt>
<trkpt lat="46.3109060" lon="9.9451720">
	<ele>2058.20</ele>
	<time>2021-08-31T07:03:21.000Z</time>
</trkpt>
<trkpt lat="46.3109260" lon="9.9451880">
	<ele>2058.40</ele>
	<time>2021-08-31T07:03:23.000Z</time>
</trkpt>
<trkpt lat="46.3109530" lon="9.9452080">
	<ele>2058.60</ele>
	<time>2021-08-31T07:03:26.000Z</time>
</trkpt>
<trkpt lat="46.3109800" lon="9.9452350">
	<ele>2059.00</ele>
	<time>2021-08-31T07:03:29.000Z</time>
</trkpt>
<trkpt lat="46.3110170" lon="9.9452610">
	<ele>2059.60</ele>
	<time>2021-08-31T07:03:33.000Z</time>
</trkpt>
<trkpt lat="46.3110440" lon="9.9452850">
	<ele>2059.80</ele>
	<time>2021-08-31T07:03:36.000Z</time>
</trkpt>
<trkpt lat="46.3110710" lon="9.9453230">
	<ele>2060.20</ele>
	<time>2021-08-31T07:03:40.000Z</time>
</trkpt>
<trkpt lat="46.3110720" lon="9.9453670">
	<ele>2060.60</ele>
	<time>2021-08-31T07:03:43.000Z</time>
</trkpt>
<trkpt lat="46.3110710" lon="9.9453780">
	<ele>2060.60</ele>
	<time>2021-08-31T07:03:44.000Z</time>
</trkpt>
<trkpt lat="46.3110400" lon="9.9454090">
	<ele>2060.80</ele>
	<time>2021-08-31T07:03:48.000Z</time>
</trkpt>
<trkpt lat="46.3110160" lon="9.9454120">
	<ele>2061.00</ele>
	<time>2021-08-31T07:03:50.000Z</time>
</trkpt>
<trkpt lat="46.3109720" lon="9.9454030">
	<ele>2061.60</ele>
	<time>2021-08-31T07:03:54.000Z</time>
</trkpt>
<trkpt lat="46.3109190" lon="9.9453810">
	<ele>2062.00</ele>
	<time>2021-08-31T07:03:59.000Z</time>
</trkpt>
<trkpt lat="46.3108680" lon="9.9453380">
	<ele>2062.00</ele>
	<time>2021-08-31T07:04:04.000Z</time>
</trkpt>
<trkpt lat="46.3108490" lon="9.9453180">
	<ele>2062.40</ele>
	<time>2021-08-31T07:04:06.000Z</time>
</trkpt>
<trkpt lat="46.3108200" lon="9.9452890">
	<ele>2062.80</ele>
	<time>2021-08-31T07:04:09.000Z</time>
</trkpt>
<trkpt lat="46.3107720" lon="9.9452360">
	<ele>2063.20</ele>
	<time>2021-08-31T07:04:14.000Z</time>
</trkpt>
<trkpt lat="46.3107460" lon="9.9452060">
	<ele>2063.20</ele>
	<time>2021-08-31T07:04:17.000Z</time>
</trkpt>
<trkpt lat="46.3107220" lon="9.9451650">
	<ele>2063.80</ele>
	<time>2021-08-31T07:04:21.000Z</time>
</trkpt>
<trkpt lat="46.3106900" lon="9.9451060">
	<ele>2064.60</ele>
	<time>2021-08-31T07:04:26.000Z</time>
</trkpt>
<trkpt lat="46.3106660" lon="9.9450770">
	<ele>2064.80</ele>
	<time>2021-08-31T07:04:28.000Z</time>
</trkpt>
<trkpt lat="46.3105980" lon="9.9450680">
	<ele>2065.20</ele>
	<time>2021-08-31T07:04:33.000Z</time>
</trkpt>
<trkpt lat="46.3105900" lon="9.9450780">
	<ele>2065.40</ele>
	<time>2021-08-31T07:04:34.000Z</time>
</trkpt>
<trkpt lat="46.3105780" lon="9.9451110">
	<ele>2065.80</ele>
	<time>2021-08-31T07:04:36.000Z</time>
</trkpt>
<trkpt lat="46.3105800" lon="9.9451820">
	<ele>2065.80</ele>
	<time>2021-08-31T07:04:40.000Z</time>
</trkpt>
<trkpt lat="46.3105820" lon="9.9451990">
	<ele>2065.80</ele>
	<time>2021-08-31T07:04:41.000Z</time>
</trkpt>
<trkpt lat="46.3105870" lon="9.9452190">
	<ele>2066.00</ele>
	<time>2021-08-31T07:04:43.000Z</time>
</trkpt>
<trkpt lat="46.3105930" lon="9.9452300">
	<ele>2066.40</ele>
	<time>2021-08-31T07:04:44.000Z</time>
</trkpt>
<trkpt lat="46.3106040" lon="9.9452440">
	<ele>2066.60</ele>
	<time>2021-08-31T07:04:45.000Z</time>
</trkpt>
<trkpt lat="46.3106180" lon="9.9452530">
	<ele>2066.80</ele>
	<time>2021-08-31T07:04:46.000Z</time>
</trkpt>
<trkpt lat="46.3106380" lon="9.9452830">
	<ele>2067.00</ele>
	<time>2021-08-31T07:04:49.000Z</time>
</trkpt>
<trkpt lat="46.3106640" lon="9.9453250">
	<ele>2067.80</ele>
	<time>2021-08-31T07:04:53.000Z</time>
</trkpt>
<trkpt lat="46.3106980" lon="9.9453650">
	<ele>2068.40</ele>
	<time>2021-08-31T07:04:57.000Z</time>
</trkpt>
<trkpt lat="46.3107470" lon="9.9454330">
	<ele>2068.60</ele>
	<time>2021-08-31T07:05:03.000Z</time>
</trkpt>
<trkpt lat="46.3107680" lon="9.9454650">
	<ele>2068.80</ele>
	<time>2021-08-31T07:05:06.000Z</time>
</trkpt>
<trkpt lat="46.3107900" lon="9.9454800">
	<ele>2069.40</ele>
	<time>2021-08-31T07:05:09.000Z</time>
</trkpt>
<trkpt lat="46.3107990" lon="9.9454840">
	<ele>2069.60</ele>
	<time>2021-08-31T07:05:10.000Z</time>
</trkpt>
<trkpt lat="46.3108060" lon="9.9454890">
	<ele>2069.60</ele>
	<time>2021-08-31T07:05:11.000Z</time>
</trkpt>
<trkpt lat="46.3108590" lon="9.9455510">
	<ele>2070.40</ele>
	<time>2021-08-31T07:05:17.000Z</time>
</trkpt>
<trkpt lat="46.3108730" lon="9.9455690">
	<ele>2070.40</ele>
	<time>2021-08-31T07:05:19.000Z</time>
</trkpt>
<trkpt lat="46.3109430" lon="9.9456620">
	<ele>2071.80</ele>
	<time>2021-08-31T07:05:27.000Z</time>
</trkpt>
<trkpt lat="46.3109540" lon="9.9456720">
	<ele>2072.00</ele>
	<time>2021-08-31T07:05:28.000Z</time>
</trkpt>
<trkpt lat="46.3110080" lon="9.9457310">
	<ele>2072.60</ele>
	<time>2021-08-31T07:05:35.000Z</time>
</trkpt>
<trkpt lat="46.3110170" lon="9.9457410">
	<ele>2072.80</ele>
	<time>2021-08-31T07:05:36.000Z</time>
</trkpt>
<trkpt lat="46.3110430" lon="9.9457710">
	<ele>2073.20</ele>
	<time>2021-08-31T07:05:39.000Z</time>
</trkpt>
<trkpt lat="46.3111290" lon="9.9458230">
	<ele>2073.80</ele>
	<time>2021-08-31T07:05:47.000Z</time>
</trkpt>
<trkpt lat="46.3111350" lon="9.9458300">
	<ele>2074.00</ele>
	<time>2021-08-31T07:05:48.000Z</time>
</trkpt>
<trkpt lat="46.3111540" lon="9.9458420">
	<ele>2074.40</ele>
	<time>2021-08-31T07:05:50.000Z</time>
</trkpt>
<trkpt lat="46.3111970" lon="9.9458720">
	<ele>2075.00</ele>
	<time>2021-08-31T07:05:55.000Z</time>
</trkpt>
<trkpt lat="46.3112420" lon="9.9458910">
	<ele>2075.60</ele>
	<time>2021-08-31T07:05:59.000Z</time>
</trkpt>
<trkpt lat="46.3112730" lon="9.9459010">
	<ele>2076.00</ele>
	<time>2021-08-31T07:06:02.000Z</time>
</trkpt>
<trkpt lat="46.3113580" lon="9.9459270">
	<ele>2076.80</ele>
	<time>2021-08-31T07:06:10.000Z</time>
</trkpt>
<trkpt lat="46.3114010" lon="9.9459490">
	<ele>2077.00</ele>
	<time>2021-08-31T07:06:15.000Z</time>
</trkpt>
<trkpt lat="46.3114430" lon="9.9459650">
	<ele>2078.20</ele>
	<time>2021-08-31T07:06:19.000Z</time>
</trkpt>
<trkpt lat="46.3114670" lon="9.9459750">
	<ele>2078.40</ele>
	<time>2021-08-31T07:06:21.000Z</time>
</trkpt>
<trkpt lat="46.3115210" lon="9.9460190">
	<ele>2079.20</ele>
	<time>2021-08-31T07:06:28.000Z</time>
</trkpt>
<trkpt lat="46.3115580" lon="9.9460550">
	<ele>2079.80</ele>
	<time>2021-08-31T07:06:32.000Z</time>
</trkpt>
<trkpt lat="46.3116260" lon="9.9461110">
	<ele>2080.40</ele>
	<time>2021-08-31T07:06:39.000Z</time>
</trkpt>
<trkpt lat="46.3116780" lon="9.9461560">
	<ele>2081.00</ele>
	<time>2021-08-31T07:06:44.000Z</time>
</trkpt>
<trkpt lat="46.3117720" lon="9.9462060">
	<ele>2081.40</ele>
	<time>2021-08-31T07:06:53.000Z</time>
</trkpt>
<trkpt lat="46.3118180" lon="9.9462410">
	<ele>2082.60</ele>
	<time>2021-08-31T07:06:57.000Z</time>
</trkpt>
<trkpt lat="46.3118300" lon="9.9462440">
	<ele>2082.80</ele>
	<time>2021-08-31T07:06:58.000Z</time>
</trkpt>
<trkpt lat="46.3118860" lon="9.9462770">
	<ele>2083.20</ele>
	<time>2021-08-31T07:07:04.000Z</time>
</trkpt>
<trkpt lat="46.3119350" lon="9.9463100">
	<ele>2083.60</ele>
	<time>2021-08-31T07:07:09.000Z</time>
</trkpt>
<trkpt lat="46.3119920" lon="9.9463370">
	<ele>2084.40</ele>
	<time>2021-08-31T07:07:14.000Z</time>
</trkpt>
<trkpt lat="46.3120150" lon="9.9463530">
	<ele>2085.00</ele>
	<time>2021-08-31T07:07:17.000Z</time>
</trkpt>
<trkpt lat="46.3120360" lon="9.9463700">
	<ele>2085.60</ele>
	<time>2021-08-31T07:07:20.000Z</time>
</trkpt>
<trkpt lat="46.3120610" lon="9.9463820">
	<ele>2085.60</ele>
	<time>2021-08-31T07:07:22.000Z</time>
</trkpt>
<trkpt lat="46.3121590" lon="9.9464530">
	<ele>2086.00</ele>
	<time>2021-08-31T07:07:30.000Z</time>
</trkpt>
<trkpt lat="46.3121720" lon="9.9464540">
	<ele>2086.20</ele>
	<time>2021-08-31T07:07:32.000Z</time>
</trkpt>
<trkpt lat="46.3122420" lon="9.9464270">
	<ele>2086.80</ele>
	<time>2021-08-31T07:07:38.000Z</time>
</trkpt>
<trkpt lat="46.3122520" lon="9.9464310">
	<ele>2087.20</ele>
	<time>2021-08-31T07:07:39.000Z</time>
</trkpt>
<trkpt lat="46.3123430" lon="9.9464450">
	<ele>2088.20</ele>
	<time>2021-08-31T07:07:47.000Z</time>
</trkpt>
<trkpt lat="46.3123530" lon="9.9464440">
	<ele>2088.60</ele>
	<time>2021-08-31T07:07:48.000Z</time>
</trkpt>
<trkpt lat="46.3124150" lon="9.9464390">
	<ele>2089.40</ele>
	<time>2021-08-31T07:07:53.000Z</time>
</trkpt>
<trkpt lat="46.3124640" lon="9.9464390">
	<ele>2089.60</ele>
	<time>2021-08-31T07:07:57.000Z</time>
</trkpt>
<trkpt lat="46.3125360" lon="9.9464590">
	<ele>2090.40</ele>
	<time>2021-08-31T07:08:04.000Z</time>
</trkpt>
<trkpt lat="46.3126470" lon="9.9465360">
	<ele>2090.80</ele>
	<time>2021-08-31T07:08:14.000Z</time>
</trkpt>
<trkpt lat="46.3127540" lon="9.9466260">
	<ele>2091.00</ele>
	<time>2021-08-31T07:08:25.000Z</time>
</trkpt>
<trkpt lat="46.3127710" lon="9.9466470">
	<ele>2091.40</ele>
	<time>2021-08-31T07:08:27.000Z</time>
</trkpt>
<trkpt lat="46.3128390" lon="9.9466940">
	<ele>2092.00</ele>
	<time>2021-08-31T07:08:33.000Z</time>
</trkpt>
<trkpt lat="46.3128850" lon="9.9467260">
	<ele>2092.40</ele>
	<time>2021-08-31T07:08:37.000Z</time>
</trkpt>
<trkpt lat="46.3129520" lon="9.9467650">
	<ele>2092.60</ele>
	<time>2021-08-31T07:08:43.000Z</time>
</trkpt>
<trkpt lat="46.3129740" lon="9.9467770">
	<ele>2092.60</ele>
	<time>2021-08-31T07:08:45.000Z</time>
</trkpt>
<trkpt lat="46.3130820" lon="9.9468090">
	<ele>2092.80</ele>
	<time>2021-08-31T07:08:54.000Z</time>
</trkpt>
<trkpt lat="46.3131450" lon="9.9467860">
	<ele>2093.40</ele>
	<time>2021-08-31T07:08:59.000Z</time>
</trkpt>
<trkpt lat="46.3132090" lon="9.9467580">
	<ele>2094.00</ele>
	<time>2021-08-31T07:09:05.000Z</time>
</trkpt>
<trkpt lat="46.3132880" lon="9.9466930">
	<ele>2094.60</ele>
	<time>2021-08-31T07:09:13.000Z</time>
</trkpt>
<trkpt lat="46.3133290" lon="9.9465980">
	<ele>2095.40</ele>
	<time>2021-08-31T07:09:20.000Z</time>
</trkpt>
<trkpt lat="46.3133300" lon="9.9465860">
	<ele>2095.60</ele>
	<time>2021-08-31T07:09:21.000Z</time>
</trkpt>
<trkpt lat="46.3133480" lon="9.9464910">
	<ele>2096.20</ele>
	<time>2021-08-31T07:09:27.000Z</time>
</trkpt>
<trkpt lat="46.3133490" lon="9.9464190">
	<ele>2096.60</ele>
	<time>2021-08-31T07:09:31.000Z</time>
</trkpt>
<trkpt lat="46.3133460" lon="9.9463660">
	<ele>2097.00</ele>
	<time>2021-08-31T07:09:35.000Z</time>
</trkpt>
<trkpt lat="46.3133570" lon="9.9462580">
	<ele>2097.80</ele>
	<time>2021-08-31T07:09:42.000Z</time>
</trkpt>
<trkpt lat="46.3133610" lon="9.9462440">
	<ele>2097.60</ele>
	<time>2021-08-31T07:09:43.000Z</time>
</trkpt>
<trkpt lat="46.3133740" lon="9.9462160">
	<ele>2098.60</ele>
	<time>2021-08-31T07:09:46.000Z</time>
</trkpt>
<trkpt lat="46.3133830" lon="9.9462130">
	<ele>2099.00</ele>
	<time>2021-08-31T07:09:47.000Z</time>
</trkpt>
<trkpt lat="46.3133920" lon="9.9462160">
	<ele>2099.00</ele>
	<time>2021-08-31T07:09:48.000Z</time>
</trkpt>
<trkpt lat="46.3134000" lon="9.9462240">
	<ele>2099.20</ele>
	<time>2021-08-31T07:09:49.000Z</time>
</trkpt>
<trkpt lat="46.3134140" lon="9.9463090">
	<ele>2099.20</ele>
	<time>2021-08-31T07:09:55.000Z</time>
</trkpt>
<trkpt lat="46.3134200" lon="9.9463230">
	<ele>2099.60</ele>
	<time>2021-08-31T07:09:56.000Z</time>
</trkpt>
<trkpt lat="46.3134270" lon="9.9463660">
	<ele>2100.20</ele>
	<time>2021-08-31T07:09:59.000Z</time>
</trkpt>
<trkpt lat="46.3134380" lon="9.9464030">
	<ele>2101.80</ele>
	<time>2021-08-31T07:10:03.000Z</time>
</trkpt>
<trkpt lat="46.3134430" lon="9.9464140">
	<ele>2102.20</ele>
	<time>2021-08-31T07:10:04.000Z</time>
</trkpt>
<trkpt lat="46.3134550" lon="9.9465140">
	<ele>2102.80</ele>
	<time>2021-08-31T07:10:12.000Z</time>
</trkpt>
<trkpt lat="46.3134530" lon="9.9465630">
	<ele>2104.00</ele>
	<time>2021-08-31T07:10:16.000Z</time>
</trkpt>
<trkpt lat="46.3134790" lon="9.9466140">
	<ele>2104.60</ele>
	<time>2021-08-31T07:10:21.000Z</time>
</trkpt>
<trkpt lat="46.3134960" lon="9.9466080">
	<ele>2104.60</ele>
	<time>2021-08-31T07:10:23.000Z</time>
</trkpt>
<trkpt lat="46.3135280" lon="9.9465890">
	<ele>2104.60</ele>
	<time>2021-08-31T07:10:26.000Z</time>
</trkpt>
<trkpt lat="46.3135360" lon="9.9465760">
	<ele>2104.60</ele>
	<time>2021-08-31T07:10:27.000Z</time>
</trkpt>
<trkpt lat="46.3135710" lon="9.9465180">
	<ele>2105.40</ele>
	<time>2021-08-31T07:10:33.000Z</time>
</trkpt>
<trkpt lat="46.3135810" lon="9.9464910">
	<ele>2105.80</ele>
	<time>2021-08-31T07:10:35.000Z</time>
</trkpt>
<trkpt lat="46.3135930" lon="9.9464200">
	<ele>2106.40</ele>
	<time>2021-08-31T07:10:40.000Z</time>
</trkpt>
<trkpt lat="46.3136010" lon="9.9463700">
	<ele>2107.00</ele>
	<time>2021-08-31T07:10:44.000Z</time>
</trkpt>
<trkpt lat="46.3135970" lon="9.9463260">
	<ele>2107.60</ele>
	<time>2021-08-31T07:10:48.000Z</time>
</trkpt>
<trkpt lat="46.3136160" lon="9.9462530">
	<ele>2108.80</ele>
	<time>2021-08-31T07:10:53.000Z</time>
</trkpt>
<trkpt lat="46.3136140" lon="9.9461520">
	<ele>2110.00</ele>
	<time>2021-08-31T07:10:59.000Z</time>
</trkpt>
<trkpt lat="46.3136080" lon="9.9461360">
	<ele>2110.00</ele>
	<time>2021-08-31T07:11:00.000Z</time>
</trkpt>
<trkpt lat="46.3136000" lon="9.9460650">
	<ele>2111.00</ele>
	<time>2021-08-31T07:11:04.000Z</time>
</trkpt>
<trkpt lat="46.3135990" lon="9.9460530">
	<ele>2111.00</ele>
	<time>2021-08-31T07:11:05.000Z</time>
</trkpt>
<trkpt lat="46.3135950" lon="9.9460420">
	<ele>2111.20</ele>
	<time>2021-08-31T07:11:06.000Z</time>
</trkpt>
<trkpt lat="46.3135870" lon="9.9460300">
	<ele>2111.40</ele>
	<time>2021-08-31T07:11:07.000Z</time>
</trkpt>
<trkpt lat="46.3135600" lon="9.9460060">
	<ele>2111.40</ele>
	<time>2021-08-31T07:11:10.000Z</time>
</trkpt>
<trkpt lat="46.3135370" lon="9.9459680">
	<ele>2112.00</ele>
	<time>2021-08-31T07:11:14.000Z</time>
</trkpt>
<trkpt lat="46.3135300" lon="9.9459560">
	<ele>2112.20</ele>
	<time>2021-08-31T07:11:15.000Z</time>
</trkpt>
<trkpt lat="46.3135290" lon="9.9459300">
	<ele>2112.60</ele>
	<time>2021-08-31T07:11:17.000Z</time>
</trkpt>
<trkpt lat="46.3135530" lon="9.9458890">
	<ele>2112.60</ele>
	<time>2021-08-31T07:11:22.000Z</time>
</trkpt>
<trkpt lat="46.3136340" lon="9.9458590">
	<ele>2112.40</ele>
	<time>2021-08-31T07:11:31.000Z</time>
</trkpt>
<trkpt lat="46.3136450" lon="9.9458580">
	<ele>2112.40</ele>
	<time>2021-08-31T07:11:32.000Z</time>
</trkpt>
<trkpt lat="46.3136610" lon="9.9458650">
	<ele>2112.60</ele>
	<time>2021-08-31T07:11:34.000Z</time>
</trkpt>
<trkpt lat="46.3136800" lon="9.9458690">
	<ele>2112.60</ele>
	<time>2021-08-31T07:11:36.000Z</time>
</trkpt>
<trkpt lat="46.3137030" lon="9.9459470">
	<ele>2112.80</ele>
	<time>2021-08-31T07:11:42.000Z</time>
</trkpt>
<trkpt lat="46.3137020" lon="9.9459610">
	<ele>2112.80</ele>
	<time>2021-08-31T07:11:43.000Z</time>
</trkpt>
<trkpt lat="46.3137280" lon="9.9460950">
	<ele>2112.80</ele>
	<time>2021-08-31T07:11:51.000Z</time>
</trkpt>
<trkpt lat="46.3137540" lon="9.9461760">
	<ele>2113.20</ele>
	<time>2021-08-31T07:11:56.000Z</time>
</trkpt>
<trkpt lat="46.3137600" lon="9.9462040">
	<ele>2113.20</ele>
	<time>2021-08-31T07:11:58.000Z</time>
</trkpt>
<trkpt lat="46.3137520" lon="9.9462600">
	<ele>2113.80</ele>
	<time>2021-08-31T07:12:02.000Z</time>
</trkpt>
<trkpt lat="46.3137410" lon="9.9462990">
	<ele>2114.20</ele>
	<time>2021-08-31T07:12:05.000Z</time>
</trkpt>
<trkpt lat="46.3137200" lon="9.9463630">
	<ele>2115.20</ele>
	<time>2021-08-31T07:12:10.000Z</time>
</trkpt>
<trkpt lat="46.3137150" lon="9.9463750">
	<ele>2115.40</ele>
	<time>2021-08-31T07:12:11.000Z</time>
</trkpt>
<trkpt lat="46.3136810" lon="9.9464430">
	<ele>2116.40</ele>
	<time>2021-08-31T07:12:17.000Z</time>
</trkpt>
<trkpt lat="46.3136750" lon="9.9464450">
	<ele>2116.60</ele>
	<time>2021-08-31T07:12:18.000Z</time>
</trkpt>
<trkpt lat="46.3136620" lon="9.9464830">
	<ele>2117.40</ele>
	<time>2021-08-31T07:12:22.000Z</time>
</trkpt>
<trkpt lat="46.3136430" lon="9.9465480">
	<ele>2118.60</ele>
	<time>2021-08-31T07:12:27.000Z</time>
</trkpt>
<trkpt lat="46.3136320" lon="9.9465770">
	<ele>2119.00</ele>
	<time>2021-08-31T07:12:30.000Z</time>
</trkpt>
<trkpt lat="46.3136260" lon="9.9466320">
	<ele>2119.60</ele>
	<time>2021-08-31T07:12:34.000Z</time>
</trkpt>
<trkpt lat="46.3136130" lon="9.9467200">
	<ele>2120.00</ele>
	<time>2021-08-31T07:12:40.000Z</time>
</trkpt>
<trkpt lat="46.3136090" lon="9.9467470">
	<ele>2120.60</ele>
	<time>2021-08-31T07:12:43.000Z</time>
</trkpt>
<trkpt lat="46.3135940" lon="9.9467950">
	<ele>2121.60</ele>
	<time>2021-08-31T07:12:48.000Z</time>
</trkpt>
<trkpt lat="46.3135850" lon="9.9468240">
	<ele>2122.20</ele>
	<time>2021-08-31T07:12:51.000Z</time>
</trkpt>
<trkpt lat="46.3135690" lon="9.9468920">
	<ele>2123.00</ele>
	<time>2021-08-31T07:12:56.000Z</time>
</trkpt>
<trkpt lat="46.3135430" lon="9.9469680">
	<ele>2124.20</ele>
	<time>2021-08-31T07:13:02.000Z</time>
</trkpt>
<trkpt lat="46.3135170" lon="9.9470560">
	<ele>2125.40</ele>
	<time>2021-08-31T07:13:10.000Z</time>
</trkpt>
<trkpt lat="46.3135100" lon="9.9470800">
	<ele>2125.80</ele>
	<time>2021-08-31T07:13:12.000Z</time>
</trkpt>
<trkpt lat="46.3134920" lon="9.9471280">
	<ele>2126.60</ele>
	<time>2021-08-31T07:13:17.000Z</time>
</trkpt>
<trkpt lat="46.3134850" lon="9.9471560">
	<ele>2127.00</ele>
	<time>2021-08-31T07:13:19.000Z</time>
</trkpt>
<trkpt lat="46.3134790" lon="9.9471810">
	<ele>2127.20</ele>
	<time>2021-08-31T07:13:21.000Z</time>
</trkpt>
<trkpt lat="46.3134630" lon="9.9472170">
	<ele>2127.60</ele>
	<time>2021-08-31T07:13:24.000Z</time>
</trkpt>
<trkpt lat="46.3134420" lon="9.9472610">
	<ele>2128.40</ele>
	<time>2021-08-31T07:13:28.000Z</time>
</trkpt>
<trkpt lat="46.3134410" lon="9.9472730">
	<ele>2128.60</ele>
	<time>2021-08-31T07:13:29.000Z</time>
</trkpt>
<trkpt lat="46.3134140" lon="9.9473400">
	<ele>2129.80</ele>
	<time>2021-08-31T07:13:34.000Z</time>
</trkpt>
<trkpt lat="46.3134100" lon="9.9473630">
	<ele>2130.00</ele>
	<time>2021-08-31T07:13:36.000Z</time>
</trkpt>
<trkpt lat="46.3134130" lon="9.9474080">
	<ele>2130.40</ele>
	<time>2021-08-31T07:13:39.000Z</time>
</trkpt>
<trkpt lat="46.3134030" lon="9.9474590">
	<ele>2131.00</ele>
	<time>2021-08-31T07:13:43.000Z</time>
</trkpt>
<trkpt lat="46.3133850" lon="9.9475270">
	<ele>2132.00</ele>
	<time>2021-08-31T07:13:49.000Z</time>
</trkpt>
<trkpt lat="46.3133590" lon="9.9476080">
	<ele>2133.00</ele>
	<time>2021-08-31T07:13:56.000Z</time>
</trkpt>
<trkpt lat="46.3133470" lon="9.9477030">
	<ele>2134.20</ele>
	<time>2021-08-31T07:14:04.000Z</time>
</trkpt>
<trkpt lat="46.3133720" lon="9.9477250">
	<ele>2134.40</ele>
	<time>2021-08-31T07:14:10.000Z</time>
</trkpt>
<trkpt lat="46.3133700" lon="9.9477240">
	<ele>2134.40</ele>
	<time>2021-08-31T07:14:11.000Z</time>
</trkpt>
<trkpt lat="46.3133740" lon="9.9477370">
	<ele>2134.40</ele>
	<time>2021-08-31T07:14:22.000Z</time>
</trkpt>
<trkpt lat="46.3133740" lon="9.9477370">
	<ele>2134.60</ele>
	<time>2021-08-31T07:14:30.000Z</time>
</trkpt>
<trkpt lat="46.3133740" lon="9.9477370">
	<ele>2134.60</ele>
	<time>2021-08-31T07:14:32.000Z</time>
</trkpt>
<trkpt lat="46.3133760" lon="9.9477240">
	<ele>2134.40</ele>
	<time>2021-08-31T07:14:38.000Z</time>
</trkpt>
<trkpt lat="46.3133880" lon="9.9477210">
	<ele>2134.60</ele>
	<time>2021-08-31T07:14:45.000Z</time>
</trkpt>
<trkpt lat="46.3133890" lon="9.9477200">
	<ele>2134.60</ele>
	<time>2021-08-31T07:14:49.000Z</time>
</trkpt>
<trkpt lat="46.3133890" lon="9.9477200">
	<ele>2134.20</ele>
	<time>2021-08-31T07:14:52.000Z</time>
</trkpt>
<trkpt lat="46.3133900" lon="9.9477200">
	<ele>2134.20</ele>
	<time>2021-08-31T07:14:54.000Z</time>
</trkpt>
<trkpt lat="46.3133890" lon="9.9477300">
	<ele>2134.00</ele>
	<time>2021-08-31T07:15:05.000Z</time>
</trkpt>
<trkpt lat="46.3133890" lon="9.9477330">
	<ele>2134.00</ele>
	<time>2021-08-31T07:15:07.000Z</time>
</trkpt>
<trkpt lat="46.3133890" lon="9.9477340">
	<ele>2134.00</ele>
	<time>2021-08-31T07:15:09.000Z</time>
</trkpt>
<trkpt lat="46.3133890" lon="9.9477350">
	<ele>2134.00</ele>
	<time>2021-08-31T07:15:11.000Z</time>
</trkpt>
<trkpt lat="46.3133950" lon="9.9477450">
	<ele>2134.40</ele>
	<time>2021-08-31T07:15:18.000Z</time>
</trkpt>
<trkpt lat="46.3133990" lon="9.9477520">
	<ele>2134.40</ele>
	<time>2021-08-31T07:15:23.000Z</time>
</trkpt>
<trkpt lat="46.3134010" lon="9.9477770">
	<ele>2134.40</ele>
	<time>2021-08-31T07:15:33.000Z</time>
</trkpt>
<trkpt lat="46.3133960" lon="9.9477770">
	<ele>2134.40</ele>
	<time>2021-08-31T07:15:44.000Z</time>
</trkpt>
<trkpt lat="46.3133870" lon="9.9477800">
	<ele>2134.40</ele>
	<time>2021-08-31T07:15:48.000Z</time>
</trkpt>
<trkpt lat="46.3133870" lon="9.9477800">
	<ele>2134.40</ele>
	<time>2021-08-31T07:15:52.000Z</time>
</trkpt>
<trkpt lat="46.3133870" lon="9.9477800">
	<ele>2134.40</ele>
	<time>2021-08-31T07:15:59.000Z</time>
</trkpt>
<trkpt lat="46.3133870" lon="9.9477800">
	<ele>2134.40</ele>
	<time>2021-08-31T07:16:01.000Z</time>
</trkpt>
<trkpt lat="46.3134390" lon="9.9478510">
	<ele>2134.40</ele>
	<time>2021-08-31T07:16:10.000Z</time>
</trkpt>
<trkpt lat="46.3135000" lon="9.9479530">
	<ele>2134.20</ele>
	<time>2021-08-31T07:16:16.000Z</time>
</trkpt>
<trkpt lat="46.3135140" lon="9.9479780">
	<ele>2134.00</ele>
	<time>2021-08-31T07:16:18.000Z</time>
</trkpt>
<trkpt lat="46.3135900" lon="9.9480820">
	<ele>2133.60</ele>
	<time>2021-08-31T07:16:26.000Z</time>
</trkpt>
<trkpt lat="46.3136090" lon="9.9481060">
	<ele>2133.40</ele>
	<time>2021-08-31T07:16:28.000Z</time>
</trkpt>
<trkpt lat="46.3136810" lon="9.9481870">
	<ele>2133.40</ele>
	<time>2021-08-31T07:16:36.000Z</time>
</trkpt>
<trkpt lat="46.3137600" lon="9.9483320">
	<ele>2133.60</ele>
	<time>2021-08-31T07:16:46.000Z</time>
</trkpt>
<trkpt lat="46.3138180" lon="9.9485040">
	<ele>2133.40</ele>
	<time>2021-08-31T07:16:57.000Z</time>
</trkpt>
<trkpt lat="46.3138730" lon="9.9486010">
	<ele>2133.20</ele>
	<time>2021-08-31T07:17:04.000Z</time>
</trkpt>
<trkpt lat="46.3138970" lon="9.9486460">
	<ele>2133.40</ele>
	<time>2021-08-31T07:17:07.000Z</time>
</trkpt>
<trkpt lat="46.3139480" lon="9.9487360">
	<ele>2133.20</ele>
	<time>2021-08-31T07:17:13.000Z</time>
</trkpt>
<trkpt lat="46.3139560" lon="9.9487520">
	<ele>2133.20</ele>
	<time>2021-08-31T07:17:14.000Z</time>
</trkpt>
<trkpt lat="46.3140220" lon="9.9488930">
	<ele>2133.00</ele>
	<time>2021-08-31T07:17:23.000Z</time>
</trkpt>
<trkpt lat="46.3140360" lon="9.9489240">
	<ele>2132.80</ele>
	<time>2021-08-31T07:17:25.000Z</time>
</trkpt>
<trkpt lat="46.3140560" lon="9.9489640">
	<ele>2133.00</ele>
	<time>2021-08-31T07:17:27.000Z</time>
</trkpt>
<trkpt lat="46.3141540" lon="9.9490630">
	<ele>2133.20</ele>
	<time>2021-08-31T07:17:37.000Z</time>
</trkpt>
<trkpt lat="46.3141970" lon="9.9491190">
	<ele>2133.20</ele>
	<time>2021-08-31T07:17:42.000Z</time>
</trkpt>
<trkpt lat="46.3142590" lon="9.9492180">
	<ele>2132.80</ele>
	<time>2021-08-31T07:17:49.000Z</time>
</trkpt>
<trkpt lat="46.3143320" lon="9.9493490">
	<ele>2132.20</ele>
	<time>2021-08-31T07:17:58.000Z</time>
</trkpt>
<trkpt lat="46.3143420" lon="9.9493590">
	<ele>2132.00</ele>
	<time>2021-08-31T07:17:59.000Z</time>
</trkpt>
<trkpt lat="46.3144040" lon="9.9494440">
	<ele>2132.20</ele>
	<time>2021-08-31T07:18:05.000Z</time>
</trkpt>
<trkpt lat="46.3144250" lon="9.9494650">
	<ele>2132.40</ele>
	<time>2021-08-31T07:18:07.000Z</time>
</trkpt>
<trkpt lat="46.3144810" lon="9.9495140">
	<ele>2133.00</ele>
	<time>2021-08-31T07:18:12.000Z</time>
</trkpt>
<trkpt lat="46.3145120" lon="9.9495420">
	<ele>2133.60</ele>
	<time>2021-08-31T07:18:15.000Z</time>
</trkpt>
<trkpt lat="46.3145430" lon="9.9495730">
	<ele>2133.40</ele>
	<time>2021-08-31T07:18:18.000Z</time>
</trkpt>
<trkpt lat="46.3145800" lon="9.9496420">
	<ele>2133.60</ele>
	<time>2021-08-31T07:18:23.000Z</time>
</trkpt>
<trkpt lat="46.3146030" lon="9.9496680">
	<ele>2133.60</ele>
	<time>2021-08-31T07:18:25.000Z</time>
</trkpt>
<trkpt lat="46.3146260" lon="9.9496990">
	<ele>2133.40</ele>
	<time>2021-08-31T07:18:27.000Z</time>
</trkpt>
<trkpt lat="46.3147230" lon="9.9497850">
	<ele>2133.60</ele>
	<time>2021-08-31T07:18:36.000Z</time>
</trkpt>
<trkpt lat="46.3148260" lon="9.9499000">
	<ele>2133.40</ele>
	<time>2021-08-31T07:18:47.000Z</time>
</trkpt>
<trkpt lat="46.3148930" lon="9.9500400">
	<ele>2134.00</ele>
	<time>2021-08-31T07:18:56.000Z</time>
</trkpt>
<trkpt lat="46.3148980" lon="9.9500580">
	<ele>2134.20</ele>
	<time>2021-08-31T07:18:57.000Z</time>
</trkpt>
<trkpt lat="46.3149300" lon="9.9501330">
	<ele>2134.40</ele>
	<time>2021-08-31T07:19:02.000Z</time>
</trkpt>
<trkpt lat="46.3149810" lon="9.9502190">
	<ele>2134.60</ele>
	<time>2021-08-31T07:19:08.000Z</time>
</trkpt>
<trkpt lat="46.3150550" lon="9.9502700">
	<ele>2135.40</ele>
	<time>2021-08-31T07:19:14.000Z</time>
</trkpt>
<trkpt lat="46.3150810" lon="9.9502920">
	<ele>2135.40</ele>
	<time>2021-08-31T07:19:16.000Z</time>
</trkpt>
<trkpt lat="46.3151810" lon="9.9503540">
	<ele>2135.40</ele>
	<time>2021-08-31T07:19:24.000Z</time>
</trkpt>
<trkpt lat="46.3153230" lon="9.9503920">
	<ele>2136.00</ele>
	<time>2021-08-31T07:19:35.000Z</time>
</trkpt>
<trkpt lat="46.3153710" lon="9.9503930">
	<ele>2136.40</ele>
	<time>2021-08-31T07:19:39.000Z</time>
</trkpt>
<trkpt lat="46.3153800" lon="9.9503900">
	<ele>2136.40</ele>
	<time>2021-08-31T07:19:40.000Z</time>
</trkpt>
<trkpt lat="46.3154170" lon="9.9503820">
	<ele>2136.60</ele>
	<time>2021-08-31T07:19:43.000Z</time>
</trkpt>
<trkpt lat="46.3155250" lon="9.9503900">
	<ele>2136.80</ele>
	<time>2021-08-31T07:19:51.000Z</time>
</trkpt>
<trkpt lat="46.3156340" lon="9.9503400">
	<ele>2137.20</ele>
	<time>2021-08-31T07:19:59.000Z</time>
</trkpt>
<trkpt lat="46.3156430" lon="9.9503240">
	<ele>2137.20</ele>
	<time>2021-08-31T07:20:00.000Z</time>
</trkpt>
<trkpt lat="46.3156660" lon="9.9502730">
	<ele>2137.40</ele>
	<time>2021-08-31T07:20:03.000Z</time>
</trkpt>
<trkpt lat="46.3156800" lon="9.9502550">
	<ele>2137.60</ele>
	<time>2021-08-31T07:20:05.000Z</time>
</trkpt>
<trkpt lat="46.3157010" lon="9.9502420">
	<ele>2137.60</ele>
	<time>2021-08-31T07:20:07.000Z</time>
</trkpt>
<trkpt lat="46.3157380" lon="9.9502290">
	<ele>2137.40</ele>
	<time>2021-08-31T07:20:10.000Z</time>
</trkpt>
<trkpt lat="46.3157540" lon="9.9501990">
	<ele>2137.40</ele>
	<time>2021-08-31T07:20:12.000Z</time>
</trkpt>
<trkpt lat="46.3157610" lon="9.9501950">
	<ele>2137.40</ele>
	<time>2021-08-31T07:20:14.000Z</time>
</trkpt>
<trkpt lat="46.3157630" lon="9.9501990">
	<ele>2137.40</ele>
	<time>2021-08-31T07:20:15.000Z</time>
</trkpt>
<trkpt lat="46.3157980" lon="9.9502130">
	<ele>2138.00</ele>
	<time>2021-08-31T07:20:21.000Z</time>
</trkpt>
<trkpt lat="46.3157990" lon="9.9502060">
	<ele>2137.60</ele>
	<time>2021-08-31T07:20:29.000Z</time>
</trkpt>
<trkpt lat="46.3158690" lon="9.9502170">
	<ele>2137.60</ele>
	<time>2021-08-31T07:20:36.000Z</time>
</trkpt>
<trkpt lat="46.3158900" lon="9.9501850">
	<ele>2137.60</ele>
	<time>2021-08-31T07:20:41.000Z</time>
</trkpt>
<trkpt lat="46.3158970" lon="9.9501680">
	<ele>2137.80</ele>
	<time>2021-08-31T07:20:42.000Z</time>
</trkpt>
<trkpt lat="46.3159090" lon="9.9501370">
	<ele>2137.80</ele>
	<time>2021-08-31T07:20:44.000Z</time>
</trkpt>
<trkpt lat="46.3159000" lon="9.9501160">
	<ele>2137.80</ele>
	<time>2021-08-31T07:20:45.000Z</time>
</trkpt>
<trkpt lat="46.3163240" lon="9.9505150">
	<ele>2138.80</ele>
	<time>2021-08-31T07:21:13.000Z</time>
</trkpt>
<trkpt lat="46.3162380" lon="9.9498130">
	<ele>2138.80</ele>
	<time>2021-08-31T07:21:14.000Z</time>
</trkpt>
<trkpt lat="46.3162630" lon="9.9499820">
	<ele>2138.80</ele>
	<time>2021-08-31T07:21:16.000Z</time>
</trkpt>
<trkpt lat="46.3163160" lon="9.9502090">
	<ele>2138.80</ele>
	<time>2021-08-31T07:21:18.000Z</time>
</trkpt>
<trkpt lat="46.3163130" lon="9.9501870">
	<ele>2138.80</ele>
	<time>2021-08-31T07:21:20.000Z</time>
</trkpt>
<trkpt lat="46.3163730" lon="9.9503390">
	<ele>2138.80</ele>
	<time>2021-08-31T07:21:28.000Z</time>
</trkpt>
<trkpt lat="46.3163810" lon="9.9503560">
	<ele>2138.80</ele>
	<time>2021-08-31T07:21:29.000Z</time>
</trkpt>
<trkpt lat="46.3164070" lon="9.9504440">
	<ele>2138.60</ele>
	<time>2021-08-31T07:21:34.000Z</time>
</trkpt>
<trkpt lat="46.3164140" lon="9.9504770">
	<ele>2138.20</ele>
	<time>2021-08-31T07:21:36.000Z</time>
</trkpt>
<trkpt lat="46.3164410" lon="9.9505700">
	<ele>2139.00</ele>
	<time>2021-08-31T07:21:42.000Z</time>
</trkpt>
<trkpt lat="46.3164540" lon="9.9505940">
	<ele>2138.80</ele>
	<time>2021-08-31T07:21:44.000Z</time>
</trkpt>
<trkpt lat="46.3165700" lon="9.9506630">
	<ele>2138.80</ele>
	<time>2021-08-31T07:21:54.000Z</time>
</trkpt>
<trkpt lat="46.3165860" lon="9.9506650">
	<ele>2138.80</ele>
	<time>2021-08-31T07:21:56.000Z</time>
</trkpt>
<trkpt lat="46.3166430" lon="9.9507730">
	<ele>2139.20</ele>
	<time>2021-08-31T07:22:02.000Z</time>
</trkpt>
<trkpt lat="46.3166510" lon="9.9507850">
	<ele>2139.20</ele>
	<time>2021-08-31T07:22:03.000Z</time>
</trkpt>
<trkpt lat="46.3166600" lon="9.9507890">
	<ele>2139.20</ele>
	<time>2021-08-31T07:22:04.000Z</time>
</trkpt>
<trkpt lat="46.3166680" lon="9.9507930">
	<ele>2139.20</ele>
	<time>2021-08-31T07:22:05.000Z</time>
</trkpt>
<trkpt lat="46.3167060" lon="9.9508190">
	<ele>2138.80</ele>
	<time>2021-08-31T07:22:09.000Z</time>
</trkpt>
<trkpt lat="46.3167270" lon="9.9508600">
	<ele>2138.80</ele>
	<time>2021-08-31T07:22:12.000Z</time>
</trkpt>
<trkpt lat="46.3167340" lon="9.9508770">
	<ele>2138.80</ele>
	<time>2021-08-31T07:22:13.000Z</time>
</trkpt>
<trkpt lat="46.3167520" lon="9.9509480">
	<ele>2139.00</ele>
	<time>2021-08-31T07:22:16.000Z</time>
</trkpt>
<trkpt lat="46.3167610" lon="9.9509640">
	<ele>2139.00</ele>
	<time>2021-08-31T07:22:17.000Z</time>
</trkpt>
<trkpt lat="46.3167690" lon="9.9509990">
	<ele>2139.20</ele>
	<time>2021-08-31T07:22:19.000Z</time>
</trkpt>
<trkpt lat="46.3168190" lon="9.9511230">
	<ele>2139.40</ele>
	<time>2021-08-31T07:22:25.000Z</time>
</trkpt>
<trkpt lat="46.3168340" lon="9.9511480">
	<ele>2139.40</ele>
	<time>2021-08-31T07:22:27.000Z</time>
</trkpt>
<trkpt lat="46.3168560" lon="9.9512040">
	<ele>2139.60</ele>
	<time>2021-08-31T07:22:30.000Z</time>
</trkpt>
<trkpt lat="46.3168760" lon="9.9512730">
	<ele>2139.60</ele>
	<time>2021-08-31T07:22:34.000Z</time>
</trkpt>
<trkpt lat="46.3169500" lon="9.9513960">
	<ele>2139.20</ele>
	<time>2021-08-31T07:22:42.000Z</time>
</trkpt>
<trkpt lat="46.3169810" lon="9.9514930">
	<ele>2138.80</ele>
	<time>2021-08-31T07:22:49.000Z</time>
</trkpt>
<trkpt lat="46.3170030" lon="9.9515200">
	<ele>2138.40</ele>
	<time>2021-08-31T07:22:51.000Z</time>
</trkpt>
<trkpt lat="46.3170090" lon="9.9515300">
	<ele>2138.40</ele>
	<time>2021-08-31T07:22:52.000Z</time>
</trkpt>
<trkpt lat="46.3170110" lon="9.9515440">
	<ele>2138.20</ele>
	<time>2021-08-31T07:22:53.000Z</time>
</trkpt>
<trkpt lat="46.3170260" lon="9.9516060">
	<ele>2137.40</ele>
	<time>2021-08-31T07:22:57.000Z</time>
</trkpt>
<trkpt lat="46.3170370" lon="9.9516350">
	<ele>2137.40</ele>
	<time>2021-08-31T07:22:59.000Z</time>
</trkpt>
<trkpt lat="46.3170400" lon="9.9516620">
	<ele>2137.00</ele>
	<time>2021-08-31T07:23:01.000Z</time>
</trkpt>
<trkpt lat="46.3170450" lon="9.9516900">
	<ele>2136.40</ele>
	<time>2021-08-31T07:23:03.000Z</time>
</trkpt>
<trkpt lat="46.3170790" lon="9.9517530">
	<ele>2135.80</ele>
	<time>2021-08-31T07:23:07.000Z</time>
</trkpt>
<trkpt lat="46.3170870" lon="9.9517850">
	<ele>2135.40</ele>
	<time>2021-08-31T07:23:09.000Z</time>
</trkpt>
<trkpt lat="46.3170900" lon="9.9518000">
	<ele>2135.40</ele>
	<time>2021-08-31T07:23:10.000Z</time>
</trkpt>
<trkpt lat="46.3171130" lon="9.9518800">
	<ele>2134.60</ele>
	<time>2021-08-31T07:23:16.000Z</time>
</trkpt>
<trkpt lat="46.3171090" lon="9.9519160">
	<ele>2134.20</ele>
	<time>2021-08-31T07:23:18.000Z</time>
</trkpt>
<trkpt lat="46.3171400" lon="9.9519880">
	<ele>2133.80</ele>
	<time>2021-08-31T07:23:22.000Z</time>
</trkpt>
<trkpt lat="46.3171540" lon="9.9520190">
	<ele>2133.60</ele>
	<time>2021-08-31T07:23:24.000Z</time>
</trkpt>
<trkpt lat="46.3172180" lon="9.9521460">
	<ele>2133.20</ele>
	<time>2021-08-31T07:23:32.000Z</time>
</trkpt>
<trkpt lat="46.3172940" lon="9.9522440">
	<ele>2133.40</ele>
	<time>2021-08-31T07:23:40.000Z</time>
</trkpt>
<trkpt lat="46.3173340" lon="9.9522910">
	<ele>2133.40</ele>
	<time>2021-08-31T07:23:44.000Z</time>
</trkpt>
<trkpt lat="46.3173890" lon="9.9523320">
	<ele>2133.60</ele>
	<time>2021-08-31T07:23:49.000Z</time>
</trkpt>
<trkpt lat="46.3175060" lon="9.9524130">
	<ele>2133.80</ele>
	<time>2021-08-31T07:23:58.000Z</time>
</trkpt>
<trkpt lat="46.3175810" lon="9.9525050">
	<ele>2133.60</ele>
	<time>2021-08-31T07:24:06.000Z</time>
</trkpt>
<trkpt lat="46.3176600" lon="9.9526310">
	<ele>2134.00</ele>
	<time>2021-08-31T07:24:15.000Z</time>
</trkpt>
<trkpt lat="46.3176940" lon="9.9526780">
	<ele>2134.20</ele>
	<time>2021-08-31T07:24:19.000Z</time>
</trkpt>
<trkpt lat="46.3177180" lon="9.9527240">
	<ele>2134.80</ele>
	<time>2021-08-31T07:24:22.000Z</time>
</trkpt>
<trkpt lat="46.3177500" lon="9.9527710">
	<ele>2134.60</ele>
	<time>2021-08-31T07:24:26.000Z</time>
</trkpt>
<trkpt lat="46.3178160" lon="9.9528580">
	<ele>2135.20</ele>
	<time>2021-08-31T07:24:33.000Z</time>
</trkpt>
<trkpt lat="46.3178650" lon="9.9529130">
	<ele>2135.20</ele>
	<time>2021-08-31T07:24:38.000Z</time>
</trkpt>
<trkpt lat="46.3178740" lon="9.9529280">
	<ele>2135.40</ele>
	<time>2021-08-31T07:24:39.000Z</time>
</trkpt>
<trkpt lat="46.3179390" lon="9.9530240">
	<ele>2135.80</ele>
	<time>2021-08-31T07:24:47.000Z</time>
</trkpt>
<trkpt lat="46.3179730" lon="9.9530870">
	<ele>2136.40</ele>
	<time>2021-08-31T07:24:51.000Z</time>
</trkpt>
<trkpt lat="46.3180180" lon="9.9531490">
	<ele>2137.40</ele>
	<time>2021-08-31T07:24:56.000Z</time>
</trkpt>
<trkpt lat="46.3180260" lon="9.9531630">
	<ele>2137.40</ele>
	<time>2021-08-31T07:24:57.000Z</time>
</trkpt>
<trkpt lat="46.3180850" lon="9.9532350">
	<ele>2137.80</ele>
	<time>2021-08-31T07:25:04.000Z</time>
</trkpt>
<trkpt lat="46.3181040" lon="9.9532680">
	<ele>2138.40</ele>
	<time>2021-08-31T07:25:07.000Z</time>
</trkpt>
<trkpt lat="46.3181410" lon="9.9533080">
	<ele>2139.20</ele>
	<time>2021-08-31T07:25:12.000Z</time>
</trkpt>
<trkpt lat="46.3181570" lon="9.9533240">
	<ele>2139.40</ele>
	<time>2021-08-31T07:25:14.000Z</time>
</trkpt>
<trkpt lat="46.3181870" lon="9.9533560">
	<ele>2140.20</ele>
	<time>2021-08-31T07:25:18.000Z</time>
</trkpt>
<trkpt lat="46.3182080" lon="9.9533750">
	<ele>2140.40</ele>
	<time>2021-08-31T07:25:20.000Z</time>
</trkpt>
<trkpt lat="46.3182730" lon="9.9534500">
	<ele>2141.40</ele>
	<time>2021-08-31T07:25:27.000Z</time>
</trkpt>
<trkpt lat="46.3182950" lon="9.9534720">
	<ele>2141.40</ele>
	<time>2021-08-31T07:25:29.000Z</time>
</trkpt>
<trkpt lat="46.3183590" lon="9.9534960">
	<ele>2141.40</ele>
	<time>2021-08-31T07:25:34.000Z</time>
</trkpt>
<trkpt lat="46.3183640" lon="9.9534870">
	<ele>2141.40</ele>
	<time>2021-08-31T07:25:35.000Z</time>
</trkpt>
<trkpt lat="46.3183720" lon="9.9534880">
	<ele>2141.00</ele>
	<time>2021-08-31T07:25:42.000Z</time>
</trkpt>
<trkpt lat="46.3183830" lon="9.9534900">
	<ele>2141.00</ele>
	<time>2021-08-31T07:25:46.000Z</time>
</trkpt>
<trkpt lat="46.3183840" lon="9.9534880">
	<ele>2141.40</ele>
	<time>2021-08-31T07:25:48.000Z</time>
</trkpt>
<trkpt lat="46.3183840" lon="9.9534880">
	<ele>2141.60</ele>
	<time>2021-08-31T07:25:54.000Z</time>
</trkpt>
<trkpt lat="46.3183750" lon="9.9534630">
	<ele>2142.00</ele>
	<time>2021-08-31T07:26:17.000Z</time>
</trkpt>
<trkpt lat="46.3183790" lon="9.9534530">
	<ele>2140.80</ele>
	<time>2021-08-31T07:26:28.000Z</time>
</trkpt>
<trkpt lat="46.3183790" lon="9.9534530">
	<ele>2140.80</ele>
	<time>2021-08-31T07:26:32.000Z</time>
</trkpt>
<trkpt lat="46.3183790" lon="9.9534560">
	<ele>2140.80</ele>
	<time>2021-08-31T07:26:37.000Z</time>
</trkpt>
<trkpt lat="46.3183790" lon="9.9534600">
	<ele>2140.80</ele>
	<time>2021-08-31T07:26:40.000Z</time>
</trkpt>
<trkpt lat="46.3183910" lon="9.9535180">
	<ele>2141.60</ele>
	<time>2021-08-31T07:26:52.000Z</time>
</trkpt>
<trkpt lat="46.3183970" lon="9.9535350">
	<ele>2141.80</ele>
	<time>2021-08-31T07:26:53.000Z</time>
</trkpt>
<trkpt lat="46.3184310" lon="9.9536710">
	<ele>2142.40</ele>
	<time>2021-08-31T07:26:59.000Z</time>
</trkpt>
<trkpt lat="46.3184340" lon="9.9536870">
	<ele>2142.60</ele>
	<time>2021-08-31T07:27:00.000Z</time>
</trkpt>
<trkpt lat="46.3184390" lon="9.9538450">
	<ele>2143.80</ele>
	<time>2021-08-31T07:27:10.000Z</time>
</trkpt>
<trkpt lat="46.3184390" lon="9.9538630">
	<ele>2144.00</ele>
	<time>2021-08-31T07:27:11.000Z</time>
</trkpt>
<trkpt lat="46.3184420" lon="9.9539680">
	<ele>2144.40</ele>
	<time>2021-08-31T07:27:18.000Z</time>
</trkpt>
<trkpt lat="46.3184410" lon="9.9539980">
	<ele>2144.60</ele>
	<time>2021-08-31T07:27:20.000Z</time>
</trkpt>
<trkpt lat="46.3184440" lon="9.9540290">
	<ele>2144.80</ele>
	<time>2021-08-31T07:27:22.000Z</time>
</trkpt>
<trkpt lat="46.3184350" lon="9.9541000">
	<ele>2145.60</ele>
	<time>2021-08-31T07:27:27.000Z</time>
</trkpt>
<trkpt lat="46.3184260" lon="9.9541350">
	<ele>2145.80</ele>
	<time>2021-08-31T07:27:29.000Z</time>
</trkpt>
<trkpt lat="46.3184050" lon="9.9542400">
	<ele>2146.80</ele>
	<time>2021-08-31T07:27:37.000Z</time>
</trkpt>
<trkpt lat="46.3184080" lon="9.9542550">
	<ele>2146.80</ele>
	<time>2021-08-31T07:27:38.000Z</time>
</trkpt>
<trkpt lat="46.3184330" lon="9.9544070">
	<ele>2147.80</ele>
	<time>2021-08-31T07:27:47.000Z</time>
</trkpt>
<trkpt lat="46.3184360" lon="9.9544200">
	<ele>2148.00</ele>
	<time>2021-08-31T07:27:48.000Z</time>
</trkpt>
<trkpt lat="46.3184480" lon="9.9544570">
	<ele>2148.60</ele>
	<time>2021-08-31T07:27:51.000Z</time>
</trkpt>
<trkpt lat="46.3184620" lon="9.9545080">
	<ele>2149.20</ele>
	<time>2021-08-31T07:27:54.000Z</time>
</trkpt>
<trkpt lat="46.3184630" lon="9.9545190">
	<ele>2149.20</ele>
	<time>2021-08-31T07:27:55.000Z</time>
</trkpt>
<trkpt lat="46.3184840" lon="9.9545850">
	<ele>2150.20</ele>
	<time>2021-08-31T07:28:01.000Z</time>
</trkpt>
<trkpt lat="46.3184800" lon="9.9546070">
	<ele>2150.60</ele>
	<time>2021-08-31T07:28:03.000Z</time>
</trkpt>
<trkpt lat="46.3184770" lon="9.9546560">
	<ele>2151.20</ele>
	<time>2021-08-31T07:28:07.000Z</time>
</trkpt>
<trkpt lat="46.3184660" lon="9.9546930">
	<ele>2151.80</ele>
	<time>2021-08-31T07:28:11.000Z</time>
</trkpt>
<trkpt lat="46.3184610" lon="9.9547320">
	<ele>2152.40</ele>
	<time>2021-08-31T07:28:14.000Z</time>
</trkpt>
<trkpt lat="46.3184620" lon="9.9547460">
	<ele>2152.80</ele>
	<time>2021-08-31T07:28:16.000Z</time>
</trkpt>
<trkpt lat="46.3184680" lon="9.9547510">
	<ele>2153.00</ele>
	<time>2021-08-31T07:28:18.000Z</time>
</trkpt>
<trkpt lat="46.3184680" lon="9.9547520">
	<ele>2153.00</ele>
	<time>2021-08-31T07:28:19.000Z</time>
</trkpt>
<trkpt lat="46.3184780" lon="9.9547400">
	<ele>2153.00</ele>
	<time>2021-08-31T07:28:41.000Z</time>
</trkpt>
<trkpt lat="46.3184730" lon="9.9547420">
	<ele>2153.00</ele>
	<time>2021-08-31T07:28:44.000Z</time>
</trkpt>
<trkpt lat="46.3184730" lon="9.9547430">
	<ele>2153.00</ele>
	<time>2021-08-31T07:28:45.000Z</time>
</trkpt>
<trkpt lat="46.3184720" lon="9.9547460">
	<ele>2153.00</ele>
	<time>2021-08-31T07:28:50.000Z</time>
</trkpt>
<trkpt lat="46.3184720" lon="9.9547520">
	<ele>2152.80</ele>
	<time>2021-08-31T07:28:54.000Z</time>
</trkpt>
<trkpt lat="46.3184710" lon="9.9547550">
	<ele>2152.80</ele>
	<time>2021-08-31T07:28:57.000Z</time>
</trkpt>
<trkpt lat="46.3184690" lon="9.9547560">
	<ele>2152.80</ele>
	<time>2021-08-31T07:29:00.000Z</time>
</trkpt>
<trkpt lat="46.3184660" lon="9.9547560">
	<ele>2153.00</ele>
	<time>2021-08-31T07:29:04.000Z</time>
</trkpt>
<trkpt lat="46.3184640" lon="9.9547560">
	<ele>2152.80</ele>
	<time>2021-08-31T07:29:07.000Z</time>
</trkpt>
<trkpt lat="46.3184610" lon="9.9547560">
	<ele>2152.80</ele>
	<time>2021-08-31T07:29:11.000Z</time>
</trkpt>
<trkpt lat="46.3184590" lon="9.9547560">
	<ele>2152.80</ele>
	<time>2021-08-31T07:29:14.000Z</time>
</trkpt>
<trkpt lat="46.3184550" lon="9.9547480">
	<ele>2152.80</ele>
	<time>2021-08-31T07:29:19.000Z</time>
</trkpt>
<trkpt lat="46.3184320" lon="9.9548300">
	<ele>2153.00</ele>
	<time>2021-08-31T07:29:35.000Z</time>
</trkpt>
<trkpt lat="46.3184360" lon="9.9549080">
	<ele>2153.00</ele>
	<time>2021-08-31T07:29:39.000Z</time>
</trkpt>
<trkpt lat="46.3184280" lon="9.9549760">
	<ele>2153.00</ele>
	<time>2021-08-31T07:29:42.000Z</time>
</trkpt>
<trkpt lat="46.3184260" lon="9.9549930">
	<ele>2154.20</ele>
	<time>2021-08-31T07:29:43.000Z</time>
</trkpt>
<trkpt lat="46.3184270" lon="9.9550200">
	<ele>2155.40</ele>
	<time>2021-08-31T07:29:45.000Z</time>
</trkpt>
<trkpt lat="46.3184310" lon="9.9550280">
	<ele>2155.60</ele>
	<time>2021-08-31T07:29:46.000Z</time>
</trkpt>
<trkpt lat="46.3184510" lon="9.9550850">
	<ele>2156.60</ele>
	<time>2021-08-31T07:29:50.000Z</time>
</trkpt>
<trkpt lat="46.3184810" lon="9.9551340">
	<ele>2157.40</ele>
	<time>2021-08-31T07:29:55.000Z</time>
</trkpt>
<trkpt lat="46.3184980" lon="9.9551720">
	<ele>2157.60</ele>
	<time>2021-08-31T07:29:58.000Z</time>
</trkpt>
<trkpt lat="46.3185070" lon="9.9551960">
	<ele>2158.20</ele>
	<time>2021-08-31T07:30:00.000Z</time>
</trkpt>
<trkpt lat="46.3185110" lon="9.9552080">
	<ele>2158.40</ele>
	<time>2021-08-31T07:30:01.000Z</time>
</trkpt>
<trkpt lat="46.3185140" lon="9.9552200">
	<ele>2158.60</ele>
	<time>2021-08-31T07:30:02.000Z</time>
</trkpt>
<trkpt lat="46.3185180" lon="9.9552320">
	<ele>2158.80</ele>
	<time>2021-08-31T07:30:03.000Z</time>
</trkpt>
<trkpt lat="46.3185220" lon="9.9552430">
	<ele>2159.00</ele>
	<time>2021-08-31T07:30:04.000Z</time>
</trkpt>
<trkpt lat="46.3185350" lon="9.9552950">
	<ele>2159.80</ele>
	<time>2021-08-31T07:30:08.000Z</time>
</trkpt>
<trkpt lat="46.3185410" lon="9.9553200">
	<ele>2160.00</ele>
	<time>2021-08-31T07:30:10.000Z</time>
</trkpt>
<trkpt lat="46.3185430" lon="9.9553450">
	<ele>2160.40</ele>
	<time>2021-08-31T07:30:12.000Z</time>
</trkpt>
<trkpt lat="46.3185450" lon="9.9553570">
	<ele>2160.60</ele>
	<time>2021-08-31T07:30:13.000Z</time>
</trkpt>
<trkpt lat="46.3185490" lon="9.9553830">
	<ele>2160.80</ele>
	<time>2021-08-31T07:30:15.000Z</time>
</trkpt>
<trkpt lat="46.3185490" lon="9.9554090">
	<ele>2161.20</ele>
	<time>2021-08-31T07:30:17.000Z</time>
</trkpt>
<trkpt lat="46.3185550" lon="9.9554390">
	<ele>2161.80</ele>
	<time>2021-08-31T07:30:20.000Z</time>
</trkpt>
<trkpt lat="46.3185530" lon="9.9554550">
	<ele>2162.00</ele>
	<time>2021-08-31T07:30:21.000Z</time>
</trkpt>
<trkpt lat="46.3185540" lon="9.9554830">
	<ele>2162.40</ele>
	<time>2021-08-31T07:30:23.000Z</time>
</trkpt>
<trkpt lat="46.3185550" lon="9.9555670">
	<ele>2163.20</ele>
	<time>2021-08-31T07:30:29.000Z</time>
</trkpt>
<trkpt lat="46.3185590" lon="9.9556030">
	<ele>2163.40</ele>
	<time>2021-08-31T07:30:31.000Z</time>
</trkpt>
<trkpt lat="46.3185670" lon="9.9556370">
	<ele>2164.20</ele>
	<time>2021-08-31T07:30:34.000Z</time>
</trkpt>
<trkpt lat="46.3185790" lon="9.9556570">
	<ele>2164.40</ele>
	<time>2021-08-31T07:30:36.000Z</time>
</trkpt>
<trkpt lat="46.3185830" lon="9.9556790">
	<ele>2164.80</ele>
	<time>2021-08-31T07:30:38.000Z</time>
</trkpt>
<trkpt lat="46.3185860" lon="9.9557090">
	<ele>2165.40</ele>
	<time>2021-08-31T07:30:41.000Z</time>
</trkpt>
<trkpt lat="46.3185870" lon="9.9557410">
	<ele>2165.80</ele>
	<time>2021-08-31T07:30:45.000Z</time>
</trkpt>
<trkpt lat="46.3185870" lon="9.9557520">
	<ele>2165.80</ele>
	<time>2021-08-31T07:30:46.000Z</time>
</trkpt>
<trkpt lat="46.3185840" lon="9.9557760">
	<ele>2166.40</ele>
	<time>2021-08-31T07:30:48.000Z</time>
</trkpt>
<trkpt lat="46.3185850" lon="9.9557990">
	<ele>2166.80</ele>
	<time>2021-08-31T07:30:50.000Z</time>
</trkpt>
<trkpt lat="46.3185940" lon="9.9558350">
	<ele>2167.40</ele>
	<time>2021-08-31T07:30:54.000Z</time>
</trkpt>
<trkpt lat="46.3185970" lon="9.9558470">
	<ele>2167.40</ele>
	<time>2021-08-31T07:30:55.000Z</time>
</trkpt>
<trkpt lat="46.3185980" lon="9.9558700">
	<ele>2167.80</ele>
	<time>2021-08-31T07:30:57.000Z</time>
</trkpt>
<trkpt lat="46.3185980" lon="9.9558900">
	<ele>2168.00</ele>
	<time>2021-08-31T07:30:59.000Z</time>
</trkpt>
<trkpt lat="46.3185970" lon="9.9559210">
	<ele>2168.40</ele>
	<time>2021-08-31T07:31:02.000Z</time>
</trkpt>
<trkpt lat="46.3186000" lon="9.9559300">
	<ele>2168.60</ele>
	<time>2021-08-31T07:31:03.000Z</time>
</trkpt>
<trkpt lat="46.3185990" lon="9.9559520">
	<ele>2168.80</ele>
	<time>2021-08-31T07:31:05.000Z</time>
</trkpt>
<trkpt lat="46.3185950" lon="9.9560140">
	<ele>2169.60</ele>
	<time>2021-08-31T07:31:10.000Z</time>
</trkpt>
<trkpt lat="46.3186060" lon="9.9560650">
	<ele>2170.00</ele>
	<time>2021-08-31T07:31:14.000Z</time>
</trkpt>
<trkpt lat="46.3185950" lon="9.9560980">
	<ele>2170.20</ele>
	<time>2021-08-31T07:31:18.000Z</time>
</trkpt>
<trkpt lat="46.3185820" lon="9.9561170">
	<ele>2170.20</ele>
	<time>2021-08-31T07:31:21.000Z</time>
</trkpt>
<trkpt lat="46.3185950" lon="9.9561580">
	<ele>2170.60</ele>
	<time>2021-08-31T07:31:29.000Z</time>
</trkpt>
<trkpt lat="46.3185970" lon="9.9561600">
	<ele>2170.60</ele>
	<time>2021-08-31T07:31:30.000Z</time>
</trkpt>
<trkpt lat="46.3185750" lon="9.9561230">
	<ele>2170.40</ele>
	<time>2021-08-31T07:31:39.000Z</time>
</trkpt>
<trkpt lat="46.3185750" lon="9.9561230">
	<ele>2170.20</ele>
	<time>2021-08-31T07:31:42.000Z</time>
</trkpt>
<trkpt lat="46.3185750" lon="9.9561240">
	<ele>2170.00</ele>
	<time>2021-08-31T07:31:49.000Z</time>
</trkpt>
<trkpt lat="46.3185750" lon="9.9561270">
	<ele>2169.80</ele>
	<time>2021-08-31T07:31:52.000Z</time>
</trkpt>
<trkpt lat="46.3185810" lon="9.9561280">
	<ele>2169.80</ele>
	<time>2021-08-31T07:31:55.000Z</time>
</trkpt>
<trkpt lat="46.3185840" lon="9.9561290">
	<ele>2169.80</ele>
	<time>2021-08-31T07:31:59.000Z</time>
</trkpt>
<trkpt lat="46.3185840" lon="9.9561290">
	<ele>2169.80</ele>
	<time>2021-08-31T07:32:02.000Z</time>
</trkpt>
<trkpt lat="46.3185840" lon="9.9561290">
	<ele>2169.80</ele>
	<time>2021-08-31T07:32:05.000Z</time>
</trkpt>
<trkpt lat="46.3185880" lon="9.9561290">
	<ele>2169.80</ele>
	<time>2021-08-31T07:32:08.000Z</time>
</trkpt>
<trkpt lat="46.3185990" lon="9.9561340">
	<ele>2169.80</ele>
	<time>2021-08-31T07:32:13.000Z</time>
</trkpt>
<trkpt lat="46.3186060" lon="9.9561420">
	<ele>2169.60</ele>
	<time>2021-08-31T07:32:15.000Z</time>
</trkpt>
<trkpt lat="46.3186120" lon="9.9561520">
	<ele>2169.80</ele>
	<time>2021-08-31T07:32:17.000Z</time>
</trkpt>
<trkpt lat="46.3186140" lon="9.9561530">
	<ele>2169.80</ele>
	<time>2021-08-31T07:32:19.000Z</time>
</trkpt>
<trkpt lat="46.3186230" lon="9.9561530">
	<ele>2169.80</ele>
	<time>2021-08-31T07:32:22.000Z</time>
</trkpt>
<trkpt lat="46.3186380" lon="9.9561990">
	<ele>2171.80</ele>
	<time>2021-08-31T07:32:49.000Z</time>
</trkpt>
<trkpt lat="46.3186180" lon="9.9562210">
	<ele>2172.80</ele>
	<time>2021-08-31T07:32:57.000Z</time>
</trkpt>
<trkpt lat="46.3185500" lon="9.9563240">
	<ele>2173.80</ele>
	<time>2021-08-31T07:33:04.000Z</time>
</trkpt>
<trkpt lat="46.3185400" lon="9.9563430">
	<ele>2173.80</ele>
	<time>2021-08-31T07:33:05.000Z</time>
</trkpt>
<trkpt lat="46.3185190" lon="9.9563880">
	<ele>2174.40</ele>
	<time>2021-08-31T07:33:07.000Z</time>
</trkpt>
<trkpt lat="46.3185030" lon="9.9564210">
	<ele>2174.60</ele>
	<time>2021-08-31T07:33:09.000Z</time>
</trkpt>
<trkpt lat="46.3184950" lon="9.9564310">
	<ele>2174.80</ele>
	<time>2021-08-31T07:33:11.000Z</time>
</trkpt>
<trkpt lat="46.3184920" lon="9.9564420">
	<ele>2175.00</ele>
	<time>2021-08-31T07:33:12.000Z</time>
</trkpt>
<trkpt lat="46.3184890" lon="9.9564710">
	<ele>2175.20</ele>
	<time>2021-08-31T07:33:14.000Z</time>
</trkpt>
<trkpt lat="46.3184900" lon="9.9564860">
	<ele>2175.40</ele>
	<time>2021-08-31T07:33:15.000Z</time>
</trkpt>
<trkpt lat="46.3184840" lon="9.9565820">
	<ele>2175.60</ele>
	<time>2021-08-31T07:33:21.000Z</time>
</trkpt>
<trkpt lat="46.3184830" lon="9.9566180">
	<ele>2175.60</ele>
	<time>2021-08-31T07:33:23.000Z</time>
</trkpt>
<trkpt lat="46.3184770" lon="9.9566910">
	<ele>2176.00</ele>
	<time>2021-08-31T07:33:29.000Z</time>
</trkpt>
<trkpt lat="46.3184770" lon="9.9567030">
	<ele>2176.00</ele>
	<time>2021-08-31T07:33:30.000Z</time>
</trkpt>
<trkpt lat="46.3184740" lon="9.9567380">
	<ele>2176.60</ele>
	<time>2021-08-31T07:33:33.000Z</time>
</trkpt>
<trkpt lat="46.3184700" lon="9.9567820">
	<ele>2177.00</ele>
	<time>2021-08-31T07:33:37.000Z</time>
</trkpt>
<trkpt lat="46.3184590" lon="9.9568950">
	<ele>2177.80</ele>
	<time>2021-08-31T07:33:46.000Z</time>
</trkpt>
<trkpt lat="46.3184490" lon="9.9569410">
	<ele>2178.00</ele>
	<time>2021-08-31T07:33:49.000Z</time>
</trkpt>
<trkpt lat="46.3184200" lon="9.9570220">
	<ele>2178.80</ele>
	<time>2021-08-31T07:33:56.000Z</time>
</trkpt>
<trkpt lat="46.3184180" lon="9.9570460">
	<ele>2179.00</ele>
	<time>2021-08-31T07:33:58.000Z</time>
</trkpt>
<trkpt lat="46.3184010" lon="9.9571300">
	<ele>2180.20</ele>
	<time>2021-08-31T07:34:05.000Z</time>
</trkpt>
<trkpt lat="46.3184150" lon="9.9572340">
	<ele>2181.40</ele>
	<time>2021-08-31T07:34:14.000Z</time>
</trkpt>
<trkpt lat="46.3184100" lon="9.9573020">
	<ele>2182.40</ele>
	<time>2021-08-31T07:34:21.000Z</time>
</trkpt>
<trkpt lat="46.3184130" lon="9.9573600">
	<ele>2183.40</ele>
	<time>2021-08-31T07:34:27.000Z</time>
</trkpt>
<trkpt lat="46.3184080" lon="9.9573900">
	<ele>2183.60</ele>
	<time>2021-08-31T07:34:30.000Z</time>
</trkpt>
<trkpt lat="46.3184070" lon="9.9574240">
	<ele>2184.40</ele>
	<time>2021-08-31T07:34:35.000Z</time>
</trkpt>
<trkpt lat="46.3184030" lon="9.9574610">
	<ele>2185.40</ele>
	<time>2021-08-31T07:34:39.000Z</time>
</trkpt>
<trkpt lat="46.3184030" lon="9.9574730">
	<ele>2185.60</ele>
	<time>2021-08-31T07:34:40.000Z</time>
</trkpt>
<trkpt lat="46.3183990" lon="9.9575360">
	<ele>2186.80</ele>
	<time>2021-08-31T07:34:46.000Z</time>
</trkpt>
<trkpt lat="46.3183960" lon="9.9575590">
	<ele>2187.20</ele>
	<time>2021-08-31T07:34:48.000Z</time>
</trkpt>
<trkpt lat="46.3183840" lon="9.9576120">
	<ele>2188.00</ele>
	<time>2021-08-31T07:34:54.000Z</time>
</trkpt>
<trkpt lat="46.3183800" lon="9.9576360">
	<ele>2188.60</ele>
	<time>2021-08-31T07:34:57.000Z</time>
</trkpt>
<trkpt lat="46.3183720" lon="9.9576490">
	<ele>2189.00</ele>
	<time>2021-08-31T07:34:59.000Z</time>
</trkpt>
<trkpt lat="46.3183650" lon="9.9577060">
	<ele>2190.00</ele>
	<time>2021-08-31T07:35:05.000Z</time>
</trkpt>
<trkpt lat="46.3183620" lon="9.9577140">
	<ele>2190.20</ele>
	<time>2021-08-31T07:35:06.000Z</time>
</trkpt>
<trkpt lat="46.3183580" lon="9.9577690">
	<ele>2191.00</ele>
	<time>2021-08-31T07:35:12.000Z</time>
</trkpt>
<trkpt lat="46.3183600" lon="9.9578440">
	<ele>2192.00</ele>
	<time>2021-08-31T07:35:18.000Z</time>
</trkpt>
<trkpt lat="46.3183620" lon="9.9578730">
	<ele>2192.20</ele>
	<time>2021-08-31T07:35:20.000Z</time>
</trkpt>
<trkpt lat="46.3183700" lon="9.9579590">
	<ele>2192.80</ele>
	<time>2021-08-31T07:35:26.000Z</time>
</trkpt>
<trkpt lat="46.3183700" lon="9.9579960">
	<ele>2193.20</ele>
	<time>2021-08-31T07:35:29.000Z</time>
</trkpt>
<trkpt lat="46.3183850" lon="9.9580400">
	<ele>2194.20</ele>
	<time>2021-08-31T07:35:34.000Z</time>
</trkpt>
<trkpt lat="46.3183850" lon="9.9580510">
	<ele>2194.40</ele>
	<time>2021-08-31T07:35:35.000Z</time>
</trkpt>
<trkpt lat="46.3183900" lon="9.9581140">
	<ele>2195.00</ele>
	<time>2021-08-31T07:35:41.000Z</time>
</trkpt>
<trkpt lat="46.3183910" lon="9.9581370">
	<ele>2195.40</ele>
	<time>2021-08-31T07:35:43.000Z</time>
</trkpt>
<trkpt lat="46.3184000" lon="9.9581960">
	<ele>2196.40</ele>
	<time>2021-08-31T07:35:49.000Z</time>
</trkpt>
<trkpt lat="46.3184010" lon="9.9582060">
	<ele>2196.60</ele>
	<time>2021-08-31T07:35:50.000Z</time>
</trkpt>
<trkpt lat="46.3184020" lon="9.9582650">
	<ele>2197.60</ele>
	<time>2021-08-31T07:35:55.000Z</time>
</trkpt>
<trkpt lat="46.3184210" lon="9.9583450">
	<ele>2198.60</ele>
	<time>2021-08-31T07:36:02.000Z</time>
</trkpt>
<trkpt lat="46.3184380" lon="9.9584080">
	<ele>2200.00</ele>
	<time>2021-08-31T07:36:08.000Z</time>
</trkpt>
<trkpt lat="46.3184690" lon="9.9584670">
	<ele>2201.20</ele>
	<time>2021-08-31T07:36:14.000Z</time>
</trkpt>
<trkpt lat="46.3184810" lon="9.9584930">
	<ele>2201.60</ele>
	<time>2021-08-31T07:36:20.000Z</time>
</trkpt>
<trkpt lat="46.3184750" lon="9.9585070">
	<ele>2201.80</ele>
	<time>2021-08-31T07:36:27.000Z</time>
</trkpt>
<trkpt lat="46.3184820" lon="9.9585280">
	<ele>2202.00</ele>
	<time>2021-08-31T07:36:29.000Z</time>
</trkpt>
<trkpt lat="46.3184860" lon="9.9585370">
	<ele>2202.20</ele>
	<time>2021-08-31T07:36:30.000Z</time>
</trkpt>
<trkpt lat="46.3185340" lon="9.9586120">
	<ele>2203.20</ele>
	<time>2021-08-31T07:36:38.000Z</time>
</trkpt>
<trkpt lat="46.3185410" lon="9.9586210">
	<ele>2203.60</ele>
	<time>2021-08-31T07:36:39.000Z</time>
</trkpt>
<trkpt lat="46.3185630" lon="9.9586580">
	<ele>2204.60</ele>
	<time>2021-08-31T07:36:43.000Z</time>
</trkpt>
<trkpt lat="46.3185810" lon="9.9586920">
	<ele>2205.40</ele>
	<time>2021-08-31T07:36:47.000Z</time>
</trkpt>
<trkpt lat="46.3186150" lon="9.9587380">
	<ele>2205.80</ele>
	<time>2021-08-31T07:36:52.000Z</time>
</trkpt>
<trkpt lat="46.3186390" lon="9.9587780">
	<ele>2206.20</ele>
	<time>2021-08-31T07:36:56.000Z</time>
</trkpt>
<trkpt lat="46.3186530" lon="9.9588060">
	<ele>2206.80</ele>
	<time>2021-08-31T07:36:59.000Z</time>
</trkpt>
<trkpt lat="46.3186790" lon="9.9588650">
	<ele>2207.40</ele>
	<time>2021-08-31T07:37:05.000Z</time>
</trkpt>
<trkpt lat="46.3187020" lon="9.9589310">
	<ele>2208.00</ele>
	<time>2021-08-31T07:37:11.000Z</time>
</trkpt>
<trkpt lat="46.3187030" lon="9.9589500">
	<ele>2208.20</ele>
	<time>2021-08-31T07:37:12.000Z</time>
</trkpt>
<trkpt lat="46.3187030" lon="9.9589830">
	<ele>2208.60</ele>
	<time>2021-08-31T07:37:14.000Z</time>
</trkpt>
<trkpt lat="46.3187170" lon="9.9590230">
	<ele>2209.00</ele>
	<time>2021-08-31T07:37:18.000Z</time>
</trkpt>
<trkpt lat="46.3187240" lon="9.9590760">
	<ele>2210.00</ele>
	<time>2021-08-31T07:37:23.000Z</time>
</trkpt>
<trkpt lat="46.3187330" lon="9.9590970">
	<ele>2210.20</ele>
	<time>2021-08-31T07:37:25.000Z</time>
</trkpt>
<trkpt lat="46.3187830" lon="9.9591880">
	<ele>2211.20</ele>
	<time>2021-08-31T07:37:35.000Z</time>
</trkpt>
<trkpt lat="46.3187930" lon="9.9592100">
	<ele>2211.40</ele>
	<time>2021-08-31T07:37:37.000Z</time>
</trkpt>
<trkpt lat="46.3188150" lon="9.9592390">
	<ele>2212.20</ele>
	<time>2021-08-31T07:37:41.000Z</time>
</trkpt>
<trkpt lat="46.3188190" lon="9.9592400">
	<ele>2212.40</ele>
	<time>2021-08-31T07:37:42.000Z</time>
</trkpt>
<trkpt lat="46.3188040" lon="9.9592390">
	<ele>2212.40</ele>
	<time>2021-08-31T07:37:48.000Z</time>
</trkpt>
<trkpt lat="46.3187990" lon="9.9592220">
	<ele>2212.60</ele>
	<time>2021-08-31T07:37:56.000Z</time>
</trkpt>
<trkpt lat="46.3188090" lon="9.9592440">
	<ele>2213.20</ele>
	<time>2021-08-31T07:38:00.000Z</time>
</trkpt>
<trkpt lat="46.3188120" lon="9.9592600">
	<ele>2213.20</ele>
	<time>2021-08-31T07:38:01.000Z</time>
</trkpt>
<trkpt lat="46.3188750" lon="9.9593300">
	<ele>2214.40</ele>
	<time>2021-08-31T07:38:07.000Z</time>
</trkpt>
<trkpt lat="46.3188880" lon="9.9593560">
	<ele>2214.80</ele>
	<time>2021-08-31T07:38:09.000Z</time>
</trkpt>
<trkpt lat="46.3189210" lon="9.9594260">
	<ele>2215.40</ele>
	<time>2021-08-31T07:38:14.000Z</time>
</trkpt>
<trkpt lat="46.3189210" lon="9.9594410">
	<ele>2215.80</ele>
	<time>2021-08-31T07:38:16.000Z</time>
</trkpt>
<trkpt lat="46.3189350" lon="9.9594580">
	<ele>2216.00</ele>
	<time>2021-08-31T07:38:18.000Z</time>
</trkpt>
<trkpt lat="46.3189480" lon="9.9594770">
	<ele>2216.80</ele>
	<time>2021-08-31T07:38:20.000Z</time>
</trkpt>
<trkpt lat="46.3189660" lon="9.9594980">
	<ele>2217.40</ele>
	<time>2021-08-31T07:38:23.000Z</time>
</trkpt>
<trkpt lat="46.3189740" lon="9.9595150">
	<ele>2218.00</ele>
	<time>2021-08-31T07:38:25.000Z</time>
</trkpt>
<trkpt lat="46.3189900" lon="9.9595570">
	<ele>2219.00</ele>
	<time>2021-08-31T07:38:30.000Z</time>
</trkpt>
<trkpt lat="46.3189940" lon="9.9595640">
	<ele>2219.20</ele>
	<time>2021-08-31T07:38:31.000Z</time>
</trkpt>
<trkpt lat="46.3190190" lon="9.9596200">
	<ele>2219.00</ele>
	<time>2021-08-31T07:38:37.000Z</time>
</trkpt>
<trkpt lat="46.3190430" lon="9.9596870">
	<ele>2220.20</ele>
	<time>2021-08-31T07:38:42.000Z</time>
</trkpt>
<trkpt lat="46.3190650" lon="9.9597200">
	<ele>2219.80</ele>
	<time>2021-08-31T07:38:45.000Z</time>
</trkpt>
<trkpt lat="46.3190750" lon="9.9597430">
	<ele>2218.60</ele>
	<time>2021-08-31T07:38:47.000Z</time>
</trkpt>
<trkpt lat="46.3191140" lon="9.9598200">
	<ele>2217.60</ele>
	<time>2021-08-31T07:38:54.000Z</time>
</trkpt>
<trkpt lat="46.3191500" lon="9.9599090">
	<ele>2216.40</ele>
	<time>2021-08-31T07:39:01.000Z</time>
</trkpt>
<trkpt lat="46.3191660" lon="9.9599550">
	<ele>2215.80</ele>
	<time>2021-08-31T07:39:04.000Z</time>
</trkpt>
<trkpt lat="46.3191770" lon="9.9599810">
	<ele>2215.40</ele>
	<time>2021-08-31T07:39:06.000Z</time>
</trkpt>
<trkpt lat="46.3191860" lon="9.9599950">
	<ele>2215.00</ele>
	<time>2021-08-31T07:39:08.000Z</time>
</trkpt>
<trkpt lat="46.3192000" lon="9.9600070">
	<ele>2214.80</ele>
	<time>2021-08-31T07:39:12.000Z</time>
</trkpt>
<trkpt lat="46.3192020" lon="9.9600090">
	<ele>2214.80</ele>
	<time>2021-08-31T07:39:13.000Z</time>
</trkpt>
<trkpt lat="46.3192040" lon="9.9600060">
	<ele>2214.80</ele>
	<time>2021-08-31T07:39:14.000Z</time>
</trkpt>
<trkpt lat="46.3192150" lon="9.9600440">
	<ele>2214.80</ele>
	<time>2021-08-31T07:39:17.000Z</time>
</trkpt>
<trkpt lat="46.3192230" lon="9.9600810">
	<ele>2214.60</ele>
	<time>2021-08-31T07:39:19.000Z</time>
</trkpt>
<trkpt lat="46.3192300" lon="9.9601900">
	<ele>2214.40</ele>
	<time>2021-08-31T07:39:25.000Z</time>
</trkpt>
<trkpt lat="46.3192330" lon="9.9602390">
	<ele>2214.40</ele>
	<time>2021-08-31T07:39:28.000Z</time>
</trkpt>
<trkpt lat="46.3192410" lon="9.9603810">
	<ele>2214.40</ele>
	<time>2021-08-31T07:39:37.000Z</time>
</trkpt>
<trkpt lat="46.3192510" lon="9.9603970">
	<ele>2214.40</ele>
	<time>2021-08-31T07:39:39.000Z</time>
</trkpt>
<trkpt lat="46.3192850" lon="9.9604310">
	<ele>2214.60</ele>
	<time>2021-08-31T07:39:43.000Z</time>
</trkpt>
<trkpt lat="46.3192870" lon="9.9604430">
	<ele>2214.80</ele>
	<time>2021-08-31T07:39:44.000Z</time>
</trkpt>
<trkpt lat="46.3192800" lon="9.9604540">
	<ele>2214.80</ele>
	<time>2021-08-31T07:39:45.000Z</time>
</trkpt>
<trkpt lat="46.3192740" lon="9.9604380">
	<ele>2215.00</ele>
	<time>2021-08-31T07:39:50.000Z</time>
</trkpt>
<trkpt lat="46.3192760" lon="9.9604350">
	<ele>2215.20</ele>
	<time>2021-08-31T07:39:55.000Z</time>
</trkpt>
<trkpt lat="46.3192620" lon="9.9605210">
	<ele>2215.40</ele>
	<time>2021-08-31T07:40:03.000Z</time>
</trkpt>
<trkpt lat="46.3192620" lon="9.9605370">
	<ele>2215.60</ele>
	<time>2021-08-31T07:40:04.000Z</time>
</trkpt>
<trkpt lat="46.3192950" lon="9.9606610">
	<ele>2216.40</ele>
	<time>2021-08-31T07:40:11.000Z</time>
</trkpt>
<trkpt lat="46.3193450" lon="9.9607920">
	<ele>2216.40</ele>
	<time>2021-08-31T07:40:19.000Z</time>
</trkpt>
<trkpt lat="46.3193860" lon="9.9608420">
	<ele>2216.00</ele>
	<time>2021-08-31T07:40:23.000Z</time>
</trkpt>
<trkpt lat="46.3193890" lon="9.9608440">
	<ele>2215.80</ele>
	<time>2021-08-31T07:40:24.000Z</time>
</trkpt>
<trkpt lat="46.3193910" lon="9.9608380">
	<ele>2215.80</ele>
	<time>2021-08-31T07:40:25.000Z</time>
</trkpt>
<trkpt lat="46.3194050" lon="9.9608410">
	<ele>2215.80</ele>
	<time>2021-08-31T07:40:27.000Z</time>
</trkpt>
<trkpt lat="46.3194400" lon="9.9607790">
	<ele>2215.60</ele>
	<time>2021-08-31T07:40:37.000Z</time>
</trkpt>
<trkpt lat="46.3194190" lon="9.9607940">
	<ele>2215.40</ele>
	<time>2021-08-31T07:40:39.000Z</time>
</trkpt>
<trkpt lat="46.3193900" lon="9.9608260">
	<ele>2215.40</ele>
	<time>2021-08-31T07:40:42.000Z</time>
</trkpt>
<trkpt lat="46.3193600" lon="9.9608800">
	<ele>2215.60</ele>
	<time>2021-08-31T07:40:46.000Z</time>
</trkpt>
<trkpt lat="46.3193540" lon="9.9609030">
	<ele>2215.80</ele>
	<time>2021-08-31T07:40:47.000Z</time>
</trkpt>
<trkpt lat="46.3193350" lon="9.9609340">
	<ele>2215.80</ele>
	<time>2021-08-31T07:40:49.000Z</time>
</trkpt>
<trkpt lat="46.3193080" lon="9.9609970">
	<ele>2216.20</ele>
	<time>2021-08-31T07:40:53.000Z</time>
</trkpt>
<trkpt lat="46.3192890" lon="9.9610570">
	<ele>2216.60</ele>
	<time>2021-08-31T07:40:57.000Z</time>
</trkpt>
<trkpt lat="46.3192700" lon="9.9611640">
	<ele>2217.20</ele>
	<time>2021-08-31T07:41:03.000Z</time>
</trkpt>
<trkpt lat="46.3192690" lon="9.9613330">
	<ele>2217.60</ele>
	<time>2021-08-31T07:41:12.000Z</time>
</trkpt>
<trkpt lat="46.3192590" lon="9.9613870">
	<ele>2217.40</ele>
	<time>2021-08-31T07:41:15.000Z</time>
</trkpt>
<trkpt lat="46.3192570" lon="9.9614560">
	<ele>2217.40</ele>
	<time>2021-08-31T07:41:18.000Z</time>
</trkpt>
<trkpt lat="46.3192650" lon="9.9615850">
	<ele>2217.80</ele>
	<time>2021-08-31T07:41:25.000Z</time>
</trkpt>
<trkpt lat="46.3192710" lon="9.9616930">
	<ele>2217.80</ele>
	<time>2021-08-31T07:41:31.000Z</time>
</trkpt>
<trkpt lat="46.3192750" lon="9.9617990">
	<ele>2217.60</ele>
	<time>2021-08-31T07:41:36.000Z</time>
</trkpt>
<trkpt lat="46.3193120" lon="9.9619500">
	<ele>2217.60</ele>
	<time>2021-08-31T07:41:45.000Z</time>
</trkpt>
<trkpt lat="46.3193790" lon="9.9620970">
	<ele>2218.00</ele>
	<time>2021-08-31T07:41:55.000Z</time>
</trkpt>
<trkpt lat="46.3194520" lon="9.9622140">
	<ele>2218.00</ele>
	<time>2021-08-31T07:42:03.000Z</time>
</trkpt>
<trkpt lat="46.3195100" lon="9.9622910">
	<ele>2218.40</ele>
	<time>2021-08-31T07:42:09.000Z</time>
</trkpt>
<trkpt lat="46.3195150" lon="9.9623030">
	<ele>2218.60</ele>
	<time>2021-08-31T07:42:10.000Z</time>
</trkpt>
<trkpt lat="46.3195750" lon="9.9624200">
	<ele>2219.20</ele>
	<time>2021-08-31T07:42:18.000Z</time>
</trkpt>
<trkpt lat="46.3196110" lon="9.9626020">
	<ele>2219.40</ele>
	<time>2021-08-31T07:42:29.000Z</time>
</trkpt>
<trkpt lat="46.3196370" lon="9.9627100">
	<ele>2219.60</ele>
	<time>2021-08-31T07:42:35.000Z</time>
</trkpt>
<trkpt lat="46.3196650" lon="9.9627780">
	<ele>2220.00</ele>
	<time>2021-08-31T07:42:40.000Z</time>
</trkpt>
<trkpt lat="46.3196910" lon="9.9628750">
	<ele>2220.60</ele>
	<time>2021-08-31T07:42:46.000Z</time>
</trkpt>
<trkpt lat="46.3197000" lon="9.9629560">
	<ele>2220.60</ele>
	<time>2021-08-31T07:42:51.000Z</time>
</trkpt>
<trkpt lat="46.3197050" lon="9.9630920">
	<ele>2220.20</ele>
	<time>2021-08-31T07:42:59.000Z</time>
</trkpt>
<trkpt lat="46.3197060" lon="9.9631190">
	<ele>2220.20</ele>
	<time>2021-08-31T07:43:01.000Z</time>
</trkpt>
<trkpt lat="46.3197290" lon="9.9632050">
	<ele>2219.80</ele>
	<time>2021-08-31T07:43:06.000Z</time>
</trkpt>
<trkpt lat="46.3197660" lon="9.9633270">
	<ele>2221.20</ele>
	<time>2021-08-31T07:43:14.000Z</time>
</trkpt>
<trkpt lat="46.3197770" lon="9.9633580">
	<ele>2221.20</ele>
	<time>2021-08-31T07:43:16.000Z</time>
</trkpt>
<trkpt lat="46.3197780" lon="9.9633720">
	<ele>2221.20</ele>
	<time>2021-08-31T07:43:17.000Z</time>
</trkpt>
<trkpt lat="46.3197680" lon="9.9634510">
	<ele>2221.20</ele>
	<time>2021-08-31T07:43:22.000Z</time>
</trkpt>
<trkpt lat="46.3197620" lon="9.9635820">
	<ele>2221.80</ele>
	<time>2021-08-31T07:43:30.000Z</time>
</trkpt>
<trkpt lat="46.3197660" lon="9.9636070">
	<ele>2222.20</ele>
	<time>2021-08-31T07:43:32.000Z</time>
</trkpt>
<trkpt lat="46.3197590" lon="9.9636960">
	<ele>2222.40</ele>
	<time>2021-08-31T07:43:37.000Z</time>
</trkpt>
<trkpt lat="46.3197630" lon="9.9638110">
	<ele>2222.60</ele>
	<time>2021-08-31T07:43:44.000Z</time>
</trkpt>
<trkpt lat="46.3197680" lon="9.9638790">
	<ele>2223.00</ele>
	<time>2021-08-31T07:43:48.000Z</time>
</trkpt>
<trkpt lat="46.3197740" lon="9.9639640">
	<ele>2223.60</ele>
	<time>2021-08-31T07:43:53.000Z</time>
</trkpt>
<trkpt lat="46.3197850" lon="9.9640250">
	<ele>2224.00</ele>
	<time>2021-08-31T07:43:57.000Z</time>
</trkpt>
<trkpt lat="46.3198240" lon="9.9641300">
	<ele>2224.60</ele>
	<time>2021-08-31T07:44:04.000Z</time>
</trkpt>
<trkpt lat="46.3198360" lon="9.9641450">
	<ele>2225.00</ele>
	<time>2021-08-31T07:44:06.000Z</time>
</trkpt>
<trkpt lat="46.3198510" lon="9.9642100">
	<ele>2226.20</ele>
	<time>2021-08-31T07:44:12.000Z</time>
</trkpt>
<trkpt lat="46.3198410" lon="9.9642130">
	<ele>2226.40</ele>
	<time>2021-08-31T07:44:14.000Z</time>
</trkpt>
<trkpt lat="46.3198070" lon="9.9642240">
	<ele>2226.40</ele>
	<time>2021-08-31T07:44:17.000Z</time>
</trkpt>
<trkpt lat="46.3197260" lon="9.9642590">
	<ele>2226.40</ele>
	<time>2021-08-31T07:44:24.000Z</time>
</trkpt>
<trkpt lat="46.3196160" lon="9.9643600">
	<ele>2226.40</ele>
	<time>2021-08-31T07:44:34.000Z</time>
</trkpt>
<trkpt lat="46.3195240" lon="9.9644420">
	<ele>2226.00</ele>
	<time>2021-08-31T07:44:44.000Z</time>
</trkpt>
<trkpt lat="46.3194570" lon="9.9645120">
	<ele>2225.40</ele>
	<time>2021-08-31T07:44:51.000Z</time>
</trkpt>
<trkpt lat="46.3194340" lon="9.9645350">
	<ele>2225.40</ele>
	<time>2021-08-31T07:44:53.000Z</time>
</trkpt>
<trkpt lat="46.3193660" lon="9.9645850">
	<ele>2225.20</ele>
	<time>2021-08-31T07:44:59.000Z</time>
</trkpt>
<trkpt lat="46.3193470" lon="9.9645980">
	<ele>2225.00</ele>
	<time>2021-08-31T07:45:01.000Z</time>
</trkpt>
<trkpt lat="46.3192590" lon="9.9646100">
	<ele>2224.80</ele>
	<time>2021-08-31T07:45:07.000Z</time>
</trkpt>
<trkpt lat="46.3192330" lon="9.9646220">
	<ele>2224.60</ele>
	<time>2021-08-31T07:45:09.000Z</time>
</trkpt>
<trkpt lat="46.3191650" lon="9.9646820">
	<ele>2224.00</ele>
	<time>2021-08-31T07:45:15.000Z</time>
</trkpt>
<trkpt lat="46.3191300" lon="9.9647290">
	<ele>2223.80</ele>
	<time>2021-08-31T07:45:19.000Z</time>
</trkpt>
<trkpt lat="46.3190430" lon="9.9648360">
	<ele>2223.60</ele>
	<time>2021-08-31T07:45:28.000Z</time>
</trkpt>
<trkpt lat="46.3189350" lon="9.9649520">
	<ele>2223.80</ele>
	<time>2021-08-31T07:45:38.000Z</time>
</trkpt>
<trkpt lat="46.3188740" lon="9.9650520">
	<ele>2224.00</ele>
	<time>2021-08-31T07:45:46.000Z</time>
</trkpt>
<trkpt lat="46.3187860" lon="9.9651950">
	<ele>2224.00</ele>
	<time>2021-08-31T07:45:57.000Z</time>
</trkpt>
<trkpt lat="46.3187400" lon="9.9653980">
	<ele>2223.60</ele>
	<time>2021-08-31T07:46:08.000Z</time>
</trkpt>
<trkpt lat="46.3186890" lon="9.9655580">
	<ele>2223.20</ele>
	<time>2021-08-31T07:46:17.000Z</time>
</trkpt>
<trkpt lat="46.3186890" lon="9.9655700">
	<ele>2223.20</ele>
	<time>2021-08-31T07:46:18.000Z</time>
</trkpt>
<trkpt lat="46.3186700" lon="9.9656590">
	<ele>2223.20</ele>
	<time>2021-08-31T07:46:25.000Z</time>
</trkpt>
<trkpt lat="46.3186630" lon="9.9656770">
	<ele>2223.20</ele>
	<time>2021-08-31T07:46:26.000Z</time>
</trkpt>
<trkpt lat="46.3186370" lon="9.9657300">
	<ele>2223.80</ele>
	<time>2021-08-31T07:46:31.000Z</time>
</trkpt>
<trkpt lat="46.3186500" lon="9.9657240">
	<ele>2223.80</ele>
	<time>2021-08-31T07:46:33.000Z</time>
</trkpt>
<trkpt lat="46.3186270" lon="9.9657460">
	<ele>2224.00</ele>
	<time>2021-08-31T07:46:40.000Z</time>
</trkpt>
<trkpt lat="46.3186190" lon="9.9657600">
	<ele>2224.20</ele>
	<time>2021-08-31T07:46:41.000Z</time>
</trkpt>
<trkpt lat="46.3186180" lon="9.9659000">
	<ele>2224.80</ele>
	<time>2021-08-31T07:46:49.000Z</time>
</trkpt>
<trkpt lat="46.3186030" lon="9.9660070">
	<ele>2225.00</ele>
	<time>2021-08-31T07:46:55.000Z</time>
</trkpt>
<trkpt lat="46.3185910" lon="9.9660250">
	<ele>2225.00</ele>
	<time>2021-08-31T07:46:56.000Z</time>
</trkpt>
<trkpt lat="46.3185680" lon="9.9660890">
	<ele>2224.80</ele>
	<time>2021-08-31T07:47:00.000Z</time>
</trkpt>
<trkpt lat="46.3185450" lon="9.9661710">
	<ele>2224.40</ele>
	<time>2021-08-31T07:47:04.000Z</time>
</trkpt>
<trkpt lat="46.3185130" lon="9.9663410">
	<ele>2224.00</ele>
	<time>2021-08-31T07:47:13.000Z</time>
</trkpt>
<trkpt lat="46.3184480" lon="9.9664900">
	<ele>2223.60</ele>
	<time>2021-08-31T07:47:23.000Z</time>
</trkpt>
<trkpt lat="46.3183850" lon="9.9665160">
	<ele>2223.40</ele>
	<time>2021-08-31T07:47:28.000Z</time>
</trkpt>
<trkpt lat="46.3183650" lon="9.9665310">
	<ele>2223.20</ele>
	<time>2021-08-31T07:47:30.000Z</time>
</trkpt>
<trkpt lat="46.3183460" lon="9.9665540">
	<ele>2223.20</ele>
	<time>2021-08-31T07:47:32.000Z</time>
</trkpt>
<trkpt lat="46.3183240" lon="9.9665830">
	<ele>2223.00</ele>
	<time>2021-08-31T07:47:34.000Z</time>
</trkpt>
<trkpt lat="46.3182680" lon="9.9666990">
	<ele>2222.80</ele>
	<time>2021-08-31T07:47:42.000Z</time>
</trkpt>
<trkpt lat="46.3181920" lon="9.9667780">
	<ele>2223.80</ele>
	<time>2021-08-31T07:47:50.000Z</time>
</trkpt>
<trkpt lat="46.3181780" lon="9.9668080">
	<ele>2224.00</ele>
	<time>2021-08-31T07:47:52.000Z</time>
</trkpt>
<trkpt lat="46.3181530" lon="9.9668490">
	<ele>2224.20</ele>
	<time>2021-08-31T07:47:56.000Z</time>
</trkpt>
<trkpt lat="46.3181250" lon="9.9669040">
	<ele>2225.00</ele>
	<time>2021-08-31T07:48:01.000Z</time>
</trkpt>
<trkpt lat="46.3180800" lon="9.9669900">
	<ele>2226.00</ele>
	<time>2021-08-31T07:48:08.000Z</time>
</trkpt>
<trkpt lat="46.3180700" lon="9.9670200">
	<ele>2226.20</ele>
	<time>2021-08-31T07:48:10.000Z</time>
</trkpt>
<trkpt lat="46.3180270" lon="9.9671070">
	<ele>2227.20</ele>
	<time>2021-08-31T07:48:17.000Z</time>
</trkpt>
<trkpt lat="46.3180120" lon="9.9671210">
	<ele>2227.40</ele>
	<time>2021-08-31T07:48:19.000Z</time>
</trkpt>
<trkpt lat="46.3179520" lon="9.9671460">
	<ele>2228.20</ele>
	<time>2021-08-31T07:48:26.000Z</time>
</trkpt>
<trkpt lat="46.3179410" lon="9.9671460">
	<ele>2228.40</ele>
	<time>2021-08-31T07:48:27.000Z</time>
</trkpt>
<trkpt lat="46.3179190" lon="9.9671500">
	<ele>2228.40</ele>
	<time>2021-08-31T07:48:29.000Z</time>
</trkpt>
<trkpt lat="46.3178990" lon="9.9671600">
	<ele>2228.80</ele>
	<time>2021-08-31T07:48:31.000Z</time>
</trkpt>
<trkpt lat="46.3178520" lon="9.9671670">
	<ele>2229.20</ele>
	<time>2021-08-31T07:48:35.000Z</time>
</trkpt>
<trkpt lat="46.3177650" lon="9.9672190">
	<ele>2229.60</ele>
	<time>2021-08-31T07:48:43.000Z</time>
</trkpt>
<trkpt lat="46.3176880" lon="9.9673410">
	<ele>2229.00</ele>
	<time>2021-08-31T07:48:54.000Z</time>
</trkpt>
<trkpt lat="46.3176790" lon="9.9673550">
	<ele>2229.00</ele>
	<time>2021-08-31T07:48:55.000Z</time>
</trkpt>
<trkpt lat="46.3176670" lon="9.9673640">
	<ele>2229.00</ele>
	<time>2021-08-31T07:48:56.000Z</time>
</trkpt>
<trkpt lat="46.3176170" lon="9.9673840">
	<ele>2228.60</ele>
	<time>2021-08-31T07:49:00.000Z</time>
</trkpt>
<trkpt lat="46.3175310" lon="9.9674590">
	<ele>2228.60</ele>
	<time>2021-08-31T07:49:08.000Z</time>
</trkpt>
<trkpt lat="46.3174410" lon="9.9675180">
	<ele>2228.40</ele>
	<time>2021-08-31T07:49:16.000Z</time>
</trkpt>
<trkpt lat="46.3173590" lon="9.9676160">
	<ele>2228.60</ele>
	<time>2021-08-31T07:49:24.000Z</time>
</trkpt>
<trkpt lat="46.3173210" lon="9.9677880">
	<ele>2228.40</ele>
	<time>2021-08-31T07:49:33.000Z</time>
</trkpt>
<trkpt lat="46.3173010" lon="9.9679220">
	<ele>2229.40</ele>
	<time>2021-08-31T07:49:41.000Z</time>
</trkpt>
<trkpt lat="46.3172570" lon="9.9680960">
	<ele>2229.60</ele>
	<time>2021-08-31T07:49:51.000Z</time>
</trkpt>
<trkpt lat="46.3172310" lon="9.9682880">
	<ele>2229.60</ele>
	<time>2021-08-31T07:50:03.000Z</time>
</trkpt>
<trkpt lat="46.3172170" lon="9.9683800">
	<ele>2230.00</ele>
	<time>2021-08-31T07:50:10.000Z</time>
</trkpt>
<trkpt lat="46.3172150" lon="9.9683990">
	<ele>2230.00</ele>
	<time>2021-08-31T07:50:11.000Z</time>
</trkpt>
<trkpt lat="46.3172110" lon="9.9684380">
	<ele>2230.00</ele>
	<time>2021-08-31T07:50:13.000Z</time>
</trkpt>
<trkpt lat="46.3172120" lon="9.9685030">
	<ele>2230.20</ele>
	<time>2021-08-31T07:50:17.000Z</time>
</trkpt>
<trkpt lat="46.3172060" lon="9.9685630">
	<ele>2230.20</ele>
	<time>2021-08-31T07:50:20.000Z</time>
</trkpt>
<trkpt lat="46.3172090" lon="9.9686350">
	<ele>2230.60</ele>
	<time>2021-08-31T07:50:24.000Z</time>
</trkpt>
<trkpt lat="46.3171980" lon="9.9687860">
	<ele>2230.80</ele>
	<time>2021-08-31T07:50:33.000Z</time>
</trkpt>
<trkpt lat="46.3171720" lon="9.9688410">
	<ele>2231.20</ele>
	<time>2021-08-31T07:50:37.000Z</time>
</trkpt>
<trkpt lat="46.3171670" lon="9.9688810">
	<ele>2231.60</ele>
	<time>2021-08-31T07:50:40.000Z</time>
</trkpt>
<trkpt lat="46.3171470" lon="9.9689430">
	<ele>2232.20</ele>
	<time>2021-08-31T07:50:45.000Z</time>
</trkpt>
<trkpt lat="46.3171380" lon="9.9689470">
	<ele>2232.40</ele>
	<time>2021-08-31T07:50:46.000Z</time>
</trkpt>
<trkpt lat="46.3171260" lon="9.9689500">
	<ele>2232.40</ele>
	<time>2021-08-31T07:50:47.000Z</time>
</trkpt>
<trkpt lat="46.3170740" lon="9.9689660">
	<ele>2232.80</ele>
	<time>2021-08-31T07:50:52.000Z</time>
</trkpt>
<trkpt lat="46.3170430" lon="9.9689740">
	<ele>2233.20</ele>
	<time>2021-08-31T07:50:55.000Z</time>
</trkpt>
<trkpt lat="46.3170310" lon="9.9689770">
	<ele>2233.40</ele>
	<time>2021-08-31T07:50:56.000Z</time>
</trkpt>
<trkpt lat="46.3169620" lon="9.9690320">
	<ele>2234.40</ele>
	<time>2021-08-31T07:51:04.000Z</time>
</trkpt>
<trkpt lat="46.3169550" lon="9.9690550">
	<ele>2234.40</ele>
	<time>2021-08-31T07:51:06.000Z</time>
</trkpt>
<trkpt lat="46.3169180" lon="9.9691910">
	<ele>2235.00</ele>
	<time>2021-08-31T07:51:13.000Z</time>
</trkpt>
<trkpt lat="46.3169190" lon="9.9692050">
	<ele>2235.20</ele>
	<time>2021-08-31T07:51:14.000Z</time>
</trkpt>
<trkpt lat="46.3169290" lon="9.9692740">
	<ele>2235.40</ele>
	<time>2021-08-31T07:51:18.000Z</time>
</trkpt>
<trkpt lat="46.3169420" lon="9.9693470">
	<ele>2235.80</ele>
	<time>2021-08-31T07:51:23.000Z</time>
</trkpt>
<trkpt lat="46.3169510" lon="9.9694070">
	<ele>2236.40</ele>
	<time>2021-08-31T07:51:27.000Z</time>
</trkpt>
<trkpt lat="46.3169600" lon="9.9694720">
	<ele>2237.20</ele>
	<time>2021-08-31T07:51:32.000Z</time>
</trkpt>
<trkpt lat="46.3169640" lon="9.9694920">
	<ele>2237.60</ele>
	<time>2021-08-31T07:51:34.000Z</time>
</trkpt>
<trkpt lat="46.3169740" lon="9.9695520">
	<ele>2238.60</ele>
	<time>2021-08-31T07:51:41.000Z</time>
</trkpt>
<trkpt lat="46.3169560" lon="9.9696060">
	<ele>2239.40</ele>
	<time>2021-08-31T07:51:48.000Z</time>
</trkpt>
<trkpt lat="46.3169490" lon="9.9696080">
	<ele>2239.60</ele>
	<time>2021-08-31T07:51:49.000Z</time>
</trkpt>
<trkpt lat="46.3168660" lon="9.9696300">
	<ele>2240.80</ele>
	<time>2021-08-31T07:51:56.000Z</time>
</trkpt>
<trkpt lat="46.3168460" lon="9.9696900">
	<ele>2241.20</ele>
	<time>2021-08-31T07:52:02.000Z</time>
</trkpt>
<trkpt lat="46.3168270" lon="9.9697150">
	<ele>2241.60</ele>
	<time>2021-08-31T07:52:05.000Z</time>
</trkpt>
<trkpt lat="46.3168230" lon="9.9697250">
	<ele>2241.80</ele>
	<time>2021-08-31T07:52:06.000Z</time>
</trkpt>
<trkpt lat="46.3168060" lon="9.9697950">
	<ele>2243.00</ele>
	<time>2021-08-31T07:52:12.000Z</time>
</trkpt>
<trkpt lat="46.3168130" lon="9.9698170">
	<ele>2243.20</ele>
	<time>2021-08-31T07:52:14.000Z</time>
</trkpt>
<trkpt lat="46.3168280" lon="9.9698370">
	<ele>2243.40</ele>
	<time>2021-08-31T07:52:16.000Z</time>
</trkpt>
<trkpt lat="46.3168470" lon="9.9698420">
	<ele>2243.60</ele>
	<time>2021-08-31T07:52:18.000Z</time>
</trkpt>
<trkpt lat="46.3168530" lon="9.9698370">
	<ele>2243.80</ele>
	<time>2021-08-31T07:52:21.000Z</time>
</trkpt>
<trkpt lat="46.3168540" lon="9.9698360">
	<ele>2243.80</ele>
	<time>2021-08-31T07:52:22.000Z</time>
</trkpt>
<trkpt lat="46.3168550" lon="9.9698340">
	<ele>2244.00</ele>
	<time>2021-08-31T07:52:26.000Z</time>
</trkpt>
<trkpt lat="46.3168570" lon="9.9698550">
	<ele>2244.00</ele>
	<time>2021-08-31T07:52:30.000Z</time>
</trkpt>
<trkpt lat="46.3169070" lon="9.9698490">
	<ele>2244.60</ele>
	<time>2021-08-31T07:52:35.000Z</time>
</trkpt>
<trkpt lat="46.3169230" lon="9.9698450">
	<ele>2245.00</ele>
	<time>2021-08-31T07:52:38.000Z</time>
</trkpt>
<trkpt lat="46.3169350" lon="9.9698960">
	<ele>2246.00</ele>
	<time>2021-08-31T07:52:44.000Z</time>
</trkpt>
<trkpt lat="46.3169240" lon="9.9699220">
	<ele>2247.20</ele>
	<time>2021-08-31T07:52:48.000Z</time>
</trkpt>
<trkpt lat="46.3169130" lon="9.9699640">
	<ele>2247.80</ele>
	<time>2021-08-31T07:52:53.000Z</time>
</trkpt>
<trkpt lat="46.3168930" lon="9.9699870">
	<ele>2248.20</ele>
	<time>2021-08-31T07:52:56.000Z</time>
</trkpt>
<trkpt lat="46.3168720" lon="9.9700030">
	<ele>2248.60</ele>
	<time>2021-08-31T07:52:59.000Z</time>
</trkpt>
<trkpt lat="46.3168030" lon="9.9699980">
	<ele>2249.00</ele>
	<time>2021-08-31T07:53:06.000Z</time>
</trkpt>
<trkpt lat="46.3166990" lon="9.9699850">
	<ele>2248.40</ele>
	<time>2021-08-31T07:53:14.000Z</time>
</trkpt>
<trkpt lat="46.3166530" lon="9.9700630">
	<ele>2249.00</ele>
	<time>2021-08-31T07:53:21.000Z</time>
</trkpt>
<trkpt lat="46.3166610" lon="9.9700880">
	<ele>2249.40</ele>
	<time>2021-08-31T07:53:23.000Z</time>
</trkpt>
<trkpt lat="46.3166610" lon="9.9701160">
	<ele>2249.60</ele>
	<time>2021-08-31T07:53:25.000Z</time>
</trkpt>
<trkpt lat="46.3166560" lon="9.9701380">
	<ele>2249.60</ele>
	<time>2021-08-31T07:53:27.000Z</time>
</trkpt>
<trkpt lat="46.3166240" lon="9.9701530">
	<ele>2250.60</ele>
	<time>2021-08-31T07:53:31.000Z</time>
</trkpt>
<trkpt lat="46.3165970" lon="9.9701510">
	<ele>2251.20</ele>
	<time>2021-08-31T07:53:34.000Z</time>
</trkpt>
<trkpt lat="46.3165740" lon="9.9701540">
	<ele>2251.80</ele>
	<time>2021-08-31T07:53:37.000Z</time>
</trkpt>
<trkpt lat="46.3165500" lon="9.9701980">
	<ele>2252.40</ele>
	<time>2021-08-31T07:53:43.000Z</time>
</trkpt>
<trkpt lat="46.3165580" lon="9.9702340">
	<ele>2252.80</ele>
	<time>2021-08-31T07:53:46.000Z</time>
</trkpt>
<trkpt lat="46.3165600" lon="9.9702590">
	<ele>2253.20</ele>
	<time>2021-08-31T07:53:49.000Z</time>
</trkpt>
<trkpt lat="46.3165700" lon="9.9702650">
	<ele>2253.20</ele>
	<time>2021-08-31T07:53:51.000Z</time>
</trkpt>
<trkpt lat="46.3165650" lon="9.9702840">
	<ele>2254.00</ele>
	<time>2021-08-31T07:53:55.000Z</time>
</trkpt>
<trkpt lat="46.3165220" lon="9.9702960">
	<ele>2255.00</ele>
	<time>2021-08-31T07:54:02.000Z</time>
</trkpt>
<trkpt lat="46.3164740" lon="9.9703250">
	<ele>2256.20</ele>
	<time>2021-08-31T07:54:09.000Z</time>
</trkpt>
<trkpt lat="46.3164490" lon="9.9703320">
	<ele>2256.60</ele>
	<time>2021-08-31T07:54:12.000Z</time>
</trkpt>
<trkpt lat="46.3164160" lon="9.9703420">
	<ele>2257.20</ele>
	<time>2021-08-31T07:54:17.000Z</time>
</trkpt>
<trkpt lat="46.3163860" lon="9.9703530">
	<ele>2258.00</ele>
	<time>2021-08-31T07:54:22.000Z</time>
</trkpt>
<trkpt lat="46.3163810" lon="9.9703580">
	<ele>2258.40</ele>
	<time>2021-08-31T07:54:23.000Z</time>
</trkpt>
<trkpt lat="46.3163810" lon="9.9703810">
	<ele>2259.20</ele>
	<time>2021-08-31T07:54:29.000Z</time>
</trkpt>
<trkpt lat="46.3163930" lon="9.9703760">
	<ele>2259.40</ele>
	<time>2021-08-31T07:54:36.000Z</time>
</trkpt>
<trkpt lat="46.3163890" lon="9.9703770">
	<ele>2259.60</ele>
	<time>2021-08-31T07:54:38.000Z</time>
</trkpt>
<trkpt lat="46.3163890" lon="9.9703770">
	<ele>2259.60</ele>
	<time>2021-08-31T07:54:43.000Z</time>
</trkpt>
<trkpt lat="46.3163890" lon="9.9703770">
	<ele>2259.20</ele>
	<time>2021-08-31T07:54:50.000Z</time>
</trkpt>
<trkpt lat="46.3163300" lon="9.9703690">
	<ele>2260.40</ele>
	<time>2021-08-31T07:54:57.000Z</time>
</trkpt>
<trkpt lat="46.3161950" lon="9.9703710">
	<ele>2261.40</ele>
	<time>2021-08-31T07:55:06.000Z</time>
</trkpt>
<trkpt lat="46.3161850" lon="9.9703750">
	<ele>2261.40</ele>
	<time>2021-08-31T07:55:07.000Z</time>
</trkpt>
<trkpt lat="46.3161660" lon="9.9703810">
	<ele>2261.60</ele>
	<time>2021-08-31T07:55:09.000Z</time>
</trkpt>
<trkpt lat="46.3161170" lon="9.9703570">
	<ele>2262.20</ele>
	<time>2021-08-31T07:55:14.000Z</time>
</trkpt>
<trkpt lat="46.3160770" lon="9.9703630">
	<ele>2262.60</ele>
	<time>2021-08-31T07:55:18.000Z</time>
</trkpt>
<trkpt lat="46.3160200" lon="9.9703850">
	<ele>2263.40</ele>
	<time>2021-08-31T07:55:24.000Z</time>
</trkpt>
<trkpt lat="46.3160060" lon="9.9703840">
	<ele>2263.60</ele>
	<time>2021-08-31T07:55:26.000Z</time>
</trkpt>
<trkpt lat="46.3159700" lon="9.9703840">
	<ele>2264.60</ele>
	<time>2021-08-31T07:55:31.000Z</time>
</trkpt>
<trkpt lat="46.3159650" lon="9.9703830">
	<ele>2264.80</ele>
	<time>2021-08-31T07:55:32.000Z</time>
</trkpt>
<trkpt lat="46.3159160" lon="9.9703820">
	<ele>2266.00</ele>
	<time>2021-08-31T07:55:40.000Z</time>
</trkpt>
<trkpt lat="46.3158650" lon="9.9703950">
	<ele>2267.20</ele>
	<time>2021-08-31T07:55:48.000Z</time>
</trkpt>
<trkpt lat="46.3158580" lon="9.9703960">
	<ele>2267.40</ele>
	<time>2021-08-31T07:55:49.000Z</time>
</trkpt>
<trkpt lat="46.3158230" lon="9.9703950">
	<ele>2268.40</ele>
	<time>2021-08-31T07:55:54.000Z</time>
</trkpt>
<trkpt lat="46.3157980" lon="9.9703850">
	<ele>2269.00</ele>
	<time>2021-08-31T07:55:58.000Z</time>
</trkpt>
<trkpt lat="46.3157900" lon="9.9703730">
	<ele>2269.60</ele>
	<time>2021-08-31T07:56:00.000Z</time>
</trkpt>
<trkpt lat="46.3157840" lon="9.9703680">
	<ele>2269.80</ele>
	<time>2021-08-31T07:56:01.000Z</time>
</trkpt>
<trkpt lat="46.3157710" lon="9.9703560">
	<ele>2270.60</ele>
	<time>2021-08-31T07:56:05.000Z</time>
</trkpt>
<trkpt lat="46.3157510" lon="9.9703430">
	<ele>2271.80</ele>
	<time>2021-08-31T07:56:10.000Z</time>
</trkpt>
<trkpt lat="46.3157460" lon="9.9703340">
	<ele>2272.00</ele>
	<time>2021-08-31T07:56:11.000Z</time>
</trkpt>
<trkpt lat="46.3157120" lon="9.9703030">
	<ele>2272.80</ele>
	<time>2021-08-31T07:56:17.000Z</time>
</trkpt>
<trkpt lat="46.3156780" lon="9.9702870">
	<ele>2273.40</ele>
	<time>2021-08-31T07:56:22.000Z</time>
</trkpt>
<trkpt lat="46.3156540" lon="9.9702700">
	<ele>2273.60</ele>
	<time>2021-08-31T07:56:29.000Z</time>
</trkpt>
<trkpt lat="46.3156640" lon="9.9702660">
	<ele>2273.60</ele>
	<time>2021-08-31T07:56:36.000Z</time>
</trkpt>
<trkpt lat="46.3156640" lon="9.9702660">
	<ele>2273.80</ele>
	<time>2021-08-31T07:56:39.000Z</time>
</trkpt>
<trkpt lat="46.3156640" lon="9.9702660">
	<ele>2274.00</ele>
	<time>2021-08-31T07:56:44.000Z</time>
</trkpt>
<trkpt lat="46.3156620" lon="9.9702740">
	<ele>2274.20</ele>
	<time>2021-08-31T07:56:52.000Z</time>
</trkpt>
<trkpt lat="46.3156610" lon="9.9702750">
	<ele>2274.00</ele>
	<time>2021-08-31T07:56:56.000Z</time>
</trkpt>
<trkpt lat="46.3156600" lon="9.9702780">
	<ele>2274.00</ele>
	<time>2021-08-31T07:57:01.000Z</time>
</trkpt>
<trkpt lat="46.3156600" lon="9.9702800">
	<ele>2274.00</ele>
	<time>2021-08-31T07:57:03.000Z</time>
</trkpt>
<trkpt lat="46.3156590" lon="9.9702810">
	<ele>2274.00</ele>
	<time>2021-08-31T07:57:05.000Z</time>
</trkpt>
<trkpt lat="46.3156550" lon="9.9702830">
	<ele>2274.00</ele>
	<time>2021-08-31T07:57:09.000Z</time>
</trkpt>
<trkpt lat="46.3156530" lon="9.9702830">
	<ele>2274.40</ele>
	<time>2021-08-31T07:57:12.000Z</time>
</trkpt>
<trkpt lat="46.3156470" lon="9.9702810">
	<ele>2274.80</ele>
	<time>2021-08-31T07:57:15.000Z</time>
</trkpt>
<trkpt lat="46.3156240" lon="9.9702930">
	<ele>2275.00</ele>
	<time>2021-08-31T07:57:17.000Z</time>
</trkpt>
<trkpt lat="46.3156030" lon="9.9703400">
	<ele>2275.60</ele>
	<time>2021-08-31T07:57:20.000Z</time>
</trkpt>
<trkpt lat="46.3155960" lon="9.9703830">
	<ele>2276.20</ele>
	<time>2021-08-31T07:57:23.000Z</time>
</trkpt>
<trkpt lat="46.3155980" lon="9.9704120">
	<ele>2276.20</ele>
	<time>2021-08-31T07:57:25.000Z</time>
</trkpt>
<trkpt lat="46.3156120" lon="9.9704550">
	<ele>2276.60</ele>
	<time>2021-08-31T07:57:29.000Z</time>
</trkpt>
<trkpt lat="46.3156060" lon="9.9704740">
	<ele>2277.20</ele>
	<time>2021-08-31T07:57:31.000Z</time>
</trkpt>
<trkpt lat="46.3155760" lon="9.9704940">
	<ele>2278.20</ele>
	<time>2021-08-31T07:57:36.000Z</time>
</trkpt>
<trkpt lat="46.3155500" lon="9.9705320">
	<ele>2278.80</ele>
	<time>2021-08-31T07:57:40.000Z</time>
</trkpt>
<trkpt lat="46.3155350" lon="9.9705490">
	<ele>2279.40</ele>
	<time>2021-08-31T07:57:43.000Z</time>
</trkpt>
<trkpt lat="46.3155310" lon="9.9705450">
	<ele>2279.40</ele>
	<time>2021-08-31T07:57:44.000Z</time>
</trkpt>
<trkpt lat="46.3155250" lon="9.9705470">
	<ele>2279.60</ele>
	<time>2021-08-31T07:57:45.000Z</time>
</trkpt>
<trkpt lat="46.3154930" lon="9.9705970">
	<ele>2280.40</ele>
	<time>2021-08-31T07:57:50.000Z</time>
</trkpt>
<trkpt lat="46.3154650" lon="9.9706140">
	<ele>2280.80</ele>
	<time>2021-08-31T07:57:53.000Z</time>
</trkpt>
<trkpt lat="46.3154240" lon="9.9706450">
	<ele>2281.60</ele>
	<time>2021-08-31T07:57:58.000Z</time>
</trkpt>
<trkpt lat="46.3153530" lon="9.9706820">
	<ele>2282.40</ele>
	<time>2021-08-31T07:58:05.000Z</time>
</trkpt>
<trkpt lat="46.3153320" lon="9.9706950">
	<ele>2282.60</ele>
	<time>2021-08-31T07:58:07.000Z</time>
</trkpt>
<trkpt lat="46.3153100" lon="9.9707140">
	<ele>2282.60</ele>
	<time>2021-08-31T07:58:10.000Z</time>
</trkpt>
<trkpt lat="46.3152650" lon="9.9707310">
	<ele>2282.80</ele>
	<time>2021-08-31T07:58:13.000Z</time>
</trkpt>
<trkpt lat="46.3151500" lon="9.9708240">
	<ele>2282.60</ele>
	<time>2021-08-31T07:58:23.000Z</time>
</trkpt>
<trkpt lat="46.3151040" lon="9.9708590">
	<ele>2283.60</ele>
	<time>2021-08-31T07:58:29.000Z</time>
</trkpt>
<trkpt lat="46.3150880" lon="9.9708630">
	<ele>2284.00</ele>
	<time>2021-08-31T07:58:31.000Z</time>
</trkpt>
<trkpt lat="46.3150800" lon="9.9708610">
	<ele>2284.00</ele>
	<time>2021-08-31T07:58:32.000Z</time>
</trkpt>
<trkpt lat="46.3150560" lon="9.9708580">
	<ele>2284.60</ele>
	<time>2021-08-31T07:58:35.000Z</time>
</trkpt>
<trkpt lat="46.3150030" lon="9.9708740">
	<ele>2285.60</ele>
	<time>2021-08-31T07:58:40.000Z</time>
</trkpt>
<trkpt lat="46.3149880" lon="9.9708880">
	<ele>2285.80</ele>
	<time>2021-08-31T07:58:42.000Z</time>
</trkpt>
<trkpt lat="46.3149370" lon="9.9709220">
	<ele>2286.80</ele>
	<time>2021-08-31T07:58:48.000Z</time>
</trkpt>
<trkpt lat="46.3148810" lon="9.9709590">
	<ele>2287.60</ele>
	<time>2021-08-31T07:58:54.000Z</time>
</trkpt>
<trkpt lat="46.3148500" lon="9.9709910">
	<ele>2288.00</ele>
	<time>2021-08-31T07:58:58.000Z</time>
</trkpt>
<trkpt lat="46.3148430" lon="9.9709960">
	<ele>2288.20</ele>
	<time>2021-08-31T07:58:59.000Z</time>
</trkpt>
<trkpt lat="46.3148250" lon="9.9710220">
	<ele>2288.40</ele>
	<time>2021-08-31T07:59:03.000Z</time>
</trkpt>
<trkpt lat="46.3148280" lon="9.9710220">
	<ele>2288.80</ele>
	<time>2021-08-31T07:59:04.000Z</time>
</trkpt>
<trkpt lat="46.3148270" lon="9.9710230">
	<ele>2288.80</ele>
	<time>2021-08-31T07:59:05.000Z</time>
</trkpt>
<trkpt lat="46.3148150" lon="9.9710180">
	<ele>2288.40</ele>
	<time>2021-08-31T07:59:12.000Z</time>
</trkpt>
<trkpt lat="46.3148080" lon="9.9710170">
	<ele>2288.20</ele>
	<time>2021-08-31T07:59:19.000Z</time>
</trkpt>
<trkpt lat="46.3148130" lon="9.9710220">
	<ele>2288.20</ele>
	<time>2021-08-31T07:59:33.000Z</time>
</trkpt>
<trkpt lat="46.3148130" lon="9.9710220">
	<ele>2288.20</ele>
	<time>2021-08-31T07:59:34.000Z</time>
</trkpt>
<trkpt lat="46.3148130" lon="9.9710220">
	<ele>2288.20</ele>
	<time>2021-08-31T07:59:38.000Z</time>
</trkpt>
<trkpt lat="46.3148130" lon="9.9710300">
	<ele>2288.20</ele>
	<time>2021-08-31T07:59:43.000Z</time>
</trkpt>
<trkpt lat="46.3148120" lon="9.9710340">
	<ele>2288.20</ele>
	<time>2021-08-31T07:59:47.000Z</time>
</trkpt>
<trkpt lat="46.3148120" lon="9.9710390">
	<ele>2288.60</ele>
	<time>2021-08-31T07:59:51.000Z</time>
</trkpt>
<trkpt lat="46.3148060" lon="9.9710500">
	<ele>2288.40</ele>
	<time>2021-08-31T08:00:04.000Z</time>
</trkpt>
<trkpt lat="46.3148060" lon="9.9710550">
	<ele>2288.40</ele>
	<time>2021-08-31T08:00:07.000Z</time>
</trkpt>
<trkpt lat="46.3148060" lon="9.9710620">
	<ele>2288.40</ele>
	<time>2021-08-31T08:00:09.000Z</time>
</trkpt>
<trkpt lat="46.3148110" lon="9.9710710">
	<ele>2288.40</ele>
	<time>2021-08-31T08:00:11.000Z</time>
</trkpt>
<trkpt lat="46.3148210" lon="9.9710720">
	<ele>2288.40</ele>
	<time>2021-08-31T08:00:13.000Z</time>
</trkpt>
<trkpt lat="46.3148630" lon="9.9710680">
	<ele>2289.00</ele>
	<time>2021-08-31T08:00:32.000Z</time>
</trkpt>
<trkpt lat="46.3148640" lon="9.9710590">
	<ele>2289.60</ele>
	<time>2021-08-31T08:00:42.000Z</time>
</trkpt>
<trkpt lat="46.3148460" lon="9.9710380">
	<ele>2288.20</ele>
	<time>2021-08-31T08:00:54.000Z</time>
</trkpt>
<trkpt lat="46.3148420" lon="9.9710380">
	<ele>2288.00</ele>
	<time>2021-08-31T08:00:56.000Z</time>
</trkpt>
<trkpt lat="46.3148400" lon="9.9710380">
	<ele>2287.80</ele>
	<time>2021-08-31T08:00:59.000Z</time>
</trkpt>
<trkpt lat="46.3148270" lon="9.9710390">
	<ele>2288.20</ele>
	<time>2021-08-31T08:01:11.000Z</time>
</trkpt>
<trkpt lat="46.3148190" lon="9.9710470">
	<ele>2288.60</ele>
	<time>2021-08-31T08:01:34.000Z</time>
</trkpt>
<trkpt lat="46.3148190" lon="9.9710470">
	<ele>2288.80</ele>
	<time>2021-08-31T08:01:36.000Z</time>
</trkpt>
<trkpt lat="46.3148260" lon="9.9710460">
	<ele>2289.00</ele>
	<time>2021-08-31T08:01:51.000Z</time>
</trkpt>
<trkpt lat="46.3148280" lon="9.9710470">
	<ele>2288.60</ele>
	<time>2021-08-31T08:01:57.000Z</time>
</trkpt>
<trkpt lat="46.3148290" lon="9.9710480">
	<ele>2288.60</ele>
	<time>2021-08-31T08:02:00.000Z</time>
</trkpt>
<trkpt lat="46.3148310" lon="9.9710490">
	<ele>2288.80</ele>
	<time>2021-08-31T08:02:07.000Z</time>
</trkpt>
<trkpt lat="46.3148320" lon="9.9710490">
	<ele>2288.80</ele>
	<time>2021-08-31T08:02:14.000Z</time>
</trkpt>
<trkpt lat="46.3148350" lon="9.9710480">
	<ele>2288.80</ele>
	<time>2021-08-31T08:02:20.000Z</time>
</trkpt>
<trkpt lat="46.3148370" lon="9.9710460">
	<ele>2288.80</ele>
	<time>2021-08-31T08:02:28.000Z</time>
</trkpt>
<trkpt lat="46.3148380" lon="9.9710440">
	<ele>2288.40</ele>
	<time>2021-08-31T08:02:37.000Z</time>
</trkpt>
<trkpt lat="46.3148390" lon="9.9710440">
	<ele>2288.60</ele>
	<time>2021-08-31T08:02:52.000Z</time>
</trkpt>
<trkpt lat="46.3148390" lon="9.9710440">
	<ele>2288.60</ele>
	<time>2021-08-31T08:02:53.000Z</time>
</trkpt>
<trkpt lat="46.3148390" lon="9.9710440">
	<ele>2288.60</ele>
	<time>2021-08-31T08:02:54.000Z</time>
</trkpt>
<trkpt lat="46.3148390" lon="9.9710440">
	<ele>2288.60</ele>
	<time>2021-08-31T08:02:57.000Z</time>
</trkpt>
<trkpt lat="46.3148390" lon="9.9710430">
	<ele>2288.80</ele>
	<time>2021-08-31T08:03:17.000Z</time>
</trkpt>
<trkpt lat="46.3148390" lon="9.9710430">
	<ele>2288.20</ele>
	<time>2021-08-31T08:03:25.000Z</time>
</trkpt>
<trkpt lat="46.3148390" lon="9.9710440">
	<ele>2288.20</ele>
	<time>2021-08-31T08:03:35.000Z</time>
</trkpt>
<trkpt lat="46.3148390" lon="9.9710440">
	<ele>2288.20</ele>
	<time>2021-08-31T08:03:39.000Z</time>
</trkpt>
<trkpt lat="46.3148380" lon="9.9710430">
	<ele>2288.20</ele>
	<time>2021-08-31T08:04:31.000Z</time>
</trkpt>
<trkpt lat="46.3148380" lon="9.9710430">
	<ele>2288.20</ele>
	<time>2021-08-31T08:04:42.000Z</time>
</trkpt>
<trkpt lat="46.3148370" lon="9.9710420">
	<ele>2288.20</ele>
	<time>2021-08-31T08:04:57.000Z</time>
</trkpt>
<trkpt lat="46.3148370" lon="9.9710420">
	<ele>2288.20</ele>
	<time>2021-08-31T08:05:01.000Z</time>
</trkpt>
<trkpt lat="46.3148370" lon="9.9710420">
	<ele>2288.20</ele>
	<time>2021-08-31T08:05:03.000Z</time>
</trkpt>
<trkpt lat="46.3148370" lon="9.9710420">
	<ele>2288.20</ele>
	<time>2021-08-31T08:05:09.000Z</time>
</trkpt>
<trkpt lat="46.3148370" lon="9.9710420">
	<ele>2288.20</ele>
	<time>2021-08-31T08:05:11.000Z</time>
</trkpt>
<trkpt lat="46.3148370" lon="9.9710420">
	<ele>2288.20</ele>
	<time>2021-08-31T08:05:13.000Z</time>
</trkpt>
<trkpt lat="46.3148370" lon="9.9710420">
	<ele>2288.20</ele>
	<time>2021-08-31T08:05:18.000Z</time>
</trkpt>
<trkpt lat="46.3148360" lon="9.9710410">
	<ele>2288.20</ele>
	<time>2021-08-31T08:05:23.000Z</time>
</trkpt>
<trkpt lat="46.3148360" lon="9.9710410">
	<ele>2288.20</ele>
	<time>2021-08-31T08:05:26.000Z</time>
</trkpt>
<trkpt lat="46.3148360" lon="9.9710400">
	<ele>2288.20</ele>
	<time>2021-08-31T08:05:34.000Z</time>
</trkpt>
<trkpt lat="46.3148360" lon="9.9710400">
	<ele>2288.20</ele>
	<time>2021-08-31T08:05:41.000Z</time>
</trkpt>
<trkpt lat="46.3148360" lon="9.9710390">
	<ele>2288.20</ele>
	<time>2021-08-31T08:05:45.000Z</time>
</trkpt>
<trkpt lat="46.3148350" lon="9.9710390">
	<ele>2288.20</ele>
	<time>2021-08-31T08:06:01.000Z</time>
</trkpt>
<trkpt lat="46.3148350" lon="9.9710380">
	<ele>2288.20</ele>
	<time>2021-08-31T08:06:10.000Z</time>
</trkpt>
<trkpt lat="46.3148340" lon="9.9710370">
	<ele>2288.20</ele>
	<time>2021-08-31T08:06:32.000Z</time>
</trkpt>
<trkpt lat="46.3148330" lon="9.9710350">
	<ele>2288.20</ele>
	<time>2021-08-31T08:06:50.000Z</time>
</trkpt>
<trkpt lat="46.3148330" lon="9.9710340">
	<ele>2288.20</ele>
	<time>2021-08-31T08:07:28.000Z</time>
</trkpt>
<trkpt lat="46.3148330" lon="9.9710340">
	<ele>2288.20</ele>
	<time>2021-08-31T08:07:35.000Z</time>
</trkpt>
<trkpt lat="46.3148330" lon="9.9710340">
	<ele>2288.20</ele>
	<time>2021-08-31T08:07:40.000Z</time>
</trkpt>
<trkpt lat="46.3148330" lon="9.9710340">
	<ele>2288.20</ele>
	<time>2021-08-31T08:07:43.000Z</time>
</trkpt>
<trkpt lat="46.3148330" lon="9.9710330">
	<ele>2288.20</ele>
	<time>2021-08-31T08:07:49.000Z</time>
</trkpt>
<trkpt lat="46.3148330" lon="9.9710320">
	<ele>2288.20</ele>
	<time>2021-08-31T08:08:03.000Z</time>
</trkpt>
<trkpt lat="46.3148330" lon="9.9710320">
	<ele>2288.20</ele>
	<time>2021-08-31T08:08:11.000Z</time>
</trkpt>
<trkpt lat="46.3148330" lon="9.9710310">
	<ele>2288.20</ele>
	<time>2021-08-31T08:08:21.000Z</time>
</trkpt>
<trkpt lat="46.3148320" lon="9.9710310">
	<ele>2288.20</ele>
	<time>2021-08-31T08:08:29.000Z</time>
</trkpt>
<trkpt lat="46.3148320" lon="9.9710310">
	<ele>2288.20</ele>
	<time>2021-08-31T08:08:30.000Z</time>
</trkpt>
<trkpt lat="46.3148130" lon="9.9711380">
	<ele>2288.20</ele>
	<time>2021-08-31T08:08:46.000Z</time>
</trkpt>
<trkpt lat="46.3147730" lon="9.9712310">
	<ele>2288.20</ele>
	<time>2021-08-31T08:08:52.000Z</time>
</trkpt>
<trkpt lat="46.3147470" lon="9.9713360">
	<ele>2288.20</ele>
	<time>2021-08-31T08:08:58.000Z</time>
</trkpt>
<trkpt lat="46.3147240" lon="9.9714370">
	<ele>2289.80</ele>
	<time>2021-08-31T08:09:05.000Z</time>
</trkpt>
<trkpt lat="46.3147230" lon="9.9714470">
	<ele>2290.20</ele>
	<time>2021-08-31T08:09:06.000Z</time>
</trkpt>
<trkpt lat="46.3147160" lon="9.9714730">
	<ele>2290.60</ele>
	<time>2021-08-31T08:09:09.000Z</time>
</trkpt>
<trkpt lat="46.3147040" lon="9.9714950">
	<ele>2290.80</ele>
	<time>2021-08-31T08:09:11.000Z</time>
</trkpt>
<trkpt lat="46.3146880" lon="9.9715110">
	<ele>2290.80</ele>
	<time>2021-08-31T08:09:13.000Z</time>
</trkpt>
<trkpt lat="46.3146430" lon="9.9715660">
	<ele>2291.20</ele>
	<time>2021-08-31T08:09:20.000Z</time>
</trkpt>
<trkpt lat="46.3146370" lon="9.9715950">
	<ele>2291.20</ele>
	<time>2021-08-31T08:09:22.000Z</time>
</trkpt>
<trkpt lat="46.3146380" lon="9.9716060">
	<ele>2291.20</ele>
	<time>2021-08-31T08:09:23.000Z</time>
</trkpt>
<trkpt lat="46.3146040" lon="9.9717360">
	<ele>2291.80</ele>
	<time>2021-08-31T08:09:33.000Z</time>
</trkpt>
<trkpt lat="46.3146000" lon="9.9717670">
	<ele>2291.60</ele>
	<time>2021-08-31T08:09:35.000Z</time>
</trkpt>
<trkpt lat="46.3145970" lon="9.9718000">
	<ele>2291.40</ele>
	<time>2021-08-31T08:09:37.000Z</time>
</trkpt>
<trkpt lat="46.3145970" lon="9.9718280">
	<ele>2291.20</ele>
	<time>2021-08-31T08:09:39.000Z</time>
</trkpt>
<trkpt lat="46.3145880" lon="9.9718700">
	<ele>2291.20</ele>
	<time>2021-08-31T08:09:43.000Z</time>
</trkpt>
<trkpt lat="46.3145380" lon="9.9719160">
	<ele>2291.00</ele>
	<time>2021-08-31T08:09:50.000Z</time>
</trkpt>
<trkpt lat="46.3145170" lon="9.9719190">
	<ele>2291.00</ele>
	<time>2021-08-31T08:09:52.000Z</time>
</trkpt>
<trkpt lat="46.3144810" lon="9.9719460">
	<ele>2290.80</ele>
	<time>2021-08-31T08:09:55.000Z</time>
</trkpt>
<trkpt lat="46.3144200" lon="9.9720290">
	<ele>2291.80</ele>
	<time>2021-08-31T08:10:03.000Z</time>
</trkpt>
<trkpt lat="46.3143860" lon="9.9721100">
	<ele>2292.00</ele>
	<time>2021-08-31T08:10:09.000Z</time>
</trkpt>
<trkpt lat="46.3143640" lon="9.9722100">
	<ele>2291.20</ele>
	<time>2021-08-31T08:10:16.000Z</time>
</trkpt>
<trkpt lat="46.3143230" lon="9.9722450">
	<ele>2291.00</ele>
	<time>2021-08-31T08:10:21.000Z</time>
</trkpt>
<trkpt lat="46.3142980" lon="9.9722450">
	<ele>2291.00</ele>
	<time>2021-08-31T08:10:23.000Z</time>
</trkpt>
<trkpt lat="46.3142560" lon="9.9722490">
	<ele>2290.80</ele>
	<time>2021-08-31T08:10:27.000Z</time>
</trkpt>
<trkpt lat="46.3142150" lon="9.9722480">
	<ele>2290.80</ele>
	<time>2021-08-31T08:10:31.000Z</time>
</trkpt>
<trkpt lat="46.3141530" lon="9.9723280">
	<ele>2292.20</ele>
	<time>2021-08-31T08:10:39.000Z</time>
</trkpt>
<trkpt lat="46.3141470" lon="9.9723400">
	<ele>2292.40</ele>
	<time>2021-08-31T08:10:40.000Z</time>
</trkpt>
<trkpt lat="46.3141460" lon="9.9724850">
	<ele>2292.40</ele>
	<time>2021-08-31T08:10:48.000Z</time>
</trkpt>
<trkpt lat="46.3141440" lon="9.9726680">
	<ele>2292.60</ele>
	<time>2021-08-31T08:10:59.000Z</time>
</trkpt>
<trkpt lat="46.3141410" lon="9.9727240">
	<ele>2292.40</ele>
	<time>2021-08-31T08:11:02.000Z</time>
</trkpt>
<trkpt lat="46.3141380" lon="9.9727540">
	<ele>2292.60</ele>
	<time>2021-08-31T08:11:04.000Z</time>
</trkpt>
<trkpt lat="46.3141190" lon="9.9728120">
	<ele>2292.60</ele>
	<time>2021-08-31T08:11:08.000Z</time>
</trkpt>
<trkpt lat="46.3141140" lon="9.9729970">
	<ele>2292.20</ele>
	<time>2021-08-31T08:11:18.000Z</time>
</trkpt>
<trkpt lat="46.3141140" lon="9.9730480">
	<ele>2292.20</ele>
	<time>2021-08-31T08:11:21.000Z</time>
</trkpt>
<trkpt lat="46.3141240" lon="9.9731140">
	<ele>2292.20</ele>
	<time>2021-08-31T08:11:25.000Z</time>
</trkpt>
<trkpt lat="46.3141330" lon="9.9733060">
	<ele>2292.80</ele>
	<time>2021-08-31T08:11:37.000Z</time>
</trkpt>
<trkpt lat="46.3141360" lon="9.9734230">
	<ele>2292.80</ele>
	<time>2021-08-31T08:11:44.000Z</time>
</trkpt>
<trkpt lat="46.3141310" lon="9.9735050">
	<ele>2293.20</ele>
	<time>2021-08-31T08:11:51.000Z</time>
</trkpt>
<trkpt lat="46.3141310" lon="9.9735050">
	<ele>2293.20</ele>
	<time>2021-08-31T08:11:52.000Z</time>
</trkpt>
<trkpt lat="46.3141300" lon="9.9735080">
	<ele>2293.20</ele>
	<time>2021-08-31T08:11:53.000Z</time>
</trkpt>
<trkpt lat="46.3141130" lon="9.9735280">
	<ele>2293.00</ele>
	<time>2021-08-31T08:12:03.000Z</time>
</trkpt>
<trkpt lat="46.3140930" lon="9.9736300">
	<ele>2294.00</ele>
	<time>2021-08-31T08:12:11.000Z</time>
</trkpt>
<trkpt lat="46.3140870" lon="9.9736820">
	<ele>2294.40</ele>
	<time>2021-08-31T08:12:14.000Z</time>
</trkpt>
<trkpt lat="46.3140830" lon="9.9737530">
	<ele>2294.60</ele>
	<time>2021-08-31T08:12:19.000Z</time>
</trkpt>
<trkpt lat="46.3140840" lon="9.9737680">
	<ele>2294.60</ele>
	<time>2021-08-31T08:12:20.000Z</time>
</trkpt>
<trkpt lat="46.3141100" lon="9.9739160">
	<ele>2295.20</ele>
	<time>2021-08-31T08:12:31.000Z</time>
</trkpt>
<trkpt lat="46.3140910" lon="9.9740120">
	<ele>2295.40</ele>
	<time>2021-08-31T08:12:38.000Z</time>
</trkpt>
<trkpt lat="46.3140960" lon="9.9740280">
	<ele>2295.40</ele>
	<time>2021-08-31T08:12:39.000Z</time>
</trkpt>
<trkpt lat="46.3141160" lon="9.9740730">
	<ele>2295.40</ele>
	<time>2021-08-31T08:12:43.000Z</time>
</trkpt>
<trkpt lat="46.3141250" lon="9.9741120">
	<ele>2295.40</ele>
	<time>2021-08-31T08:12:46.000Z</time>
</trkpt>
<trkpt lat="46.3141280" lon="9.9741230">
	<ele>2295.60</ele>
	<time>2021-08-31T08:12:47.000Z</time>
</trkpt>
<trkpt lat="46.3141330" lon="9.9741480">
	<ele>2296.00</ele>
	<time>2021-08-31T08:12:50.000Z</time>
</trkpt>
<trkpt lat="46.3141270" lon="9.9741990">
	<ele>2296.20</ele>
	<time>2021-08-31T08:12:54.000Z</time>
</trkpt>
<trkpt lat="46.3141270" lon="9.9742660">
	<ele>2296.40</ele>
	<time>2021-08-31T08:12:59.000Z</time>
</trkpt>
<trkpt lat="46.3141260" lon="9.9742800">
	<ele>2296.60</ele>
	<time>2021-08-31T08:13:00.000Z</time>
</trkpt>
<trkpt lat="46.3141300" lon="9.9743020">
	<ele>2296.80</ele>
	<time>2021-08-31T08:13:02.000Z</time>
</trkpt>
<trkpt lat="46.3141440" lon="9.9743180">
	<ele>2297.20</ele>
	<time>2021-08-31T08:13:06.000Z</time>
</trkpt>
<trkpt lat="46.3141430" lon="9.9743290">
	<ele>2297.40</ele>
	<time>2021-08-31T08:13:07.000Z</time>
</trkpt>
<trkpt lat="46.3141370" lon="9.9743640">
	<ele>2298.00</ele>
	<time>2021-08-31T08:13:10.000Z</time>
</trkpt>
<trkpt lat="46.3141380" lon="9.9744010">
	<ele>2298.00</ele>
	<time>2021-08-31T08:13:13.000Z</time>
</trkpt>
<trkpt lat="46.3141180" lon="9.9744340">
	<ele>2298.00</ele>
	<time>2021-08-31T08:13:17.000Z</time>
</trkpt>
<trkpt lat="46.3141050" lon="9.9744640">
	<ele>2298.60</ele>
	<time>2021-08-31T08:13:21.000Z</time>
</trkpt>
<trkpt lat="46.3141090" lon="9.9745100">
	<ele>2299.40</ele>
	<time>2021-08-31T08:13:25.000Z</time>
</trkpt>
<trkpt lat="46.3141160" lon="9.9745360">
	<ele>2299.80</ele>
	<time>2021-08-31T08:13:27.000Z</time>
</trkpt>
<trkpt lat="46.3141070" lon="9.9745810">
	<ele>2300.00</ele>
	<time>2021-08-31T08:13:31.000Z</time>
</trkpt>
<trkpt lat="46.3141060" lon="9.9745970">
	<ele>2300.20</ele>
	<time>2021-08-31T08:13:32.000Z</time>
</trkpt>
<trkpt lat="46.3141110" lon="9.9746410">
	<ele>2300.40</ele>
	<time>2021-08-31T08:13:35.000Z</time>
</trkpt>
<trkpt lat="46.3141200" lon="9.9746960">
	<ele>2301.00</ele>
	<time>2021-08-31T08:13:39.000Z</time>
</trkpt>
<trkpt lat="46.3141140" lon="9.9747300">
	<ele>2301.20</ele>
	<time>2021-08-31T08:13:42.000Z</time>
</trkpt>
<trkpt lat="46.3140990" lon="9.9747670">
	<ele>2301.20</ele>
	<time>2021-08-31T08:13:46.000Z</time>
</trkpt>
<trkpt lat="46.3140740" lon="9.9747730">
	<ele>2301.20</ele>
	<time>2021-08-31T08:13:48.000Z</time>
</trkpt>
<trkpt lat="46.3140360" lon="9.9747700">
	<ele>2301.20</ele>
	<time>2021-08-31T08:13:51.000Z</time>
</trkpt>
<trkpt lat="46.3140270" lon="9.9747790">
	<ele>2301.20</ele>
	<time>2021-08-31T08:13:52.000Z</time>
</trkpt>
<trkpt lat="46.3139800" lon="9.9748910">
	<ele>2301.40</ele>
	<time>2021-08-31T08:13:59.000Z</time>
</trkpt>
<trkpt lat="46.3139720" lon="9.9749850">
	<ele>2302.00</ele>
	<time>2021-08-31T08:14:05.000Z</time>
</trkpt>
<trkpt lat="46.3139660" lon="9.9749930">
	<ele>2302.00</ele>
	<time>2021-08-31T08:14:06.000Z</time>
</trkpt>
<trkpt lat="46.3139510" lon="9.9750070">
	<ele>2302.20</ele>
	<time>2021-08-31T08:14:08.000Z</time>
</trkpt>
<trkpt lat="46.3139100" lon="9.9750590">
	<ele>2302.40</ele>
	<time>2021-08-31T08:14:13.000Z</time>
</trkpt>
<trkpt lat="46.3138680" lon="9.9751100">
	<ele>2303.00</ele>
	<time>2021-08-31T08:14:18.000Z</time>
</trkpt>
<trkpt lat="46.3138220" lon="9.9751360">
	<ele>2303.00</ele>
	<time>2021-08-31T08:14:22.000Z</time>
</trkpt>
<trkpt lat="46.3137550" lon="9.9752110">
	<ele>2303.00</ele>
	<time>2021-08-31T08:14:29.000Z</time>
</trkpt>
<trkpt lat="46.3137210" lon="9.9752660">
	<ele>2303.80</ele>
	<time>2021-08-31T08:14:34.000Z</time>
</trkpt>
<trkpt lat="46.3137140" lon="9.9753520">
	<ele>2304.00</ele>
	<time>2021-08-31T08:14:40.000Z</time>
</trkpt>
<trkpt lat="46.3137160" lon="9.9753650">
	<ele>2304.00</ele>
	<time>2021-08-31T08:14:41.000Z</time>
</trkpt>
<trkpt lat="46.3137360" lon="9.9755010">
	<ele>2303.00</ele>
	<time>2021-08-31T08:14:49.000Z</time>
</trkpt>
<trkpt lat="46.3137500" lon="9.9755480">
	<ele>2303.20</ele>
	<time>2021-08-31T08:14:52.000Z</time>
</trkpt>
<trkpt lat="46.3137660" lon="9.9756040">
	<ele>2303.20</ele>
	<time>2021-08-31T08:14:57.000Z</time>
</trkpt>
<trkpt lat="46.3137750" lon="9.9756390">
	<ele>2303.80</ele>
	<time>2021-08-31T08:15:01.000Z</time>
</trkpt>
<trkpt lat="46.3137750" lon="9.9756530">
	<ele>2304.00</ele>
	<time>2021-08-31T08:15:03.000Z</time>
</trkpt>
<trkpt lat="46.3137770" lon="9.9756890">
	<ele>2304.40</ele>
	<time>2021-08-31T08:15:06.000Z</time>
</trkpt>
<trkpt lat="46.3137770" lon="9.9757430">
	<ele>2304.80</ele>
	<time>2021-08-31T08:15:10.000Z</time>
</trkpt>
<trkpt lat="46.3137740" lon="9.9757600">
	<ele>2305.00</ele>
	<time>2021-08-31T08:15:11.000Z</time>
</trkpt>
<trkpt lat="46.3137830" lon="9.9758110">
	<ele>2305.40</ele>
	<time>2021-08-31T08:15:16.000Z</time>
</trkpt>
<trkpt lat="46.3137600" lon="9.9758530">
	<ele>2305.40</ele>
	<time>2021-08-31T08:15:22.000Z</time>
</trkpt>
<trkpt lat="46.3137390" lon="9.9758640">
	<ele>2305.40</ele>
	<time>2021-08-31T08:15:24.000Z</time>
</trkpt>
<trkpt lat="46.3136970" lon="9.9759100">
	<ele>2305.60</ele>
	<time>2021-08-31T08:15:29.000Z</time>
</trkpt>
<trkpt lat="46.3136940" lon="9.9759210">
	<ele>2305.80</ele>
	<time>2021-08-31T08:15:30.000Z</time>
</trkpt>
<trkpt lat="46.3136740" lon="9.9759560">
	<ele>2306.00</ele>
	<time>2021-08-31T08:15:34.000Z</time>
</trkpt>
<trkpt lat="46.3136650" lon="9.9759610">
	<ele>2306.00</ele>
	<time>2021-08-31T08:15:35.000Z</time>
</trkpt>
<trkpt lat="46.3136380" lon="9.9759740">
	<ele>2306.20</ele>
	<time>2021-08-31T08:15:38.000Z</time>
</trkpt>
<trkpt lat="46.3135810" lon="9.9759600">
	<ele>2306.40</ele>
	<time>2021-08-31T08:15:44.000Z</time>
</trkpt>
<trkpt lat="46.3135680" lon="9.9759770">
	<ele>2307.20</ele>
	<time>2021-08-31T08:15:48.000Z</time>
</trkpt>
<trkpt lat="46.3135780" lon="9.9759910">
	<ele>2307.80</ele>
	<time>2021-08-31T08:15:50.000Z</time>
</trkpt>
<trkpt lat="46.3135730" lon="9.9760270">
	<ele>2308.20</ele>
	<time>2021-08-31T08:15:54.000Z</time>
</trkpt>
<trkpt lat="46.3135680" lon="9.9760480">
	<ele>2308.80</ele>
	<time>2021-08-31T08:15:57.000Z</time>
</trkpt>
<trkpt lat="46.3135810" lon="9.9760630">
	<ele>2309.40</ele>
	<time>2021-08-31T08:16:00.000Z</time>
</trkpt>
<trkpt lat="46.3135910" lon="9.9760850">
	<ele>2310.00</ele>
	<time>2021-08-31T08:16:03.000Z</time>
</trkpt>
<trkpt lat="46.3135790" lon="9.9761080">
	<ele>2310.60</ele>
	<time>2021-08-31T08:16:07.000Z</time>
</trkpt>
<trkpt lat="46.3135790" lon="9.9761290">
	<ele>2311.00</ele>
	<time>2021-08-31T08:16:09.000Z</time>
</trkpt>
<trkpt lat="46.3135920" lon="9.9761780">
	<ele>2311.60</ele>
	<time>2021-08-31T08:16:15.000Z</time>
</trkpt>
<trkpt lat="46.3135940" lon="9.9761950">
	<ele>2312.00</ele>
	<time>2021-08-31T08:16:17.000Z</time>
</trkpt>
<trkpt lat="46.3135690" lon="9.9762300">
	<ele>2312.80</ele>
	<time>2021-08-31T08:16:21.000Z</time>
</trkpt>
<trkpt lat="46.3135640" lon="9.9762550">
	<ele>2313.60</ele>
	<time>2021-08-31T08:16:24.000Z</time>
</trkpt>
<trkpt lat="46.3135640" lon="9.9762930">
	<ele>2313.80</ele>
	<time>2021-08-31T08:16:28.000Z</time>
</trkpt>
<trkpt lat="46.3135540" lon="9.9763110">
	<ele>2314.40</ele>
	<time>2021-08-31T08:16:30.000Z</time>
</trkpt>
<trkpt lat="46.3135410" lon="9.9763360">
	<ele>2315.00</ele>
	<time>2021-08-31T08:16:33.000Z</time>
</trkpt>
<trkpt lat="46.3135360" lon="9.9763610">
	<ele>2315.40</ele>
	<time>2021-08-31T08:16:36.000Z</time>
</trkpt>
<trkpt lat="46.3135270" lon="9.9763790">
	<ele>2315.80</ele>
	<time>2021-08-31T08:16:38.000Z</time>
</trkpt>
<trkpt lat="46.3135310" lon="9.9764020">
	<ele>2316.40</ele>
	<time>2021-08-31T08:16:41.000Z</time>
</trkpt>
<trkpt lat="46.3135230" lon="9.9764350">
	<ele>2317.20</ele>
	<time>2021-08-31T08:16:45.000Z</time>
</trkpt>
<trkpt lat="46.3135290" lon="9.9764460">
	<ele>2317.40</ele>
	<time>2021-08-31T08:16:47.000Z</time>
</trkpt>
<trkpt lat="46.3135440" lon="9.9765000">
	<ele>2318.60</ele>
	<time>2021-08-31T08:16:53.000Z</time>
</trkpt>
<trkpt lat="46.3135230" lon="9.9765350">
	<ele>2320.00</ele>
	<time>2021-08-31T08:16:59.000Z</time>
</trkpt>
<trkpt lat="46.3135270" lon="9.9765460">
	<ele>2320.40</ele>
	<time>2021-08-31T08:17:01.000Z</time>
</trkpt>
<trkpt lat="46.3134890" lon="9.9765770">
	<ele>2320.60</ele>
	<time>2021-08-31T08:17:08.000Z</time>
</trkpt>
<trkpt lat="46.3134700" lon="9.9766610">
	<ele>2320.40</ele>
	<time>2021-08-31T08:17:15.000Z</time>
</trkpt>
<trkpt lat="46.3134720" lon="9.9767410">
	<ele>2321.00</ele>
	<time>2021-08-31T08:17:21.000Z</time>
</trkpt>
<trkpt lat="46.3134570" lon="9.9768230">
	<ele>2321.80</ele>
	<time>2021-08-31T08:17:29.000Z</time>
</trkpt>
<trkpt lat="46.3134480" lon="9.9768510">
	<ele>2322.20</ele>
	<time>2021-08-31T08:17:32.000Z</time>
</trkpt>
<trkpt lat="46.3134250" lon="9.9768690">
	<ele>2322.60</ele>
	<time>2021-08-31T08:17:35.000Z</time>
</trkpt>
<trkpt lat="46.3134040" lon="9.9768730">
	<ele>2323.00</ele>
	<time>2021-08-31T08:17:37.000Z</time>
</trkpt>
<trkpt lat="46.3133940" lon="9.9768790">
	<ele>2323.20</ele>
	<time>2021-08-31T08:17:38.000Z</time>
</trkpt>
<trkpt lat="46.3133800" lon="9.9769020">
	<ele>2323.40</ele>
	<time>2021-08-31T08:17:41.000Z</time>
</trkpt>
<trkpt lat="46.3133580" lon="9.9769250">
	<ele>2324.20</ele>
	<time>2021-08-31T08:17:44.000Z</time>
</trkpt>
<trkpt lat="46.3133030" lon="9.9769590">
	<ele>2324.40</ele>
	<time>2021-08-31T08:17:52.000Z</time>
</trkpt>
<trkpt lat="46.3132120" lon="9.9770440">
	<ele>2323.60</ele>
	<time>2021-08-31T08:18:03.000Z</time>
</trkpt>
<trkpt lat="46.3131320" lon="9.9771200">
	<ele>2323.60</ele>
	<time>2021-08-31T08:18:13.000Z</time>
</trkpt>
<trkpt lat="46.3131260" lon="9.9771270">
	<ele>2323.80</ele>
	<time>2021-08-31T08:18:14.000Z</time>
</trkpt>
<trkpt lat="46.3131070" lon="9.9771570">
	<ele>2324.00</ele>
	<time>2021-08-31T08:18:17.000Z</time>
</trkpt>
<trkpt lat="46.3131030" lon="9.9771680">
	<ele>2324.00</ele>
	<time>2021-08-31T08:18:18.000Z</time>
</trkpt>
<trkpt lat="46.3130800" lon="9.9772060">
	<ele>2324.00</ele>
	<time>2021-08-31T08:18:22.000Z</time>
</trkpt>
<trkpt lat="46.3130720" lon="9.9772520">
	<ele>2323.80</ele>
	<time>2021-08-31T08:18:25.000Z</time>
</trkpt>
<trkpt lat="46.3130600" lon="9.9773880">
	<ele>2323.40</ele>
	<time>2021-08-31T08:18:34.000Z</time>
</trkpt>
<trkpt lat="46.3130600" lon="9.9774020">
	<ele>2323.20</ele>
	<time>2021-08-31T08:18:35.000Z</time>
</trkpt>
<trkpt lat="46.3130620" lon="9.9774190">
	<ele>2323.00</ele>
	<time>2021-08-31T08:18:36.000Z</time>
</trkpt>
<trkpt lat="46.3130750" lon="9.9774710">
	<ele>2322.20</ele>
	<time>2021-08-31T08:18:40.000Z</time>
</trkpt>
<trkpt lat="46.3130760" lon="9.9775190">
	<ele>2321.60</ele>
	<time>2021-08-31T08:18:43.000Z</time>
</trkpt>
<trkpt lat="46.3130820" lon="9.9775340">
	<ele>2321.20</ele>
	<time>2021-08-31T08:18:46.000Z</time>
</trkpt>
<trkpt lat="46.3131100" lon="9.9776580">
	<ele>2320.20</ele>
	<time>2021-08-31T08:18:54.000Z</time>
</trkpt>
<trkpt lat="46.3131120" lon="9.9776730">
	<ele>2320.00</ele>
	<time>2021-08-31T08:18:55.000Z</time>
</trkpt>
<trkpt lat="46.3131300" lon="9.9777490">
	<ele>2319.80</ele>
	<time>2021-08-31T08:19:00.000Z</time>
</trkpt>
<trkpt lat="46.3131390" lon="9.9777890">
	<ele>2319.60</ele>
	<time>2021-08-31T08:19:03.000Z</time>
</trkpt>
<trkpt lat="46.3131380" lon="9.9778200">
	<ele>2319.60</ele>
	<time>2021-08-31T08:19:05.000Z</time>
</trkpt>
<trkpt lat="46.3131250" lon="9.9779140">
	<ele>2319.60</ele>
	<time>2021-08-31T08:19:12.000Z</time>
</trkpt>
<trkpt lat="46.3131230" lon="9.9779460">
	<ele>2319.40</ele>
	<time>2021-08-31T08:19:14.000Z</time>
</trkpt>
<trkpt lat="46.3131320" lon="9.9779880">
	<ele>2319.40</ele>
	<time>2021-08-31T08:19:17.000Z</time>
</trkpt>
<trkpt lat="46.3131350" lon="9.9780170">
	<ele>2319.40</ele>
	<time>2021-08-31T08:19:20.000Z</time>
</trkpt>
<trkpt lat="46.3131320" lon="9.9780240">
	<ele>2319.40</ele>
	<time>2021-08-31T08:19:21.000Z</time>
</trkpt>
<trkpt lat="46.3131280" lon="9.9781250">
	<ele>2320.40</ele>
	<time>2021-08-31T08:19:29.000Z</time>
</trkpt>
<trkpt lat="46.3131100" lon="9.9782390">
	<ele>2320.80</ele>
	<time>2021-08-31T08:19:38.000Z</time>
</trkpt>
<trkpt lat="46.3131010" lon="9.9782950">
	<ele>2321.20</ele>
	<time>2021-08-31T08:19:43.000Z</time>
</trkpt>
<trkpt lat="46.3130930" lon="9.9783000">
	<ele>2321.20</ele>
	<time>2021-08-31T08:19:44.000Z</time>
</trkpt>
<trkpt lat="46.3130730" lon="9.9783190">
	<ele>2321.00</ele>
	<time>2021-08-31T08:19:46.000Z</time>
</trkpt>
<trkpt lat="46.3129850" lon="9.9784220">
	<ele>2320.20</ele>
	<time>2021-08-31T08:19:56.000Z</time>
</trkpt>
<trkpt lat="46.3129740" lon="9.9784450">
	<ele>2320.20</ele>
	<time>2021-08-31T08:19:58.000Z</time>
</trkpt>
<trkpt lat="46.3129540" lon="9.9784650">
	<ele>2320.00</ele>
	<time>2021-08-31T08:20:00.000Z</time>
</trkpt>
<trkpt lat="46.3129290" lon="9.9784960">
	<ele>2319.60</ele>
	<time>2021-08-31T08:20:03.000Z</time>
</trkpt>
<trkpt lat="46.3129010" lon="9.9785240">
	<ele>2319.40</ele>
	<time>2021-08-31T08:20:06.000Z</time>
</trkpt>
<trkpt lat="46.3128820" lon="9.9785480">
	<ele>2319.40</ele>
	<time>2021-08-31T08:20:08.000Z</time>
</trkpt>
<trkpt lat="46.3128210" lon="9.9786550">
	<ele>2319.00</ele>
	<time>2021-08-31T08:20:16.000Z</time>
</trkpt>
<trkpt lat="46.3128060" lon="9.9786750">
	<ele>2318.80</ele>
	<time>2021-08-31T08:20:18.000Z</time>
</trkpt>
<trkpt lat="46.3127550" lon="9.9787630">
	<ele>2319.00</ele>
	<time>2021-08-31T08:20:26.000Z</time>
</trkpt>
<trkpt lat="46.3126890" lon="9.9788270">
	<ele>2319.60</ele>
	<time>2021-08-31T08:20:34.000Z</time>
</trkpt>
<trkpt lat="46.3126660" lon="9.9788730">
	<ele>2320.00</ele>
	<time>2021-08-31T08:20:38.000Z</time>
</trkpt>
<trkpt lat="46.3126440" lon="9.9789180">
	<ele>2320.20</ele>
	<time>2021-08-31T08:20:42.000Z</time>
</trkpt>
<trkpt lat="46.3125840" lon="9.9789540">
	<ele>2320.40</ele>
	<time>2021-08-31T08:20:48.000Z</time>
</trkpt>
<trkpt lat="46.3125550" lon="9.9789830">
	<ele>2320.20</ele>
	<time>2021-08-31T08:20:51.000Z</time>
</trkpt>
<trkpt lat="46.3124870" lon="9.9791200">
	<ele>2320.40</ele>
	<time>2021-08-31T08:21:01.000Z</time>
</trkpt>
<trkpt lat="46.3124330" lon="9.9791860">
	<ele>2320.60</ele>
	<time>2021-08-31T08:21:08.000Z</time>
</trkpt>
<trkpt lat="46.3123520" lon="9.9792750">
	<ele>2320.20</ele>
	<time>2021-08-31T08:21:19.000Z</time>
</trkpt>
<trkpt lat="46.3123100" lon="9.9793750">
	<ele>2320.40</ele>
	<time>2021-08-31T08:21:27.000Z</time>
</trkpt>
<trkpt lat="46.3122680" lon="9.9794440">
	<ele>2320.60</ele>
	<time>2021-08-31T08:21:34.000Z</time>
</trkpt>
<trkpt lat="46.3122530" lon="9.9794530">
	<ele>2320.40</ele>
	<time>2021-08-31T08:21:36.000Z</time>
</trkpt>
<trkpt lat="46.3122120" lon="9.9795510">
	<ele>2319.80</ele>
	<time>2021-08-31T08:21:44.000Z</time>
</trkpt>
<trkpt lat="46.3121960" lon="9.9796200">
	<ele>2320.00</ele>
	<time>2021-08-31T08:21:50.000Z</time>
</trkpt>
<trkpt lat="46.3121810" lon="9.9796530">
	<ele>2320.00</ele>
	<time>2021-08-31T08:21:53.000Z</time>
</trkpt>
<trkpt lat="46.3121300" lon="9.9797450">
	<ele>2319.60</ele>
	<time>2021-08-31T08:22:02.000Z</time>
</trkpt>
<trkpt lat="46.3120580" lon="9.9798430">
	<ele>2319.80</ele>
	<time>2021-08-31T08:22:11.000Z</time>
</trkpt>
<trkpt lat="46.3120420" lon="9.9798820">
	<ele>2319.60</ele>
	<time>2021-08-31T08:22:14.000Z</time>
</trkpt>
<trkpt lat="46.3120480" lon="9.9799110">
	<ele>2319.40</ele>
	<time>2021-08-31T08:22:17.000Z</time>
</trkpt>
<trkpt lat="46.3120420" lon="9.9799170">
	<ele>2319.20</ele>
	<time>2021-08-31T08:22:18.000Z</time>
</trkpt>
<trkpt lat="46.3120030" lon="9.9799500">
	<ele>2319.20</ele>
	<time>2021-08-31T08:22:23.000Z</time>
</trkpt>
<trkpt lat="46.3119760" lon="9.9799650">
	<ele>2319.80</ele>
	<time>2021-08-31T08:22:26.000Z</time>
</trkpt>
<trkpt lat="46.3119210" lon="9.9800200">
	<ele>2319.60</ele>
	<time>2021-08-31T08:22:32.000Z</time>
</trkpt>
<trkpt lat="46.3118650" lon="9.9800850">
	<ele>2320.20</ele>
	<time>2021-08-31T08:22:40.000Z</time>
</trkpt>
<trkpt lat="46.3118120" lon="9.9801930">
	<ele>2320.60</ele>
	<time>2021-08-31T08:22:48.000Z</time>
</trkpt>
<trkpt lat="46.3117820" lon="9.9803480">
	<ele>2320.60</ele>
	<time>2021-08-31T08:22:58.000Z</time>
</trkpt>
<trkpt lat="46.3117580" lon="9.9804310">
	<ele>2320.20</ele>
	<time>2021-08-31T08:23:04.000Z</time>
</trkpt>
<trkpt lat="46.3117310" lon="9.9805580">
	<ele>2319.80</ele>
	<time>2021-08-31T08:23:12.000Z</time>
</trkpt>
<trkpt lat="46.3117330" lon="9.9805710">
	<ele>2319.80</ele>
	<time>2021-08-31T08:23:13.000Z</time>
</trkpt>
<trkpt lat="46.3117170" lon="9.9807040">
	<ele>2320.40</ele>
	<time>2021-08-31T08:23:21.000Z</time>
</trkpt>
<trkpt lat="46.3116850" lon="9.9807510">
	<ele>2320.40</ele>
	<time>2021-08-31T08:23:25.000Z</time>
</trkpt>
<trkpt lat="46.3116410" lon="9.9808020">
	<ele>2320.80</ele>
	<time>2021-08-31T08:23:30.000Z</time>
</trkpt>
<trkpt lat="46.3115700" lon="9.9808820">
	<ele>2320.80</ele>
	<time>2021-08-31T08:23:38.000Z</time>
</trkpt>
<trkpt lat="46.3115260" lon="9.9809290">
	<ele>2320.40</ele>
	<time>2021-08-31T08:23:42.000Z</time>
</trkpt>
<trkpt lat="46.3114880" lon="9.9809620">
	<ele>2320.40</ele>
	<time>2021-08-31T08:23:46.000Z</time>
</trkpt>
<trkpt lat="46.3114250" lon="9.9810300">
	<ele>2320.80</ele>
	<time>2021-08-31T08:23:52.000Z</time>
</trkpt>
<trkpt lat="46.3114070" lon="9.9810430">
	<ele>2321.00</ele>
	<time>2021-08-31T08:23:54.000Z</time>
</trkpt>
<trkpt lat="46.3113980" lon="9.9810490">
	<ele>2321.00</ele>
	<time>2021-08-31T08:23:55.000Z</time>
</trkpt>
<trkpt lat="46.3113870" lon="9.9810570">
	<ele>2321.00</ele>
	<time>2021-08-31T08:23:56.000Z</time>
</trkpt>
<trkpt lat="46.3113250" lon="9.9811210">
	<ele>2321.20</ele>
	<time>2021-08-31T08:24:02.000Z</time>
</trkpt>
<trkpt lat="46.3112860" lon="9.9811520">
	<ele>2321.20</ele>
	<time>2021-08-31T08:24:06.000Z</time>
</trkpt>
<trkpt lat="46.3111980" lon="9.9812240">
	<ele>2321.20</ele>
	<time>2021-08-31T08:24:15.000Z</time>
</trkpt>
<trkpt lat="46.3111780" lon="9.9812430">
	<ele>2321.40</ele>
	<time>2021-08-31T08:24:17.000Z</time>
</trkpt>
<trkpt lat="46.3110850" lon="9.9813160">
	<ele>2321.80</ele>
	<time>2021-08-31T08:24:26.000Z</time>
</trkpt>
<trkpt lat="46.3110210" lon="9.9813840">
	<ele>2321.80</ele>
	<time>2021-08-31T08:24:34.000Z</time>
</trkpt>
<trkpt lat="46.3109720" lon="9.9813840">
	<ele>2322.00</ele>
	<time>2021-08-31T08:24:38.000Z</time>
</trkpt>
<trkpt lat="46.3109400" lon="9.9814000">
	<ele>2322.20</ele>
	<time>2021-08-31T08:24:41.000Z</time>
</trkpt>
<trkpt lat="46.3108540" lon="9.9814180">
	<ele>2322.40</ele>
	<time>2021-08-31T08:24:49.000Z</time>
</trkpt>
<trkpt lat="46.3108180" lon="9.9814160">
	<ele>2322.60</ele>
	<time>2021-08-31T08:24:55.000Z</time>
</trkpt>
<trkpt lat="46.3108110" lon="9.9814220">
	<ele>2322.80</ele>
	<time>2021-08-31T08:24:57.000Z</time>
</trkpt>
<trkpt lat="46.3107990" lon="9.9814350">
	<ele>2322.80</ele>
	<time>2021-08-31T08:24:58.000Z</time>
</trkpt>
<trkpt lat="46.3107820" lon="9.9814710">
	<ele>2323.00</ele>
	<time>2021-08-31T08:25:01.000Z</time>
</trkpt>
<trkpt lat="46.3107720" lon="9.9814830">
	<ele>2323.00</ele>
	<time>2021-08-31T08:25:03.000Z</time>
</trkpt>
<trkpt lat="46.3107590" lon="9.9814970">
	<ele>2323.00</ele>
	<time>2021-08-31T08:25:04.000Z</time>
</trkpt>
<trkpt lat="46.3106450" lon="9.9815940">
	<ele>2323.40</ele>
	<time>2021-08-31T08:25:15.000Z</time>
</trkpt>
<trkpt lat="46.3106390" lon="9.9816050">
	<ele>2323.60</ele>
	<time>2021-08-31T08:25:17.000Z</time>
</trkpt>
<trkpt lat="46.3106190" lon="9.9816330">
	<ele>2324.00</ele>
	<time>2021-08-31T08:25:20.000Z</time>
</trkpt>
<trkpt lat="46.3106080" lon="9.9816550">
	<ele>2324.00</ele>
	<time>2021-08-31T08:25:21.000Z</time>
</trkpt>
<trkpt lat="46.3106030" lon="9.9816760">
	<ele>2324.20</ele>
	<time>2021-08-31T08:25:22.000Z</time>
</trkpt>
<trkpt lat="46.3105850" lon="9.9817070">
	<ele>2324.40</ele>
	<time>2021-08-31T08:25:25.000Z</time>
</trkpt>
<trkpt lat="46.3105750" lon="9.9817150">
	<ele>2324.40</ele>
	<time>2021-08-31T08:25:26.000Z</time>
</trkpt>
<trkpt lat="46.3104920" lon="9.9817840">
	<ele>2325.20</ele>
	<time>2021-08-31T08:25:35.000Z</time>
</trkpt>
<trkpt lat="46.3104710" lon="9.9818090">
	<ele>2325.40</ele>
	<time>2021-08-31T08:25:38.000Z</time>
</trkpt>
<trkpt lat="46.3103940" lon="9.9818510">
	<ele>2325.60</ele>
	<time>2021-08-31T08:25:46.000Z</time>
</trkpt>
<trkpt lat="46.3103610" lon="9.9818900">
	<ele>2326.20</ele>
	<time>2021-08-31T08:25:51.000Z</time>
</trkpt>
<trkpt lat="46.3103500" lon="9.9818960">
	<ele>2326.40</ele>
	<time>2021-08-31T08:25:52.000Z</time>
</trkpt>
<trkpt lat="46.3103360" lon="9.9819140">
	<ele>2326.40</ele>
	<time>2021-08-31T08:25:54.000Z</time>
</trkpt>
<trkpt lat="46.3103140" lon="9.9819580">
	<ele>2326.60</ele>
	<time>2021-08-31T08:25:58.000Z</time>
</trkpt>
<trkpt lat="46.3102870" lon="9.9820230">
	<ele>2327.20</ele>
	<time>2021-08-31T08:26:04.000Z</time>
</trkpt>
<trkpt lat="46.3102800" lon="9.9820280">
	<ele>2327.20</ele>
	<time>2021-08-31T08:26:05.000Z</time>
</trkpt>
<trkpt lat="46.3102720" lon="9.9820330">
	<ele>2327.40</ele>
	<time>2021-08-31T08:26:06.000Z</time>
</trkpt>
<trkpt lat="46.3101980" lon="9.9821240">
	<ele>2327.80</ele>
	<time>2021-08-31T08:26:16.000Z</time>
</trkpt>
<trkpt lat="46.3101940" lon="9.9821340">
	<ele>2327.80</ele>
	<time>2021-08-31T08:26:17.000Z</time>
</trkpt>
<trkpt lat="46.3101870" lon="9.9821430">
	<ele>2328.20</ele>
	<time>2021-08-31T08:26:19.000Z</time>
</trkpt>
<trkpt lat="46.3101780" lon="9.9821490">
	<ele>2328.20</ele>
	<time>2021-08-31T08:26:20.000Z</time>
</trkpt>
<trkpt lat="46.3101630" lon="9.9821740">
	<ele>2328.20</ele>
	<time>2021-08-31T08:26:23.000Z</time>
</trkpt>
<trkpt lat="46.3101180" lon="9.9822270">
	<ele>2328.00</ele>
	<time>2021-08-31T08:26:32.000Z</time>
</trkpt>
<trkpt lat="46.3100860" lon="9.9822520">
	<ele>2328.60</ele>
	<time>2021-08-31T08:26:37.000Z</time>
</trkpt>
<trkpt lat="46.3100740" lon="9.9822590">
	<ele>2328.60</ele>
	<time>2021-08-31T08:26:38.000Z</time>
</trkpt>
<trkpt lat="46.3100380" lon="9.9822900">
	<ele>2328.60</ele>
	<time>2021-08-31T08:26:43.000Z</time>
</trkpt>
<trkpt lat="46.3099960" lon="9.9823280">
	<ele>2329.40</ele>
	<time>2021-08-31T08:26:51.000Z</time>
</trkpt>
<trkpt lat="46.3099820" lon="9.9823430">
	<ele>2329.60</ele>
	<time>2021-08-31T08:26:54.000Z</time>
</trkpt>
<trkpt lat="46.3099560" lon="9.9823570">
	<ele>2329.60</ele>
	<time>2021-08-31T08:26:56.000Z</time>
</trkpt>
<trkpt lat="46.3099310" lon="9.9823900">
	<ele>2329.60</ele>
	<time>2021-08-31T08:26:59.000Z</time>
</trkpt>
<trkpt lat="46.3099110" lon="9.9824280">
	<ele>2329.60</ele>
	<time>2021-08-31T08:27:03.000Z</time>
</trkpt>
<trkpt lat="46.3098860" lon="9.9824600">
	<ele>2329.40</ele>
	<time>2021-08-31T08:27:06.000Z</time>
</trkpt>
<trkpt lat="46.3098860" lon="9.9824730">
	<ele>2329.60</ele>
	<time>2021-08-31T08:27:07.000Z</time>
</trkpt>
<trkpt lat="46.3098590" lon="9.9825100">
	<ele>2330.00</ele>
	<time>2021-08-31T08:27:12.000Z</time>
</trkpt>
<trkpt lat="46.3098030" lon="9.9825610">
	<ele>2330.40</ele>
	<time>2021-08-31T08:27:19.000Z</time>
</trkpt>
<trkpt lat="46.3097990" lon="9.9825640">
	<ele>2330.60</ele>
	<time>2021-08-31T08:27:20.000Z</time>
</trkpt>
<trkpt lat="46.3097920" lon="9.9825710">
	<ele>2330.60</ele>
	<time>2021-08-31T08:27:21.000Z</time>
</trkpt>
<trkpt lat="46.3097350" lon="9.9826180">
	<ele>2331.20</ele>
	<time>2021-08-31T08:27:26.000Z</time>
</trkpt>
<trkpt lat="46.3097340" lon="9.9826320">
	<ele>2331.20</ele>
	<time>2021-08-31T08:27:27.000Z</time>
</trkpt>
<trkpt lat="46.3097080" lon="9.9826780">
	<ele>2331.20</ele>
	<time>2021-08-31T08:27:31.000Z</time>
</trkpt>
<trkpt lat="46.3096760" lon="9.9827120">
	<ele>2331.00</ele>
	<time>2021-08-31T08:27:35.000Z</time>
</trkpt>
<trkpt lat="46.3096470" lon="9.9827590">
	<ele>2331.00</ele>
	<time>2021-08-31T08:27:41.000Z</time>
</trkpt>
<trkpt lat="46.3096160" lon="9.9827830">
	<ele>2330.80</ele>
	<time>2021-08-31T08:27:45.000Z</time>
</trkpt>
<trkpt lat="46.3095820" lon="9.9828030">
	<ele>2330.80</ele>
	<time>2021-08-31T08:27:48.000Z</time>
</trkpt>
<trkpt lat="46.3095700" lon="9.9828260">
	<ele>2330.80</ele>
	<time>2021-08-31T08:27:50.000Z</time>
</trkpt>
<trkpt lat="46.3095090" lon="9.9829390">
	<ele>2331.00</ele>
	<time>2021-08-31T08:28:00.000Z</time>
</trkpt>
<trkpt lat="46.3095040" lon="9.9829480">
	<ele>2331.00</ele>
	<time>2021-08-31T08:28:01.000Z</time>
</trkpt>
<trkpt lat="46.3094920" lon="9.9829660">
	<ele>2331.00</ele>
	<time>2021-08-31T08:28:03.000Z</time>
</trkpt>
<trkpt lat="46.3094890" lon="9.9829970">
	<ele>2330.80</ele>
	<time>2021-08-31T08:28:05.000Z</time>
</trkpt>
<trkpt lat="46.3094840" lon="9.9830070">
	<ele>2330.80</ele>
	<time>2021-08-31T08:28:06.000Z</time>
</trkpt>
<trkpt lat="46.3094710" lon="9.9830320">
	<ele>2331.00</ele>
	<time>2021-08-31T08:28:10.000Z</time>
</trkpt>
<trkpt lat="46.3094720" lon="9.9830450">
	<ele>2331.20</ele>
	<time>2021-08-31T08:28:12.000Z</time>
</trkpt>
<trkpt lat="46.3094080" lon="9.9831170">
	<ele>2331.00</ele>
	<time>2021-08-31T08:28:22.000Z</time>
</trkpt>
<trkpt lat="46.3093750" lon="9.9831270">
	<ele>2331.00</ele>
	<time>2021-08-31T08:28:25.000Z</time>
</trkpt>
<trkpt lat="46.3093320" lon="9.9831450">
	<ele>2331.20</ele>
	<time>2021-08-31T08:28:29.000Z</time>
</trkpt>
<trkpt lat="46.3092720" lon="9.9832290">
	<ele>2331.20</ele>
	<time>2021-08-31T08:28:37.000Z</time>
</trkpt>
<trkpt lat="46.3092660" lon="9.9832830">
	<ele>2331.40</ele>
	<time>2021-08-31T08:28:41.000Z</time>
</trkpt>
<trkpt lat="46.3092550" lon="9.9832900">
	<ele>2331.40</ele>
	<time>2021-08-31T08:28:42.000Z</time>
</trkpt>
<trkpt lat="46.3092400" lon="9.9833100">
	<ele>2331.60</ele>
	<time>2021-08-31T08:28:44.000Z</time>
</trkpt>
<trkpt lat="46.3092070" lon="9.9834130">
	<ele>2331.60</ele>
	<time>2021-08-31T08:28:51.000Z</time>
</trkpt>
<trkpt lat="46.3091790" lon="9.9834330">
	<ele>2332.00</ele>
	<time>2021-08-31T08:28:53.000Z</time>
</trkpt>
<trkpt lat="46.3091060" lon="9.9834860">
	<ele>2332.40</ele>
	<time>2021-08-31T08:28:59.000Z</time>
</trkpt>
<trkpt lat="46.3090680" lon="9.9835260">
	<ele>2332.40</ele>
	<time>2021-08-31T08:29:02.000Z</time>
</trkpt>
<trkpt lat="46.3090650" lon="9.9835550">
	<ele>2332.40</ele>
	<time>2021-08-31T08:29:04.000Z</time>
</trkpt>
<trkpt lat="46.3090400" lon="9.9835990">
	<ele>2332.60</ele>
	<time>2021-08-31T08:29:07.000Z</time>
</trkpt>
<trkpt lat="46.3090010" lon="9.9836800">
	<ele>2332.80</ele>
	<time>2021-08-31T08:29:13.000Z</time>
</trkpt>
<trkpt lat="46.3089540" lon="9.9837300">
	<ele>2333.00</ele>
	<time>2021-08-31T08:29:18.000Z</time>
</trkpt>
<trkpt lat="46.3089490" lon="9.9837410">
	<ele>2333.00</ele>
	<time>2021-08-31T08:29:20.000Z</time>
</trkpt>
<trkpt lat="46.3089390" lon="9.9837790">
	<ele>2333.80</ele>
	<time>2021-08-31T08:29:24.000Z</time>
</trkpt>
<trkpt lat="46.3089180" lon="9.9837980">
	<ele>2334.00</ele>
	<time>2021-08-31T08:29:26.000Z</time>
</trkpt>
<trkpt lat="46.3088950" lon="9.9838530">
	<ele>2334.60</ele>
	<time>2021-08-31T08:29:30.000Z</time>
</trkpt>
<trkpt lat="46.3088870" lon="9.9838730">
	<ele>2334.80</ele>
	<time>2021-08-31T08:29:31.000Z</time>
</trkpt>
<trkpt lat="46.3088780" lon="9.9838860">
	<ele>2334.80</ele>
	<time>2021-08-31T08:29:32.000Z</time>
</trkpt>
<trkpt lat="46.3088340" lon="9.9840190">
	<ele>2335.20</ele>
	<time>2021-08-31T08:29:41.000Z</time>
</trkpt>
<trkpt lat="46.3088200" lon="9.9840780">
	<ele>2335.80</ele>
	<time>2021-08-31T08:29:45.000Z</time>
</trkpt>
<trkpt lat="46.3088170" lon="9.9840940">
	<ele>2335.80</ele>
	<time>2021-08-31T08:29:46.000Z</time>
</trkpt>
<trkpt lat="46.3088130" lon="9.9841260">
	<ele>2336.00</ele>
	<time>2021-08-31T08:29:48.000Z</time>
</trkpt>
<trkpt lat="46.3088000" lon="9.9841850">
	<ele>2336.20</ele>
	<time>2021-08-31T08:29:53.000Z</time>
</trkpt>
<trkpt lat="46.3088060" lon="9.9841980">
	<ele>2336.40</ele>
	<time>2021-08-31T08:29:55.000Z</time>
</trkpt>
<trkpt lat="46.3088080" lon="9.9842060">
	<ele>2336.40</ele>
	<time>2021-08-31T08:29:56.000Z</time>
</trkpt>
<trkpt lat="46.3087970" lon="9.9842390">
	<ele>2337.00</ele>
	<time>2021-08-31T08:29:59.000Z</time>
</trkpt>
<trkpt lat="46.3087780" lon="9.9842540">
	<ele>2337.00</ele>
	<time>2021-08-31T08:30:01.000Z</time>
</trkpt>
<trkpt lat="46.3087480" lon="9.9843070">
	<ele>2337.00</ele>
	<time>2021-08-31T08:30:05.000Z</time>
</trkpt>
<trkpt lat="46.3087290" lon="9.9843380">
	<ele>2337.20</ele>
	<time>2021-08-31T08:30:08.000Z</time>
</trkpt>
<trkpt lat="46.3087290" lon="9.9843700">
	<ele>2337.20</ele>
	<time>2021-08-31T08:30:11.000Z</time>
</trkpt>
<trkpt lat="46.3087210" lon="9.9843890">
	<ele>2337.80</ele>
	<time>2021-08-31T08:30:14.000Z</time>
</trkpt>
<trkpt lat="46.3087070" lon="9.9844030">
	<ele>2338.00</ele>
	<time>2021-08-31T08:30:16.000Z</time>
</trkpt>
<trkpt lat="46.3086930" lon="9.9844660">
	<ele>2339.00</ele>
	<time>2021-08-31T08:30:22.000Z</time>
</trkpt>
<trkpt lat="46.3086960" lon="9.9844750">
	<ele>2339.00</ele>
	<time>2021-08-31T08:30:23.000Z</time>
</trkpt>
<trkpt lat="46.3086810" lon="9.9845540">
	<ele>2340.00</ele>
	<time>2021-08-31T08:30:30.000Z</time>
</trkpt>
<trkpt lat="46.3086810" lon="9.9845690">
	<ele>2340.20</ele>
	<time>2021-08-31T08:30:31.000Z</time>
</trkpt>
<trkpt lat="46.3086670" lon="9.9846500">
	<ele>2341.20</ele>
	<time>2021-08-31T08:30:38.000Z</time>
</trkpt>
<trkpt lat="46.3086680" lon="9.9846630">
	<ele>2341.20</ele>
	<time>2021-08-31T08:30:39.000Z</time>
</trkpt>
<trkpt lat="46.3086660" lon="9.9846730">
	<ele>2341.40</ele>
	<time>2021-08-31T08:30:40.000Z</time>
</trkpt>
<trkpt lat="46.3086460" lon="9.9847470">
	<ele>2342.20</ele>
	<time>2021-08-31T08:30:46.000Z</time>
</trkpt>
<trkpt lat="46.3086430" lon="9.9847710">
	<ele>2342.40</ele>
	<time>2021-08-31T08:30:48.000Z</time>
</trkpt>
<trkpt lat="46.3086000" lon="9.9848660">
	<ele>2343.00</ele>
	<time>2021-08-31T08:30:56.000Z</time>
</trkpt>
<trkpt lat="46.3085870" lon="9.9848930">
	<ele>2343.20</ele>
	<time>2021-08-31T08:30:58.000Z</time>
</trkpt>
<trkpt lat="46.3085810" lon="9.9849160">
	<ele>2343.20</ele>
	<time>2021-08-31T08:31:00.000Z</time>
</trkpt>
<trkpt lat="46.3085760" lon="9.9849660">
	<ele>2343.80</ele>
	<time>2021-08-31T08:31:05.000Z</time>
</trkpt>
<trkpt lat="46.3085760" lon="9.9849750">
	<ele>2343.80</ele>
	<time>2021-08-31T08:31:06.000Z</time>
</trkpt>
<trkpt lat="46.3085590" lon="9.9850540">
	<ele>2344.20</ele>
	<time>2021-08-31T08:31:12.000Z</time>
</trkpt>
<trkpt lat="46.3085530" lon="9.9850720">
	<ele>2344.20</ele>
	<time>2021-08-31T08:31:13.000Z</time>
</trkpt>
<trkpt lat="46.3085560" lon="9.9850840">
	<ele>2344.20</ele>
	<time>2021-08-31T08:31:14.000Z</time>
</trkpt>
<trkpt lat="46.3085430" lon="9.9851600">
	<ele>2344.20</ele>
	<time>2021-08-31T08:31:19.000Z</time>
</trkpt>
<trkpt lat="46.3085400" lon="9.9851990">
	<ele>2344.40</ele>
	<time>2021-08-31T08:31:22.000Z</time>
</trkpt>
<trkpt lat="46.3085420" lon="9.9853130">
	<ele>2344.80</ele>
	<time>2021-08-31T08:31:29.000Z</time>
</trkpt>
<trkpt lat="46.3085340" lon="9.9853190">
	<ele>2344.80</ele>
	<time>2021-08-31T08:31:30.000Z</time>
</trkpt>
<trkpt lat="46.3085290" lon="9.9853730">
	<ele>2345.20</ele>
	<time>2021-08-31T08:31:34.000Z</time>
</trkpt>
<trkpt lat="46.3085120" lon="9.9854100">
	<ele>2345.40</ele>
	<time>2021-08-31T08:31:36.000Z</time>
</trkpt>
<trkpt lat="46.3084890" lon="9.9855500">
	<ele>2346.00</ele>
	<time>2021-08-31T08:31:47.000Z</time>
</trkpt>
<trkpt lat="46.3084960" lon="9.9855710">
	<ele>2346.40</ele>
	<time>2021-08-31T08:31:50.000Z</time>
</trkpt>
<trkpt lat="46.3085020" lon="9.9855760">
	<ele>2346.40</ele>
	<time>2021-08-31T08:31:51.000Z</time>
</trkpt>
<trkpt lat="46.3085050" lon="9.9855930">
	<ele>2346.80</ele>
	<time>2021-08-31T08:31:53.000Z</time>
</trkpt>
<trkpt lat="46.3085050" lon="9.9856180">
	<ele>2347.40</ele>
	<time>2021-08-31T08:31:57.000Z</time>
</trkpt>
<trkpt lat="46.3085070" lon="9.9856320">
	<ele>2347.80</ele>
	<time>2021-08-31T08:31:58.000Z</time>
</trkpt>
<trkpt lat="46.3085240" lon="9.9856730">
	<ele>2348.20</ele>
	<time>2021-08-31T08:32:01.000Z</time>
</trkpt>
<trkpt lat="46.3085180" lon="9.9856790">
	<ele>2348.20</ele>
	<time>2021-08-31T08:32:02.000Z</time>
</trkpt>
<trkpt lat="46.3085200" lon="9.9856870">
	<ele>2348.20</ele>
	<time>2021-08-31T08:32:03.000Z</time>
</trkpt>
<trkpt lat="46.3085300" lon="9.9857300">
	<ele>2348.60</ele>
	<time>2021-08-31T08:32:07.000Z</time>
</trkpt>
<trkpt lat="46.3085270" lon="9.9857400">
	<ele>2348.80</ele>
	<time>2021-08-31T08:32:08.000Z</time>
</trkpt>
<trkpt lat="46.3085210" lon="9.9857850">
	<ele>2349.00</ele>
	<time>2021-08-31T08:32:12.000Z</time>
</trkpt>
<trkpt lat="46.3085130" lon="9.9857940">
	<ele>2349.00</ele>
	<time>2021-08-31T08:32:13.000Z</time>
</trkpt>
<trkpt lat="46.3084930" lon="9.9858680">
	<ele>2349.00</ele>
	<time>2021-08-31T08:32:18.000Z</time>
</trkpt>
<trkpt lat="46.3084860" lon="9.9858880">
	<ele>2349.00</ele>
	<time>2021-08-31T08:32:20.000Z</time>
</trkpt>
<trkpt lat="46.3084690" lon="9.9860390">
	<ele>2349.20</ele>
	<time>2021-08-31T08:32:29.000Z</time>
</trkpt>
<trkpt lat="46.3084640" lon="9.9861190">
	<ele>2349.80</ele>
	<time>2021-08-31T08:32:35.000Z</time>
</trkpt>
<trkpt lat="46.3084450" lon="9.9861660">
	<ele>2349.80</ele>
	<time>2021-08-31T08:32:39.000Z</time>
</trkpt>
<trkpt lat="46.3083700" lon="9.9862370">
	<ele>2349.60</ele>
	<time>2021-08-31T08:32:47.000Z</time>
</trkpt>
<trkpt lat="46.3083840" lon="9.9862780">
	<ele>2349.80</ele>
	<time>2021-08-31T08:32:52.000Z</time>
</trkpt>
<trkpt lat="46.3083650" lon="9.9863510">
	<ele>2350.60</ele>
	<time>2021-08-31T08:33:00.000Z</time>
</trkpt>
<trkpt lat="46.3083440" lon="9.9863950">
	<ele>2350.80</ele>
	<time>2021-08-31T08:33:04.000Z</time>
</trkpt>
<trkpt lat="46.3083310" lon="9.9864500">
	<ele>2351.00</ele>
	<time>2021-08-31T08:33:08.000Z</time>
</trkpt>
<trkpt lat="46.3083020" lon="9.9864940">
	<ele>2351.60</ele>
	<time>2021-08-31T08:33:13.000Z</time>
</trkpt>
<trkpt lat="46.3082930" lon="9.9865210">
	<ele>2351.60</ele>
	<time>2021-08-31T08:33:15.000Z</time>
</trkpt>
<trkpt lat="46.3082860" lon="9.9865370">
	<ele>2351.40</ele>
	<time>2021-08-31T08:33:17.000Z</time>
</trkpt>
<trkpt lat="46.3082810" lon="9.9865640">
	<ele>2351.60</ele>
	<time>2021-08-31T08:33:20.000Z</time>
</trkpt>
<trkpt lat="46.3082710" lon="9.9865910">
	<ele>2351.60</ele>
	<time>2021-08-31T08:33:23.000Z</time>
</trkpt>
<trkpt lat="46.3082150" lon="9.9866540">
	<ele>2351.60</ele>
	<time>2021-08-31T08:33:31.000Z</time>
</trkpt>
<trkpt lat="46.3082000" lon="9.9866660">
	<ele>2351.40</ele>
	<time>2021-08-31T08:33:33.000Z</time>
</trkpt>
<trkpt lat="46.3081540" lon="9.9867120">
	<ele>2351.40</ele>
	<time>2021-08-31T08:33:39.000Z</time>
</trkpt>
<trkpt lat="46.3081160" lon="9.9867620">
	<ele>2351.40</ele>
	<time>2021-08-31T08:33:44.000Z</time>
</trkpt>
<trkpt lat="46.3080950" lon="9.9867730">
	<ele>2351.40</ele>
	<time>2021-08-31T08:33:47.000Z</time>
</trkpt>
<trkpt lat="46.3080980" lon="9.9867710">
	<ele>2351.40</ele>
	<time>2021-08-31T08:33:50.000Z</time>
</trkpt>
<trkpt lat="46.3080900" lon="9.9867710">
	<ele>2351.40</ele>
	<time>2021-08-31T08:34:05.000Z</time>
</trkpt>
<trkpt lat="46.3080470" lon="9.9868010">
	<ele>2351.80</ele>
	<time>2021-08-31T08:34:13.000Z</time>
</trkpt>
<trkpt lat="46.3079460" lon="9.9869030">
	<ele>2351.60</ele>
	<time>2021-08-31T08:34:22.000Z</time>
</trkpt>
<trkpt lat="46.3078760" lon="9.9870360">
	<ele>2351.60</ele>
	<time>2021-08-31T08:34:32.000Z</time>
</trkpt>
<trkpt lat="46.3078630" lon="9.9870820">
	<ele>2352.00</ele>
	<time>2021-08-31T08:34:36.000Z</time>
</trkpt>
<trkpt lat="46.3078370" lon="9.9870920">
	<ele>2352.40</ele>
	<time>2021-08-31T08:34:39.000Z</time>
</trkpt>
<trkpt lat="46.3077820" lon="9.9871290">
	<ele>2353.00</ele>
	<time>2021-08-31T08:34:46.000Z</time>
</trkpt>
<trkpt lat="46.3077620" lon="9.9871480">
	<ele>2353.40</ele>
	<time>2021-08-31T08:34:49.000Z</time>
</trkpt>
<trkpt lat="46.3077570" lon="9.9871640">
	<ele>2353.60</ele>
	<time>2021-08-31T08:34:53.000Z</time>
</trkpt>
<trkpt lat="46.3077480" lon="9.9871760">
	<ele>2353.60</ele>
	<time>2021-08-31T08:34:55.000Z</time>
</trkpt>
<trkpt lat="46.3077190" lon="9.9871990">
	<ele>2353.60</ele>
	<time>2021-08-31T08:34:58.000Z</time>
</trkpt>
<trkpt lat="46.3076980" lon="9.9872290">
	<ele>2354.00</ele>
	<time>2021-08-31T08:35:02.000Z</time>
</trkpt>
<trkpt lat="46.3076810" lon="9.9872380">
	<ele>2354.00</ele>
	<time>2021-08-31T08:35:04.000Z</time>
</trkpt>
<trkpt lat="46.3076650" lon="9.9872500">
	<ele>2354.00</ele>
	<time>2021-08-31T08:35:06.000Z</time>
</trkpt>
<trkpt lat="46.3076390" lon="9.9872830">
	<ele>2353.80</ele>
	<time>2021-08-31T08:35:11.000Z</time>
</trkpt>
<trkpt lat="46.3075970" lon="9.9873500">
	<ele>2353.40</ele>
	<time>2021-08-31T08:35:20.000Z</time>
</trkpt>
<trkpt lat="46.3075860" lon="9.9873500">
	<ele>2353.20</ele>
	<time>2021-08-31T08:35:23.000Z</time>
</trkpt>
<trkpt lat="46.3075800" lon="9.9873540">
	<ele>2353.20</ele>
	<time>2021-08-31T08:35:27.000Z</time>
</trkpt>
<trkpt lat="46.3075490" lon="9.9873390">
	<ele>2353.00</ele>
	<time>2021-08-31T08:35:36.000Z</time>
</trkpt>
<trkpt lat="46.3075670" lon="9.9873450">
	<ele>2353.00</ele>
	<time>2021-08-31T08:35:51.000Z</time>
</trkpt>
<trkpt lat="46.3075710" lon="9.9873540">
	<ele>2352.80</ele>
	<time>2021-08-31T08:35:54.000Z</time>
</trkpt>
<trkpt lat="46.3075730" lon="9.9873550">
	<ele>2353.00</ele>
	<time>2021-08-31T08:35:56.000Z</time>
</trkpt>
<trkpt lat="46.3075760" lon="9.9873670">
	<ele>2353.00</ele>
	<time>2021-08-31T08:35:58.000Z</time>
</trkpt>
<trkpt lat="46.3075810" lon="9.9873710">
	<ele>2353.00</ele>
	<time>2021-08-31T08:36:01.000Z</time>
</trkpt>
<trkpt lat="46.3075860" lon="9.9873710">
	<ele>2353.00</ele>
	<time>2021-08-31T08:36:04.000Z</time>
</trkpt>
<trkpt lat="46.3075890" lon="9.9873710">
	<ele>2353.00</ele>
	<time>2021-08-31T08:36:06.000Z</time>
</trkpt>
<trkpt lat="46.3075930" lon="9.9873720">
	<ele>2353.00</ele>
	<time>2021-08-31T08:36:08.000Z</time>
</trkpt>
<trkpt lat="46.3075970" lon="9.9873620">
	<ele>2352.80</ele>
	<time>2021-08-31T08:36:23.000Z</time>
</trkpt>
<trkpt lat="46.3075730" lon="9.9873860">
	<ele>2354.20</ele>
	<time>2021-08-31T08:36:45.000Z</time>
</trkpt>
<trkpt lat="46.3075480" lon="9.9874190">
	<ele>2354.20</ele>
	<time>2021-08-31T08:36:47.000Z</time>
</trkpt>
<trkpt lat="46.3074720" lon="9.9875030">
	<ele>2354.20</ele>
	<time>2021-08-31T08:36:53.000Z</time>
</trkpt>
<trkpt lat="46.3074330" lon="9.9875130">
	<ele>2354.20</ele>
	<time>2021-08-31T08:36:59.000Z</time>
</trkpt>
<trkpt lat="46.3074030" lon="9.9875010">
	<ele>2354.60</ele>
	<time>2021-08-31T08:37:03.000Z</time>
</trkpt>
<trkpt lat="46.3073800" lon="9.9874870">
	<ele>2355.00</ele>
	<time>2021-08-31T08:37:06.000Z</time>
</trkpt>
<trkpt lat="46.3073730" lon="9.9874830">
	<ele>2355.20</ele>
	<time>2021-08-31T08:37:07.000Z</time>
</trkpt>
<trkpt lat="46.3072820" lon="9.9875290">
	<ele>2355.60</ele>
	<time>2021-08-31T08:37:13.000Z</time>
</trkpt>
<trkpt lat="46.3071960" lon="9.9875670">
	<ele>2355.60</ele>
	<time>2021-08-31T08:37:21.000Z</time>
</trkpt>
<trkpt lat="46.3071860" lon="9.9875710">
	<ele>2355.80</ele>
	<time>2021-08-31T08:37:22.000Z</time>
</trkpt>
<trkpt lat="46.3071320" lon="9.9875900">
	<ele>2356.60</ele>
	<time>2021-08-31T08:37:27.000Z</time>
</trkpt>
<trkpt lat="46.3071180" lon="9.9875940">
	<ele>2356.80</ele>
	<time>2021-08-31T08:37:29.000Z</time>
</trkpt>
<trkpt lat="46.3070920" lon="9.9876090">
	<ele>2357.20</ele>
	<time>2021-08-31T08:37:31.000Z</time>
</trkpt>
<trkpt lat="46.3070830" lon="9.9876070">
	<ele>2357.80</ele>
	<time>2021-08-31T08:37:33.000Z</time>
</trkpt>
<trkpt lat="46.3070640" lon="9.9876170">
	<ele>2358.20</ele>
	<time>2021-08-31T08:37:35.000Z</time>
</trkpt>
<trkpt lat="46.3070460" lon="9.9876310">
	<ele>2358.40</ele>
	<time>2021-08-31T08:37:37.000Z</time>
</trkpt>
<trkpt lat="46.3070260" lon="9.9876430">
	<ele>2358.80</ele>
	<time>2021-08-31T08:37:39.000Z</time>
</trkpt>
<trkpt lat="46.3069970" lon="9.9876950">
	<ele>2359.20</ele>
	<time>2021-08-31T08:37:44.000Z</time>
</trkpt>
<trkpt lat="46.3069950" lon="9.9877020">
	<ele>2359.20</ele>
	<time>2021-08-31T08:37:45.000Z</time>
</trkpt>
<trkpt lat="46.3069730" lon="9.9877450">
	<ele>2359.80</ele>
	<time>2021-08-31T08:37:49.000Z</time>
</trkpt>
<trkpt lat="46.3069680" lon="9.9877770">
	<ele>2360.00</ele>
	<time>2021-08-31T08:37:52.000Z</time>
</trkpt>
<trkpt lat="46.3069250" lon="9.9879400">
	<ele>2360.40</ele>
	<time>2021-08-31T08:38:01.000Z</time>
</trkpt>
<trkpt lat="46.3069120" lon="9.9879730">
	<ele>2360.20</ele>
	<time>2021-08-31T08:38:03.000Z</time>
</trkpt>
<trkpt lat="46.3069020" lon="9.9880080">
	<ele>2360.00</ele>
	<time>2021-08-31T08:38:05.000Z</time>
</trkpt>
<trkpt lat="46.3068790" lon="9.9880860">
	<ele>2360.40</ele>
	<time>2021-08-31T08:38:11.000Z</time>
</trkpt>
<trkpt lat="46.3068590" lon="9.9880910">
	<ele>2360.40</ele>
	<time>2021-08-31T08:38:13.000Z</time>
</trkpt>
<trkpt lat="46.3068420" lon="9.9881120">
	<ele>2360.00</ele>
	<time>2021-08-31T08:38:16.000Z</time>
</trkpt>
<trkpt lat="46.3068350" lon="9.9881290">
	<ele>2359.40</ele>
	<time>2021-08-31T08:38:18.000Z</time>
</trkpt>
<trkpt lat="46.3067810" lon="9.9881920">
	<ele>2358.80</ele>
	<time>2021-08-31T08:38:25.000Z</time>
</trkpt>
<trkpt lat="46.3067560" lon="9.9882480">
	<ele>2359.00</ele>
	<time>2021-08-31T08:38:30.000Z</time>
</trkpt>
<trkpt lat="46.3067440" lon="9.9882730">
	<ele>2359.00</ele>
	<time>2021-08-31T08:38:32.000Z</time>
</trkpt>
<trkpt lat="46.3067260" lon="9.9883020">
	<ele>2359.00</ele>
	<time>2021-08-31T08:38:35.000Z</time>
</trkpt>
<trkpt lat="46.3067190" lon="9.9883280">
	<ele>2359.80</ele>
	<time>2021-08-31T08:38:37.000Z</time>
</trkpt>
<trkpt lat="46.3067190" lon="9.9883440">
	<ele>2360.00</ele>
	<time>2021-08-31T08:38:38.000Z</time>
</trkpt>
<trkpt lat="46.3067070" lon="9.9883820">
	<ele>2360.60</ele>
	<time>2021-08-31T08:38:41.000Z</time>
</trkpt>
<trkpt lat="46.3066960" lon="9.9883860">
	<ele>2360.80</ele>
	<time>2021-08-31T08:38:42.000Z</time>
</trkpt>
<trkpt lat="46.3066590" lon="9.9884090">
	<ele>2361.20</ele>
	<time>2021-08-31T08:38:46.000Z</time>
</trkpt>
<trkpt lat="46.3066530" lon="9.9884170">
	<ele>2361.20</ele>
	<time>2021-08-31T08:38:47.000Z</time>
</trkpt>
<trkpt lat="46.3065890" lon="9.9884610">
	<ele>2361.40</ele>
	<time>2021-08-31T08:38:54.000Z</time>
</trkpt>
<trkpt lat="46.3065710" lon="9.9884600">
	<ele>2361.40</ele>
	<time>2021-08-31T08:38:56.000Z</time>
</trkpt>
<trkpt lat="46.3065250" lon="9.9884560">
	<ele>2361.40</ele>
	<time>2021-08-31T08:39:01.000Z</time>
</trkpt>
<trkpt lat="46.3065190" lon="9.9884640">
	<ele>2361.40</ele>
	<time>2021-08-31T08:39:02.000Z</time>
</trkpt>
<trkpt lat="46.3064920" lon="9.9885860">
	<ele>2361.60</ele>
	<time>2021-08-31T08:39:10.000Z</time>
</trkpt>
<trkpt lat="46.3064850" lon="9.9886020">
	<ele>2361.80</ele>
	<time>2021-08-31T08:39:11.000Z</time>
</trkpt>
<trkpt lat="46.3064790" lon="9.9886170">
	<ele>2361.80</ele>
	<time>2021-08-31T08:39:12.000Z</time>
</trkpt>
<trkpt lat="46.3064670" lon="9.9886540">
	<ele>2362.20</ele>
	<time>2021-08-31T08:39:15.000Z</time>
</trkpt>
<trkpt lat="46.3064430" lon="9.9886790">
	<ele>2362.20</ele>
	<time>2021-08-31T08:39:18.000Z</time>
</trkpt>
<trkpt lat="46.3063860" lon="9.9887520">
	<ele>2362.60</ele>
	<time>2021-08-31T08:39:25.000Z</time>
</trkpt>
<trkpt lat="46.3063810" lon="9.9887650">
	<ele>2362.60</ele>
	<time>2021-08-31T08:39:26.000Z</time>
</trkpt>
<trkpt lat="46.3063530" lon="9.9888970">
	<ele>2362.80</ele>
	<time>2021-08-31T08:39:35.000Z</time>
</trkpt>
<trkpt lat="46.3063480" lon="9.9889090">
	<ele>2363.00</ele>
	<time>2021-08-31T08:39:36.000Z</time>
</trkpt>
<trkpt lat="46.3063310" lon="9.9889430">
	<ele>2363.20</ele>
	<time>2021-08-31T08:39:40.000Z</time>
</trkpt>
<trkpt lat="46.3063280" lon="9.9889610">
	<ele>2363.40</ele>
	<time>2021-08-31T08:39:42.000Z</time>
</trkpt>
<trkpt lat="46.3062990" lon="9.9889840">
	<ele>2363.60</ele>
	<time>2021-08-31T08:39:46.000Z</time>
</trkpt>
<trkpt lat="46.3062890" lon="9.9890040">
	<ele>2363.60</ele>
	<time>2021-08-31T08:39:48.000Z</time>
</trkpt>
<trkpt lat="46.3062760" lon="9.9890130">
	<ele>2363.60</ele>
	<time>2021-08-31T08:39:49.000Z</time>
</trkpt>
<trkpt lat="46.3062530" lon="9.9890390">
	<ele>2363.60</ele>
	<time>2021-08-31T08:39:52.000Z</time>
</trkpt>
<trkpt lat="46.3062280" lon="9.9891000">
	<ele>2364.00</ele>
	<time>2021-08-31T08:39:58.000Z</time>
</trkpt>
<trkpt lat="46.3062180" lon="9.9891070">
	<ele>2364.00</ele>
	<time>2021-08-31T08:39:59.000Z</time>
</trkpt>
<trkpt lat="46.3061650" lon="9.9891440">
	<ele>2364.40</ele>
	<time>2021-08-31T08:40:07.000Z</time>
</trkpt>
<trkpt lat="46.3061470" lon="9.9891620">
	<ele>2364.60</ele>
	<time>2021-08-31T08:40:10.000Z</time>
</trkpt>
<trkpt lat="46.3061510" lon="9.9892010">
	<ele>2364.60</ele>
	<time>2021-08-31T08:40:14.000Z</time>
</trkpt>
<trkpt lat="46.3061510" lon="9.9892080">
	<ele>2364.80</ele>
	<time>2021-08-31T08:40:15.000Z</time>
</trkpt>
<trkpt lat="46.3061400" lon="9.9892060">
	<ele>2364.60</ele>
	<time>2021-08-31T08:40:22.000Z</time>
</trkpt>
<trkpt lat="46.3061310" lon="9.9891760">
	<ele>2364.60</ele>
	<time>2021-08-31T08:40:26.000Z</time>
</trkpt>
<trkpt lat="46.3061310" lon="9.9891760">
	<ele>2364.40</ele>
	<time>2021-08-31T08:40:30.000Z</time>
</trkpt>
<trkpt lat="46.3061310" lon="9.9891940">
	<ele>2364.60</ele>
	<time>2021-08-31T08:40:38.000Z</time>
</trkpt>
<trkpt lat="46.3061300" lon="9.9892010">
	<ele>2364.60</ele>
	<time>2021-08-31T08:40:41.000Z</time>
</trkpt>
<trkpt lat="46.3061260" lon="9.9892010">
	<ele>2364.60</ele>
	<time>2021-08-31T08:40:50.000Z</time>
</trkpt>
<trkpt lat="46.3061250" lon="9.9892000">
	<ele>2364.80</ele>
	<time>2021-08-31T08:40:54.000Z</time>
</trkpt>
<trkpt lat="46.3061250" lon="9.9892000">
	<ele>2364.80</ele>
	<time>2021-08-31T08:40:55.000Z</time>
</trkpt>
<trkpt lat="46.3061180" lon="9.9891960">
	<ele>2364.40</ele>
	<time>2021-08-31T08:41:11.000Z</time>
</trkpt>
<trkpt lat="46.3061180" lon="9.9891950">
	<ele>2364.40</ele>
	<time>2021-08-31T08:41:13.000Z</time>
</trkpt>
<trkpt lat="46.3061180" lon="9.9891940">
	<ele>2364.40</ele>
	<time>2021-08-31T08:41:15.000Z</time>
</trkpt>
<trkpt lat="46.3061180" lon="9.9891720">
	<ele>2365.20</ele>
	<time>2021-08-31T08:41:27.000Z</time>
</trkpt>
<trkpt lat="46.3060750" lon="9.9892180">
	<ele>2365.60</ele>
	<time>2021-08-31T08:41:34.000Z</time>
</trkpt>
<trkpt lat="46.3059960" lon="9.9893100">
	<ele>2365.80</ele>
	<time>2021-08-31T08:41:41.000Z</time>
</trkpt>
<trkpt lat="46.3059560" lon="9.9893540">
	<ele>2366.20</ele>
	<time>2021-08-31T08:41:46.000Z</time>
</trkpt>
<trkpt lat="46.3059170" lon="9.9893810">
	<ele>2366.40</ele>
	<time>2021-08-31T08:41:50.000Z</time>
</trkpt>
<trkpt lat="46.3058650" lon="9.9894720">
	<ele>2366.40</ele>
	<time>2021-08-31T08:41:58.000Z</time>
</trkpt>
<trkpt lat="46.3058560" lon="9.9894940">
	<ele>2366.40</ele>
	<time>2021-08-31T08:42:00.000Z</time>
</trkpt>
<trkpt lat="46.3058330" lon="9.9895590">
	<ele>2366.40</ele>
	<time>2021-08-31T08:42:05.000Z</time>
</trkpt>
<trkpt lat="46.3058140" lon="9.9895740">
	<ele>2366.40</ele>
	<time>2021-08-31T08:42:07.000Z</time>
</trkpt>
<trkpt lat="46.3058070" lon="9.9895820">
	<ele>2366.20</ele>
	<time>2021-08-31T08:42:08.000Z</time>
</trkpt>
<trkpt lat="46.3057810" lon="9.9896020">
	<ele>2366.00</ele>
	<time>2021-08-31T08:42:14.000Z</time>
</trkpt>
<trkpt lat="46.3057830" lon="9.9895930">
	<ele>2366.00</ele>
	<time>2021-08-31T08:42:15.000Z</time>
</trkpt>
<trkpt lat="46.3057760" lon="9.9895800">
	<ele>2366.00</ele>
	<time>2021-08-31T08:42:16.000Z</time>
</trkpt>
<trkpt lat="46.3057680" lon="9.9895630">
	<ele>2366.00</ele>
	<time>2021-08-31T08:42:17.000Z</time>
</trkpt>
<trkpt lat="46.3057550" lon="9.9895520">
	<ele>2366.00</ele>
	<time>2021-08-31T08:42:18.000Z</time>
</trkpt>
<trkpt lat="46.3057350" lon="9.9895520">
	<ele>2366.00</ele>
	<time>2021-08-31T08:42:20.000Z</time>
</trkpt>
<trkpt lat="46.3056360" lon="9.9896220">
	<ele>2366.20</ele>
	<time>2021-08-31T08:42:29.000Z</time>
</trkpt>
<trkpt lat="46.3055640" lon="9.9897440">
	<ele>2366.20</ele>
	<time>2021-08-31T08:42:39.000Z</time>
</trkpt>
<trkpt lat="46.3055510" lon="9.9897920">
	<ele>2366.60</ele>
	<time>2021-08-31T08:42:43.000Z</time>
</trkpt>
<trkpt lat="46.3055500" lon="9.9898360">
	<ele>2367.40</ele>
	<time>2021-08-31T08:42:46.000Z</time>
</trkpt>
<trkpt lat="46.3055500" lon="9.9899690">
	<ele>2368.00</ele>
	<time>2021-08-31T08:42:54.000Z</time>
</trkpt>
<trkpt lat="46.3055370" lon="9.9900610">
	<ele>2368.40</ele>
	<time>2021-08-31T08:43:00.000Z</time>
</trkpt>
<trkpt lat="46.3055290" lon="9.9900700">
	<ele>2368.40</ele>
	<time>2021-08-31T08:43:01.000Z</time>
</trkpt>
<trkpt lat="46.3055160" lon="9.9900900">
	<ele>2368.60</ele>
	<time>2021-08-31T08:43:03.000Z</time>
</trkpt>
<trkpt lat="46.3054990" lon="9.9901630">
	<ele>2369.40</ele>
	<time>2021-08-31T08:43:09.000Z</time>
</trkpt>
<trkpt lat="46.3054920" lon="9.9901700">
	<ele>2369.60</ele>
	<time>2021-08-31T08:43:10.000Z</time>
</trkpt>
<trkpt lat="46.3054930" lon="9.9901920">
	<ele>2370.00</ele>
	<time>2021-08-31T08:43:12.000Z</time>
</trkpt>
<trkpt lat="46.3054970" lon="9.9902220">
	<ele>2371.00</ele>
	<time>2021-08-31T08:43:15.000Z</time>
</trkpt>
<trkpt lat="46.3055090" lon="9.9902390">
	<ele>2371.40</ele>
	<time>2021-08-31T08:43:17.000Z</time>
</trkpt>
<trkpt lat="46.3055050" lon="9.9902500">
	<ele>2371.60</ele>
	<time>2021-08-31T08:43:19.000Z</time>
</trkpt>
<trkpt lat="46.3055040" lon="9.9902570">
	<ele>2371.60</ele>
	<time>2021-08-31T08:43:20.000Z</time>
</trkpt>
<trkpt lat="46.3055000" lon="9.9902910">
	<ele>2371.80</ele>
	<time>2021-08-31T08:43:23.000Z</time>
</trkpt>
<trkpt lat="46.3054800" lon="9.9903190">
	<ele>2371.60</ele>
	<time>2021-08-31T08:43:27.000Z</time>
</trkpt>
<trkpt lat="46.3054260" lon="9.9903900">
	<ele>2371.60</ele>
	<time>2021-08-31T08:43:36.000Z</time>
</trkpt>
<trkpt lat="46.3053810" lon="9.9904480">
	<ele>2371.00</ele>
	<time>2021-08-31T08:43:44.000Z</time>
</trkpt>
<trkpt lat="46.3053360" lon="9.9904910">
	<ele>2370.80</ele>
	<time>2021-08-31T08:43:49.000Z</time>
</trkpt>
<trkpt lat="46.3053070" lon="9.9905040">
	<ele>2370.80</ele>
	<time>2021-08-31T08:43:51.000Z</time>
</trkpt>
<trkpt lat="46.3052620" lon="9.9905720">
	<ele>2370.60</ele>
	<time>2021-08-31T08:43:57.000Z</time>
</trkpt>
<trkpt lat="46.3052050" lon="9.9906680">
	<ele>2370.60</ele>
	<time>2021-08-31T08:44:05.000Z</time>
</trkpt>
<trkpt lat="46.3051530" lon="9.9908070">
	<ele>2370.20</ele>
	<time>2021-08-31T08:44:15.000Z</time>
</trkpt>
<trkpt lat="46.3051160" lon="9.9908830">
	<ele>2370.60</ele>
	<time>2021-08-31T08:44:22.000Z</time>
</trkpt>
<trkpt lat="46.3051100" lon="9.9908870">
	<ele>2370.60</ele>
	<time>2021-08-31T08:44:23.000Z</time>
</trkpt>
<trkpt lat="46.3050750" lon="9.9909250">
	<ele>2371.00</ele>
	<time>2021-08-31T08:44:28.000Z</time>
</trkpt>
<trkpt lat="46.3050650" lon="9.9909370">
	<ele>2371.00</ele>
	<time>2021-08-31T08:44:29.000Z</time>
</trkpt>
<trkpt lat="46.3050280" lon="9.9910220">
	<ele>2370.00</ele>
	<time>2021-08-31T08:44:37.000Z</time>
</trkpt>
<trkpt lat="46.3049580" lon="9.9911210">
	<ele>2371.00</ele>
	<time>2021-08-31T08:44:46.000Z</time>
</trkpt>
<trkpt lat="46.3049530" lon="9.9911290">
	<ele>2371.20</ele>
	<time>2021-08-31T08:44:47.000Z</time>
</trkpt>
<trkpt lat="46.3049290" lon="9.9911530">
	<ele>2372.00</ele>
	<time>2021-08-31T08:44:51.000Z</time>
</trkpt>
<trkpt lat="46.3049220" lon="9.9911660">
	<ele>2372.00</ele>
	<time>2021-08-31T08:44:52.000Z</time>
</trkpt>
<trkpt lat="46.3048930" lon="9.9912560">
	<ele>2372.00</ele>
	<time>2021-08-31T08:44:59.000Z</time>
</trkpt>
<trkpt lat="46.3048620" lon="9.9912910">
	<ele>2372.40</ele>
	<time>2021-08-31T08:45:03.000Z</time>
</trkpt>
<trkpt lat="46.3048220" lon="9.9913310">
	<ele>2372.40</ele>
	<time>2021-08-31T08:45:07.000Z</time>
</trkpt>
<trkpt lat="46.3047690" lon="9.9914040">
	<ele>2372.20</ele>
	<time>2021-08-31T08:45:13.000Z</time>
</trkpt>
<trkpt lat="46.3047620" lon="9.9914370">
	<ele>2372.20</ele>
	<time>2021-08-31T08:45:15.000Z</time>
</trkpt>
<trkpt lat="46.3047090" lon="9.9915580">
	<ele>2372.80</ele>
	<time>2021-08-31T08:45:24.000Z</time>
</trkpt>
<trkpt lat="46.3046950" lon="9.9915830">
	<ele>2373.00</ele>
	<time>2021-08-31T08:45:27.000Z</time>
</trkpt>
<trkpt lat="46.3046860" lon="9.9915910">
	<ele>2373.00</ele>
	<time>2021-08-31T08:45:28.000Z</time>
</trkpt>
<trkpt lat="46.3046380" lon="9.9916200">
	<ele>2373.00</ele>
	<time>2021-08-31T08:45:32.000Z</time>
</trkpt>
<trkpt lat="46.3046220" lon="9.9916290">
	<ele>2373.20</ele>
	<time>2021-08-31T08:45:33.000Z</time>
</trkpt>
<trkpt lat="46.3046110" lon="9.9916550">
	<ele>2373.20</ele>
	<time>2021-08-31T08:45:35.000Z</time>
</trkpt>
<trkpt lat="46.3046090" lon="9.9916850">
	<ele>2373.40</ele>
	<time>2021-08-31T08:45:37.000Z</time>
</trkpt>
<trkpt lat="46.3045910" lon="9.9917090">
	<ele>2373.60</ele>
	<time>2021-08-31T08:45:39.000Z</time>
</trkpt>
<trkpt lat="46.3045820" lon="9.9917240">
	<ele>2373.60</ele>
	<time>2021-08-31T08:45:41.000Z</time>
</trkpt>
<trkpt lat="46.3045640" lon="9.9917470">
	<ele>2373.80</ele>
	<time>2021-08-31T08:45:43.000Z</time>
</trkpt>
<trkpt lat="46.3045540" lon="9.9917860">
	<ele>2374.00</ele>
	<time>2021-08-31T08:45:46.000Z</time>
</trkpt>
<trkpt lat="46.3045540" lon="9.9918010">
	<ele>2374.20</ele>
	<time>2021-08-31T08:45:47.000Z</time>
</trkpt>
<trkpt lat="46.3045310" lon="9.9918500">
	<ele>2374.80</ele>
	<time>2021-08-31T08:45:53.000Z</time>
</trkpt>
<trkpt lat="46.3044910" lon="9.9918810">
	<ele>2374.80</ele>
	<time>2021-08-31T08:45:57.000Z</time>
</trkpt>
<trkpt lat="46.3044640" lon="9.9919260">
	<ele>2375.00</ele>
	<time>2021-08-31T08:46:01.000Z</time>
</trkpt>
<trkpt lat="46.3044550" lon="9.9919640">
	<ele>2375.00</ele>
	<time>2021-08-31T08:46:04.000Z</time>
</trkpt>
<trkpt lat="46.3044190" lon="9.9920090">
	<ele>2375.40</ele>
	<time>2021-08-31T08:46:08.000Z</time>
</trkpt>
<trkpt lat="46.3043540" lon="9.9921300">
	<ele>2376.00</ele>
	<time>2021-08-31T08:46:21.000Z</time>
</trkpt>
<trkpt lat="46.3043450" lon="9.9921370">
	<ele>2376.20</ele>
	<time>2021-08-31T08:46:22.000Z</time>
</trkpt>
<trkpt lat="46.3043120" lon="9.9921670">
	<ele>2376.60</ele>
	<time>2021-08-31T08:46:27.000Z</time>
</trkpt>
<trkpt lat="46.3042790" lon="9.9921900">
	<ele>2376.40</ele>
	<time>2021-08-31T08:46:30.000Z</time>
</trkpt>
<trkpt lat="46.3042580" lon="9.9922030">
	<ele>2376.40</ele>
	<time>2021-08-31T08:46:32.000Z</time>
</trkpt>
<trkpt lat="46.3042250" lon="9.9922460">
	<ele>2376.60</ele>
	<time>2021-08-31T08:46:38.000Z</time>
</trkpt>
<trkpt lat="46.3041970" lon="9.9922510">
	<ele>2376.80</ele>
	<time>2021-08-31T08:46:40.000Z</time>
</trkpt>
<trkpt lat="46.3041050" lon="9.9923290">
	<ele>2376.80</ele>
	<time>2021-08-31T08:46:50.000Z</time>
</trkpt>
<trkpt lat="46.3040400" lon="9.9923940">
	<ele>2377.00</ele>
	<time>2021-08-31T08:46:57.000Z</time>
</trkpt>
<trkpt lat="46.3040160" lon="9.9924050">
	<ele>2377.40</ele>
	<time>2021-08-31T08:46:59.000Z</time>
</trkpt>
<trkpt lat="46.3039760" lon="9.9924660">
	<ele>2377.60</ele>
	<time>2021-08-31T08:47:04.000Z</time>
</trkpt>
<trkpt lat="46.3039680" lon="9.9924800">
	<ele>2377.80</ele>
	<time>2021-08-31T08:47:05.000Z</time>
</trkpt>
<trkpt lat="46.3039000" lon="9.9925660">
	<ele>2378.20</ele>
	<time>2021-08-31T08:47:14.000Z</time>
</trkpt>
<trkpt lat="46.3038910" lon="9.9925940">
	<ele>2378.20</ele>
	<time>2021-08-31T08:47:18.000Z</time>
</trkpt>
<trkpt lat="46.3038680" lon="9.9926160">
	<ele>2378.40</ele>
	<time>2021-08-31T08:47:20.000Z</time>
</trkpt>
<trkpt lat="46.3038430" lon="9.9926310">
	<ele>2378.60</ele>
	<time>2021-08-31T08:47:23.000Z</time>
</trkpt>
<trkpt lat="46.3038190" lon="9.9926720">
	<ele>2378.80</ele>
	<time>2021-08-31T08:47:27.000Z</time>
</trkpt>
<trkpt lat="46.3037370" lon="9.9927400">
	<ele>2379.40</ele>
	<time>2021-08-31T08:47:37.000Z</time>
</trkpt>
<trkpt lat="46.3036780" lon="9.9927850">
	<ele>2379.80</ele>
	<time>2021-08-31T08:47:44.000Z</time>
</trkpt>
<trkpt lat="46.3036250" lon="9.9928470">
	<ele>2380.20</ele>
	<time>2021-08-31T08:47:51.000Z</time>
</trkpt>
<trkpt lat="46.3036090" lon="9.9928630">
	<ele>2380.60</ele>
	<time>2021-08-31T08:47:53.000Z</time>
</trkpt>
<trkpt lat="46.3035980" lon="9.9928690">
	<ele>2380.80</ele>
	<time>2021-08-31T08:47:54.000Z</time>
</trkpt>
<trkpt lat="46.3035510" lon="9.9928940">
	<ele>2381.20</ele>
	<time>2021-08-31T08:47:59.000Z</time>
</trkpt>
<trkpt lat="46.3035020" lon="9.9929170">
	<ele>2381.20</ele>
	<time>2021-08-31T08:48:03.000Z</time>
</trkpt>
<trkpt lat="46.3034820" lon="9.9929470">
	<ele>2381.60</ele>
	<time>2021-08-31T08:48:06.000Z</time>
</trkpt>
<trkpt lat="46.3034420" lon="9.9929920">
	<ele>2381.60</ele>
	<time>2021-08-31T08:48:11.000Z</time>
</trkpt>
<trkpt lat="46.3034050" lon="9.9930630">
	<ele>2382.80</ele>
	<time>2021-08-31T08:48:17.000Z</time>
</trkpt>
<trkpt lat="46.3033980" lon="9.9930950">
	<ele>2383.00</ele>
	<time>2021-08-31T08:48:20.000Z</time>
</trkpt>
<trkpt lat="46.3033720" lon="9.9931000">
	<ele>2383.20</ele>
	<time>2021-08-31T08:48:22.000Z</time>
</trkpt>
<trkpt lat="46.3032900" lon="9.9931640">
	<ele>2383.80</ele>
	<time>2021-08-31T08:48:31.000Z</time>
</trkpt>
<trkpt lat="46.3032510" lon="9.9931660">
	<ele>2383.80</ele>
	<time>2021-08-31T08:48:34.000Z</time>
</trkpt>
<trkpt lat="46.3031910" lon="9.9931970">
	<ele>2384.20</ele>
	<time>2021-08-31T08:48:41.000Z</time>
</trkpt>
<trkpt lat="46.3030820" lon="9.9932000">
	<ele>2384.80</ele>
	<time>2021-08-31T08:48:51.000Z</time>
</trkpt>
<trkpt lat="46.3030700" lon="9.9932050">
	<ele>2384.80</ele>
	<time>2021-08-31T08:48:52.000Z</time>
</trkpt>
<trkpt lat="46.3030580" lon="9.9932140">
	<ele>2384.80</ele>
	<time>2021-08-31T08:48:53.000Z</time>
</trkpt>
<trkpt lat="46.3030080" lon="9.9932410">
	<ele>2384.80</ele>
	<time>2021-08-31T08:48:57.000Z</time>
</trkpt>
<trkpt lat="46.3029890" lon="9.9932550">
	<ele>2384.60</ele>
	<time>2021-08-31T08:48:59.000Z</time>
</trkpt>
<trkpt lat="46.3029540" lon="9.9933000">
	<ele>2384.00</ele>
	<time>2021-08-31T08:49:04.000Z</time>
</trkpt>
<trkpt lat="46.3029510" lon="9.9932980">
	<ele>2383.80</ele>
	<time>2021-08-31T08:49:06.000Z</time>
</trkpt>
<trkpt lat="46.3029510" lon="9.9932960">
	<ele>2383.60</ele>
	<time>2021-08-31T08:49:07.000Z</time>
</trkpt>
<trkpt lat="46.3029560" lon="9.9933040">
	<ele>2383.60</ele>
	<time>2021-08-31T08:49:09.000Z</time>
</trkpt>
<trkpt lat="46.3029710" lon="9.9933250">
	<ele>2383.40</ele>
	<time>2021-08-31T08:49:17.000Z</time>
</trkpt>
<trkpt lat="46.3029710" lon="9.9933250">
	<ele>2383.00</ele>
	<time>2021-08-31T08:49:20.000Z</time>
</trkpt>
<trkpt lat="46.3029710" lon="9.9933250">
	<ele>2383.20</ele>
	<time>2021-08-31T08:49:23.000Z</time>
</trkpt>
<trkpt lat="46.3029710" lon="9.9933250">
	<ele>2383.60</ele>
	<time>2021-08-31T08:49:28.000Z</time>
</trkpt>
<trkpt lat="46.3029720" lon="9.9933250">
	<ele>2383.80</ele>
	<time>2021-08-31T08:49:31.000Z</time>
</trkpt>
<trkpt lat="46.3029520" lon="9.9932930">
	<ele>2384.80</ele>
	<time>2021-08-31T08:49:44.000Z</time>
</trkpt>
<trkpt lat="46.3028920" lon="9.9932970">
	<ele>2385.80</ele>
	<time>2021-08-31T08:49:48.000Z</time>
</trkpt>
<trkpt lat="46.3028790" lon="9.9933020">
	<ele>2385.80</ele>
	<time>2021-08-31T08:49:49.000Z</time>
</trkpt>
<trkpt lat="46.3028130" lon="9.9933290">
	<ele>2386.40</ele>
	<time>2021-08-31T08:49:54.000Z</time>
</trkpt>
<trkpt lat="46.3027610" lon="9.9933580">
	<ele>2387.00</ele>
	<time>2021-08-31T08:49:58.000Z</time>
</trkpt>
<trkpt lat="46.3027130" lon="9.9934010">
	<ele>2387.60</ele>
	<time>2021-08-31T08:50:04.000Z</time>
</trkpt>
<trkpt lat="46.3027000" lon="9.9934050">
	<ele>2387.60</ele>
	<time>2021-08-31T08:50:05.000Z</time>
</trkpt>
<trkpt lat="46.3026970" lon="9.9934130">
	<ele>2387.80</ele>
	<time>2021-08-31T08:50:06.000Z</time>
</trkpt>
<trkpt lat="46.3026940" lon="9.9934220">
	<ele>2388.00</ele>
	<time>2021-08-31T08:50:07.000Z</time>
</trkpt>
<trkpt lat="46.3026600" lon="9.9934610">
	<ele>2388.40</ele>
	<time>2021-08-31T08:50:12.000Z</time>
</trkpt>
<trkpt lat="46.3026400" lon="9.9934740">
	<ele>2388.80</ele>
	<time>2021-08-31T08:50:14.000Z</time>
</trkpt>
<trkpt lat="46.3026340" lon="9.9934790">
	<ele>2389.00</ele>
	<time>2021-08-31T08:50:15.000Z</time>
</trkpt>
<trkpt lat="46.3025770" lon="9.9935010">
	<ele>2389.40</ele>
	<time>2021-08-31T08:50:20.000Z</time>
</trkpt>
<trkpt lat="46.3025320" lon="9.9935200">
	<ele>2390.00</ele>
	<time>2021-08-31T08:50:24.000Z</time>
</trkpt>
<trkpt lat="46.3024710" lon="9.9935480">
	<ele>2390.40</ele>
	<time>2021-08-31T08:50:29.000Z</time>
</trkpt>
<trkpt lat="46.3024180" lon="9.9935650">
	<ele>2391.20</ele>
	<time>2021-08-31T08:50:34.000Z</time>
</trkpt>
<trkpt lat="46.3023850" lon="9.9936060">
	<ele>2391.60</ele>
	<time>2021-08-31T08:50:38.000Z</time>
</trkpt>
<trkpt lat="46.3023700" lon="9.9936200">
	<ele>2391.60</ele>
	<time>2021-08-31T08:50:40.000Z</time>
</trkpt>
<trkpt lat="46.3023450" lon="9.9936590">
	<ele>2392.00</ele>
	<time>2021-08-31T08:50:44.000Z</time>
</trkpt>
<trkpt lat="46.3023360" lon="9.9936660">
	<ele>2392.20</ele>
	<time>2021-08-31T08:50:45.000Z</time>
</trkpt>
<trkpt lat="46.3022650" lon="9.9937360">
	<ele>2393.00</ele>
	<time>2021-08-31T08:50:53.000Z</time>
</trkpt>
<trkpt lat="46.3022530" lon="9.9937570">
	<ele>2393.00</ele>
	<time>2021-08-31T08:50:55.000Z</time>
</trkpt>
<trkpt lat="46.3022290" lon="9.9937710">
	<ele>2393.40</ele>
	<time>2021-08-31T08:50:57.000Z</time>
</trkpt>
<trkpt lat="46.3021970" lon="9.9937900">
	<ele>2393.60</ele>
	<time>2021-08-31T08:51:00.000Z</time>
</trkpt>
<trkpt lat="46.3021180" lon="9.9938680">
	<ele>2394.40</ele>
	<time>2021-08-31T08:51:08.000Z</time>
</trkpt>
<trkpt lat="46.3021100" lon="9.9939070">
	<ele>2394.60</ele>
	<time>2021-08-31T08:51:11.000Z</time>
</trkpt>
<trkpt lat="46.3020710" lon="9.9939620">
	<ele>2394.60</ele>
	<time>2021-08-31T08:51:17.000Z</time>
</trkpt>
<trkpt lat="46.3020590" lon="9.9939610">
	<ele>2394.60</ele>
	<time>2021-08-31T08:51:18.000Z</time>
</trkpt>
<trkpt lat="46.3019970" lon="9.9939680">
	<ele>2395.40</ele>
	<time>2021-08-31T08:51:25.000Z</time>
</trkpt>
<trkpt lat="46.3019750" lon="9.9939800">
	<ele>2395.80</ele>
	<time>2021-08-31T08:51:27.000Z</time>
</trkpt>
<trkpt lat="46.3019160" lon="9.9940420">
	<ele>2396.60</ele>
	<time>2021-08-31T08:51:34.000Z</time>
</trkpt>
<trkpt lat="46.3019030" lon="9.9940550">
	<ele>2396.60</ele>
	<time>2021-08-31T08:51:36.000Z</time>
</trkpt>
<trkpt lat="46.3018570" lon="9.9941060">
	<ele>2397.00</ele>
	<time>2021-08-31T08:51:41.000Z</time>
</trkpt>
<trkpt lat="46.3018710" lon="9.9941360">
	<ele>2397.20</ele>
	<time>2021-08-31T08:51:44.000Z</time>
</trkpt>
<trkpt lat="46.3018570" lon="9.9941740">
	<ele>2397.60</ele>
	<time>2021-08-31T08:51:50.000Z</time>
</trkpt>
<trkpt lat="46.3018500" lon="9.9941800">
	<ele>2397.60</ele>
	<time>2021-08-31T08:51:51.000Z</time>
</trkpt>
<trkpt lat="46.3017810" lon="9.9942200">
	<ele>2397.80</ele>
	<time>2021-08-31T08:51:57.000Z</time>
</trkpt>
<trkpt lat="46.3016990" lon="9.9943030">
	<ele>2398.20</ele>
	<time>2021-08-31T08:52:06.000Z</time>
</trkpt>
<trkpt lat="46.3016470" lon="9.9943600">
	<ele>2398.60</ele>
	<time>2021-08-31T08:52:13.000Z</time>
</trkpt>
<trkpt lat="46.3016080" lon="9.9943640">
	<ele>2398.60</ele>
	<time>2021-08-31T08:52:17.000Z</time>
</trkpt>
<trkpt lat="46.3015730" lon="9.9943910">
	<ele>2399.00</ele>
	<time>2021-08-31T08:52:21.000Z</time>
</trkpt>
<trkpt lat="46.3015550" lon="9.9944040">
	<ele>2399.20</ele>
	<time>2021-08-31T08:52:23.000Z</time>
</trkpt>
<trkpt lat="46.3015270" lon="9.9944430">
	<ele>2399.60</ele>
	<time>2021-08-31T08:52:28.000Z</time>
</trkpt>
<trkpt lat="46.3015090" lon="9.9944510">
	<ele>2399.80</ele>
	<time>2021-08-31T08:52:30.000Z</time>
</trkpt>
<trkpt lat="46.3014260" lon="9.9944970">
	<ele>2400.40</ele>
	<time>2021-08-31T08:52:37.000Z</time>
</trkpt>
<trkpt lat="46.3013830" lon="9.9945220">
	<ele>2400.80</ele>
	<time>2021-08-31T08:52:42.000Z</time>
</trkpt>
<trkpt lat="46.3014070" lon="9.9945380">
	<ele>2400.60</ele>
	<time>2021-08-31T08:52:45.000Z</time>
</trkpt>
<trkpt lat="46.3014070" lon="9.9945350">
	<ele>2400.60</ele>
	<time>2021-08-31T08:52:46.000Z</time>
</trkpt>
<trkpt lat="46.3013770" lon="9.9945340">
	<ele>2400.80</ele>
	<time>2021-08-31T08:52:53.000Z</time>
</trkpt>
<trkpt lat="46.3013820" lon="9.9945350">
	<ele>2401.20</ele>
	<time>2021-08-31T08:52:59.000Z</time>
</trkpt>
<trkpt lat="46.3013860" lon="9.9945520">
	<ele>2400.80</ele>
	<time>2021-08-31T08:53:03.000Z</time>
</trkpt>
<trkpt lat="46.3013840" lon="9.9945520">
	<ele>2401.20</ele>
	<time>2021-08-31T08:53:10.000Z</time>
</trkpt>
<trkpt lat="46.3013360" lon="9.9945860">
	<ele>2400.60</ele>
	<time>2021-08-31T08:53:18.000Z</time>
</trkpt>
<trkpt lat="46.3012350" lon="9.9946370">
	<ele>2401.20</ele>
	<time>2021-08-31T08:53:25.000Z</time>
</trkpt>
<trkpt lat="46.3012160" lon="9.9946620">
	<ele>2401.40</ele>
	<time>2021-08-31T08:53:28.000Z</time>
</trkpt>
<trkpt lat="46.3011830" lon="9.9947160">
	<ele>2401.80</ele>
	<time>2021-08-31T08:53:35.000Z</time>
</trkpt>
<trkpt lat="46.3011240" lon="9.9947560">
	<ele>2402.60</ele>
	<time>2021-08-31T08:53:42.000Z</time>
</trkpt>
<trkpt lat="46.3011140" lon="9.9947840">
	<ele>2402.80</ele>
	<time>2021-08-31T08:53:44.000Z</time>
</trkpt>
<trkpt lat="46.3010570" lon="9.9948330">
	<ele>2403.40</ele>
	<time>2021-08-31T08:53:50.000Z</time>
</trkpt>
<trkpt lat="46.3010090" lon="9.9948620">
	<ele>2404.00</ele>
	<time>2021-08-31T08:53:55.000Z</time>
</trkpt>
<trkpt lat="46.3010000" lon="9.9948680">
	<ele>2404.00</ele>
	<time>2021-08-31T08:53:56.000Z</time>
</trkpt>
<trkpt lat="46.3009050" lon="9.9949180">
	<ele>2404.20</ele>
	<time>2021-08-31T08:54:05.000Z</time>
</trkpt>
<trkpt lat="46.3008960" lon="9.9949350">
	<ele>2404.20</ele>
	<time>2021-08-31T08:54:07.000Z</time>
</trkpt>
<trkpt lat="46.3008880" lon="9.9949410">
	<ele>2404.20</ele>
	<time>2021-08-31T08:54:08.000Z</time>
</trkpt>
<trkpt lat="46.3008320" lon="9.9949720">
	<ele>2404.40</ele>
	<time>2021-08-31T08:54:14.000Z</time>
</trkpt>
<trkpt lat="46.3007880" lon="9.9950860">
	<ele>2404.60</ele>
	<time>2021-08-31T08:54:24.000Z</time>
</trkpt>
<trkpt lat="46.3007590" lon="9.9950980">
	<ele>2404.80</ele>
	<time>2021-08-31T08:54:29.000Z</time>
</trkpt>
<trkpt lat="46.3007310" lon="9.9950990">
	<ele>2405.00</ele>
	<time>2021-08-31T08:54:31.000Z</time>
</trkpt>
<trkpt lat="46.3007250" lon="9.9951040">
	<ele>2405.20</ele>
	<time>2021-08-31T08:54:32.000Z</time>
</trkpt>
<trkpt lat="46.3006850" lon="9.9951030">
	<ele>2405.60</ele>
	<time>2021-08-31T08:54:39.000Z</time>
</trkpt>
<trkpt lat="46.3006450" lon="9.9951180">
	<ele>2405.80</ele>
	<time>2021-08-31T08:54:43.000Z</time>
</trkpt>
<trkpt lat="46.3006300" lon="9.9951370">
	<ele>2406.40</ele>
	<time>2021-08-31T08:54:45.000Z</time>
</trkpt>
<trkpt lat="46.3005920" lon="9.9951590">
	<ele>2407.00</ele>
	<time>2021-08-31T08:54:49.000Z</time>
</trkpt>
<trkpt lat="46.3005800" lon="9.9951880">
	<ele>2407.60</ele>
	<time>2021-08-31T08:54:52.000Z</time>
</trkpt>
<trkpt lat="46.3005770" lon="9.9952020">
	<ele>2407.80</ele>
	<time>2021-08-31T08:54:54.000Z</time>
</trkpt>
<trkpt lat="46.3005630" lon="9.9952060">
	<ele>2408.00</ele>
	<time>2021-08-31T08:54:56.000Z</time>
</trkpt>
<trkpt lat="46.3005540" lon="9.9952080">
	<ele>2408.20</ele>
	<time>2021-08-31T08:54:57.000Z</time>
</trkpt>
<trkpt lat="46.3005410" lon="9.9952190">
	<ele>2408.60</ele>
	<time>2021-08-31T08:54:59.000Z</time>
</trkpt>
<trkpt lat="46.3005290" lon="9.9952250">
	<ele>2408.80</ele>
	<time>2021-08-31T08:55:01.000Z</time>
</trkpt>
<trkpt lat="46.3005060" lon="9.9952560">
	<ele>2409.40</ele>
	<time>2021-08-31T08:55:05.000Z</time>
</trkpt>
<trkpt lat="46.3004950" lon="9.9952600">
	<ele>2409.40</ele>
	<time>2021-08-31T08:55:06.000Z</time>
</trkpt>
<trkpt lat="46.3004890" lon="9.9952610">
	<ele>2409.60</ele>
	<time>2021-08-31T08:55:07.000Z</time>
</trkpt>
<trkpt lat="46.3004740" lon="9.9952640">
	<ele>2409.80</ele>
	<time>2021-08-31T08:55:09.000Z</time>
</trkpt>
<trkpt lat="46.3004420" lon="9.9952740">
	<ele>2410.40</ele>
	<time>2021-08-31T08:55:13.000Z</time>
</trkpt>
<trkpt lat="46.3004280" lon="9.9952730">
	<ele>2410.60</ele>
	<time>2021-08-31T08:55:15.000Z</time>
</trkpt>
<trkpt lat="46.3004240" lon="9.9952740">
	<ele>2410.80</ele>
	<time>2021-08-31T08:55:16.000Z</time>
</trkpt>
<trkpt lat="46.3004210" lon="9.9952760">
	<ele>2411.00</ele>
	<time>2021-08-31T08:55:17.000Z</time>
</trkpt>
<trkpt lat="46.3004050" lon="9.9952950">
	<ele>2411.80</ele>
	<time>2021-08-31T08:55:21.000Z</time>
</trkpt>
<trkpt lat="46.3004060" lon="9.9953030">
	<ele>2412.20</ele>
	<time>2021-08-31T08:55:22.000Z</time>
</trkpt>
<trkpt lat="46.3004010" lon="9.9953180">
	<ele>2412.60</ele>
	<time>2021-08-31T08:55:24.000Z</time>
</trkpt>
<trkpt lat="46.3003880" lon="9.9953490">
	<ele>2413.00</ele>
	<time>2021-08-31T08:55:27.000Z</time>
</trkpt>
<trkpt lat="46.3003650" lon="9.9953690">
	<ele>2413.60</ele>
	<time>2021-08-31T08:55:31.000Z</time>
</trkpt>
<trkpt lat="46.3002960" lon="9.9954010">
	<ele>2413.80</ele>
	<time>2021-08-31T08:55:39.000Z</time>
</trkpt>
<trkpt lat="46.3002930" lon="9.9954010">
	<ele>2413.80</ele>
	<time>2021-08-31T08:55:40.000Z</time>
</trkpt>
<trkpt lat="46.3003000" lon="9.9954050">
	<ele>2413.80</ele>
	<time>2021-08-31T08:55:45.000Z</time>
</trkpt>
<trkpt lat="46.3002930" lon="9.9953850">
	<ele>2414.00</ele>
	<time>2021-08-31T08:55:56.000Z</time>
</trkpt>
<trkpt lat="46.3002910" lon="9.9953920">
	<ele>2413.80</ele>
	<time>2021-08-31T08:56:06.000Z</time>
</trkpt>
<trkpt lat="46.3002110" lon="9.9955160">
	<ele>2413.80</ele>
	<time>2021-08-31T08:56:14.000Z</time>
</trkpt>
<trkpt lat="46.3001080" lon="9.9956000">
	<ele>2414.20</ele>
	<time>2021-08-31T08:56:24.000Z</time>
</trkpt>
<trkpt lat="46.3000480" lon="9.9956310">
	<ele>2414.60</ele>
	<time>2021-08-31T08:56:31.000Z</time>
</trkpt>
<trkpt lat="46.2999760" lon="9.9956500">
	<ele>2415.00</ele>
	<time>2021-08-31T08:56:38.000Z</time>
</trkpt>
<trkpt lat="46.2999640" lon="9.9956510">
	<ele>2415.00</ele>
	<time>2021-08-31T08:56:39.000Z</time>
</trkpt>
<trkpt lat="46.2999080" lon="9.9956520">
	<ele>2414.80</ele>
	<time>2021-08-31T08:56:44.000Z</time>
</trkpt>
<trkpt lat="46.2998800" lon="9.9956690">
	<ele>2414.60</ele>
	<time>2021-08-31T08:56:48.000Z</time>
</trkpt>
<trkpt lat="46.2998720" lon="9.9956690">
	<ele>2414.60</ele>
	<time>2021-08-31T08:56:49.000Z</time>
</trkpt>
<trkpt lat="46.2998690" lon="9.9956630">
	<ele>2414.40</ele>
	<time>2021-08-31T08:56:50.000Z</time>
</trkpt>
<trkpt lat="46.2998530" lon="9.9956380">
	<ele>2414.20</ele>
	<time>2021-08-31T08:56:53.000Z</time>
</trkpt>
<trkpt lat="46.2998230" lon="9.9956250">
	<ele>2414.20</ele>
	<time>2021-08-31T08:56:57.000Z</time>
</trkpt>
<trkpt lat="46.2998130" lon="9.9956470">
	<ele>2414.60</ele>
	<time>2021-08-31T08:56:59.000Z</time>
</trkpt>
<trkpt lat="46.2997900" lon="9.9956680">
	<ele>2415.00</ele>
	<time>2021-08-31T08:57:02.000Z</time>
</trkpt>
<trkpt lat="46.2997460" lon="9.9956970">
	<ele>2415.60</ele>
	<time>2021-08-31T08:57:07.000Z</time>
</trkpt>
<trkpt lat="46.2997360" lon="9.9957040">
	<ele>2415.80</ele>
	<time>2021-08-31T08:57:08.000Z</time>
</trkpt>
<trkpt lat="46.2997140" lon="9.9957150">
	<ele>2416.20</ele>
	<time>2021-08-31T08:57:10.000Z</time>
</trkpt>
<trkpt lat="46.2996690" lon="9.9957520">
	<ele>2417.20</ele>
	<time>2021-08-31T08:57:17.000Z</time>
</trkpt>
<trkpt lat="46.2996690" lon="9.9957660">
	<ele>2417.40</ele>
	<time>2021-08-31T08:57:18.000Z</time>
</trkpt>
<trkpt lat="46.2996510" lon="9.9958030">
	<ele>2418.20</ele>
	<time>2021-08-31T08:57:24.000Z</time>
</trkpt>
<trkpt lat="46.2996520" lon="9.9958070">
	<ele>2418.40</ele>
	<time>2021-08-31T08:57:25.000Z</time>
</trkpt>
<trkpt lat="46.2996510" lon="9.9958140">
	<ele>2418.60</ele>
	<time>2021-08-31T08:57:28.000Z</time>
</trkpt>
<trkpt lat="46.2996390" lon="9.9958160">
	<ele>2419.40</ele>
	<time>2021-08-31T08:57:32.000Z</time>
</trkpt>
<trkpt lat="46.2995980" lon="9.9958260">
	<ele>2420.40</ele>
	<time>2021-08-31T08:57:39.000Z</time>
</trkpt>
<trkpt lat="46.2995670" lon="9.9958250">
	<ele>2421.20</ele>
	<time>2021-08-31T08:57:43.000Z</time>
</trkpt>
<trkpt lat="46.2995520" lon="9.9958300">
	<ele>2421.60</ele>
	<time>2021-08-31T08:57:45.000Z</time>
</trkpt>
<trkpt lat="46.2995350" lon="9.9958460">
	<ele>2422.00</ele>
	<time>2021-08-31T08:57:47.000Z</time>
</trkpt>
<trkpt lat="46.2994590" lon="9.9959140">
	<ele>2422.60</ele>
	<time>2021-08-31T08:57:56.000Z</time>
</trkpt>
<trkpt lat="46.2994480" lon="9.9959190">
	<ele>2422.80</ele>
	<time>2021-08-31T08:57:57.000Z</time>
</trkpt>
<trkpt lat="46.2993590" lon="9.9959480">
	<ele>2423.20</ele>
	<time>2021-08-31T08:58:06.000Z</time>
</trkpt>
<trkpt lat="46.2993520" lon="9.9959540">
	<ele>2423.40</ele>
	<time>2021-08-31T08:58:07.000Z</time>
</trkpt>
<trkpt lat="46.2993050" lon="9.9959710">
	<ele>2423.80</ele>
	<time>2021-08-31T08:58:12.000Z</time>
</trkpt>
<trkpt lat="46.2992350" lon="9.9959870">
	<ele>2424.20</ele>
	<time>2021-08-31T08:58:19.000Z</time>
</trkpt>
<trkpt lat="46.2992030" lon="9.9959890">
	<ele>2424.20</ele>
	<time>2021-08-31T08:58:22.000Z</time>
</trkpt>
<trkpt lat="46.2991860" lon="9.9959950">
	<ele>2424.20</ele>
	<time>2021-08-31T08:58:24.000Z</time>
</trkpt>
<trkpt lat="46.2991810" lon="9.9960010">
	<ele>2424.20</ele>
	<time>2021-08-31T08:58:25.000Z</time>
</trkpt>
<trkpt lat="46.2991630" lon="9.9960280">
	<ele>2424.20</ele>
	<time>2021-08-31T08:58:30.000Z</time>
</trkpt>
<trkpt lat="46.2991500" lon="9.9960210">
	<ele>2424.20</ele>
	<time>2021-08-31T08:58:31.000Z</time>
</trkpt>
<trkpt lat="46.2991200" lon="9.9960180">
	<ele>2424.20</ele>
	<time>2021-08-31T08:58:33.000Z</time>
</trkpt>
<trkpt lat="46.2991070" lon="9.9960080">
	<ele>2424.40</ele>
	<time>2021-08-31T08:58:35.000Z</time>
</trkpt>
<trkpt lat="46.2990900" lon="9.9960220">
	<ele>2424.80</ele>
	<time>2021-08-31T08:58:39.000Z</time>
</trkpt>
<trkpt lat="46.2990800" lon="9.9960240">
	<ele>2425.20</ele>
	<time>2021-08-31T08:58:42.000Z</time>
</trkpt>
<trkpt lat="46.2990570" lon="9.9960300">
	<ele>2425.80</ele>
	<time>2021-08-31T08:58:46.000Z</time>
</trkpt>
<trkpt lat="46.2990360" lon="9.9960450">
	<ele>2426.60</ele>
	<time>2021-08-31T08:58:50.000Z</time>
</trkpt>
<trkpt lat="46.2990200" lon="9.9960520">
	<ele>2427.00</ele>
	<time>2021-08-31T08:58:53.000Z</time>
</trkpt>
<trkpt lat="46.2989950" lon="9.9960600">
	<ele>2427.40</ele>
	<time>2021-08-31T08:58:56.000Z</time>
</trkpt>
<trkpt lat="46.2989720" lon="9.9961120">
	<ele>2428.00</ele>
	<time>2021-08-31T08:59:02.000Z</time>
</trkpt>
<trkpt lat="46.2989470" lon="9.9961400">
	<ele>2428.60</ele>
	<time>2021-08-31T08:59:07.000Z</time>
</trkpt>
<trkpt lat="46.2989290" lon="9.9961370">
	<ele>2429.00</ele>
	<time>2021-08-31T08:59:09.000Z</time>
</trkpt>
<trkpt lat="46.2989230" lon="9.9961420">
	<ele>2429.20</ele>
	<time>2021-08-31T08:59:10.000Z</time>
</trkpt>
<trkpt lat="46.2989080" lon="9.9961580">
	<ele>2430.20</ele>
	<time>2021-08-31T08:59:15.000Z</time>
</trkpt>
<trkpt lat="46.2989110" lon="9.9961540">
	<ele>2430.40</ele>
	<time>2021-08-31T08:59:17.000Z</time>
</trkpt>
<trkpt lat="46.2988870" lon="9.9961470">
	<ele>2431.40</ele>
	<time>2021-08-31T08:59:23.000Z</time>
</trkpt>
<trkpt lat="46.2988680" lon="9.9961660">
	<ele>2431.60</ele>
	<time>2021-08-31T08:59:25.000Z</time>
</trkpt>
<trkpt lat="46.2988590" lon="9.9961710">
	<ele>2431.80</ele>
	<time>2021-08-31T08:59:26.000Z</time>
</trkpt>
<trkpt lat="46.2988450" lon="9.9962210">
	<ele>2432.60</ele>
	<time>2021-08-31T08:59:30.000Z</time>
</trkpt>
<trkpt lat="46.2988290" lon="9.9962420">
	<ele>2433.20</ele>
	<time>2021-08-31T08:59:33.000Z</time>
</trkpt>
<trkpt lat="46.2988220" lon="9.9962650">
	<ele>2433.80</ele>
	<time>2021-08-31T08:59:37.000Z</time>
</trkpt>
<trkpt lat="46.2988280" lon="9.9962640">
	<ele>2433.80</ele>
	<time>2021-08-31T08:59:38.000Z</time>
</trkpt>
<trkpt lat="46.2988480" lon="9.9962500">
	<ele>2434.20</ele>
	<time>2021-08-31T08:59:47.000Z</time>
</trkpt>
<trkpt lat="46.2988530" lon="9.9962480">
	<ele>2434.20</ele>
	<time>2021-08-31T08:59:59.000Z</time>
</trkpt>
<trkpt lat="46.2988450" lon="9.9962500">
	<ele>2434.80</ele>
	<time>2021-08-31T09:00:08.000Z</time>
</trkpt>
<trkpt lat="46.2988280" lon="9.9962520">
	<ele>2435.40</ele>
	<time>2021-08-31T09:00:12.000Z</time>
</trkpt>
<trkpt lat="46.2988100" lon="9.9962330">
	<ele>2436.00</ele>
	<time>2021-08-31T09:00:15.000Z</time>
</trkpt>
<trkpt lat="46.2987700" lon="9.9962280">
	<ele>2437.00</ele>
	<time>2021-08-31T09:00:21.000Z</time>
</trkpt>
<trkpt lat="46.2987700" lon="9.9962240">
	<ele>2437.40</ele>
	<time>2021-08-31T09:00:22.000Z</time>
</trkpt>
<trkpt lat="46.2987380" lon="9.9962090">
	<ele>2438.00</ele>
	<time>2021-08-31T09:00:28.000Z</time>
</trkpt>
<trkpt lat="46.2987310" lon="9.9962170">
	<ele>2438.20</ele>
	<time>2021-08-31T09:00:29.000Z</time>
</trkpt>
<trkpt lat="46.2986940" lon="9.9962500">
	<ele>2438.60</ele>
	<time>2021-08-31T09:00:36.000Z</time>
</trkpt>
<trkpt lat="46.2986720" lon="9.9962590">
	<ele>2439.20</ele>
	<time>2021-08-31T09:00:41.000Z</time>
</trkpt>
<trkpt lat="46.2986700" lon="9.9962680">
	<ele>2439.40</ele>
	<time>2021-08-31T09:00:42.000Z</time>
</trkpt>
<trkpt lat="46.2986560" lon="9.9963000">
	<ele>2440.20</ele>
	<time>2021-08-31T09:00:48.000Z</time>
</trkpt>
<trkpt lat="46.2986460" lon="9.9962950">
	<ele>2440.40</ele>
	<time>2021-08-31T09:00:50.000Z</time>
</trkpt>
<trkpt lat="46.2986170" lon="9.9962850">
	<ele>2441.20</ele>
	<time>2021-08-31T09:00:57.000Z</time>
</trkpt>
<trkpt lat="46.2986130" lon="9.9962810">
	<ele>2441.40</ele>
	<time>2021-08-31T09:00:58.000Z</time>
</trkpt>
<trkpt lat="46.2986100" lon="9.9962780">
	<ele>2441.40</ele>
	<time>2021-08-31T09:00:59.000Z</time>
</trkpt>
<trkpt lat="46.2985840" lon="9.9962430">
	<ele>2442.20</ele>
	<time>2021-08-31T09:01:05.000Z</time>
</trkpt>
<trkpt lat="46.2985700" lon="9.9962160">
	<ele>2442.60</ele>
	<time>2021-08-31T09:01:08.000Z</time>
</trkpt>
<trkpt lat="46.2985280" lon="9.9961920">
	<ele>2443.80</ele>
	<time>2021-08-31T09:01:15.000Z</time>
</trkpt>
<trkpt lat="46.2985190" lon="9.9961930">
	<ele>2444.00</ele>
	<time>2021-08-31T09:01:16.000Z</time>
</trkpt>
<trkpt lat="46.2984970" lon="9.9962150">
	<ele>2444.80</ele>
	<time>2021-08-31T09:01:20.000Z</time>
</trkpt>
<trkpt lat="46.2984990" lon="9.9962400">
	<ele>2445.00</ele>
	<time>2021-08-31T09:01:24.000Z</time>
</trkpt>
<trkpt lat="46.2985170" lon="9.9963120">
	<ele>2445.80</ele>
	<time>2021-08-31T09:01:32.000Z</time>
</trkpt>
<trkpt lat="46.2985160" lon="9.9963170">
	<ele>2445.80</ele>
	<time>2021-08-31T09:01:33.000Z</time>
</trkpt>
<trkpt lat="46.2985170" lon="9.9963270">
	<ele>2446.20</ele>
	<time>2021-08-31T09:01:39.000Z</time>
</trkpt>
<trkpt lat="46.2985050" lon="9.9963180">
	<ele>2446.80</ele>
	<time>2021-08-31T09:01:50.000Z</time>
</trkpt>
<trkpt lat="46.2985050" lon="9.9963260">
	<ele>2447.80</ele>
	<time>2021-08-31T09:01:59.000Z</time>
</trkpt>
<trkpt lat="46.2984940" lon="9.9963950">
	<ele>2449.00</ele>
	<time>2021-08-31T09:02:12.000Z</time>
</trkpt>
<trkpt lat="46.2984940" lon="9.9964030">
	<ele>2449.40</ele>
	<time>2021-08-31T09:02:14.000Z</time>
</trkpt>
<trkpt lat="46.2984960" lon="9.9964370">
	<ele>2450.00</ele>
	<time>2021-08-31T09:02:24.000Z</time>
</trkpt>
<trkpt lat="46.2985000" lon="9.9964500">
	<ele>2451.20</ele>
	<time>2021-08-31T09:02:30.000Z</time>
</trkpt>
<trkpt lat="46.2985450" lon="9.9965570">
	<ele>2451.80</ele>
	<time>2021-08-31T09:02:54.000Z</time>
</trkpt>
<trkpt lat="46.2985480" lon="9.9965570">
	<ele>2452.20</ele>
	<time>2021-08-31T09:03:04.000Z</time>
</trkpt>
<trkpt lat="46.2985510" lon="9.9965510">
	<ele>2452.20</ele>
	<time>2021-08-31T09:03:13.000Z</time>
</trkpt>
<trkpt lat="46.2985510" lon="9.9965500">
	<ele>2452.00</ele>
	<time>2021-08-31T09:03:19.000Z</time>
</trkpt>
<trkpt lat="46.2985440" lon="9.9965500">
	<ele>2452.40</ele>
	<time>2021-08-31T09:03:26.000Z</time>
</trkpt>
<trkpt lat="46.2985340" lon="9.9965530">
	<ele>2452.40</ele>
	<time>2021-08-31T09:03:29.000Z</time>
</trkpt>
<trkpt lat="46.2985160" lon="9.9965590">
	<ele>2452.60</ele>
	<time>2021-08-31T09:03:35.000Z</time>
</trkpt>
<trkpt lat="46.2985130" lon="9.9965590">
	<ele>2452.80</ele>
	<time>2021-08-31T09:03:43.000Z</time>
</trkpt>
<trkpt lat="46.2985100" lon="9.9965590">
	<ele>2452.80</ele>
	<time>2021-08-31T09:03:45.000Z</time>
</trkpt>
<trkpt lat="46.2985070" lon="9.9965580">
	<ele>2452.80</ele>
	<time>2021-08-31T09:03:48.000Z</time>
</trkpt>
<trkpt lat="46.2985050" lon="9.9965580">
	<ele>2452.80</ele>
	<time>2021-08-31T09:03:49.000Z</time>
</trkpt>
<trkpt lat="46.2985030" lon="9.9965570">
	<ele>2452.80</ele>
	<time>2021-08-31T09:03:51.000Z</time>
</trkpt>
<trkpt lat="46.2984860" lon="9.9965400">
	<ele>2452.80</ele>
	<time>2021-08-31T09:04:08.000Z</time>
</trkpt>
<trkpt lat="46.2985320" lon="9.9964980">
	<ele>2453.20</ele>
	<time>2021-08-31T09:04:37.000Z</time>
</trkpt>
<trkpt lat="46.2985400" lon="9.9964920">
	<ele>2453.60</ele>
	<time>2021-08-31T09:04:40.000Z</time>
</trkpt>
<trkpt lat="46.2985470" lon="9.9964870">
	<ele>2454.20</ele>
	<time>2021-08-31T09:04:46.000Z</time>
</trkpt>
<trkpt lat="46.2985500" lon="9.9964850">
	<ele>2455.40</ele>
	<time>2021-08-31T09:04:52.000Z</time>
</trkpt>
<trkpt lat="46.2984710" lon="9.9964750">
	<ele>2455.80</ele>
	<time>2021-08-31T09:04:57.000Z</time>
</trkpt>
<trkpt lat="46.2984550" lon="9.9964770">
	<ele>2456.00</ele>
	<time>2021-08-31T09:04:58.000Z</time>
</trkpt>
<trkpt lat="46.2984230" lon="9.9964810">
	<ele>2456.00</ele>
	<time>2021-08-31T09:05:00.000Z</time>
</trkpt>
<trkpt lat="46.2983390" lon="9.9964830">
	<ele>2456.00</ele>
	<time>2021-08-31T09:05:06.000Z</time>
</trkpt>
<trkpt lat="46.2983530" lon="9.9964830">
	<ele>2456.00</ele>
	<time>2021-08-31T09:05:13.000Z</time>
</trkpt>
<trkpt lat="46.2983370" lon="9.9964830">
	<ele>2456.00</ele>
	<time>2021-08-31T09:05:20.000Z</time>
</trkpt>
<trkpt lat="46.2983350" lon="9.9964850">
	<ele>2456.00</ele>
	<time>2021-08-31T09:05:21.000Z</time>
</trkpt>
<trkpt lat="46.2983530" lon="9.9964920">
	<ele>2456.60</ele>
	<time>2021-08-31T09:05:27.000Z</time>
</trkpt>
<trkpt lat="46.2983410" lon="9.9964880">
	<ele>2457.00</ele>
	<time>2021-08-31T09:05:32.000Z</time>
</trkpt>
<trkpt lat="46.2983180" lon="9.9964780">
	<ele>2456.80</ele>
	<time>2021-08-31T09:05:35.000Z</time>
</trkpt>
<trkpt lat="46.2982980" lon="9.9964670">
	<ele>2456.80</ele>
	<time>2021-08-31T09:05:38.000Z</time>
</trkpt>
<trkpt lat="46.2982750" lon="9.9964610">
	<ele>2457.00</ele>
	<time>2021-08-31T09:05:41.000Z</time>
</trkpt>
<trkpt lat="46.2982580" lon="9.9964610">
	<ele>2457.60</ele>
	<time>2021-08-31T09:05:45.000Z</time>
</trkpt>
<trkpt lat="46.2982510" lon="9.9964570">
	<ele>2458.00</ele>
	<time>2021-08-31T09:05:48.000Z</time>
</trkpt>
<trkpt lat="46.2982380" lon="9.9964510">
	<ele>2458.60</ele>
	<time>2021-08-31T09:05:52.000Z</time>
</trkpt>
<trkpt lat="46.2982240" lon="9.9964430">
	<ele>2459.20</ele>
	<time>2021-08-31T09:05:54.000Z</time>
</trkpt>
<trkpt lat="46.2982130" lon="9.9964360">
	<ele>2459.60</ele>
	<time>2021-08-31T09:05:56.000Z</time>
</trkpt>
<trkpt lat="46.2982080" lon="9.9964370">
	<ele>2459.80</ele>
	<time>2021-08-31T09:05:57.000Z</time>
</trkpt>
<trkpt lat="46.2981870" lon="9.9964480">
	<ele>2460.80</ele>
	<time>2021-08-31T09:06:01.000Z</time>
</trkpt>
<trkpt lat="46.2981760" lon="9.9964540">
	<ele>2460.80</ele>
	<time>2021-08-31T09:06:03.000Z</time>
</trkpt>
<trkpt lat="46.2981580" lon="9.9964650">
	<ele>2461.00</ele>
	<time>2021-08-31T09:06:06.000Z</time>
</trkpt>
<trkpt lat="46.2981540" lon="9.9964860">
	<ele>2461.20</ele>
	<time>2021-08-31T09:06:08.000Z</time>
</trkpt>
<trkpt lat="46.2981360" lon="9.9965080">
	<ele>2462.20</ele>
	<time>2021-08-31T09:06:11.000Z</time>
</trkpt>
<trkpt lat="46.2981280" lon="9.9965370">
	<ele>2463.00</ele>
	<time>2021-08-31T09:06:14.000Z</time>
</trkpt>
<trkpt lat="46.2981260" lon="9.9965580">
	<ele>2463.20</ele>
	<time>2021-08-31T09:06:16.000Z</time>
</trkpt>
<trkpt lat="46.2981300" lon="9.9965800">
	<ele>2463.40</ele>
	<time>2021-08-31T09:06:18.000Z</time>
</trkpt>
<trkpt lat="46.2981290" lon="9.9965910">
	<ele>2463.60</ele>
	<time>2021-08-31T09:06:19.000Z</time>
</trkpt>
<trkpt lat="46.2981310" lon="9.9966030">
	<ele>2463.40</ele>
	<time>2021-08-31T09:06:20.000Z</time>
</trkpt>
<trkpt lat="46.2981290" lon="9.9966250">
	<ele>2463.60</ele>
	<time>2021-08-31T09:06:26.000Z</time>
</trkpt>
<trkpt lat="46.2981260" lon="9.9966270">
	<ele>2463.60</ele>
	<time>2021-08-31T09:06:27.000Z</time>
</trkpt>
<trkpt lat="46.2981130" lon="9.9966180">
	<ele>2464.20</ele>
	<time>2021-08-31T09:06:32.000Z</time>
</trkpt>
<trkpt lat="46.2981130" lon="9.9966150">
	<ele>2464.20</ele>
	<time>2021-08-31T09:06:34.000Z</time>
</trkpt>
<trkpt lat="46.2981080" lon="9.9965690">
	<ele>2463.60</ele>
	<time>2021-08-31T09:06:49.000Z</time>
</trkpt>
<trkpt lat="46.2981070" lon="9.9965270">
	<ele>2463.00</ele>
	<time>2021-08-31T09:06:51.000Z</time>
</trkpt>
<trkpt lat="46.2980930" lon="9.9964650">
	<ele>2462.80</ele>
	<time>2021-08-31T09:06:54.000Z</time>
</trkpt>
<trkpt lat="46.2980590" lon="9.9964160">
	<ele>2462.60</ele>
	<time>2021-08-31T09:06:58.000Z</time>
</trkpt>
<trkpt lat="46.2980420" lon="9.9963700">
	<ele>2462.40</ele>
	<time>2021-08-31T09:07:02.000Z</time>
</trkpt>
<trkpt lat="46.2980290" lon="9.9963270">
	<ele>2462.40</ele>
	<time>2021-08-31T09:07:05.000Z</time>
</trkpt>
<trkpt lat="46.2980170" lon="9.9962790">
	<ele>2463.00</ele>
	<time>2021-08-31T09:07:09.000Z</time>
</trkpt>
<trkpt lat="46.2980120" lon="9.9962300">
	<ele>2463.60</ele>
	<time>2021-08-31T09:07:13.000Z</time>
</trkpt>
<trkpt lat="46.2980130" lon="9.9961980">
	<ele>2464.40</ele>
	<time>2021-08-31T09:07:16.000Z</time>
</trkpt>
<trkpt lat="46.2980100" lon="9.9961850">
	<ele>2464.80</ele>
	<time>2021-08-31T09:07:18.000Z</time>
</trkpt>
<trkpt lat="46.2980060" lon="9.9961680">
	<ele>2465.00</ele>
	<time>2021-08-31T09:07:20.000Z</time>
</trkpt>
<trkpt lat="46.2979920" lon="9.9961140">
	<ele>2465.20</ele>
	<time>2021-08-31T09:07:24.000Z</time>
</trkpt>
<trkpt lat="46.2979780" lon="9.9960570">
	<ele>2465.20</ele>
	<time>2021-08-31T09:07:28.000Z</time>
</trkpt>
<trkpt lat="46.2979710" lon="9.9960270">
	<ele>2465.60</ele>
	<time>2021-08-31T09:07:31.000Z</time>
</trkpt>
<trkpt lat="46.2979540" lon="9.9959960">
	<ele>2466.20</ele>
	<time>2021-08-31T09:07:36.000Z</time>
</trkpt>
<trkpt lat="46.2979450" lon="9.9959990">
	<ele>2467.00</ele>
	<time>2021-08-31T09:07:38.000Z</time>
</trkpt>
<trkpt lat="46.2979310" lon="9.9959990">
	<ele>2467.40</ele>
	<time>2021-08-31T09:07:40.000Z</time>
</trkpt>
<trkpt lat="46.2979250" lon="9.9960060">
	<ele>2467.80</ele>
	<time>2021-08-31T09:07:41.000Z</time>
</trkpt>
<trkpt lat="46.2979210" lon="9.9960000">
	<ele>2468.00</ele>
	<time>2021-08-31T09:07:43.000Z</time>
</trkpt>
<trkpt lat="46.2979210" lon="9.9959950">
	<ele>2468.20</ele>
	<time>2021-08-31T09:07:47.000Z</time>
</trkpt>
<trkpt lat="46.2979180" lon="9.9959950">
	<ele>2468.20</ele>
	<time>2021-08-31T09:07:48.000Z</time>
</trkpt>
<trkpt lat="46.2979050" lon="9.9960000">
	<ele>2468.40</ele>
	<time>2021-08-31T09:07:54.000Z</time>
</trkpt>
<trkpt lat="46.2979090" lon="9.9959890">
	<ele>2469.20</ele>
	<time>2021-08-31T09:08:03.000Z</time>
</trkpt>
<trkpt lat="46.2979130" lon="9.9959620">
	<ele>2470.40</ele>
	<time>2021-08-31T09:08:08.000Z</time>
</trkpt>
<trkpt lat="46.2979090" lon="9.9959330">
	<ele>2471.60</ele>
	<time>2021-08-31T09:08:12.000Z</time>
</trkpt>
<trkpt lat="46.2979030" lon="9.9959290">
	<ele>2471.60</ele>
	<time>2021-08-31T09:08:13.000Z</time>
</trkpt>
<trkpt lat="46.2978930" lon="9.9958980">
	<ele>2472.00</ele>
	<time>2021-08-31T09:08:17.000Z</time>
</trkpt>
<trkpt lat="46.2978840" lon="9.9958800">
	<ele>2472.60</ele>
	<time>2021-08-31T09:08:20.000Z</time>
</trkpt>
<trkpt lat="46.2978840" lon="9.9958820">
	<ele>2472.80</ele>
	<time>2021-08-31T09:08:21.000Z</time>
</trkpt>
<trkpt lat="46.2978820" lon="9.9958670">
	<ele>2473.60</ele>
	<time>2021-08-31T09:08:26.000Z</time>
</trkpt>
<trkpt lat="46.2978820" lon="9.9958540">
	<ele>2473.80</ele>
	<time>2021-08-31T09:08:28.000Z</time>
</trkpt>
<trkpt lat="46.2978640" lon="9.9957800">
	<ele>2474.20</ele>
	<time>2021-08-31T09:08:36.000Z</time>
</trkpt>
<trkpt lat="46.2978440" lon="9.9957160">
	<ele>2473.40</ele>
	<time>2021-08-31T09:08:43.000Z</time>
</trkpt>
<trkpt lat="46.2978380" lon="9.9957070">
	<ele>2473.20</ele>
	<time>2021-08-31T09:08:44.000Z</time>
</trkpt>
<trkpt lat="46.2977950" lon="9.9956610">
	<ele>2472.60</ele>
	<time>2021-08-31T09:08:50.000Z</time>
</trkpt>
<trkpt lat="46.2977920" lon="9.9956490">
	<ele>2472.40</ele>
	<time>2021-08-31T09:08:51.000Z</time>
</trkpt>
<trkpt lat="46.2977800" lon="9.9956270">
	<ele>2472.40</ele>
	<time>2021-08-31T09:08:53.000Z</time>
</trkpt>
<trkpt lat="46.2977600" lon="9.9955980">
	<ele>2473.00</ele>
	<time>2021-08-31T09:08:58.000Z</time>
</trkpt>
<trkpt lat="46.2977560" lon="9.9955970">
	<ele>2473.20</ele>
	<time>2021-08-31T09:08:59.000Z</time>
</trkpt>
<trkpt lat="46.2977430" lon="9.9956060">
	<ele>2473.40</ele>
	<time>2021-08-31T09:09:03.000Z</time>
</trkpt>
<trkpt lat="46.2977370" lon="9.9956030">
	<ele>2473.60</ele>
	<time>2021-08-31T09:09:05.000Z</time>
</trkpt>
<trkpt lat="46.2977350" lon="9.9956020">
	<ele>2473.80</ele>
	<time>2021-08-31T09:09:06.000Z</time>
</trkpt>
<trkpt lat="46.2977360" lon="9.9955940">
	<ele>2474.20</ele>
	<time>2021-08-31T09:09:08.000Z</time>
</trkpt>
<trkpt lat="46.2977430" lon="9.9955730">
	<ele>2474.60</ele>
	<time>2021-08-31T09:09:10.000Z</time>
</trkpt>
<trkpt lat="46.2977390" lon="9.9955740">
	<ele>2474.80</ele>
	<time>2021-08-31T09:09:11.000Z</time>
</trkpt>
<trkpt lat="46.2977240" lon="9.9955960">
	<ele>2475.20</ele>
	<time>2021-08-31T09:09:16.000Z</time>
</trkpt>
<trkpt lat="46.2977240" lon="9.9955950">
	<ele>2475.80</ele>
	<time>2021-08-31T09:09:29.000Z</time>
</trkpt>
<trkpt lat="46.2977160" lon="9.9955950">
	<ele>2476.80</ele>
	<time>2021-08-31T09:09:36.000Z</time>
</trkpt>
<trkpt lat="46.2977140" lon="9.9955960">
	<ele>2477.20</ele>
	<time>2021-08-31T09:09:40.000Z</time>
</trkpt>
<trkpt lat="46.2976990" lon="9.9956090">
	<ele>2477.80</ele>
	<time>2021-08-31T09:09:45.000Z</time>
</trkpt>
<trkpt lat="46.2976870" lon="9.9956090">
	<ele>2478.20</ele>
	<time>2021-08-31T09:09:48.000Z</time>
</trkpt>
<trkpt lat="46.2976610" lon="9.9956090">
	<ele>2479.00</ele>
	<time>2021-08-31T09:09:52.000Z</time>
</trkpt>
<trkpt lat="46.2976470" lon="9.9956090">
	<ele>2480.00</ele>
	<time>2021-08-31T09:09:56.000Z</time>
</trkpt>
<trkpt lat="46.2976310" lon="9.9956040">
	<ele>2480.80</ele>
	<time>2021-08-31T09:10:01.000Z</time>
</trkpt>
<trkpt lat="46.2976300" lon="9.9956040">
	<ele>2481.00</ele>
	<time>2021-08-31T09:10:02.000Z</time>
</trkpt>
<trkpt lat="46.2976150" lon="9.9955990">
	<ele>2481.60</ele>
	<time>2021-08-31T09:10:06.000Z</time>
</trkpt>
<trkpt lat="46.2975970" lon="9.9955960">
	<ele>2482.20</ele>
	<time>2021-08-31T09:10:09.000Z</time>
</trkpt>
<trkpt lat="46.2975760" lon="9.9955960">
	<ele>2483.00</ele>
	<time>2021-08-31T09:10:14.000Z</time>
</trkpt>
<trkpt lat="46.2975760" lon="9.9955960">
	<ele>2483.20</ele>
	<time>2021-08-31T09:10:15.000Z</time>
</trkpt>
<trkpt lat="46.2975610" lon="9.9956110">
	<ele>2482.80</ele>
	<time>2021-08-31T09:10:47.000Z</time>
</trkpt>
<trkpt lat="46.2975730" lon="9.9956110">
	<ele>2482.80</ele>
	<time>2021-08-31T09:10:51.000Z</time>
</trkpt>
<trkpt lat="46.2975750" lon="9.9956110">
	<ele>2482.80</ele>
	<time>2021-08-31T09:10:54.000Z</time>
</trkpt>
<trkpt lat="46.2975790" lon="9.9956100">
	<ele>2482.80</ele>
	<time>2021-08-31T09:10:58.000Z</time>
</trkpt>
<trkpt lat="46.2975840" lon="9.9956110">
	<ele>2483.00</ele>
	<time>2021-08-31T09:11:04.000Z</time>
</trkpt>
<trkpt lat="46.2975890" lon="9.9956110">
	<ele>2483.80</ele>
	<time>2021-08-31T09:11:10.000Z</time>
</trkpt>
<trkpt lat="46.2975890" lon="9.9956110">
	<ele>2483.80</ele>
	<time>2021-08-31T09:11:14.000Z</time>
</trkpt>
<trkpt lat="46.2975890" lon="9.9956120">
	<ele>2484.40</ele>
	<time>2021-08-31T09:11:18.000Z</time>
</trkpt>
<trkpt lat="46.2975770" lon="9.9956120">
	<ele>2485.40</ele>
	<time>2021-08-31T09:11:24.000Z</time>
</trkpt>
<trkpt lat="46.2975630" lon="9.9956120">
	<ele>2486.60</ele>
	<time>2021-08-31T09:11:30.000Z</time>
</trkpt>
<trkpt lat="46.2975410" lon="9.9956050">
	<ele>2487.40</ele>
	<time>2021-08-31T09:11:34.000Z</time>
</trkpt>
<trkpt lat="46.2975370" lon="9.9956010">
	<ele>2487.60</ele>
	<time>2021-08-31T09:11:35.000Z</time>
</trkpt>
<trkpt lat="46.2975150" lon="9.9955830">
	<ele>2488.60</ele>
	<time>2021-08-31T09:11:41.000Z</time>
</trkpt>
<trkpt lat="46.2974450" lon="9.9955530">
	<ele>2488.80</ele>
	<time>2021-08-31T09:11:45.000Z</time>
</trkpt>
<trkpt lat="46.2974040" lon="9.9955460">
	<ele>2488.80</ele>
	<time>2021-08-31T09:11:47.000Z</time>
</trkpt>
<trkpt lat="46.2973110" lon="9.9955450">
	<ele>2489.80</ele>
	<time>2021-08-31T09:11:53.000Z</time>
</trkpt>
<trkpt lat="46.2972740" lon="9.9955660">
	<ele>2490.20</ele>
	<time>2021-08-31T09:11:57.000Z</time>
</trkpt>
<trkpt lat="46.2972450" lon="9.9955780">
	<ele>2490.80</ele>
	<time>2021-08-31T09:12:01.000Z</time>
</trkpt>
<trkpt lat="46.2972310" lon="9.9955760">
	<ele>2491.60</ele>
	<time>2021-08-31T09:12:05.000Z</time>
</trkpt>
<trkpt lat="46.2972310" lon="9.9955730">
	<ele>2491.80</ele>
	<time>2021-08-31T09:12:06.000Z</time>
</trkpt>
<trkpt lat="46.2972170" lon="9.9955490">
	<ele>2492.40</ele>
	<time>2021-08-31T09:12:10.000Z</time>
</trkpt>
<trkpt lat="46.2972120" lon="9.9955400">
	<ele>2492.60</ele>
	<time>2021-08-31T09:12:11.000Z</time>
</trkpt>
<trkpt lat="46.2972000" lon="9.9955150">
	<ele>2493.00</ele>
	<time>2021-08-31T09:12:14.000Z</time>
</trkpt>
<trkpt lat="46.2971730" lon="9.9954760">
	<ele>2493.40</ele>
	<time>2021-08-31T09:12:19.000Z</time>
</trkpt>
<trkpt lat="46.2971620" lon="9.9954540">
	<ele>2494.00</ele>
	<time>2021-08-31T09:12:22.000Z</time>
</trkpt>
<trkpt lat="46.2971340" lon="9.9954260">
	<ele>2495.00</ele>
	<time>2021-08-31T09:12:27.000Z</time>
</trkpt>
<trkpt lat="46.2971260" lon="9.9954170">
	<ele>2495.20</ele>
	<time>2021-08-31T09:12:28.000Z</time>
</trkpt>
<trkpt lat="46.2970680" lon="9.9953950">
	<ele>2495.20</ele>
	<time>2021-08-31T09:12:34.000Z</time>
</trkpt>
<trkpt lat="46.2970730" lon="9.9953930">
	<ele>2495.20</ele>
	<time>2021-08-31T09:12:37.000Z</time>
</trkpt>
<trkpt lat="46.2970730" lon="9.9953940">
	<ele>2495.00</ele>
	<time>2021-08-31T09:12:44.000Z</time>
</trkpt>
<trkpt lat="46.2970920" lon="9.9953850">
	<ele>2495.00</ele>
	<time>2021-08-31T09:12:53.000Z</time>
</trkpt>
<trkpt lat="46.2970980" lon="9.9953770">
	<ele>2495.00</ele>
	<time>2021-08-31T09:12:54.000Z</time>
</trkpt>
<trkpt lat="46.2971440" lon="9.9952810">
	<ele>2494.20</ele>
	<time>2021-08-31T09:13:03.000Z</time>
</trkpt>
<trkpt lat="46.2971540" lon="9.9952530">
	<ele>2494.00</ele>
	<time>2021-08-31T09:13:05.000Z</time>
</trkpt>
<trkpt lat="46.2971760" lon="9.9951870">
	<ele>2493.00</ele>
	<time>2021-08-31T09:13:11.000Z</time>
</trkpt>
<trkpt lat="46.2971870" lon="9.9951680">
	<ele>2492.60</ele>
	<time>2021-08-31T09:13:13.000Z</time>
</trkpt>
<trkpt lat="46.2971980" lon="9.9951270">
	<ele>2492.00</ele>
	<time>2021-08-31T09:13:18.000Z</time>
</trkpt>
<trkpt lat="46.2971950" lon="9.9951340">
	<ele>2491.80</ele>
	<time>2021-08-31T09:13:20.000Z</time>
</trkpt>
<trkpt lat="46.2971950" lon="9.9951310">
	<ele>2492.00</ele>
	<time>2021-08-31T09:13:23.000Z</time>
</trkpt>
<trkpt lat="46.2971980" lon="9.9951360">
	<ele>2492.00</ele>
	<time>2021-08-31T09:13:25.000Z</time>
</trkpt>
<trkpt lat="46.2972020" lon="9.9951380">
	<ele>2492.00</ele>
	<time>2021-08-31T09:13:27.000Z</time>
</trkpt>
<trkpt lat="46.2972020" lon="9.9951380">
	<ele>2491.80</ele>
	<time>2021-08-31T09:13:30.000Z</time>
</trkpt>
<trkpt lat="46.2972220" lon="9.9950680">
	<ele>2491.80</ele>
	<time>2021-08-31T09:13:37.000Z</time>
</trkpt>
<trkpt lat="46.2972300" lon="9.9950190">
	<ele>2491.60</ele>
	<time>2021-08-31T09:13:40.000Z</time>
</trkpt>
<trkpt lat="46.2972260" lon="9.9949400">
	<ele>2491.00</ele>
	<time>2021-08-31T09:13:44.000Z</time>
</trkpt>
<trkpt lat="46.2972250" lon="9.9949250">
	<ele>2490.80</ele>
	<time>2021-08-31T09:13:45.000Z</time>
</trkpt>
<trkpt lat="46.2971970" lon="9.9947710">
	<ele>2490.40</ele>
	<time>2021-08-31T09:13:54.000Z</time>
</trkpt>
<trkpt lat="46.2971810" lon="9.9946920">
	<ele>2490.40</ele>
	<time>2021-08-31T09:14:01.000Z</time>
</trkpt>
<trkpt lat="46.2971820" lon="9.9946870">
	<ele>2490.40</ele>
	<time>2021-08-31T09:14:03.000Z</time>
</trkpt>
<trkpt lat="46.2971780" lon="9.9946610">
	<ele>2490.40</ele>
	<time>2021-08-31T09:14:06.000Z</time>
</trkpt>
<trkpt lat="46.2971730" lon="9.9946280">
	<ele>2490.60</ele>
	<time>2021-08-31T09:14:08.000Z</time>
</trkpt>
<trkpt lat="46.2971520" lon="9.9944880">
	<ele>2491.60</ele>
	<time>2021-08-31T09:14:17.000Z</time>
</trkpt>
<trkpt lat="46.2971400" lon="9.9944450">
	<ele>2492.00</ele>
	<time>2021-08-31T09:14:20.000Z</time>
</trkpt>
<trkpt lat="46.2971030" lon="9.9943480">
	<ele>2493.00</ele>
	<time>2021-08-31T09:14:28.000Z</time>
</trkpt>
<trkpt lat="46.2970740" lon="9.9942790">
	<ele>2494.20</ele>
	<time>2021-08-31T09:14:35.000Z</time>
</trkpt>
<trkpt lat="46.2970660" lon="9.9942690">
	<ele>2494.20</ele>
	<time>2021-08-31T09:14:36.000Z</time>
</trkpt>
<trkpt lat="46.2970620" lon="9.9942660">
	<ele>2494.20</ele>
	<time>2021-08-31T09:14:37.000Z</time>
</trkpt>
<trkpt lat="46.2970590" lon="9.9942640">
	<ele>2494.20</ele>
	<time>2021-08-31T09:14:39.000Z</time>
</trkpt>
<trkpt lat="46.2970600" lon="9.9942620">
	<ele>2494.20</ele>
	<time>2021-08-31T09:14:41.000Z</time>
</trkpt>
<trkpt lat="46.2970610" lon="9.9942600">
	<ele>2494.20</ele>
	<time>2021-08-31T09:14:42.000Z</time>
</trkpt>
<trkpt lat="46.2970570" lon="9.9942570">
	<ele>2495.20</ele>
	<time>2021-08-31T09:14:57.000Z</time>
</trkpt>
<trkpt lat="46.2970520" lon="9.9942410">
	<ele>2495.20</ele>
	<time>2021-08-31T09:14:58.000Z</time>
</trkpt>
<trkpt lat="46.2970450" lon="9.9942040">
	<ele>2495.80</ele>
	<time>2021-08-31T09:15:00.000Z</time>
</trkpt>
<trkpt lat="46.2970380" lon="9.9941650">
	<ele>2496.00</ele>
	<time>2021-08-31T09:15:02.000Z</time>
</trkpt>
<trkpt lat="46.2970310" lon="9.9941470">
	<ele>2496.20</ele>
	<time>2021-08-31T09:15:03.000Z</time>
</trkpt>
<trkpt lat="46.2969980" lon="9.9940680">
	<ele>2497.20</ele>
	<time>2021-08-31T09:15:09.000Z</time>
</trkpt>
<trkpt lat="46.2969940" lon="9.9940510">
	<ele>2497.60</ele>
	<time>2021-08-31T09:15:11.000Z</time>
</trkpt>
<trkpt lat="46.2969890" lon="9.9940250">
	<ele>2498.40</ele>
	<time>2021-08-31T09:15:13.000Z</time>
</trkpt>
<trkpt lat="46.2969740" lon="9.9939940">
	<ele>2499.00</ele>
	<time>2021-08-31T09:15:17.000Z</time>
</trkpt>
<trkpt lat="46.2969690" lon="9.9939910">
	<ele>2499.40</ele>
	<time>2021-08-31T09:15:18.000Z</time>
</trkpt>
<trkpt lat="46.2969610" lon="9.9939880">
	<ele>2499.60</ele>
	<time>2021-08-31T09:15:20.000Z</time>
</trkpt>
<trkpt lat="46.2969620" lon="9.9939890">
	<ele>2499.60</ele>
	<time>2021-08-31T09:15:21.000Z</time>
</trkpt>
<trkpt lat="46.2969650" lon="9.9939900">
	<ele>2499.40</ele>
	<time>2021-08-31T09:15:27.000Z</time>
</trkpt>
<trkpt lat="46.2969660" lon="9.9939930">
	<ele>2500.40</ele>
	<time>2021-08-31T09:15:44.000Z</time>
</trkpt>
<trkpt lat="46.2969650" lon="9.9939980">
	<ele>2500.80</ele>
	<time>2021-08-31T09:15:50.000Z</time>
</trkpt>
<trkpt lat="46.2969650" lon="9.9940130">
	<ele>2500.20</ele>
	<time>2021-08-31T09:15:54.000Z</time>
</trkpt>
<trkpt lat="46.2969650" lon="9.9940130">
	<ele>2500.00</ele>
	<time>2021-08-31T09:16:02.000Z</time>
</trkpt>
<trkpt lat="46.2969610" lon="9.9939670">
	<ele>2501.00</ele>
	<time>2021-08-31T09:16:06.000Z</time>
</trkpt>
<trkpt lat="46.2969530" lon="9.9939140">
	<ele>2501.20</ele>
	<time>2021-08-31T09:16:09.000Z</time>
</trkpt>
<trkpt lat="46.2969520" lon="9.9938980">
	<ele>2501.40</ele>
	<time>2021-08-31T09:16:10.000Z</time>
</trkpt>
<trkpt lat="46.2969530" lon="9.9938260">
	<ele>2501.80</ele>
	<time>2021-08-31T09:16:14.000Z</time>
</trkpt>
<trkpt lat="46.2969540" lon="9.9938070">
	<ele>2501.80</ele>
	<time>2021-08-31T09:16:16.000Z</time>
</trkpt>
<trkpt lat="46.2969530" lon="9.9938060">
	<ele>2501.80</ele>
	<time>2021-08-31T09:16:17.000Z</time>
</trkpt>
<trkpt lat="46.2969490" lon="9.9938100">
	<ele>2501.60</ele>
	<time>2021-08-31T09:16:20.000Z</time>
</trkpt>
<trkpt lat="46.2969480" lon="9.9938230">
	<ele>2501.80</ele>
	<time>2021-08-31T09:16:31.000Z</time>
</trkpt>
<trkpt lat="46.2969480" lon="9.9938230">
	<ele>2501.60</ele>
	<time>2021-08-31T09:16:36.000Z</time>
</trkpt>
<trkpt lat="46.2969490" lon="9.9938240">
	<ele>2501.80</ele>
	<time>2021-08-31T09:16:42.000Z</time>
</trkpt>
<trkpt lat="46.2969510" lon="9.9938250">
	<ele>2501.80</ele>
	<time>2021-08-31T09:16:45.000Z</time>
</trkpt>
<trkpt lat="46.2969510" lon="9.9938260">
	<ele>2501.80</ele>
	<time>2021-08-31T09:16:47.000Z</time>
</trkpt>
<trkpt lat="46.2969510" lon="9.9938330">
	<ele>2501.80</ele>
	<time>2021-08-31T09:16:49.000Z</time>
</trkpt>
<trkpt lat="46.2969560" lon="9.9938340">
	<ele>2501.80</ele>
	<time>2021-08-31T09:16:52.000Z</time>
</trkpt>
<trkpt lat="46.2969560" lon="9.9938340">
	<ele>2501.80</ele>
	<time>2021-08-31T09:17:01.000Z</time>
</trkpt>
<trkpt lat="46.2969560" lon="9.9938340">
	<ele>2501.80</ele>
	<time>2021-08-31T09:17:03.000Z</time>
</trkpt>
<trkpt lat="46.2969560" lon="9.9938340">
	<ele>2501.80</ele>
	<time>2021-08-31T09:17:06.000Z</time>
</trkpt>
<trkpt lat="46.2969520" lon="9.9938270">
	<ele>2501.60</ele>
	<time>2021-08-31T09:17:15.000Z</time>
</trkpt>
<trkpt lat="46.2969480" lon="9.9938220">
	<ele>2501.60</ele>
	<time>2021-08-31T09:17:24.000Z</time>
</trkpt>
<trkpt lat="46.2969460" lon="9.9938210">
	<ele>2501.80</ele>
	<time>2021-08-31T09:17:28.000Z</time>
</trkpt>
<trkpt lat="46.2969110" lon="9.9938140">
	<ele>2501.80</ele>
	<time>2021-08-31T09:17:48.000Z</time>
</trkpt>
<trkpt lat="46.2968980" lon="9.9937310">
	<ele>2501.80</ele>
	<time>2021-08-31T09:17:52.000Z</time>
</trkpt>
<trkpt lat="46.2969000" lon="9.9935520">
	<ele>2502.00</ele>
	<time>2021-08-31T09:18:00.000Z</time>
</trkpt>
<trkpt lat="46.2968900" lon="9.9933430">
	<ele>2501.60</ele>
	<time>2021-08-31T09:18:11.000Z</time>
</trkpt>
<trkpt lat="46.2968890" lon="9.9932290">
	<ele>2501.60</ele>
	<time>2021-08-31T09:18:17.000Z</time>
</trkpt>
<trkpt lat="46.2968860" lon="9.9931960">
	<ele>2501.60</ele>
	<time>2021-08-31T09:18:19.000Z</time>
</trkpt>
<trkpt lat="46.2968860" lon="9.9931580">
	<ele>2501.80</ele>
	<time>2021-08-31T09:18:21.000Z</time>
</trkpt>
<trkpt lat="46.2968860" lon="9.9931320">
	<ele>2501.80</ele>
	<time>2021-08-31T09:18:23.000Z</time>
</trkpt>
<trkpt lat="46.2968740" lon="9.9930840">
	<ele>2502.20</ele>
	<time>2021-08-31T09:18:26.000Z</time>
</trkpt>
<trkpt lat="46.2968570" lon="9.9930240">
	<ele>2502.60</ele>
	<time>2021-08-31T09:18:30.000Z</time>
</trkpt>
<trkpt lat="46.2968430" lon="9.9929800">
	<ele>2502.80</ele>
	<time>2021-08-31T09:18:34.000Z</time>
</trkpt>
<trkpt lat="46.2968450" lon="9.9929640">
	<ele>2503.00</ele>
	<time>2021-08-31T09:18:36.000Z</time>
</trkpt>
<trkpt lat="46.2968490" lon="9.9929540">
	<ele>2503.00</ele>
	<time>2021-08-31T09:18:37.000Z</time>
</trkpt>
<trkpt lat="46.2968660" lon="9.9928910">
	<ele>2503.40</ele>
	<time>2021-08-31T09:18:42.000Z</time>
</trkpt>
<trkpt lat="46.2968680" lon="9.9928790">
	<ele>2503.60</ele>
	<time>2021-08-31T09:18:43.000Z</time>
</trkpt>
<trkpt lat="46.2968810" lon="9.9928250">
	<ele>2503.80</ele>
	<time>2021-08-31T09:18:47.000Z</time>
</trkpt>
<trkpt lat="46.2969600" lon="9.9926730">
	<ele>2504.40</ele>
	<time>2021-08-31T09:18:59.000Z</time>
</trkpt>
<trkpt lat="46.2969700" lon="9.9926580">
	<ele>2504.60</ele>
	<time>2021-08-31T09:19:02.000Z</time>
</trkpt>
<trkpt lat="46.2969640" lon="9.9926640">
	<ele>2504.60</ele>
	<time>2021-08-31T09:19:03.000Z</time>
</trkpt>
<trkpt lat="46.2969640" lon="9.9926700">
	<ele>2504.60</ele>
	<time>2021-08-31T09:19:05.000Z</time>
</trkpt>
<trkpt lat="46.2969610" lon="9.9926710">
	<ele>2504.80</ele>
	<time>2021-08-31T09:19:18.000Z</time>
</trkpt>
<trkpt lat="46.2970150" lon="9.9926290">
	<ele>2504.80</ele>
	<time>2021-08-31T09:19:29.000Z</time>
</trkpt>
<trkpt lat="46.2970590" lon="9.9925850">
	<ele>2504.80</ele>
	<time>2021-08-31T09:19:34.000Z</time>
</trkpt>
<trkpt lat="46.2970420" lon="9.9925830">
	<ele>2505.00</ele>
	<time>2021-08-31T09:19:36.000Z</time>
</trkpt>
<trkpt lat="46.2969890" lon="9.9925880">
	<ele>2505.00</ele>
	<time>2021-08-31T09:19:42.000Z</time>
</trkpt>
<trkpt lat="46.2969620" lon="9.9924880">
	<ele>2505.00</ele>
	<time>2021-08-31T09:19:49.000Z</time>
</trkpt>
<trkpt lat="46.2969500" lon="9.9923280">
	<ele>2505.20</ele>
	<time>2021-08-31T09:19:59.000Z</time>
</trkpt>
<trkpt lat="46.2969620" lon="9.9922940">
	<ele>2505.20</ele>
	<time>2021-08-31T09:20:03.000Z</time>
</trkpt>
<trkpt lat="46.2969720" lon="9.9922830">
	<ele>2505.40</ele>
	<time>2021-08-31T09:20:05.000Z</time>
</trkpt>
<trkpt lat="46.2969800" lon="9.9922700">
	<ele>2505.60</ele>
	<time>2021-08-31T09:20:07.000Z</time>
</trkpt>
<trkpt lat="46.2970230" lon="9.9922420">
	<ele>2506.80</ele>
	<time>2021-08-31T09:20:13.000Z</time>
</trkpt>
<trkpt lat="46.2970370" lon="9.9922190">
	<ele>2506.80</ele>
	<time>2021-08-31T09:20:15.000Z</time>
</trkpt>
<trkpt lat="46.2970460" lon="9.9921730">
	<ele>2507.20</ele>
	<time>2021-08-31T09:20:19.000Z</time>
</trkpt>
<trkpt lat="46.2970410" lon="9.9921470">
	<ele>2507.20</ele>
	<time>2021-08-31T09:20:21.000Z</time>
</trkpt>
<trkpt lat="46.2970310" lon="9.9920980">
	<ele>2507.40</ele>
	<time>2021-08-31T09:20:24.000Z</time>
</trkpt>
<trkpt lat="46.2970310" lon="9.9920860">
	<ele>2507.40</ele>
	<time>2021-08-31T09:20:25.000Z</time>
</trkpt>
<trkpt lat="46.2970310" lon="9.9920440">
	<ele>2507.60</ele>
	<time>2021-08-31T09:20:28.000Z</time>
</trkpt>
<trkpt lat="46.2970350" lon="9.9920210">
	<ele>2507.60</ele>
	<time>2021-08-31T09:20:30.000Z</time>
</trkpt>
<trkpt lat="46.2970550" lon="9.9919730">
	<ele>2507.40</ele>
	<time>2021-08-31T09:20:35.000Z</time>
</trkpt>
<trkpt lat="46.2970630" lon="9.9918750">
	<ele>2507.80</ele>
	<time>2021-08-31T09:20:44.000Z</time>
</trkpt>
<trkpt lat="46.2970400" lon="9.9917730">
	<ele>2508.60</ele>
	<time>2021-08-31T09:20:53.000Z</time>
</trkpt>
<trkpt lat="46.2970340" lon="9.9917500">
	<ele>2508.80</ele>
	<time>2021-08-31T09:20:55.000Z</time>
</trkpt>
<trkpt lat="46.2970260" lon="9.9916510">
	<ele>2509.80</ele>
	<time>2021-08-31T09:21:03.000Z</time>
</trkpt>
<trkpt lat="46.2970260" lon="9.9916380">
	<ele>2510.00</ele>
	<time>2021-08-31T09:21:04.000Z</time>
</trkpt>
<trkpt lat="46.2970180" lon="9.9915830">
	<ele>2510.80</ele>
	<time>2021-08-31T09:21:08.000Z</time>
</trkpt>
<trkpt lat="46.2970090" lon="9.9915460">
	<ele>2510.80</ele>
	<time>2021-08-31T09:21:11.000Z</time>
</trkpt>
<trkpt lat="46.2969980" lon="9.9914990">
	<ele>2511.00</ele>
	<time>2021-08-31T09:21:14.000Z</time>
</trkpt>
<trkpt lat="46.2969650" lon="9.9913670">
	<ele>2511.00</ele>
	<time>2021-08-31T09:21:23.000Z</time>
</trkpt>
<trkpt lat="46.2969530" lon="9.9912530">
	<ele>2510.60</ele>
	<time>2021-08-31T09:21:31.000Z</time>
</trkpt>
<trkpt lat="46.2969790" lon="9.9912130">
	<ele>2510.40</ele>
	<time>2021-08-31T09:21:34.000Z</time>
</trkpt>
<trkpt lat="46.2969890" lon="9.9911720">
	<ele>2510.00</ele>
	<time>2021-08-31T09:21:37.000Z</time>
</trkpt>
<trkpt lat="46.2969890" lon="9.9911600">
	<ele>2509.80</ele>
	<time>2021-08-31T09:21:38.000Z</time>
</trkpt>
<trkpt lat="46.2969870" lon="9.9911190">
	<ele>2509.80</ele>
	<time>2021-08-31T09:21:43.000Z</time>
</trkpt>
<trkpt lat="46.2969840" lon="9.9911190">
	<ele>2509.80</ele>
	<time>2021-08-31T09:21:45.000Z</time>
</trkpt>
<trkpt lat="46.2969840" lon="9.9911190">
	<ele>2509.60</ele>
	<time>2021-08-31T09:21:46.000Z</time>
</trkpt>
<trkpt lat="46.2969830" lon="9.9911100">
	<ele>2509.60</ele>
	<time>2021-08-31T09:21:47.000Z</time>
</trkpt>
<trkpt lat="46.2969850" lon="9.9910590">
	<ele>2509.80</ele>
	<time>2021-08-31T09:21:52.000Z</time>
</trkpt>
<trkpt lat="46.2969780" lon="9.9910480">
	<ele>2509.80</ele>
	<time>2021-08-31T09:21:59.000Z</time>
</trkpt>
<trkpt lat="46.2969950" lon="9.9910340">
	<ele>2509.60</ele>
	<time>2021-08-31T09:22:19.000Z</time>
</trkpt>
<trkpt lat="46.2970020" lon="9.9910310">
	<ele>2509.60</ele>
	<time>2021-08-31T09:22:45.000Z</time>
</trkpt>
<trkpt lat="46.2970040" lon="9.9910300">
	<ele>2509.60</ele>
	<time>2021-08-31T09:22:47.000Z</time>
</trkpt>
<trkpt lat="46.2970060" lon="9.9910280">
	<ele>2509.60</ele>
	<time>2021-08-31T09:22:50.000Z</time>
</trkpt>
<trkpt lat="46.2970070" lon="9.9910260">
	<ele>2509.60</ele>
	<time>2021-08-31T09:22:52.000Z</time>
</trkpt>
<trkpt lat="46.2970080" lon="9.9910240">
	<ele>2509.60</ele>
	<time>2021-08-31T09:22:53.000Z</time>
</trkpt>
<trkpt lat="46.2970100" lon="9.9910230">
	<ele>2509.60</ele>
	<time>2021-08-31T09:22:55.000Z</time>
</trkpt>
<trkpt lat="46.2970110" lon="9.9910230">
	<ele>2509.60</ele>
	<time>2021-08-31T09:22:57.000Z</time>
</trkpt>
<trkpt lat="46.2970090" lon="9.9910160">
	<ele>2509.60</ele>
	<time>2021-08-31T09:23:11.000Z</time>
</trkpt>
<trkpt lat="46.2969850" lon="9.9910330">
	<ele>2509.60</ele>
	<time>2021-08-31T09:23:38.000Z</time>
</trkpt>
<trkpt lat="46.2969770" lon="9.9909790">
	<ele>2510.40</ele>
	<time>2021-08-31T09:23:43.000Z</time>
</trkpt>
<trkpt lat="46.2969590" lon="9.9909080">
	<ele>2510.80</ele>
	<time>2021-08-31T09:23:47.000Z</time>
</trkpt>
<trkpt lat="46.2969530" lon="9.9908580">
	<ele>2510.80</ele>
	<time>2021-08-31T09:23:50.000Z</time>
</trkpt>
<trkpt lat="46.2969560" lon="9.9907300">
	<ele>2511.20</ele>
	<time>2021-08-31T09:23:58.000Z</time>
</trkpt>
<trkpt lat="46.2969630" lon="9.9906600">
	<ele>2511.80</ele>
	<time>2021-08-31T09:24:03.000Z</time>
</trkpt>
<trkpt lat="46.2969630" lon="9.9905960">
	<ele>2512.60</ele>
	<time>2021-08-31T09:24:08.000Z</time>
</trkpt>
<trkpt lat="46.2969670" lon="9.9905780">
	<ele>2513.00</ele>
	<time>2021-08-31T09:24:09.000Z</time>
</trkpt>
<trkpt lat="46.2969930" lon="9.9905360">
	<ele>2513.80</ele>
	<time>2021-08-31T09:24:13.000Z</time>
</trkpt>
<trkpt lat="46.2970030" lon="9.9905290">
	<ele>2513.80</ele>
	<time>2021-08-31T09:24:14.000Z</time>
</trkpt>
<trkpt lat="46.2970220" lon="9.9905290">
	<ele>2514.00</ele>
	<time>2021-08-31T09:24:16.000Z</time>
</trkpt>
<trkpt lat="46.2970730" lon="9.9905000">
	<ele>2514.60</ele>
	<time>2021-08-31T09:24:22.000Z</time>
</trkpt>
<trkpt lat="46.2970810" lon="9.9904860">
	<ele>2515.20</ele>
	<time>2021-08-31T09:24:24.000Z</time>
</trkpt>
<trkpt lat="46.2971120" lon="9.9904390">
	<ele>2516.20</ele>
	<time>2021-08-31T09:24:29.000Z</time>
</trkpt>
<trkpt lat="46.2971140" lon="9.9904150">
	<ele>2516.80</ele>
	<time>2021-08-31T09:24:31.000Z</time>
</trkpt>
<trkpt lat="46.2971080" lon="9.9903940">
	<ele>2517.40</ele>
	<time>2021-08-31T09:24:33.000Z</time>
</trkpt>
<trkpt lat="46.2971040" lon="9.9903550">
	<ele>2518.00</ele>
	<time>2021-08-31T09:24:37.000Z</time>
</trkpt>
<trkpt lat="46.2971040" lon="9.9903290">
	<ele>2518.20</ele>
	<time>2021-08-31T09:24:39.000Z</time>
</trkpt>
<trkpt lat="46.2971040" lon="9.9903150">
	<ele>2518.20</ele>
	<time>2021-08-31T09:24:40.000Z</time>
</trkpt>
<trkpt lat="46.2971020" lon="9.9902880">
	<ele>2518.60</ele>
	<time>2021-08-31T09:24:42.000Z</time>
</trkpt>
<trkpt lat="46.2971010" lon="9.9902600">
	<ele>2518.80</ele>
	<time>2021-08-31T09:24:44.000Z</time>
</trkpt>
<trkpt lat="46.2970960" lon="9.9902180">
	<ele>2519.40</ele>
	<time>2021-08-31T09:24:47.000Z</time>
</trkpt>
<trkpt lat="46.2970960" lon="9.9901920">
	<ele>2519.60</ele>
	<time>2021-08-31T09:24:49.000Z</time>
</trkpt>
<trkpt lat="46.2970940" lon="9.9901470">
	<ele>2519.80</ele>
	<time>2021-08-31T09:24:52.000Z</time>
</trkpt>
<trkpt lat="46.2971020" lon="9.9900800">
	<ele>2520.20</ele>
	<time>2021-08-31T09:24:57.000Z</time>
</trkpt>
<trkpt lat="46.2971430" lon="9.9900270">
	<ele>2520.80</ele>
	<time>2021-08-31T09:25:03.000Z</time>
</trkpt>
<trkpt lat="46.2971660" lon="9.9899960">
	<ele>2521.40</ele>
	<time>2021-08-31T09:25:06.000Z</time>
</trkpt>
<trkpt lat="46.2971730" lon="9.9899750">
	<ele>2521.80</ele>
	<time>2021-08-31T09:25:08.000Z</time>
</trkpt>
<trkpt lat="46.2971960" lon="9.9898930">
	<ele>2522.20</ele>
	<time>2021-08-31T09:25:14.000Z</time>
</trkpt>
<trkpt lat="46.2972000" lon="9.9898780">
	<ele>2522.20</ele>
	<time>2021-08-31T09:25:15.000Z</time>
</trkpt>
<trkpt lat="46.2972280" lon="9.9897180">
	<ele>2522.20</ele>
	<time>2021-08-31T09:25:24.000Z</time>
</trkpt>
<trkpt lat="46.2972660" lon="9.9895960">
	<ele>2522.40</ele>
	<time>2021-08-31T09:25:33.000Z</time>
</trkpt>
<trkpt lat="46.2972670" lon="9.9895940">
	<ele>2522.40</ele>
	<time>2021-08-31T09:25:34.000Z</time>
</trkpt>
<trkpt lat="46.2972810" lon="9.9895930">
	<ele>2522.80</ele>
	<time>2021-08-31T09:25:45.000Z</time>
</trkpt>
<trkpt lat="46.2972810" lon="9.9895930">
	<ele>2522.60</ele>
	<time>2021-08-31T09:25:49.000Z</time>
</trkpt>
<trkpt lat="46.2972810" lon="9.9895930">
	<ele>2522.40</ele>
	<time>2021-08-31T09:25:54.000Z</time>
</trkpt>
<trkpt lat="46.2973310" lon="9.9895580">
	<ele>2521.80</ele>
	<time>2021-08-31T09:26:02.000Z</time>
</trkpt>
<trkpt lat="46.2973760" lon="9.9895210">
	<ele>2521.60</ele>
	<time>2021-08-31T09:26:05.000Z</time>
</trkpt>
<trkpt lat="46.2974200" lon="9.9894690">
	<ele>2521.60</ele>
	<time>2021-08-31T09:26:09.000Z</time>
</trkpt>
<trkpt lat="46.2974200" lon="9.9894560">
	<ele>2521.80</ele>
	<time>2021-08-31T09:26:10.000Z</time>
</trkpt>
<trkpt lat="46.2974310" lon="9.9893640">
	<ele>2522.80</ele>
	<time>2021-08-31T09:26:17.000Z</time>
</trkpt>
<trkpt lat="46.2974400" lon="9.9893380">
	<ele>2523.20</ele>
	<time>2021-08-31T09:26:19.000Z</time>
</trkpt>
<trkpt lat="46.2974660" lon="9.9892890">
	<ele>2524.00</ele>
	<time>2021-08-31T09:26:23.000Z</time>
</trkpt>
<trkpt lat="46.2974910" lon="9.9892390">
	<ele>2524.40</ele>
	<time>2021-08-31T09:26:27.000Z</time>
</trkpt>
<trkpt lat="46.2975140" lon="9.9892060">
	<ele>2525.00</ele>
	<time>2021-08-31T09:26:30.000Z</time>
</trkpt>
<trkpt lat="46.2975780" lon="9.9891550">
	<ele>2526.00</ele>
	<time>2021-08-31T09:26:38.000Z</time>
</trkpt>
<trkpt lat="46.2976000" lon="9.9891530">
	<ele>2526.00</ele>
	<time>2021-08-31T09:26:40.000Z</time>
</trkpt>
<trkpt lat="46.2976430" lon="9.9891490">
	<ele>2526.60</ele>
	<time>2021-08-31T09:26:45.000Z</time>
</trkpt>
<trkpt lat="46.2976760" lon="9.9891520">
	<ele>2527.00</ele>
	<time>2021-08-31T09:26:49.000Z</time>
</trkpt>
<trkpt lat="46.2976870" lon="9.9891530">
	<ele>2527.20</ele>
	<time>2021-08-31T09:26:50.000Z</time>
</trkpt>
<trkpt lat="46.2977900" lon="9.9891690">
	<ele>2527.20</ele>
	<time>2021-08-31T09:26:59.000Z</time>
</trkpt>
<trkpt lat="46.2979120" lon="9.9891850">
	<ele>2526.60</ele>
	<time>2021-08-31T09:27:09.000Z</time>
</trkpt>
<trkpt lat="46.2980280" lon="9.9892170">
	<ele>2526.60</ele>
	<time>2021-08-31T09:27:18.000Z</time>
</trkpt>
<trkpt lat="46.2981020" lon="9.9891630">
	<ele>2527.20</ele>
	<time>2021-08-31T09:27:26.000Z</time>
</trkpt>
<trkpt lat="46.2981470" lon="9.9891210">
	<ele>2528.00</ele>
	<time>2021-08-31T09:27:31.000Z</time>
</trkpt>
<trkpt lat="46.2982170" lon="9.9890860">
	<ele>2528.20</ele>
	<time>2021-08-31T09:27:39.000Z</time>
</trkpt>
<trkpt lat="46.2982430" lon="9.9890950">
	<ele>2527.40</ele>
	<time>2021-08-31T09:27:43.000Z</time>
</trkpt>
<trkpt lat="46.2982670" lon="9.9891090">
	<ele>2526.80</ele>
	<time>2021-08-31T09:27:46.000Z</time>
</trkpt>
<trkpt lat="46.2982800" lon="9.9891160">
	<ele>2526.60</ele>
	<time>2021-08-31T09:27:48.000Z</time>
</trkpt>
<trkpt lat="46.2983140" lon="9.9891160">
	<ele>2525.60</ele>
	<time>2021-08-31T09:27:52.000Z</time>
</trkpt>
<trkpt lat="46.2983340" lon="9.9891190">
	<ele>2525.00</ele>
	<time>2021-08-31T09:27:55.000Z</time>
</trkpt>
<trkpt lat="46.2983470" lon="9.9891140">
	<ele>2524.40</ele>
	<time>2021-08-31T09:27:57.000Z</time>
</trkpt>
<trkpt lat="46.2983830" lon="9.9891260">
	<ele>2523.40</ele>
	<time>2021-08-31T09:28:02.000Z</time>
</trkpt>
<trkpt lat="46.2984030" lon="9.9891330">
	<ele>2522.80</ele>
	<time>2021-08-31T09:28:05.000Z</time>
</trkpt>
<trkpt lat="46.2984190" lon="9.9891370">
	<ele>2522.20</ele>
	<time>2021-08-31T09:28:07.000Z</time>
</trkpt>
<trkpt lat="46.2984470" lon="9.9891360">
	<ele>2521.80</ele>
	<time>2021-08-31T09:28:11.000Z</time>
</trkpt>
<trkpt lat="46.2984530" lon="9.9891320">
	<ele>2521.60</ele>
	<time>2021-08-31T09:28:12.000Z</time>
</trkpt>
<trkpt lat="46.2984550" lon="9.9891330">
	<ele>2521.40</ele>
	<time>2021-08-31T09:28:14.000Z</time>
</trkpt>
<trkpt lat="46.2984500" lon="9.9891380">
	<ele>2521.40</ele>
	<time>2021-08-31T09:28:16.000Z</time>
</trkpt>
<trkpt lat="46.2984710" lon="9.9891410">
	<ele>2521.40</ele>
	<time>2021-08-31T09:28:22.000Z</time>
</trkpt>
<trkpt lat="46.2984710" lon="9.9891410">
	<ele>2521.20</ele>
	<time>2021-08-31T09:28:24.000Z</time>
</trkpt>
<trkpt lat="46.2984710" lon="9.9891410">
	<ele>2521.20</ele>
	<time>2021-08-31T09:28:26.000Z</time>
</trkpt>
<trkpt lat="46.2984680" lon="9.9891410">
	<ele>2521.20</ele>
	<time>2021-08-31T09:28:30.000Z</time>
</trkpt>
<trkpt lat="46.2985000" lon="9.9891830">
	<ele>2520.40</ele>
	<time>2021-08-31T09:28:37.000Z</time>
</trkpt>
<trkpt lat="46.2985350" lon="9.9892110">
	<ele>2520.20</ele>
	<time>2021-08-31T09:28:40.000Z</time>
</trkpt>
<trkpt lat="46.2985720" lon="9.9892240">
	<ele>2519.60</ele>
	<time>2021-08-31T09:28:43.000Z</time>
</trkpt>
<trkpt lat="46.2986080" lon="9.9892300">
	<ele>2518.80</ele>
	<time>2021-08-31T09:28:47.000Z</time>
</trkpt>
<trkpt lat="46.2986560" lon="9.9892560">
	<ele>2517.60</ele>
	<time>2021-08-31T09:28:52.000Z</time>
</trkpt>
<trkpt lat="46.2987120" lon="9.9892770">
	<ele>2516.40</ele>
	<time>2021-08-31T09:28:58.000Z</time>
</trkpt>
<trkpt lat="46.2987510" lon="9.9892950">
	<ele>2515.60</ele>
	<time>2021-08-31T09:29:03.000Z</time>
</trkpt>
<trkpt lat="46.2987680" lon="9.9892980">
	<ele>2515.40</ele>
	<time>2021-08-31T09:29:05.000Z</time>
</trkpt>
<trkpt lat="46.2988120" lon="9.9892820">
	<ele>2514.60</ele>
	<time>2021-08-31T09:29:09.000Z</time>
</trkpt>
<trkpt lat="46.2988640" lon="9.9892710">
	<ele>2514.40</ele>
	<time>2021-08-31T09:29:14.000Z</time>
</trkpt>
<trkpt lat="46.2988640" lon="9.9892540">
	<ele>2514.40</ele>
	<time>2021-08-31T09:29:16.000Z</time>
</trkpt>
<trkpt lat="46.2988470" lon="9.9892380">
	<ele>2514.40</ele>
	<time>2021-08-31T09:29:33.000Z</time>
</trkpt>
<trkpt lat="46.2988870" lon="9.9891440">
	<ele>2514.80</ele>
	<time>2021-08-31T09:29:40.000Z</time>
</trkpt>
<trkpt lat="46.2988780" lon="9.9889550">
	<ele>2515.20</ele>
	<time>2021-08-31T09:29:52.000Z</time>
</trkpt>
<trkpt lat="46.2988590" lon="9.9888140">
	<ele>2515.80</ele>
	<time>2021-08-31T09:30:02.000Z</time>
</trkpt>
<trkpt lat="46.2988920" lon="9.9887710">
	<ele>2516.20</ele>
	<time>2021-08-31T09:30:08.000Z</time>
</trkpt>
<trkpt lat="46.2989010" lon="9.9887710">
	<ele>2516.40</ele>
	<time>2021-08-31T09:30:09.000Z</time>
</trkpt>
<trkpt lat="46.2989370" lon="9.9887780">
	<ele>2516.60</ele>
	<time>2021-08-31T09:30:13.000Z</time>
</trkpt>
<trkpt lat="46.2989520" lon="9.9887760">
	<ele>2516.80</ele>
	<time>2021-08-31T09:30:15.000Z</time>
</trkpt>
<trkpt lat="46.2989650" lon="9.9887880">
	<ele>2517.20</ele>
	<time>2021-08-31T09:30:17.000Z</time>
</trkpt>
<trkpt lat="46.2989840" lon="9.9888090">
	<ele>2517.40</ele>
	<time>2021-08-31T09:30:19.000Z</time>
</trkpt>
<trkpt lat="46.2990050" lon="9.9888170">
	<ele>2517.40</ele>
	<time>2021-08-31T09:30:22.000Z</time>
</trkpt>
<trkpt lat="46.2990500" lon="9.9888310">
	<ele>2517.80</ele>
	<time>2021-08-31T09:30:27.000Z</time>
</trkpt>
<trkpt lat="46.2990680" lon="9.9888130">
	<ele>2518.20</ele>
	<time>2021-08-31T09:30:29.000Z</time>
</trkpt>
<trkpt lat="46.2990760" lon="9.9888000">
	<ele>2518.40</ele>
	<time>2021-08-31T09:30:30.000Z</time>
</trkpt>
<trkpt lat="46.2991090" lon="9.9886780">
	<ele>2518.80</ele>
	<time>2021-08-31T09:30:39.000Z</time>
</trkpt>
<trkpt lat="46.2991150" lon="9.9886020">
	<ele>2519.40</ele>
	<time>2021-08-31T09:30:45.000Z</time>
</trkpt>
<trkpt lat="46.2991180" lon="9.9885670">
	<ele>2519.60</ele>
	<time>2021-08-31T09:30:47.000Z</time>
</trkpt>
<trkpt lat="46.2991320" lon="9.9885220">
	<ele>2519.80</ele>
	<time>2021-08-31T09:30:54.000Z</time>
</trkpt>
<trkpt lat="46.2991270" lon="9.9884920">
	<ele>2519.40</ele>
	<time>2021-08-31T09:31:05.000Z</time>
</trkpt>
<trkpt lat="46.2991290" lon="9.9884860">
	<ele>2519.40</ele>
	<time>2021-08-31T09:31:09.000Z</time>
</trkpt>
<trkpt lat="46.2991290" lon="9.9884860">
	<ele>2519.40</ele>
	<time>2021-08-31T09:31:16.000Z</time>
</trkpt>
<trkpt lat="46.2991270" lon="9.9884890">
	<ele>2519.60</ele>
	<time>2021-08-31T09:31:25.000Z</time>
</trkpt>
<trkpt lat="46.2991150" lon="9.9884910">
	<ele>2519.60</ele>
	<time>2021-08-31T09:31:28.000Z</time>
</trkpt>
<trkpt lat="46.2991250" lon="9.9884380">
	<ele>2520.40</ele>
	<time>2021-08-31T09:31:37.000Z</time>
</trkpt>
<trkpt lat="46.2991300" lon="9.9884200">
	<ele>2520.40</ele>
	<time>2021-08-31T09:31:38.000Z</time>
</trkpt>
<trkpt lat="46.2991590" lon="9.9882910">
	<ele>2521.40</ele>
	<time>2021-08-31T09:31:47.000Z</time>
</trkpt>
<trkpt lat="46.2991620" lon="9.9882850">
	<ele>2521.60</ele>
	<time>2021-08-31T09:31:48.000Z</time>
</trkpt>
<trkpt lat="46.2991690" lon="9.9882440">
	<ele>2522.60</ele>
	<time>2021-08-31T09:31:52.000Z</time>
</trkpt>
<trkpt lat="46.2991730" lon="9.9882460">
	<ele>2522.60</ele>
	<time>2021-08-31T09:31:54.000Z</time>
</trkpt>
<trkpt lat="46.2991750" lon="9.9882450">
	<ele>2522.60</ele>
	<time>2021-08-31T09:31:55.000Z</time>
</trkpt>
<trkpt lat="46.2991840" lon="9.9882490">
	<ele>2522.20</ele>
	<time>2021-08-31T09:31:58.000Z</time>
</trkpt>
<trkpt lat="46.2991970" lon="9.9882450">
	<ele>2522.00</ele>
	<time>2021-08-31T09:32:02.000Z</time>
</trkpt>
<trkpt lat="46.2991970" lon="9.9882450">
	<ele>2522.00</ele>
	<time>2021-08-31T09:32:05.000Z</time>
</trkpt>
<trkpt lat="46.2992140" lon="9.9882410">
	<ele>2522.40</ele>
	<time>2021-08-31T09:32:22.000Z</time>
</trkpt>
<trkpt lat="46.2992320" lon="9.9882100">
	<ele>2522.80</ele>
	<time>2021-08-31T09:32:25.000Z</time>
</trkpt>
<trkpt lat="46.2992480" lon="9.9881670">
	<ele>2523.60</ele>
	<time>2021-08-31T09:32:28.000Z</time>
</trkpt>
<trkpt lat="46.2992500" lon="9.9880980">
	<ele>2524.40</ele>
	<time>2021-08-31T09:32:33.000Z</time>
</trkpt>
<trkpt lat="46.2992420" lon="9.9880280">
	<ele>2524.60</ele>
	<time>2021-08-31T09:32:38.000Z</time>
</trkpt>
<trkpt lat="46.2992430" lon="9.9879990">
	<ele>2524.80</ele>
	<time>2021-08-31T09:32:40.000Z</time>
</trkpt>
<trkpt lat="46.2992500" lon="9.9879450">
	<ele>2525.00</ele>
	<time>2021-08-31T09:32:44.000Z</time>
</trkpt>
<trkpt lat="46.2992610" lon="9.9879050">
	<ele>2525.80</ele>
	<time>2021-08-31T09:32:48.000Z</time>
</trkpt>
<trkpt lat="46.2992610" lon="9.9878680">
	<ele>2526.60</ele>
	<time>2021-08-31T09:32:52.000Z</time>
</trkpt>
<trkpt lat="46.2992590" lon="9.9878430">
	<ele>2527.00</ele>
	<time>2021-08-31T09:32:54.000Z</time>
</trkpt>
<trkpt lat="46.2992620" lon="9.9877920">
	<ele>2527.40</ele>
	<time>2021-08-31T09:32:59.000Z</time>
</trkpt>
<trkpt lat="46.2992610" lon="9.9877810">
	<ele>2528.00</ele>
	<time>2021-08-31T09:33:01.000Z</time>
</trkpt>
<trkpt lat="46.2992600" lon="9.9877780">
	<ele>2528.20</ele>
	<time>2021-08-31T09:33:02.000Z</time>
</trkpt>
<trkpt lat="46.2992600" lon="9.9877500">
	<ele>2529.40</ele>
	<time>2021-08-31T09:33:05.000Z</time>
</trkpt>
<trkpt lat="46.2992710" lon="9.9877150">
	<ele>2530.60</ele>
	<time>2021-08-31T09:33:12.000Z</time>
</trkpt>
<trkpt lat="46.2992790" lon="9.9876820">
	<ele>2531.60</ele>
	<time>2021-08-31T09:33:16.000Z</time>
</trkpt>
<trkpt lat="46.2992810" lon="9.9876750">
	<ele>2531.80</ele>
	<time>2021-08-31T09:33:17.000Z</time>
</trkpt>
<trkpt lat="46.2992930" lon="9.9876410">
	<ele>2532.40</ele>
	<time>2021-08-31T09:33:22.000Z</time>
</trkpt>
<trkpt lat="46.2993050" lon="9.9876280">
	<ele>2532.80</ele>
	<time>2021-08-31T09:33:24.000Z</time>
</trkpt>
<trkpt lat="46.2993090" lon="9.9876190">
	<ele>2532.80</ele>
	<time>2021-08-31T09:33:25.000Z</time>
</trkpt>
<trkpt lat="46.2993110" lon="9.9875960">
	<ele>2533.80</ele>
	<time>2021-08-31T09:33:31.000Z</time>
</trkpt>
<trkpt lat="46.2993130" lon="9.9876160">
	<ele>2533.80</ele>
	<time>2021-08-31T09:33:39.000Z</time>
</trkpt>
<trkpt lat="46.2993130" lon="9.9876160">
	<ele>2534.00</ele>
	<time>2021-08-31T09:33:43.000Z</time>
</trkpt>
<trkpt lat="46.2993130" lon="9.9876130">
	<ele>2534.80</ele>
	<time>2021-08-31T09:33:49.000Z</time>
</trkpt>
<trkpt lat="46.2993180" lon="9.9875850">
	<ele>2536.00</ele>
	<time>2021-08-31T09:33:54.000Z</time>
</trkpt>
<trkpt lat="46.2993510" lon="9.9875240">
	<ele>2536.40</ele>
	<time>2021-08-31T09:33:58.000Z</time>
</trkpt>
<trkpt lat="46.2993890" lon="9.9874990">
	<ele>2537.00</ele>
	<time>2021-08-31T09:34:04.000Z</time>
</trkpt>
<trkpt lat="46.2993930" lon="9.9874960">
	<ele>2537.00</ele>
	<time>2021-08-31T09:34:05.000Z</time>
</trkpt>
<trkpt lat="46.2993950" lon="9.9874840">
	<ele>2538.20</ele>
	<time>2021-08-31T09:34:08.000Z</time>
</trkpt>
<trkpt lat="46.2993950" lon="9.9874860">
	<ele>2538.60</ele>
	<time>2021-08-31T09:34:11.000Z</time>
</trkpt>
<trkpt lat="46.2994060" lon="9.9874880">
	<ele>2538.60</ele>
	<time>2021-08-31T09:34:17.000Z</time>
</trkpt>
<trkpt lat="46.2994060" lon="9.9874880">
	<ele>2538.60</ele>
	<time>2021-08-31T09:34:18.000Z</time>
</trkpt>
<trkpt lat="46.2994060" lon="9.9874880">
	<ele>2538.60</ele>
	<time>2021-08-31T09:34:20.000Z</time>
</trkpt>
<trkpt lat="46.2994060" lon="9.9874880">
	<ele>2538.80</ele>
	<time>2021-08-31T09:34:22.000Z</time>
</trkpt>
<trkpt lat="46.2994060" lon="9.9874880">
	<ele>2538.80</ele>
	<time>2021-08-31T09:34:23.000Z</time>
</trkpt>
<trkpt lat="46.2994030" lon="9.9874860">
	<ele>2538.60</ele>
	<time>2021-08-31T09:34:26.000Z</time>
</trkpt>
<trkpt lat="46.2993980" lon="9.9874860">
	<ele>2538.40</ele>
	<time>2021-08-31T09:34:28.000Z</time>
</trkpt>
<trkpt lat="46.2993950" lon="9.9874840">
	<ele>2539.00</ele>
	<time>2021-08-31T09:34:33.000Z</time>
</trkpt>
<trkpt lat="46.2993950" lon="9.9874830">
	<ele>2539.40</ele>
	<time>2021-08-31T09:34:36.000Z</time>
</trkpt>
<trkpt lat="46.2993950" lon="9.9874810">
	<ele>2540.00</ele>
	<time>2021-08-31T09:34:38.000Z</time>
</trkpt>
<trkpt lat="46.2993980" lon="9.9874800">
	<ele>2540.40</ele>
	<time>2021-08-31T09:34:41.000Z</time>
</trkpt>
<trkpt lat="46.2993980" lon="9.9874800">
	<ele>2540.40</ele>
	<time>2021-08-31T09:34:42.000Z</time>
</trkpt>
<trkpt lat="46.2994020" lon="9.9874530">
	<ele>2541.00</ele>
	<time>2021-08-31T09:34:45.000Z</time>
</trkpt>
<trkpt lat="46.2994080" lon="9.9874010">
	<ele>2541.40</ele>
	<time>2021-08-31T09:34:48.000Z</time>
</trkpt>
<trkpt lat="46.2994100" lon="9.9873820">
	<ele>2541.60</ele>
	<time>2021-08-31T09:34:49.000Z</time>
</trkpt>
<trkpt lat="46.2994130" lon="9.9873650">
	<ele>2541.80</ele>
	<time>2021-08-31T09:34:50.000Z</time>
</trkpt>
<trkpt lat="46.2994220" lon="9.9873320">
	<ele>2542.00</ele>
	<time>2021-08-31T09:34:52.000Z</time>
</trkpt>
<trkpt lat="46.2994260" lon="9.9873210">
	<ele>2542.20</ele>
	<time>2021-08-31T09:34:53.000Z</time>
</trkpt>
<trkpt lat="46.2994410" lon="9.9873070">
	<ele>2542.40</ele>
	<time>2021-08-31T09:34:56.000Z</time>
</trkpt>
<trkpt lat="46.2994600" lon="9.9872940">
	<ele>2542.60</ele>
	<time>2021-08-31T09:34:59.000Z</time>
</trkpt>
<trkpt lat="46.2994660" lon="9.9872890">
	<ele>2542.80</ele>
	<time>2021-08-31T09:35:00.000Z</time>
</trkpt>
<trkpt lat="46.2994710" lon="9.9872860">
	<ele>2543.00</ele>
	<time>2021-08-31T09:35:01.000Z</time>
</trkpt>
<trkpt lat="46.2994810" lon="9.9872790">
	<ele>2543.40</ele>
	<time>2021-08-31T09:35:03.000Z</time>
</trkpt>
<trkpt lat="46.2994960" lon="9.9872740">
	<ele>2544.00</ele>
	<time>2021-08-31T09:35:05.000Z</time>
</trkpt>
<trkpt lat="46.2995170" lon="9.9872650">
	<ele>2544.20</ele>
	<time>2021-08-31T09:35:08.000Z</time>
</trkpt>
<trkpt lat="46.2995320" lon="9.9872560">
	<ele>2544.60</ele>
	<time>2021-08-31T09:35:10.000Z</time>
</trkpt>
<trkpt lat="46.2995410" lon="9.9872520">
	<ele>2544.80</ele>
	<time>2021-08-31T09:35:11.000Z</time>
</trkpt>
<trkpt lat="46.2995510" lon="9.9872460">
	<ele>2544.80</ele>
	<time>2021-08-31T09:35:14.000Z</time>
</trkpt>
<trkpt lat="46.2995520" lon="9.9872500">
	<ele>2544.80</ele>
	<time>2021-08-31T09:35:19.000Z</time>
</trkpt>
<trkpt lat="46.2995490" lon="9.9872600">
	<ele>2544.60</ele>
	<time>2021-08-31T09:35:32.000Z</time>
</trkpt>
<trkpt lat="46.2995490" lon="9.9872610">
	<ele>2544.80</ele>
	<time>2021-08-31T09:35:37.000Z</time>
</trkpt>
<trkpt lat="46.2995490" lon="9.9872600">
	<ele>2544.20</ele>
	<time>2021-08-31T09:35:45.000Z</time>
</trkpt>
<trkpt lat="46.2995490" lon="9.9872590">
	<ele>2544.00</ele>
	<time>2021-08-31T09:35:48.000Z</time>
</trkpt>
<trkpt lat="46.2995490" lon="9.9872590">
	<ele>2544.00</ele>
	<time>2021-08-31T09:35:50.000Z</time>
</trkpt>
<trkpt lat="46.2995480" lon="9.9872590">
	<ele>2544.40</ele>
	<time>2021-08-31T09:35:54.000Z</time>
</trkpt>
<trkpt lat="46.2995390" lon="9.9872590">
	<ele>2544.40</ele>
	<time>2021-08-31T09:35:59.000Z</time>
</trkpt>
<trkpt lat="46.2995380" lon="9.9872590">
	<ele>2544.60</ele>
	<time>2021-08-31T09:36:02.000Z</time>
</trkpt>
<trkpt lat="46.2995370" lon="9.9872580">
	<ele>2544.60</ele>
	<time>2021-08-31T09:36:04.000Z</time>
</trkpt>
<trkpt lat="46.2995360" lon="9.9872570">
	<ele>2544.80</ele>
	<time>2021-08-31T09:36:08.000Z</time>
</trkpt>
<trkpt lat="46.2995300" lon="9.9872520">
	<ele>2545.00</ele>
	<time>2021-08-31T09:36:12.000Z</time>
</trkpt>
<trkpt lat="46.2995790" lon="9.9872310">
	<ele>2546.20</ele>
	<time>2021-08-31T09:36:22.000Z</time>
</trkpt>
<trkpt lat="46.2996450" lon="9.9872210">
	<ele>2547.20</ele>
	<time>2021-08-31T09:36:29.000Z</time>
</trkpt>
<trkpt lat="46.2996630" lon="9.9872090">
	<ele>2547.60</ele>
	<time>2021-08-31T09:36:31.000Z</time>
</trkpt>
<trkpt lat="46.2996720" lon="9.9872000">
	<ele>2547.60</ele>
	<time>2021-08-31T09:36:32.000Z</time>
</trkpt>
<trkpt lat="46.2996900" lon="9.9871910">
	<ele>2548.40</ele>
	<time>2021-08-31T09:36:35.000Z</time>
</trkpt>
<trkpt lat="46.2997330" lon="9.9871680">
	<ele>2549.40</ele>
	<time>2021-08-31T09:36:41.000Z</time>
</trkpt>
<trkpt lat="46.2997380" lon="9.9871620">
	<ele>2549.80</ele>
	<time>2021-08-31T09:36:42.000Z</time>
</trkpt>
<trkpt lat="46.2997430" lon="9.9871510">
	<ele>2550.00</ele>
	<time>2021-08-31T09:36:43.000Z</time>
</trkpt>
<trkpt lat="46.2997620" lon="9.9871160">
	<ele>2550.80</ele>
	<time>2021-08-31T09:36:47.000Z</time>
</trkpt>
<trkpt lat="46.2997820" lon="9.9870810">
	<ele>2551.40</ele>
	<time>2021-08-31T09:36:51.000Z</time>
</trkpt>
<trkpt lat="46.2997870" lon="9.9870680">
	<ele>2551.60</ele>
	<time>2021-08-31T09:36:52.000Z</time>
</trkpt>
<trkpt lat="46.2997970" lon="9.9870330">
	<ele>2552.00</ele>
	<time>2021-08-31T09:36:55.000Z</time>
</trkpt>
<trkpt lat="46.2998050" lon="9.9869970">
	<ele>2552.40</ele>
	<time>2021-08-31T09:36:58.000Z</time>
</trkpt>
<trkpt lat="46.2998110" lon="9.9869750">
	<ele>2552.40</ele>
	<time>2021-08-31T09:37:00.000Z</time>
</trkpt>
<trkpt lat="46.2998160" lon="9.9869490">
	<ele>2552.80</ele>
	<time>2021-08-31T09:37:02.000Z</time>
</trkpt>
<trkpt lat="46.2998160" lon="9.9869450">
	<ele>2553.00</ele>
	<time>2021-08-31T09:37:03.000Z</time>
</trkpt>
<trkpt lat="46.2998250" lon="9.9869340">
	<ele>2553.20</ele>
	<time>2021-08-31T09:37:05.000Z</time>
</trkpt>
<trkpt lat="46.2998400" lon="9.9869320">
	<ele>2553.40</ele>
	<time>2021-08-31T09:37:07.000Z</time>
</trkpt>
<trkpt lat="46.2998490" lon="9.9869290">
	<ele>2553.40</ele>
	<time>2021-08-31T09:37:08.000Z</time>
</trkpt>
<trkpt lat="46.2998700" lon="9.9869080">
	<ele>2554.00</ele>
	<time>2021-08-31T09:37:11.000Z</time>
</trkpt>
<trkpt lat="46.2998760" lon="9.9868990">
	<ele>2554.40</ele>
	<time>2021-08-31T09:37:12.000Z</time>
</trkpt>
<trkpt lat="46.2998970" lon="9.9868420">
	<ele>2554.60</ele>
	<time>2021-08-31T09:37:17.000Z</time>
</trkpt>
<trkpt lat="46.2999320" lon="9.9867480">
	<ele>2555.00</ele>
	<time>2021-08-31T09:37:26.000Z</time>
</trkpt>
<trkpt lat="46.2999560" lon="9.9867050">
	<ele>2555.40</ele>
	<time>2021-08-31T09:37:30.000Z</time>
</trkpt>
<trkpt lat="46.2999900" lon="9.9866790">
	<ele>2555.80</ele>
	<time>2021-08-31T09:37:35.000Z</time>
</trkpt>
<trkpt lat="46.3000010" lon="9.9866640">
	<ele>2556.20</ele>
	<time>2021-08-31T09:37:41.000Z</time>
</trkpt>
<trkpt lat="46.3000450" lon="9.9866550">
	<ele>2555.60</ele>
	<time>2021-08-31T09:37:49.000Z</time>
</trkpt>
<trkpt lat="46.3000700" lon="9.9865760">
	<ele>2555.80</ele>
	<time>2021-08-31T09:37:56.000Z</time>
</trkpt>
<trkpt lat="46.3000760" lon="9.9865610">
	<ele>2556.40</ele>
	<time>2021-08-31T09:37:59.000Z</time>
</trkpt>
<trkpt lat="46.3000760" lon="9.9865370">
	<ele>2557.60</ele>
	<time>2021-08-31T09:38:03.000Z</time>
</trkpt>
<trkpt lat="46.3000930" lon="9.9864860">
	<ele>2558.60</ele>
	<time>2021-08-31T09:38:11.000Z</time>
</trkpt>
<trkpt lat="46.3000940" lon="9.9864790">
	<ele>2558.80</ele>
	<time>2021-08-31T09:38:12.000Z</time>
</trkpt>
<trkpt lat="46.3001010" lon="9.9864120">
	<ele>2559.80</ele>
	<time>2021-08-31T09:38:19.000Z</time>
</trkpt>
<trkpt lat="46.3001050" lon="9.9864000">
	<ele>2560.40</ele>
	<time>2021-08-31T09:38:21.000Z</time>
</trkpt>
<trkpt lat="46.3001110" lon="9.9863810">
	<ele>2561.00</ele>
	<time>2021-08-31T09:38:25.000Z</time>
</trkpt>
<trkpt lat="46.3001110" lon="9.9863290">
	<ele>2561.80</ele>
	<time>2021-08-31T09:38:31.000Z</time>
</trkpt>
<trkpt lat="46.3001080" lon="9.9863120">
	<ele>2562.00</ele>
	<time>2021-08-31T09:38:33.000Z</time>
</trkpt>
<trkpt lat="46.3001080" lon="9.9862700">
	<ele>2562.60</ele>
	<time>2021-08-31T09:38:39.000Z</time>
</trkpt>
<trkpt lat="46.3001090" lon="9.9862430">
	<ele>2563.20</ele>
	<time>2021-08-31T09:38:48.000Z</time>
</trkpt>
<trkpt lat="46.3001230" lon="9.9862240">
	<ele>2563.40</ele>
	<time>2021-08-31T09:38:51.000Z</time>
</trkpt>
<trkpt lat="46.3001260" lon="9.9861740">
	<ele>2564.40</ele>
	<time>2021-08-31T09:38:56.000Z</time>
</trkpt>
<trkpt lat="46.3001240" lon="9.9861540">
	<ele>2564.60</ele>
	<time>2021-08-31T09:38:58.000Z</time>
</trkpt>
<trkpt lat="46.3001150" lon="9.9860930">
	<ele>2565.40</ele>
	<time>2021-08-31T09:39:03.000Z</time>
</trkpt>
<trkpt lat="46.3001040" lon="9.9860410">
	<ele>2566.40</ele>
	<time>2021-08-31T09:39:09.000Z</time>
</trkpt>
<trkpt lat="46.3001010" lon="9.9860270">
	<ele>2566.60</ele>
	<time>2021-08-31T09:39:10.000Z</time>
</trkpt>
<trkpt lat="46.3000890" lon="9.9859860">
	<ele>2567.80</ele>
	<time>2021-08-31T09:39:15.000Z</time>
</trkpt>
<trkpt lat="46.3000860" lon="9.9859690">
	<ele>2568.20</ele>
	<time>2021-08-31T09:39:18.000Z</time>
</trkpt>
<trkpt lat="46.3000750" lon="9.9859770">
	<ele>2568.80</ele>
	<time>2021-08-31T09:39:29.000Z</time>
</trkpt>
<trkpt lat="46.3000750" lon="9.9859770">
	<ele>2568.20</ele>
	<time>2021-08-31T09:39:36.000Z</time>
</trkpt>
<trkpt lat="46.3001270" lon="9.9859180">
	<ele>2570.00</ele>
	<time>2021-08-31T09:39:54.000Z</time>
</trkpt>
<trkpt lat="46.3001740" lon="9.9858700">
	<ele>2570.20</ele>
	<time>2021-08-31T09:39:58.000Z</time>
</trkpt>
<trkpt lat="46.3002050" lon="9.9858540">
	<ele>2570.20</ele>
	<time>2021-08-31T09:40:01.000Z</time>
</trkpt>
<trkpt lat="46.3002480" lon="9.9858310">
	<ele>2570.00</ele>
	<time>2021-08-31T09:40:06.000Z</time>
</trkpt>
<trkpt lat="46.3002700" lon="9.9857820">
	<ele>2569.40</ele>
	<time>2021-08-31T09:40:10.000Z</time>
</trkpt>
<trkpt lat="46.3002940" lon="9.9857170">
	<ele>2569.00</ele>
	<time>2021-08-31T09:40:16.000Z</time>
</trkpt>
<trkpt lat="46.3003010" lon="9.9857100">
	<ele>2568.80</ele>
	<time>2021-08-31T09:40:17.000Z</time>
</trkpt>
<trkpt lat="46.3003360" lon="9.9856760">
	<ele>2569.00</ele>
	<time>2021-08-31T09:40:22.000Z</time>
</trkpt>
<trkpt lat="46.3003720" lon="9.9856490">
	<ele>2569.80</ele>
	<time>2021-08-31T09:40:27.000Z</time>
</trkpt>
<trkpt lat="46.3003790" lon="9.9856420">
	<ele>2570.00</ele>
	<time>2021-08-31T09:40:28.000Z</time>
</trkpt>
<trkpt lat="46.3004000" lon="9.9856040">
	<ele>2571.00</ele>
	<time>2021-08-31T09:40:34.000Z</time>
</trkpt>
<trkpt lat="46.3004030" lon="9.9856010">
	<ele>2571.20</ele>
	<time>2021-08-31T09:40:35.000Z</time>
</trkpt>
<trkpt lat="46.3004060" lon="9.9856000">
	<ele>2571.40</ele>
	<time>2021-08-31T09:40:36.000Z</time>
</trkpt>
<trkpt lat="46.3004350" lon="9.9855910">
	<ele>2572.40</ele>
	<time>2021-08-31T09:40:41.000Z</time>
</trkpt>
<trkpt lat="46.3004360" lon="9.9855950">
	<ele>2572.60</ele>
	<time>2021-08-31T09:40:42.000Z</time>
</trkpt>
<trkpt lat="46.3004470" lon="9.9856030">
	<ele>2572.80</ele>
	<time>2021-08-31T09:40:44.000Z</time>
</trkpt>
<trkpt lat="46.3004600" lon="9.9855930">
	<ele>2573.20</ele>
	<time>2021-08-31T09:40:46.000Z</time>
</trkpt>
<trkpt lat="46.3004630" lon="9.9855880">
	<ele>2573.60</ele>
	<time>2021-08-31T09:40:47.000Z</time>
</trkpt>
<trkpt lat="46.3004680" lon="9.9855780">
	<ele>2574.20</ele>
	<time>2021-08-31T09:40:49.000Z</time>
</trkpt>
<trkpt lat="46.3004710" lon="9.9855720">
	<ele>2574.40</ele>
	<time>2021-08-31T09:40:50.000Z</time>
</trkpt>
<trkpt lat="46.3004710" lon="9.9855700">
	<ele>2574.60</ele>
	<time>2021-08-31T09:40:51.000Z</time>
</trkpt>
<trkpt lat="46.3004800" lon="9.9855560">
	<ele>2574.80</ele>
	<time>2021-08-31T09:40:54.000Z</time>
</trkpt>
<trkpt lat="46.3004960" lon="9.9855430">
	<ele>2575.60</ele>
	<time>2021-08-31T09:40:58.000Z</time>
</trkpt>
<trkpt lat="46.3005110" lon="9.9855130">
	<ele>2576.80</ele>
	<time>2021-08-31T09:41:04.000Z</time>
</trkpt>
<trkpt lat="46.3005210" lon="9.9854900">
	<ele>2577.60</ele>
	<time>2021-08-31T09:41:08.000Z</time>
</trkpt>
<trkpt lat="46.3005230" lon="9.9854880">
	<ele>2578.00</ele>
	<time>2021-08-31T09:41:09.000Z</time>
</trkpt>
<trkpt lat="46.3005440" lon="9.9854610">
	<ele>2579.00</ele>
	<time>2021-08-31T09:41:16.000Z</time>
</trkpt>
<trkpt lat="46.3005590" lon="9.9854350">
	<ele>2580.20</ele>
	<time>2021-08-31T09:41:20.000Z</time>
</trkpt>
<trkpt lat="46.3005700" lon="9.9854030">
	<ele>2581.20</ele>
	<time>2021-08-31T09:41:25.000Z</time>
</trkpt>
<trkpt lat="46.3005730" lon="9.9853940">
	<ele>2581.40</ele>
	<time>2021-08-31T09:41:26.000Z</time>
</trkpt>
<trkpt lat="46.3005800" lon="9.9853500">
	<ele>2582.00</ele>
	<time>2021-08-31T09:41:34.000Z</time>
</trkpt>
<trkpt lat="46.3005780" lon="9.9853330">
	<ele>2582.00</ele>
	<time>2021-08-31T09:41:57.000Z</time>
</trkpt>
<trkpt lat="46.3005980" lon="9.9853040">
	<ele>2582.20</ele>
	<time>2021-08-31T09:42:00.000Z</time>
</trkpt>
<trkpt lat="46.3006070" lon="9.9852930">
	<ele>2582.40</ele>
	<time>2021-08-31T09:42:01.000Z</time>
</trkpt>
<trkpt lat="46.3006390" lon="9.9852320">
	<ele>2582.80</ele>
	<time>2021-08-31T09:42:05.000Z</time>
</trkpt>
<trkpt lat="46.3006540" lon="9.9851840">
	<ele>2583.20</ele>
	<time>2021-08-31T09:42:08.000Z</time>
</trkpt>
<trkpt lat="46.3006570" lon="9.9851710">
	<ele>2583.20</ele>
	<time>2021-08-31T09:42:09.000Z</time>
</trkpt>
<trkpt lat="46.3006630" lon="9.9851600">
	<ele>2583.40</ele>
	<time>2021-08-31T09:42:10.000Z</time>
</trkpt>
<trkpt lat="46.3006970" lon="9.9851280">
	<ele>2584.20</ele>
	<time>2021-08-31T09:42:16.000Z</time>
</trkpt>
<trkpt lat="46.3007110" lon="9.9851090">
	<ele>2584.60</ele>
	<time>2021-08-31T09:42:19.000Z</time>
</trkpt>
<trkpt lat="46.3007160" lon="9.9850690">
	<ele>2585.20</ele>
	<time>2021-08-31T09:42:24.000Z</time>
</trkpt>
<trkpt lat="46.3007290" lon="9.9850400">
	<ele>2585.60</ele>
	<time>2021-08-31T09:42:27.000Z</time>
</trkpt>
<trkpt lat="46.3007300" lon="9.9850320">
	<ele>2585.80</ele>
	<time>2021-08-31T09:42:28.000Z</time>
</trkpt>
<trkpt lat="46.3007390" lon="9.9849950">
	<ele>2586.60</ele>
	<time>2021-08-31T09:42:32.000Z</time>
</trkpt>
<trkpt lat="46.3007480" lon="9.9849800">
	<ele>2586.80</ele>
	<time>2021-08-31T09:42:34.000Z</time>
</trkpt>
<trkpt lat="46.3007630" lon="9.9849640">
	<ele>2587.20</ele>
	<time>2021-08-31T09:42:37.000Z</time>
</trkpt>
<trkpt lat="46.3007860" lon="9.9849480">
	<ele>2587.80</ele>
	<time>2021-08-31T09:42:41.000Z</time>
</trkpt>
<trkpt lat="46.3008020" lon="9.9849330">
	<ele>2588.00</ele>
	<time>2021-08-31T09:42:43.000Z</time>
</trkpt>
<trkpt lat="46.3008430" lon="9.9848910">
	<ele>2589.00</ele>
	<time>2021-08-31T09:42:49.000Z</time>
</trkpt>
<trkpt lat="46.3008620" lon="9.9848720">
	<ele>2589.60</ele>
	<time>2021-08-31T09:42:52.000Z</time>
</trkpt>
<trkpt lat="46.3008730" lon="9.9848640">
	<ele>2590.00</ele>
	<time>2021-08-31T09:42:54.000Z</time>
</trkpt>
<trkpt lat="46.3008890" lon="9.9848440">
	<ele>2590.40</ele>
	<time>2021-08-31T09:42:59.000Z</time>
</trkpt>
<trkpt lat="46.3008890" lon="9.9848460">
	<ele>2590.40</ele>
	<time>2021-08-31T09:43:00.000Z</time>
</trkpt>
<trkpt lat="46.3008850" lon="9.9848600">
	<ele>2590.40</ele>
	<time>2021-08-31T09:43:12.000Z</time>
</trkpt>
<trkpt lat="46.3008850" lon="9.9848600">
	<ele>2590.20</ele>
	<time>2021-08-31T09:43:14.000Z</time>
</trkpt>
<trkpt lat="46.3008850" lon="9.9848610">
	<ele>2590.40</ele>
	<time>2021-08-31T09:43:25.000Z</time>
</trkpt>
<trkpt lat="46.3008850" lon="9.9848640">
	<ele>2590.60</ele>
	<time>2021-08-31T09:43:30.000Z</time>
</trkpt>
<trkpt lat="46.3008830" lon="9.9848640">
	<ele>2591.00</ele>
	<time>2021-08-31T09:43:34.000Z</time>
</trkpt>
<trkpt lat="46.3008840" lon="9.9848630">
	<ele>2592.20</ele>
	<time>2021-08-31T09:43:42.000Z</time>
</trkpt>
<trkpt lat="46.3009020" lon="9.9848260">
	<ele>2593.40</ele>
	<time>2021-08-31T09:43:46.000Z</time>
</trkpt>
<trkpt lat="46.3009250" lon="9.9847870">
	<ele>2594.20</ele>
	<time>2021-08-31T09:43:49.000Z</time>
</trkpt>
<trkpt lat="46.3009410" lon="9.9847530">
	<ele>2594.40</ele>
	<time>2021-08-31T09:43:51.000Z</time>
</trkpt>
<trkpt lat="46.3009790" lon="9.9847020">
	<ele>2595.40</ele>
	<time>2021-08-31T09:43:56.000Z</time>
</trkpt>
<trkpt lat="46.3009860" lon="9.9846910">
	<ele>2595.80</ele>
	<time>2021-08-31T09:43:58.000Z</time>
</trkpt>
<trkpt lat="46.3010210" lon="9.9846720">
	<ele>2596.60</ele>
	<time>2021-08-31T09:44:04.000Z</time>
</trkpt>
<trkpt lat="46.3010250" lon="9.9846670">
	<ele>2597.00</ele>
	<time>2021-08-31T09:44:05.000Z</time>
</trkpt>
<trkpt lat="46.3010330" lon="9.9846460">
	<ele>2597.60</ele>
	<time>2021-08-31T09:44:08.000Z</time>
</trkpt>
<trkpt lat="46.3010550" lon="9.9845920">
	<ele>2598.80</ele>
	<time>2021-08-31T09:44:14.000Z</time>
</trkpt>
<trkpt lat="46.3010610" lon="9.9845750">
	<ele>2599.00</ele>
	<time>2021-08-31T09:44:16.000Z</time>
</trkpt>
<trkpt lat="46.3010670" lon="9.9845500">
	<ele>2599.40</ele>
	<time>2021-08-31T09:44:19.000Z</time>
</trkpt>
<trkpt lat="46.3010710" lon="9.9845370">
	<ele>2600.00</ele>
	<time>2021-08-31T09:44:21.000Z</time>
</trkpt>
<trkpt lat="46.3010810" lon="9.9845210">
	<ele>2600.60</ele>
	<time>2021-08-31T09:44:24.000Z</time>
</trkpt>
<trkpt lat="46.3010840" lon="9.9845100">
	<ele>2600.80</ele>
	<time>2021-08-31T09:44:31.000Z</time>
</trkpt>
<trkpt lat="46.3010840" lon="9.9845120">
	<ele>2601.00</ele>
	<time>2021-08-31T09:44:37.000Z</time>
</trkpt>
<trkpt lat="46.3010840" lon="9.9845120">
	<ele>2601.20</ele>
	<time>2021-08-31T09:44:41.000Z</time>
</trkpt>
<trkpt lat="46.3010870" lon="9.9845130">
	<ele>2601.20</ele>
	<time>2021-08-31T09:44:55.000Z</time>
</trkpt>
<trkpt lat="46.3010910" lon="9.9845130">
	<ele>2602.00</ele>
	<time>2021-08-31T09:45:03.000Z</time>
</trkpt>
<trkpt lat="46.3010910" lon="9.9844870">
	<ele>2603.00</ele>
	<time>2021-08-31T09:45:07.000Z</time>
</trkpt>
<trkpt lat="46.3010930" lon="9.9844170">
	<ele>2604.20</ele>
	<time>2021-08-31T09:45:11.000Z</time>
</trkpt>
<trkpt lat="46.3010870" lon="9.9843390">
	<ele>2605.40</ele>
	<time>2021-08-31T09:45:16.000Z</time>
</trkpt>
<trkpt lat="46.3010930" lon="9.9843180">
	<ele>2605.80</ele>
	<time>2021-08-31T09:45:20.000Z</time>
</trkpt>
<trkpt lat="46.3011190" lon="9.9843020">
	<ele>2606.40</ele>
	<time>2021-08-31T09:45:24.000Z</time>
</trkpt>
<trkpt lat="46.3011300" lon="9.9842790">
	<ele>2607.20</ele>
	<time>2021-08-31T09:45:27.000Z</time>
</trkpt>
<trkpt lat="46.3011350" lon="9.9842700">
	<ele>2607.60</ele>
	<time>2021-08-31T09:45:28.000Z</time>
</trkpt>
<trkpt lat="46.3011430" lon="9.9842600">
	<ele>2608.00</ele>
	<time>2021-08-31T09:45:30.000Z</time>
</trkpt>
<trkpt lat="46.3011680" lon="9.9842140">
	<ele>2608.60</ele>
	<time>2021-08-31T09:45:36.000Z</time>
</trkpt>
<trkpt lat="46.3011720" lon="9.9842080">
	<ele>2609.00</ele>
	<time>2021-08-31T09:45:37.000Z</time>
</trkpt>
<trkpt lat="46.3011820" lon="9.9841900">
	<ele>2609.40</ele>
	<time>2021-08-31T09:45:42.000Z</time>
</trkpt>
<trkpt lat="46.3011880" lon="9.9841950">
	<ele>2609.60</ele>
	<time>2021-08-31T09:45:45.000Z</time>
</trkpt>
<trkpt lat="46.3012150" lon="9.9841970">
	<ele>2609.80</ele>
	<time>2021-08-31T09:45:49.000Z</time>
</trkpt>
<trkpt lat="46.3012210" lon="9.9842000">
	<ele>2610.00</ele>
	<time>2021-08-31T09:45:51.000Z</time>
</trkpt>
<trkpt lat="46.3012350" lon="9.9841840">
	<ele>2610.20</ele>
	<time>2021-08-31T09:45:54.000Z</time>
</trkpt>
<trkpt lat="46.3012500" lon="9.9841810">
	<ele>2610.00</ele>
	<time>2021-08-31T09:45:58.000Z</time>
</trkpt>
<trkpt lat="46.3012860" lon="9.9840840">
	<ele>2609.60</ele>
	<time>2021-08-31T09:46:09.000Z</time>
</trkpt>
<trkpt lat="46.3012800" lon="9.9840610">
	<ele>2609.60</ele>
	<time>2021-08-31T09:46:14.000Z</time>
</trkpt>
<trkpt lat="46.3012910" lon="9.9840600">
	<ele>2609.40</ele>
	<time>2021-08-31T09:46:21.000Z</time>
</trkpt>
<trkpt lat="46.3012950" lon="9.9840620">
	<ele>2609.80</ele>
	<time>2021-08-31T09:46:31.000Z</time>
</trkpt>
<trkpt lat="46.3012920" lon="9.9840600">
	<ele>2609.80</ele>
	<time>2021-08-31T09:46:36.000Z</time>
</trkpt>
<trkpt lat="46.3012880" lon="9.9840590">
	<ele>2609.80</ele>
	<time>2021-08-31T09:46:38.000Z</time>
</trkpt>
<trkpt lat="46.3012630" lon="9.9840430">
	<ele>2610.00</ele>
	<time>2021-08-31T09:47:18.000Z</time>
</trkpt>
<trkpt lat="46.3012630" lon="9.9840430">
	<ele>2610.00</ele>
	<time>2021-08-31T09:47:20.000Z</time>
</trkpt>
<trkpt lat="46.3012640" lon="9.9840430">
	<ele>2610.00</ele>
	<time>2021-08-31T09:47:23.000Z</time>
</trkpt>
<trkpt lat="46.3012640" lon="9.9840440">
	<ele>2610.00</ele>
	<time>2021-08-31T09:47:25.000Z</time>
</trkpt>
<trkpt lat="46.3012640" lon="9.9840440">
	<ele>2610.00</ele>
	<time>2021-08-31T09:47:27.000Z</time>
</trkpt>
<trkpt lat="46.3012640" lon="9.9840460">
	<ele>2610.00</ele>
	<time>2021-08-31T09:47:29.000Z</time>
</trkpt>
<trkpt lat="46.3012610" lon="9.9840500">
	<ele>2610.00</ele>
	<time>2021-08-31T09:47:49.000Z</time>
</trkpt>
<trkpt lat="46.3012570" lon="9.9840610">
	<ele>2610.00</ele>
	<time>2021-08-31T09:48:09.000Z</time>
</trkpt>
<trkpt lat="46.3012340" lon="9.9841510">
	<ele>2610.00</ele>
	<time>2021-08-31T09:48:22.000Z</time>
</trkpt>
<trkpt lat="46.3012210" lon="9.9841790">
	<ele>2610.00</ele>
	<time>2021-08-31T09:48:24.000Z</time>
</trkpt>
<trkpt lat="46.3012110" lon="9.9842130">
	<ele>2609.40</ele>
	<time>2021-08-31T09:48:29.000Z</time>
</trkpt>
<trkpt lat="46.3012040" lon="9.9842130">
	<ele>2609.40</ele>
	<time>2021-08-31T09:48:37.000Z</time>
</trkpt>
<trkpt lat="46.3012040" lon="9.9842130">
	<ele>2609.00</ele>
	<time>2021-08-31T09:48:45.000Z</time>
</trkpt>
<trkpt lat="46.3012040" lon="9.9842130">
	<ele>2609.00</ele>
	<time>2021-08-31T09:48:48.000Z</time>
</trkpt>
<trkpt lat="46.3012020" lon="9.9842140">
	<ele>2609.60</ele>
	<time>2021-08-31T09:48:52.000Z</time>
</trkpt>
<trkpt lat="46.3012010" lon="9.9842170">
	<ele>2610.60</ele>
	<time>2021-08-31T09:49:03.000Z</time>
</trkpt>
<trkpt lat="46.3012060" lon="9.9842170">
	<ele>2610.00</ele>
	<time>2021-08-31T09:49:27.000Z</time>
</trkpt>
<trkpt lat="46.3012060" lon="9.9842080">
	<ele>2610.00</ele>
	<time>2021-08-31T09:49:29.000Z</time>
</trkpt>
<trkpt lat="46.3012060" lon="9.9841990">
	<ele>2610.00</ele>
	<time>2021-08-31T09:49:31.000Z</time>
</trkpt>
<trkpt lat="46.3012060" lon="9.9841950">
	<ele>2610.00</ele>
	<time>2021-08-31T09:49:33.000Z</time>
</trkpt>
<trkpt lat="46.3011880" lon="9.9842080">
	<ele>2610.20</ele>
	<time>2021-08-31T09:50:00.000Z</time>
</trkpt>
<trkpt lat="46.3011880" lon="9.9842100">
	<ele>2610.20</ele>
	<time>2021-08-31T09:50:03.000Z</time>
</trkpt>
<trkpt lat="46.3011890" lon="9.9841670">
	<ele>2610.20</ele>
	<time>2021-08-31T09:50:12.000Z</time>
</trkpt>
<trkpt lat="46.3011910" lon="9.9841450">
	<ele>2610.20</ele>
	<time>2021-08-31T09:50:14.000Z</time>
</trkpt>
<trkpt lat="46.3011920" lon="9.9841240">
	<ele>2610.40</ele>
	<time>2021-08-31T09:50:17.000Z</time>
</trkpt>
<trkpt lat="46.3011930" lon="9.9841210">
	<ele>2610.40</ele>
	<time>2021-08-31T09:50:18.000Z</time>
</trkpt>
<trkpt lat="46.3011950" lon="9.9841210">
	<ele>2610.60</ele>
	<time>2021-08-31T09:50:20.000Z</time>
</trkpt>
<trkpt lat="46.3012130" lon="9.9840970">
	<ele>2610.80</ele>
	<time>2021-08-31T09:50:28.000Z</time>
</trkpt>
<trkpt lat="46.3012190" lon="9.9840910">
	<ele>2610.60</ele>
	<time>2021-08-31T09:50:29.000Z</time>
</trkpt>
<trkpt lat="46.3012290" lon="9.9840780">
	<ele>2610.60</ele>
	<time>2021-08-31T09:50:31.000Z</time>
</trkpt>
<trkpt lat="46.3012650" lon="9.9840640">
	<ele>2610.00</ele>
	<time>2021-08-31T09:50:36.000Z</time>
</trkpt>
<trkpt lat="46.3012650" lon="9.9840540">
	<ele>2610.20</ele>
	<time>2021-08-31T09:50:43.000Z</time>
</trkpt>
<trkpt lat="46.3012620" lon="9.9840400">
	<ele>2610.20</ele>
	<time>2021-08-31T09:50:46.000Z</time>
</trkpt>
<trkpt lat="46.3012650" lon="9.9840330">
	<ele>2610.40</ele>
	<time>2021-08-31T09:50:48.000Z</time>
</trkpt>
<trkpt lat="46.3012660" lon="9.9840060">
	<ele>2610.00</ele>
	<time>2021-08-31T09:50:52.000Z</time>
</trkpt>
<trkpt lat="46.3012640" lon="9.9839720">
	<ele>2609.80</ele>
	<time>2021-08-31T09:50:56.000Z</time>
</trkpt>
<trkpt lat="46.3012690" lon="9.9839360">
	<ele>2609.60</ele>
	<time>2021-08-31T09:51:02.000Z</time>
</trkpt>
<trkpt lat="46.3012690" lon="9.9839260">
	<ele>2609.80</ele>
	<time>2021-08-31T09:51:14.000Z</time>
</trkpt>
<trkpt lat="46.3012690" lon="9.9839260">
	<ele>2609.60</ele>
	<time>2021-08-31T09:51:16.000Z</time>
</trkpt>
<trkpt lat="46.3012690" lon="9.9839260">
	<ele>2609.60</ele>
	<time>2021-08-31T09:51:19.000Z</time>
</trkpt>
<trkpt lat="46.3012660" lon="9.9839280">
	<ele>2609.20</ele>
	<time>2021-08-31T09:51:29.000Z</time>
</trkpt>
<trkpt lat="46.3012640" lon="9.9839280">
	<ele>2609.00</ele>
	<time>2021-08-31T09:51:33.000Z</time>
</trkpt>
<trkpt lat="46.3012630" lon="9.9839260">
	<ele>2609.20</ele>
	<time>2021-08-31T09:51:38.000Z</time>
</trkpt>
<trkpt lat="46.3012630" lon="9.9839250">
	<ele>2609.00</ele>
	<time>2021-08-31T09:51:43.000Z</time>
</trkpt>
<trkpt lat="46.3012630" lon="9.9839240">
	<ele>2608.80</ele>
	<time>2021-08-31T09:51:53.000Z</time>
</trkpt>
<trkpt lat="46.3012630" lon="9.9838380">
	<ele>2608.80</ele>
	<time>2021-08-31T09:51:59.000Z</time>
</trkpt>
<trkpt lat="46.3012640" lon="9.9838060">
	<ele>2608.80</ele>
	<time>2021-08-31T09:52:01.000Z</time>
</trkpt>
<trkpt lat="46.3012750" lon="9.9837710">
	<ele>2608.40</ele>
	<time>2021-08-31T09:52:07.000Z</time>
</trkpt>
<trkpt lat="46.3012820" lon="9.9837620">
	<ele>2608.40</ele>
	<time>2021-08-31T09:52:23.000Z</time>
</trkpt>
<trkpt lat="46.3012750" lon="9.9837850">
	<ele>2607.60</ele>
	<time>2021-08-31T09:52:50.000Z</time>
</trkpt>
<trkpt lat="46.3012740" lon="9.9837860">
	<ele>2608.00</ele>
	<time>2021-08-31T09:52:56.000Z</time>
</trkpt>
<trkpt lat="46.3012590" lon="9.9838030">
	<ele>2608.00</ele>
	<time>2021-08-31T09:53:19.000Z</time>
</trkpt>
<trkpt lat="46.3012550" lon="9.9838090">
	<ele>2607.80</ele>
	<time>2021-08-31T09:53:30.000Z</time>
</trkpt>
<trkpt lat="46.3012550" lon="9.9838030">
	<ele>2608.40</ele>
	<time>2021-08-31T09:53:44.000Z</time>
</trkpt>
<trkpt lat="46.3012550" lon="9.9837980">
	<ele>2608.40</ele>
	<time>2021-08-31T09:53:49.000Z</time>
</trkpt>
<trkpt lat="46.3012570" lon="9.9837950">
	<ele>2608.40</ele>
	<time>2021-08-31T09:53:53.000Z</time>
</trkpt>
<trkpt lat="46.3012630" lon="9.9837930">
	<ele>2608.40</ele>
	<time>2021-08-31T09:54:05.000Z</time>
</trkpt>
<trkpt lat="46.3012650" lon="9.9837940">
	<ele>2608.40</ele>
	<time>2021-08-31T09:55:02.000Z</time>
</trkpt>
<trkpt lat="46.3012640" lon="9.9837950">
	<ele>2608.40</ele>
	<time>2021-08-31T09:55:11.000Z</time>
</trkpt>
<trkpt lat="46.3012630" lon="9.9837970">
	<ele>2608.40</ele>
	<time>2021-08-31T09:55:21.000Z</time>
</trkpt>
<trkpt lat="46.3012630" lon="9.9837980">
	<ele>2608.40</ele>
	<time>2021-08-31T09:55:33.000Z</time>
</trkpt>
<trkpt lat="46.3012630" lon="9.9837980">
	<ele>2608.40</ele>
	<time>2021-08-31T09:55:38.000Z</time>
</trkpt>
<trkpt lat="46.3012630" lon="9.9837970">
	<ele>2608.40</ele>
	<time>2021-08-31T09:55:43.000Z</time>
</trkpt>
<trkpt lat="46.3012630" lon="9.9837970">
	<ele>2608.40</ele>
	<time>2021-08-31T09:55:57.000Z</time>
</trkpt>
<trkpt lat="46.3012630" lon="9.9837970">
	<ele>2608.40</ele>
	<time>2021-08-31T09:56:03.000Z</time>
</trkpt>
<trkpt lat="46.3012630" lon="9.9837960">
	<ele>2608.40</ele>
	<time>2021-08-31T09:56:21.000Z</time>
</trkpt>
<trkpt lat="46.3012620" lon="9.9837960">
	<ele>2608.40</ele>
	<time>2021-08-31T09:56:43.000Z</time>
</trkpt>
<trkpt lat="46.3012610" lon="9.9837930">
	<ele>2608.40</ele>
	<time>2021-08-31T09:58:04.000Z</time>
</trkpt>
<trkpt lat="46.3012600" lon="9.9837920">
	<ele>2608.40</ele>
	<time>2021-08-31T09:58:36.000Z</time>
</trkpt>
<trkpt lat="46.3012610" lon="9.9837920">
	<ele>2608.40</ele>
	<time>2021-08-31T09:59:12.000Z</time>
</trkpt>
<trkpt lat="46.3012610" lon="9.9837910">
	<ele>2608.40</ele>
	<time>2021-08-31T09:59:26.000Z</time>
</trkpt>
<trkpt lat="46.3012610" lon="9.9837910">
	<ele>2608.40</ele>
	<time>2021-08-31T09:59:38.000Z</time>
</trkpt>
<trkpt lat="46.3012610" lon="9.9837910">
	<ele>2608.40</ele>
	<time>2021-08-31T09:59:50.000Z</time>
</trkpt>
<trkpt lat="46.3012610" lon="9.9837910">
	<ele>2608.40</ele>
	<time>2021-08-31T10:00:05.000Z</time>
</trkpt>
<trkpt lat="46.3012610" lon="9.9837910">
	<ele>2608.40</ele>
	<time>2021-08-31T10:00:12.000Z</time>
</trkpt>
<trkpt lat="46.3012310" lon="9.9837110">
	<ele>2608.40</ele>
	<time>2021-08-31T10:01:01.000Z</time>
</trkpt>
<trkpt lat="46.3011750" lon="9.9835430">
	<ele>2607.40</ele>
	<time>2021-08-31T10:01:11.000Z</time>
</trkpt>
<trkpt lat="46.3011700" lon="9.9835250">
	<ele>2607.20</ele>
	<time>2021-08-31T10:01:12.000Z</time>
</trkpt>
<trkpt lat="46.3011540" lon="9.9834700">
	<ele>2606.80</ele>
	<time>2021-08-31T10:01:16.000Z</time>
</trkpt>
<trkpt lat="46.3011510" lon="9.9834320">
	<ele>2606.60</ele>
	<time>2021-08-31T10:01:18.000Z</time>
</trkpt>
<trkpt lat="46.3011460" lon="9.9834220">
	<ele>2606.60</ele>
	<time>2021-08-31T10:01:19.000Z</time>
</trkpt>
<trkpt lat="46.3011370" lon="9.9833730">
	<ele>2606.20</ele>
	<time>2021-08-31T10:01:22.000Z</time>
</trkpt>
<trkpt lat="46.3011320" lon="9.9832610">
	<ele>2606.00</ele>
	<time>2021-08-31T10:01:29.000Z</time>
</trkpt>
<trkpt lat="46.3011250" lon="9.9831960">
	<ele>2605.40</ele>
	<time>2021-08-31T10:01:34.000Z</time>
</trkpt>
<trkpt lat="46.3011150" lon="9.9831390">
	<ele>2604.80</ele>
	<time>2021-08-31T10:01:38.000Z</time>
</trkpt>
<trkpt lat="46.3011170" lon="9.9831270">
	<ele>2604.80</ele>
	<time>2021-08-31T10:01:41.000Z</time>
</trkpt>
<trkpt lat="46.3011180" lon="9.9831220">
	<ele>2604.60</ele>
	<time>2021-08-31T10:01:44.000Z</time>
</trkpt>
<trkpt lat="46.3011210" lon="9.9831170">
	<ele>2604.60</ele>
	<time>2021-08-31T10:01:49.000Z</time>
</trkpt>
<trkpt lat="46.3011220" lon="9.9831170">
	<ele>2604.40</ele>
	<time>2021-08-31T10:02:03.000Z</time>
</trkpt>
<trkpt lat="46.3011360" lon="9.9831210">
	<ele>2604.60</ele>
	<time>2021-08-31T10:02:19.000Z</time>
</trkpt>
<trkpt lat="46.3011320" lon="9.9830970">
	<ele>2604.40</ele>
	<time>2021-08-31T10:02:29.000Z</time>
</trkpt>
<trkpt lat="46.3011230" lon="9.9830550">
	<ele>2604.20</ele>
	<time>2021-08-31T10:02:31.000Z</time>
</trkpt>
<trkpt lat="46.3011050" lon="9.9829250">
	<ele>2603.20</ele>
	<time>2021-08-31T10:02:39.000Z</time>
</trkpt>
<trkpt lat="46.3010940" lon="9.9828930">
	<ele>2602.80</ele>
	<time>2021-08-31T10:02:41.000Z</time>
</trkpt>
<trkpt lat="46.3010790" lon="9.9828390">
	<ele>2602.20</ele>
	<time>2021-08-31T10:02:45.000Z</time>
</trkpt>
<trkpt lat="46.3010650" lon="9.9827790">
	<ele>2601.40</ele>
	<time>2021-08-31T10:02:49.000Z</time>
</trkpt>
<trkpt lat="46.3010620" lon="9.9827710">
	<ele>2601.20</ele>
	<time>2021-08-31T10:02:50.000Z</time>
</trkpt>
<trkpt lat="46.3010420" lon="9.9827020">
	<ele>2600.20</ele>
	<time>2021-08-31T10:02:56.000Z</time>
</trkpt>
<trkpt lat="46.3010350" lon="9.9826470">
	<ele>2599.40</ele>
	<time>2021-08-31T10:03:00.000Z</time>
</trkpt>
<trkpt lat="46.3010320" lon="9.9826360">
	<ele>2599.00</ele>
	<time>2021-08-31T10:03:02.000Z</time>
</trkpt>
<trkpt lat="46.3010330" lon="9.9826380">
	<ele>2598.80</ele>
	<time>2021-08-31T10:03:04.000Z</time>
</trkpt>
<trkpt lat="46.3010330" lon="9.9826390">
	<ele>2598.80</ele>
	<time>2021-08-31T10:03:06.000Z</time>
</trkpt>
<trkpt lat="46.3010280" lon="9.9826590">
	<ele>2598.60</ele>
	<time>2021-08-31T10:03:29.000Z</time>
</trkpt>
<trkpt lat="46.3010340" lon="9.9826590">
	<ele>2598.00</ele>
	<time>2021-08-31T10:03:35.000Z</time>
</trkpt>
<trkpt lat="46.3010360" lon="9.9826590">
	<ele>2598.00</ele>
	<time>2021-08-31T10:03:37.000Z</time>
</trkpt>
<trkpt lat="46.3010720" lon="9.9826190">
	<ele>2597.80</ele>
	<time>2021-08-31T10:04:06.000Z</time>
</trkpt>
<trkpt lat="46.3010740" lon="9.9826150">
	<ele>2597.00</ele>
	<time>2021-08-31T10:04:16.000Z</time>
</trkpt>
<trkpt lat="46.3010800" lon="9.9826090">
	<ele>2596.00</ele>
	<time>2021-08-31T10:04:20.000Z</time>
</trkpt>
<trkpt lat="46.3011350" lon="9.9825790">
	<ele>2594.60</ele>
	<time>2021-08-31T10:04:25.000Z</time>
</trkpt>
<trkpt lat="46.3011460" lon="9.9825710">
	<ele>2594.40</ele>
	<time>2021-08-31T10:04:26.000Z</time>
</trkpt>
<trkpt lat="46.3011700" lon="9.9825440">
	<ele>2593.80</ele>
	<time>2021-08-31T10:04:29.000Z</time>
</trkpt>
<trkpt lat="46.3011780" lon="9.9825400">
	<ele>2593.40</ele>
	<time>2021-08-31T10:04:31.000Z</time>
</trkpt>
<trkpt lat="46.3012060" lon="9.9825000">
	<ele>2592.40</ele>
	<time>2021-08-31T10:04:37.000Z</time>
</trkpt>
<trkpt lat="46.3012110" lon="9.9824940">
	<ele>2592.20</ele>
	<time>2021-08-31T10:04:38.000Z</time>
</trkpt>
<trkpt lat="46.3012170" lon="9.9824430">
	<ele>2591.20</ele>
	<time>2021-08-31T10:04:42.000Z</time>
</trkpt>
<trkpt lat="46.3012330" lon="9.9823920">
	<ele>2590.60</ele>
	<time>2021-08-31T10:04:46.000Z</time>
</trkpt>
<trkpt lat="46.3012510" lon="9.9823770">
	<ele>2590.20</ele>
	<time>2021-08-31T10:04:48.000Z</time>
</trkpt>
<trkpt lat="46.3012760" lon="9.9823170">
	<ele>2589.20</ele>
	<time>2021-08-31T10:04:53.000Z</time>
</trkpt>
<trkpt lat="46.3012840" lon="9.9823000">
	<ele>2589.00</ele>
	<time>2021-08-31T10:04:55.000Z</time>
</trkpt>
<trkpt lat="46.3013060" lon="9.9822320">
	<ele>2588.20</ele>
	<time>2021-08-31T10:05:01.000Z</time>
</trkpt>
<trkpt lat="46.3013080" lon="9.9822120">
	<ele>2588.00</ele>
	<time>2021-08-31T10:05:03.000Z</time>
</trkpt>
<trkpt lat="46.3013260" lon="9.9821910">
	<ele>2587.60</ele>
	<time>2021-08-31T10:05:05.000Z</time>
</trkpt>
<trkpt lat="46.3013540" lon="9.9821730">
	<ele>2587.00</ele>
	<time>2021-08-31T10:05:09.000Z</time>
</trkpt>
<trkpt lat="46.3013820" lon="9.9821110">
	<ele>2586.00</ele>
	<time>2021-08-31T10:05:15.000Z</time>
</trkpt>
<trkpt lat="46.3013920" lon="9.9821060">
	<ele>2585.60</ele>
	<time>2021-08-31T10:05:16.000Z</time>
</trkpt>
<trkpt lat="46.3013980" lon="9.9821040">
	<ele>2585.40</ele>
	<time>2021-08-31T10:05:17.000Z</time>
</trkpt>
<trkpt lat="46.3014040" lon="9.9821010">
	<ele>2585.40</ele>
	<time>2021-08-31T10:05:18.000Z</time>
</trkpt>
<trkpt lat="46.3014310" lon="9.9820830">
	<ele>2585.20</ele>
	<time>2021-08-31T10:05:21.000Z</time>
</trkpt>
<trkpt lat="46.3014340" lon="9.9820740">
	<ele>2585.20</ele>
	<time>2021-08-31T10:05:22.000Z</time>
</trkpt>
<trkpt lat="46.3014430" lon="9.9820580">
	<ele>2585.00</ele>
	<time>2021-08-31T10:05:24.000Z</time>
</trkpt>
<trkpt lat="46.3014640" lon="9.9820580">
	<ele>2585.00</ele>
	<time>2021-08-31T10:05:27.000Z</time>
</trkpt>
<trkpt lat="46.3015030" lon="9.9820510">
	<ele>2584.40</ele>
	<time>2021-08-31T10:05:31.000Z</time>
</trkpt>
<trkpt lat="46.3015520" lon="9.9820110">
	<ele>2583.80</ele>
	<time>2021-08-31T10:05:37.000Z</time>
</trkpt>
<trkpt lat="46.3015620" lon="9.9819980">
	<ele>2583.80</ele>
	<time>2021-08-31T10:05:38.000Z</time>
</trkpt>
<trkpt lat="46.3016040" lon="9.9819250">
	<ele>2583.60</ele>
	<time>2021-08-31T10:05:44.000Z</time>
</trkpt>
<trkpt lat="46.3016090" lon="9.9819170">
	<ele>2583.00</ele>
	<time>2021-08-31T10:05:45.000Z</time>
</trkpt>
<trkpt lat="46.3016160" lon="9.9819110">
	<ele>2582.80</ele>
	<time>2021-08-31T10:05:46.000Z</time>
</trkpt>
<trkpt lat="46.3016240" lon="9.9819110">
	<ele>2582.60</ele>
	<time>2021-08-31T10:05:47.000Z</time>
</trkpt>
<trkpt lat="46.3016370" lon="9.9819030">
	<ele>2582.60</ele>
	<time>2021-08-31T10:05:49.000Z</time>
</trkpt>
<trkpt lat="46.3016430" lon="9.9818550">
	<ele>2582.40</ele>
	<time>2021-08-31T10:05:53.000Z</time>
</trkpt>
<trkpt lat="46.3016510" lon="9.9817430">
	<ele>2581.80</ele>
	<time>2021-08-31T10:06:02.000Z</time>
</trkpt>
<trkpt lat="46.3016460" lon="9.9817350">
	<ele>2581.80</ele>
	<time>2021-08-31T10:06:05.000Z</time>
</trkpt>
<trkpt lat="46.3016450" lon="9.9817340">
	<ele>2581.60</ele>
	<time>2021-08-31T10:06:06.000Z</time>
</trkpt>
<trkpt lat="46.3016440" lon="9.9817350">
	<ele>2581.60</ele>
	<time>2021-08-31T10:06:07.000Z</time>
</trkpt>
<trkpt lat="46.3016650" lon="9.9816730">
	<ele>2581.00</ele>
	<time>2021-08-31T10:06:19.000Z</time>
</trkpt>
<trkpt lat="46.3016700" lon="9.9816420">
	<ele>2580.80</ele>
	<time>2021-08-31T10:06:21.000Z</time>
</trkpt>
<trkpt lat="46.3016850" lon="9.9815440">
	<ele>2580.40</ele>
	<time>2021-08-31T10:06:27.000Z</time>
</trkpt>
<trkpt lat="46.3017010" lon="9.9814780">
	<ele>2579.80</ele>
	<time>2021-08-31T10:06:34.000Z</time>
</trkpt>
<trkpt lat="46.3017010" lon="9.9814020">
	<ele>2579.60</ele>
	<time>2021-08-31T10:06:40.000Z</time>
</trkpt>
<trkpt lat="46.3017000" lon="9.9813880">
	<ele>2579.60</ele>
	<time>2021-08-31T10:06:41.000Z</time>
</trkpt>
<trkpt lat="46.3017010" lon="9.9812440">
	<ele>2578.60</ele>
	<time>2021-08-31T10:06:52.000Z</time>
</trkpt>
<trkpt lat="46.3016830" lon="9.9811810">
	<ele>2577.60</ele>
	<time>2021-08-31T10:06:59.000Z</time>
</trkpt>
<trkpt lat="46.3016800" lon="9.9811710">
	<ele>2577.40</ele>
	<time>2021-08-31T10:07:00.000Z</time>
</trkpt>
<trkpt lat="46.3016670" lon="9.9811280">
	<ele>2576.60</ele>
	<time>2021-08-31T10:07:04.000Z</time>
</trkpt>
<trkpt lat="46.3016640" lon="9.9811040">
	<ele>2576.00</ele>
	<time>2021-08-31T10:07:07.000Z</time>
</trkpt>
<trkpt lat="46.3016610" lon="9.9810840">
	<ele>2575.80</ele>
	<time>2021-08-31T10:07:09.000Z</time>
</trkpt>
<trkpt lat="46.3016570" lon="9.9810710">
	<ele>2575.40</ele>
	<time>2021-08-31T10:07:11.000Z</time>
</trkpt>
<trkpt lat="46.3016560" lon="9.9810700">
	<ele>2575.00</ele>
	<time>2021-08-31T10:07:18.000Z</time>
</trkpt>
<trkpt lat="46.3016660" lon="9.9810070">
	<ele>2574.40</ele>
	<time>2021-08-31T10:07:24.000Z</time>
</trkpt>
<trkpt lat="46.3016660" lon="9.9810040">
	<ele>2574.40</ele>
	<time>2021-08-31T10:07:25.000Z</time>
</trkpt>
<trkpt lat="46.3016760" lon="9.9809750">
	<ele>2574.00</ele>
	<time>2021-08-31T10:07:38.000Z</time>
</trkpt>
<trkpt lat="46.3016880" lon="9.9809510">
	<ele>2573.40</ele>
	<time>2021-08-31T10:07:41.000Z</time>
</trkpt>
<trkpt lat="46.3017040" lon="9.9809210">
	<ele>2572.60</ele>
	<time>2021-08-31T10:07:46.000Z</time>
</trkpt>
<trkpt lat="46.3017110" lon="9.9809040">
	<ele>2572.20</ele>
	<time>2021-08-31T10:07:48.000Z</time>
</trkpt>
<trkpt lat="46.3017250" lon="9.9808640">
	<ele>2571.60</ele>
	<time>2021-08-31T10:07:53.000Z</time>
</trkpt>
<trkpt lat="46.3017260" lon="9.9808550">
	<ele>2571.40</ele>
	<time>2021-08-31T10:07:55.000Z</time>
</trkpt>
<trkpt lat="46.3017340" lon="9.9808410">
	<ele>2571.40</ele>
	<time>2021-08-31T10:07:57.000Z</time>
</trkpt>
<trkpt lat="46.3017440" lon="9.9808350">
	<ele>2571.00</ele>
	<time>2021-08-31T10:07:59.000Z</time>
</trkpt>
<trkpt lat="46.3017440" lon="9.9808340">
	<ele>2570.60</ele>
	<time>2021-08-31T10:08:00.000Z</time>
</trkpt>
<trkpt lat="46.3017410" lon="9.9808120">
	<ele>2570.00</ele>
	<time>2021-08-31T10:08:04.000Z</time>
</trkpt>
<trkpt lat="46.3017360" lon="9.9808080">
	<ele>2569.80</ele>
	<time>2021-08-31T10:08:05.000Z</time>
</trkpt>
<trkpt lat="46.3017350" lon="9.9808000">
	<ele>2569.40</ele>
	<time>2021-08-31T10:08:07.000Z</time>
</trkpt>
<trkpt lat="46.3017360" lon="9.9807860">
	<ele>2568.60</ele>
	<time>2021-08-31T10:08:10.000Z</time>
</trkpt>
<trkpt lat="46.3017360" lon="9.9807450">
	<ele>2567.60</ele>
	<time>2021-08-31T10:08:15.000Z</time>
</trkpt>
<trkpt lat="46.3017370" lon="9.9807350">
	<ele>2567.40</ele>
	<time>2021-08-31T10:08:16.000Z</time>
</trkpt>
<trkpt lat="46.3017350" lon="9.9806910">
	<ele>2566.60</ele>
	<time>2021-08-31T10:08:23.000Z</time>
</trkpt>
<trkpt lat="46.3017360" lon="9.9806840">
	<ele>2566.40</ele>
	<time>2021-08-31T10:08:24.000Z</time>
</trkpt>
<trkpt lat="46.3017520" lon="9.9806580">
	<ele>2565.40</ele>
	<time>2021-08-31T10:08:29.000Z</time>
</trkpt>
<trkpt lat="46.3017630" lon="9.9806390">
	<ele>2564.60</ele>
	<time>2021-08-31T10:08:32.000Z</time>
</trkpt>
<trkpt lat="46.3017720" lon="9.9806190">
	<ele>2564.20</ele>
	<time>2021-08-31T10:08:35.000Z</time>
</trkpt>
<trkpt lat="46.3017590" lon="9.9805730">
	<ele>2563.20</ele>
	<time>2021-08-31T10:08:41.000Z</time>
</trkpt>
<trkpt lat="46.3017570" lon="9.9805730">
	<ele>2562.80</ele>
	<time>2021-08-31T10:08:42.000Z</time>
</trkpt>
<trkpt lat="46.3017350" lon="9.9805650">
	<ele>2562.00</ele>
	<time>2021-08-31T10:08:47.000Z</time>
</trkpt>
<trkpt lat="46.3017270" lon="9.9805480">
	<ele>2561.40</ele>
	<time>2021-08-31T10:08:50.000Z</time>
</trkpt>
<trkpt lat="46.3017160" lon="9.9805410">
	<ele>2561.00</ele>
	<time>2021-08-31T10:08:53.000Z</time>
</trkpt>
<trkpt lat="46.3017140" lon="9.9805370">
	<ele>2560.80</ele>
	<time>2021-08-31T10:08:54.000Z</time>
</trkpt>
<trkpt lat="46.3017190" lon="9.9805240">
	<ele>2560.40</ele>
	<time>2021-08-31T10:08:57.000Z</time>
</trkpt>
<trkpt lat="46.3017110" lon="9.9805110">
	<ele>2559.60</ele>
	<time>2021-08-31T10:09:01.000Z</time>
</trkpt>
<trkpt lat="46.3017190" lon="9.9805050">
	<ele>2559.20</ele>
	<time>2021-08-31T10:09:08.000Z</time>
</trkpt>
<trkpt lat="46.3017190" lon="9.9805050">
	<ele>2558.80</ele>
	<time>2021-08-31T10:09:11.000Z</time>
</trkpt>
<trkpt lat="46.3017190" lon="9.9805050">
	<ele>2558.60</ele>
	<time>2021-08-31T10:09:12.000Z</time>
</trkpt>
<trkpt lat="46.3017160" lon="9.9805050">
	<ele>2557.40</ele>
	<time>2021-08-31T10:09:21.000Z</time>
</trkpt>
<trkpt lat="46.3017070" lon="9.9804730">
	<ele>2556.20</ele>
	<time>2021-08-31T10:09:30.000Z</time>
</trkpt>
<trkpt lat="46.3016990" lon="9.9804570">
	<ele>2555.40</ele>
	<time>2021-08-31T10:09:37.000Z</time>
</trkpt>
<trkpt lat="46.3016940" lon="9.9804530">
	<ele>2555.20</ele>
	<time>2021-08-31T10:09:40.000Z</time>
</trkpt>
<trkpt lat="46.3016630" lon="9.9804230">
	<ele>2554.00</ele>
	<time>2021-08-31T10:09:51.000Z</time>
</trkpt>
<trkpt lat="46.3016360" lon="9.9804180">
	<ele>2553.00</ele>
	<time>2021-08-31T10:10:00.000Z</time>
</trkpt>
<trkpt lat="46.3016070" lon="9.9804160">
	<ele>2551.80</ele>
	<time>2021-08-31T10:10:06.000Z</time>
</trkpt>
<trkpt lat="46.3015820" lon="9.9804030">
	<ele>2550.60</ele>
	<time>2021-08-31T10:10:13.000Z</time>
</trkpt>
<trkpt lat="46.3015820" lon="9.9803830">
	<ele>2549.60</ele>
	<time>2021-08-31T10:10:18.000Z</time>
</trkpt>
<trkpt lat="46.3015820" lon="9.9803420">
	<ele>2548.60</ele>
	<time>2021-08-31T10:10:25.000Z</time>
</trkpt>
<trkpt lat="46.3015870" lon="9.9802990">
	<ele>2547.40</ele>
	<time>2021-08-31T10:10:32.000Z</time>
</trkpt>
<trkpt lat="46.3015990" lon="9.9802580">
	<ele>2546.40</ele>
	<time>2021-08-31T10:10:41.000Z</time>
</trkpt>
<trkpt lat="46.3015990" lon="9.9802260">
	<ele>2545.20</ele>
	<time>2021-08-31T10:10:46.000Z</time>
</trkpt>
<trkpt lat="46.3015990" lon="9.9801840">
	<ele>2544.20</ele>
	<time>2021-08-31T10:10:55.000Z</time>
</trkpt>
<trkpt lat="46.3015990" lon="9.9801520">
	<ele>2543.20</ele>
	<time>2021-08-31T10:11:01.000Z</time>
</trkpt>
<trkpt lat="46.3015990" lon="9.9801380">
	<ele>2542.00</ele>
	<time>2021-08-31T10:11:08.000Z</time>
</trkpt>
<trkpt lat="46.3016010" lon="9.9801160">
	<ele>2541.20</ele>
	<time>2021-08-31T10:11:12.000Z</time>
</trkpt>
<trkpt lat="46.3016040" lon="9.9801020">
	<ele>2541.00</ele>
	<time>2021-08-31T10:11:15.000Z</time>
</trkpt>
<trkpt lat="46.3016050" lon="9.9800780">
	<ele>2540.40</ele>
	<time>2021-08-31T10:11:19.000Z</time>
</trkpt>
<trkpt lat="46.3016050" lon="9.9800500">
	<ele>2540.00</ele>
	<time>2021-08-31T10:11:23.000Z</time>
</trkpt>
<trkpt lat="46.3015960" lon="9.9799580">
	<ele>2539.00</ele>
	<time>2021-08-31T10:11:31.000Z</time>
</trkpt>
<trkpt lat="46.3015820" lon="9.9798950">
	<ele>2538.40</ele>
	<time>2021-08-31T10:11:34.000Z</time>
</trkpt>
<trkpt lat="46.3015750" lon="9.9798460">
	<ele>2538.00</ele>
	<time>2021-08-31T10:11:36.000Z</time>
</trkpt>
<trkpt lat="46.3015710" lon="9.9798240">
	<ele>2537.80</ele>
	<time>2021-08-31T10:11:37.000Z</time>
</trkpt>
<trkpt lat="46.3015600" lon="9.9797980">
	<ele>2537.60</ele>
	<time>2021-08-31T10:11:39.000Z</time>
</trkpt>
<trkpt lat="46.3015520" lon="9.9797850">
	<ele>2537.40</ele>
	<time>2021-08-31T10:11:41.000Z</time>
</trkpt>
<trkpt lat="46.3015410" lon="9.9797790">
	<ele>2537.00</ele>
	<time>2021-08-31T10:11:43.000Z</time>
</trkpt>
<trkpt lat="46.3015380" lon="9.9797740">
	<ele>2536.80</ele>
	<time>2021-08-31T10:11:44.000Z</time>
</trkpt>
<trkpt lat="46.3015330" lon="9.9797670">
	<ele>2536.60</ele>
	<time>2021-08-31T10:11:46.000Z</time>
</trkpt>
<trkpt lat="46.3015180" lon="9.9797550">
	<ele>2535.80</ele>
	<time>2021-08-31T10:11:49.000Z</time>
</trkpt>
<trkpt lat="46.3015130" lon="9.9797490">
	<ele>2535.80</ele>
	<time>2021-08-31T10:11:50.000Z</time>
</trkpt>
<trkpt lat="46.3015040" lon="9.9797430">
	<ele>2535.60</ele>
	<time>2021-08-31T10:11:51.000Z</time>
</trkpt>
<trkpt lat="46.3014950" lon="9.9797360">
	<ele>2535.40</ele>
	<time>2021-08-31T10:11:52.000Z</time>
</trkpt>
<trkpt lat="46.3014410" lon="9.9796900">
	<ele>2535.20</ele>
	<time>2021-08-31T10:11:59.000Z</time>
</trkpt>
<trkpt lat="46.3014160" lon="9.9796630">
	<ele>2534.80</ele>
	<time>2021-08-31T10:12:02.000Z</time>
</trkpt>
<trkpt lat="46.3013910" lon="9.9796260">
	<ele>2534.20</ele>
	<time>2021-08-31T10:12:06.000Z</time>
</trkpt>
<trkpt lat="46.3013760" lon="9.9796310">
	<ele>2534.00</ele>
	<time>2021-08-31T10:12:08.000Z</time>
</trkpt>
<trkpt lat="46.3013610" lon="9.9796570">
	<ele>2533.60</ele>
	<time>2021-08-31T10:12:12.000Z</time>
</trkpt>
<trkpt lat="46.3013560" lon="9.9796770">
	<ele>2533.40</ele>
	<time>2021-08-31T10:12:14.000Z</time>
</trkpt>
<trkpt lat="46.3013540" lon="9.9796910">
	<ele>2533.20</ele>
	<time>2021-08-31T10:12:16.000Z</time>
</trkpt>
<trkpt lat="46.3013540" lon="9.9796920">
	<ele>2533.00</ele>
	<time>2021-08-31T10:12:18.000Z</time>
</trkpt>
<trkpt lat="46.3013460" lon="9.9796860">
	<ele>2532.60</ele>
	<time>2021-08-31T10:12:21.000Z</time>
</trkpt>
<trkpt lat="46.3013430" lon="9.9796900">
	<ele>2532.40</ele>
	<time>2021-08-31T10:12:22.000Z</time>
</trkpt>
<trkpt lat="46.3013360" lon="9.9796950">
	<ele>2532.00</ele>
	<time>2021-08-31T10:12:24.000Z</time>
</trkpt>
<trkpt lat="46.3013300" lon="9.9796950">
	<ele>2531.80</ele>
	<time>2021-08-31T10:12:25.000Z</time>
</trkpt>
<trkpt lat="46.3013300" lon="9.9796720">
	<ele>2531.40</ele>
	<time>2021-08-31T10:12:28.000Z</time>
</trkpt>
<trkpt lat="46.3013280" lon="9.9796620">
	<ele>2531.00</ele>
	<time>2021-08-31T10:12:29.000Z</time>
</trkpt>
<trkpt lat="46.3013250" lon="9.9796560">
	<ele>2530.80</ele>
	<time>2021-08-31T10:12:30.000Z</time>
</trkpt>
<trkpt lat="46.3013240" lon="9.9796490">
	<ele>2530.40</ele>
	<time>2021-08-31T10:12:32.000Z</time>
</trkpt>
<trkpt lat="46.3013210" lon="9.9796360">
	<ele>2530.20</ele>
	<time>2021-08-31T10:12:36.000Z</time>
</trkpt>
<trkpt lat="46.3013210" lon="9.9796360">
	<ele>2530.00</ele>
	<time>2021-08-31T10:12:38.000Z</time>
</trkpt>
<trkpt lat="46.3013210" lon="9.9796360">
	<ele>2529.00</ele>
	<time>2021-08-31T10:12:43.000Z</time>
</trkpt>
<trkpt lat="46.3013210" lon="9.9796360">
	<ele>2527.80</ele>
	<time>2021-08-31T10:12:51.000Z</time>
</trkpt>
<trkpt lat="46.3012980" lon="9.9796070">
	<ele>2526.60</ele>
	<time>2021-08-31T10:13:00.000Z</time>
</trkpt>
<trkpt lat="46.3012910" lon="9.9795890">
	<ele>2525.60</ele>
	<time>2021-08-31T10:13:10.000Z</time>
</trkpt>
<trkpt lat="46.3012860" lon="9.9795600">
	<ele>2524.60</ele>
	<time>2021-08-31T10:13:17.000Z</time>
</trkpt>
<trkpt lat="46.3012790" lon="9.9795350">
	<ele>2523.60</ele>
	<time>2021-08-31T10:13:27.000Z</time>
</trkpt>
<trkpt lat="46.3012660" lon="9.9795170">
	<ele>2522.40</ele>
	<time>2021-08-31T10:13:34.000Z</time>
</trkpt>
<trkpt lat="46.3012650" lon="9.9795130">
	<ele>2522.00</ele>
	<time>2021-08-31T10:13:40.000Z</time>
</trkpt>
<trkpt lat="46.3012650" lon="9.9795110">
	<ele>2521.40</ele>
	<time>2021-08-31T10:13:44.000Z</time>
</trkpt>
<trkpt lat="46.3012640" lon="9.9794920">
	<ele>2520.40</ele>
	<time>2021-08-31T10:13:51.000Z</time>
</trkpt>
<trkpt lat="46.3012630" lon="9.9794900">
	<ele>2519.20</ele>
	<time>2021-08-31T10:13:55.000Z</time>
</trkpt>
<trkpt lat="46.3012560" lon="9.9794700">
	<ele>2518.20</ele>
	<time>2021-08-31T10:14:01.000Z</time>
</trkpt>
<trkpt lat="46.3012460" lon="9.9794650">
	<ele>2517.20</ele>
	<time>2021-08-31T10:14:07.000Z</time>
</trkpt>
<trkpt lat="46.3012380" lon="9.9794540">
	<ele>2516.80</ele>
	<time>2021-08-31T10:14:10.000Z</time>
</trkpt>
<trkpt lat="46.3012380" lon="9.9794470">
	<ele>2516.60</ele>
	<time>2021-08-31T10:14:13.000Z</time>
</trkpt>
<trkpt lat="46.3012380" lon="9.9794470">
	<ele>2516.20</ele>
	<time>2021-08-31T10:14:16.000Z</time>
</trkpt>
<trkpt lat="46.3012380" lon="9.9794470">
	<ele>2516.00</ele>
	<time>2021-08-31T10:14:17.000Z</time>
</trkpt>
<trkpt lat="46.3012360" lon="9.9793830">
	<ele>2514.80</ele>
	<time>2021-08-31T10:14:24.000Z</time>
</trkpt>
<trkpt lat="46.3012370" lon="9.9793020">
	<ele>2514.00</ele>
	<time>2021-08-31T10:14:28.000Z</time>
</trkpt>
<trkpt lat="46.3012410" lon="9.9792820">
	<ele>2513.80</ele>
	<time>2021-08-31T10:14:29.000Z</time>
</trkpt>
<trkpt lat="46.3012500" lon="9.9792540">
	<ele>2513.60</ele>
	<time>2021-08-31T10:14:30.000Z</time>
</trkpt>
<trkpt lat="46.3012560" lon="9.9792260">
	<ele>2513.40</ele>
	<time>2021-08-31T10:14:32.000Z</time>
</trkpt>
<trkpt lat="46.3012620" lon="9.9791880">
	<ele>2512.80</ele>
	<time>2021-08-31T10:14:37.000Z</time>
</trkpt>
<trkpt lat="46.3012620" lon="9.9791870">
	<ele>2512.40</ele>
	<time>2021-08-31T10:14:39.000Z</time>
</trkpt>
<trkpt lat="46.3012840" lon="9.9791670">
	<ele>2511.20</ele>
	<time>2021-08-31T10:14:45.000Z</time>
</trkpt>
<trkpt lat="46.3012850" lon="9.9791600">
	<ele>2510.80</ele>
	<time>2021-08-31T10:14:46.000Z</time>
</trkpt>
<trkpt lat="46.3012880" lon="9.9791200">
	<ele>2510.00</ele>
	<time>2021-08-31T10:14:52.000Z</time>
</trkpt>
<trkpt lat="46.3012890" lon="9.9791170">
	<ele>2509.80</ele>
	<time>2021-08-31T10:14:53.000Z</time>
</trkpt>
<trkpt lat="46.3012930" lon="9.9790870">
	<ele>2509.00</ele>
	<time>2021-08-31T10:15:00.000Z</time>
</trkpt>
<trkpt lat="46.3012920" lon="9.9790850">
	<ele>2508.80</ele>
	<time>2021-08-31T10:15:01.000Z</time>
</trkpt>
<trkpt lat="46.3012740" lon="9.9790540">
	<ele>2507.80</ele>
	<time>2021-08-31T10:15:05.000Z</time>
</trkpt>
<trkpt lat="46.3012680" lon="9.9790440">
	<ele>2507.40</ele>
	<time>2021-08-31T10:15:10.000Z</time>
</trkpt>
<trkpt lat="46.3012690" lon="9.9790350">
	<ele>2506.80</ele>
	<time>2021-08-31T10:15:12.000Z</time>
</trkpt>
<trkpt lat="46.3012870" lon="9.9790010">
	<ele>2505.80</ele>
	<time>2021-08-31T10:15:17.000Z</time>
</trkpt>
<trkpt lat="46.3012910" lon="9.9789950">
	<ele>2505.80</ele>
	<time>2021-08-31T10:15:18.000Z</time>
</trkpt>
<trkpt lat="46.3012850" lon="9.9790230">
	<ele>2504.80</ele>
	<time>2021-08-31T10:15:27.000Z</time>
</trkpt>
<trkpt lat="46.3012850" lon="9.9790230">
	<ele>2504.60</ele>
	<time>2021-08-31T10:15:29.000Z</time>
</trkpt>
<trkpt lat="46.3012850" lon="9.9790220">
	<ele>2504.20</ele>
	<time>2021-08-31T10:15:33.000Z</time>
</trkpt>
<trkpt lat="46.3012870" lon="9.9790080">
	<ele>2503.60</ele>
	<time>2021-08-31T10:15:36.000Z</time>
</trkpt>
<trkpt lat="46.3012950" lon="9.9789900">
	<ele>2502.40</ele>
	<time>2021-08-31T10:15:45.000Z</time>
</trkpt>
<trkpt lat="46.3013040" lon="9.9789390">
	<ele>2501.40</ele>
	<time>2021-08-31T10:15:53.000Z</time>
</trkpt>
<trkpt lat="46.3013150" lon="9.9788530">
	<ele>2500.40</ele>
	<time>2021-08-31T10:16:12.000Z</time>
</trkpt>
<trkpt lat="46.3013130" lon="9.9788510">
	<ele>2499.40</ele>
	<time>2021-08-31T10:16:35.000Z</time>
</trkpt>
<trkpt lat="46.3013240" lon="9.9788490">
	<ele>2499.20</ele>
	<time>2021-08-31T10:16:51.000Z</time>
</trkpt>
<trkpt lat="46.3013270" lon="9.9788450">
	<ele>2499.00</ele>
	<time>2021-08-31T10:16:57.000Z</time>
</trkpt>
<trkpt lat="46.3013290" lon="9.9788250">
	<ele>2498.20</ele>
	<time>2021-08-31T10:17:05.000Z</time>
</trkpt>
<trkpt lat="46.3013320" lon="9.9787940">
	<ele>2498.20</ele>
	<time>2021-08-31T10:17:27.000Z</time>
</trkpt>
<trkpt lat="46.3013320" lon="9.9787920">
	<ele>2498.20</ele>
	<time>2021-08-31T10:17:29.000Z</time>
</trkpt>
<trkpt lat="46.3013330" lon="9.9787890">
	<ele>2498.20</ele>
	<time>2021-08-31T10:17:31.000Z</time>
</trkpt>
<trkpt lat="46.3013480" lon="9.9787860">
	<ele>2498.20</ele>
	<time>2021-08-31T10:17:35.000Z</time>
</trkpt>
<trkpt lat="46.3013570" lon="9.9787860">
	<ele>2498.00</ele>
	<time>2021-08-31T10:17:38.000Z</time>
</trkpt>
<trkpt lat="46.3013450" lon="9.9787910">
	<ele>2497.60</ele>
	<time>2021-08-31T10:18:04.000Z</time>
</trkpt>
<trkpt lat="46.3013440" lon="9.9787920">
	<ele>2497.60</ele>
	<time>2021-08-31T10:18:06.000Z</time>
</trkpt>
<trkpt lat="46.3013350" lon="9.9788020">
	<ele>2497.40</ele>
	<time>2021-08-31T10:18:13.000Z</time>
</trkpt>
<trkpt lat="46.3013330" lon="9.9788090">
	<ele>2497.40</ele>
	<time>2021-08-31T10:18:15.000Z</time>
</trkpt>
<trkpt lat="46.3013270" lon="9.9788200">
	<ele>2497.20</ele>
	<time>2021-08-31T10:18:21.000Z</time>
</trkpt>
<trkpt lat="46.3013260" lon="9.9788210">
	<ele>2497.20</ele>
	<time>2021-08-31T10:18:22.000Z</time>
</trkpt>
<trkpt lat="46.3013190" lon="9.9788280">
	<ele>2497.20</ele>
	<time>2021-08-31T10:18:33.000Z</time>
</trkpt>
<trkpt lat="46.3013160" lon="9.9788300">
	<ele>2497.20</ele>
	<time>2021-08-31T10:18:35.000Z</time>
</trkpt>
<trkpt lat="46.3013070" lon="9.9788330">
	<ele>2497.00</ele>
	<time>2021-08-31T10:18:48.000Z</time>
</trkpt>
<trkpt lat="46.3013060" lon="9.9788330">
	<ele>2496.20</ele>
	<time>2021-08-31T10:19:00.000Z</time>
</trkpt>
<trkpt lat="46.3013050" lon="9.9788330">
	<ele>2495.20</ele>
	<time>2021-08-31T10:19:08.000Z</time>
</trkpt>
<trkpt lat="46.3013050" lon="9.9788320">
	<ele>2494.00</ele>
	<time>2021-08-31T10:19:15.000Z</time>
</trkpt>
<trkpt lat="46.3013050" lon="9.9788320">
	<ele>2493.00</ele>
	<time>2021-08-31T10:19:20.000Z</time>
</trkpt>
<trkpt lat="46.3013050" lon="9.9788320">
	<ele>2491.80</ele>
	<time>2021-08-31T10:19:25.000Z</time>
</trkpt>
<trkpt lat="46.3012950" lon="9.9787160">
	<ele>2490.80</ele>
	<time>2021-08-31T10:19:31.000Z</time>
</trkpt>
<trkpt lat="46.3012940" lon="9.9786940">
	<ele>2490.60</ele>
	<time>2021-08-31T10:19:32.000Z</time>
</trkpt>
<trkpt lat="46.3012900" lon="9.9785790">
	<ele>2489.60</ele>
	<time>2021-08-31T10:19:39.000Z</time>
</trkpt>
<trkpt lat="46.3012910" lon="9.9785640">
	<ele>2489.40</ele>
	<time>2021-08-31T10:19:40.000Z</time>
</trkpt>
<trkpt lat="46.3012800" lon="9.9785060">
	<ele>2488.60</ele>
	<time>2021-08-31T10:19:44.000Z</time>
</trkpt>
<trkpt lat="46.3012720" lon="9.9784770">
	<ele>2488.00</ele>
	<time>2021-08-31T10:19:46.000Z</time>
</trkpt>
<trkpt lat="46.3012690" lon="9.9784550">
	<ele>2487.80</ele>
	<time>2021-08-31T10:19:48.000Z</time>
</trkpt>
<trkpt lat="46.3012690" lon="9.9784290">
	<ele>2487.60</ele>
	<time>2021-08-31T10:19:50.000Z</time>
</trkpt>
<trkpt lat="46.3012670" lon="9.9784120">
	<ele>2487.60</ele>
	<time>2021-08-31T10:19:51.000Z</time>
</trkpt>
<trkpt lat="46.3012650" lon="9.9783420">
	<ele>2487.20</ele>
	<time>2021-08-31T10:19:57.000Z</time>
</trkpt>
<trkpt lat="46.3012530" lon="9.9782870">
	<ele>2486.40</ele>
	<time>2021-08-31T10:20:01.000Z</time>
</trkpt>
<trkpt lat="46.3012560" lon="9.9782610">
	<ele>2486.00</ele>
	<time>2021-08-31T10:20:03.000Z</time>
</trkpt>
<trkpt lat="46.3012660" lon="9.9782060">
	<ele>2485.40</ele>
	<time>2021-08-31T10:20:07.000Z</time>
</trkpt>
<trkpt lat="46.3012470" lon="9.9781920">
	<ele>2485.20</ele>
	<time>2021-08-31T10:20:10.000Z</time>
</trkpt>
<trkpt lat="46.3012440" lon="9.9781880">
	<ele>2485.00</ele>
	<time>2021-08-31T10:20:11.000Z</time>
</trkpt>
<trkpt lat="46.3012340" lon="9.9781680">
	<ele>2485.00</ele>
	<time>2021-08-31T10:20:13.000Z</time>
</trkpt>
<trkpt lat="46.3011950" lon="9.9781510">
	<ele>2484.60</ele>
	<time>2021-08-31T10:20:17.000Z</time>
</trkpt>
<trkpt lat="46.3011890" lon="9.9781500">
	<ele>2484.20</ele>
	<time>2021-08-31T10:20:18.000Z</time>
</trkpt>
<trkpt lat="46.3011660" lon="9.9781510">
	<ele>2484.00</ele>
	<time>2021-08-31T10:20:20.000Z</time>
</trkpt>
<trkpt lat="46.3011560" lon="9.9781410">
	<ele>2483.80</ele>
	<time>2021-08-31T10:20:21.000Z</time>
</trkpt>
<trkpt lat="46.3011440" lon="9.9781170">
	<ele>2483.80</ele>
	<time>2021-08-31T10:20:23.000Z</time>
</trkpt>
<trkpt lat="46.3011150" lon="9.9780810">
	<ele>2483.80</ele>
	<time>2021-08-31T10:20:27.000Z</time>
</trkpt>
<trkpt lat="46.3011060" lon="9.9780590">
	<ele>2483.80</ele>
	<time>2021-08-31T10:20:29.000Z</time>
</trkpt>
<trkpt lat="46.3010830" lon="9.9779880">
	<ele>2484.00</ele>
	<time>2021-08-31T10:20:36.000Z</time>
</trkpt>
<trkpt lat="46.3010830" lon="9.9779620">
	<ele>2484.20</ele>
	<time>2021-08-31T10:20:38.000Z</time>
</trkpt>
<trkpt lat="46.3010870" lon="9.9779500">
	<ele>2484.20</ele>
	<time>2021-08-31T10:20:39.000Z</time>
</trkpt>
<trkpt lat="46.3010870" lon="9.9779310">
	<ele>2484.60</ele>
	<time>2021-08-31T10:20:42.000Z</time>
</trkpt>
<trkpt lat="46.3010830" lon="9.9779240">
	<ele>2484.60</ele>
	<time>2021-08-31T10:20:43.000Z</time>
</trkpt>
<trkpt lat="46.3010720" lon="9.9779120">
	<ele>2485.00</ele>
	<time>2021-08-31T10:20:45.000Z</time>
</trkpt>
<trkpt lat="46.3010640" lon="9.9779050">
	<ele>2485.00</ele>
	<time>2021-08-31T10:20:46.000Z</time>
</trkpt>
<trkpt lat="46.3010540" lon="9.9778940">
	<ele>2485.40</ele>
	<time>2021-08-31T10:20:48.000Z</time>
</trkpt>
<trkpt lat="46.3010530" lon="9.9778610">
	<ele>2485.80</ele>
	<time>2021-08-31T10:20:52.000Z</time>
</trkpt>
<trkpt lat="46.3010550" lon="9.9778390">
	<ele>2486.00</ele>
	<time>2021-08-31T10:20:54.000Z</time>
</trkpt>
<trkpt lat="46.3010510" lon="9.9778300">
	<ele>2486.00</ele>
	<time>2021-08-31T10:20:55.000Z</time>
</trkpt>
<trkpt lat="46.3010370" lon="9.9778090">
	<ele>2486.20</ele>
	<time>2021-08-31T10:20:58.000Z</time>
</trkpt>
<trkpt lat="46.3010340" lon="9.9777900">
	<ele>2486.20</ele>
	<time>2021-08-31T10:21:00.000Z</time>
</trkpt>
<trkpt lat="46.3010290" lon="9.9777730">
	<ele>2486.60</ele>
	<time>2021-08-31T10:21:02.000Z</time>
</trkpt>
<trkpt lat="46.3010160" lon="9.9776790">
	<ele>2487.40</ele>
	<time>2021-08-31T10:21:11.000Z</time>
</trkpt>
<trkpt lat="46.3010040" lon="9.9775760">
	<ele>2486.80</ele>
	<time>2021-08-31T10:21:21.000Z</time>
</trkpt>
<trkpt lat="46.3009740" lon="9.9775410">
	<ele>2486.00</ele>
	<time>2021-08-31T10:21:28.000Z</time>
</trkpt>
<trkpt lat="46.3009570" lon="9.9775250">
	<ele>2485.60</ele>
	<time>2021-08-31T10:21:31.000Z</time>
</trkpt>
<trkpt lat="46.3009560" lon="9.9775150">
	<ele>2485.40</ele>
	<time>2021-08-31T10:21:32.000Z</time>
</trkpt>
<trkpt lat="46.3009460" lon="9.9774770">
	<ele>2484.60</ele>
	<time>2021-08-31T10:21:36.000Z</time>
</trkpt>
<trkpt lat="46.3009400" lon="9.9774680">
	<ele>2484.40</ele>
	<time>2021-08-31T10:21:37.000Z</time>
</trkpt>
<trkpt lat="46.3009020" lon="9.9774130">
	<ele>2483.80</ele>
	<time>2021-08-31T10:21:43.000Z</time>
</trkpt>
<trkpt lat="46.3008880" lon="9.9774010">
	<ele>2483.40</ele>
	<time>2021-08-31T10:21:45.000Z</time>
</trkpt>
<trkpt lat="46.3008840" lon="9.9773990">
	<ele>2483.20</ele>
	<time>2021-08-31T10:21:46.000Z</time>
</trkpt>
<trkpt lat="46.3008820" lon="9.9773930">
	<ele>2483.20</ele>
	<time>2021-08-31T10:21:47.000Z</time>
</trkpt>
<trkpt lat="46.3008720" lon="9.9773740">
	<ele>2483.00</ele>
	<time>2021-08-31T10:21:50.000Z</time>
</trkpt>
<trkpt lat="46.3008640" lon="9.9773560">
	<ele>2482.80</ele>
	<time>2021-08-31T10:21:52.000Z</time>
</trkpt>
<trkpt lat="46.3008320" lon="9.9773220">
	<ele>2482.40</ele>
	<time>2021-08-31T10:21:57.000Z</time>
</trkpt>
<trkpt lat="46.3008270" lon="9.9773120">
	<ele>2482.40</ele>
	<time>2021-08-31T10:21:58.000Z</time>
</trkpt>
<trkpt lat="46.3008150" lon="9.9772750">
	<ele>2482.40</ele>
	<time>2021-08-31T10:22:01.000Z</time>
</trkpt>
<trkpt lat="46.3008040" lon="9.9772470">
	<ele>2482.40</ele>
	<time>2021-08-31T10:22:05.000Z</time>
</trkpt>
<trkpt lat="46.3008020" lon="9.9772200">
	<ele>2482.40</ele>
	<time>2021-08-31T10:22:11.000Z</time>
</trkpt>
<trkpt lat="46.3008010" lon="9.9771880">
	<ele>2482.20</ele>
	<time>2021-08-31T10:22:15.000Z</time>
</trkpt>
<trkpt lat="46.3008030" lon="9.9771720">
	<ele>2482.00</ele>
	<time>2021-08-31T10:22:18.000Z</time>
</trkpt>
<trkpt lat="46.3008040" lon="9.9771630">
	<ele>2482.00</ele>
	<time>2021-08-31T10:22:19.000Z</time>
</trkpt>
<trkpt lat="46.3007790" lon="9.9771170">
	<ele>2481.20</ele>
	<time>2021-08-31T10:22:25.000Z</time>
</trkpt>
<trkpt lat="46.3007660" lon="9.9770900">
	<ele>2480.80</ele>
	<time>2021-08-31T10:22:29.000Z</time>
</trkpt>
<trkpt lat="46.3007520" lon="9.9770460">
	<ele>2480.40</ele>
	<time>2021-08-31T10:22:35.000Z</time>
</trkpt>
<trkpt lat="46.3007460" lon="9.9770420">
	<ele>2480.40</ele>
	<time>2021-08-31T10:22:36.000Z</time>
</trkpt>
<trkpt lat="46.3007400" lon="9.9770280">
	<ele>2480.20</ele>
	<time>2021-08-31T10:22:38.000Z</time>
</trkpt>
<trkpt lat="46.3007370" lon="9.9770210">
	<ele>2480.20</ele>
	<time>2021-08-31T10:22:39.000Z</time>
</trkpt>
<trkpt lat="46.3007180" lon="9.9769570">
	<ele>2479.40</ele>
	<time>2021-08-31T10:22:44.000Z</time>
</trkpt>
<trkpt lat="46.3006850" lon="9.9768750">
	<ele>2479.40</ele>
	<time>2021-08-31T10:22:52.000Z</time>
</trkpt>
<trkpt lat="46.3006720" lon="9.9768470">
	<ele>2479.20</ele>
	<time>2021-08-31T10:22:54.000Z</time>
</trkpt>
<trkpt lat="46.3006650" lon="9.9768270">
	<ele>2479.00</ele>
	<time>2021-08-31T10:22:56.000Z</time>
</trkpt>
<trkpt lat="46.3006580" lon="9.9767510">
	<ele>2479.00</ele>
	<time>2021-08-31T10:23:03.000Z</time>
</trkpt>
<trkpt lat="46.3006490" lon="9.9766570">
	<ele>2479.00</ele>
	<time>2021-08-31T10:23:10.000Z</time>
</trkpt>
<trkpt lat="46.3006450" lon="9.9766210">
	<ele>2479.00</ele>
	<time>2021-08-31T10:23:13.000Z</time>
</trkpt>
<trkpt lat="46.3006420" lon="9.9766120">
	<ele>2479.00</ele>
	<time>2021-08-31T10:23:14.000Z</time>
</trkpt>
<trkpt lat="46.3006490" lon="9.9765710">
	<ele>2479.20</ele>
	<time>2021-08-31T10:23:18.000Z</time>
</trkpt>
<trkpt lat="46.3006500" lon="9.9764760">
	<ele>2479.00</ele>
	<time>2021-08-31T10:23:27.000Z</time>
</trkpt>
<trkpt lat="46.3006190" lon="9.9763990">
	<ele>2478.80</ele>
	<time>2021-08-31T10:23:36.000Z</time>
</trkpt>
<trkpt lat="46.3005770" lon="9.9763100">
	<ele>2478.20</ele>
	<time>2021-08-31T10:23:44.000Z</time>
</trkpt>
<trkpt lat="46.3005610" lon="9.9762640">
	<ele>2478.00</ele>
	<time>2021-08-31T10:23:48.000Z</time>
</trkpt>
<trkpt lat="46.3005370" lon="9.9762290">
	<ele>2477.60</ele>
	<time>2021-08-31T10:23:53.000Z</time>
</trkpt>
<trkpt lat="46.3005140" lon="9.9762020">
	<ele>2476.80</ele>
	<time>2021-08-31T10:23:58.000Z</time>
</trkpt>
<trkpt lat="46.3004910" lon="9.9761800">
	<ele>2476.40</ele>
	<time>2021-08-31T10:24:03.000Z</time>
</trkpt>
<trkpt lat="46.3004830" lon="9.9761360">
	<ele>2475.80</ele>
	<time>2021-08-31T10:24:08.000Z</time>
</trkpt>
<trkpt lat="46.3004790" lon="9.9761170">
	<ele>2475.60</ele>
	<time>2021-08-31T10:24:10.000Z</time>
</trkpt>
<trkpt lat="46.3004510" lon="9.9760840">
	<ele>2474.80</ele>
	<time>2021-08-31T10:24:15.000Z</time>
</trkpt>
<trkpt lat="46.3004350" lon="9.9760500">
	<ele>2474.40</ele>
	<time>2021-08-31T10:24:20.000Z</time>
</trkpt>
<trkpt lat="46.3004040" lon="9.9760040">
	<ele>2473.40</ele>
	<time>2021-08-31T10:24:27.000Z</time>
</trkpt>
<trkpt lat="46.3003820" lon="9.9759840">
	<ele>2473.00</ele>
	<time>2021-08-31T10:24:31.000Z</time>
</trkpt>
<trkpt lat="46.3003600" lon="9.9759490">
	<ele>2472.40</ele>
	<time>2021-08-31T10:24:36.000Z</time>
</trkpt>
<trkpt lat="46.3003340" lon="9.9759230">
	<ele>2472.00</ele>
	<time>2021-08-31T10:24:40.000Z</time>
</trkpt>
<trkpt lat="46.3002990" lon="9.9759050">
	<ele>2471.60</ele>
	<time>2021-08-31T10:24:48.000Z</time>
</trkpt>
<trkpt lat="46.3002890" lon="9.9758810">
	<ele>2471.40</ele>
	<time>2021-08-31T10:24:51.000Z</time>
</trkpt>
<trkpt lat="46.3002770" lon="9.9758720">
	<ele>2470.60</ele>
	<time>2021-08-31T10:24:54.000Z</time>
</trkpt>
<trkpt lat="46.3002660" lon="9.9758780">
	<ele>2470.20</ele>
	<time>2021-08-31T10:24:57.000Z</time>
</trkpt>
<trkpt lat="46.3002450" lon="9.9758890">
	<ele>2469.80</ele>
	<time>2021-08-31T10:25:03.000Z</time>
</trkpt>
<trkpt lat="46.3002450" lon="9.9758910">
	<ele>2469.20</ele>
	<time>2021-08-31T10:25:06.000Z</time>
</trkpt>
<trkpt lat="46.3002380" lon="9.9758980">
	<ele>2469.00</ele>
	<time>2021-08-31T10:25:10.000Z</time>
</trkpt>
<trkpt lat="46.3001980" lon="9.9758750">
	<ele>2468.20</ele>
	<time>2021-08-31T10:25:18.000Z</time>
</trkpt>
<trkpt lat="46.3001750" lon="9.9758470">
	<ele>2467.60</ele>
	<time>2021-08-31T10:25:22.000Z</time>
</trkpt>
<trkpt lat="46.3001710" lon="9.9758410">
	<ele>2467.40</ele>
	<time>2021-08-31T10:25:23.000Z</time>
</trkpt>
<trkpt lat="46.3001670" lon="9.9758260">
	<ele>2467.00</ele>
	<time>2021-08-31T10:25:25.000Z</time>
</trkpt>
<trkpt lat="46.3001660" lon="9.9758160">
	<ele>2467.00</ele>
	<time>2021-08-31T10:25:26.000Z</time>
</trkpt>
<trkpt lat="46.3001660" lon="9.9757800">
	<ele>2466.40</ele>
	<time>2021-08-31T10:25:30.000Z</time>
</trkpt>
<trkpt lat="46.3001650" lon="9.9757510">
	<ele>2466.00</ele>
	<time>2021-08-31T10:25:33.000Z</time>
</trkpt>
<trkpt lat="46.3001630" lon="9.9757440">
	<ele>2465.40</ele>
	<time>2021-08-31T10:25:37.000Z</time>
</trkpt>
<trkpt lat="46.3001690" lon="9.9757330">
	<ele>2465.20</ele>
	<time>2021-08-31T10:25:39.000Z</time>
</trkpt>
<trkpt lat="46.3001770" lon="9.9756660">
	<ele>2465.00</ele>
	<time>2021-08-31T10:25:45.000Z</time>
</trkpt>
<trkpt lat="46.3001760" lon="9.9756570">
	<ele>2464.80</ele>
	<time>2021-08-31T10:25:46.000Z</time>
</trkpt>
<trkpt lat="46.3001980" lon="9.9755920">
	<ele>2463.80</ele>
	<time>2021-08-31T10:25:51.000Z</time>
</trkpt>
<trkpt lat="46.3002040" lon="9.9755770">
	<ele>2463.60</ele>
	<time>2021-08-31T10:25:52.000Z</time>
</trkpt>
<trkpt lat="46.3002120" lon="9.9755170">
	<ele>2463.40</ele>
	<time>2021-08-31T10:25:58.000Z</time>
</trkpt>
<trkpt lat="46.3002010" lon="9.9755000">
	<ele>2463.20</ele>
	<time>2021-08-31T10:26:00.000Z</time>
</trkpt>
<trkpt lat="46.3001560" lon="9.9754540">
	<ele>2463.00</ele>
	<time>2021-08-31T10:26:08.000Z</time>
</trkpt>
<trkpt lat="46.3001380" lon="9.9754360">
	<ele>2462.80</ele>
	<time>2021-08-31T10:26:12.000Z</time>
</trkpt>
<trkpt lat="46.3001210" lon="9.9754360">
	<ele>2462.60</ele>
	<time>2021-08-31T10:26:14.000Z</time>
</trkpt>
<trkpt lat="46.3000990" lon="9.9753820">
	<ele>2461.60</ele>
	<time>2021-08-31T10:26:19.000Z</time>
</trkpt>
<trkpt lat="46.3000990" lon="9.9753680">
	<ele>2461.60</ele>
	<time>2021-08-31T10:26:20.000Z</time>
</trkpt>
<trkpt lat="46.3000620" lon="9.9752770">
	<ele>2460.60</ele>
	<time>2021-08-31T10:26:29.000Z</time>
</trkpt>
<trkpt lat="46.3000580" lon="9.9752690">
	<ele>2460.40</ele>
	<time>2021-08-31T10:26:30.000Z</time>
</trkpt>
<trkpt lat="46.3000330" lon="9.9752040">
	<ele>2459.40</ele>
	<time>2021-08-31T10:26:36.000Z</time>
</trkpt>
<trkpt lat="46.3000260" lon="9.9751800">
	<ele>2459.20</ele>
	<time>2021-08-31T10:26:38.000Z</time>
</trkpt>
<trkpt lat="46.3000200" lon="9.9751640">
	<ele>2459.20</ele>
	<time>2021-08-31T10:26:39.000Z</time>
</trkpt>
<trkpt lat="46.2999850" lon="9.9751060">
	<ele>2458.60</ele>
	<time>2021-08-31T10:26:46.000Z</time>
</trkpt>
<trkpt lat="46.2999810" lon="9.9751000">
	<ele>2458.40</ele>
	<time>2021-08-31T10:26:47.000Z</time>
</trkpt>
<trkpt lat="46.2999450" lon="9.9750650">
	<ele>2457.40</ele>
	<time>2021-08-31T10:26:54.000Z</time>
</trkpt>
<trkpt lat="46.2999450" lon="9.9750570">
	<ele>2457.40</ele>
	<time>2021-08-31T10:26:55.000Z</time>
</trkpt>
<trkpt lat="46.2999410" lon="9.9750370">
	<ele>2456.60</ele>
	<time>2021-08-31T10:27:00.000Z</time>
</trkpt>
<trkpt lat="46.2999470" lon="9.9750330">
	<ele>2456.40</ele>
	<time>2021-08-31T10:27:02.000Z</time>
</trkpt>
<trkpt lat="46.2999620" lon="9.9750110">
	<ele>2456.00</ele>
	<time>2021-08-31T10:27:04.000Z</time>
</trkpt>
<trkpt lat="46.2999550" lon="9.9749750">
	<ele>2455.20</ele>
	<time>2021-08-31T10:27:09.000Z</time>
</trkpt>
<trkpt lat="46.2999520" lon="9.9749460">
	<ele>2454.20</ele>
	<time>2021-08-31T10:27:13.000Z</time>
</trkpt>
<trkpt lat="46.2999550" lon="9.9748950">
	<ele>2453.00</ele>
	<time>2021-08-31T10:27:20.000Z</time>
</trkpt>
<trkpt lat="46.2999530" lon="9.9748880">
	<ele>2453.00</ele>
	<time>2021-08-31T10:27:21.000Z</time>
</trkpt>
<trkpt lat="46.2999640" lon="9.9748840">
	<ele>2452.00</ele>
	<time>2021-08-31T10:27:27.000Z</time>
</trkpt>
<trkpt lat="46.2999670" lon="9.9748770">
	<ele>2452.00</ele>
	<time>2021-08-31T10:27:28.000Z</time>
</trkpt>
<trkpt lat="46.2999650" lon="9.9748520">
	<ele>2451.40</ele>
	<time>2021-08-31T10:27:32.000Z</time>
</trkpt>
<trkpt lat="46.2999580" lon="9.9748240">
	<ele>2450.80</ele>
	<time>2021-08-31T10:27:36.000Z</time>
</trkpt>
<trkpt lat="46.2999610" lon="9.9748090">
	<ele>2450.40</ele>
	<time>2021-08-31T10:27:39.000Z</time>
</trkpt>
<trkpt lat="46.2999660" lon="9.9747530">
	<ele>2449.60</ele>
	<time>2021-08-31T10:27:46.000Z</time>
</trkpt>
<trkpt lat="46.2999650" lon="9.9747470">
	<ele>2449.40</ele>
	<time>2021-08-31T10:27:47.000Z</time>
</trkpt>
<trkpt lat="46.2999450" lon="9.9746810">
	<ele>2448.60</ele>
	<time>2021-08-31T10:27:56.000Z</time>
</trkpt>
<trkpt lat="46.2999440" lon="9.9746750">
	<ele>2448.60</ele>
	<time>2021-08-31T10:27:57.000Z</time>
</trkpt>
<trkpt lat="46.2999640" lon="9.9746370">
	<ele>2448.20</ele>
	<time>2021-08-31T10:28:04.000Z</time>
</trkpt>
<trkpt lat="46.2999830" lon="9.9746030">
	<ele>2447.80</ele>
	<time>2021-08-31T10:28:10.000Z</time>
</trkpt>
<trkpt lat="46.3000040" lon="9.9745770">
	<ele>2447.80</ele>
	<time>2021-08-31T10:28:14.000Z</time>
</trkpt>
<trkpt lat="46.3000140" lon="9.9745300">
	<ele>2447.80</ele>
	<time>2021-08-31T10:28:19.000Z</time>
</trkpt>
<trkpt lat="46.3000200" lon="9.9744690">
	<ele>2447.80</ele>
	<time>2021-08-31T10:28:23.000Z</time>
</trkpt>
<trkpt lat="46.3000240" lon="9.9743910">
	<ele>2447.40</ele>
	<time>2021-08-31T10:28:31.000Z</time>
</trkpt>
<trkpt lat="46.3000280" lon="9.9742900">
	<ele>2447.80</ele>
	<time>2021-08-31T10:28:38.000Z</time>
</trkpt>
<trkpt lat="46.3000240" lon="9.9742190">
	<ele>2448.00</ele>
	<time>2021-08-31T10:28:44.000Z</time>
</trkpt>
<trkpt lat="46.3000210" lon="9.9741880">
	<ele>2448.40</ele>
	<time>2021-08-31T10:28:47.000Z</time>
</trkpt>
<trkpt lat="46.3000230" lon="9.9741730">
	<ele>2448.60</ele>
	<time>2021-08-31T10:28:48.000Z</time>
</trkpt>
<trkpt lat="46.3000290" lon="9.9741310">
	<ele>2448.80</ele>
	<time>2021-08-31T10:28:51.000Z</time>
</trkpt>
<trkpt lat="46.3000340" lon="9.9741050">
	<ele>2448.80</ele>
	<time>2021-08-31T10:28:53.000Z</time>
</trkpt>
<trkpt lat="46.3000530" lon="9.9740620">
	<ele>2449.00</ele>
	<time>2021-08-31T10:28:57.000Z</time>
</trkpt>
<trkpt lat="46.3000540" lon="9.9740090">
	<ele>2448.80</ele>
	<time>2021-08-31T10:29:01.000Z</time>
</trkpt>
<trkpt lat="46.3000480" lon="9.9739750">
	<ele>2448.60</ele>
	<time>2021-08-31T10:29:04.000Z</time>
</trkpt>
<trkpt lat="46.3000390" lon="9.9739540">
	<ele>2448.60</ele>
	<time>2021-08-31T10:29:06.000Z</time>
</trkpt>
<trkpt lat="46.3000180" lon="9.9738840">
	<ele>2448.80</ele>
	<time>2021-08-31T10:29:12.000Z</time>
</trkpt>
<trkpt lat="46.2999970" lon="9.9738540">
	<ele>2448.80</ele>
	<time>2021-08-31T10:29:16.000Z</time>
</trkpt>
<trkpt lat="46.2999940" lon="9.9738500">
	<ele>2448.80</ele>
	<time>2021-08-31T10:29:17.000Z</time>
</trkpt>
<trkpt lat="46.2999650" lon="9.9738350">
	<ele>2448.80</ele>
	<time>2021-08-31T10:29:23.000Z</time>
</trkpt>
<trkpt lat="46.2999310" lon="9.9737680">
	<ele>2448.20</ele>
	<time>2021-08-31T10:29:30.000Z</time>
</trkpt>
<trkpt lat="46.2999010" lon="9.9736700">
	<ele>2447.40</ele>
	<time>2021-08-31T10:29:38.000Z</time>
</trkpt>
<trkpt lat="46.2998930" lon="9.9736080">
	<ele>2447.40</ele>
	<time>2021-08-31T10:29:43.000Z</time>
</trkpt>
<trkpt lat="46.2998880" lon="9.9735690">
	<ele>2447.40</ele>
	<time>2021-08-31T10:29:46.000Z</time>
</trkpt>
<trkpt lat="46.2998740" lon="9.9735230">
	<ele>2447.60</ele>
	<time>2021-08-31T10:29:50.000Z</time>
</trkpt>
<trkpt lat="46.2998680" lon="9.9734740">
	<ele>2447.40</ele>
	<time>2021-08-31T10:29:56.000Z</time>
</trkpt>
<trkpt lat="46.2998600" lon="9.9734720">
	<ele>2447.40</ele>
	<time>2021-08-31T10:29:58.000Z</time>
</trkpt>
<trkpt lat="46.2998400" lon="9.9734180">
	<ele>2446.40</ele>
	<time>2021-08-31T10:30:04.000Z</time>
</trkpt>
<trkpt lat="46.2998460" lon="9.9733770">
	<ele>2446.20</ele>
	<time>2021-08-31T10:30:07.000Z</time>
</trkpt>
<trkpt lat="46.2998490" lon="9.9732980">
	<ele>2445.20</ele>
	<time>2021-08-31T10:30:15.000Z</time>
</trkpt>
<trkpt lat="46.2998480" lon="9.9732680">
	<ele>2445.00</ele>
	<time>2021-08-31T10:30:18.000Z</time>
</trkpt>
<trkpt lat="46.2998530" lon="9.9732170">
	<ele>2444.20</ele>
	<time>2021-08-31T10:30:23.000Z</time>
</trkpt>
<trkpt lat="46.2998490" lon="9.9731890">
	<ele>2443.60</ele>
	<time>2021-08-31T10:30:27.000Z</time>
</trkpt>
<trkpt lat="46.2998380" lon="9.9731710">
	<ele>2443.00</ele>
	<time>2021-08-31T10:30:30.000Z</time>
</trkpt>
<trkpt lat="46.2998340" lon="9.9731390">
	<ele>2442.20</ele>
	<time>2021-08-31T10:30:34.000Z</time>
</trkpt>
<trkpt lat="46.2998350" lon="9.9731310">
	<ele>2442.00</ele>
	<time>2021-08-31T10:30:35.000Z</time>
</trkpt>
<trkpt lat="46.2998380" lon="9.9731220">
	<ele>2442.00</ele>
	<time>2021-08-31T10:30:36.000Z</time>
</trkpt>
<trkpt lat="46.2998440" lon="9.9730680">
	<ele>2441.00</ele>
	<time>2021-08-31T10:30:42.000Z</time>
</trkpt>
<trkpt lat="46.2998440" lon="9.9730250">
	<ele>2440.20</ele>
	<time>2021-08-31T10:30:48.000Z</time>
</trkpt>
<trkpt lat="46.2998470" lon="9.9730120">
	<ele>2440.00</ele>
	<time>2021-08-31T10:30:49.000Z</time>
</trkpt>
<trkpt lat="46.2998480" lon="9.9729630">
	<ele>2438.80</ele>
	<time>2021-08-31T10:30:55.000Z</time>
</trkpt>
<trkpt lat="46.2998500" lon="9.9729350">
	<ele>2438.40</ele>
	<time>2021-08-31T10:30:58.000Z</time>
</trkpt>
<trkpt lat="46.2998580" lon="9.9729130">
	<ele>2437.80</ele>
	<time>2021-08-31T10:31:01.000Z</time>
</trkpt>
<trkpt lat="46.2998500" lon="9.9728940">
	<ele>2437.40</ele>
	<time>2021-08-31T10:31:06.000Z</time>
</trkpt>
<trkpt lat="46.2998350" lon="9.9728690">
	<ele>2436.80</ele>
	<time>2021-08-31T10:31:10.000Z</time>
</trkpt>
<trkpt lat="46.2998290" lon="9.9728320">
	<ele>2436.00</ele>
	<time>2021-08-31T10:31:15.000Z</time>
</trkpt>
<trkpt lat="46.2998360" lon="9.9728110">
	<ele>2435.60</ele>
	<time>2021-08-31T10:31:17.000Z</time>
</trkpt>
<trkpt lat="46.2998480" lon="9.9727770">
	<ele>2435.00</ele>
	<time>2021-08-31T10:31:21.000Z</time>
</trkpt>
<trkpt lat="46.2998450" lon="9.9727670">
	<ele>2434.80</ele>
	<time>2021-08-31T10:31:23.000Z</time>
</trkpt>
<trkpt lat="46.2998420" lon="9.9727630">
	<ele>2434.60</ele>
	<time>2021-08-31T10:31:24.000Z</time>
</trkpt>
<trkpt lat="46.2998630" lon="9.9727080">
	<ele>2433.80</ele>
	<time>2021-08-31T10:31:32.000Z</time>
</trkpt>
<trkpt lat="46.2998790" lon="9.9727130">
	<ele>2433.60</ele>
	<time>2021-08-31T10:31:36.000Z</time>
</trkpt>
<trkpt lat="46.2999100" lon="9.9727010">
	<ele>2433.40</ele>
	<time>2021-08-31T10:31:41.000Z</time>
</trkpt>
<trkpt lat="46.2999260" lon="9.9726960">
	<ele>2433.20</ele>
	<time>2021-08-31T10:31:48.000Z</time>
</trkpt>
<trkpt lat="46.2998880" lon="9.9727210">
	<ele>2433.40</ele>
	<time>2021-08-31T10:31:57.000Z</time>
</trkpt>
<trkpt lat="46.2998710" lon="9.9727100">
	<ele>2432.60</ele>
	<time>2021-08-31T10:32:03.000Z</time>
</trkpt>
<trkpt lat="46.2998520" lon="9.9726910">
	<ele>2432.00</ele>
	<time>2021-08-31T10:32:05.000Z</time>
</trkpt>
<trkpt lat="46.2998300" lon="9.9726560">
	<ele>2431.40</ele>
	<time>2021-08-31T10:32:08.000Z</time>
</trkpt>
<trkpt lat="46.2998090" lon="9.9726260">
	<ele>2431.00</ele>
	<time>2021-08-31T10:32:11.000Z</time>
</trkpt>
<trkpt lat="46.2997940" lon="9.9726100">
	<ele>2430.40</ele>
	<time>2021-08-31T10:32:14.000Z</time>
</trkpt>
<trkpt lat="46.2997980" lon="9.9725880">
	<ele>2430.00</ele>
	<time>2021-08-31T10:32:17.000Z</time>
</trkpt>
<trkpt lat="46.2997980" lon="9.9725810">
	<ele>2429.80</ele>
	<time>2021-08-31T10:32:18.000Z</time>
</trkpt>
<trkpt lat="46.2998020" lon="9.9725520">
	<ele>2429.40</ele>
	<time>2021-08-31T10:32:21.000Z</time>
</trkpt>
<trkpt lat="46.2997850" lon="9.9725000">
	<ele>2428.20</ele>
	<time>2021-08-31T10:32:27.000Z</time>
</trkpt>
<trkpt lat="46.2997620" lon="9.9724380">
	<ele>2427.40</ele>
	<time>2021-08-31T10:32:34.000Z</time>
</trkpt>
<trkpt lat="46.2997520" lon="9.9724080">
	<ele>2427.20</ele>
	<time>2021-08-31T10:32:37.000Z</time>
</trkpt>
<trkpt lat="46.2997550" lon="9.9723940">
	<ele>2427.20</ele>
	<time>2021-08-31T10:32:38.000Z</time>
</trkpt>
<trkpt lat="46.2997490" lon="9.9723620">
	<ele>2426.80</ele>
	<time>2021-08-31T10:32:41.000Z</time>
</trkpt>
<trkpt lat="46.2997330" lon="9.9723260">
	<ele>2426.20</ele>
	<time>2021-08-31T10:32:45.000Z</time>
</trkpt>
<trkpt lat="46.2997320" lon="9.9723140">
	<ele>2426.00</ele>
	<time>2021-08-31T10:32:46.000Z</time>
</trkpt>
<trkpt lat="46.2997320" lon="9.9722520">
	<ele>2425.20</ele>
	<time>2021-08-31T10:32:51.000Z</time>
</trkpt>
<trkpt lat="46.2997330" lon="9.9722480">
	<ele>2425.20</ele>
	<time>2021-08-31T10:32:52.000Z</time>
</trkpt>
<trkpt lat="46.2997320" lon="9.9722280">
	<ele>2424.80</ele>
	<time>2021-08-31T10:32:54.000Z</time>
</trkpt>
<trkpt lat="46.2997230" lon="9.9721760">
	<ele>2424.00</ele>
	<time>2021-08-31T10:33:00.000Z</time>
</trkpt>
<trkpt lat="46.2997140" lon="9.9721420">
	<ele>2423.60</ele>
	<time>2021-08-31T10:33:03.000Z</time>
</trkpt>
<trkpt lat="46.2997040" lon="9.9720900">
	<ele>2422.80</ele>
	<time>2021-08-31T10:33:08.000Z</time>
</trkpt>
<trkpt lat="46.2996930" lon="9.9720610">
	<ele>2422.40</ele>
	<time>2021-08-31T10:33:11.000Z</time>
</trkpt>
<trkpt lat="46.2996870" lon="9.9720230">
	<ele>2421.80</ele>
	<time>2021-08-31T10:33:14.000Z</time>
</trkpt>
<trkpt lat="46.2996730" lon="9.9719780">
	<ele>2421.20</ele>
	<time>2021-08-31T10:33:19.000Z</time>
</trkpt>
<trkpt lat="46.2996700" lon="9.9719410">
	<ele>2420.60</ele>
	<time>2021-08-31T10:33:22.000Z</time>
</trkpt>
<trkpt lat="46.2996500" lon="9.9718690">
	<ele>2419.60</ele>
	<time>2021-08-31T10:33:27.000Z</time>
</trkpt>
<trkpt lat="46.2996420" lon="9.9718570">
	<ele>2419.40</ele>
	<time>2021-08-31T10:33:28.000Z</time>
</trkpt>
<trkpt lat="46.2996370" lon="9.9718460">
	<ele>2419.20</ele>
	<time>2021-08-31T10:33:29.000Z</time>
</trkpt>
<trkpt lat="46.2996270" lon="9.9718200">
	<ele>2418.80</ele>
	<time>2021-08-31T10:33:31.000Z</time>
</trkpt>
<trkpt lat="46.2996210" lon="9.9717580">
	<ele>2418.40</ele>
	<time>2021-08-31T10:33:35.000Z</time>
</trkpt>
<trkpt lat="46.2995990" lon="9.9716570">
	<ele>2417.60</ele>
	<time>2021-08-31T10:33:42.000Z</time>
</trkpt>
<trkpt lat="46.2995970" lon="9.9716400">
	<ele>2417.60</ele>
	<time>2021-08-31T10:33:43.000Z</time>
</trkpt>
<trkpt lat="46.2995950" lon="9.9716080">
	<ele>2417.40</ele>
	<time>2021-08-31T10:33:45.000Z</time>
</trkpt>
<trkpt lat="46.2995940" lon="9.9715680">
	<ele>2417.40</ele>
	<time>2021-08-31T10:33:48.000Z</time>
</trkpt>
<trkpt lat="46.2995910" lon="9.9715170">
	<ele>2417.00</ele>
	<time>2021-08-31T10:33:52.000Z</time>
</trkpt>
<trkpt lat="46.2995880" lon="9.9714970">
	<ele>2416.60</ele>
	<time>2021-08-31T10:33:54.000Z</time>
</trkpt>
<trkpt lat="46.2995850" lon="9.9714870">
	<ele>2416.20</ele>
	<time>2021-08-31T10:33:56.000Z</time>
</trkpt>
<trkpt lat="46.2995800" lon="9.9714850">
	<ele>2415.80</ele>
	<time>2021-08-31T10:33:59.000Z</time>
</trkpt>
<trkpt lat="46.2995770" lon="9.9714930">
	<ele>2415.80</ele>
	<time>2021-08-31T10:34:01.000Z</time>
</trkpt>
<trkpt lat="46.2995860" lon="9.9714950">
	<ele>2415.80</ele>
	<time>2021-08-31T10:34:07.000Z</time>
</trkpt>
<trkpt lat="46.2995860" lon="9.9714950">
	<ele>2415.80</ele>
	<time>2021-08-31T10:34:10.000Z</time>
</trkpt>
<trkpt lat="46.2995860" lon="9.9714900">
	<ele>2415.80</ele>
	<time>2021-08-31T10:34:18.000Z</time>
</trkpt>
<trkpt lat="46.2995970" lon="9.9714850">
	<ele>2415.20</ele>
	<time>2021-08-31T10:34:29.000Z</time>
</trkpt>
<trkpt lat="46.2995970" lon="9.9714850">
	<ele>2415.20</ele>
	<time>2021-08-31T10:34:30.000Z</time>
</trkpt>
<trkpt lat="46.2995970" lon="9.9714850">
	<ele>2415.20</ele>
	<time>2021-08-31T10:34:31.000Z</time>
</trkpt>
<trkpt lat="46.2996130" lon="9.9714100">
	<ele>2414.00</ele>
	<time>2021-08-31T10:34:44.000Z</time>
</trkpt>
<trkpt lat="46.2996170" lon="9.9713690">
	<ele>2413.40</ele>
	<time>2021-08-31T10:34:46.000Z</time>
</trkpt>
<trkpt lat="46.2996170" lon="9.9713160">
	<ele>2413.00</ele>
	<time>2021-08-31T10:34:49.000Z</time>
</trkpt>
<trkpt lat="46.2996150" lon="9.9712960">
	<ele>2413.00</ele>
	<time>2021-08-31T10:34:50.000Z</time>
</trkpt>
<trkpt lat="46.2996130" lon="9.9712800">
	<ele>2412.60</ele>
	<time>2021-08-31T10:34:51.000Z</time>
</trkpt>
<trkpt lat="46.2996050" lon="9.9712490">
	<ele>2411.80</ele>
	<time>2021-08-31T10:34:54.000Z</time>
</trkpt>
<trkpt lat="46.2995770" lon="9.9712110">
	<ele>2410.80</ele>
	<time>2021-08-31T10:34:58.000Z</time>
</trkpt>
<trkpt lat="46.2995580" lon="9.9711250">
	<ele>2409.60</ele>
	<time>2021-08-31T10:35:06.000Z</time>
</trkpt>
<trkpt lat="46.2995600" lon="9.9711130">
	<ele>2409.40</ele>
	<time>2021-08-31T10:35:07.000Z</time>
</trkpt>
<trkpt lat="46.2995650" lon="9.9711010">
	<ele>2409.00</ele>
	<time>2021-08-31T10:35:08.000Z</time>
</trkpt>
<trkpt lat="46.2995500" lon="9.9710870">
	<ele>2408.40</ele>
	<time>2021-08-31T10:35:10.000Z</time>
</trkpt>
<trkpt lat="46.2995310" lon="9.9710850">
	<ele>2407.60</ele>
	<time>2021-08-31T10:35:12.000Z</time>
</trkpt>
<trkpt lat="46.2995300" lon="9.9710810">
	<ele>2407.20</ele>
	<time>2021-08-31T10:35:13.000Z</time>
</trkpt>
<trkpt lat="46.2994910" lon="9.9710420">
	<ele>2406.20</ele>
	<time>2021-08-31T10:35:19.000Z</time>
</trkpt>
<trkpt lat="46.2994820" lon="9.9709990">
	<ele>2405.20</ele>
	<time>2021-08-31T10:35:23.000Z</time>
</trkpt>
<trkpt lat="46.2994710" lon="9.9709480">
	<ele>2404.00</ele>
	<time>2021-08-31T10:35:28.000Z</time>
</trkpt>
<trkpt lat="46.2994620" lon="9.9709320">
	<ele>2403.20</ele>
	<time>2021-08-31T10:35:30.000Z</time>
</trkpt>
<trkpt lat="46.2994540" lon="9.9709170">
	<ele>2402.80</ele>
	<time>2021-08-31T10:35:32.000Z</time>
</trkpt>
<trkpt lat="46.2994370" lon="9.9708520">
	<ele>2401.60</ele>
	<time>2021-08-31T10:35:38.000Z</time>
</trkpt>
<trkpt lat="46.2994270" lon="9.9708350">
	<ele>2401.00</ele>
	<time>2021-08-31T10:35:40.000Z</time>
</trkpt>
<trkpt lat="46.2994100" lon="9.9708080">
	<ele>2400.60</ele>
	<time>2021-08-31T10:35:43.000Z</time>
</trkpt>
<trkpt lat="46.2994060" lon="9.9707990">
	<ele>2400.40</ele>
	<time>2021-08-31T10:35:45.000Z</time>
</trkpt>
<trkpt lat="46.2994030" lon="9.9707830">
	<ele>2400.20</ele>
	<time>2021-08-31T10:35:47.000Z</time>
</trkpt>
<trkpt lat="46.2994030" lon="9.9707530">
	<ele>2399.60</ele>
	<time>2021-08-31T10:35:50.000Z</time>
</trkpt>
<trkpt lat="46.2994030" lon="9.9707420">
	<ele>2399.60</ele>
	<time>2021-08-31T10:35:51.000Z</time>
</trkpt>
<trkpt lat="46.2994040" lon="9.9706990">
	<ele>2398.60</ele>
	<time>2021-08-31T10:35:55.000Z</time>
</trkpt>
<trkpt lat="46.2994000" lon="9.9706950">
	<ele>2398.40</ele>
	<time>2021-08-31T10:35:56.000Z</time>
</trkpt>
<trkpt lat="46.2993840" lon="9.9706790">
	<ele>2397.40</ele>
	<time>2021-08-31T10:35:59.000Z</time>
</trkpt>
<trkpt lat="46.2993610" lon="9.9706620">
	<ele>2396.40</ele>
	<time>2021-08-31T10:36:03.000Z</time>
</trkpt>
<trkpt lat="46.2993580" lon="9.9706540">
	<ele>2396.20</ele>
	<time>2021-08-31T10:36:04.000Z</time>
</trkpt>
<trkpt lat="46.2993560" lon="9.9706410">
	<ele>2395.80</ele>
	<time>2021-08-31T10:36:06.000Z</time>
</trkpt>
<trkpt lat="46.2993470" lon="9.9706360">
	<ele>2395.60</ele>
	<time>2021-08-31T10:36:08.000Z</time>
</trkpt>
<trkpt lat="46.2993410" lon="9.9706350">
	<ele>2395.40</ele>
	<time>2021-08-31T10:36:09.000Z</time>
</trkpt>
<trkpt lat="46.2993280" lon="9.9706340">
	<ele>2395.00</ele>
	<time>2021-08-31T10:36:11.000Z</time>
</trkpt>
<trkpt lat="46.2993090" lon="9.9706400">
	<ele>2394.20</ele>
	<time>2021-08-31T10:36:14.000Z</time>
</trkpt>
<trkpt lat="46.2992850" lon="9.9706870">
	<ele>2394.00</ele>
	<time>2021-08-31T10:36:20.000Z</time>
</trkpt>
<trkpt lat="46.2992430" lon="9.9706920">
	<ele>2393.00</ele>
	<time>2021-08-31T10:36:26.000Z</time>
</trkpt>
<trkpt lat="46.2992370" lon="9.9706860">
	<ele>2393.00</ele>
	<time>2021-08-31T10:36:27.000Z</time>
</trkpt>
<trkpt lat="46.2992440" lon="9.9706430">
	<ele>2391.80</ele>
	<time>2021-08-31T10:36:33.000Z</time>
</trkpt>
<trkpt lat="46.2992540" lon="9.9706340">
	<ele>2391.00</ele>
	<time>2021-08-31T10:36:36.000Z</time>
</trkpt>
<trkpt lat="46.2992540" lon="9.9706280">
	<ele>2390.80</ele>
	<time>2021-08-31T10:36:37.000Z</time>
</trkpt>
<trkpt lat="46.2992730" lon="9.9706010">
	<ele>2389.80</ele>
	<time>2021-08-31T10:37:02.000Z</time>
</trkpt>
<trkpt lat="46.2992790" lon="9.9705860">
	<ele>2388.60</ele>
	<time>2021-08-31T10:37:07.000Z</time>
</trkpt>
<trkpt lat="46.2992820" lon="9.9704640">
	<ele>2388.20</ele>
	<time>2021-08-31T10:37:14.000Z</time>
</trkpt>
<trkpt lat="46.2992930" lon="9.9703510">
	<ele>2387.60</ele>
	<time>2021-08-31T10:37:20.000Z</time>
</trkpt>
<trkpt lat="46.2992780" lon="9.9703340">
	<ele>2387.20</ele>
	<time>2021-08-31T10:37:23.000Z</time>
</trkpt>
<trkpt lat="46.2992860" lon="9.9702980">
	<ele>2386.40</ele>
	<time>2021-08-31T10:37:27.000Z</time>
</trkpt>
<trkpt lat="46.2992780" lon="9.9702650">
	<ele>2385.80</ele>
	<time>2021-08-31T10:37:31.000Z</time>
</trkpt>
<trkpt lat="46.2992660" lon="9.9702570">
	<ele>2385.00</ele>
	<time>2021-08-31T10:37:34.000Z</time>
</trkpt>
<trkpt lat="46.2992550" lon="9.9702340">
	<ele>2384.20</ele>
	<time>2021-08-31T10:37:38.000Z</time>
</trkpt>
<trkpt lat="46.2992550" lon="9.9702280">
	<ele>2384.00</ele>
	<time>2021-08-31T10:37:39.000Z</time>
</trkpt>
<trkpt lat="46.2992580" lon="9.9701730">
	<ele>2382.60</ele>
	<time>2021-08-31T10:37:45.000Z</time>
</trkpt>
<trkpt lat="46.2992390" lon="9.9701710">
	<ele>2381.60</ele>
	<time>2021-08-31T10:37:49.000Z</time>
</trkpt>
<trkpt lat="46.2992280" lon="9.9701390">
	<ele>2380.80</ele>
	<time>2021-08-31T10:37:54.000Z</time>
</trkpt>
<trkpt lat="46.2992250" lon="9.9701290">
	<ele>2380.60</ele>
	<time>2021-08-31T10:37:55.000Z</time>
</trkpt>
<trkpt lat="46.2992200" lon="9.9700730">
	<ele>2379.40</ele>
	<time>2021-08-31T10:38:01.000Z</time>
</trkpt>
<trkpt lat="46.2992020" lon="9.9700410">
	<ele>2378.20</ele>
	<time>2021-08-31T10:38:07.000Z</time>
</trkpt>
<trkpt lat="46.2991950" lon="9.9700350">
	<ele>2378.00</ele>
	<time>2021-08-31T10:38:08.000Z</time>
</trkpt>
<trkpt lat="46.2992000" lon="9.9700170">
	<ele>2377.20</ele>
	<time>2021-08-31T10:38:12.000Z</time>
</trkpt>
<trkpt lat="46.2991870" lon="9.9700090">
	<ele>2376.80</ele>
	<time>2021-08-31T10:38:14.000Z</time>
</trkpt>
<trkpt lat="46.2991830" lon="9.9699880">
	<ele>2376.20</ele>
	<time>2021-08-31T10:38:17.000Z</time>
</trkpt>
<trkpt lat="46.2991800" lon="9.9699550">
	<ele>2375.40</ele>
	<time>2021-08-31T10:38:21.000Z</time>
</trkpt>
<trkpt lat="46.2991800" lon="9.9699360">
	<ele>2375.20</ele>
	<time>2021-08-31T10:38:23.000Z</time>
</trkpt>
<trkpt lat="46.2991840" lon="9.9698830">
	<ele>2374.00</ele>
	<time>2021-08-31T10:38:29.000Z</time>
</trkpt>
<trkpt lat="46.2991820" lon="9.9698750">
	<ele>2374.00</ele>
	<time>2021-08-31T10:38:30.000Z</time>
</trkpt>
<trkpt lat="46.2991460" lon="9.9698590">
	<ele>2372.80</ele>
	<time>2021-08-31T10:38:36.000Z</time>
</trkpt>
<trkpt lat="46.2991380" lon="9.9698600">
	<ele>2372.60</ele>
	<time>2021-08-31T10:38:37.000Z</time>
</trkpt>
<trkpt lat="46.2991240" lon="9.9698750">
	<ele>2371.80</ele>
	<time>2021-08-31T10:38:40.000Z</time>
</trkpt>
<trkpt lat="46.2991170" lon="9.9698930">
	<ele>2371.40</ele>
	<time>2021-08-31T10:38:43.000Z</time>
</trkpt>
<trkpt lat="46.2991070" lon="9.9699000">
	<ele>2371.00</ele>
	<time>2021-08-31T10:38:45.000Z</time>
</trkpt>
<trkpt lat="46.2991060" lon="9.9698970">
	<ele>2370.80</ele>
	<time>2021-08-31T10:38:46.000Z</time>
</trkpt>
<trkpt lat="46.2991030" lon="9.9698510">
	<ele>2370.00</ele>
	<time>2021-08-31T10:38:50.000Z</time>
</trkpt>
<trkpt lat="46.2990960" lon="9.9698400">
	<ele>2369.60</ele>
	<time>2021-08-31T10:38:52.000Z</time>
</trkpt>
<trkpt lat="46.2990870" lon="9.9697990">
	<ele>2368.60</ele>
	<time>2021-08-31T10:38:57.000Z</time>
</trkpt>
<trkpt lat="46.2990850" lon="9.9697890">
	<ele>2368.40</ele>
	<time>2021-08-31T10:38:58.000Z</time>
</trkpt>
<trkpt lat="46.2990700" lon="9.9697580">
	<ele>2367.20</ele>
	<time>2021-08-31T10:39:02.000Z</time>
</trkpt>
<trkpt lat="46.2990450" lon="9.9697280">
	<ele>2366.20</ele>
	<time>2021-08-31T10:39:06.000Z</time>
</trkpt>
<trkpt lat="46.2990370" lon="9.9697200">
	<ele>2366.00</ele>
	<time>2021-08-31T10:39:07.000Z</time>
</trkpt>
<trkpt lat="46.2990210" lon="9.9697000">
	<ele>2365.80</ele>
	<time>2021-08-31T10:39:09.000Z</time>
</trkpt>
<trkpt lat="46.2989730" lon="9.9696380">
	<ele>2365.20</ele>
	<time>2021-08-31T10:39:18.000Z</time>
</trkpt>
<trkpt lat="46.2989750" lon="9.9695970">
	<ele>2365.20</ele>
	<time>2021-08-31T10:39:21.000Z</time>
</trkpt>
<trkpt lat="46.2989620" lon="9.9695620">
	<ele>2365.40</ele>
	<time>2021-08-31T10:39:26.000Z</time>
</trkpt>
<trkpt lat="46.2989630" lon="9.9695550">
	<ele>2365.40</ele>
	<time>2021-08-31T10:39:27.000Z</time>
</trkpt>
<trkpt lat="46.2989520" lon="9.9694800">
	<ele>2365.20</ele>
	<time>2021-08-31T10:39:32.000Z</time>
</trkpt>
<trkpt lat="46.2989130" lon="9.9694590">
	<ele>2365.00</ele>
	<time>2021-08-31T10:39:36.000Z</time>
</trkpt>
<trkpt lat="46.2989140" lon="9.9694240">
	<ele>2365.00</ele>
	<time>2021-08-31T10:39:38.000Z</time>
</trkpt>
<trkpt lat="46.2988830" lon="9.9693670">
	<ele>2365.40</ele>
	<time>2021-08-31T10:39:45.000Z</time>
</trkpt>
<trkpt lat="46.2988800" lon="9.9693480">
	<ele>2365.20</ele>
	<time>2021-08-31T10:39:47.000Z</time>
</trkpt>
<trkpt lat="46.2988790" lon="9.9693270">
	<ele>2365.00</ele>
	<time>2021-08-31T10:39:48.000Z</time>
</trkpt>
<trkpt lat="46.2988670" lon="9.9692850">
	<ele>2364.60</ele>
	<time>2021-08-31T10:39:51.000Z</time>
</trkpt>
<trkpt lat="46.2988500" lon="9.9692580">
	<ele>2364.80</ele>
	<time>2021-08-31T10:39:54.000Z</time>
</trkpt>
<trkpt lat="46.2988110" lon="9.9691950">
	<ele>2365.20</ele>
	<time>2021-08-31T10:39:59.000Z</time>
</trkpt>
<trkpt lat="46.2988010" lon="9.9691700">
	<ele>2365.00</ele>
	<time>2021-08-31T10:40:01.000Z</time>
</trkpt>
<trkpt lat="46.2987920" lon="9.9691620">
	<ele>2365.00</ele>
	<time>2021-08-31T10:40:02.000Z</time>
</trkpt>
<trkpt lat="46.2987870" lon="9.9691490">
	<ele>2364.80</ele>
	<time>2021-08-31T10:40:03.000Z</time>
</trkpt>
<trkpt lat="46.2987770" lon="9.9691150">
	<ele>2364.80</ele>
	<time>2021-08-31T10:40:05.000Z</time>
</trkpt>
<trkpt lat="46.2987190" lon="9.9690110">
	<ele>2364.60</ele>
	<time>2021-08-31T10:40:15.000Z</time>
</trkpt>
<trkpt lat="46.2987000" lon="9.9689910">
	<ele>2364.20</ele>
	<time>2021-08-31T10:40:17.000Z</time>
</trkpt>
<trkpt lat="46.2986710" lon="9.9689530">
	<ele>2363.60</ele>
	<time>2021-08-31T10:40:23.000Z</time>
</trkpt>
<trkpt lat="46.2986730" lon="9.9689520">
	<ele>2363.40</ele>
	<time>2021-08-31T10:40:24.000Z</time>
</trkpt>
<trkpt lat="46.2986720" lon="9.9689500">
	<ele>2363.40</ele>
	<time>2021-08-31T10:40:26.000Z</time>
</trkpt>
<trkpt lat="46.2986680" lon="9.9689420">
	<ele>2363.60</ele>
	<time>2021-08-31T10:40:31.000Z</time>
</trkpt>
<trkpt lat="46.2986640" lon="9.9689550">
	<ele>2363.60</ele>
	<time>2021-08-31T10:40:34.000Z</time>
</trkpt>
<trkpt lat="46.2986490" lon="9.9689570">
	<ele>2363.60</ele>
	<time>2021-08-31T10:40:36.000Z</time>
</trkpt>
<trkpt lat="46.2986410" lon="9.9689470">
	<ele>2363.60</ele>
	<time>2021-08-31T10:40:38.000Z</time>
</trkpt>
<trkpt lat="46.2986400" lon="9.9689340">
	<ele>2363.80</ele>
	<time>2021-08-31T10:40:39.000Z</time>
</trkpt>
<trkpt lat="46.2986190" lon="9.9688910">
	<ele>2363.20</ele>
	<time>2021-08-31T10:40:44.000Z</time>
</trkpt>
<trkpt lat="46.2986100" lon="9.9688860">
	<ele>2363.20</ele>
	<time>2021-08-31T10:40:45.000Z</time>
</trkpt>
<trkpt lat="46.2985830" lon="9.9688290">
	<ele>2362.40</ele>
	<time>2021-08-31T10:40:51.000Z</time>
</trkpt>
<trkpt lat="46.2985700" lon="9.9688240">
	<ele>2362.00</ele>
	<time>2021-08-31T10:40:53.000Z</time>
</trkpt>
<trkpt lat="46.2985530" lon="9.9687720">
	<ele>2361.20</ele>
	<time>2021-08-31T10:40:57.000Z</time>
</trkpt>
<trkpt lat="46.2985430" lon="9.9687640">
	<ele>2361.00</ele>
	<time>2021-08-31T10:40:58.000Z</time>
</trkpt>
<trkpt lat="46.2984940" lon="9.9687320">
	<ele>2360.00</ele>
	<time>2021-08-31T10:41:04.000Z</time>
</trkpt>
<trkpt lat="46.2984860" lon="9.9687250">
	<ele>2360.00</ele>
	<time>2021-08-31T10:41:05.000Z</time>
</trkpt>
<trkpt lat="46.2984380" lon="9.9687000">
	<ele>2358.80</ele>
	<time>2021-08-31T10:41:10.000Z</time>
</trkpt>
<trkpt lat="46.2984190" lon="9.9686890">
	<ele>2358.60</ele>
	<time>2021-08-31T10:41:12.000Z</time>
</trkpt>
<trkpt lat="46.2983870" lon="9.9686540">
	<ele>2357.80</ele>
	<time>2021-08-31T10:41:17.000Z</time>
</trkpt>
<trkpt lat="46.2983700" lon="9.9686060">
	<ele>2357.20</ele>
	<time>2021-08-31T10:41:21.000Z</time>
</trkpt>
<trkpt lat="46.2983470" lon="9.9685930">
	<ele>2356.80</ele>
	<time>2021-08-31T10:41:23.000Z</time>
</trkpt>
<trkpt lat="46.2983240" lon="9.9685780">
	<ele>2356.20</ele>
	<time>2021-08-31T10:41:25.000Z</time>
</trkpt>
<trkpt lat="46.2983050" lon="9.9685660">
	<ele>2355.80</ele>
	<time>2021-08-31T10:41:27.000Z</time>
</trkpt>
<trkpt lat="46.2982990" lon="9.9685490">
	<ele>2355.40</ele>
	<time>2021-08-31T10:41:29.000Z</time>
</trkpt>
<trkpt lat="46.2982460" lon="9.9685260">
	<ele>2354.80</ele>
	<time>2021-08-31T10:41:37.000Z</time>
</trkpt>
<trkpt lat="46.2982310" lon="9.9685040">
	<ele>2354.40</ele>
	<time>2021-08-31T10:41:39.000Z</time>
</trkpt>
<trkpt lat="46.2981930" lon="9.9684810">
	<ele>2353.60</ele>
	<time>2021-08-31T10:41:44.000Z</time>
</trkpt>
<trkpt lat="46.2981860" lon="9.9684630">
	<ele>2353.40</ele>
	<time>2021-08-31T10:41:46.000Z</time>
</trkpt>
<trkpt lat="46.2981870" lon="9.9684500">
	<ele>2353.20</ele>
	<time>2021-08-31T10:41:47.000Z</time>
</trkpt>
<trkpt lat="46.2981530" lon="9.9683860">
	<ele>2352.60</ele>
	<time>2021-08-31T10:41:53.000Z</time>
</trkpt>
<trkpt lat="46.2981360" lon="9.9683750">
	<ele>2352.40</ele>
	<time>2021-08-31T10:41:55.000Z</time>
</trkpt>
<trkpt lat="46.2981270" lon="9.9683580">
	<ele>2352.00</ele>
	<time>2021-08-31T10:41:57.000Z</time>
</trkpt>
<trkpt lat="46.2981150" lon="9.9683390">
	<ele>2351.60</ele>
	<time>2021-08-31T10:41:59.000Z</time>
</trkpt>
<trkpt lat="46.2981000" lon="9.9683300">
	<ele>2351.00</ele>
	<time>2021-08-31T10:42:01.000Z</time>
</trkpt>
<trkpt lat="46.2980680" lon="9.9683060">
	<ele>2350.40</ele>
	<time>2021-08-31T10:42:04.000Z</time>
</trkpt>
<trkpt lat="46.2980350" lon="9.9682780">
	<ele>2349.60</ele>
	<time>2021-08-31T10:42:09.000Z</time>
</trkpt>
<trkpt lat="46.2980270" lon="9.9682710">
	<ele>2349.40</ele>
	<time>2021-08-31T10:42:10.000Z</time>
</trkpt>
<trkpt lat="46.2980060" lon="9.9682280">
	<ele>2348.60</ele>
	<time>2021-08-31T10:42:15.000Z</time>
</trkpt>
<trkpt lat="46.2980030" lon="9.9682160">
	<ele>2348.40</ele>
	<time>2021-08-31T10:42:16.000Z</time>
</trkpt>
<trkpt lat="46.2980170" lon="9.9681620">
	<ele>2347.20</ele>
	<time>2021-08-31T10:42:23.000Z</time>
</trkpt>
<trkpt lat="46.2980210" lon="9.9681410">
	<ele>2346.40</ele>
	<time>2021-08-31T10:42:26.000Z</time>
</trkpt>
<trkpt lat="46.2980230" lon="9.9681340">
	<ele>2346.20</ele>
	<time>2021-08-31T10:42:27.000Z</time>
</trkpt>
<trkpt lat="46.2980250" lon="9.9681270">
	<ele>2345.80</ele>
	<time>2021-08-31T10:42:28.000Z</time>
</trkpt>
<trkpt lat="46.2980270" lon="9.9681090">
	<ele>2345.20</ele>
	<time>2021-08-31T10:42:32.000Z</time>
</trkpt>
<trkpt lat="46.2980260" lon="9.9681020">
	<ele>2345.00</ele>
	<time>2021-08-31T10:42:33.000Z</time>
</trkpt>
<trkpt lat="46.2980480" lon="9.9680670">
	<ele>2343.60</ele>
	<time>2021-08-31T10:42:37.000Z</time>
</trkpt>
<trkpt lat="46.2980760" lon="9.9680350">
	<ele>2342.80</ele>
	<time>2021-08-31T10:42:40.000Z</time>
</trkpt>
<trkpt lat="46.2980950" lon="9.9680220">
	<ele>2342.60</ele>
	<time>2021-08-31T10:42:42.000Z</time>
</trkpt>
<trkpt lat="46.2981410" lon="9.9679810">
	<ele>2341.40</ele>
	<time>2021-08-31T10:42:48.000Z</time>
</trkpt>
<trkpt lat="46.2981700" lon="9.9679330">
	<ele>2340.80</ele>
	<time>2021-08-31T10:42:51.000Z</time>
</trkpt>
<trkpt lat="46.2981520" lon="9.9679160">
	<ele>2340.20</ele>
	<time>2021-08-31T10:42:53.000Z</time>
</trkpt>
<trkpt lat="46.2981250" lon="9.9678970">
	<ele>2339.80</ele>
	<time>2021-08-31T10:42:57.000Z</time>
</trkpt>
<trkpt lat="46.2981060" lon="9.9678890">
	<ele>2339.20</ele>
	<time>2021-08-31T10:42:59.000Z</time>
</trkpt>
<trkpt lat="46.2980650" lon="9.9678810">
	<ele>2338.80</ele>
	<time>2021-08-31T10:43:03.000Z</time>
</trkpt>
<trkpt lat="46.2980430" lon="9.9678710">
	<ele>2338.20</ele>
	<time>2021-08-31T10:43:06.000Z</time>
</trkpt>
<trkpt lat="46.2980280" lon="9.9678710">
	<ele>2337.80</ele>
	<time>2021-08-31T10:43:07.000Z</time>
</trkpt>
<trkpt lat="46.2979720" lon="9.9678370">
	<ele>2336.80</ele>
	<time>2021-08-31T10:43:13.000Z</time>
</trkpt>
<trkpt lat="46.2979480" lon="9.9678130">
	<ele>2336.40</ele>
	<time>2021-08-31T10:43:16.000Z</time>
</trkpt>
<trkpt lat="46.2978820" lon="9.9677720">
	<ele>2336.20</ele>
	<time>2021-08-31T10:43:23.000Z</time>
</trkpt>
<trkpt lat="46.2978640" lon="9.9677550">
	<ele>2336.20</ele>
	<time>2021-08-31T10:43:25.000Z</time>
</trkpt>
<trkpt lat="46.2978300" lon="9.9677460">
	<ele>2335.60</ele>
	<time>2021-08-31T10:43:30.000Z</time>
</trkpt>
<trkpt lat="46.2978240" lon="9.9677460">
	<ele>2335.40</ele>
	<time>2021-08-31T10:43:31.000Z</time>
</trkpt>
<trkpt lat="46.2977370" lon="9.9677440">
	<ele>2334.80</ele>
	<time>2021-08-31T10:43:39.000Z</time>
</trkpt>
<trkpt lat="46.2977240" lon="9.9677480">
	<ele>2334.60</ele>
	<time>2021-08-31T10:43:41.000Z</time>
</trkpt>
<trkpt lat="46.2976960" lon="9.9677510">
	<ele>2334.40</ele>
	<time>2021-08-31T10:43:44.000Z</time>
</trkpt>
<trkpt lat="46.2976890" lon="9.9677580">
	<ele>2334.40</ele>
	<time>2021-08-31T10:43:45.000Z</time>
</trkpt>
<trkpt lat="46.2976730" lon="9.9677660">
	<ele>2333.80</ele>
	<time>2021-08-31T10:43:48.000Z</time>
</trkpt>
<trkpt lat="46.2976490" lon="9.9677650">
	<ele>2333.40</ele>
	<time>2021-08-31T10:43:51.000Z</time>
</trkpt>
<trkpt lat="46.2976430" lon="9.9677570">
	<ele>2333.20</ele>
	<time>2021-08-31T10:43:52.000Z</time>
</trkpt>
<trkpt lat="46.2976130" lon="9.9677340">
	<ele>2332.00</ele>
	<time>2021-08-31T10:43:56.000Z</time>
</trkpt>
<trkpt lat="46.2975850" lon="9.9677070">
	<ele>2331.40</ele>
	<time>2021-08-31T10:44:01.000Z</time>
</trkpt>
<trkpt lat="46.2975780" lon="9.9677040">
	<ele>2331.40</ele>
	<time>2021-08-31T10:44:02.000Z</time>
</trkpt>
<trkpt lat="46.2975590" lon="9.9676920">
	<ele>2331.00</ele>
	<time>2021-08-31T10:44:04.000Z</time>
</trkpt>
<trkpt lat="46.2975240" lon="9.9676750">
	<ele>2330.00</ele>
	<time>2021-08-31T10:44:09.000Z</time>
</trkpt>
<trkpt lat="46.2975030" lon="9.9676560">
	<ele>2329.40</ele>
	<time>2021-08-31T10:44:12.000Z</time>
</trkpt>
<trkpt lat="46.2974970" lon="9.9676410">
	<ele>2329.00</ele>
	<time>2021-08-31T10:44:14.000Z</time>
</trkpt>
<trkpt lat="46.2974960" lon="9.9676380">
	<ele>2329.00</ele>
	<time>2021-08-31T10:44:15.000Z</time>
</trkpt>
<trkpt lat="46.2974870" lon="9.9676150">
	<ele>2328.80</ele>
	<time>2021-08-31T10:44:17.000Z</time>
</trkpt>
<trkpt lat="46.2974700" lon="9.9675880">
	<ele>2328.60</ele>
	<time>2021-08-31T10:44:19.000Z</time>
</trkpt>
<trkpt lat="46.2974630" lon="9.9675590">
	<ele>2328.60</ele>
	<time>2021-08-31T10:44:22.000Z</time>
</trkpt>
<trkpt lat="46.2974710" lon="9.9675390">
	<ele>2328.60</ele>
	<time>2021-08-31T10:44:24.000Z</time>
</trkpt>
<trkpt lat="46.2974770" lon="9.9675590">
	<ele>2328.60</ele>
	<time>2021-08-31T10:44:27.000Z</time>
</trkpt>
<trkpt lat="46.2974790" lon="9.9675650">
	<ele>2328.80</ele>
	<time>2021-08-31T10:44:29.000Z</time>
</trkpt>
<trkpt lat="46.2974830" lon="9.9675620">
	<ele>2328.60</ele>
	<time>2021-08-31T10:44:39.000Z</time>
</trkpt>
<trkpt lat="46.2974740" lon="9.9675480">
	<ele>2328.20</ele>
	<time>2021-08-31T10:44:47.000Z</time>
</trkpt>
<trkpt lat="46.2974540" lon="9.9675140">
	<ele>2328.00</ele>
	<time>2021-08-31T10:44:50.000Z</time>
</trkpt>
<trkpt lat="46.2974100" lon="9.9674360">
	<ele>2327.60</ele>
	<time>2021-08-31T10:44:56.000Z</time>
</trkpt>
<trkpt lat="46.2973990" lon="9.9674150">
	<ele>2327.20</ele>
	<time>2021-08-31T10:44:58.000Z</time>
</trkpt>
<trkpt lat="46.2973870" lon="9.9673870">
	<ele>2326.40</ele>
	<time>2021-08-31T10:45:01.000Z</time>
</trkpt>
<trkpt lat="46.2973670" lon="9.9673460">
	<ele>2325.40</ele>
	<time>2021-08-31T10:45:05.000Z</time>
</trkpt>
<trkpt lat="46.2973610" lon="9.9673350">
	<ele>2325.20</ele>
	<time>2021-08-31T10:45:06.000Z</time>
</trkpt>
<trkpt lat="46.2973080" lon="9.9672660">
	<ele>2324.20</ele>
	<time>2021-08-31T10:45:12.000Z</time>
</trkpt>
<trkpt lat="46.2972820" lon="9.9672310">
	<ele>2323.60</ele>
	<time>2021-08-31T10:45:15.000Z</time>
</trkpt>
<trkpt lat="46.2972630" lon="9.9671950">
	<ele>2323.20</ele>
	<time>2021-08-31T10:45:18.000Z</time>
</trkpt>
<trkpt lat="46.2972280" lon="9.9671500">
	<ele>2323.00</ele>
	<time>2021-08-31T10:45:23.000Z</time>
</trkpt>
<trkpt lat="46.2972160" lon="9.9671230">
	<ele>2323.20</ele>
	<time>2021-08-31T10:45:26.000Z</time>
</trkpt>
<trkpt lat="46.2971810" lon="9.9670610">
	<ele>2322.00</ele>
	<time>2021-08-31T10:45:32.000Z</time>
</trkpt>
<trkpt lat="46.2971550" lon="9.9670530">
	<ele>2321.80</ele>
	<time>2021-08-31T10:45:35.000Z</time>
</trkpt>
<trkpt lat="46.2971040" lon="9.9670280">
	<ele>2320.80</ele>
	<time>2021-08-31T10:45:40.000Z</time>
</trkpt>
<trkpt lat="46.2970820" lon="9.9669940">
	<ele>2320.40</ele>
	<time>2021-08-31T10:45:44.000Z</time>
</trkpt>
<trkpt lat="46.2970840" lon="9.9669400">
	<ele>2319.80</ele>
	<time>2021-08-31T10:45:47.000Z</time>
</trkpt>
<trkpt lat="46.2970600" lon="9.9668750">
	<ele>2319.00</ele>
	<time>2021-08-31T10:45:53.000Z</time>
</trkpt>
<trkpt lat="46.2970510" lon="9.9668710">
	<ele>2318.80</ele>
	<time>2021-08-31T10:45:54.000Z</time>
</trkpt>
<trkpt lat="46.2970430" lon="9.9668710">
	<ele>2318.60</ele>
	<time>2021-08-31T10:45:55.000Z</time>
</trkpt>
<trkpt lat="46.2970270" lon="9.9668490">
	<ele>2317.80</ele>
	<time>2021-08-31T10:45:58.000Z</time>
</trkpt>
<trkpt lat="46.2970260" lon="9.9668410">
	<ele>2317.60</ele>
	<time>2021-08-31T10:45:59.000Z</time>
</trkpt>
<trkpt lat="46.2970240" lon="9.9667940">
	<ele>2316.60</ele>
	<time>2021-08-31T10:46:04.000Z</time>
</trkpt>
<trkpt lat="46.2970190" lon="9.9667830">
	<ele>2316.40</ele>
	<time>2021-08-31T10:46:05.000Z</time>
</trkpt>
<trkpt lat="46.2969860" lon="9.9667540">
	<ele>2315.20</ele>
	<time>2021-08-31T10:46:11.000Z</time>
</trkpt>
<trkpt lat="46.2969830" lon="9.9667580">
	<ele>2314.80</ele>
	<time>2021-08-31T10:46:13.000Z</time>
</trkpt>
<trkpt lat="46.2969550" lon="9.9667370">
	<ele>2314.20</ele>
	<time>2021-08-31T10:46:17.000Z</time>
</trkpt>
<trkpt lat="46.2968930" lon="9.9667080">
	<ele>2313.00</ele>
	<time>2021-08-31T10:46:24.000Z</time>
</trkpt>
<trkpt lat="46.2968840" lon="9.9667060">
	<ele>2312.80</ele>
	<time>2021-08-31T10:46:25.000Z</time>
</trkpt>
<trkpt lat="46.2968690" lon="9.9667120">
	<ele>2312.60</ele>
	<time>2021-08-31T10:46:27.000Z</time>
</trkpt>
<trkpt lat="46.2968510" lon="9.9667180">
	<ele>2312.20</ele>
	<time>2021-08-31T10:46:29.000Z</time>
</trkpt>
<trkpt lat="46.2968350" lon="9.9667120">
	<ele>2311.80</ele>
	<time>2021-08-31T10:46:31.000Z</time>
</trkpt>
<trkpt lat="46.2968280" lon="9.9667140">
	<ele>2311.60</ele>
	<time>2021-08-31T10:46:32.000Z</time>
</trkpt>
<trkpt lat="46.2967820" lon="9.9667100">
	<ele>2310.60</ele>
	<time>2021-08-31T10:46:38.000Z</time>
</trkpt>
<trkpt lat="46.2967460" lon="9.9666960">
	<ele>2310.00</ele>
	<time>2021-08-31T10:46:41.000Z</time>
</trkpt>
<trkpt lat="46.2966940" lon="9.9666920">
	<ele>2309.80</ele>
	<time>2021-08-31T10:46:48.000Z</time>
</trkpt>
<trkpt lat="46.2967020" lon="9.9666910">
	<ele>2309.80</ele>
	<time>2021-08-31T10:46:50.000Z</time>
</trkpt>
<trkpt lat="46.2967060" lon="9.9666770">
	<ele>2310.20</ele>
	<time>2021-08-31T10:46:56.000Z</time>
</trkpt>
<trkpt lat="46.2967090" lon="9.9666740">
	<ele>2310.20</ele>
	<time>2021-08-31T10:47:15.000Z</time>
</trkpt>
<trkpt lat="46.2967050" lon="9.9666740">
	<ele>2309.80</ele>
	<time>2021-08-31T10:47:24.000Z</time>
</trkpt>
<trkpt lat="46.2966990" lon="9.9666730">
	<ele>2309.60</ele>
	<time>2021-08-31T10:47:29.000Z</time>
</trkpt>
<trkpt lat="46.2966820" lon="9.9666100">
	<ele>2309.00</ele>
	<time>2021-08-31T10:47:33.000Z</time>
</trkpt>
<trkpt lat="46.2966520" lon="9.9664810">
	<ele>2309.20</ele>
	<time>2021-08-31T10:47:40.000Z</time>
</trkpt>
<trkpt lat="46.2966500" lon="9.9664700">
	<ele>2309.20</ele>
	<time>2021-08-31T10:47:41.000Z</time>
</trkpt>
<trkpt lat="46.2966060" lon="9.9664080">
	<ele>2309.60</ele>
	<time>2021-08-31T10:47:49.000Z</time>
</trkpt>
<trkpt lat="46.2965870" lon="9.9663950">
	<ele>2309.80</ele>
	<time>2021-08-31T10:47:51.000Z</time>
</trkpt>
<trkpt lat="46.2965720" lon="9.9663930">
	<ele>2309.80</ele>
	<time>2021-08-31T10:47:53.000Z</time>
</trkpt>
<trkpt lat="46.2965340" lon="9.9663600">
	<ele>2309.60</ele>
	<time>2021-08-31T10:47:57.000Z</time>
</trkpt>
<trkpt lat="46.2964670" lon="9.9663230">
	<ele>2309.00</ele>
	<time>2021-08-31T10:48:04.000Z</time>
</trkpt>
<trkpt lat="46.2964590" lon="9.9663120">
	<ele>2308.80</ele>
	<time>2021-08-31T10:48:05.000Z</time>
</trkpt>
<trkpt lat="46.2964180" lon="9.9663000">
	<ele>2308.40</ele>
	<time>2021-08-31T10:48:09.000Z</time>
</trkpt>
<trkpt lat="46.2964050" lon="9.9662880">
	<ele>2308.20</ele>
	<time>2021-08-31T10:48:12.000Z</time>
</trkpt>
<trkpt lat="46.2963900" lon="9.9663240">
	<ele>2308.00</ele>
	<time>2021-08-31T10:48:19.000Z</time>
</trkpt>
<trkpt lat="46.2963840" lon="9.9663020">
	<ele>2308.20</ele>
	<time>2021-08-31T10:48:30.000Z</time>
</trkpt>
<trkpt lat="46.2962910" lon="9.9661830">
	<ele>2308.00</ele>
	<time>2021-08-31T10:48:38.000Z</time>
</trkpt>
<trkpt lat="46.2962580" lon="9.9661160">
	<ele>2307.40</ele>
	<time>2021-08-31T10:48:44.000Z</time>
</trkpt>
<trkpt lat="46.2962190" lon="9.9660990">
	<ele>2306.80</ele>
	<time>2021-08-31T10:48:48.000Z</time>
</trkpt>
<trkpt lat="46.2961980" lon="9.9660850">
	<ele>2306.40</ele>
	<time>2021-08-31T10:48:50.000Z</time>
</trkpt>
<trkpt lat="46.2961890" lon="9.9660900">
	<ele>2306.20</ele>
	<time>2021-08-31T10:48:51.000Z</time>
</trkpt>
<trkpt lat="46.2961830" lon="9.9661120">
	<ele>2306.60</ele>
	<time>2021-08-31T10:48:53.000Z</time>
</trkpt>
<trkpt lat="46.2961450" lon="9.9661770">
	<ele>2307.20</ele>
	<time>2021-08-31T10:48:59.000Z</time>
</trkpt>
<trkpt lat="46.2961390" lon="9.9661800">
	<ele>2307.40</ele>
	<time>2021-08-31T10:49:00.000Z</time>
</trkpt>
<trkpt lat="46.2961190" lon="9.9661870">
	<ele>2307.40</ele>
	<time>2021-08-31T10:49:02.000Z</time>
</trkpt>
<trkpt lat="46.2960600" lon="9.9661360">
	<ele>2306.80</ele>
	<time>2021-08-31T10:49:10.000Z</time>
</trkpt>
<trkpt lat="46.2960450" lon="9.9661180">
	<ele>2306.00</ele>
	<time>2021-08-31T10:49:13.000Z</time>
</trkpt>
<trkpt lat="46.2960260" lon="9.9661160">
	<ele>2305.00</ele>
	<time>2021-08-31T10:49:16.000Z</time>
</trkpt>
<trkpt lat="46.2960190" lon="9.9661190">
	<ele>2304.80</ele>
	<time>2021-08-31T10:49:17.000Z</time>
</trkpt>
<trkpt lat="46.2959870" lon="9.9660840">
	<ele>2303.60</ele>
	<time>2021-08-31T10:49:22.000Z</time>
</trkpt>
<trkpt lat="46.2959770" lon="9.9660760">
	<ele>2303.40</ele>
	<time>2021-08-31T10:49:23.000Z</time>
</trkpt>
<trkpt lat="46.2959240" lon="9.9660480">
	<ele>2303.20</ele>
	<time>2021-08-31T10:49:29.000Z</time>
</trkpt>
<trkpt lat="46.2959130" lon="9.9660400">
	<ele>2303.20</ele>
	<time>2021-08-31T10:49:30.000Z</time>
</trkpt>
<trkpt lat="46.2958430" lon="9.9659780">
	<ele>2303.00</ele>
	<time>2021-08-31T10:49:38.000Z</time>
</trkpt>
<trkpt lat="46.2958070" lon="9.9659810">
	<ele>2302.60</ele>
	<time>2021-08-31T10:49:43.000Z</time>
</trkpt>
<trkpt lat="46.2958020" lon="9.9659710">
	<ele>2302.60</ele>
	<time>2021-08-31T10:49:45.000Z</time>
</trkpt>
<trkpt lat="46.2957810" lon="9.9659390">
	<ele>2302.60</ele>
	<time>2021-08-31T10:49:48.000Z</time>
</trkpt>
<trkpt lat="46.2957520" lon="9.9659580">
	<ele>2302.80</ele>
	<time>2021-08-31T10:49:51.000Z</time>
</trkpt>
<trkpt lat="46.2957280" lon="9.9659810">
	<ele>2303.20</ele>
	<time>2021-08-31T10:49:56.000Z</time>
</trkpt>
<trkpt lat="46.2957180" lon="9.9659640">
	<ele>2303.20</ele>
	<time>2021-08-31T10:49:58.000Z</time>
</trkpt>
<trkpt lat="46.2956810" lon="9.9659250">
	<ele>2303.60</ele>
	<time>2021-08-31T10:50:02.000Z</time>
</trkpt>
<trkpt lat="46.2956700" lon="9.9659200">
	<ele>2303.60</ele>
	<time>2021-08-31T10:50:03.000Z</time>
</trkpt>
<trkpt lat="46.2956500" lon="9.9658990">
	<ele>2303.60</ele>
	<time>2021-08-31T10:50:05.000Z</time>
</trkpt>
<trkpt lat="46.2956420" lon="9.9658880">
	<ele>2303.60</ele>
	<time>2021-08-31T10:50:06.000Z</time>
</trkpt>
<trkpt lat="46.2956070" lon="9.9658630">
	<ele>2303.60</ele>
	<time>2021-08-31T10:50:10.000Z</time>
</trkpt>
<trkpt lat="46.2955480" lon="9.9658210">
	<ele>2303.40</ele>
	<time>2021-08-31T10:50:16.000Z</time>
</trkpt>
<trkpt lat="46.2954230" lon="9.9657560">
	<ele>2302.80</ele>
	<time>2021-08-31T10:50:27.000Z</time>
</trkpt>
<trkpt lat="46.2953900" lon="9.9657470">
	<ele>2302.80</ele>
	<time>2021-08-31T10:50:31.000Z</time>
</trkpt>
<trkpt lat="46.2953670" lon="9.9657250">
	<ele>2302.80</ele>
	<time>2021-08-31T10:50:34.000Z</time>
</trkpt>
<trkpt lat="46.2952990" lon="9.9657090">
	<ele>2303.20</ele>
	<time>2021-08-31T10:50:42.000Z</time>
</trkpt>
<trkpt lat="46.2952970" lon="9.9657070">
	<ele>2303.40</ele>
	<time>2021-08-31T10:50:43.000Z</time>
</trkpt>
<trkpt lat="46.2952960" lon="9.9657130">
	<ele>2303.80</ele>
	<time>2021-08-31T10:50:48.000Z</time>
</trkpt>
<trkpt lat="46.2952420" lon="9.9656690">
	<ele>2303.00</ele>
	<time>2021-08-31T10:51:04.000Z</time>
</trkpt>
<trkpt lat="46.2951920" lon="9.9656120">
	<ele>2303.40</ele>
	<time>2021-08-31T10:51:11.000Z</time>
</trkpt>
<trkpt lat="46.2951890" lon="9.9656060">
	<ele>2303.40</ele>
	<time>2021-08-31T10:51:12.000Z</time>
</trkpt>
<trkpt lat="46.2951490" lon="9.9655620">
	<ele>2302.40</ele>
	<time>2021-08-31T10:51:17.000Z</time>
</trkpt>
<trkpt lat="46.2951430" lon="9.9655480">
	<ele>2302.40</ele>
	<time>2021-08-31T10:51:18.000Z</time>
</trkpt>
<trkpt lat="46.2950740" lon="9.9654460">
	<ele>2301.40</ele>
	<time>2021-08-31T10:51:27.000Z</time>
</trkpt>
<trkpt lat="46.2950000" lon="9.9653730">
	<ele>2300.60</ele>
	<time>2021-08-31T10:51:35.000Z</time>
</trkpt>
<trkpt lat="46.2949880" lon="9.9653430">
	<ele>2300.40</ele>
	<time>2021-08-31T10:51:37.000Z</time>
</trkpt>
<trkpt lat="46.2949660" lon="9.9652670">
	<ele>2299.20</ele>
	<time>2021-08-31T10:51:42.000Z</time>
</trkpt>
<trkpt lat="46.2949380" lon="9.9652370">
	<ele>2298.40</ele>
	<time>2021-08-31T10:51:45.000Z</time>
</trkpt>
<trkpt lat="46.2949280" lon="9.9652330">
	<ele>2298.40</ele>
	<time>2021-08-31T10:51:46.000Z</time>
</trkpt>
<trkpt lat="46.2949210" lon="9.9652340">
	<ele>2298.20</ele>
	<time>2021-08-31T10:51:47.000Z</time>
</trkpt>
<trkpt lat="46.2948730" lon="9.9652000">
	<ele>2298.00</ele>
	<time>2021-08-31T10:51:52.000Z</time>
</trkpt>
<trkpt lat="46.2948150" lon="9.9651260">
	<ele>2298.60</ele>
	<time>2021-08-31T10:52:02.000Z</time>
</trkpt>
<trkpt lat="46.2947920" lon="9.9650870">
	<ele>2298.40</ele>
	<time>2021-08-31T10:52:05.000Z</time>
</trkpt>
<trkpt lat="46.2947710" lon="9.9650350">
	<ele>2298.00</ele>
	<time>2021-08-31T10:52:08.000Z</time>
</trkpt>
<trkpt lat="46.2947080" lon="9.9649770">
	<ele>2297.40</ele>
	<time>2021-08-31T10:52:15.000Z</time>
</trkpt>
<trkpt lat="46.2946670" lon="9.9649340">
	<ele>2297.20</ele>
	<time>2021-08-31T10:52:20.000Z</time>
</trkpt>
<trkpt lat="46.2946200" lon="9.9648720">
	<ele>2296.20</ele>
	<time>2021-08-31T10:52:27.000Z</time>
</trkpt>
<trkpt lat="46.2946030" lon="9.9648460">
	<ele>2296.20</ele>
	<time>2021-08-31T10:52:29.000Z</time>
</trkpt>
<trkpt lat="46.2945630" lon="9.9647860">
	<ele>2296.20</ele>
	<time>2021-08-31T10:52:35.000Z</time>
</trkpt>
<trkpt lat="46.2945290" lon="9.9647130">
	<ele>2296.80</ele>
	<time>2021-08-31T10:52:41.000Z</time>
</trkpt>
<trkpt lat="46.2944900" lon="9.9646580">
	<ele>2296.60</ele>
	<time>2021-08-31T10:52:45.000Z</time>
</trkpt>
<trkpt lat="46.2943910" lon="9.9645280">
	<ele>2295.40</ele>
	<time>2021-08-31T10:52:57.000Z</time>
</trkpt>
<trkpt lat="46.2942950" lon="9.9644190">
	<ele>2295.80</ele>
	<time>2021-08-31T10:53:07.000Z</time>
</trkpt>
<trkpt lat="46.2942790" lon="9.9643980">
	<ele>2295.80</ele>
	<time>2021-08-31T10:53:09.000Z</time>
</trkpt>
<trkpt lat="46.2942060" lon="9.9643260">
	<ele>2296.80</ele>
	<time>2021-08-31T10:53:19.000Z</time>
</trkpt>
<trkpt lat="46.2941860" lon="9.9642940">
	<ele>2297.00</ele>
	<time>2021-08-31T10:53:22.000Z</time>
</trkpt>
<trkpt lat="46.2941820" lon="9.9642730">
	<ele>2297.00</ele>
	<time>2021-08-31T10:53:24.000Z</time>
</trkpt>
<trkpt lat="46.2941770" lon="9.9642430">
	<ele>2297.20</ele>
	<time>2021-08-31T10:53:26.000Z</time>
</trkpt>
<trkpt lat="46.2941740" lon="9.9642090">
	<ele>2297.20</ele>
	<time>2021-08-31T10:53:28.000Z</time>
</trkpt>
<trkpt lat="46.2941620" lon="9.9641810">
	<ele>2297.40</ele>
	<time>2021-08-31T10:53:30.000Z</time>
</trkpt>
<trkpt lat="46.2941250" lon="9.9641480">
	<ele>2297.40</ele>
	<time>2021-08-31T10:53:33.000Z</time>
</trkpt>
<trkpt lat="46.2941170" lon="9.9641480">
	<ele>2297.40</ele>
	<time>2021-08-31T10:53:34.000Z</time>
</trkpt>
<trkpt lat="46.2940960" lon="9.9641520">
	<ele>2297.60</ele>
	<time>2021-08-31T10:53:37.000Z</time>
</trkpt>
<trkpt lat="46.2940920" lon="9.9641440">
	<ele>2297.80</ele>
	<time>2021-08-31T10:53:38.000Z</time>
</trkpt>
<trkpt lat="46.2940700" lon="9.9641040">
	<ele>2298.40</ele>
	<time>2021-08-31T10:53:43.000Z</time>
</trkpt>
<trkpt lat="46.2940470" lon="9.9640840">
	<ele>2298.60</ele>
	<time>2021-08-31T10:53:46.000Z</time>
</trkpt>
<trkpt lat="46.2940070" lon="9.9640680">
	<ele>2299.40</ele>
	<time>2021-08-31T10:53:52.000Z</time>
</trkpt>
<trkpt lat="46.2939760" lon="9.9640430">
	<ele>2300.40</ele>
	<time>2021-08-31T10:53:57.000Z</time>
</trkpt>
<trkpt lat="46.2939710" lon="9.9640360">
	<ele>2300.40</ele>
	<time>2021-08-31T10:53:58.000Z</time>
</trkpt>
<trkpt lat="46.2939640" lon="9.9640300">
	<ele>2300.60</ele>
	<time>2021-08-31T10:53:59.000Z</time>
</trkpt>
<trkpt lat="46.2939260" lon="9.9640000">
	<ele>2301.60</ele>
	<time>2021-08-31T10:54:06.000Z</time>
</trkpt>
<trkpt lat="46.2939120" lon="9.9639830">
	<ele>2302.20</ele>
	<time>2021-08-31T10:54:09.000Z</time>
</trkpt>
<trkpt lat="46.2939040" lon="9.9639570">
	<ele>2302.80</ele>
	<time>2021-08-31T10:54:12.000Z</time>
</trkpt>
<trkpt lat="46.2938980" lon="9.9638950">
	<ele>2303.40</ele>
	<time>2021-08-31T10:54:17.000Z</time>
</trkpt>
<trkpt lat="46.2938940" lon="9.9638720">
	<ele>2303.80</ele>
	<time>2021-08-31T10:54:19.000Z</time>
</trkpt>
<trkpt lat="46.2938790" lon="9.9638220">
	<ele>2304.20</ele>
	<time>2021-08-31T10:54:23.000Z</time>
</trkpt>
<trkpt lat="46.2938700" lon="9.9637820">
	<ele>2304.80</ele>
	<time>2021-08-31T10:54:27.000Z</time>
</trkpt>
<trkpt lat="46.2938690" lon="9.9637740">
	<ele>2305.00</ele>
	<time>2021-08-31T10:54:28.000Z</time>
</trkpt>
<trkpt lat="46.2938730" lon="9.9636860">
	<ele>2305.80</ele>
	<time>2021-08-31T10:54:35.000Z</time>
</trkpt>
<trkpt lat="46.2938290" lon="9.9636350">
	<ele>2306.00</ele>
	<time>2021-08-31T10:54:42.000Z</time>
</trkpt>
<trkpt lat="46.2938150" lon="9.9636280">
	<ele>2306.00</ele>
	<time>2021-08-31T10:54:44.000Z</time>
</trkpt>
<trkpt lat="46.2937750" lon="9.9635760">
	<ele>2306.60</ele>
	<time>2021-08-31T10:54:51.000Z</time>
</trkpt>
<trkpt lat="46.2937470" lon="9.9635300">
	<ele>2307.20</ele>
	<time>2021-08-31T10:54:55.000Z</time>
</trkpt>
<trkpt lat="46.2937400" lon="9.9635080">
	<ele>2307.60</ele>
	<time>2021-08-31T10:54:57.000Z</time>
</trkpt>
<trkpt lat="46.2937200" lon="9.9634760">
	<ele>2308.20</ele>
	<time>2021-08-31T10:55:03.000Z</time>
</trkpt>
<trkpt lat="46.2937150" lon="9.9634650">
	<ele>2308.40</ele>
	<time>2021-08-31T10:55:05.000Z</time>
</trkpt>
<trkpt lat="46.2937210" lon="9.9634300">
	<ele>2309.20</ele>
	<time>2021-08-31T10:55:09.000Z</time>
</trkpt>
<trkpt lat="46.2937240" lon="9.9634210">
	<ele>2309.60</ele>
	<time>2021-08-31T10:55:12.000Z</time>
</trkpt>
<trkpt lat="46.2936990" lon="9.9633590">
	<ele>2309.80</ele>
	<time>2021-08-31T10:55:18.000Z</time>
</trkpt>
<trkpt lat="46.2936420" lon="9.9633180">
	<ele>2309.40</ele>
	<time>2021-08-31T10:55:25.000Z</time>
</trkpt>
<trkpt lat="46.2935940" lon="9.9632690">
	<ele>2309.80</ele>
	<time>2021-08-31T10:55:31.000Z</time>
</trkpt>
<trkpt lat="46.2935830" lon="9.9632390">
	<ele>2309.80</ele>
	<time>2021-08-31T10:55:33.000Z</time>
</trkpt>
<trkpt lat="46.2935390" lon="9.9631040">
	<ele>2310.00</ele>
	<time>2021-08-31T10:55:42.000Z</time>
</trkpt>
<trkpt lat="46.2935120" lon="9.9630430">
	<ele>2310.40</ele>
	<time>2021-08-31T10:55:47.000Z</time>
</trkpt>
<trkpt lat="46.2934870" lon="9.9629950">
	<ele>2310.80</ele>
	<time>2021-08-31T10:55:51.000Z</time>
</trkpt>
<trkpt lat="46.2934750" lon="9.9629780">
	<ele>2311.00</ele>
	<time>2021-08-31T10:55:53.000Z</time>
</trkpt>
<trkpt lat="46.2934480" lon="9.9629000">
	<ele>2311.40</ele>
	<time>2021-08-31T10:55:59.000Z</time>
</trkpt>
<trkpt lat="46.2934370" lon="9.9628580">
	<ele>2311.60</ele>
	<time>2021-08-31T10:56:02.000Z</time>
</trkpt>
<trkpt lat="46.2934100" lon="9.9627990">
	<ele>2312.40</ele>
	<time>2021-08-31T10:56:06.000Z</time>
</trkpt>
<trkpt lat="46.2933920" lon="9.9627600">
	<ele>2312.40</ele>
	<time>2021-08-31T10:56:09.000Z</time>
</trkpt>
<trkpt lat="46.2933640" lon="9.9627130">
	<ele>2312.40</ele>
	<time>2021-08-31T10:56:13.000Z</time>
</trkpt>
<trkpt lat="46.2933480" lon="9.9626710">
	<ele>2312.80</ele>
	<time>2021-08-31T10:56:17.000Z</time>
</trkpt>
<trkpt lat="46.2933340" lon="9.9626320">
	<ele>2313.20</ele>
	<time>2021-08-31T10:56:20.000Z</time>
</trkpt>
<trkpt lat="46.2933290" lon="9.9626190">
	<ele>2313.20</ele>
	<time>2021-08-31T10:56:21.000Z</time>
</trkpt>
<trkpt lat="46.2933100" lon="9.9625630">
	<ele>2313.40</ele>
	<time>2021-08-31T10:56:25.000Z</time>
</trkpt>
<trkpt lat="46.2932960" lon="9.9625430">
	<ele>2313.40</ele>
	<time>2021-08-31T10:56:27.000Z</time>
</trkpt>
<trkpt lat="46.2932910" lon="9.9625320">
	<ele>2313.40</ele>
	<time>2021-08-31T10:56:28.000Z</time>
</trkpt>
<trkpt lat="46.2932650" lon="9.9624600">
	<ele>2313.80</ele>
	<time>2021-08-31T10:56:33.000Z</time>
</trkpt>
<trkpt lat="46.2932610" lon="9.9624480">
	<ele>2313.80</ele>
	<time>2021-08-31T10:56:34.000Z</time>
</trkpt>
<trkpt lat="46.2932410" lon="9.9623670">
	<ele>2314.60</ele>
	<time>2021-08-31T10:56:40.000Z</time>
</trkpt>
<trkpt lat="46.2932030" lon="9.9622970">
	<ele>2314.80</ele>
	<time>2021-08-31T10:56:49.000Z</time>
</trkpt>
<trkpt lat="46.2931990" lon="9.9622930">
	<ele>2315.00</ele>
	<time>2021-08-31T10:56:55.000Z</time>
</trkpt>
<trkpt lat="46.2932010" lon="9.9622950">
	<ele>2314.80</ele>
	<time>2021-08-31T10:56:59.000Z</time>
</trkpt>
<trkpt lat="46.2931990" lon="9.9622940">
	<ele>2314.60</ele>
	<time>2021-08-31T10:57:03.000Z</time>
</trkpt>
<trkpt lat="46.2931990" lon="9.9622940">
	<ele>2314.40</ele>
	<time>2021-08-31T10:57:06.000Z</time>
</trkpt>
<trkpt lat="46.2931990" lon="9.9622940">
	<ele>2314.60</ele>
	<time>2021-08-31T10:57:08.000Z</time>
</trkpt>
<trkpt lat="46.2931990" lon="9.9622940">
	<ele>2314.60</ele>
	<time>2021-08-31T10:57:10.000Z</time>
</trkpt>
<trkpt lat="46.2931990" lon="9.9622940">
	<ele>2314.60</ele>
	<time>2021-08-31T10:57:12.000Z</time>
</trkpt>
<trkpt lat="46.2931890" lon="9.9622740">
	<ele>2314.80</ele>
	<time>2021-08-31T10:57:15.000Z</time>
</trkpt>
<trkpt lat="46.2931660" lon="9.9622250">
	<ele>2315.00</ele>
	<time>2021-08-31T10:57:18.000Z</time>
</trkpt>
<trkpt lat="46.2931570" lon="9.9622040">
	<ele>2315.00</ele>
	<time>2021-08-31T10:57:19.000Z</time>
</trkpt>
<trkpt lat="46.2931220" lon="9.9621040">
	<ele>2314.80</ele>
	<time>2021-08-31T10:57:24.000Z</time>
</trkpt>
<trkpt lat="46.2931130" lon="9.9620700">
	<ele>2314.80</ele>
	<time>2021-08-31T10:57:26.000Z</time>
</trkpt>
<trkpt lat="46.2930930" lon="9.9619750">
	<ele>2314.80</ele>
	<time>2021-08-31T10:57:32.000Z</time>
</trkpt>
<trkpt lat="46.2930230" lon="9.9618270">
	<ele>2315.00</ele>
	<time>2021-08-31T10:57:43.000Z</time>
</trkpt>
<trkpt lat="46.2929470" lon="9.9616830">
	<ele>2315.40</ele>
	<time>2021-08-31T10:57:54.000Z</time>
</trkpt>
<trkpt lat="46.2929230" lon="9.9616480">
	<ele>2315.60</ele>
	<time>2021-08-31T10:57:57.000Z</time>
</trkpt>
<trkpt lat="46.2928760" lon="9.9615420">
	<ele>2316.00</ele>
	<time>2021-08-31T10:58:05.000Z</time>
</trkpt>
<trkpt lat="46.2928020" lon="9.9613990">
	<ele>2315.40</ele>
	<time>2021-08-31T10:58:16.000Z</time>
</trkpt>
<trkpt lat="46.2927380" lon="9.9613030">
	<ele>2315.40</ele>
	<time>2021-08-31T10:58:24.000Z</time>
</trkpt>
<trkpt lat="46.2926720" lon="9.9612070">
	<ele>2314.40</ele>
	<time>2021-08-31T10:58:34.000Z</time>
</trkpt>
<trkpt lat="46.2926590" lon="9.9611840">
	<ele>2314.20</ele>
	<time>2021-08-31T10:58:36.000Z</time>
</trkpt>
<trkpt lat="46.2926350" lon="9.9611370">
	<ele>2313.40</ele>
	<time>2021-08-31T10:58:40.000Z</time>
</trkpt>
<trkpt lat="46.2926120" lon="9.9610870">
	<ele>2312.40</ele>
	<time>2021-08-31T10:58:44.000Z</time>
</trkpt>
<trkpt lat="46.2925610" lon="9.9610300">
	<ele>2311.40</ele>
	<time>2021-08-31T10:58:49.000Z</time>
</trkpt>
<trkpt lat="46.2925280" lon="9.9609880">
	<ele>2311.20</ele>
	<time>2021-08-31T10:58:52.000Z</time>
</trkpt>
<trkpt lat="46.2924850" lon="9.9608990">
	<ele>2310.80</ele>
	<time>2021-08-31T10:58:58.000Z</time>
</trkpt>
<trkpt lat="46.2924300" lon="9.9607750">
	<ele>2310.80</ele>
	<time>2021-08-31T10:59:06.000Z</time>
</trkpt>
<trkpt lat="46.2923770" lon="9.9606520">
	<ele>2311.00</ele>
	<time>2021-08-31T10:59:14.000Z</time>
</trkpt>
<trkpt lat="46.2923680" lon="9.9606380">
	<ele>2311.00</ele>
	<time>2021-08-31T10:59:15.000Z</time>
</trkpt>
<trkpt lat="46.2922970" lon="9.9605110">
	<ele>2310.00</ele>
	<time>2021-08-31T10:59:24.000Z</time>
</trkpt>
<trkpt lat="46.2922890" lon="9.9604970">
	<ele>2310.00</ele>
	<time>2021-08-31T10:59:25.000Z</time>
</trkpt>
<trkpt lat="46.2922280" lon="9.9603510">
	<ele>2309.00</ele>
	<time>2021-08-31T10:59:36.000Z</time>
</trkpt>
<trkpt lat="46.2922230" lon="9.9603340">
	<ele>2309.00</ele>
	<time>2021-08-31T10:59:37.000Z</time>
</trkpt>
<trkpt lat="46.2922030" lon="9.9602260">
	<ele>2309.00</ele>
	<time>2021-08-31T10:59:45.000Z</time>
</trkpt>
<trkpt lat="46.2922000" lon="9.9602190">
	<ele>2309.00</ele>
	<time>2021-08-31T10:59:46.000Z</time>
</trkpt>
<trkpt lat="46.2921650" lon="9.9601470">
	<ele>2309.20</ele>
	<time>2021-08-31T10:59:52.000Z</time>
</trkpt>
<trkpt lat="46.2921430" lon="9.9600560">
	<ele>2309.80</ele>
	<time>2021-08-31T10:59:59.000Z</time>
</trkpt>
<trkpt lat="46.2921260" lon="9.9600200">
	<ele>2310.00</ele>
	<time>2021-08-31T11:00:02.000Z</time>
</trkpt>
<trkpt lat="46.2920990" lon="9.9599580">
	<ele>2310.40</ele>
	<time>2021-08-31T11:00:07.000Z</time>
</trkpt>
<trkpt lat="46.2920780" lon="9.9598330">
	<ele>2311.00</ele>
	<time>2021-08-31T11:00:16.000Z</time>
</trkpt>
<trkpt lat="46.2920630" lon="9.9598080">
	<ele>2311.00</ele>
	<time>2021-08-31T11:00:18.000Z</time>
</trkpt>
<trkpt lat="46.2920120" lon="9.9597570">
	<ele>2311.60</ele>
	<time>2021-08-31T11:00:24.000Z</time>
</trkpt>
<trkpt lat="46.2920000" lon="9.9597460">
	<ele>2312.00</ele>
	<time>2021-08-31T11:00:26.000Z</time>
</trkpt>
<trkpt lat="46.2919770" lon="9.9597230">
	<ele>2312.20</ele>
	<time>2021-08-31T11:00:30.000Z</time>
</trkpt>
<trkpt lat="46.2919570" lon="9.9596900">
	<ele>2312.80</ele>
	<time>2021-08-31T11:00:35.000Z</time>
</trkpt>
<trkpt lat="46.2919500" lon="9.9596740">
	<ele>2313.20</ele>
	<time>2021-08-31T11:00:37.000Z</time>
</trkpt>
<trkpt lat="46.2919140" lon="9.9596490">
	<ele>2314.40</ele>
	<time>2021-08-31T11:00:43.000Z</time>
</trkpt>
<trkpt lat="46.2918780" lon="9.9596270">
	<ele>2315.40</ele>
	<time>2021-08-31T11:00:51.000Z</time>
</trkpt>
<trkpt lat="46.2918710" lon="9.9596120">
	<ele>2315.80</ele>
	<time>2021-08-31T11:00:53.000Z</time>
</trkpt>
<trkpt lat="46.2918600" lon="9.9595930">
	<ele>2316.40</ele>
	<time>2021-08-31T11:00:57.000Z</time>
</trkpt>
<trkpt lat="46.2918260" lon="9.9595860">
	<ele>2317.40</ele>
	<time>2021-08-31T11:01:03.000Z</time>
</trkpt>
<trkpt lat="46.2917930" lon="9.9595820">
	<ele>2318.60</ele>
	<time>2021-08-31T11:01:10.000Z</time>
</trkpt>
<trkpt lat="46.2917820" lon="9.9595840">
	<ele>2318.80</ele>
	<time>2021-08-31T11:01:12.000Z</time>
</trkpt>
<trkpt lat="46.2917510" lon="9.9595570">
	<ele>2319.60</ele>
	<time>2021-08-31T11:01:19.000Z</time>
</trkpt>
<trkpt lat="46.2917490" lon="9.9595400">
	<ele>2320.20</ele>
	<time>2021-08-31T11:01:21.000Z</time>
</trkpt>
<trkpt lat="46.2917450" lon="9.9595250">
	<ele>2320.60</ele>
	<time>2021-08-31T11:01:23.000Z</time>
</trkpt>
<trkpt lat="46.2917400" lon="9.9595210">
	<ele>2320.80</ele>
	<time>2021-08-31T11:01:24.000Z</time>
</trkpt>
<trkpt lat="46.2916980" lon="9.9594900">
	<ele>2322.00</ele>
	<time>2021-08-31T11:01:31.000Z</time>
</trkpt>
<trkpt lat="46.2916630" lon="9.9594730">
	<ele>2323.00</ele>
	<time>2021-08-31T11:01:39.000Z</time>
</trkpt>
<trkpt lat="46.2916570" lon="9.9594650">
	<ele>2323.00</ele>
	<time>2021-08-31T11:01:40.000Z</time>
</trkpt>
<trkpt lat="46.2916480" lon="9.9594520">
	<ele>2323.40</ele>
	<time>2021-08-31T11:01:46.000Z</time>
</trkpt>
<trkpt lat="46.2916510" lon="9.9594600">
	<ele>2323.60</ele>
	<time>2021-08-31T11:02:00.000Z</time>
</trkpt>
<trkpt lat="46.2916220" lon="9.9593790">
	<ele>2323.80</ele>
	<time>2021-08-31T11:02:10.000Z</time>
</trkpt>
<trkpt lat="46.2915980" lon="9.9593330">
	<ele>2324.20</ele>
	<time>2021-08-31T11:02:13.000Z</time>
</trkpt>
<trkpt lat="46.2915410" lon="9.9592900">
	<ele>2325.00</ele>
	<time>2021-08-31T11:02:19.000Z</time>
</trkpt>
<trkpt lat="46.2915270" lon="9.9592810">
	<ele>2325.20</ele>
	<time>2021-08-31T11:02:21.000Z</time>
</trkpt>
<trkpt lat="46.2914920" lon="9.9592340">
	<ele>2325.80</ele>
	<time>2021-08-31T11:02:28.000Z</time>
</trkpt>
<trkpt lat="46.2914570" lon="9.9591820">
	<ele>2324.60</ele>
	<time>2021-08-31T11:02:36.000Z</time>
</trkpt>
<trkpt lat="46.2914380" lon="9.9591560">
	<ele>2324.00</ele>
	<time>2021-08-31T11:02:39.000Z</time>
</trkpt>
<trkpt lat="46.2914320" lon="9.9591500">
	<ele>2323.80</ele>
	<time>2021-08-31T11:02:40.000Z</time>
</trkpt>
<trkpt lat="46.2913910" lon="9.9591240">
	<ele>2323.00</ele>
	<time>2021-08-31T11:02:45.000Z</time>
</trkpt>
<trkpt lat="46.2913770" lon="9.9591200">
	<ele>2322.60</ele>
	<time>2021-08-31T11:02:47.000Z</time>
</trkpt>
<trkpt lat="46.2913360" lon="9.9590980">
	<ele>2321.80</ele>
	<time>2021-08-31T11:02:52.000Z</time>
</trkpt>
<trkpt lat="46.2912940" lon="9.9590800">
	<ele>2321.20</ele>
	<time>2021-08-31T11:02:56.000Z</time>
</trkpt>
<trkpt lat="46.2912690" lon="9.9590560">
	<ele>2320.60</ele>
	<time>2021-08-31T11:02:59.000Z</time>
</trkpt>
<trkpt lat="46.2912420" lon="9.9590400">
	<ele>2320.00</ele>
	<time>2021-08-31T11:03:03.000Z</time>
</trkpt>
<trkpt lat="46.2912290" lon="9.9590250">
	<ele>2319.60</ele>
	<time>2021-08-31T11:03:05.000Z</time>
</trkpt>
<trkpt lat="46.2912130" lon="9.9590090">
	<ele>2319.00</ele>
	<time>2021-08-31T11:03:09.000Z</time>
</trkpt>
<trkpt lat="46.2912250" lon="9.9590240">
	<ele>2318.80</ele>
	<time>2021-08-31T11:03:12.000Z</time>
</trkpt>
<trkpt lat="46.2912250" lon="9.9590220">
	<ele>2318.80</ele>
	<time>2021-08-31T11:03:22.000Z</time>
</trkpt>
<trkpt lat="46.2912250" lon="9.9590220">
	<ele>2318.80</ele>
	<time>2021-08-31T11:03:26.000Z</time>
</trkpt>
<trkpt lat="46.2912250" lon="9.9590180">
	<ele>2318.80</ele>
	<time>2021-08-31T11:03:28.000Z</time>
</trkpt>
<trkpt lat="46.2912210" lon="9.9590130">
	<ele>2319.00</ele>
	<time>2021-08-31T11:03:30.000Z</time>
</trkpt>
<trkpt lat="46.2912140" lon="9.9590030">
	<ele>2318.40</ele>
	<time>2021-08-31T11:03:35.000Z</time>
</trkpt>
<trkpt lat="46.2912070" lon="9.9589910">
	<ele>2317.40</ele>
	<time>2021-08-31T11:03:41.000Z</time>
</trkpt>
<trkpt lat="46.2911920" lon="9.9589900">
	<ele>2316.80</ele>
	<time>2021-08-31T11:03:44.000Z</time>
</trkpt>
<trkpt lat="46.2911640" lon="9.9589910">
	<ele>2316.40</ele>
	<time>2021-08-31T11:03:46.000Z</time>
</trkpt>
<trkpt lat="46.2911000" lon="9.9589870">
	<ele>2315.40</ele>
	<time>2021-08-31T11:03:51.000Z</time>
</trkpt>
<trkpt lat="46.2910860" lon="9.9589860">
	<ele>2315.20</ele>
	<time>2021-08-31T11:03:52.000Z</time>
</trkpt>
<trkpt lat="46.2910580" lon="9.9589870">
	<ele>2314.60</ele>
	<time>2021-08-31T11:03:56.000Z</time>
</trkpt>
<trkpt lat="46.2910410" lon="9.9589840">
	<ele>2314.20</ele>
	<time>2021-08-31T11:03:59.000Z</time>
</trkpt>
<trkpt lat="46.2910290" lon="9.9589770">
	<ele>2314.00</ele>
	<time>2021-08-31T11:04:01.000Z</time>
</trkpt>
<trkpt lat="46.2910000" lon="9.9589720">
	<ele>2313.20</ele>
	<time>2021-08-31T11:04:07.000Z</time>
</trkpt>
<trkpt lat="46.2909750" lon="9.9589530">
	<ele>2312.40</ele>
	<time>2021-08-31T11:04:12.000Z</time>
</trkpt>
<trkpt lat="46.2909700" lon="9.9589500">
	<ele>2312.20</ele>
	<time>2021-08-31T11:04:13.000Z</time>
</trkpt>
<trkpt lat="46.2909300" lon="9.9589640">
	<ele>2311.20</ele>
	<time>2021-08-31T11:04:19.000Z</time>
</trkpt>
<trkpt lat="46.2909230" lon="9.9589680">
	<ele>2311.00</ele>
	<time>2021-08-31T11:04:20.000Z</time>
</trkpt>
<trkpt lat="46.2909120" lon="9.9589380">
	<ele>2310.20</ele>
	<time>2021-08-31T11:04:26.000Z</time>
</trkpt>
<trkpt lat="46.2909130" lon="9.9589260">
	<ele>2310.00</ele>
	<time>2021-08-31T11:04:28.000Z</time>
</trkpt>
<trkpt lat="46.2909000" lon="9.9589170">
	<ele>2309.60</ele>
	<time>2021-08-31T11:04:33.000Z</time>
</trkpt>
<trkpt lat="46.2908900" lon="9.9589120">
	<ele>2308.80</ele>
	<time>2021-08-31T11:04:36.000Z</time>
</trkpt>
<trkpt lat="46.2908540" lon="9.9588950">
	<ele>2308.00</ele>
	<time>2021-08-31T11:04:41.000Z</time>
</trkpt>
<trkpt lat="46.2908370" lon="9.9589070">
	<ele>2307.60</ele>
	<time>2021-08-31T11:04:45.000Z</time>
</trkpt>
<trkpt lat="46.2908390" lon="9.9589050">
	<ele>2307.60</ele>
	<time>2021-08-31T11:04:46.000Z</time>
</trkpt>
<trkpt lat="46.2908400" lon="9.9589020">
	<ele>2307.60</ele>
	<time>2021-08-31T11:04:54.000Z</time>
</trkpt>
<trkpt lat="46.2908380" lon="9.9589010">
	<ele>2307.60</ele>
	<time>2021-08-31T11:05:11.000Z</time>
</trkpt>
<trkpt lat="46.2908330" lon="9.9589010">
	<ele>2307.40</ele>
	<time>2021-08-31T11:05:19.000Z</time>
</trkpt>
<trkpt lat="46.2908320" lon="9.9589010">
	<ele>2307.40</ele>
	<time>2021-08-31T11:05:26.000Z</time>
</trkpt>
<trkpt lat="46.2908320" lon="9.9588850">
	<ele>2307.00</ele>
	<time>2021-08-31T11:06:22.000Z</time>
</trkpt>
<trkpt lat="46.2908270" lon="9.9588860">
	<ele>2307.00</ele>
	<time>2021-08-31T11:06:33.000Z</time>
</trkpt>
<trkpt lat="46.2908350" lon="9.9588750">
	<ele>2306.80</ele>
	<time>2021-08-31T11:07:07.000Z</time>
</trkpt>
<trkpt lat="46.2908230" lon="9.9588780">
	<ele>2307.40</ele>
	<time>2021-08-31T11:07:23.000Z</time>
</trkpt>
<trkpt lat="46.2908200" lon="9.9588770">
	<ele>2307.40</ele>
	<time>2021-08-31T11:07:37.000Z</time>
</trkpt>
<trkpt lat="46.2908250" lon="9.9588780">
	<ele>2307.40</ele>
	<time>2021-08-31T11:07:57.000Z</time>
</trkpt>
<trkpt lat="46.2908280" lon="9.9588840">
	<ele>2307.40</ele>
	<time>2021-08-31T11:08:10.000Z</time>
</trkpt>
<trkpt lat="46.2908280" lon="9.9588850">
	<ele>2307.40</ele>
	<time>2021-08-31T11:08:46.000Z</time>
</trkpt>
<trkpt lat="46.2908280" lon="9.9588850">
	<ele>2307.40</ele>
	<time>2021-08-31T11:08:53.000Z</time>
</trkpt>
<trkpt lat="46.2908280" lon="9.9588860">
	<ele>2307.40</ele>
	<time>2021-08-31T11:09:16.000Z</time>
</trkpt>
<trkpt lat="46.2908280" lon="9.9588860">
	<ele>2307.40</ele>
	<time>2021-08-31T11:09:24.000Z</time>
</trkpt>
<trkpt lat="46.2908290" lon="9.9588860">
	<ele>2307.40</ele>
	<time>2021-08-31T11:10:02.000Z</time>
</trkpt>
<trkpt lat="46.2908290" lon="9.9588860">
	<ele>2307.40</ele>
	<time>2021-08-31T11:10:11.000Z</time>
</trkpt>
<trkpt lat="46.2908290" lon="9.9588870">
	<ele>2307.40</ele>
	<time>2021-08-31T11:10:18.000Z</time>
</trkpt>
<trkpt lat="46.2908290" lon="9.9588870">
	<ele>2307.40</ele>
	<time>2021-08-31T11:10:47.000Z</time>
</trkpt>
<trkpt lat="46.2908300" lon="9.9588870">
	<ele>2307.40</ele>
	<time>2021-08-31T11:11:54.000Z</time>
</trkpt>
<trkpt lat="46.2908310" lon="9.9588870">
	<ele>2307.40</ele>
	<time>2021-08-31T11:12:06.000Z</time>
</trkpt>
<trkpt lat="46.2908310" lon="9.9588880">
	<ele>2307.40</ele>
	<time>2021-08-31T11:12:20.000Z</time>
</trkpt>
<trkpt lat="46.2908310" lon="9.9588880">
	<ele>2307.40</ele>
	<time>2021-08-31T11:12:23.000Z</time>
</trkpt>
<trkpt lat="46.2908310" lon="9.9588880">
	<ele>2307.40</ele>
	<time>2021-08-31T11:12:25.000Z</time>
</trkpt>
<trkpt lat="46.2908300" lon="9.9588880">
	<ele>2307.40</ele>
	<time>2021-08-31T11:12:49.000Z</time>
</trkpt>
<trkpt lat="46.2908300" lon="9.9588880">
	<ele>2307.40</ele>
	<time>2021-08-31T11:12:57.000Z</time>
</trkpt>
<trkpt lat="46.2908300" lon="9.9588880">
	<ele>2307.40</ele>
	<time>2021-08-31T11:13:21.000Z</time>
</trkpt>
<trkpt lat="46.2908300" lon="9.9588880">
	<ele>2307.40</ele>
	<time>2021-08-31T11:13:30.000Z</time>
</trkpt>
<trkpt lat="46.2908300" lon="9.9588880">
	<ele>2307.40</ele>
	<time>2021-08-31T11:13:33.000Z</time>
</trkpt>
<trkpt lat="46.2908300" lon="9.9588880">
	<ele>2307.40</ele>
	<time>2021-08-31T11:13:52.000Z</time>
</trkpt>
<trkpt lat="46.2908300" lon="9.9588880">
	<ele>2307.40</ele>
	<time>2021-08-31T11:13:56.000Z</time>
</trkpt>
<trkpt lat="46.2908300" lon="9.9588890">
	<ele>2307.40</ele>
	<time>2021-08-31T11:14:24.000Z</time>
</trkpt>
<trkpt lat="46.2908310" lon="9.9588890">
	<ele>2307.40</ele>
	<time>2021-08-31T11:14:40.000Z</time>
</trkpt>
<trkpt lat="46.2908310" lon="9.9588890">
	<ele>2307.40</ele>
	<time>2021-08-31T11:14:59.000Z</time>
</trkpt>
<trkpt lat="46.2908310" lon="9.9588900">
	<ele>2307.40</ele>
	<time>2021-08-31T11:15:05.000Z</time>
</trkpt>
<trkpt lat="46.2908310" lon="9.9588900">
	<ele>2307.40</ele>
	<time>2021-08-31T11:15:14.000Z</time>
</trkpt>
<trkpt lat="46.2908310" lon="9.9588910">
	<ele>2307.40</ele>
	<time>2021-08-31T11:15:38.000Z</time>
</trkpt>
<trkpt lat="46.2908310" lon="9.9588940">
	<ele>2307.40</ele>
	<time>2021-08-31T11:16:17.000Z</time>
</trkpt>
<trkpt lat="46.2908310" lon="9.9588940">
	<ele>2307.40</ele>
	<time>2021-08-31T11:16:22.000Z</time>
</trkpt>
<trkpt lat="46.2908310" lon="9.9588950">
	<ele>2307.40</ele>
	<time>2021-08-31T11:16:49.000Z</time>
</trkpt>
<trkpt lat="46.2908310" lon="9.9588950">
	<ele>2307.40</ele>
	<time>2021-08-31T11:16:53.000Z</time>
</trkpt>
<trkpt lat="46.2908310" lon="9.9588950">
	<ele>2307.40</ele>
	<time>2021-08-31T11:16:55.000Z</time>
</trkpt>
<trkpt lat="46.2908310" lon="9.9588960">
	<ele>2307.40</ele>
	<time>2021-08-31T11:17:06.000Z</time>
</trkpt>
<trkpt lat="46.2908310" lon="9.9588960">
	<ele>2307.40</ele>
	<time>2021-08-31T11:17:08.000Z</time>
</trkpt>
<trkpt lat="46.2908300" lon="9.9588970">
	<ele>2307.40</ele>
	<time>2021-08-31T11:17:48.000Z</time>
</trkpt>
<trkpt lat="46.2908300" lon="9.9588990">
	<ele>2307.40</ele>
	<time>2021-08-31T11:18:24.000Z</time>
</trkpt>
<trkpt lat="46.2908300" lon="9.9588990">
	<ele>2307.40</ele>
	<time>2021-08-31T11:18:39.000Z</time>
</trkpt>
<trkpt lat="46.2908300" lon="9.9588990">
	<ele>2307.40</ele>
	<time>2021-08-31T11:19:11.000Z</time>
</trkpt>
<trkpt lat="46.2908310" lon="9.9588990">
	<ele>2307.40</ele>
	<time>2021-08-31T11:19:43.000Z</time>
</trkpt>
<trkpt lat="46.2908310" lon="9.9588990">
	<ele>2307.40</ele>
	<time>2021-08-31T11:19:46.000Z</time>
</trkpt>
<trkpt lat="46.2908310" lon="9.9588990">
	<ele>2307.40</ele>
	<time>2021-08-31T11:19:48.000Z</time>
</trkpt>
<trkpt lat="46.2908310" lon="9.9588990">
	<ele>2307.40</ele>
	<time>2021-08-31T11:19:55.000Z</time>
</trkpt>
<trkpt lat="46.2908310" lon="9.9588980">
	<ele>2307.40</ele>
	<time>2021-08-31T11:20:08.000Z</time>
</trkpt>
<trkpt lat="46.2907520" lon="9.9588620">
	<ele>2307.40</ele>
	<time>2021-08-31T11:20:28.000Z</time>
</trkpt>
<trkpt lat="46.2906870" lon="9.9588440">
	<ele>2306.80</ele>
	<time>2021-08-31T11:20:33.000Z</time>
</trkpt>
<trkpt lat="46.2906740" lon="9.9588400">
	<ele>2306.60</ele>
	<time>2021-08-31T11:20:34.000Z</time>
</trkpt>
<trkpt lat="46.2906640" lon="9.9588360">
	<ele>2306.40</ele>
	<time>2021-08-31T11:20:35.000Z</time>
</trkpt>
<trkpt lat="46.2906230" lon="9.9588370">
	<ele>2306.00</ele>
	<time>2021-08-31T11:20:39.000Z</time>
</trkpt>
<trkpt lat="46.2905850" lon="9.9588300">
	<ele>2305.40</ele>
	<time>2021-08-31T11:20:42.000Z</time>
</trkpt>
<trkpt lat="46.2905070" lon="9.9588310">
	<ele>2305.00</ele>
	<time>2021-08-31T11:20:49.000Z</time>
</trkpt>
<trkpt lat="46.2904360" lon="9.9587950">
	<ele>2304.40</ele>
	<time>2021-08-31T11:20:56.000Z</time>
</trkpt>
<trkpt lat="46.2904290" lon="9.9587860">
	<ele>2304.20</ele>
	<time>2021-08-31T11:20:57.000Z</time>
</trkpt>
<trkpt lat="46.2904090" lon="9.9587740">
	<ele>2303.40</ele>
	<time>2021-08-31T11:21:00.000Z</time>
</trkpt>
<trkpt lat="46.2903980" lon="9.9587380">
	<ele>2303.00</ele>
	<time>2021-08-31T11:21:03.000Z</time>
</trkpt>
<trkpt lat="46.2903810" lon="9.9586930">
	<ele>2302.20</ele>
	<time>2021-08-31T11:21:09.000Z</time>
</trkpt>
<trkpt lat="46.2903770" lon="9.9586830">
	<ele>2302.20</ele>
	<time>2021-08-31T11:21:10.000Z</time>
</trkpt>
<trkpt lat="46.2903570" lon="9.9586530">
	<ele>2302.00</ele>
	<time>2021-08-31T11:21:13.000Z</time>
</trkpt>
<trkpt lat="46.2903480" lon="9.9586400">
	<ele>2302.00</ele>
	<time>2021-08-31T11:21:15.000Z</time>
</trkpt>
<trkpt lat="46.2903420" lon="9.9586380">
	<ele>2302.00</ele>
	<time>2021-08-31T11:21:16.000Z</time>
</trkpt>
<trkpt lat="46.2903100" lon="9.9586200">
	<ele>2301.40</ele>
	<time>2021-08-31T11:21:22.000Z</time>
</trkpt>
<trkpt lat="46.2903090" lon="9.9586220">
	<ele>2301.40</ele>
	<time>2021-08-31T11:21:24.000Z</time>
</trkpt>
<trkpt lat="46.2903080" lon="9.9586220">
	<ele>2301.40</ele>
	<time>2021-08-31T11:21:25.000Z</time>
</trkpt>
<trkpt lat="46.2902970" lon="9.9586120">
	<ele>2301.00</ele>
	<time>2021-08-31T11:21:33.000Z</time>
</trkpt>
<trkpt lat="46.2902970" lon="9.9586120">
	<ele>2301.00</ele>
	<time>2021-08-31T11:21:36.000Z</time>
</trkpt>
<trkpt lat="46.2902970" lon="9.9586120">
	<ele>2300.80</ele>
	<time>2021-08-31T11:21:41.000Z</time>
</trkpt>
<trkpt lat="46.2902970" lon="9.9586080">
	<ele>2301.00</ele>
	<time>2021-08-31T11:22:08.000Z</time>
</trkpt>
<trkpt lat="46.2903010" lon="9.9586100">
	<ele>2301.20</ele>
	<time>2021-08-31T11:22:13.000Z</time>
</trkpt>
<trkpt lat="46.2903130" lon="9.9586030">
	<ele>2301.40</ele>
	<time>2021-08-31T11:22:16.000Z</time>
</trkpt>
<trkpt lat="46.2903240" lon="9.9586010">
	<ele>2301.60</ele>
	<time>2021-08-31T11:22:29.000Z</time>
</trkpt>
<trkpt lat="46.2903240" lon="9.9585980">
	<ele>2301.60</ele>
	<time>2021-08-31T11:22:34.000Z</time>
</trkpt>
<trkpt lat="46.2903020" lon="9.9586140">
	<ele>2301.40</ele>
	<time>2021-08-31T11:22:52.000Z</time>
</trkpt>
<trkpt lat="46.2902640" lon="9.9586770">
	<ele>2301.20</ele>
	<time>2021-08-31T11:23:00.000Z</time>
</trkpt>
<trkpt lat="46.2902370" lon="9.9587400">
	<ele>2301.00</ele>
	<time>2021-08-31T11:23:04.000Z</time>
</trkpt>
<trkpt lat="46.2902210" lon="9.9587570">
	<ele>2301.00</ele>
	<time>2021-08-31T11:23:06.000Z</time>
</trkpt>
<trkpt lat="46.2902120" lon="9.9587600">
	<ele>2301.00</ele>
	<time>2021-08-31T11:23:07.000Z</time>
</trkpt>
<trkpt lat="46.2901890" lon="9.9587590">
	<ele>2301.20</ele>
	<time>2021-08-31T11:23:09.000Z</time>
</trkpt>
<trkpt lat="46.2901290" lon="9.9587720">
	<ele>2301.40</ele>
	<time>2021-08-31T11:23:15.000Z</time>
</trkpt>
<trkpt lat="46.2901140" lon="9.9587780">
	<ele>2301.20</ele>
	<time>2021-08-31T11:23:17.000Z</time>
</trkpt>
<trkpt lat="46.2901060" lon="9.9587860">
	<ele>2301.20</ele>
	<time>2021-08-31T11:23:18.000Z</time>
</trkpt>
<trkpt lat="46.2900970" lon="9.9588000">
	<ele>2301.20</ele>
	<time>2021-08-31T11:23:20.000Z</time>
</trkpt>
<trkpt lat="46.2900910" lon="9.9588000">
	<ele>2301.20</ele>
	<time>2021-08-31T11:23:21.000Z</time>
</trkpt>
<trkpt lat="46.2900400" lon="9.9587740">
	<ele>2300.40</ele>
	<time>2021-08-31T11:23:26.000Z</time>
</trkpt>
<trkpt lat="46.2900140" lon="9.9587310">
	<ele>2300.00</ele>
	<time>2021-08-31T11:23:29.000Z</time>
</trkpt>
<trkpt lat="46.2900070" lon="9.9587210">
	<ele>2300.20</ele>
	<time>2021-08-31T11:23:30.000Z</time>
</trkpt>
<trkpt lat="46.2899940" lon="9.9587040">
	<ele>2300.20</ele>
	<time>2021-08-31T11:23:32.000Z</time>
</trkpt>
<trkpt lat="46.2899770" lon="9.9586880">
	<ele>2300.60</ele>
	<time>2021-08-31T11:23:34.000Z</time>
</trkpt>
<trkpt lat="46.2899070" lon="9.9586330">
	<ele>2300.00</ele>
	<time>2021-08-31T11:23:42.000Z</time>
</trkpt>
<trkpt lat="46.2898950" lon="9.9586300">
	<ele>2299.80</ele>
	<time>2021-08-31T11:23:43.000Z</time>
</trkpt>
<trkpt lat="46.2898430" lon="9.9586100">
	<ele>2299.40</ele>
	<time>2021-08-31T11:23:48.000Z</time>
</trkpt>
<trkpt lat="46.2898380" lon="9.9586080">
	<ele>2299.40</ele>
	<time>2021-08-31T11:23:49.000Z</time>
</trkpt>
<trkpt lat="46.2898080" lon="9.9585840">
	<ele>2299.60</ele>
	<time>2021-08-31T11:23:54.000Z</time>
</trkpt>
<trkpt lat="46.2897850" lon="9.9585760">
	<ele>2299.60</ele>
	<time>2021-08-31T11:23:57.000Z</time>
</trkpt>
<trkpt lat="46.2897640" lon="9.9585810">
	<ele>2299.20</ele>
	<time>2021-08-31T11:24:03.000Z</time>
</trkpt>
<trkpt lat="46.2897680" lon="9.9585810">
	<ele>2299.00</ele>
	<time>2021-08-31T11:24:09.000Z</time>
</trkpt>
<trkpt lat="46.2897710" lon="9.9585850">
	<ele>2299.00</ele>
	<time>2021-08-31T11:24:12.000Z</time>
</trkpt>
<trkpt lat="46.2897710" lon="9.9585850">
	<ele>2299.00</ele>
	<time>2021-08-31T11:24:13.000Z</time>
</trkpt>
<trkpt lat="46.2897710" lon="9.9585850">
	<ele>2299.00</ele>
	<time>2021-08-31T11:24:14.000Z</time>
</trkpt>
<trkpt lat="46.2897710" lon="9.9585850">
	<ele>2299.00</ele>
	<time>2021-08-31T11:24:16.000Z</time>
</trkpt>
<trkpt lat="46.2897710" lon="9.9585850">
	<ele>2299.00</ele>
	<time>2021-08-31T11:24:17.000Z</time>
</trkpt>
<trkpt lat="46.2897710" lon="9.9585850">
	<ele>2299.00</ele>
	<time>2021-08-31T11:24:18.000Z</time>
</trkpt>
<trkpt lat="46.2897710" lon="9.9585850">
	<ele>2299.00</ele>
	<time>2021-08-31T11:24:19.000Z</time>
</trkpt>
<trkpt lat="46.2897180" lon="9.9586260">
	<ele>2299.40</ele>
	<time>2021-08-31T11:24:30.000Z</time>
</trkpt>
<trkpt lat="46.2896220" lon="9.9587420">
	<ele>2300.80</ele>
	<time>2021-08-31T11:24:41.000Z</time>
</trkpt>
<trkpt lat="46.2896140" lon="9.9587540">
	<ele>2301.00</ele>
	<time>2021-08-31T11:24:42.000Z</time>
</trkpt>
<trkpt lat="46.2895960" lon="9.9587870">
	<ele>2301.40</ele>
	<time>2021-08-31T11:24:44.000Z</time>
</trkpt>
<trkpt lat="46.2895810" lon="9.9588150">
	<ele>2301.60</ele>
	<time>2021-08-31T11:24:46.000Z</time>
</trkpt>
<trkpt lat="46.2895750" lon="9.9588240">
	<ele>2302.00</ele>
	<time>2021-08-31T11:24:47.000Z</time>
</trkpt>
<trkpt lat="46.2895610" lon="9.9588360">
	<ele>2302.20</ele>
	<time>2021-08-31T11:24:48.000Z</time>
</trkpt>
<trkpt lat="46.2895450" lon="9.9588620">
	<ele>2302.40</ele>
	<time>2021-08-31T11:24:50.000Z</time>
</trkpt>
<trkpt lat="46.2895400" lon="9.9588720">
	<ele>2302.60</ele>
	<time>2021-08-31T11:24:51.000Z</time>
</trkpt>
<trkpt lat="46.2895100" lon="9.9589560">
	<ele>2303.20</ele>
	<time>2021-08-31T11:24:57.000Z</time>
</trkpt>
<trkpt lat="46.2895000" lon="9.9589820">
	<ele>2303.60</ele>
	<time>2021-08-31T11:24:59.000Z</time>
</trkpt>
<trkpt lat="46.2894840" lon="9.9590260">
	<ele>2303.80</ele>
	<time>2021-08-31T11:25:03.000Z</time>
</trkpt>
<trkpt lat="46.2894800" lon="9.9590560">
	<ele>2304.40</ele>
	<time>2021-08-31T11:25:05.000Z</time>
</trkpt>
<trkpt lat="46.2894790" lon="9.9590980">
	<ele>2304.80</ele>
	<time>2021-08-31T11:25:08.000Z</time>
</trkpt>
<trkpt lat="46.2894640" lon="9.9591590">
	<ele>2305.60</ele>
	<time>2021-08-31T11:25:13.000Z</time>
</trkpt>
<trkpt lat="46.2894500" lon="9.9591940">
	<ele>2306.20</ele>
	<time>2021-08-31T11:25:16.000Z</time>
</trkpt>
<trkpt lat="46.2894480" lon="9.9592160">
	<ele>2306.60</ele>
	<time>2021-08-31T11:25:18.000Z</time>
</trkpt>
<trkpt lat="46.2894330" lon="9.9592920">
	<ele>2307.60</ele>
	<time>2021-08-31T11:25:25.000Z</time>
</trkpt>
<trkpt lat="46.2894280" lon="9.9592990">
	<ele>2307.60</ele>
	<time>2021-08-31T11:25:26.000Z</time>
</trkpt>
<trkpt lat="46.2893820" lon="9.9593800">
	<ele>2308.40</ele>
	<time>2021-08-31T11:25:33.000Z</time>
</trkpt>
<trkpt lat="46.2893630" lon="9.9594040">
	<ele>2308.80</ele>
	<time>2021-08-31T11:25:35.000Z</time>
</trkpt>
<trkpt lat="46.2893160" lon="9.9594800">
	<ele>2309.00</ele>
	<time>2021-08-31T11:25:41.000Z</time>
</trkpt>
<trkpt lat="46.2892960" lon="9.9595220">
	<ele>2308.80</ele>
	<time>2021-08-31T11:25:46.000Z</time>
</trkpt>
<trkpt lat="46.2892960" lon="9.9595220">
	<ele>2308.80</ele>
	<time>2021-08-31T11:25:47.000Z</time>
</trkpt>
<trkpt lat="46.2893010" lon="9.9594760">
	<ele>2308.80</ele>
	<time>2021-08-31T11:26:00.000Z</time>
</trkpt>
<trkpt lat="46.2893010" lon="9.9594770">
	<ele>2308.80</ele>
	<time>2021-08-31T11:26:05.000Z</time>
</trkpt>
<trkpt lat="46.2892990" lon="9.9594830">
	<ele>2308.80</ele>
	<time>2021-08-31T11:26:09.000Z</time>
</trkpt>
<trkpt lat="46.2892930" lon="9.9594890">
	<ele>2308.80</ele>
	<time>2021-08-31T11:26:18.000Z</time>
</trkpt>
<trkpt lat="46.2892900" lon="9.9594890">
	<ele>2308.80</ele>
	<time>2021-08-31T11:26:23.000Z</time>
</trkpt>
<trkpt lat="46.2892400" lon="9.9595630">
	<ele>2309.00</ele>
	<time>2021-08-31T11:26:29.000Z</time>
</trkpt>
<trkpt lat="46.2891470" lon="9.9596730">
	<ele>2309.20</ele>
	<time>2021-08-31T11:26:37.000Z</time>
</trkpt>
<trkpt lat="46.2890770" lon="9.9597300">
	<ele>2309.40</ele>
	<time>2021-08-31T11:26:43.000Z</time>
</trkpt>
<trkpt lat="46.2890470" lon="9.9597710">
	<ele>2309.40</ele>
	<time>2021-08-31T11:26:46.000Z</time>
</trkpt>
<trkpt lat="46.2890200" lon="9.9598080">
	<ele>2309.20</ele>
	<time>2021-08-31T11:26:49.000Z</time>
</trkpt>
<trkpt lat="46.2889740" lon="9.9599040">
	<ele>2309.20</ele>
	<time>2021-08-31T11:26:55.000Z</time>
</trkpt>
<trkpt lat="46.2889310" lon="9.9599290">
	<ele>2309.00</ele>
	<time>2021-08-31T11:26:59.000Z</time>
</trkpt>
<trkpt lat="46.2889010" lon="9.9599410">
	<ele>2308.80</ele>
	<time>2021-08-31T11:27:02.000Z</time>
</trkpt>
<trkpt lat="46.2888300" lon="9.9599940">
	<ele>2307.60</ele>
	<time>2021-08-31T11:27:09.000Z</time>
</trkpt>
<trkpt lat="46.2888040" lon="9.9600100">
	<ele>2307.40</ele>
	<time>2021-08-31T11:27:12.000Z</time>
</trkpt>
<trkpt lat="46.2886710" lon="9.9601080">
	<ele>2306.80</ele>
	<time>2021-08-31T11:27:23.000Z</time>
</trkpt>
<trkpt lat="46.2886500" lon="9.9601310">
	<ele>2306.80</ele>
	<time>2021-08-31T11:27:25.000Z</time>
</trkpt>
<trkpt lat="46.2886380" lon="9.9601410">
	<ele>2306.60</ele>
	<time>2021-08-31T11:27:26.000Z</time>
</trkpt>
<trkpt lat="46.2885760" lon="9.9601740">
	<ele>2306.60</ele>
	<time>2021-08-31T11:27:32.000Z</time>
</trkpt>
<trkpt lat="46.2885180" lon="9.9601570">
	<ele>2306.60</ele>
	<time>2021-08-31T11:27:37.000Z</time>
</trkpt>
<trkpt lat="46.2884680" lon="9.9601220">
	<ele>2306.60</ele>
	<time>2021-08-31T11:27:42.000Z</time>
</trkpt>
<trkpt lat="46.2884270" lon="9.9601190">
	<ele>2307.00</ele>
	<time>2021-08-31T11:27:48.000Z</time>
</trkpt>
<trkpt lat="46.2884180" lon="9.9601290">
	<ele>2307.00</ele>
	<time>2021-08-31T11:27:49.000Z</time>
</trkpt>
<trkpt lat="46.2883410" lon="9.9601970">
	<ele>2306.60</ele>
	<time>2021-08-31T11:27:59.000Z</time>
</trkpt>
<trkpt lat="46.2882900" lon="9.9602790">
	<ele>2306.60</ele>
	<time>2021-08-31T11:28:07.000Z</time>
</trkpt>
<trkpt lat="46.2882870" lon="9.9602810">
	<ele>2306.40</ele>
	<time>2021-08-31T11:28:09.000Z</time>
</trkpt>
<trkpt lat="46.2882950" lon="9.9602710">
	<ele>2306.40</ele>
	<time>2021-08-31T11:28:14.000Z</time>
</trkpt>
<trkpt lat="46.2882990" lon="9.9602700">
	<ele>2306.40</ele>
	<time>2021-08-31T11:28:17.000Z</time>
</trkpt>
<trkpt lat="46.2882980" lon="9.9602710">
	<ele>2306.20</ele>
	<time>2021-08-31T11:28:27.000Z</time>
</trkpt>
<trkpt lat="46.2882350" lon="9.9603140">
	<ele>2306.40</ele>
	<time>2021-08-31T11:28:33.000Z</time>
</trkpt>
<trkpt lat="46.2882070" lon="9.9603010">
	<ele>2306.60</ele>
	<time>2021-08-31T11:28:35.000Z</time>
</trkpt>
<trkpt lat="46.2881760" lon="9.9602750">
	<ele>2306.80</ele>
	<time>2021-08-31T11:28:38.000Z</time>
</trkpt>
<trkpt lat="46.2881660" lon="9.9602700">
	<ele>2307.00</ele>
	<time>2021-08-31T11:28:39.000Z</time>
</trkpt>
<trkpt lat="46.2881040" lon="9.9602140">
	<ele>2307.40</ele>
	<time>2021-08-31T11:28:48.000Z</time>
</trkpt>
<trkpt lat="46.2880850" lon="9.9601960">
	<ele>2307.60</ele>
	<time>2021-08-31T11:28:50.000Z</time>
</trkpt>
<trkpt lat="46.2880750" lon="9.9601890">
	<ele>2307.80</ele>
	<time>2021-08-31T11:28:51.000Z</time>
</trkpt>
<trkpt lat="46.2880360" lon="9.9601640">
	<ele>2308.40</ele>
	<time>2021-08-31T11:28:55.000Z</time>
</trkpt>
<trkpt lat="46.2880020" lon="9.9601540">
	<ele>2308.80</ele>
	<time>2021-08-31T11:28:58.000Z</time>
</trkpt>
<trkpt lat="46.2879950" lon="9.9601480">
	<ele>2309.20</ele>
	<time>2021-08-31T11:29:00.000Z</time>
</trkpt>
<trkpt lat="46.2879770" lon="9.9601330">
	<ele>2309.40</ele>
	<time>2021-08-31T11:29:02.000Z</time>
</trkpt>
<trkpt lat="46.2879410" lon="9.9601130">
	<ele>2309.60</ele>
	<time>2021-08-31T11:29:05.000Z</time>
</trkpt>
<trkpt lat="46.2879160" lon="9.9600980">
	<ele>2309.80</ele>
	<time>2021-08-31T11:29:07.000Z</time>
</trkpt>
<trkpt lat="46.2878600" lon="9.9600680">
	<ele>2310.00</ele>
	<time>2021-08-31T11:29:12.000Z</time>
</trkpt>
<trkpt lat="46.2878340" lon="9.9600510">
	<ele>2310.00</ele>
	<time>2021-08-31T11:29:14.000Z</time>
</trkpt>
<trkpt lat="46.2877160" lon="9.9599850">
	<ele>2309.80</ele>
	<time>2021-08-31T11:29:25.000Z</time>
</trkpt>
<trkpt lat="46.2876160" lon="9.9599390">
	<ele>2310.20</ele>
	<time>2021-08-31T11:29:34.000Z</time>
</trkpt>
<trkpt lat="46.2875140" lon="9.9598620">
	<ele>2310.20</ele>
	<time>2021-08-31T11:29:44.000Z</time>
</trkpt>
<trkpt lat="46.2873960" lon="9.9598020">
	<ele>2311.00</ele>
	<time>2021-08-31T11:29:54.000Z</time>
</trkpt>
<trkpt lat="46.2872820" lon="9.9597670">
	<ele>2311.40</ele>
	<time>2021-08-31T11:30:03.000Z</time>
</trkpt>
<trkpt lat="46.2871450" lon="9.9597080">
	<ele>2311.60</ele>
	<time>2021-08-31T11:30:14.000Z</time>
</trkpt>
<trkpt lat="46.2869670" lon="9.9596860">
	<ele>2311.80</ele>
	<time>2021-08-31T11:30:27.000Z</time>
</trkpt>
<trkpt lat="46.2869180" lon="9.9596780">
	<ele>2312.00</ele>
	<time>2021-08-31T11:30:30.000Z</time>
</trkpt>
<trkpt lat="46.2867810" lon="9.9596490">
	<ele>2311.80</ele>
	<time>2021-08-31T11:30:40.000Z</time>
</trkpt>
<trkpt lat="46.2867450" lon="9.9596450">
	<ele>2312.00</ele>
	<time>2021-08-31T11:30:43.000Z</time>
</trkpt>
<trkpt lat="46.2867320" lon="9.9596490">
	<ele>2312.00</ele>
	<time>2021-08-31T11:30:44.000Z</time>
</trkpt>
<trkpt lat="46.2866940" lon="9.9596860">
	<ele>2312.00</ele>
	<time>2021-08-31T11:30:48.000Z</time>
</trkpt>
<trkpt lat="46.2866000" lon="9.9597410">
	<ele>2312.20</ele>
	<time>2021-08-31T11:30:56.000Z</time>
</trkpt>
<trkpt lat="46.2865390" lon="9.9597600">
	<ele>2312.20</ele>
	<time>2021-08-31T11:31:03.000Z</time>
</trkpt>
<trkpt lat="46.2865440" lon="9.9597590">
	<ele>2312.20</ele>
	<time>2021-08-31T11:31:04.000Z</time>
</trkpt>
<trkpt lat="46.2865610" lon="9.9597550">
	<ele>2312.20</ele>
	<time>2021-08-31T11:31:14.000Z</time>
</trkpt>
<trkpt lat="46.2865520" lon="9.9596650">
	<ele>2311.60</ele>
	<time>2021-08-31T11:31:23.000Z</time>
</trkpt>
<trkpt lat="46.2865310" lon="9.9596110">
	<ele>2311.60</ele>
	<time>2021-08-31T11:31:26.000Z</time>
</trkpt>
<trkpt lat="46.2865180" lon="9.9595770">
	<ele>2311.40</ele>
	<time>2021-08-31T11:31:28.000Z</time>
</trkpt>
<trkpt lat="46.2865090" lon="9.9595370">
	<ele>2311.40</ele>
	<time>2021-08-31T11:31:30.000Z</time>
</trkpt>
<trkpt lat="46.2864920" lon="9.9594500">
	<ele>2311.00</ele>
	<time>2021-08-31T11:31:35.000Z</time>
</trkpt>
<trkpt lat="46.2864840" lon="9.9593850">
	<ele>2310.00</ele>
	<time>2021-08-31T11:31:39.000Z</time>
</trkpt>
<trkpt lat="46.2864800" lon="9.9593300">
	<ele>2309.80</ele>
	<time>2021-08-31T11:31:42.000Z</time>
</trkpt>
<trkpt lat="46.2864880" lon="9.9592500">
	<ele>2309.20</ele>
	<time>2021-08-31T11:31:46.000Z</time>
</trkpt>
<trkpt lat="46.2864790" lon="9.9591850">
	<ele>2308.80</ele>
	<time>2021-08-31T11:31:49.000Z</time>
</trkpt>
<trkpt lat="46.2864590" lon="9.9590510">
	<ele>2307.60</ele>
	<time>2021-08-31T11:31:56.000Z</time>
</trkpt>
<trkpt lat="46.2864320" lon="9.9589440">
	<ele>2306.40</ele>
	<time>2021-08-31T11:32:02.000Z</time>
</trkpt>
<trkpt lat="46.2864270" lon="9.9589350">
	<ele>2306.20</ele>
	<time>2021-08-31T11:32:04.000Z</time>
</trkpt>
<trkpt lat="46.2864270" lon="9.9589400">
	<ele>2306.00</ele>
	<time>2021-08-31T11:32:06.000Z</time>
</trkpt>
<trkpt lat="46.2864180" lon="9.9589510">
	<ele>2306.00</ele>
	<time>2021-08-31T11:32:12.000Z</time>
</trkpt>
<trkpt lat="46.2864160" lon="9.9589500">
	<ele>2306.00</ele>
	<time>2021-08-31T11:32:23.000Z</time>
</trkpt>
<trkpt lat="46.2864160" lon="9.9589500">
	<ele>2306.00</ele>
	<time>2021-08-31T11:32:26.000Z</time>
</trkpt>
<trkpt lat="46.2864140" lon="9.9589170">
	<ele>2305.40</ele>
	<time>2021-08-31T11:32:32.000Z</time>
</trkpt>
<trkpt lat="46.2864040" lon="9.9587210">
	<ele>2304.20</ele>
	<time>2021-08-31T11:32:40.000Z</time>
</trkpt>
<trkpt lat="46.2864030" lon="9.9587000">
	<ele>2304.00</ele>
	<time>2021-08-31T11:32:41.000Z</time>
</trkpt>
<trkpt lat="46.2863910" lon="9.9586230">
	<ele>2303.20</ele>
	<time>2021-08-31T11:32:45.000Z</time>
</trkpt>
<trkpt lat="46.2863590" lon="9.9585790">
	<ele>2302.40</ele>
	<time>2021-08-31T11:32:49.000Z</time>
</trkpt>
<trkpt lat="46.2863360" lon="9.9585730">
	<ele>2302.00</ele>
	<time>2021-08-31T11:32:51.000Z</time>
</trkpt>
<trkpt lat="46.2863010" lon="9.9585820">
	<ele>2300.80</ele>
	<time>2021-08-31T11:32:55.000Z</time>
</trkpt>
<trkpt lat="46.2862930" lon="9.9585820">
	<ele>2300.60</ele>
	<time>2021-08-31T11:32:56.000Z</time>
</trkpt>
<trkpt lat="46.2862890" lon="9.9585780">
	<ele>2300.60</ele>
	<time>2021-08-31T11:32:57.000Z</time>
</trkpt>
<trkpt lat="46.2862280" lon="9.9585080">
	<ele>2300.00</ele>
	<time>2021-08-31T11:33:04.000Z</time>
</trkpt>
<trkpt lat="46.2862190" lon="9.9584910">
	<ele>2299.80</ele>
	<time>2021-08-31T11:33:05.000Z</time>
</trkpt>
<trkpt lat="46.2862030" lon="9.9584420">
	<ele>2299.40</ele>
	<time>2021-08-31T11:33:09.000Z</time>
</trkpt>
<trkpt lat="46.2862090" lon="9.9583890">
	<ele>2298.80</ele>
	<time>2021-08-31T11:33:13.000Z</time>
</trkpt>
<trkpt lat="46.2862170" lon="9.9583730">
	<ele>2298.80</ele>
	<time>2021-08-31T11:33:14.000Z</time>
</trkpt>
<trkpt lat="46.2862430" lon="9.9582680">
	<ele>2298.40</ele>
	<time>2021-08-31T11:33:21.000Z</time>
</trkpt>
<trkpt lat="46.2862470" lon="9.9582460">
	<ele>2297.80</ele>
	<time>2021-08-31T11:33:25.000Z</time>
</trkpt>
<trkpt lat="46.2862410" lon="9.9582490">
	<ele>2297.60</ele>
	<time>2021-08-31T11:33:27.000Z</time>
</trkpt>
<trkpt lat="46.2862250" lon="9.9582480">
	<ele>2297.40</ele>
	<time>2021-08-31T11:33:34.000Z</time>
</trkpt>
<trkpt lat="46.2862250" lon="9.9582480">
	<ele>2297.60</ele>
	<time>2021-08-31T11:33:36.000Z</time>
</trkpt>
<trkpt lat="46.2862150" lon="9.9582480">
	<ele>2298.20</ele>
	<time>2021-08-31T11:34:18.000Z</time>
</trkpt>
<trkpt lat="46.2862160" lon="9.9582480">
	<ele>2298.60</ele>
	<time>2021-08-31T11:34:25.000Z</time>
</trkpt>
<trkpt lat="46.2862210" lon="9.9582550">
	<ele>2298.40</ele>
	<time>2021-08-31T11:34:49.000Z</time>
</trkpt>
<trkpt lat="46.2862200" lon="9.9582560">
	<ele>2298.40</ele>
	<time>2021-08-31T11:34:50.000Z</time>
</trkpt>
<trkpt lat="46.2862190" lon="9.9582570">
	<ele>2298.60</ele>
	<time>2021-08-31T11:34:51.000Z</time>
</trkpt>
<trkpt lat="46.2862140" lon="9.9582590">
	<ele>2298.60</ele>
	<time>2021-08-31T11:34:53.000Z</time>
</trkpt>
<trkpt lat="46.2862110" lon="9.9582870">
	<ele>2298.60</ele>
	<time>2021-08-31T11:35:01.000Z</time>
</trkpt>
<trkpt lat="46.2862110" lon="9.9582900">
	<ele>2298.60</ele>
	<time>2021-08-31T11:35:02.000Z</time>
</trkpt>
<trkpt lat="46.2862110" lon="9.9582950">
	<ele>2298.60</ele>
	<time>2021-08-31T11:35:05.000Z</time>
</trkpt>
<trkpt lat="46.2862110" lon="9.9582970">
	<ele>2298.60</ele>
	<time>2021-08-31T11:35:07.000Z</time>
</trkpt>
<trkpt lat="46.2862100" lon="9.9583020">
	<ele>2298.40</ele>
	<time>2021-08-31T11:35:10.000Z</time>
</trkpt>
<trkpt lat="46.2862030" lon="9.9583210">
	<ele>2298.00</ele>
	<time>2021-08-31T11:35:21.000Z</time>
</trkpt>
<trkpt lat="46.2862040" lon="9.9582560">
	<ele>2297.60</ele>
	<time>2021-08-31T11:35:26.000Z</time>
</trkpt>
<trkpt lat="46.2862010" lon="9.9581110">
	<ele>2296.80</ele>
	<time>2021-08-31T11:35:33.000Z</time>
</trkpt>
<trkpt lat="46.2861910" lon="9.9580560">
	<ele>2296.00</ele>
	<time>2021-08-31T11:35:36.000Z</time>
</trkpt>
<trkpt lat="46.2861850" lon="9.9579850">
	<ele>2295.60</ele>
	<time>2021-08-31T11:35:39.000Z</time>
</trkpt>
<trkpt lat="46.2861580" lon="9.9578890">
	<ele>2294.40</ele>
	<time>2021-08-31T11:35:44.000Z</time>
</trkpt>
<trkpt lat="46.2861460" lon="9.9578310">
	<ele>2293.80</ele>
	<time>2021-08-31T11:35:47.000Z</time>
</trkpt>
<trkpt lat="46.2861390" lon="9.9577750">
	<ele>2293.40</ele>
	<time>2021-08-31T11:35:50.000Z</time>
</trkpt>
<trkpt lat="46.2861200" lon="9.9576730">
	<ele>2292.20</ele>
	<time>2021-08-31T11:35:55.000Z</time>
</trkpt>
<trkpt lat="46.2860980" lon="9.9576360">
	<ele>2291.40</ele>
	<time>2021-08-31T11:35:58.000Z</time>
</trkpt>
<trkpt lat="46.2860870" lon="9.9576050">
	<ele>2291.00</ele>
	<time>2021-08-31T11:36:00.000Z</time>
</trkpt>
<trkpt lat="46.2860830" lon="9.9575640">
	<ele>2290.80</ele>
	<time>2021-08-31T11:36:02.000Z</time>
</trkpt>
<trkpt lat="46.2860740" lon="9.9574880">
	<ele>2289.80</ele>
	<time>2021-08-31T11:36:06.000Z</time>
</trkpt>
<trkpt lat="46.2860710" lon="9.9574380">
	<ele>2289.20</ele>
	<time>2021-08-31T11:36:09.000Z</time>
</trkpt>
<trkpt lat="46.2860680" lon="9.9573940">
	<ele>2288.80</ele>
	<time>2021-08-31T11:36:11.000Z</time>
</trkpt>
<trkpt lat="46.2860560" lon="9.9573230">
	<ele>2288.00</ele>
	<time>2021-08-31T11:36:15.000Z</time>
</trkpt>
<trkpt lat="46.2860500" lon="9.9573070">
	<ele>2287.80</ele>
	<time>2021-08-31T11:36:16.000Z</time>
</trkpt>
<trkpt lat="46.2860320" lon="9.9572300">
	<ele>2286.80</ele>
	<time>2021-08-31T11:36:21.000Z</time>
</trkpt>
<trkpt lat="46.2860260" lon="9.9572090">
	<ele>2286.60</ele>
	<time>2021-08-31T11:36:22.000Z</time>
</trkpt>
<trkpt lat="46.2860050" lon="9.9571250">
	<ele>2285.80</ele>
	<time>2021-08-31T11:36:26.000Z</time>
</trkpt>
<trkpt lat="46.2859980" lon="9.9570870">
	<ele>2285.40</ele>
	<time>2021-08-31T11:36:28.000Z</time>
</trkpt>
<trkpt lat="46.2859680" lon="9.9569850">
	<ele>2285.00</ele>
	<time>2021-08-31T11:36:33.000Z</time>
</trkpt>
<trkpt lat="46.2859450" lon="9.9569380">
	<ele>2284.20</ele>
	<time>2021-08-31T11:36:36.000Z</time>
</trkpt>
<trkpt lat="46.2859400" lon="9.9569210">
	<ele>2284.00</ele>
	<time>2021-08-31T11:36:37.000Z</time>
</trkpt>
<trkpt lat="46.2859340" lon="9.9569000">
	<ele>2283.80</ele>
	<time>2021-08-31T11:36:38.000Z</time>
</trkpt>
<trkpt lat="46.2859160" lon="9.9568430">
	<ele>2283.20</ele>
	<time>2021-08-31T11:36:41.000Z</time>
</trkpt>
<trkpt lat="46.2858790" lon="9.9567440">
	<ele>2282.40</ele>
	<time>2021-08-31T11:36:47.000Z</time>
</trkpt>
<trkpt lat="46.2858750" lon="9.9567270">
	<ele>2282.20</ele>
	<time>2021-08-31T11:36:48.000Z</time>
</trkpt>
<trkpt lat="46.2858410" lon="9.9566500">
	<ele>2281.20</ele>
	<time>2021-08-31T11:36:53.000Z</time>
</trkpt>
<trkpt lat="46.2858130" lon="9.9565970">
	<ele>2280.80</ele>
	<time>2021-08-31T11:36:57.000Z</time>
</trkpt>
<trkpt lat="46.2857800" lon="9.9565660">
	<ele>2280.20</ele>
	<time>2021-08-31T11:37:00.000Z</time>
</trkpt>
<trkpt lat="46.2857630" lon="9.9565550">
	<ele>2280.00</ele>
	<time>2021-08-31T11:37:02.000Z</time>
</trkpt>
<trkpt lat="46.2857420" lon="9.9565240">
	<ele>2279.20</ele>
	<time>2021-08-31T11:37:05.000Z</time>
</trkpt>
<trkpt lat="46.2857330" lon="9.9565170">
	<ele>2278.80</ele>
	<time>2021-08-31T11:37:06.000Z</time>
</trkpt>
<trkpt lat="46.2856890" lon="9.9564780">
	<ele>2277.80</ele>
	<time>2021-08-31T11:37:12.000Z</time>
</trkpt>
<trkpt lat="46.2856830" lon="9.9564670">
	<ele>2277.40</ele>
	<time>2021-08-31T11:37:13.000Z</time>
</trkpt>
<trkpt lat="46.2856820" lon="9.9563670">
	<ele>2276.20</ele>
	<time>2021-08-31T11:37:18.000Z</time>
</trkpt>
<trkpt lat="46.2856820" lon="9.9563460">
	<ele>2276.00</ele>
	<time>2021-08-31T11:37:19.000Z</time>
</trkpt>
<trkpt lat="46.2856660" lon="9.9562630">
	<ele>2275.20</ele>
	<time>2021-08-31T11:37:23.000Z</time>
</trkpt>
<trkpt lat="46.2856480" lon="9.9562150">
	<ele>2275.00</ele>
	<time>2021-08-31T11:37:26.000Z</time>
</trkpt>
<trkpt lat="46.2856330" lon="9.9560830">
	<ele>2274.60</ele>
	<time>2021-08-31T11:37:34.000Z</time>
</trkpt>
<trkpt lat="46.2856200" lon="9.9560210">
	<ele>2274.00</ele>
	<time>2021-08-31T11:37:37.000Z</time>
</trkpt>
<trkpt lat="46.2855950" lon="9.9559220">
	<ele>2273.60</ele>
	<time>2021-08-31T11:37:42.000Z</time>
</trkpt>
<trkpt lat="46.2855800" lon="9.9558610">
	<ele>2273.00</ele>
	<time>2021-08-31T11:37:45.000Z</time>
</trkpt>
<trkpt lat="46.2855320" lon="9.9556810">
	<ele>2272.20</ele>
	<time>2021-08-31T11:37:55.000Z</time>
</trkpt>
<trkpt lat="46.2855290" lon="9.9556450">
	<ele>2272.00</ele>
	<time>2021-08-31T11:37:57.000Z</time>
</trkpt>
<trkpt lat="46.2855080" lon="9.9555080">
	<ele>2271.20</ele>
	<time>2021-08-31T11:38:04.000Z</time>
</trkpt>
<trkpt lat="46.2854960" lon="9.9554250">
	<ele>2270.80</ele>
	<time>2021-08-31T11:38:08.000Z</time>
</trkpt>
<trkpt lat="46.2854690" lon="9.9553230">
	<ele>2270.20</ele>
	<time>2021-08-31T11:38:13.000Z</time>
</trkpt>
<trkpt lat="46.2854510" lon="9.9552670">
	<ele>2269.80</ele>
	<time>2021-08-31T11:38:16.000Z</time>
</trkpt>
<trkpt lat="46.2854410" lon="9.9552190">
	<ele>2269.60</ele>
	<time>2021-08-31T11:38:19.000Z</time>
</trkpt>
<trkpt lat="46.2854180" lon="9.9551720">
	<ele>2269.20</ele>
	<time>2021-08-31T11:38:22.000Z</time>
</trkpt>
<trkpt lat="46.2854100" lon="9.9551210">
	<ele>2268.60</ele>
	<time>2021-08-31T11:38:25.000Z</time>
</trkpt>
<trkpt lat="46.2853730" lon="9.9550180">
	<ele>2268.20</ele>
	<time>2021-08-31T11:38:31.000Z</time>
</trkpt>
<trkpt lat="46.2853590" lon="9.9549570">
	<ele>2267.80</ele>
	<time>2021-08-31T11:38:34.000Z</time>
</trkpt>
<trkpt lat="46.2853550" lon="9.9549380">
	<ele>2267.60</ele>
	<time>2021-08-31T11:38:35.000Z</time>
</trkpt>
<trkpt lat="46.2853350" lon="9.9548640">
	<ele>2266.80</ele>
	<time>2021-08-31T11:38:39.000Z</time>
</trkpt>
<trkpt lat="46.2853300" lon="9.9548190">
	<ele>2266.40</ele>
	<time>2021-08-31T11:38:41.000Z</time>
</trkpt>
<trkpt lat="46.2853260" lon="9.9547960">
	<ele>2266.20</ele>
	<time>2021-08-31T11:38:42.000Z</time>
</trkpt>
<trkpt lat="46.2852880" lon="9.9546680">
	<ele>2265.20</ele>
	<time>2021-08-31T11:38:49.000Z</time>
</trkpt>
<trkpt lat="46.2852840" lon="9.9546500">
	<ele>2265.20</ele>
	<time>2021-08-31T11:38:50.000Z</time>
</trkpt>
<trkpt lat="46.2852720" lon="9.9545330">
	<ele>2264.00</ele>
	<time>2021-08-31T11:38:56.000Z</time>
</trkpt>
<trkpt lat="46.2852680" lon="9.9545010">
	<ele>2263.80</ele>
	<time>2021-08-31T11:38:58.000Z</time>
</trkpt>
<trkpt lat="46.2852590" lon="9.9544280">
	<ele>2263.40</ele>
	<time>2021-08-31T11:39:02.000Z</time>
</trkpt>
<trkpt lat="46.2852550" lon="9.9543850">
	<ele>2263.00</ele>
	<time>2021-08-31T11:39:04.000Z</time>
</trkpt>
<trkpt lat="46.2852440" lon="9.9543500">
	<ele>2262.80</ele>
	<time>2021-08-31T11:39:06.000Z</time>
</trkpt>
<trkpt lat="46.2852250" lon="9.9542460">
	<ele>2262.00</ele>
	<time>2021-08-31T11:39:11.000Z</time>
</trkpt>
<trkpt lat="46.2852070" lon="9.9541130">
	<ele>2261.00</ele>
	<time>2021-08-31T11:39:17.000Z</time>
</trkpt>
<trkpt lat="46.2852040" lon="9.9540920">
	<ele>2260.60</ele>
	<time>2021-08-31T11:39:18.000Z</time>
</trkpt>
<trkpt lat="46.2851950" lon="9.9540340">
	<ele>2260.20</ele>
	<time>2021-08-31T11:39:21.000Z</time>
</trkpt>
<trkpt lat="46.2851900" lon="9.9539780">
	<ele>2259.60</ele>
	<time>2021-08-31T11:39:24.000Z</time>
</trkpt>
<trkpt lat="46.2851940" lon="9.9539010">
	<ele>2258.80</ele>
	<time>2021-08-31T11:39:28.000Z</time>
</trkpt>
<trkpt lat="46.2851910" lon="9.9538470">
	<ele>2258.40</ele>
	<time>2021-08-31T11:39:31.000Z</time>
</trkpt>
<trkpt lat="46.2852050" lon="9.9537370">
	<ele>2257.40</ele>
	<time>2021-08-31T11:39:37.000Z</time>
</trkpt>
<trkpt lat="46.2852500" lon="9.9535650">
	<ele>2256.40</ele>
	<time>2021-08-31T11:39:46.000Z</time>
</trkpt>
<trkpt lat="46.2852570" lon="9.9535470">
	<ele>2256.40</ele>
	<time>2021-08-31T11:39:47.000Z</time>
</trkpt>
<trkpt lat="46.2852950" lon="9.9533840">
	<ele>2256.20</ele>
	<time>2021-08-31T11:39:55.000Z</time>
</trkpt>
<trkpt lat="46.2853100" lon="9.9532840">
	<ele>2255.60</ele>
	<time>2021-08-31T11:40:00.000Z</time>
</trkpt>
<trkpt lat="46.2853180" lon="9.9532270">
	<ele>2255.40</ele>
	<time>2021-08-31T11:40:03.000Z</time>
</trkpt>
<trkpt lat="46.2853230" lon="9.9532080">
	<ele>2255.20</ele>
	<time>2021-08-31T11:40:04.000Z</time>
</trkpt>
<trkpt lat="46.2853460" lon="9.9531090">
	<ele>2254.20</ele>
	<time>2021-08-31T11:40:09.000Z</time>
</trkpt>
<trkpt lat="46.2853510" lon="9.9530490">
	<ele>2254.00</ele>
	<time>2021-08-31T11:40:12.000Z</time>
</trkpt>
<trkpt lat="46.2853520" lon="9.9529840">
	<ele>2253.80</ele>
	<time>2021-08-31T11:40:15.000Z</time>
</trkpt>
<trkpt lat="46.2853690" lon="9.9528900">
	<ele>2253.40</ele>
	<time>2021-08-31T11:40:20.000Z</time>
</trkpt>
<trkpt lat="46.2853730" lon="9.9528280">
	<ele>2253.20</ele>
	<time>2021-08-31T11:40:23.000Z</time>
</trkpt>
<trkpt lat="46.2853710" lon="9.9527530">
	<ele>2253.00</ele>
	<time>2021-08-31T11:40:26.000Z</time>
</trkpt>
<trkpt lat="46.2853710" lon="9.9526990">
	<ele>2252.60</ele>
	<time>2021-08-31T11:40:28.000Z</time>
</trkpt>
<trkpt lat="46.2853830" lon="9.9526360">
	<ele>2252.40</ele>
	<time>2021-08-31T11:40:31.000Z</time>
</trkpt>
<trkpt lat="46.2853820" lon="9.9526140">
	<ele>2252.20</ele>
	<time>2021-08-31T11:40:32.000Z</time>
</trkpt>
<trkpt lat="46.2853880" lon="9.9525370">
	<ele>2252.00</ele>
	<time>2021-08-31T11:40:36.000Z</time>
</trkpt>
<trkpt lat="46.2853910" lon="9.9524230">
	<ele>2251.40</ele>
	<time>2021-08-31T11:40:42.000Z</time>
</trkpt>
<trkpt lat="46.2853910" lon="9.9524010">
	<ele>2251.40</ele>
	<time>2021-08-31T11:40:43.000Z</time>
</trkpt>
<trkpt lat="46.2854000" lon="9.9523450">
	<ele>2251.20</ele>
	<time>2021-08-31T11:40:46.000Z</time>
</trkpt>
<trkpt lat="46.2854050" lon="9.9523220">
	<ele>2251.20</ele>
	<time>2021-08-31T11:40:47.000Z</time>
</trkpt>
<trkpt lat="46.2854070" lon="9.9522770">
	<ele>2250.80</ele>
	<time>2021-08-31T11:40:49.000Z</time>
</trkpt>
<trkpt lat="46.2854180" lon="9.9522100">
	<ele>2250.60</ele>
	<time>2021-08-31T11:40:52.000Z</time>
</trkpt>
<trkpt lat="46.2854350" lon="9.9521750">
	<ele>2250.40</ele>
	<time>2021-08-31T11:40:54.000Z</time>
</trkpt>
<trkpt lat="46.2854310" lon="9.9521000">
	<ele>2250.20</ele>
	<time>2021-08-31T11:40:57.000Z</time>
</trkpt>
<trkpt lat="46.2854410" lon="9.9520610">
	<ele>2250.00</ele>
	<time>2021-08-31T11:40:59.000Z</time>
</trkpt>
<trkpt lat="46.2854570" lon="9.9519710">
	<ele>2249.60</ele>
	<time>2021-08-31T11:41:04.000Z</time>
</trkpt>
<trkpt lat="46.2854600" lon="9.9519540">
	<ele>2249.40</ele>
	<time>2021-08-31T11:41:05.000Z</time>
</trkpt>
<trkpt lat="46.2854880" lon="9.9518530">
	<ele>2249.00</ele>
	<time>2021-08-31T11:41:10.000Z</time>
</trkpt>
<trkpt lat="46.2855010" lon="9.9518150">
	<ele>2249.00</ele>
	<time>2021-08-31T11:41:12.000Z</time>
</trkpt>
<trkpt lat="46.2855140" lon="9.9516800">
	<ele>2248.40</ele>
	<time>2021-08-31T11:41:18.000Z</time>
</trkpt>
<trkpt lat="46.2855430" lon="9.9515060">
	<ele>2248.00</ele>
	<time>2021-08-31T11:41:27.000Z</time>
</trkpt>
<trkpt lat="46.2855450" lon="9.9514860">
	<ele>2247.80</ele>
	<time>2021-08-31T11:41:28.000Z</time>
</trkpt>
<trkpt lat="46.2855450" lon="9.9513330">
	<ele>2247.40</ele>
	<time>2021-08-31T11:41:36.000Z</time>
</trkpt>
<trkpt lat="46.2855440" lon="9.9512880">
	<ele>2247.40</ele>
	<time>2021-08-31T11:41:38.000Z</time>
</trkpt>
<trkpt lat="46.2855370" lon="9.9512200">
	<ele>2247.40</ele>
	<time>2021-08-31T11:41:41.000Z</time>
</trkpt>
<trkpt lat="46.2855250" lon="9.9511580">
	<ele>2247.40</ele>
	<time>2021-08-31T11:41:44.000Z</time>
</trkpt>
<trkpt lat="46.2855120" lon="9.9511280">
	<ele>2247.20</ele>
	<time>2021-08-31T11:41:46.000Z</time>
</trkpt>
<trkpt lat="46.2855010" lon="9.9510810">
	<ele>2247.00</ele>
	<time>2021-08-31T11:41:49.000Z</time>
</trkpt>
<trkpt lat="46.2855190" lon="9.9509710">
	<ele>2246.40</ele>
	<time>2021-08-31T11:41:55.000Z</time>
</trkpt>
<trkpt lat="46.2855100" lon="9.9509160">
	<ele>2245.80</ele>
	<time>2021-08-31T11:41:58.000Z</time>
</trkpt>
<trkpt lat="46.2855040" lon="9.9508570">
	<ele>2245.60</ele>
	<time>2021-08-31T11:42:01.000Z</time>
</trkpt>
<trkpt lat="46.2855000" lon="9.9508160">
	<ele>2245.60</ele>
	<time>2021-08-31T11:42:03.000Z</time>
</trkpt>
<trkpt lat="46.2854900" lon="9.9507520">
	<ele>2245.60</ele>
	<time>2021-08-31T11:42:06.000Z</time>
</trkpt>
<trkpt lat="46.2854730" lon="9.9506630">
	<ele>2245.40</ele>
	<time>2021-08-31T11:42:10.000Z</time>
</trkpt>
<trkpt lat="46.2854690" lon="9.9506410">
	<ele>2245.40</ele>
	<time>2021-08-31T11:42:11.000Z</time>
</trkpt>
<trkpt lat="46.2854630" lon="9.9505370">
	<ele>2245.00</ele>
	<time>2021-08-31T11:42:16.000Z</time>
</trkpt>
<trkpt lat="46.2854580" lon="9.9504420">
	<ele>2245.00</ele>
	<time>2021-08-31T11:42:21.000Z</time>
</trkpt>
<trkpt lat="46.2854560" lon="9.9504240">
	<ele>2244.80</ele>
	<time>2021-08-31T11:42:22.000Z</time>
</trkpt>
<trkpt lat="46.2854320" lon="9.9502540">
	<ele>2244.40</ele>
	<time>2021-08-31T11:42:30.000Z</time>
</trkpt>
<trkpt lat="46.2854250" lon="9.9502150">
	<ele>2244.20</ele>
	<time>2021-08-31T11:42:32.000Z</time>
</trkpt>
<trkpt lat="46.2854120" lon="9.9501110">
	<ele>2243.80</ele>
	<time>2021-08-31T11:42:37.000Z</time>
</trkpt>
<trkpt lat="46.2854090" lon="9.9500960">
	<ele>2243.80</ele>
	<time>2021-08-31T11:42:38.000Z</time>
</trkpt>
<trkpt lat="46.2853880" lon="9.9500130">
	<ele>2243.40</ele>
	<time>2021-08-31T11:42:42.000Z</time>
</trkpt>
<trkpt lat="46.2853290" lon="9.9498330">
	<ele>2242.80</ele>
	<time>2021-08-31T11:42:51.000Z</time>
</trkpt>
<trkpt lat="46.2853080" lon="9.9497760">
	<ele>2242.40</ele>
	<time>2021-08-31T11:42:54.000Z</time>
</trkpt>
<trkpt lat="46.2852520" lon="9.9496200">
	<ele>2241.60</ele>
	<time>2021-08-31T11:43:03.000Z</time>
</trkpt>
<trkpt lat="46.2852360" lon="9.9495850">
	<ele>2241.40</ele>
	<time>2021-08-31T11:43:05.000Z</time>
</trkpt>
<trkpt lat="46.2851710" lon="9.9494180">
	<ele>2241.00</ele>
	<time>2021-08-31T11:43:14.000Z</time>
</trkpt>
<trkpt lat="46.2851510" lon="9.9493600">
	<ele>2240.40</ele>
	<time>2021-08-31T11:43:17.000Z</time>
</trkpt>
<trkpt lat="46.2851040" lon="9.9492200">
	<ele>2239.40</ele>
	<time>2021-08-31T11:43:26.000Z</time>
</trkpt>
<trkpt lat="46.2850950" lon="9.9492040">
	<ele>2239.20</ele>
	<time>2021-08-31T11:43:27.000Z</time>
</trkpt>
<trkpt lat="46.2850510" lon="9.9490750">
	<ele>2238.40</ele>
	<time>2021-08-31T11:43:34.000Z</time>
</trkpt>
<trkpt lat="46.2850420" lon="9.9490320">
	<ele>2238.00</ele>
	<time>2021-08-31T11:43:36.000Z</time>
</trkpt>
<trkpt lat="46.2850090" lon="9.9489350">
	<ele>2237.20</ele>
	<time>2021-08-31T11:43:41.000Z</time>
</trkpt>
<trkpt lat="46.2849910" lon="9.9488770">
	<ele>2237.00</ele>
	<time>2021-08-31T11:43:44.000Z</time>
</trkpt>
<trkpt lat="46.2849630" lon="9.9488380">
	<ele>2236.80</ele>
	<time>2021-08-31T11:43:47.000Z</time>
</trkpt>
<trkpt lat="46.2849360" lon="9.9488030">
	<ele>2236.40</ele>
	<time>2021-08-31T11:43:52.000Z</time>
</trkpt>
<trkpt lat="46.2849360" lon="9.9487980">
	<ele>2236.20</ele>
	<time>2021-08-31T11:43:53.000Z</time>
</trkpt>
<trkpt lat="46.2849330" lon="9.9487910">
	<ele>2236.20</ele>
	<time>2021-08-31T11:43:54.000Z</time>
</trkpt>
<trkpt lat="46.2848970" lon="9.9487440">
	<ele>2235.80</ele>
	<time>2021-08-31T11:43:58.000Z</time>
</trkpt>
<trkpt lat="46.2848490" lon="9.9486860">
	<ele>2235.60</ele>
	<time>2021-08-31T11:44:03.000Z</time>
</trkpt>
<trkpt lat="46.2848240" lon="9.9486610">
	<ele>2235.40</ele>
	<time>2021-08-31T11:44:06.000Z</time>
</trkpt>
<trkpt lat="46.2848230" lon="9.9486620">
	<ele>2235.40</ele>
	<time>2021-08-31T11:44:08.000Z</time>
</trkpt>
<trkpt lat="46.2848210" lon="9.9486750">
	<ele>2235.20</ele>
	<time>2021-08-31T11:44:13.000Z</time>
</trkpt>
<trkpt lat="46.2848080" lon="9.9486510">
	<ele>2235.20</ele>
	<time>2021-08-31T11:44:18.000Z</time>
</trkpt>
<trkpt lat="46.2848020" lon="9.9486360">
	<ele>2235.20</ele>
	<time>2021-08-31T11:44:20.000Z</time>
</trkpt>
<trkpt lat="46.2847770" lon="9.9485710">
	<ele>2235.00</ele>
	<time>2021-08-31T11:44:27.000Z</time>
</trkpt>
<trkpt lat="46.2847720" lon="9.9485560">
	<ele>2235.00</ele>
	<time>2021-08-31T11:44:28.000Z</time>
</trkpt>
<trkpt lat="46.2847680" lon="9.9485400">
	<ele>2235.00</ele>
	<time>2021-08-31T11:44:29.000Z</time>
</trkpt>
<trkpt lat="46.2847550" lon="9.9485080">
	<ele>2235.00</ele>
	<time>2021-08-31T11:44:31.000Z</time>
</trkpt>
<trkpt lat="46.2847080" lon="9.9484330">
	<ele>2235.20</ele>
	<time>2021-08-31T11:44:37.000Z</time>
</trkpt>
<trkpt lat="46.2846600" lon="9.9483890">
	<ele>2235.20</ele>
	<time>2021-08-31T11:44:42.000Z</time>
</trkpt>
<trkpt lat="46.2846300" lon="9.9483720">
	<ele>2235.20</ele>
	<time>2021-08-31T11:44:45.000Z</time>
</trkpt>
<trkpt lat="46.2845320" lon="9.9483380">
	<ele>2234.40</ele>
	<time>2021-08-31T11:44:53.000Z</time>
</trkpt>
<trkpt lat="46.2845190" lon="9.9483270">
	<ele>2234.40</ele>
	<time>2021-08-31T11:44:55.000Z</time>
</trkpt>
<trkpt lat="46.2844970" lon="9.9483150">
	<ele>2234.40</ele>
	<time>2021-08-31T11:44:58.000Z</time>
</trkpt>
<trkpt lat="46.2844880" lon="9.9483120">
	<ele>2234.40</ele>
	<time>2021-08-31T11:44:59.000Z</time>
</trkpt>
<trkpt lat="46.2844730" lon="9.9483070">
	<ele>2235.00</ele>
	<time>2021-08-31T11:45:03.000Z</time>
</trkpt>
<trkpt lat="46.2844870" lon="9.9483130">
	<ele>2235.20</ele>
	<time>2021-08-31T11:45:07.000Z</time>
</trkpt>
<trkpt lat="46.2845060" lon="9.9483310">
	<ele>2234.60</ele>
	<time>2021-08-31T11:45:17.000Z</time>
</trkpt>
<trkpt lat="46.2844440" lon="9.9483460">
	<ele>2234.60</ele>
	<time>2021-08-31T11:45:22.000Z</time>
</trkpt>
<trkpt lat="46.2843300" lon="9.9483530">
	<ele>2234.60</ele>
	<time>2021-08-31T11:45:29.000Z</time>
</trkpt>
<trkpt lat="46.2843070" lon="9.9483390">
	<ele>2234.00</ele>
	<time>2021-08-31T11:45:30.000Z</time>
</trkpt>
<trkpt lat="46.2842760" lon="9.9483350">
	<ele>2233.40</ele>
	<time>2021-08-31T11:45:32.000Z</time>
</trkpt>
<trkpt lat="46.2842120" lon="9.9483460">
	<ele>2233.00</ele>
	<time>2021-08-31T11:45:37.000Z</time>
</trkpt>
<trkpt lat="46.2841210" lon="9.9483890">
	<ele>2232.00</ele>
	<time>2021-08-31T11:45:45.000Z</time>
</trkpt>
<trkpt lat="46.2840540" lon="9.9484160">
	<ele>2230.80</ele>
	<time>2021-08-31T11:45:51.000Z</time>
</trkpt>
<trkpt lat="46.2839710" lon="9.9484140">
	<ele>2230.00</ele>
	<time>2021-08-31T11:45:57.000Z</time>
</trkpt>
<trkpt lat="46.2839420" lon="9.9484030">
	<ele>2229.80</ele>
	<time>2021-08-31T11:45:59.000Z</time>
</trkpt>
<trkpt lat="46.2838890" lon="9.9483710">
	<ele>2228.80</ele>
	<time>2021-08-31T11:46:06.000Z</time>
</trkpt>
<trkpt lat="46.2838940" lon="9.9483660">
	<ele>2228.60</ele>
	<time>2021-08-31T11:46:07.000Z</time>
</trkpt>
<trkpt lat="46.2838970" lon="9.9483630">
	<ele>2228.40</ele>
	<time>2021-08-31T11:46:08.000Z</time>
</trkpt>
<trkpt lat="46.2839000" lon="9.9483540">
	<ele>2228.00</ele>
	<time>2021-08-31T11:46:09.000Z</time>
</trkpt>
<trkpt lat="46.2839000" lon="9.9483160">
	<ele>2227.20</ele>
	<time>2021-08-31T11:46:11.000Z</time>
</trkpt>
<trkpt lat="46.2838970" lon="9.9483030">
	<ele>2227.00</ele>
	<time>2021-08-31T11:46:12.000Z</time>
</trkpt>
<trkpt lat="46.2839030" lon="9.9482570">
	<ele>2226.00</ele>
	<time>2021-08-31T11:46:15.000Z</time>
</trkpt>
<trkpt lat="46.2838940" lon="9.9482080">
	<ele>2225.00</ele>
	<time>2021-08-31T11:46:19.000Z</time>
</trkpt>
<trkpt lat="46.2838870" lon="9.9481930">
	<ele>2225.00</ele>
	<time>2021-08-31T11:46:20.000Z</time>
</trkpt>
<trkpt lat="46.2838650" lon="9.9481350">
	<ele>2224.00</ele>
	<time>2021-08-31T11:46:26.000Z</time>
</trkpt>
<trkpt lat="46.2838620" lon="9.9481330">
	<ele>2224.00</ele>
	<time>2021-08-31T11:46:27.000Z</time>
</trkpt>
<trkpt lat="46.2838600" lon="9.9481350">
	<ele>2224.00</ele>
	<time>2021-08-31T11:46:28.000Z</time>
</trkpt>
<trkpt lat="46.2838580" lon="9.9481380">
	<ele>2224.00</ele>
	<time>2021-08-31T11:46:29.000Z</time>
</trkpt>
<trkpt lat="46.2838620" lon="9.9481410">
	<ele>2223.80</ele>
	<time>2021-08-31T11:46:38.000Z</time>
</trkpt>
<trkpt lat="46.2838620" lon="9.9481410">
	<ele>2224.00</ele>
	<time>2021-08-31T11:46:46.000Z</time>
</trkpt>
<trkpt lat="46.2838620" lon="9.9481420">
	<ele>2222.80</ele>
	<time>2021-08-31T11:46:54.000Z</time>
</trkpt>
<trkpt lat="46.2838490" lon="9.9480680">
	<ele>2222.40</ele>
	<time>2021-08-31T11:46:58.000Z</time>
</trkpt>
<trkpt lat="46.2838050" lon="9.9479490">
	<ele>2221.80</ele>
	<time>2021-08-31T11:47:06.000Z</time>
</trkpt>
<trkpt lat="46.2838080" lon="9.9479540">
	<ele>2221.80</ele>
	<time>2021-08-31T11:47:07.000Z</time>
</trkpt>
<trkpt lat="46.2838140" lon="9.9479490">
	<ele>2222.00</ele>
	<time>2021-08-31T11:47:09.000Z</time>
</trkpt>
<trkpt lat="46.2838200" lon="9.9479430">
	<ele>2222.20</ele>
	<time>2021-08-31T11:47:10.000Z</time>
</trkpt>
<trkpt lat="46.2838280" lon="9.9479410">
	<ele>2222.80</ele>
	<time>2021-08-31T11:47:13.000Z</time>
</trkpt>
<trkpt lat="46.2838260" lon="9.9479390">
	<ele>2222.80</ele>
	<time>2021-08-31T11:47:14.000Z</time>
</trkpt>
<trkpt lat="46.2838180" lon="9.9479230">
	<ele>2222.40</ele>
	<time>2021-08-31T11:47:16.000Z</time>
</trkpt>
<trkpt lat="46.2838230" lon="9.9479120">
	<ele>2222.20</ele>
	<time>2021-08-31T11:47:24.000Z</time>
</trkpt>
<trkpt lat="46.2838230" lon="9.9479120">
	<ele>2222.20</ele>
	<time>2021-08-31T11:47:25.000Z</time>
</trkpt>
<trkpt lat="46.2838280" lon="9.9479120">
	<ele>2222.20</ele>
	<time>2021-08-31T11:47:33.000Z</time>
</trkpt>
<trkpt lat="46.2838580" lon="9.9478670">
	<ele>2222.40</ele>
	<time>2021-08-31T11:47:47.000Z</time>
</trkpt>
<trkpt lat="46.2838750" lon="9.9478620">
	<ele>2222.40</ele>
	<time>2021-08-31T11:47:50.000Z</time>
</trkpt>
<trkpt lat="46.2838860" lon="9.9478600">
	<ele>2222.40</ele>
	<time>2021-08-31T11:47:53.000Z</time>
</trkpt>
<trkpt lat="46.2838930" lon="9.9478370">
	<ele>2222.00</ele>
	<time>2021-08-31T11:48:09.000Z</time>
</trkpt>
<trkpt lat="46.2838930" lon="9.9478320">
	<ele>2221.80</ele>
	<time>2021-08-31T11:48:10.000Z</time>
</trkpt>
<trkpt lat="46.2838930" lon="9.9478270">
	<ele>2221.80</ele>
	<time>2021-08-31T11:48:11.000Z</time>
</trkpt>
<trkpt lat="46.2838930" lon="9.9478220">
	<ele>2221.80</ele>
	<time>2021-08-31T11:48:13.000Z</time>
</trkpt>
<trkpt lat="46.2838960" lon="9.9478060">
	<ele>2221.80</ele>
	<time>2021-08-31T11:48:23.000Z</time>
</trkpt>
<trkpt lat="46.2838970" lon="9.9477900">
	<ele>2221.80</ele>
	<time>2021-08-31T11:48:29.000Z</time>
</trkpt>
<trkpt lat="46.2838970" lon="9.9477890">
	<ele>2221.80</ele>
	<time>2021-08-31T11:48:33.000Z</time>
</trkpt>
<trkpt lat="46.2838600" lon="9.9478570">
	<ele>2222.20</ele>
	<time>2021-08-31T11:49:18.000Z</time>
</trkpt>
<trkpt lat="46.2838610" lon="9.9478610">
	<ele>2222.20</ele>
	<time>2021-08-31T11:49:24.000Z</time>
</trkpt>
<trkpt lat="46.2838670" lon="9.9478630">
	<ele>2222.40</ele>
	<time>2021-08-31T11:49:29.000Z</time>
</trkpt>
<trkpt lat="46.2838840" lon="9.9478670">
	<ele>2222.80</ele>
	<time>2021-08-31T11:49:36.000Z</time>
</trkpt>
<trkpt lat="46.2839310" lon="9.9478780">
	<ele>2222.80</ele>
	<time>2021-08-31T11:49:56.000Z</time>
</trkpt>
<trkpt lat="46.2839700" lon="9.9479090">
	<ele>2222.20</ele>
	<time>2021-08-31T11:51:01.000Z</time>
</trkpt>
<trkpt lat="46.2839690" lon="9.9479080">
	<ele>2222.20</ele>
	<time>2021-08-31T11:51:09.000Z</time>
</trkpt>
<trkpt lat="46.2839690" lon="9.9479070">
	<ele>2222.20</ele>
	<time>2021-08-31T11:51:11.000Z</time>
</trkpt>
<trkpt lat="46.2839670" lon="9.9479060">
	<ele>2222.20</ele>
	<time>2021-08-31T11:51:23.000Z</time>
</trkpt>
<trkpt lat="46.2839650" lon="9.9479030">
	<ele>2222.00</ele>
	<time>2021-08-31T11:51:48.000Z</time>
</trkpt>
<trkpt lat="46.2839650" lon="9.9479030">
	<ele>2222.00</ele>
	<time>2021-08-31T11:51:54.000Z</time>
</trkpt>
<trkpt lat="46.2839660" lon="9.9479020">
	<ele>2222.00</ele>
	<time>2021-08-31T11:51:59.000Z</time>
</trkpt>
<trkpt lat="46.2839670" lon="9.9478970">
	<ele>2222.00</ele>
	<time>2021-08-31T11:52:39.000Z</time>
</trkpt>
<trkpt lat="46.2839670" lon="9.9478960">
	<ele>2222.00</ele>
	<time>2021-08-31T11:52:45.000Z</time>
</trkpt>
<trkpt lat="46.2839670" lon="9.9478920">
	<ele>2222.00</ele>
	<time>2021-08-31T11:53:19.000Z</time>
</trkpt>
<trkpt lat="46.2839670" lon="9.9478920">
	<ele>2222.00</ele>
	<time>2021-08-31T11:53:21.000Z</time>
</trkpt>
<trkpt lat="46.2839670" lon="9.9478910">
	<ele>2222.00</ele>
	<time>2021-08-31T11:53:29.000Z</time>
</trkpt>
<trkpt lat="46.2839660" lon="9.9478900">
	<ele>2222.00</ele>
	<time>2021-08-31T11:53:38.000Z</time>
</trkpt>
<trkpt lat="46.2839660" lon="9.9478890">
	<ele>2222.00</ele>
	<time>2021-08-31T11:53:50.000Z</time>
</trkpt>
<trkpt lat="46.2839650" lon="9.9478870">
	<ele>2222.00</ele>
	<time>2021-08-31T11:54:03.000Z</time>
</trkpt>
<trkpt lat="46.2839650" lon="9.9478860">
	<ele>2222.00</ele>
	<time>2021-08-31T11:54:05.000Z</time>
</trkpt>
<trkpt lat="46.2839650" lon="9.9478860">
	<ele>2222.00</ele>
	<time>2021-08-31T11:54:11.000Z</time>
</trkpt>
<trkpt lat="46.2839640" lon="9.9478850">
	<ele>2222.00</ele>
	<time>2021-08-31T11:54:19.000Z</time>
</trkpt>
<trkpt lat="46.2839630" lon="9.9478830">
	<ele>2222.00</ele>
	<time>2021-08-31T11:54:40.000Z</time>
</trkpt>
<trkpt lat="46.2839630" lon="9.9478830">
	<ele>2222.00</ele>
	<time>2021-08-31T11:54:42.000Z</time>
</trkpt>
<trkpt lat="46.2839630" lon="9.9478820">
	<ele>2222.00</ele>
	<time>2021-08-31T11:54:45.000Z</time>
</trkpt>
<trkpt lat="46.2839640" lon="9.9478750">
	<ele>2222.00</ele>
	<time>2021-08-31T11:55:03.000Z</time>
</trkpt>
<trkpt lat="46.2839570" lon="9.9478670">
	<ele>2222.00</ele>
	<time>2021-08-31T11:55:06.000Z</time>
</trkpt>
<trkpt lat="46.2839580" lon="9.9478600">
	<ele>2222.00</ele>
	<time>2021-08-31T11:55:08.000Z</time>
</trkpt>
<trkpt lat="46.2839910" lon="9.9478870">
	<ele>2222.00</ele>
	<time>2021-08-31T11:55:14.000Z</time>
</trkpt>
<trkpt lat="46.2839910" lon="9.9478870">
	<ele>2222.00</ele>
	<time>2021-08-31T11:55:17.000Z</time>
</trkpt>
<trkpt lat="46.2839910" lon="9.9478870">
	<ele>2222.00</ele>
	<time>2021-08-31T11:55:20.000Z</time>
</trkpt>
<trkpt lat="46.2839790" lon="9.9479000">
	<ele>2222.00</ele>
	<time>2021-08-31T11:55:46.000Z</time>
</trkpt>
<trkpt lat="46.2839660" lon="9.9479150">
	<ele>2222.00</ele>
	<time>2021-08-31T11:56:00.000Z</time>
</trkpt>
<trkpt lat="46.2839410" lon="9.9479090">
	<ele>2222.00</ele>
	<time>2021-08-31T11:56:15.000Z</time>
</trkpt>
<trkpt lat="46.2838770" lon="9.9478870">
	<ele>2222.00</ele>
	<time>2021-08-31T11:56:42.000Z</time>
</trkpt>
<trkpt lat="46.2838730" lon="9.9478650">
	<ele>2222.00</ele>
	<time>2021-08-31T11:57:06.000Z</time>
</trkpt>
<trkpt lat="46.2838740" lon="9.9478640">
	<ele>2222.00</ele>
	<time>2021-08-31T11:57:11.000Z</time>
</trkpt>
<trkpt lat="46.2838900" lon="9.9478740">
	<ele>2222.00</ele>
	<time>2021-08-31T11:57:31.000Z</time>
</trkpt>
<trkpt lat="46.2838900" lon="9.9478780">
	<ele>2222.00</ele>
	<time>2021-08-31T11:57:37.000Z</time>
</trkpt>
<trkpt lat="46.2838900" lon="9.9478800">
	<ele>2222.00</ele>
	<time>2021-08-31T11:57:40.000Z</time>
</trkpt>
<trkpt lat="46.2838820" lon="9.9478690">
	<ele>2222.00</ele>
	<time>2021-08-31T11:58:11.000Z</time>
</trkpt>
<trkpt lat="46.2838800" lon="9.9478630">
	<ele>2222.00</ele>
	<time>2021-08-31T11:58:14.000Z</time>
</trkpt>
<trkpt lat="46.2838800" lon="9.9478510">
	<ele>2222.00</ele>
	<time>2021-08-31T11:58:37.000Z</time>
</trkpt>
<trkpt lat="46.2838980" lon="9.9478350">
	<ele>2222.00</ele>
	<time>2021-08-31T11:58:59.000Z</time>
</trkpt>
<trkpt lat="46.2839000" lon="9.9478120">
	<ele>2222.00</ele>
	<time>2021-08-31T11:59:06.000Z</time>
</trkpt>
<trkpt lat="46.2838970" lon="9.9478000">
	<ele>2222.00</ele>
	<time>2021-08-31T11:59:14.000Z</time>
</trkpt>
<trkpt lat="46.2838980" lon="9.9478000">
	<ele>2222.00</ele>
	<time>2021-08-31T11:59:19.000Z</time>
</trkpt>
<trkpt lat="46.2838970" lon="9.9478060">
	<ele>2222.00</ele>
	<time>2021-08-31T11:59:36.000Z</time>
</trkpt>
<trkpt lat="46.2838840" lon="9.9478150">
	<ele>2222.00</ele>
	<time>2021-08-31T11:59:55.000Z</time>
</trkpt>
<trkpt lat="46.2838670" lon="9.9477590">
	<ele>2222.00</ele>
	<time>2021-08-31T12:00:00.000Z</time>
</trkpt>
<trkpt lat="46.2838570" lon="9.9477330">
	<ele>2222.00</ele>
	<time>2021-08-31T12:00:02.000Z</time>
</trkpt>
<trkpt lat="46.2838440" lon="9.9476680">
	<ele>2220.00</ele>
	<time>2021-08-31T12:00:07.000Z</time>
</trkpt>
<trkpt lat="46.2838470" lon="9.9476700">
	<ele>2218.80</ele>
	<time>2021-08-31T12:00:08.000Z</time>
</trkpt>
<trkpt lat="46.2838520" lon="9.9476750">
	<ele>2218.00</ele>
	<time>2021-08-31T12:00:09.000Z</time>
</trkpt>
<trkpt lat="46.2838570" lon="9.9476840">
	<ele>2217.80</ele>
	<time>2021-08-31T12:00:10.000Z</time>
</trkpt>
<trkpt lat="46.2838540" lon="9.9476880">
	<ele>2217.60</ele>
	<time>2021-08-31T12:00:11.000Z</time>
</trkpt>
<trkpt lat="46.2838470" lon="9.9477050">
	<ele>2217.00</ele>
	<time>2021-08-31T12:00:15.000Z</time>
</trkpt>
<trkpt lat="46.2838470" lon="9.9477050">
	<ele>2217.00</ele>
	<time>2021-08-31T12:00:22.000Z</time>
</trkpt>
<trkpt lat="46.2838380" lon="9.9477120">
	<ele>2217.60</ele>
	<time>2021-08-31T12:00:40.000Z</time>
</trkpt>
<trkpt lat="46.2838360" lon="9.9477240">
	<ele>2218.20</ele>
	<time>2021-08-31T12:00:44.000Z</time>
</trkpt>
<trkpt lat="46.2838330" lon="9.9477250">
	<ele>2218.40</ele>
	<time>2021-08-31T12:00:45.000Z</time>
</trkpt>
<trkpt lat="46.2838250" lon="9.9477490">
	<ele>2218.80</ele>
	<time>2021-08-31T12:00:47.000Z</time>
</trkpt>
<trkpt lat="46.2838220" lon="9.9477900">
	<ele>2219.60</ele>
	<time>2021-08-31T12:00:49.000Z</time>
</trkpt>
<trkpt lat="46.2838110" lon="9.9478220">
	<ele>2220.00</ele>
	<time>2021-08-31T12:00:51.000Z</time>
</trkpt>
<trkpt lat="46.2838060" lon="9.9478660">
	<ele>2220.80</ele>
	<time>2021-08-31T12:00:56.000Z</time>
</trkpt>
<trkpt lat="46.2838000" lon="9.9478560">
	<ele>2221.00</ele>
	<time>2021-08-31T12:00:58.000Z</time>
</trkpt>
<trkpt lat="46.2838080" lon="9.9478440">
	<ele>2221.20</ele>
	<time>2021-08-31T12:01:03.000Z</time>
</trkpt>
<trkpt lat="46.2838080" lon="9.9478440">
	<ele>2221.20</ele>
	<time>2021-08-31T12:01:10.000Z</time>
</trkpt>
<trkpt lat="46.2837920" lon="9.9478430">
	<ele>2221.20</ele>
	<time>2021-08-31T12:01:15.000Z</time>
</trkpt>
<trkpt lat="46.2837920" lon="9.9478430">
	<ele>2221.20</ele>
	<time>2021-08-31T12:01:18.000Z</time>
</trkpt>
<trkpt lat="46.2837920" lon="9.9478360">
	<ele>2221.00</ele>
	<time>2021-08-31T12:01:24.000Z</time>
</trkpt>
<trkpt lat="46.2837930" lon="9.9478320">
	<ele>2220.80</ele>
	<time>2021-08-31T12:01:30.000Z</time>
</trkpt>
<trkpt lat="46.2837940" lon="9.9478320">
	<ele>2220.80</ele>
	<time>2021-08-31T12:01:31.000Z</time>
</trkpt>
<trkpt lat="46.2838000" lon="9.9478320">
	<ele>2220.80</ele>
	<time>2021-08-31T12:01:33.000Z</time>
</trkpt>
<trkpt lat="46.2838170" lon="9.9478320">
	<ele>2221.20</ele>
	<time>2021-08-31T12:01:41.000Z</time>
</trkpt>
<trkpt lat="46.2838170" lon="9.9478320">
	<ele>2221.00</ele>
	<time>2021-08-31T12:01:46.000Z</time>
</trkpt>
<trkpt lat="46.2838170" lon="9.9478320">
	<ele>2221.00</ele>
	<time>2021-08-31T12:01:47.000Z</time>
</trkpt>
<trkpt lat="46.2838250" lon="9.9478330">
	<ele>2221.00</ele>
	<time>2021-08-31T12:02:00.000Z</time>
</trkpt>
<trkpt lat="46.2838310" lon="9.9478390">
	<ele>2221.00</ele>
	<time>2021-08-31T12:02:06.000Z</time>
</trkpt>
<trkpt lat="46.2838460" lon="9.9478960">
	<ele>2220.60</ele>
	<time>2021-08-31T12:02:23.000Z</time>
</trkpt>
<trkpt lat="46.2837950" lon="9.9478250">
	<ele>2220.60</ele>
	<time>2021-08-31T12:02:32.000Z</time>
</trkpt>
<trkpt lat="46.2837880" lon="9.9477970">
	<ele>2220.60</ele>
	<time>2021-08-31T12:02:34.000Z</time>
</trkpt>
<trkpt lat="46.2837900" lon="9.9477290">
	<ele>2219.40</ele>
	<time>2021-08-31T12:02:38.000Z</time>
</trkpt>
<trkpt lat="46.2838020" lon="9.9477240">
	<ele>2218.00</ele>
	<time>2021-08-31T12:02:40.000Z</time>
</trkpt>
<trkpt lat="46.2838040" lon="9.9477230">
	<ele>2217.60</ele>
	<time>2021-08-31T12:02:41.000Z</time>
</trkpt>
<trkpt lat="46.2838120" lon="9.9477270">
	<ele>2216.80</ele>
	<time>2021-08-31T12:02:45.000Z</time>
</trkpt>
<trkpt lat="46.2838140" lon="9.9477290">
	<ele>2217.00</ele>
	<time>2021-08-31T12:02:46.000Z</time>
</trkpt>
<trkpt lat="46.2838200" lon="9.9477330">
	<ele>2217.00</ele>
	<time>2021-08-31T12:02:47.000Z</time>
</trkpt>
<trkpt lat="46.2838250" lon="9.9477340">
	<ele>2217.00</ele>
	<time>2021-08-31T12:02:48.000Z</time>
</trkpt>
<trkpt lat="46.2838130" lon="9.9476860">
	<ele>2217.00</ele>
	<time>2021-08-31T12:02:56.000Z</time>
</trkpt>
<trkpt lat="46.2838350" lon="9.9475660">
	<ele>2217.00</ele>
	<time>2021-08-31T12:03:02.000Z</time>
</trkpt>
<trkpt lat="46.2839190" lon="9.9474940">
	<ele>2217.20</ele>
	<time>2021-08-31T12:03:09.000Z</time>
</trkpt>
<trkpt lat="46.2839540" lon="9.9474630">
	<ele>2217.20</ele>
	<time>2021-08-31T12:03:12.000Z</time>
</trkpt>
<trkpt lat="46.2839750" lon="9.9474370">
	<ele>2217.20</ele>
	<time>2021-08-31T12:03:14.000Z</time>
</trkpt>
<trkpt lat="46.2839900" lon="9.9474020">
	<ele>2217.00</ele>
	<time>2021-08-31T12:03:18.000Z</time>
</trkpt>
<trkpt lat="46.2839900" lon="9.9474000">
	<ele>2217.20</ele>
	<time>2021-08-31T12:03:19.000Z</time>
</trkpt>
<trkpt lat="46.2840080" lon="9.9473960">
	<ele>2217.40</ele>
	<time>2021-08-31T12:03:23.000Z</time>
</trkpt>
<trkpt lat="46.2840150" lon="9.9474040">
	<ele>2217.40</ele>
	<time>2021-08-31T12:03:24.000Z</time>
</trkpt>
<trkpt lat="46.2840110" lon="9.9474040">
	<ele>2217.60</ele>
	<time>2021-08-31T12:03:28.000Z</time>
</trkpt>
<trkpt lat="46.2840030" lon="9.9473990">
	<ele>2217.40</ele>
	<time>2021-08-31T12:03:32.000Z</time>
</trkpt>
<trkpt lat="46.2840030" lon="9.9473990">
	<ele>2217.40</ele>
	<time>2021-08-31T12:03:33.000Z</time>
</trkpt>
<trkpt lat="46.2840030" lon="9.9474010">
	<ele>2217.20</ele>
	<time>2021-08-31T12:03:42.000Z</time>
</trkpt>
<trkpt lat="46.2840030" lon="9.9474030">
	<ele>2217.20</ele>
	<time>2021-08-31T12:03:44.000Z</time>
</trkpt>
<trkpt lat="46.2840030" lon="9.9474040">
	<ele>2217.20</ele>
	<time>2021-08-31T12:03:46.000Z</time>
</trkpt>
<trkpt lat="46.2840490" lon="9.9473750">
	<ele>2217.00</ele>
	<time>2021-08-31T12:03:53.000Z</time>
</trkpt>
<trkpt lat="46.2841000" lon="9.9472780">
	<ele>2217.00</ele>
	<time>2021-08-31T12:04:00.000Z</time>
</trkpt>
<trkpt lat="46.2840970" lon="9.9472620">
	<ele>2217.20</ele>
	<time>2021-08-31T12:04:01.000Z</time>
</trkpt>
<trkpt lat="46.2840480" lon="9.9471100">
	<ele>2217.20</ele>
	<time>2021-08-31T12:04:09.000Z</time>
</trkpt>
<trkpt lat="46.2840060" lon="9.9469550">
	<ele>2216.60</ele>
	<time>2021-08-31T12:04:17.000Z</time>
</trkpt>
<trkpt lat="46.2839540" lon="9.9468090">
	<ele>2216.40</ele>
	<time>2021-08-31T12:04:25.000Z</time>
</trkpt>
<trkpt lat="46.2839160" lon="9.9466540">
	<ele>2216.00</ele>
	<time>2021-08-31T12:04:34.000Z</time>
</trkpt>
<trkpt lat="46.2839060" lon="9.9466060">
	<ele>2215.80</ele>
	<time>2021-08-31T12:04:37.000Z</time>
</trkpt>
<trkpt lat="46.2839060" lon="9.9465640">
	<ele>2215.80</ele>
	<time>2021-08-31T12:04:43.000Z</time>
</trkpt>
<trkpt lat="46.2839280" lon="9.9465920">
	<ele>2215.80</ele>
	<time>2021-08-31T12:04:52.000Z</time>
</trkpt>
<trkpt lat="46.2839210" lon="9.9465780">
	<ele>2215.80</ele>
	<time>2021-08-31T12:04:56.000Z</time>
</trkpt>
<trkpt lat="46.2839210" lon="9.9465780">
	<ele>2215.80</ele>
	<time>2021-08-31T12:04:59.000Z</time>
</trkpt>
<trkpt lat="46.2839720" lon="9.9466090">
	<ele>2216.00</ele>
	<time>2021-08-31T12:05:04.000Z</time>
</trkpt>
<trkpt lat="46.2840780" lon="9.9466630">
	<ele>2216.20</ele>
	<time>2021-08-31T12:05:10.000Z</time>
</trkpt>
<trkpt lat="46.2841220" lon="9.9467120">
	<ele>2216.40</ele>
	<time>2021-08-31T12:05:14.000Z</time>
</trkpt>
<trkpt lat="46.2842330" lon="9.9467830">
	<ele>2216.60</ele>
	<time>2021-08-31T12:05:24.000Z</time>
</trkpt>
<trkpt lat="46.2842460" lon="9.9467800">
	<ele>2216.40</ele>
	<time>2021-08-31T12:05:25.000Z</time>
</trkpt>
<trkpt lat="46.2843210" lon="9.9467630">
	<ele>2216.40</ele>
	<time>2021-08-31T12:05:32.000Z</time>
</trkpt>
<trkpt lat="46.2843820" lon="9.9467090">
	<ele>2216.40</ele>
	<time>2021-08-31T12:05:38.000Z</time>
</trkpt>
<trkpt lat="46.2844130" lon="9.9466630">
	<ele>2216.40</ele>
	<time>2021-08-31T12:05:41.000Z</time>
</trkpt>
<trkpt lat="46.2845030" lon="9.9465500">
	<ele>2216.20</ele>
	<time>2021-08-31T12:05:51.000Z</time>
</trkpt>
<trkpt lat="46.2845140" lon="9.9465400">
	<ele>2216.20</ele>
	<time>2021-08-31T12:05:53.000Z</time>
</trkpt>
<trkpt lat="46.2845320" lon="9.9465200">
	<ele>2216.20</ele>
	<time>2021-08-31T12:05:55.000Z</time>
</trkpt>
<trkpt lat="46.2845650" lon="9.9464770">
	<ele>2216.20</ele>
	<time>2021-08-31T12:05:58.000Z</time>
</trkpt>
<trkpt lat="46.2846250" lon="9.9463910">
	<ele>2215.60</ele>
	<time>2021-08-31T12:06:05.000Z</time>
</trkpt>
<trkpt lat="46.2846600" lon="9.9463530">
	<ele>2215.60</ele>
	<time>2021-08-31T12:06:08.000Z</time>
</trkpt>
<trkpt lat="46.2846940" lon="9.9463330">
	<ele>2215.60</ele>
	<time>2021-08-31T12:06:11.000Z</time>
</trkpt>
<trkpt lat="46.2847420" lon="9.9462920">
	<ele>2215.40</ele>
	<time>2021-08-31T12:06:16.000Z</time>
</trkpt>
<trkpt lat="46.2847700" lon="9.9462660">
	<ele>2215.40</ele>
	<time>2021-08-31T12:06:19.000Z</time>
</trkpt>
<trkpt lat="46.2847800" lon="9.9462630">
	<ele>2215.40</ele>
	<time>2021-08-31T12:06:22.000Z</time>
</trkpt>
<trkpt lat="46.2847820" lon="9.9462680">
	<ele>2215.40</ele>
	<time>2021-08-31T12:06:25.000Z</time>
</trkpt>
<trkpt lat="46.2847650" lon="9.9462680">
	<ele>2215.00</ele>
	<time>2021-08-31T12:06:39.000Z</time>
</trkpt>
<trkpt lat="46.2847650" lon="9.9462680">
	<ele>2215.00</ele>
	<time>2021-08-31T12:06:40.000Z</time>
</trkpt>
<trkpt lat="46.2847650" lon="9.9462680">
	<ele>2215.00</ele>
	<time>2021-08-31T12:06:42.000Z</time>
</trkpt>
<trkpt lat="46.2847650" lon="9.9462650">
	<ele>2215.00</ele>
	<time>2021-08-31T12:06:47.000Z</time>
</trkpt>
<trkpt lat="46.2847660" lon="9.9462620">
	<ele>2215.00</ele>
	<time>2021-08-31T12:06:57.000Z</time>
</trkpt>
<trkpt lat="46.2847660" lon="9.9462610">
	<ele>2215.00</ele>
	<time>2021-08-31T12:07:00.000Z</time>
</trkpt>
<trkpt lat="46.2847670" lon="9.9462610">
	<ele>2215.00</ele>
	<time>2021-08-31T12:07:05.000Z</time>
</trkpt>
<trkpt lat="46.2848270" lon="9.9462910">
	<ele>2215.00</ele>
	<time>2021-08-31T12:07:15.000Z</time>
</trkpt>
<trkpt lat="46.2849490" lon="9.9463080">
	<ele>2215.20</ele>
	<time>2021-08-31T12:07:22.000Z</time>
</trkpt>
<trkpt lat="46.2849630" lon="9.9463030">
	<ele>2215.40</ele>
	<time>2021-08-31T12:07:23.000Z</time>
</trkpt>
<trkpt lat="46.2850680" lon="9.9462030">
	<ele>2215.60</ele>
	<time>2021-08-31T12:07:32.000Z</time>
</trkpt>
<trkpt lat="46.2850980" lon="9.9461930">
	<ele>2215.80</ele>
	<time>2021-08-31T12:07:34.000Z</time>
</trkpt>
<trkpt lat="46.2852390" lon="9.9461340">
	<ele>2215.80</ele>
	<time>2021-08-31T12:07:45.000Z</time>
</trkpt>
<trkpt lat="46.2853240" lon="9.9460920">
	<ele>2215.40</ele>
	<time>2021-08-31T12:07:52.000Z</time>
</trkpt>
<trkpt lat="46.2853600" lon="9.9460460">
	<ele>2215.60</ele>
	<time>2021-08-31T12:07:56.000Z</time>
</trkpt>
<trkpt lat="46.2854010" lon="9.9459980">
	<ele>2215.60</ele>
	<time>2021-08-31T12:08:00.000Z</time>
</trkpt>
<trkpt lat="46.2854640" lon="9.9459160">
	<ele>2215.60</ele>
	<time>2021-08-31T12:08:06.000Z</time>
</trkpt>
<trkpt lat="46.2854850" lon="9.9458970">
	<ele>2215.80</ele>
	<time>2021-08-31T12:08:08.000Z</time>
</trkpt>
<trkpt lat="46.2855600" lon="9.9458240">
	<ele>2216.00</ele>
	<time>2021-08-31T12:08:15.000Z</time>
</trkpt>
<trkpt lat="46.2856240" lon="9.9457740">
	<ele>2216.40</ele>
	<time>2021-08-31T12:08:20.000Z</time>
</trkpt>
<trkpt lat="46.2856570" lon="9.9457470">
	<ele>2216.40</ele>
	<time>2021-08-31T12:08:23.000Z</time>
</trkpt>
<trkpt lat="46.2856890" lon="9.9457160">
	<ele>2216.20</ele>
	<time>2021-08-31T12:08:26.000Z</time>
</trkpt>
<trkpt lat="46.2857180" lon="9.9456790">
	<ele>2216.20</ele>
	<time>2021-08-31T12:08:29.000Z</time>
</trkpt>
<trkpt lat="46.2857700" lon="9.9456440">
	<ele>2216.40</ele>
	<time>2021-08-31T12:08:33.000Z</time>
</trkpt>
<trkpt lat="46.2857960" lon="9.9456260">
	<ele>2216.40</ele>
	<time>2021-08-31T12:08:35.000Z</time>
</trkpt>
<trkpt lat="46.2858350" lon="9.9456070">
	<ele>2216.40</ele>
	<time>2021-08-31T12:08:39.000Z</time>
</trkpt>
<trkpt lat="46.2859320" lon="9.9455550">
	<ele>2215.80</ele>
	<time>2021-08-31T12:08:47.000Z</time>
</trkpt>
<trkpt lat="46.2859930" lon="9.9455390">
	<ele>2215.40</ele>
	<time>2021-08-31T12:08:52.000Z</time>
</trkpt>
<trkpt lat="46.2860620" lon="9.9455290">
	<ele>2216.00</ele>
	<time>2021-08-31T12:08:58.000Z</time>
</trkpt>
<trkpt lat="46.2860800" lon="9.9455180">
	<ele>2216.00</ele>
	<time>2021-08-31T12:09:01.000Z</time>
</trkpt>
<trkpt lat="46.2860880" lon="9.9455210">
	<ele>2216.00</ele>
	<time>2021-08-31T12:09:03.000Z</time>
</trkpt>
<trkpt lat="46.2860990" lon="9.9455150">
	<ele>2216.00</ele>
	<time>2021-08-31T12:09:05.000Z</time>
</trkpt>
<trkpt lat="46.2861090" lon="9.9455140">
	<ele>2216.00</ele>
	<time>2021-08-31T12:09:06.000Z</time>
</trkpt>
<trkpt lat="46.2861310" lon="9.9455120">
	<ele>2216.20</ele>
	<time>2021-08-31T12:09:08.000Z</time>
</trkpt>
<trkpt lat="46.2861710" lon="9.9455030">
	<ele>2216.20</ele>
	<time>2021-08-31T12:09:11.000Z</time>
</trkpt>
<trkpt lat="46.2861840" lon="9.9454970">
	<ele>2216.20</ele>
	<time>2021-08-31T12:09:12.000Z</time>
</trkpt>
<trkpt lat="46.2862660" lon="9.9455180">
	<ele>2216.40</ele>
	<time>2021-08-31T12:09:19.000Z</time>
</trkpt>
<trkpt lat="46.2862730" lon="9.9455150">
	<ele>2216.60</ele>
	<time>2021-08-31T12:09:20.000Z</time>
</trkpt>
<trkpt lat="46.2862910" lon="9.9455100">
	<ele>2216.80</ele>
	<time>2021-08-31T12:09:22.000Z</time>
</trkpt>
<trkpt lat="46.2863130" lon="9.9455110">
	<ele>2216.80</ele>
	<time>2021-08-31T12:09:24.000Z</time>
</trkpt>
<trkpt lat="46.2863230" lon="9.9455140">
	<ele>2217.00</ele>
	<time>2021-08-31T12:09:25.000Z</time>
</trkpt>
<trkpt lat="46.2863430" lon="9.9455150">
	<ele>2216.80</ele>
	<time>2021-08-31T12:09:31.000Z</time>
</trkpt>
<trkpt lat="46.2863450" lon="9.9455110">
	<ele>2216.80</ele>
	<time>2021-08-31T12:09:32.000Z</time>
</trkpt>
<trkpt lat="46.2863300" lon="9.9455010">
	<ele>2216.60</ele>
	<time>2021-08-31T12:09:37.000Z</time>
</trkpt>
<trkpt lat="46.2863400" lon="9.9455080">
	<ele>2217.40</ele>
	<time>2021-08-31T12:09:46.000Z</time>
</trkpt>
<trkpt lat="46.2863720" lon="9.9455340">
	<ele>2216.80</ele>
	<time>2021-08-31T12:09:56.000Z</time>
</trkpt>
<trkpt lat="46.2863870" lon="9.9455430">
	<ele>2216.80</ele>
	<time>2021-08-31T12:09:57.000Z</time>
</trkpt>
<trkpt lat="46.2864670" lon="9.9455510">
	<ele>2216.40</ele>
	<time>2021-08-31T12:10:03.000Z</time>
</trkpt>
<trkpt lat="46.2865380" lon="9.9455310">
	<ele>2216.40</ele>
	<time>2021-08-31T12:10:10.000Z</time>
</trkpt>
<trkpt lat="46.2865480" lon="9.9455300">
	<ele>2216.20</ele>
	<time>2021-08-31T12:10:11.000Z</time>
</trkpt>
<trkpt lat="46.2866130" lon="9.9455550">
	<ele>2216.00</ele>
	<time>2021-08-31T12:10:16.000Z</time>
</trkpt>
<trkpt lat="46.2866270" lon="9.9455550">
	<ele>2216.00</ele>
	<time>2021-08-31T12:10:17.000Z</time>
</trkpt>
<trkpt lat="46.2866410" lon="9.9455540">
	<ele>2215.80</ele>
	<time>2021-08-31T12:10:18.000Z</time>
</trkpt>
<trkpt lat="46.2867150" lon="9.9455180">
	<ele>2215.80</ele>
	<time>2021-08-31T12:10:24.000Z</time>
</trkpt>
<trkpt lat="46.2867540" lon="9.9454930">
	<ele>2215.80</ele>
	<time>2021-08-31T12:10:27.000Z</time>
</trkpt>
<trkpt lat="46.2868150" lon="9.9454550">
	<ele>2217.00</ele>
	<time>2021-08-31T12:10:36.000Z</time>
</trkpt>
<trkpt lat="46.2868700" lon="9.9454210">
	<ele>2217.40</ele>
	<time>2021-08-31T12:10:44.000Z</time>
</trkpt>
<trkpt lat="46.2868690" lon="9.9454210">
	<ele>2217.40</ele>
	<time>2021-08-31T12:10:46.000Z</time>
</trkpt>
<trkpt lat="46.2868670" lon="9.9454140">
	<ele>2217.00</ele>
	<time>2021-08-31T12:10:54.000Z</time>
</trkpt>
<trkpt lat="46.2868670" lon="9.9454140">
	<ele>2217.00</ele>
	<time>2021-08-31T12:10:56.000Z</time>
</trkpt>
<trkpt lat="46.2868670" lon="9.9454140">
	<ele>2217.00</ele>
	<time>2021-08-31T12:11:02.000Z</time>
</trkpt>
<trkpt lat="46.2868670" lon="9.9454140">
	<ele>2217.00</ele>
	<time>2021-08-31T12:11:04.000Z</time>
</trkpt>
<trkpt lat="46.2868690" lon="9.9454190">
	<ele>2217.00</ele>
	<time>2021-08-31T12:11:09.000Z</time>
</trkpt>
<trkpt lat="46.2868710" lon="9.9454210">
	<ele>2217.00</ele>
	<time>2021-08-31T12:11:11.000Z</time>
</trkpt>
<trkpt lat="46.2868740" lon="9.9454230">
	<ele>2217.00</ele>
	<time>2021-08-31T12:11:12.000Z</time>
</trkpt>
<trkpt lat="46.2868780" lon="9.9454260">
	<ele>2217.00</ele>
	<time>2021-08-31T12:11:14.000Z</time>
</trkpt>
<trkpt lat="46.2869290" lon="9.9454390">
	<ele>2217.00</ele>
	<time>2021-08-31T12:11:24.000Z</time>
</trkpt>
<trkpt lat="46.2869590" lon="9.9454470">
	<ele>2217.00</ele>
	<time>2021-08-31T12:11:31.000Z</time>
</trkpt>
<trkpt lat="46.2869610" lon="9.9454460">
	<ele>2217.00</ele>
	<time>2021-08-31T12:11:33.000Z</time>
</trkpt>
<trkpt lat="46.2869610" lon="9.9454440">
	<ele>2217.00</ele>
	<time>2021-08-31T12:11:35.000Z</time>
</trkpt>
<trkpt lat="46.2869640" lon="9.9454440">
	<ele>2217.00</ele>
	<time>2021-08-31T12:11:37.000Z</time>
</trkpt>
<trkpt lat="46.2869770" lon="9.9454280">
	<ele>2217.00</ele>
	<time>2021-08-31T12:11:41.000Z</time>
</trkpt>
<trkpt lat="46.2869880" lon="9.9453860">
	<ele>2217.00</ele>
	<time>2021-08-31T12:11:47.000Z</time>
</trkpt>
<trkpt lat="46.2869910" lon="9.9453750">
	<ele>2217.00</ele>
	<time>2021-08-31T12:11:50.000Z</time>
</trkpt>
<trkpt lat="46.2870030" lon="9.9453680">
	<ele>2213.20</ele>
	<time>2021-08-31T12:11:52.000Z</time>
</trkpt>
<trkpt lat="46.2870120" lon="9.9453660">
	<ele>2213.20</ele>
	<time>2021-08-31T12:11:53.000Z</time>
</trkpt>
<trkpt lat="46.2870320" lon="9.9453320">
	<ele>2213.00</ele>
	<time>2021-08-31T12:11:59.000Z</time>
</trkpt>
<trkpt lat="46.2870680" lon="9.9452970">
	<ele>2212.20</ele>
	<time>2021-08-31T12:12:05.000Z</time>
</trkpt>
<trkpt lat="46.2870790" lon="9.9452890">
	<ele>2212.00</ele>
	<time>2021-08-31T12:12:06.000Z</time>
</trkpt>
<trkpt lat="46.2871420" lon="9.9452250">
	<ele>2212.00</ele>
	<time>2021-08-31T12:12:13.000Z</time>
</trkpt>
<trkpt lat="46.2872250" lon="9.9451690">
	<ele>2213.20</ele>
	<time>2021-08-31T12:12:23.000Z</time>
</trkpt>
<trkpt lat="46.2872330" lon="9.9451720">
	<ele>2213.40</ele>
	<time>2021-08-31T12:12:24.000Z</time>
</trkpt>
<trkpt lat="46.2873050" lon="9.9451940">
	<ele>2214.60</ele>
	<time>2021-08-31T12:12:32.000Z</time>
</trkpt>
<trkpt lat="46.2873240" lon="9.9452020">
	<ele>2215.00</ele>
	<time>2021-08-31T12:12:34.000Z</time>
</trkpt>
<trkpt lat="46.2873510" lon="9.9451980">
	<ele>2215.60</ele>
	<time>2021-08-31T12:12:37.000Z</time>
</trkpt>
<trkpt lat="46.2873940" lon="9.9451810">
	<ele>2216.00</ele>
	<time>2021-08-31T12:12:41.000Z</time>
</trkpt>
<trkpt lat="46.2874000" lon="9.9451760">
	<ele>2216.00</ele>
	<time>2021-08-31T12:12:42.000Z</time>
</trkpt>
<trkpt lat="46.2874140" lon="9.9451680">
	<ele>2215.80</ele>
	<time>2021-08-31T12:12:45.000Z</time>
</trkpt>
<trkpt lat="46.2874320" lon="9.9451670">
	<ele>2215.80</ele>
	<time>2021-08-31T12:12:48.000Z</time>
</trkpt>
<trkpt lat="46.2874570" lon="9.9451540">
	<ele>2214.80</ele>
	<time>2021-08-31T12:12:53.000Z</time>
</trkpt>
<trkpt lat="46.2874680" lon="9.9451640">
	<ele>2214.60</ele>
	<time>2021-08-31T12:12:54.000Z</time>
</trkpt>
<trkpt lat="46.2874710" lon="9.9451640">
	<ele>2214.40</ele>
	<time>2021-08-31T12:12:55.000Z</time>
</trkpt>
<trkpt lat="46.2875190" lon="9.9451650">
	<ele>2213.60</ele>
	<time>2021-08-31T12:13:00.000Z</time>
</trkpt>
<trkpt lat="46.2875320" lon="9.9451690">
	<ele>2213.40</ele>
	<time>2021-08-31T12:13:01.000Z</time>
</trkpt>
<trkpt lat="46.2876460" lon="9.9451790">
	<ele>2212.60</ele>
	<time>2021-08-31T12:13:10.000Z</time>
</trkpt>
<trkpt lat="46.2876560" lon="9.9451760">
	<ele>2212.60</ele>
	<time>2021-08-31T12:13:11.000Z</time>
</trkpt>
<trkpt lat="46.2876950" lon="9.9451480">
	<ele>2212.20</ele>
	<time>2021-08-31T12:13:15.000Z</time>
</trkpt>
<trkpt lat="46.2877130" lon="9.9451370">
	<ele>2211.60</ele>
	<time>2021-08-31T12:13:17.000Z</time>
</trkpt>
<trkpt lat="46.2877190" lon="9.9451340">
	<ele>2211.20</ele>
	<time>2021-08-31T12:13:18.000Z</time>
</trkpt>
<trkpt lat="46.2877370" lon="9.9451270">
	<ele>2211.00</ele>
	<time>2021-08-31T12:13:20.000Z</time>
</trkpt>
<trkpt lat="46.2877440" lon="9.9451150">
	<ele>2210.80</ele>
	<time>2021-08-31T12:13:23.000Z</time>
</trkpt>
<trkpt lat="46.2877420" lon="9.9451110">
	<ele>2210.80</ele>
	<time>2021-08-31T12:13:24.000Z</time>
</trkpt>
<trkpt lat="46.2877430" lon="9.9451170">
	<ele>2210.60</ele>
	<time>2021-08-31T12:13:26.000Z</time>
</trkpt>
<trkpt lat="46.2877730" lon="9.9451070">
	<ele>2210.40</ele>
	<time>2021-08-31T12:13:30.000Z</time>
</trkpt>
<trkpt lat="46.2877850" lon="9.9450980">
	<ele>2210.00</ele>
	<time>2021-08-31T12:13:32.000Z</time>
</trkpt>
<trkpt lat="46.2878220" lon="9.9450730">
	<ele>2209.40</ele>
	<time>2021-08-31T12:13:36.000Z</time>
</trkpt>
<trkpt lat="46.2878290" lon="9.9450650">
	<ele>2209.00</ele>
	<time>2021-08-31T12:13:39.000Z</time>
</trkpt>
<trkpt lat="46.2878310" lon="9.9450540">
	<ele>2208.60</ele>
	<time>2021-08-31T12:13:46.000Z</time>
</trkpt>
<trkpt lat="46.2878550" lon="9.9450520">
	<ele>2208.40</ele>
	<time>2021-08-31T12:13:48.000Z</time>
</trkpt>
<trkpt lat="46.2878700" lon="9.9450490">
	<ele>2208.20</ele>
	<time>2021-08-31T12:13:49.000Z</time>
</trkpt>
<trkpt lat="46.2879060" lon="9.9450240">
	<ele>2207.60</ele>
	<time>2021-08-31T12:13:53.000Z</time>
</trkpt>
<trkpt lat="46.2879210" lon="9.9450040">
	<ele>2207.20</ele>
	<time>2021-08-31T12:13:55.000Z</time>
</trkpt>
<trkpt lat="46.2879510" lon="9.9449810">
	<ele>2206.80</ele>
	<time>2021-08-31T12:13:58.000Z</time>
</trkpt>
<trkpt lat="46.2879800" lon="9.9449410">
	<ele>2206.00</ele>
	<time>2021-08-31T12:14:02.000Z</time>
</trkpt>
<trkpt lat="46.2879920" lon="9.9449370">
	<ele>2206.00</ele>
	<time>2021-08-31T12:14:03.000Z</time>
</trkpt>
<trkpt lat="46.2880330" lon="9.9449060">
	<ele>2205.40</ele>
	<time>2021-08-31T12:14:07.000Z</time>
</trkpt>
<trkpt lat="46.2880590" lon="9.9449000">
	<ele>2205.00</ele>
	<time>2021-08-31T12:14:09.000Z</time>
</trkpt>
<trkpt lat="46.2880700" lon="9.9448960">
	<ele>2204.80</ele>
	<time>2021-08-31T12:14:10.000Z</time>
</trkpt>
<trkpt lat="46.2881050" lon="9.9448580">
	<ele>2204.00</ele>
	<time>2021-08-31T12:14:14.000Z</time>
</trkpt>
<trkpt lat="46.2881140" lon="9.9448510">
	<ele>2203.80</ele>
	<time>2021-08-31T12:14:15.000Z</time>
</trkpt>
<trkpt lat="46.2881220" lon="9.9448440">
	<ele>2203.80</ele>
	<time>2021-08-31T12:14:16.000Z</time>
</trkpt>
<trkpt lat="46.2881770" lon="9.9447990">
	<ele>2202.80</ele>
	<time>2021-08-31T12:14:22.000Z</time>
</trkpt>
<trkpt lat="46.2881870" lon="9.9447950">
	<ele>2202.60</ele>
	<time>2021-08-31T12:14:23.000Z</time>
</trkpt>
<trkpt lat="46.2882320" lon="9.9447660">
	<ele>2201.80</ele>
	<time>2021-08-31T12:14:28.000Z</time>
</trkpt>
<trkpt lat="46.2882790" lon="9.9447180">
	<ele>2200.80</ele>
	<time>2021-08-31T12:14:33.000Z</time>
</trkpt>
<trkpt lat="46.2882850" lon="9.9447120">
	<ele>2200.80</ele>
	<time>2021-08-31T12:14:34.000Z</time>
</trkpt>
<trkpt lat="46.2882920" lon="9.9447090">
	<ele>2200.60</ele>
	<time>2021-08-31T12:14:37.000Z</time>
</trkpt>
<trkpt lat="46.2882970" lon="9.9447120">
	<ele>2200.60</ele>
	<time>2021-08-31T12:14:39.000Z</time>
</trkpt>
<trkpt lat="46.2883140" lon="9.9447190">
	<ele>2200.40</ele>
	<time>2021-08-31T12:14:53.000Z</time>
</trkpt>
<trkpt lat="46.2883160" lon="9.9447130">
	<ele>2200.40</ele>
	<time>2021-08-31T12:14:56.000Z</time>
</trkpt>
<trkpt lat="46.2883960" lon="9.9446150">
	<ele>2199.60</ele>
	<time>2021-08-31T12:15:03.000Z</time>
</trkpt>
<trkpt lat="46.2885050" lon="9.9445050">
	<ele>2198.80</ele>
	<time>2021-08-31T12:15:12.000Z</time>
</trkpt>
<trkpt lat="46.2885270" lon="9.9444900">
	<ele>2198.60</ele>
	<time>2021-08-31T12:15:14.000Z</time>
</trkpt>
<trkpt lat="46.2886160" lon="9.9444370">
	<ele>2198.00</ele>
	<time>2021-08-31T12:15:22.000Z</time>
</trkpt>
<trkpt lat="46.2887240" lon="9.9443960">
	<ele>2197.60</ele>
	<time>2021-08-31T12:15:31.000Z</time>
</trkpt>
<trkpt lat="46.2887510" lon="9.9443850">
	<ele>2197.60</ele>
	<time>2021-08-31T12:15:33.000Z</time>
</trkpt>
<trkpt lat="46.2888250" lon="9.9443570">
	<ele>2196.60</ele>
	<time>2021-08-31T12:15:39.000Z</time>
</trkpt>
<trkpt lat="46.2888320" lon="9.9443520">
	<ele>2196.40</ele>
	<time>2021-08-31T12:15:40.000Z</time>
</trkpt>
<trkpt lat="46.2888430" lon="9.9443470">
	<ele>2196.20</ele>
	<time>2021-08-31T12:15:41.000Z</time>
</trkpt>
<trkpt lat="46.2889050" lon="9.9443360">
	<ele>2195.20</ele>
	<time>2021-08-31T12:15:46.000Z</time>
</trkpt>
<trkpt lat="46.2889510" lon="9.9443220">
	<ele>2194.60</ele>
	<time>2021-08-31T12:15:50.000Z</time>
</trkpt>
<trkpt lat="46.2889740" lon="9.9443120">
	<ele>2194.20</ele>
	<time>2021-08-31T12:15:52.000Z</time>
</trkpt>
<trkpt lat="46.2890680" lon="9.9442800">
	<ele>2193.20</ele>
	<time>2021-08-31T12:15:59.000Z</time>
</trkpt>
<trkpt lat="46.2891120" lon="9.9442790">
	<ele>2192.80</ele>
	<time>2021-08-31T12:16:02.000Z</time>
</trkpt>
<trkpt lat="46.2891970" lon="9.9442570">
	<ele>2192.00</ele>
	<time>2021-08-31T12:16:08.000Z</time>
</trkpt>
<trkpt lat="46.2892630" lon="9.9442270">
	<ele>2191.60</ele>
	<time>2021-08-31T12:16:13.000Z</time>
</trkpt>
<trkpt lat="46.2892750" lon="9.9442160">
	<ele>2191.60</ele>
	<time>2021-08-31T12:16:14.000Z</time>
</trkpt>
<trkpt lat="46.2893440" lon="9.9441600">
	<ele>2191.60</ele>
	<time>2021-08-31T12:16:20.000Z</time>
</trkpt>
<trkpt lat="46.2893920" lon="9.9441040">
	<ele>2191.40</ele>
	<time>2021-08-31T12:16:24.000Z</time>
</trkpt>
<trkpt lat="46.2894410" lon="9.9439610">
	<ele>2191.40</ele>
	<time>2021-08-31T12:16:33.000Z</time>
</trkpt>
<trkpt lat="46.2894870" lon="9.9438790">
	<ele>2191.00</ele>
	<time>2021-08-31T12:16:38.000Z</time>
</trkpt>
<trkpt lat="46.2895420" lon="9.9437970">
	<ele>2190.20</ele>
	<time>2021-08-31T12:16:43.000Z</time>
</trkpt>
<trkpt lat="46.2895530" lon="9.9437820">
	<ele>2190.00</ele>
	<time>2021-08-31T12:16:44.000Z</time>
</trkpt>
<trkpt lat="46.2896100" lon="9.9436510">
	<ele>2189.20</ele>
	<time>2021-08-31T12:16:52.000Z</time>
</trkpt>
<trkpt lat="46.2896340" lon="9.9436130">
	<ele>2189.00</ele>
	<time>2021-08-31T12:16:55.000Z</time>
</trkpt>
<trkpt lat="46.2897120" lon="9.9435700">
	<ele>2188.20</ele>
	<time>2021-08-31T12:17:02.000Z</time>
</trkpt>
<trkpt lat="46.2898640" lon="9.9435890">
	<ele>2188.20</ele>
	<time>2021-08-31T12:17:14.000Z</time>
</trkpt>
<trkpt lat="46.2899210" lon="9.9436020">
	<ele>2188.00</ele>
	<time>2021-08-31T12:17:18.000Z</time>
</trkpt>
<trkpt lat="46.2900330" lon="9.9436470">
	<ele>2188.40</ele>
	<time>2021-08-31T12:17:27.000Z</time>
</trkpt>
<trkpt lat="46.2901220" lon="9.9437440">
	<ele>2189.00</ele>
	<time>2021-08-31T12:17:36.000Z</time>
</trkpt>
<trkpt lat="46.2902170" lon="9.9438010">
	<ele>2189.40</ele>
	<time>2021-08-31T12:17:44.000Z</time>
</trkpt>
<trkpt lat="46.2902680" lon="9.9438340">
	<ele>2189.80</ele>
	<time>2021-08-31T12:17:48.000Z</time>
</trkpt>
<trkpt lat="46.2903190" lon="9.9438690">
	<ele>2190.00</ele>
	<time>2021-08-31T12:17:53.000Z</time>
</trkpt>
<trkpt lat="46.2903790" lon="9.9439010">
	<ele>2190.40</ele>
	<time>2021-08-31T12:17:59.000Z</time>
</trkpt>
<trkpt lat="46.2903900" lon="9.9439080">
	<ele>2190.40</ele>
	<time>2021-08-31T12:18:01.000Z</time>
</trkpt>
<trkpt lat="46.2904000" lon="9.9439030">
	<ele>2190.40</ele>
	<time>2021-08-31T12:18:04.000Z</time>
</trkpt>
<trkpt lat="46.2904010" lon="9.9439040">
	<ele>2190.60</ele>
	<time>2021-08-31T12:18:05.000Z</time>
</trkpt>
<trkpt lat="46.2904000" lon="9.9439020">
	<ele>2190.40</ele>
	<time>2021-08-31T12:18:12.000Z</time>
</trkpt>
<trkpt lat="46.2904000" lon="9.9439020">
	<ele>2190.20</ele>
	<time>2021-08-31T12:18:17.000Z</time>
</trkpt>
<trkpt lat="46.2904000" lon="9.9439020">
	<ele>2190.20</ele>
	<time>2021-08-31T12:18:18.000Z</time>
</trkpt>
<trkpt lat="46.2904000" lon="9.9439020">
	<ele>2191.00</ele>
	<time>2021-08-31T12:18:20.000Z</time>
</trkpt>
<trkpt lat="46.2904000" lon="9.9439020">
	<ele>2191.20</ele>
	<time>2021-08-31T12:18:21.000Z</time>
</trkpt>
<trkpt lat="46.2903890" lon="9.9438930">
	<ele>2190.00</ele>
	<time>2021-08-31T12:18:33.000Z</time>
</trkpt>
<trkpt lat="46.2903880" lon="9.9438930">
	<ele>2190.00</ele>
	<time>2021-08-31T12:18:42.000Z</time>
</trkpt>
<trkpt lat="46.2903870" lon="9.9438940">
	<ele>2190.20</ele>
	<time>2021-08-31T12:18:45.000Z</time>
</trkpt>
<trkpt lat="46.2903900" lon="9.9439190">
	<ele>2191.00</ele>
	<time>2021-08-31T12:18:56.000Z</time>
</trkpt>
<trkpt lat="46.2903950" lon="9.9439570">
	<ele>2191.20</ele>
	<time>2021-08-31T12:18:58.000Z</time>
</trkpt>
<trkpt lat="46.2904180" lon="9.9440410">
	<ele>2191.40</ele>
	<time>2021-08-31T12:19:02.000Z</time>
</trkpt>
<trkpt lat="46.2904390" lon="9.9441060">
	<ele>2191.40</ele>
	<time>2021-08-31T12:19:05.000Z</time>
</trkpt>
<trkpt lat="46.2905020" lon="9.9442750">
	<ele>2192.00</ele>
	<time>2021-08-31T12:19:15.000Z</time>
</trkpt>
<trkpt lat="46.2905060" lon="9.9442880">
	<ele>2192.20</ele>
	<time>2021-08-31T12:19:17.000Z</time>
</trkpt>
<trkpt lat="46.2905380" lon="9.9442820">
	<ele>2192.20</ele>
	<time>2021-08-31T12:19:20.000Z</time>
</trkpt>
<trkpt lat="46.2905420" lon="9.9442840">
	<ele>2192.40</ele>
	<time>2021-08-31T12:19:21.000Z</time>
</trkpt>
<trkpt lat="46.2905430" lon="9.9442870">
	<ele>2192.80</ele>
	<time>2021-08-31T12:19:23.000Z</time>
</trkpt>
<trkpt lat="46.2905510" lon="9.9443010">
	<ele>2192.40</ele>
	<time>2021-08-31T12:19:34.000Z</time>
</trkpt>
<trkpt lat="46.2905400" lon="9.9443780">
	<ele>2192.20</ele>
	<time>2021-08-31T12:19:40.000Z</time>
</trkpt>
<trkpt lat="46.2905580" lon="9.9444830">
	<ele>2192.60</ele>
	<time>2021-08-31T12:19:47.000Z</time>
</trkpt>
<trkpt lat="46.2905590" lon="9.9445010">
	<ele>2192.80</ele>
	<time>2021-08-31T12:19:48.000Z</time>
</trkpt>
<trkpt lat="46.2905700" lon="9.9445440">
	<ele>2193.20</ele>
	<time>2021-08-31T12:19:51.000Z</time>
</trkpt>
<trkpt lat="46.2905950" lon="9.9446140">
	<ele>2193.80</ele>
	<time>2021-08-31T12:19:56.000Z</time>
</trkpt>
<trkpt lat="46.2906620" lon="9.9447620">
	<ele>2193.20</ele>
	<time>2021-08-31T12:20:06.000Z</time>
</trkpt>
<trkpt lat="46.2906900" lon="9.9449020">
	<ele>2192.20</ele>
	<time>2021-08-31T12:20:14.000Z</time>
</trkpt>
<trkpt lat="46.2906980" lon="9.9449580">
	<ele>2191.80</ele>
	<time>2021-08-31T12:20:17.000Z</time>
</trkpt>
<trkpt lat="46.2907150" lon="9.9451190">
	<ele>2191.60</ele>
	<time>2021-08-31T12:20:26.000Z</time>
</trkpt>
<trkpt lat="46.2907320" lon="9.9451910">
	<ele>2191.40</ele>
	<time>2021-08-31T12:20:30.000Z</time>
</trkpt>
<trkpt lat="46.2907740" lon="9.9452850">
	<ele>2191.40</ele>
	<time>2021-08-31T12:20:36.000Z</time>
</trkpt>
<trkpt lat="46.2908620" lon="9.9453810">
	<ele>2191.20</ele>
	<time>2021-08-31T12:20:45.000Z</time>
</trkpt>
<trkpt lat="46.2908740" lon="9.9453930">
	<ele>2191.00</ele>
	<time>2021-08-31T12:20:46.000Z</time>
</trkpt>
<trkpt lat="46.2909680" lon="9.9455350">
	<ele>2190.60</ele>
	<time>2021-08-31T12:20:55.000Z</time>
</trkpt>
<trkpt lat="46.2910300" lon="9.9456350">
	<ele>2190.20</ele>
	<time>2021-08-31T12:21:03.000Z</time>
</trkpt>
<trkpt lat="46.2910570" lon="9.9456740">
	<ele>2190.20</ele>
	<time>2021-08-31T12:21:06.000Z</time>
</trkpt>
<trkpt lat="46.2910700" lon="9.9457090">
	<ele>2190.00</ele>
	<time>2021-08-31T12:21:08.000Z</time>
</trkpt>
<trkpt lat="46.2910850" lon="9.9457970">
	<ele>2189.60</ele>
	<time>2021-08-31T12:21:13.000Z</time>
</trkpt>
<trkpt lat="46.2911220" lon="9.9459020">
	<ele>2189.00</ele>
	<time>2021-08-31T12:21:19.000Z</time>
</trkpt>
<trkpt lat="46.2911460" lon="9.9459460">
	<ele>2188.40</ele>
	<time>2021-08-31T12:21:22.000Z</time>
</trkpt>
<trkpt lat="46.2911870" lon="9.9460250">
	<ele>2188.00</ele>
	<time>2021-08-31T12:21:27.000Z</time>
</trkpt>
<trkpt lat="46.2912190" lon="9.9460780">
	<ele>2187.60</ele>
	<time>2021-08-31T12:21:31.000Z</time>
</trkpt>
<trkpt lat="46.2912310" lon="9.9460900">
	<ele>2187.40</ele>
	<time>2021-08-31T12:21:32.000Z</time>
</trkpt>
<trkpt lat="46.2912700" lon="9.9461200">
	<ele>2187.00</ele>
	<time>2021-08-31T12:21:35.000Z</time>
</trkpt>
<trkpt lat="46.2913520" lon="9.9461740">
	<ele>2186.20</ele>
	<time>2021-08-31T12:21:42.000Z</time>
</trkpt>
<trkpt lat="46.2913600" lon="9.9461880">
	<ele>2186.00</ele>
	<time>2021-08-31T12:21:43.000Z</time>
</trkpt>
<trkpt lat="46.2913880" lon="9.9462350">
	<ele>2185.00</ele>
	<time>2021-08-31T12:21:47.000Z</time>
</trkpt>
<trkpt lat="46.2914050" lon="9.9463020">
	<ele>2183.80</ele>
	<time>2021-08-31T12:21:51.000Z</time>
</trkpt>
<trkpt lat="46.2914100" lon="9.9463200">
	<ele>2183.60</ele>
	<time>2021-08-31T12:21:52.000Z</time>
</trkpt>
<trkpt lat="46.2914130" lon="9.9463850">
	<ele>2182.80</ele>
	<time>2021-08-31T12:21:56.000Z</time>
</trkpt>
<trkpt lat="46.2914230" lon="9.9464550">
	<ele>2181.60</ele>
	<time>2021-08-31T12:22:00.000Z</time>
</trkpt>
<trkpt lat="46.2914280" lon="9.9464860">
	<ele>2181.20</ele>
	<time>2021-08-31T12:22:02.000Z</time>
</trkpt>
<trkpt lat="46.2914430" lon="9.9465670">
	<ele>2180.60</ele>
	<time>2021-08-31T12:22:07.000Z</time>
</trkpt>
<trkpt lat="46.2914510" lon="9.9465840">
	<ele>2180.60</ele>
	<time>2021-08-31T12:22:08.000Z</time>
</trkpt>
<trkpt lat="46.2914590" lon="9.9465980">
	<ele>2180.60</ele>
	<time>2021-08-31T12:22:09.000Z</time>
</trkpt>
<trkpt lat="46.2914670" lon="9.9466110">
	<ele>2180.40</ele>
	<time>2021-08-31T12:22:10.000Z</time>
</trkpt>
<trkpt lat="46.2914980" lon="9.9466570">
	<ele>2180.40</ele>
	<time>2021-08-31T12:22:13.000Z</time>
</trkpt>
<trkpt lat="46.2915680" lon="9.9466980">
	<ele>2179.60</ele>
	<time>2021-08-31T12:22:18.000Z</time>
</trkpt>
<trkpt lat="46.2915840" lon="9.9467040">
	<ele>2179.40</ele>
	<time>2021-08-31T12:22:19.000Z</time>
</trkpt>
<trkpt lat="46.2917020" lon="9.9466770">
	<ele>2179.40</ele>
	<time>2021-08-31T12:22:28.000Z</time>
</trkpt>
<trkpt lat="46.2918120" lon="9.9465460">
	<ele>2178.80</ele>
	<time>2021-08-31T12:22:37.000Z</time>
</trkpt>
<trkpt lat="46.2918240" lon="9.9465290">
	<ele>2178.80</ele>
	<time>2021-08-31T12:22:38.000Z</time>
</trkpt>
<trkpt lat="46.2919370" lon="9.9464600">
	<ele>2178.60</ele>
	<time>2021-08-31T12:22:47.000Z</time>
</trkpt>
<trkpt lat="46.2919900" lon="9.9464550">
	<ele>2178.40</ele>
	<time>2021-08-31T12:22:51.000Z</time>
</trkpt>
<trkpt lat="46.2920670" lon="9.9464770">
	<ele>2178.40</ele>
	<time>2021-08-31T12:22:57.000Z</time>
</trkpt>
<trkpt lat="46.2921020" lon="9.9464970">
	<ele>2178.20</ele>
	<time>2021-08-31T12:23:00.000Z</time>
</trkpt>
<trkpt lat="46.2921750" lon="9.9465490">
	<ele>2178.80</ele>
	<time>2021-08-31T12:23:06.000Z</time>
</trkpt>
<trkpt lat="46.2921960" lon="9.9465650">
	<ele>2179.20</ele>
	<time>2021-08-31T12:23:08.000Z</time>
</trkpt>
<trkpt lat="46.2922820" lon="9.9466590">
	<ele>2179.60</ele>
	<time>2021-08-31T12:23:17.000Z</time>
</trkpt>
<trkpt lat="46.2923090" lon="9.9467020">
	<ele>2179.80</ele>
	<time>2021-08-31T12:23:20.000Z</time>
</trkpt>
<trkpt lat="46.2923150" lon="9.9467220">
	<ele>2180.00</ele>
	<time>2021-08-31T12:23:21.000Z</time>
</trkpt>
<trkpt lat="46.2923220" lon="9.9467830">
	<ele>2179.80</ele>
	<time>2021-08-31T12:23:24.000Z</time>
</trkpt>
<trkpt lat="46.2923210" lon="9.9468570">
	<ele>2179.80</ele>
	<time>2021-08-31T12:23:28.000Z</time>
</trkpt>
<trkpt lat="46.2923390" lon="9.9470640">
	<ele>2180.60</ele>
	<time>2021-08-31T12:23:39.000Z</time>
</trkpt>
<trkpt lat="46.2923410" lon="9.9470810">
	<ele>2180.80</ele>
	<time>2021-08-31T12:23:40.000Z</time>
</trkpt>
<trkpt lat="46.2923590" lon="9.9472360">
	<ele>2181.80</ele>
	<time>2021-08-31T12:23:49.000Z</time>
</trkpt>
<trkpt lat="46.2923650" lon="9.9472700">
	<ele>2182.20</ele>
	<time>2021-08-31T12:23:51.000Z</time>
</trkpt>
<trkpt lat="46.2924020" lon="9.9473440">
	<ele>2182.80</ele>
	<time>2021-08-31T12:23:56.000Z</time>
</trkpt>
<trkpt lat="46.2924250" lon="9.9473610">
	<ele>2183.00</ele>
	<time>2021-08-31T12:23:58.000Z</time>
</trkpt>
<trkpt lat="46.2924360" lon="9.9473680">
	<ele>2183.00</ele>
	<time>2021-08-31T12:23:59.000Z</time>
</trkpt>
<trkpt lat="46.2924780" lon="9.9473730">
	<ele>2183.20</ele>
	<time>2021-08-31T12:24:02.000Z</time>
</trkpt>
<trkpt lat="46.2925050" lon="9.9473640">
	<ele>2183.20</ele>
	<time>2021-08-31T12:24:04.000Z</time>
</trkpt>
<trkpt lat="46.2925480" lon="9.9473440">
	<ele>2183.60</ele>
	<time>2021-08-31T12:24:08.000Z</time>
</trkpt>
<trkpt lat="46.2926320" lon="9.9473090">
	<ele>2184.00</ele>
	<time>2021-08-31T12:24:15.000Z</time>
</trkpt>
<trkpt lat="46.2926940" lon="9.9472910">
	<ele>2184.40</ele>
	<time>2021-08-31T12:24:20.000Z</time>
</trkpt>
<trkpt lat="46.2927020" lon="9.9472900">
	<ele>2184.40</ele>
	<time>2021-08-31T12:24:21.000Z</time>
</trkpt>
<trkpt lat="46.2927340" lon="9.9472940">
	<ele>2184.60</ele>
	<time>2021-08-31T12:24:24.000Z</time>
</trkpt>
<trkpt lat="46.2927710" lon="9.9473030">
	<ele>2185.00</ele>
	<time>2021-08-31T12:24:27.000Z</time>
</trkpt>
<trkpt lat="46.2928250" lon="9.9473290">
	<ele>2185.20</ele>
	<time>2021-08-31T12:24:31.000Z</time>
</trkpt>
<trkpt lat="46.2929700" lon="9.9474140">
	<ele>2185.40</ele>
	<time>2021-08-31T12:24:43.000Z</time>
</trkpt>
<trkpt lat="46.2930770" lon="9.9475380">
	<ele>2185.20</ele>
	<time>2021-08-31T12:24:53.000Z</time>
</trkpt>
<trkpt lat="46.2931400" lon="9.9477620">
	<ele>2185.40</ele>
	<time>2021-08-31T12:25:05.000Z</time>
</trkpt>
<trkpt lat="46.2931620" lon="9.9478560">
	<ele>2186.00</ele>
	<time>2021-08-31T12:25:10.000Z</time>
</trkpt>
<trkpt lat="46.2931840" lon="9.9479490">
	<ele>2186.60</ele>
	<time>2021-08-31T12:25:15.000Z</time>
</trkpt>
<trkpt lat="46.2932640" lon="9.9480520">
	<ele>2186.20</ele>
	<time>2021-08-31T12:25:24.000Z</time>
</trkpt>
<trkpt lat="46.2933690" lon="9.9481770">
	<ele>2185.80</ele>
	<time>2021-08-31T12:25:35.000Z</time>
</trkpt>
<trkpt lat="46.2934590" lon="9.9483200">
	<ele>2185.20</ele>
	<time>2021-08-31T12:25:44.000Z</time>
</trkpt>
<trkpt lat="46.2934770" lon="9.9483510">
	<ele>2184.80</ele>
	<time>2021-08-31T12:25:46.000Z</time>
</trkpt>
<trkpt lat="46.2935400" lon="9.9484900">
	<ele>2184.80</ele>
	<time>2021-08-31T12:25:54.000Z</time>
</trkpt>
<trkpt lat="46.2935860" lon="9.9486430">
	<ele>2185.80</ele>
	<time>2021-08-31T12:26:02.000Z</time>
</trkpt>
<trkpt lat="46.2935880" lon="9.9486600">
	<ele>2186.00</ele>
	<time>2021-08-31T12:26:03.000Z</time>
</trkpt>
<trkpt lat="46.2936090" lon="9.9487810">
	<ele>2186.60</ele>
	<time>2021-08-31T12:26:10.000Z</time>
</trkpt>
<trkpt lat="46.2936190" lon="9.9488430">
	<ele>2186.80</ele>
	<time>2021-08-31T12:26:13.000Z</time>
</trkpt>
<trkpt lat="46.2936500" lon="9.9489220">
	<ele>2187.00</ele>
	<time>2021-08-31T12:26:18.000Z</time>
</trkpt>
<trkpt lat="46.2936570" lon="9.9489360">
	<ele>2187.00</ele>
	<time>2021-08-31T12:26:19.000Z</time>
</trkpt>
<trkpt lat="46.2937600" lon="9.9490300">
	<ele>2187.00</ele>
	<time>2021-08-31T12:26:28.000Z</time>
</trkpt>
<trkpt lat="46.2938890" lon="9.9490900">
	<ele>2186.80</ele>
	<time>2021-08-31T12:26:38.000Z</time>
</trkpt>
<trkpt lat="46.2940160" lon="9.9491330">
	<ele>2187.60</ele>
	<time>2021-08-31T12:26:49.000Z</time>
</trkpt>
<trkpt lat="46.2940770" lon="9.9491490">
	<ele>2188.00</ele>
	<time>2021-08-31T12:26:53.000Z</time>
</trkpt>
<trkpt lat="46.2941720" lon="9.9491510">
	<ele>2188.00</ele>
	<time>2021-08-31T12:27:00.000Z</time>
</trkpt>
<trkpt lat="46.2942440" lon="9.9491000">
	<ele>2188.40</ele>
	<time>2021-08-31T12:27:06.000Z</time>
</trkpt>
<trkpt lat="46.2942570" lon="9.9490720">
	<ele>2188.40</ele>
	<time>2021-08-31T12:27:08.000Z</time>
</trkpt>
<trkpt lat="46.2942770" lon="9.9490420">
	<ele>2189.00</ele>
	<time>2021-08-31T12:27:11.000Z</time>
</trkpt>
<trkpt lat="46.2942810" lon="9.9490340">
	<ele>2189.20</ele>
	<time>2021-08-31T12:27:13.000Z</time>
</trkpt>
<trkpt lat="46.2942820" lon="9.9490350">
	<ele>2189.40</ele>
	<time>2021-08-31T12:27:15.000Z</time>
</trkpt>
<trkpt lat="46.2942860" lon="9.9490400">
	<ele>2189.00</ele>
	<time>2021-08-31T12:27:21.000Z</time>
</trkpt>
<trkpt lat="46.2943090" lon="9.9490370">
	<ele>2189.00</ele>
	<time>2021-08-31T12:27:23.000Z</time>
</trkpt>
<trkpt lat="46.2943900" lon="9.9489680">
	<ele>2189.00</ele>
	<time>2021-08-31T12:27:31.000Z</time>
</trkpt>
<trkpt lat="46.2944860" lon="9.9488650">
	<ele>2188.40</ele>
	<time>2021-08-31T12:27:40.000Z</time>
</trkpt>
<trkpt lat="46.2944950" lon="9.9488520">
	<ele>2188.20</ele>
	<time>2021-08-31T12:27:41.000Z</time>
</trkpt>
<trkpt lat="46.2945160" lon="9.9488070">
	<ele>2188.00</ele>
	<time>2021-08-31T12:27:44.000Z</time>
</trkpt>
<trkpt lat="46.2945250" lon="9.9487920">
	<ele>2188.00</ele>
	<time>2021-08-31T12:27:45.000Z</time>
</trkpt>
<trkpt lat="46.2945400" lon="9.9487560">
	<ele>2187.60</ele>
	<time>2021-08-31T12:27:47.000Z</time>
</trkpt>
<trkpt lat="46.2946140" lon="9.9486520">
	<ele>2187.00</ele>
	<time>2021-08-31T12:27:55.000Z</time>
</trkpt>
<trkpt lat="46.2947110" lon="9.9485110">
	<ele>2186.60</ele>
	<time>2021-08-31T12:28:05.000Z</time>
</trkpt>
<trkpt lat="46.2947860" lon="9.9483720">
	<ele>2185.80</ele>
	<time>2021-08-31T12:28:14.000Z</time>
</trkpt>
<trkpt lat="46.2948060" lon="9.9483170">
	<ele>2185.80</ele>
	<time>2021-08-31T12:28:17.000Z</time>
</trkpt>
<trkpt lat="46.2948180" lon="9.9482810">
	<ele>2185.80</ele>
	<time>2021-08-31T12:28:19.000Z</time>
</trkpt>
<trkpt lat="46.2948850" lon="9.9481190">
	<ele>2185.40</ele>
	<time>2021-08-31T12:28:29.000Z</time>
</trkpt>
<trkpt lat="46.2949070" lon="9.9480740">
	<ele>2184.80</ele>
	<time>2021-08-31T12:28:32.000Z</time>
</trkpt>
<trkpt lat="46.2949600" lon="9.9479590">
	<ele>2184.20</ele>
	<time>2021-08-31T12:28:39.000Z</time>
</trkpt>
<trkpt lat="46.2950270" lon="9.9479280">
	<ele>2184.00</ele>
	<time>2021-08-31T12:28:45.000Z</time>
</trkpt>
<trkpt lat="46.2950940" lon="9.9479900">
	<ele>2183.80</ele>
	<time>2021-08-31T12:28:51.000Z</time>
</trkpt>
<trkpt lat="46.2951230" lon="9.9480270">
	<ele>2184.00</ele>
	<time>2021-08-31T12:28:54.000Z</time>
</trkpt>
<trkpt lat="46.2951520" lon="9.9480660">
	<ele>2183.80</ele>
	<time>2021-08-31T12:28:57.000Z</time>
</trkpt>
<trkpt lat="46.2952020" lon="9.9481180">
	<ele>2183.60</ele>
	<time>2021-08-31T12:29:02.000Z</time>
</trkpt>
<trkpt lat="46.2952250" lon="9.9481440">
	<ele>2183.60</ele>
	<time>2021-08-31T12:29:04.000Z</time>
</trkpt>
<trkpt lat="46.2952480" lon="9.9481570">
	<ele>2184.00</ele>
	<time>2021-08-31T12:29:07.000Z</time>
</trkpt>
<trkpt lat="46.2952560" lon="9.9481650">
	<ele>2184.00</ele>
	<time>2021-08-31T12:29:09.000Z</time>
</trkpt>
<trkpt lat="46.2952600" lon="9.9481670">
	<ele>2184.00</ele>
	<time>2021-08-31T12:29:10.000Z</time>
</trkpt>
<trkpt lat="46.2953120" lon="9.9482330">
	<ele>2183.80</ele>
	<time>2021-08-31T12:29:16.000Z</time>
</trkpt>
<trkpt lat="46.2953850" lon="9.9483110">
	<ele>2184.00</ele>
	<time>2021-08-31T12:29:23.000Z</time>
</trkpt>
<trkpt lat="46.2954190" lon="9.9483500">
	<ele>2184.20</ele>
	<time>2021-08-31T12:29:26.000Z</time>
</trkpt>
<trkpt lat="46.2954770" lon="9.9484270">
	<ele>2184.20</ele>
	<time>2021-08-31T12:29:32.000Z</time>
</trkpt>
<trkpt lat="46.2955060" lon="9.9484590">
	<ele>2184.20</ele>
	<time>2021-08-31T12:29:35.000Z</time>
</trkpt>
<trkpt lat="46.2955860" lon="9.9485770">
	<ele>2184.60</ele>
	<time>2021-08-31T12:29:44.000Z</time>
</trkpt>
<trkpt lat="46.2955970" lon="9.9485910">
	<ele>2184.80</ele>
	<time>2021-08-31T12:29:45.000Z</time>
</trkpt>
<trkpt lat="46.2956610" lon="9.9486930">
	<ele>2185.00</ele>
	<time>2021-08-31T12:29:53.000Z</time>
</trkpt>
<trkpt lat="46.2957260" lon="9.9488100">
	<ele>2185.60</ele>
	<time>2021-08-31T12:30:02.000Z</time>
</trkpt>
<trkpt lat="46.2957280" lon="9.9488130">
	<ele>2185.80</ele>
	<time>2021-08-31T12:30:03.000Z</time>
</trkpt>
<trkpt lat="46.2957350" lon="9.9488210">
	<ele>2186.40</ele>
	<time>2021-08-31T12:30:08.000Z</time>
</trkpt>
<trkpt lat="46.2957330" lon="9.9488210">
	<ele>2186.40</ele>
	<time>2021-08-31T12:30:11.000Z</time>
</trkpt>
<trkpt lat="46.2957720" lon="9.9488730">
	<ele>2186.60</ele>
	<time>2021-08-31T12:30:27.000Z</time>
</trkpt>
<trkpt lat="46.2958000" lon="9.9488920">
	<ele>2186.80</ele>
	<time>2021-08-31T12:30:29.000Z</time>
</trkpt>
<trkpt lat="46.2958850" lon="9.9489250">
	<ele>2188.00</ele>
	<time>2021-08-31T12:30:35.000Z</time>
</trkpt>
<trkpt lat="46.2958960" lon="9.9489260">
	<ele>2188.20</ele>
	<time>2021-08-31T12:30:36.000Z</time>
</trkpt>
<trkpt lat="46.2960160" lon="9.9489360">
	<ele>2188.00</ele>
	<time>2021-08-31T12:30:46.000Z</time>
</trkpt>
<trkpt lat="46.2960590" lon="9.9489030">
	<ele>2187.40</ele>
	<time>2021-08-31T12:30:53.000Z</time>
</trkpt>
<trkpt lat="46.2960610" lon="9.9489040">
	<ele>2187.40</ele>
	<time>2021-08-31T12:30:54.000Z</time>
</trkpt>
<trkpt lat="46.2960560" lon="9.9489000">
	<ele>2187.20</ele>
	<time>2021-08-31T12:31:04.000Z</time>
</trkpt>
<trkpt lat="46.2960560" lon="9.9489000">
	<ele>2186.80</ele>
	<time>2021-08-31T12:31:07.000Z</time>
</trkpt>
<trkpt lat="46.2961140" lon="9.9488780">
	<ele>2185.80</ele>
	<time>2021-08-31T12:31:12.000Z</time>
</trkpt>
<trkpt lat="46.2962170" lon="9.9488460">
	<ele>2184.80</ele>
	<time>2021-08-31T12:31:18.000Z</time>
</trkpt>
<trkpt lat="46.2962660" lon="9.9488310">
	<ele>2184.00</ele>
	<time>2021-08-31T12:31:22.000Z</time>
</trkpt>
<trkpt lat="46.2963050" lon="9.9488220">
	<ele>2183.60</ele>
	<time>2021-08-31T12:31:25.000Z</time>
</trkpt>
<trkpt lat="46.2963780" lon="9.9487900">
	<ele>2182.60</ele>
	<time>2021-08-31T12:31:31.000Z</time>
</trkpt>
<trkpt lat="46.2964290" lon="9.9487660">
	<ele>2182.00</ele>
	<time>2021-08-31T12:31:35.000Z</time>
</trkpt>
<trkpt lat="46.2964630" lon="9.9487480">
	<ele>2181.60</ele>
	<time>2021-08-31T12:31:38.000Z</time>
</trkpt>
<trkpt lat="46.2965230" lon="9.9487240">
	<ele>2180.80</ele>
	<time>2021-08-31T12:31:43.000Z</time>
</trkpt>
<trkpt lat="46.2965360" lon="9.9487200">
	<ele>2180.40</ele>
	<time>2021-08-31T12:31:44.000Z</time>
</trkpt>
<trkpt lat="46.2965780" lon="9.9487040">
	<ele>2180.00</ele>
	<time>2021-08-31T12:31:47.000Z</time>
</trkpt>
<trkpt lat="46.2966220" lon="9.9486920">
	<ele>2179.40</ele>
	<time>2021-08-31T12:31:50.000Z</time>
</trkpt>
<trkpt lat="46.2966920" lon="9.9486550">
	<ele>2178.40</ele>
	<time>2021-08-31T12:31:55.000Z</time>
</trkpt>
<trkpt lat="46.2967500" lon="9.9486320">
	<ele>2177.80</ele>
	<time>2021-08-31T12:31:59.000Z</time>
</trkpt>
<trkpt lat="46.2967740" lon="9.9486150">
	<ele>2177.40</ele>
	<time>2021-08-31T12:32:01.000Z</time>
</trkpt>
<trkpt lat="46.2968290" lon="9.9485910">
	<ele>2176.80</ele>
	<time>2021-08-31T12:32:05.000Z</time>
</trkpt>
<trkpt lat="46.2968520" lon="9.9485760">
	<ele>2176.20</ele>
	<time>2021-08-31T12:32:07.000Z</time>
</trkpt>
<trkpt lat="46.2968650" lon="9.9485690">
	<ele>2176.00</ele>
	<time>2021-08-31T12:32:08.000Z</time>
</trkpt>
<trkpt lat="46.2969270" lon="9.9485390">
	<ele>2175.00</ele>
	<time>2021-08-31T12:32:13.000Z</time>
</trkpt>
<trkpt lat="46.2969800" lon="9.9484920">
	<ele>2174.40</ele>
	<time>2021-08-31T12:32:18.000Z</time>
</trkpt>
<trkpt lat="46.2969900" lon="9.9484810">
	<ele>2174.20</ele>
	<time>2021-08-31T12:32:19.000Z</time>
</trkpt>
<trkpt lat="46.2970090" lon="9.9484580">
	<ele>2174.00</ele>
	<time>2021-08-31T12:32:21.000Z</time>
</trkpt>
<trkpt lat="46.2970570" lon="9.9483490">
	<ele>2173.00</ele>
	<time>2021-08-31T12:32:28.000Z</time>
</trkpt>
<trkpt lat="46.2970600" lon="9.9483280">
	<ele>2172.80</ele>
	<time>2021-08-31T12:32:29.000Z</time>
</trkpt>
<trkpt lat="46.2970700" lon="9.9482460">
	<ele>2172.00</ele>
	<time>2021-08-31T12:32:33.000Z</time>
</trkpt>
<trkpt lat="46.2970800" lon="9.9481430">
	<ele>2171.00</ele>
	<time>2021-08-31T12:32:38.000Z</time>
</trkpt>
<trkpt lat="46.2970810" lon="9.9481220">
	<ele>2170.80</ele>
	<time>2021-08-31T12:32:39.000Z</time>
</trkpt>
<trkpt lat="46.2970860" lon="9.9479720">
	<ele>2169.80</ele>
	<time>2021-08-31T12:32:46.000Z</time>
</trkpt>
<trkpt lat="46.2970820" lon="9.9479320">
	<ele>2169.40</ele>
	<time>2021-08-31T12:32:48.000Z</time>
</trkpt>
<trkpt lat="46.2970800" lon="9.9478620">
	<ele>2168.60</ele>
	<time>2021-08-31T12:32:52.000Z</time>
</trkpt>
<trkpt lat="46.2970740" lon="9.9477830">
	<ele>2168.00</ele>
	<time>2021-08-31T12:32:57.000Z</time>
</trkpt>
<trkpt lat="46.2970780" lon="9.9477220">
	<ele>2167.40</ele>
	<time>2021-08-31T12:33:01.000Z</time>
</trkpt>
<trkpt lat="46.2970720" lon="9.9476210">
	<ele>2166.40</ele>
	<time>2021-08-31T12:33:06.000Z</time>
</trkpt>
<trkpt lat="46.2970650" lon="9.9475800">
	<ele>2166.00</ele>
	<time>2021-08-31T12:33:08.000Z</time>
</trkpt>
<trkpt lat="46.2970490" lon="9.9474790">
	<ele>2165.40</ele>
	<time>2021-08-31T12:33:13.000Z</time>
</trkpt>
<trkpt lat="46.2970160" lon="9.9474160">
	<ele>2164.80</ele>
	<time>2021-08-31T12:33:17.000Z</time>
</trkpt>
<trkpt lat="46.2969780" lon="9.9473730">
	<ele>2164.20</ele>
	<time>2021-08-31T12:33:21.000Z</time>
</trkpt>
<trkpt lat="46.2969430" lon="9.9473290">
	<ele>2163.40</ele>
	<time>2021-08-31T12:33:25.000Z</time>
</trkpt>
<trkpt lat="46.2969290" lon="9.9473220">
	<ele>2163.20</ele>
	<time>2021-08-31T12:33:26.000Z</time>
</trkpt>
<trkpt lat="46.2969130" lon="9.9473170">
	<ele>2163.00</ele>
	<time>2021-08-31T12:33:27.000Z</time>
</trkpt>
<trkpt lat="46.2968790" lon="9.9473100">
	<ele>2162.80</ele>
	<time>2021-08-31T12:33:30.000Z</time>
</trkpt>
<trkpt lat="46.2968550" lon="9.9473080">
	<ele>2162.60</ele>
	<time>2021-08-31T12:33:32.000Z</time>
</trkpt>
<trkpt lat="46.2968200" lon="9.9473000">
	<ele>2161.80</ele>
	<time>2021-08-31T12:33:35.000Z</time>
</trkpt>
<trkpt lat="46.2967700" lon="9.9472820">
	<ele>2161.20</ele>
	<time>2021-08-31T12:33:39.000Z</time>
</trkpt>
<trkpt lat="46.2967420" lon="9.9472670">
	<ele>2160.80</ele>
	<time>2021-08-31T12:33:41.000Z</time>
</trkpt>
<trkpt lat="46.2967000" lon="9.9472230">
	<ele>2160.00</ele>
	<time>2021-08-31T12:33:46.000Z</time>
</trkpt>
<trkpt lat="46.2966940" lon="9.9472110">
	<ele>2159.80</ele>
	<time>2021-08-31T12:33:47.000Z</time>
</trkpt>
<trkpt lat="46.2966650" lon="9.9471300">
	<ele>2158.80</ele>
	<time>2021-08-31T12:33:55.000Z</time>
</trkpt>
<trkpt lat="46.2966350" lon="9.9470940">
	<ele>2158.40</ele>
	<time>2021-08-31T12:34:08.000Z</time>
</trkpt>
<trkpt lat="46.2966250" lon="9.9470890">
	<ele>2158.40</ele>
	<time>2021-08-31T12:34:09.000Z</time>
</trkpt>
<trkpt lat="46.2966040" lon="9.9470780">
	<ele>2159.40</ele>
	<time>2021-08-31T12:34:16.000Z</time>
</trkpt>
<trkpt lat="46.2966050" lon="9.9470720">
	<ele>2159.00</ele>
	<time>2021-08-31T12:34:23.000Z</time>
</trkpt>
<trkpt lat="46.2965990" lon="9.9470790">
	<ele>2158.60</ele>
	<time>2021-08-31T12:34:31.000Z</time>
</trkpt>
<trkpt lat="46.2965990" lon="9.9470790">
	<ele>2158.60</ele>
	<time>2021-08-31T12:34:34.000Z</time>
</trkpt>
<trkpt lat="46.2965990" lon="9.9470790">
	<ele>2158.60</ele>
	<time>2021-08-31T12:34:35.000Z</time>
</trkpt>
<trkpt lat="46.2965650" lon="9.9470880">
	<ele>2159.20</ele>
	<time>2021-08-31T12:34:51.000Z</time>
</trkpt>
<trkpt lat="46.2965200" lon="9.9472060">
	<ele>2158.80</ele>
	<time>2021-08-31T12:34:58.000Z</time>
</trkpt>
<trkpt lat="46.2965080" lon="9.9472540">
	<ele>2158.80</ele>
	<time>2021-08-31T12:35:02.000Z</time>
</trkpt>
<trkpt lat="46.2965080" lon="9.9472640">
	<ele>2158.80</ele>
	<time>2021-08-31T12:35:04.000Z</time>
</trkpt>
<trkpt lat="46.2965110" lon="9.9472630">
	<ele>2158.80</ele>
	<time>2021-08-31T12:35:05.000Z</time>
</trkpt>
<trkpt lat="46.2965140" lon="9.9472600">
	<ele>2159.00</ele>
	<time>2021-08-31T12:35:06.000Z</time>
</trkpt>
<trkpt lat="46.2965090" lon="9.9472960">
	<ele>2158.60</ele>
	<time>2021-08-31T12:38:35.000Z</time>
</trkpt>
<trkpt lat="46.2964440" lon="9.9472520">
	<ele>2158.60</ele>
	<time>2021-08-31T12:38:38.000Z</time>
</trkpt>
<trkpt lat="46.2964610" lon="9.9472530">
	<ele>2158.60</ele>
	<time>2021-08-31T12:38:39.000Z</time>
</trkpt>
<trkpt lat="46.2965270" lon="9.9471420">
	<ele>2158.20</ele>
	<time>2021-08-31T12:38:49.000Z</time>
</trkpt>
<trkpt lat="46.2965320" lon="9.9470410">
	<ele>2158.40</ele>
	<time>2021-08-31T12:38:56.000Z</time>
</trkpt>
<trkpt lat="46.2965240" lon="9.9470440">
	<ele>2158.60</ele>
	<time>2021-08-31T12:38:57.000Z</time>
</trkpt>
<trkpt lat="46.2965330" lon="9.9470070">
	<ele>2158.80</ele>
	<time>2021-08-31T12:39:00.000Z</time>
</trkpt>
<trkpt lat="46.2965550" lon="9.9470030">
	<ele>2158.40</ele>
	<time>2021-08-31T12:39:03.000Z</time>
</trkpt>
<trkpt lat="46.2965610" lon="9.9470050">
	<ele>2158.20</ele>
	<time>2021-08-31T12:39:05.000Z</time>
</trkpt>
<trkpt lat="46.2965710" lon="9.9470080">
	<ele>2158.20</ele>
	<time>2021-08-31T12:39:07.000Z</time>
</trkpt>
<trkpt lat="46.2965680" lon="9.9470000">
	<ele>2158.20</ele>
	<time>2021-08-31T12:39:10.000Z</time>
</trkpt>
<trkpt lat="46.2965700" lon="9.9469950">
	<ele>2157.60</ele>
	<time>2021-08-31T12:39:21.000Z</time>
</trkpt>
<trkpt lat="46.2965770" lon="9.9470030">
	<ele>2157.80</ele>
	<time>2021-08-31T12:39:32.000Z</time>
</trkpt>
<trkpt lat="46.2965850" lon="9.9470160">
	<ele>2157.80</ele>
	<time>2021-08-31T12:39:42.000Z</time>
</trkpt>
<trkpt lat="46.2966000" lon="9.9470300">
	<ele>2157.80</ele>
	<time>2021-08-31T12:40:01.000Z</time>
</trkpt>
<trkpt lat="46.2966020" lon="9.9470300">
	<ele>2157.80</ele>
	<time>2021-08-31T12:40:05.000Z</time>
</trkpt>
<trkpt lat="46.2965940" lon="9.9470140">
	<ele>2158.40</ele>
	<time>2021-08-31T12:40:43.000Z</time>
</trkpt>
<trkpt lat="46.2965940" lon="9.9470150">
	<ele>2158.40</ele>
	<time>2021-08-31T12:40:47.000Z</time>
</trkpt>
<trkpt lat="46.2965940" lon="9.9470220">
	<ele>2158.20</ele>
	<time>2021-08-31T12:40:56.000Z</time>
</trkpt>
<trkpt lat="46.2965920" lon="9.9470280">
	<ele>2158.20</ele>
	<time>2021-08-31T12:41:03.000Z</time>
</trkpt>
<trkpt lat="46.2965940" lon="9.9470440">
	<ele>2158.20</ele>
	<time>2021-08-31T12:41:31.000Z</time>
</trkpt>
<trkpt lat="46.2965690" lon="9.9470480">
	<ele>2158.20</ele>
	<time>2021-08-31T12:41:47.000Z</time>
</trkpt>
<trkpt lat="46.2965580" lon="9.9470480">
	<ele>2158.20</ele>
	<time>2021-08-31T12:41:54.000Z</time>
</trkpt>
<trkpt lat="46.2965560" lon="9.9470430">
	<ele>2158.20</ele>
	<time>2021-08-31T12:42:02.000Z</time>
</trkpt>
<trkpt lat="46.2965580" lon="9.9470350">
	<ele>2158.20</ele>
	<time>2021-08-31T12:42:12.000Z</time>
</trkpt>
<trkpt lat="46.2965610" lon="9.9470330">
	<ele>2158.20</ele>
	<time>2021-08-31T12:42:22.000Z</time>
</trkpt>
<trkpt lat="46.2965660" lon="9.9470350">
	<ele>2158.20</ele>
	<time>2021-08-31T12:42:36.000Z</time>
</trkpt>
<trkpt lat="46.2965670" lon="9.9470360">
	<ele>2158.20</ele>
	<time>2021-08-31T12:42:57.000Z</time>
</trkpt>
<trkpt lat="46.2965680" lon="9.9470370">
	<ele>2158.20</ele>
	<time>2021-08-31T12:43:11.000Z</time>
</trkpt>
<trkpt lat="46.2965690" lon="9.9470390">
	<ele>2158.20</ele>
	<time>2021-08-31T12:43:42.000Z</time>
</trkpt>
<trkpt lat="46.2965700" lon="9.9470390">
	<ele>2158.20</ele>
	<time>2021-08-31T12:43:46.000Z</time>
</trkpt>
<trkpt lat="46.2965700" lon="9.9470390">
	<ele>2158.20</ele>
	<time>2021-08-31T12:43:52.000Z</time>
</trkpt>
<trkpt lat="46.2965730" lon="9.9470400">
	<ele>2158.20</ele>
	<time>2021-08-31T12:44:46.000Z</time>
</trkpt>
<trkpt lat="46.2965540" lon="9.9470830">
	<ele>2158.20</ele>
	<time>2021-08-31T12:45:01.000Z</time>
</trkpt>
<trkpt lat="46.2965500" lon="9.9470990">
	<ele>2158.20</ele>
	<time>2021-08-31T12:45:02.000Z</time>
</trkpt>
<trkpt lat="46.2965230" lon="9.9472590">
	<ele>2158.80</ele>
	<time>2021-08-31T12:45:10.000Z</time>
</trkpt>
<trkpt lat="46.2965270" lon="9.9472690">
	<ele>2158.80</ele>
	<time>2021-08-31T12:45:11.000Z</time>
</trkpt>
<trkpt lat="46.2965300" lon="9.9472900">
	<ele>2159.00</ele>
	<time>2021-08-31T12:45:14.000Z</time>
</trkpt>
<trkpt lat="46.2965270" lon="9.9472860">
	<ele>2159.00</ele>
	<time>2021-08-31T12:45:15.000Z</time>
</trkpt>
<trkpt lat="46.2965260" lon="9.9472770">
	<ele>2159.00</ele>
	<time>2021-08-31T12:45:17.000Z</time>
</trkpt>
<trkpt lat="46.2964960" lon="9.9472620">
	<ele>2159.20</ele>
	<time>2021-08-31T12:46:02.000Z</time>
</trkpt>
<trkpt lat="46.2964890" lon="9.9472560">
	<ele>2159.20</ele>
	<time>2021-08-31T12:46:03.000Z</time>
</trkpt>
<trkpt lat="46.2965290" lon="9.9471350">
	<ele>2159.20</ele>
	<time>2021-08-31T12:46:11.000Z</time>
</trkpt>
<trkpt lat="46.2965350" lon="9.9471240">
	<ele>2159.40</ele>
	<time>2021-08-31T12:46:12.000Z</time>
</trkpt>
<trkpt lat="46.2965790" lon="9.9470490">
	<ele>2159.40</ele>
	<time>2021-08-31T12:46:19.000Z</time>
</trkpt>
<trkpt lat="46.2965780" lon="9.9470450">
	<ele>2159.40</ele>
	<time>2021-08-31T12:46:23.000Z</time>
</trkpt>
<trkpt lat="46.2965730" lon="9.9470370">
	<ele>2159.40</ele>
	<time>2021-08-31T12:46:26.000Z</time>
</trkpt>
<trkpt lat="46.2965770" lon="9.9470350">
	<ele>2159.40</ele>
	<time>2021-08-31T12:46:38.000Z</time>
</trkpt>
<trkpt lat="46.2965790" lon="9.9470390">
	<ele>2159.80</ele>
	<time>2021-08-31T12:46:45.000Z</time>
</trkpt>
<trkpt lat="46.2966150" lon="9.9470600">
	<ele>2159.20</ele>
	<time>2021-08-31T12:46:49.000Z</time>
</trkpt>
<trkpt lat="46.2966460" lon="9.9471140">
	<ele>2159.80</ele>
	<time>2021-08-31T12:46:57.000Z</time>
</trkpt>
<trkpt lat="46.2966530" lon="9.9471180">
	<ele>2159.80</ele>
	<time>2021-08-31T12:46:58.000Z</time>
</trkpt>
<trkpt lat="46.2966480" lon="9.9471050">
	<ele>2159.80</ele>
	<time>2021-08-31T12:47:07.000Z</time>
</trkpt>
<trkpt lat="46.2966480" lon="9.9471050">
	<ele>2159.80</ele>
	<time>2021-08-31T12:47:09.000Z</time>
</trkpt>
<trkpt lat="46.2966480" lon="9.9471050">
	<ele>2159.60</ele>
	<time>2021-08-31T12:47:12.000Z</time>
</trkpt>
<trkpt lat="46.2966530" lon="9.9471090">
	<ele>2158.80</ele>
	<time>2021-08-31T12:47:22.000Z</time>
</trkpt>
<trkpt lat="46.2966560" lon="9.9471090">
	<ele>2158.80</ele>
	<time>2021-08-31T12:47:25.000Z</time>
</trkpt>
<trkpt lat="46.2966900" lon="9.9470320">
	<ele>2157.60</ele>
	<time>2021-08-31T12:47:38.000Z</time>
</trkpt>
<trkpt lat="46.2966990" lon="9.9469890">
	<ele>2157.40</ele>
	<time>2021-08-31T12:47:40.000Z</time>
</trkpt>
<trkpt lat="46.2967310" lon="9.9468900">
	<ele>2156.60</ele>
	<time>2021-08-31T12:47:45.000Z</time>
</trkpt>
<trkpt lat="46.2967430" lon="9.9468300">
	<ele>2156.20</ele>
	<time>2021-08-31T12:47:49.000Z</time>
</trkpt>
<trkpt lat="46.2967610" lon="9.9467850">
	<ele>2155.60</ele>
	<time>2021-08-31T12:47:52.000Z</time>
</trkpt>
<trkpt lat="46.2967730" lon="9.9466970">
	<ele>2154.80</ele>
	<time>2021-08-31T12:47:58.000Z</time>
</trkpt>
<trkpt lat="46.2967750" lon="9.9466820">
	<ele>2154.60</ele>
	<time>2021-08-31T12:47:59.000Z</time>
</trkpt>
<trkpt lat="46.2967780" lon="9.9466660">
	<ele>2154.60</ele>
	<time>2021-08-31T12:48:00.000Z</time>
</trkpt>
<trkpt lat="46.2967820" lon="9.9466540">
	<ele>2154.40</ele>
	<time>2021-08-31T12:48:01.000Z</time>
</trkpt>
<trkpt lat="46.2968140" lon="9.9465230">
	<ele>2153.40</ele>
	<time>2021-08-31T12:48:10.000Z</time>
</trkpt>
<trkpt lat="46.2968330" lon="9.9464280">
	<ele>2152.60</ele>
	<time>2021-08-31T12:48:16.000Z</time>
</trkpt>
<trkpt lat="46.2968370" lon="9.9464000">
	<ele>2152.40</ele>
	<time>2021-08-31T12:48:18.000Z</time>
</trkpt>
<trkpt lat="46.2968400" lon="9.9463850">
	<ele>2152.20</ele>
	<time>2021-08-31T12:48:19.000Z</time>
</trkpt>
<trkpt lat="46.2968390" lon="9.9463290">
	<ele>2151.40</ele>
	<time>2021-08-31T12:48:26.000Z</time>
</trkpt>
<trkpt lat="46.2968380" lon="9.9463300">
	<ele>2151.40</ele>
	<time>2021-08-31T12:48:27.000Z</time>
</trkpt>
<trkpt lat="46.2968350" lon="9.9463370">
	<ele>2151.60</ele>
	<time>2021-08-31T12:48:30.000Z</time>
</trkpt>
<trkpt lat="46.2968460" lon="9.9463110">
	<ele>2151.40</ele>
	<time>2021-08-31T12:48:34.000Z</time>
</trkpt>
<trkpt lat="46.2968490" lon="9.9462980">
	<ele>2151.40</ele>
	<time>2021-08-31T12:48:35.000Z</time>
</trkpt>
<trkpt lat="46.2968480" lon="9.9462730">
	<ele>2151.20</ele>
	<time>2021-08-31T12:48:37.000Z</time>
</trkpt>
<trkpt lat="46.2968740" lon="9.9462340">
	<ele>2150.80</ele>
	<time>2021-08-31T12:48:42.000Z</time>
</trkpt>
<trkpt lat="46.2968950" lon="9.9462000">
	<ele>2150.20</ele>
	<time>2021-08-31T12:48:45.000Z</time>
</trkpt>
<trkpt lat="46.2969080" lon="9.9461390">
	<ele>2149.60</ele>
	<time>2021-08-31T12:48:49.000Z</time>
</trkpt>
<trkpt lat="46.2969290" lon="9.9460660">
	<ele>2149.00</ele>
	<time>2021-08-31T12:48:55.000Z</time>
</trkpt>
<trkpt lat="46.2969470" lon="9.9459810">
	<ele>2148.20</ele>
	<time>2021-08-31T12:49:00.000Z</time>
</trkpt>
<trkpt lat="46.2969530" lon="9.9459550">
	<ele>2148.00</ele>
	<time>2021-08-31T12:49:02.000Z</time>
</trkpt>
<trkpt lat="46.2970030" lon="9.9458570">
	<ele>2146.80</ele>
	<time>2021-08-31T12:49:09.000Z</time>
</trkpt>
<trkpt lat="46.2970400" lon="9.9458190">
	<ele>2146.20</ele>
	<time>2021-08-31T12:49:12.000Z</time>
</trkpt>
<trkpt lat="46.2970880" lon="9.9457790">
	<ele>2145.60</ele>
	<time>2021-08-31T12:49:16.000Z</time>
</trkpt>
<trkpt lat="46.2971560" lon="9.9457360">
	<ele>2144.80</ele>
	<time>2021-08-31T12:49:22.000Z</time>
</trkpt>
<trkpt lat="46.2971790" lon="9.9457240">
	<ele>2144.60</ele>
	<time>2021-08-31T12:49:24.000Z</time>
</trkpt>
<trkpt lat="46.2972400" lon="9.9457230">
	<ele>2143.40</ele>
	<time>2021-08-31T12:49:29.000Z</time>
</trkpt>
<trkpt lat="46.2972820" lon="9.9457320">
	<ele>2143.00</ele>
	<time>2021-08-31T12:49:32.000Z</time>
</trkpt>
<trkpt lat="46.2973350" lon="9.9457300">
	<ele>2142.40</ele>
	<time>2021-08-31T12:49:36.000Z</time>
</trkpt>
<trkpt lat="46.2973880" lon="9.9456990">
	<ele>2141.40</ele>
	<time>2021-08-31T12:49:41.000Z</time>
</trkpt>
<trkpt lat="46.2973970" lon="9.9457000">
	<ele>2141.20</ele>
	<time>2021-08-31T12:49:42.000Z</time>
</trkpt>
<trkpt lat="46.2974670" lon="9.9456870">
	<ele>2140.00</ele>
	<time>2021-08-31T12:49:48.000Z</time>
</trkpt>
<trkpt lat="46.2974890" lon="9.9456810">
	<ele>2139.80</ele>
	<time>2021-08-31T12:49:50.000Z</time>
</trkpt>
<trkpt lat="46.2975440" lon="9.9456750">
	<ele>2139.00</ele>
	<time>2021-08-31T12:49:54.000Z</time>
</trkpt>
<trkpt lat="46.2976200" lon="9.9456500">
	<ele>2138.60</ele>
	<time>2021-08-31T12:49:59.000Z</time>
</trkpt>
<trkpt lat="46.2976710" lon="9.9456070">
	<ele>2138.00</ele>
	<time>2021-08-31T12:50:03.000Z</time>
</trkpt>
<trkpt lat="46.2977010" lon="9.9455640">
	<ele>2137.80</ele>
	<time>2021-08-31T12:50:06.000Z</time>
</trkpt>
<trkpt lat="46.2977190" lon="9.9454920">
	<ele>2136.80</ele>
	<time>2021-08-31T12:50:10.000Z</time>
</trkpt>
<trkpt lat="46.2977190" lon="9.9454220">
	<ele>2136.20</ele>
	<time>2021-08-31T12:50:14.000Z</time>
</trkpt>
<trkpt lat="46.2977190" lon="9.9453880">
	<ele>2135.80</ele>
	<time>2021-08-31T12:50:16.000Z</time>
</trkpt>
<trkpt lat="46.2976870" lon="9.9452390">
	<ele>2134.60</ele>
	<time>2021-08-31T12:50:24.000Z</time>
</trkpt>
<trkpt lat="46.2976590" lon="9.9451160">
	<ele>2133.60</ele>
	<time>2021-08-31T12:50:30.000Z</time>
</trkpt>
<trkpt lat="46.2976410" lon="9.9450450">
	<ele>2133.00</ele>
	<time>2021-08-31T12:50:34.000Z</time>
</trkpt>
<trkpt lat="46.2976290" lon="9.9449620">
	<ele>2132.40</ele>
	<time>2021-08-31T12:50:38.000Z</time>
</trkpt>
<trkpt lat="46.2976030" lon="9.9448620">
	<ele>2131.60</ele>
	<time>2021-08-31T12:50:44.000Z</time>
</trkpt>
<trkpt lat="46.2975980" lon="9.9448510">
	<ele>2131.60</ele>
	<time>2021-08-31T12:50:45.000Z</time>
</trkpt>
<trkpt lat="46.2975940" lon="9.9448390">
	<ele>2131.40</ele>
	<time>2021-08-31T12:50:46.000Z</time>
</trkpt>
<trkpt lat="46.2975790" lon="9.9447450">
	<ele>2130.60</ele>
	<time>2021-08-31T12:50:51.000Z</time>
</trkpt>
<trkpt lat="46.2975630" lon="9.9447130">
	<ele>2130.20</ele>
	<time>2021-08-31T12:50:53.000Z</time>
</trkpt>
<trkpt lat="46.2975250" lon="9.9446060">
	<ele>2129.20</ele>
	<time>2021-08-31T12:50:59.000Z</time>
</trkpt>
<trkpt lat="46.2975130" lon="9.9445470">
	<ele>2128.60</ele>
	<time>2021-08-31T12:51:02.000Z</time>
</trkpt>
<trkpt lat="46.2975090" lon="9.9445270">
	<ele>2128.60</ele>
	<time>2021-08-31T12:51:03.000Z</time>
</trkpt>
<trkpt lat="46.2975010" lon="9.9444690">
	<ele>2128.00</ele>
	<time>2021-08-31T12:51:06.000Z</time>
</trkpt>
<trkpt lat="46.2975010" lon="9.9444120">
	<ele>2127.60</ele>
	<time>2021-08-31T12:51:09.000Z</time>
</trkpt>
<trkpt lat="46.2975160" lon="9.9443230">
	<ele>2126.80</ele>
	<time>2021-08-31T12:51:15.000Z</time>
</trkpt>
<trkpt lat="46.2975210" lon="9.9442810">
	<ele>2126.40</ele>
	<time>2021-08-31T12:51:19.000Z</time>
</trkpt>
<trkpt lat="46.2975270" lon="9.9442740">
	<ele>2126.20</ele>
	<time>2021-08-31T12:51:20.000Z</time>
</trkpt>
<trkpt lat="46.2975840" lon="9.9442390">
	<ele>2125.80</ele>
	<time>2021-08-31T12:51:26.000Z</time>
</trkpt>
<trkpt lat="46.2975930" lon="9.9442300">
	<ele>2125.60</ele>
	<time>2021-08-31T12:51:27.000Z</time>
</trkpt>
<trkpt lat="46.2976350" lon="9.9441860">
	<ele>2124.80</ele>
	<time>2021-08-31T12:51:31.000Z</time>
</trkpt>
<trkpt lat="46.2977300" lon="9.9440750">
	<ele>2123.80</ele>
	<time>2021-08-31T12:51:40.000Z</time>
</trkpt>
<trkpt lat="46.2977420" lon="9.9440650">
	<ele>2123.60</ele>
	<time>2021-08-31T12:51:41.000Z</time>
</trkpt>
<trkpt lat="46.2978410" lon="9.9440020">
	<ele>2123.00</ele>
	<time>2021-08-31T12:51:50.000Z</time>
</trkpt>
<trkpt lat="46.2978800" lon="9.9439710">
	<ele>2123.20</ele>
	<time>2021-08-31T12:51:56.000Z</time>
</trkpt>
<trkpt lat="46.2978830" lon="9.9439690">
	<ele>2123.20</ele>
	<time>2021-08-31T12:51:57.000Z</time>
</trkpt>
<trkpt lat="46.2978800" lon="9.9439670">
	<ele>2123.00</ele>
	<time>2021-08-31T12:52:03.000Z</time>
</trkpt>
<trkpt lat="46.2978820" lon="9.9439680">
	<ele>2123.20</ele>
	<time>2021-08-31T12:52:12.000Z</time>
</trkpt>
<trkpt lat="46.2978810" lon="9.9439680">
	<ele>2123.00</ele>
	<time>2021-08-31T12:52:20.000Z</time>
</trkpt>
<trkpt lat="46.2979140" lon="9.9440070">
	<ele>2123.00</ele>
	<time>2021-08-31T12:52:32.000Z</time>
</trkpt>
<trkpt lat="46.2980250" lon="9.9441590">
	<ele>2123.80</ele>
	<time>2021-08-31T12:52:44.000Z</time>
</trkpt>
<trkpt lat="46.2981010" lon="9.9442030">
	<ele>2124.80</ele>
	<time>2021-08-31T12:52:51.000Z</time>
</trkpt>
<trkpt lat="46.2981690" lon="9.9442540">
	<ele>2125.40</ele>
	<time>2021-08-31T12:52:57.000Z</time>
</trkpt>
<trkpt lat="46.2981840" lon="9.9442600">
	<ele>2125.80</ele>
	<time>2021-08-31T12:52:59.000Z</time>
</trkpt>
<trkpt lat="46.2982180" lon="9.9442600">
	<ele>2127.00</ele>
	<time>2021-08-31T12:53:04.000Z</time>
</trkpt>
<trkpt lat="46.2982340" lon="9.9442650">
	<ele>2127.40</ele>
	<time>2021-08-31T12:53:06.000Z</time>
</trkpt>
<trkpt lat="46.2982520" lon="9.9442670">
	<ele>2128.00</ele>
	<time>2021-08-31T12:53:09.000Z</time>
</trkpt>
<trkpt lat="46.2982580" lon="9.9442660">
	<ele>2128.20</ele>
	<time>2021-08-31T12:53:10.000Z</time>
</trkpt>
<trkpt lat="46.2982730" lon="9.9442710">
	<ele>2128.40</ele>
	<time>2021-08-31T12:53:12.000Z</time>
</trkpt>
<trkpt lat="46.2983030" lon="9.9442980">
	<ele>2129.40</ele>
	<time>2021-08-31T12:53:16.000Z</time>
</trkpt>
<trkpt lat="46.2983110" lon="9.9443000">
	<ele>2129.80</ele>
	<time>2021-08-31T12:53:17.000Z</time>
</trkpt>
<trkpt lat="46.2983320" lon="9.9442890">
	<ele>2130.20</ele>
	<time>2021-08-31T12:53:20.000Z</time>
</trkpt>
<trkpt lat="46.2983450" lon="9.9442870">
	<ele>2130.60</ele>
	<time>2021-08-31T12:53:22.000Z</time>
</trkpt>
<trkpt lat="46.2983640" lon="9.9442920">
	<ele>2131.00</ele>
	<time>2021-08-31T12:53:25.000Z</time>
</trkpt>
<trkpt lat="46.2983900" lon="9.9443010">
	<ele>2131.60</ele>
	<time>2021-08-31T12:53:29.000Z</time>
</trkpt>
<trkpt lat="46.2984130" lon="9.9443210">
	<ele>2132.40</ele>
	<time>2021-08-31T12:53:33.000Z</time>
</trkpt>
<trkpt lat="46.2984250" lon="9.9443160">
	<ele>2132.60</ele>
	<time>2021-08-31T12:53:35.000Z</time>
</trkpt>
<trkpt lat="46.2984680" lon="9.9442940">
	<ele>2133.80</ele>
	<time>2021-08-31T12:53:42.000Z</time>
</trkpt>
<trkpt lat="46.2984740" lon="9.9442970">
	<ele>2134.00</ele>
	<time>2021-08-31T12:53:43.000Z</time>
</trkpt>
<trkpt lat="46.2985250" lon="9.9442710">
	<ele>2134.40</ele>
	<time>2021-08-31T12:53:49.000Z</time>
</trkpt>
<trkpt lat="46.2985390" lon="9.9442470">
	<ele>2135.00</ele>
	<time>2021-08-31T12:53:52.000Z</time>
</trkpt>
<trkpt lat="46.2985760" lon="9.9441840">
	<ele>2136.00</ele>
	<time>2021-08-31T12:53:58.000Z</time>
</trkpt>
<trkpt lat="46.2985810" lon="9.9441710">
	<ele>2136.20</ele>
	<time>2021-08-31T12:53:59.000Z</time>
</trkpt>
<trkpt lat="46.2986010" lon="9.9441210">
	<ele>2137.00</ele>
	<time>2021-08-31T12:54:04.000Z</time>
</trkpt>
<trkpt lat="46.2986140" lon="9.9441010">
	<ele>2137.00</ele>
	<time>2021-08-31T12:54:06.000Z</time>
</trkpt>
<trkpt lat="46.2986150" lon="9.9440890">
	<ele>2137.00</ele>
	<time>2021-08-31T12:54:09.000Z</time>
</trkpt>
<trkpt lat="46.2986180" lon="9.9440900">
	<ele>2137.00</ele>
	<time>2021-08-31T12:54:13.000Z</time>
</trkpt>
<trkpt lat="46.2986180" lon="9.9440900">
	<ele>2137.00</ele>
	<time>2021-08-31T12:54:30.000Z</time>
</trkpt>
<trkpt lat="46.2986170" lon="9.9440940">
	<ele>2137.00</ele>
	<time>2021-08-31T12:54:33.000Z</time>
</trkpt>
<trkpt lat="46.2986160" lon="9.9441080">
	<ele>2137.00</ele>
	<time>2021-08-31T12:54:37.000Z</time>
</trkpt>
<trkpt lat="46.2986130" lon="9.9441370">
	<ele>2137.00</ele>
	<time>2021-08-31T12:54:44.000Z</time>
</trkpt>
<trkpt lat="46.2986130" lon="9.9441380">
	<ele>2137.20</ele>
	<time>2021-08-31T12:54:45.000Z</time>
</trkpt>
<trkpt lat="46.2986130" lon="9.9441390">
	<ele>2137.00</ele>
	<time>2021-08-31T12:54:48.000Z</time>
</trkpt>
<trkpt lat="46.2986320" lon="9.9441340">
	<ele>2138.20</ele>
	<time>2021-08-31T12:55:01.000Z</time>
</trkpt>
<trkpt lat="46.2986570" lon="9.9440870">
	<ele>2138.20</ele>
	<time>2021-08-31T12:55:03.000Z</time>
</trkpt>
<trkpt lat="46.2986940" lon="9.9439780">
	<ele>2137.60</ele>
	<time>2021-08-31T12:55:08.000Z</time>
</trkpt>
<trkpt lat="46.2987170" lon="9.9439440">
	<ele>2137.40</ele>
	<time>2021-08-31T12:55:10.000Z</time>
</trkpt>
<trkpt lat="46.2987710" lon="9.9439300">
	<ele>2137.20</ele>
	<time>2021-08-31T12:55:15.000Z</time>
</trkpt>
<trkpt lat="46.2987860" lon="9.9439470">
	<ele>2137.40</ele>
	<time>2021-08-31T12:55:17.000Z</time>
</trkpt>
<trkpt lat="46.2987990" lon="9.9439560">
	<ele>2137.80</ele>
	<time>2021-08-31T12:55:19.000Z</time>
</trkpt>
<trkpt lat="46.2988170" lon="9.9439550">
	<ele>2138.40</ele>
	<time>2021-08-31T12:55:21.000Z</time>
</trkpt>
<trkpt lat="46.2988280" lon="9.9439520">
	<ele>2138.60</ele>
	<time>2021-08-31T12:55:22.000Z</time>
</trkpt>
<trkpt lat="46.2988450" lon="9.9439380">
	<ele>2138.80</ele>
	<time>2021-08-31T12:55:24.000Z</time>
</trkpt>
<trkpt lat="46.2988860" lon="9.9439080">
	<ele>2139.40</ele>
	<time>2021-08-31T12:55:29.000Z</time>
</trkpt>
<trkpt lat="46.2988980" lon="9.9438750">
	<ele>2139.80</ele>
	<time>2021-08-31T12:55:32.000Z</time>
</trkpt>
<trkpt lat="46.2989030" lon="9.9438510">
	<ele>2140.00</ele>
	<time>2021-08-31T12:55:34.000Z</time>
</trkpt>
<trkpt lat="46.2989180" lon="9.9438220">
	<ele>2140.60</ele>
	<time>2021-08-31T12:55:37.000Z</time>
</trkpt>
<trkpt lat="46.2989210" lon="9.9437910">
	<ele>2141.00</ele>
	<time>2021-08-31T12:55:39.000Z</time>
</trkpt>
<trkpt lat="46.2989230" lon="9.9437490">
	<ele>2141.40</ele>
	<time>2021-08-31T12:55:42.000Z</time>
</trkpt>
<trkpt lat="46.2989250" lon="9.9437350">
	<ele>2141.60</ele>
	<time>2021-08-31T12:55:43.000Z</time>
</trkpt>
<trkpt lat="46.2989470" lon="9.9436540">
	<ele>2142.40</ele>
	<time>2021-08-31T12:55:49.000Z</time>
</trkpt>
<trkpt lat="46.2989580" lon="9.9436350">
	<ele>2142.60</ele>
	<time>2021-08-31T12:55:51.000Z</time>
</trkpt>
<trkpt lat="46.2989770" lon="9.9436180">
	<ele>2142.80</ele>
	<time>2021-08-31T12:55:53.000Z</time>
</trkpt>
<trkpt lat="46.2990330" lon="9.9435450">
	<ele>2143.40</ele>
	<time>2021-08-31T12:56:00.000Z</time>
</trkpt>
<trkpt lat="46.2990510" lon="9.9434810">
	<ele>2143.40</ele>
	<time>2021-08-31T12:56:05.000Z</time>
</trkpt>
<trkpt lat="46.2990410" lon="9.9434480">
	<ele>2143.80</ele>
	<time>2021-08-31T12:56:08.000Z</time>
</trkpt>
<trkpt lat="46.2990550" lon="9.9433410">
	<ele>2144.80</ele>
	<time>2021-08-31T12:56:16.000Z</time>
</trkpt>
<trkpt lat="46.2990560" lon="9.9433160">
	<ele>2145.00</ele>
	<time>2021-08-31T12:56:18.000Z</time>
</trkpt>
<trkpt lat="46.2991010" lon="9.9432130">
	<ele>2145.60</ele>
	<time>2021-08-31T12:56:26.000Z</time>
</trkpt>
<trkpt lat="46.2991440" lon="9.9431740">
	<ele>2145.80</ele>
	<time>2021-08-31T12:56:32.000Z</time>
</trkpt>
<trkpt lat="46.2991490" lon="9.9431620">
	<ele>2146.00</ele>
	<time>2021-08-31T12:56:33.000Z</time>
</trkpt>
<trkpt lat="46.2991840" lon="9.9430000">
	<ele>2146.60</ele>
	<time>2021-08-31T12:56:43.000Z</time>
</trkpt>
<trkpt lat="46.2991840" lon="9.9429240">
	<ele>2146.80</ele>
	<time>2021-08-31T12:56:47.000Z</time>
</trkpt>
<trkpt lat="46.2991810" lon="9.9428500">
	<ele>2147.00</ele>
	<time>2021-08-31T12:56:51.000Z</time>
</trkpt>
<trkpt lat="46.2991910" lon="9.9427790">
	<ele>2147.00</ele>
	<time>2021-08-31T12:56:56.000Z</time>
</trkpt>
<trkpt lat="46.2992080" lon="9.9427260">
	<ele>2147.40</ele>
	<time>2021-08-31T12:57:00.000Z</time>
</trkpt>
<trkpt lat="46.2992390" lon="9.9426800">
	<ele>2147.40</ele>
	<time>2021-08-31T12:57:04.000Z</time>
</trkpt>
<trkpt lat="46.2992990" lon="9.9425660">
	<ele>2147.40</ele>
	<time>2021-08-31T12:57:13.000Z</time>
</trkpt>
<trkpt lat="46.2993090" lon="9.9425580">
	<ele>2147.20</ele>
	<time>2021-08-31T12:57:14.000Z</time>
</trkpt>
<trkpt lat="46.2993430" lon="9.9424670">
	<ele>2146.40</ele>
	<time>2021-08-31T12:57:21.000Z</time>
</trkpt>
<trkpt lat="46.2993490" lon="9.9423850">
	<ele>2145.80</ele>
	<time>2021-08-31T12:57:26.000Z</time>
</trkpt>
<trkpt lat="46.2993680" lon="9.9422530">
	<ele>2145.20</ele>
	<time>2021-08-31T12:57:33.000Z</time>
</trkpt>
<trkpt lat="46.2993730" lon="9.9422050">
	<ele>2145.20</ele>
	<time>2021-08-31T12:57:36.000Z</time>
</trkpt>
<trkpt lat="46.2994030" lon="9.9420670">
	<ele>2145.00</ele>
	<time>2021-08-31T12:57:43.000Z</time>
</trkpt>
<trkpt lat="46.2994180" lon="9.9420270">
	<ele>2144.80</ele>
	<time>2021-08-31T12:57:46.000Z</time>
</trkpt>
<trkpt lat="46.2994370" lon="9.9419960">
	<ele>2144.60</ele>
	<time>2021-08-31T12:57:49.000Z</time>
</trkpt>
<trkpt lat="46.2994520" lon="9.9419570">
	<ele>2144.00</ele>
	<time>2021-08-31T12:57:52.000Z</time>
</trkpt>
<trkpt lat="46.2994610" lon="9.9419330">
	<ele>2143.80</ele>
	<time>2021-08-31T12:57:54.000Z</time>
</trkpt>
<trkpt lat="46.2994780" lon="9.9419010">
	<ele>2143.40</ele>
	<time>2021-08-31T12:57:57.000Z</time>
</trkpt>
<trkpt lat="46.2994910" lon="9.9418720">
	<ele>2142.60</ele>
	<time>2021-08-31T12:58:00.000Z</time>
</trkpt>
<trkpt lat="46.2994960" lon="9.9418600">
	<ele>2142.60</ele>
	<time>2021-08-31T12:58:01.000Z</time>
</trkpt>
<trkpt lat="46.2994880" lon="9.9417930">
	<ele>2141.60</ele>
	<time>2021-08-31T12:58:06.000Z</time>
</trkpt>
<trkpt lat="46.2994850" lon="9.9417740">
	<ele>2141.40</ele>
	<time>2021-08-31T12:58:08.000Z</time>
</trkpt>
<trkpt lat="46.2994910" lon="9.9417260">
	<ele>2140.60</ele>
	<time>2021-08-31T12:58:13.000Z</time>
</trkpt>
<trkpt lat="46.2995020" lon="9.9416970">
	<ele>2140.40</ele>
	<time>2021-08-31T12:58:15.000Z</time>
</trkpt>
<trkpt lat="46.2995200" lon="9.9416280">
	<ele>2139.40</ele>
	<time>2021-08-31T12:58:20.000Z</time>
</trkpt>
<trkpt lat="46.2995330" lon="9.9415960">
	<ele>2138.60</ele>
	<time>2021-08-31T12:58:23.000Z</time>
</trkpt>
<trkpt lat="46.2995420" lon="9.9415800">
	<ele>2138.20</ele>
	<time>2021-08-31T12:58:25.000Z</time>
</trkpt>
<trkpt lat="46.2995620" lon="9.9415620">
	<ele>2137.60</ele>
	<time>2021-08-31T12:58:28.000Z</time>
</trkpt>
<trkpt lat="46.2995810" lon="9.9415380">
	<ele>2137.20</ele>
	<time>2021-08-31T12:58:31.000Z</time>
</trkpt>
<trkpt lat="46.2995970" lon="9.9415250">
	<ele>2136.80</ele>
	<time>2021-08-31T12:58:33.000Z</time>
</trkpt>
<trkpt lat="46.2996180" lon="9.9415160">
	<ele>2136.60</ele>
	<time>2021-08-31T12:58:35.000Z</time>
</trkpt>
<trkpt lat="46.2996410" lon="9.9415060">
	<ele>2136.80</ele>
	<time>2021-08-31T12:58:38.000Z</time>
</trkpt>
<trkpt lat="46.2996450" lon="9.9414980">
	<ele>2136.80</ele>
	<time>2021-08-31T12:58:39.000Z</time>
</trkpt>
<trkpt lat="46.2996490" lon="9.9414890">
	<ele>2137.00</ele>
	<time>2021-08-31T12:58:40.000Z</time>
</trkpt>
<trkpt lat="46.2996510" lon="9.9414820">
	<ele>2137.20</ele>
	<time>2021-08-31T12:58:41.000Z</time>
</trkpt>
<trkpt lat="46.2996640" lon="9.9414650">
	<ele>2137.20</ele>
	<time>2021-08-31T12:58:44.000Z</time>
</trkpt>
<trkpt lat="46.2996720" lon="9.9414200">
	<ele>2136.80</ele>
	<time>2021-08-31T12:58:48.000Z</time>
</trkpt>
<trkpt lat="46.2996730" lon="9.9413700">
	<ele>2136.40</ele>
	<time>2021-08-31T12:58:54.000Z</time>
</trkpt>
<trkpt lat="46.2996750" lon="9.9413480">
	<ele>2136.20</ele>
	<time>2021-08-31T12:58:56.000Z</time>
</trkpt>
<trkpt lat="46.2996730" lon="9.9413200">
	<ele>2135.60</ele>
	<time>2021-08-31T12:58:59.000Z</time>
</trkpt>
<trkpt lat="46.2996730" lon="9.9412500">
	<ele>2135.20</ele>
	<time>2021-08-31T12:59:03.000Z</time>
</trkpt>
<trkpt lat="46.2996700" lon="9.9412060">
	<ele>2135.00</ele>
	<time>2021-08-31T12:59:05.000Z</time>
</trkpt>
<trkpt lat="46.2996690" lon="9.9411360">
	<ele>2135.00</ele>
	<time>2021-08-31T12:59:09.000Z</time>
</trkpt>
<trkpt lat="46.2996790" lon="9.9410840">
	<ele>2135.00</ele>
	<time>2021-08-31T12:59:12.000Z</time>
</trkpt>
<trkpt lat="46.2996960" lon="9.9409270">
	<ele>2134.60</ele>
	<time>2021-08-31T12:59:21.000Z</time>
</trkpt>
<trkpt lat="46.2996880" lon="9.9408960">
	<ele>2134.40</ele>
	<time>2021-08-31T12:59:23.000Z</time>
</trkpt>
<trkpt lat="46.2996770" lon="9.9408530">
	<ele>2134.40</ele>
	<time>2021-08-31T12:59:26.000Z</time>
</trkpt>
<trkpt lat="46.2996840" lon="9.9408000">
	<ele>2134.40</ele>
	<time>2021-08-31T12:59:29.000Z</time>
</trkpt>
<trkpt lat="46.2996880" lon="9.9407660">
	<ele>2134.20</ele>
	<time>2021-08-31T12:59:31.000Z</time>
</trkpt>
<trkpt lat="46.2996910" lon="9.9407480">
	<ele>2134.00</ele>
	<time>2021-08-31T12:59:32.000Z</time>
</trkpt>
<trkpt lat="46.2996920" lon="9.9407340">
	<ele>2134.00</ele>
	<time>2021-08-31T12:59:33.000Z</time>
</trkpt>
<trkpt lat="46.2996750" lon="9.9406840">
	<ele>2133.60</ele>
	<time>2021-08-31T12:59:37.000Z</time>
</trkpt>
<trkpt lat="46.2996770" lon="9.9406690">
	<ele>2133.40</ele>
	<time>2021-08-31T12:59:38.000Z</time>
</trkpt>
<trkpt lat="46.2996810" lon="9.9406190">
	<ele>2132.80</ele>
	<time>2021-08-31T12:59:41.000Z</time>
</trkpt>
<trkpt lat="46.2996900" lon="9.9405960">
	<ele>2132.40</ele>
	<time>2021-08-31T12:59:44.000Z</time>
</trkpt>
<trkpt lat="46.2996780" lon="9.9405510">
	<ele>2132.00</ele>
	<time>2021-08-31T12:59:46.000Z</time>
</trkpt>
<trkpt lat="46.2996870" lon="9.9405120">
	<ele>2131.60</ele>
	<time>2021-08-31T12:59:48.000Z</time>
</trkpt>
<trkpt lat="46.2996930" lon="9.9404850">
	<ele>2131.20</ele>
	<time>2021-08-31T12:59:50.000Z</time>
</trkpt>
<trkpt lat="46.2997160" lon="9.9404090">
	<ele>2130.40</ele>
	<time>2021-08-31T12:59:54.000Z</time>
</trkpt>
<trkpt lat="46.2997160" lon="9.9403470">
	<ele>2130.20</ele>
	<time>2021-08-31T12:59:58.000Z</time>
</trkpt>
<trkpt lat="46.2997120" lon="9.9402530">
	<ele>2130.00</ele>
	<time>2021-08-31T13:00:05.000Z</time>
</trkpt>
<trkpt lat="46.2997090" lon="9.9401710">
	<ele>2129.60</ele>
	<time>2021-08-31T13:00:13.000Z</time>
</trkpt>
<trkpt lat="46.2997120" lon="9.9401560">
	<ele>2129.40</ele>
	<time>2021-08-31T13:00:14.000Z</time>
</trkpt>
<trkpt lat="46.2997150" lon="9.9401400">
	<ele>2129.40</ele>
	<time>2021-08-31T13:00:15.000Z</time>
</trkpt>
<trkpt lat="46.2997330" lon="9.9400780">
	<ele>2129.20</ele>
	<time>2021-08-31T13:00:19.000Z</time>
</trkpt>
<trkpt lat="46.2997340" lon="9.9400610">
	<ele>2129.00</ele>
	<time>2021-08-31T13:00:20.000Z</time>
</trkpt>
<trkpt lat="46.2997490" lon="9.9399660">
	<ele>2128.80</ele>
	<time>2021-08-31T13:00:26.000Z</time>
</trkpt>
<trkpt lat="46.2997630" lon="9.9398990">
	<ele>2128.60</ele>
	<time>2021-08-31T13:00:30.000Z</time>
</trkpt>
<trkpt lat="46.2997870" lon="9.9398360">
	<ele>2128.60</ele>
	<time>2021-08-31T13:00:34.000Z</time>
</trkpt>
<trkpt lat="46.2997910" lon="9.9398230">
	<ele>2128.40</ele>
	<time>2021-08-31T13:00:35.000Z</time>
</trkpt>
<trkpt lat="46.2998130" lon="9.9397410">
	<ele>2127.80</ele>
	<time>2021-08-31T13:00:41.000Z</time>
</trkpt>
<trkpt lat="46.2998350" lon="9.9397290">
	<ele>2127.40</ele>
	<time>2021-08-31T13:00:43.000Z</time>
</trkpt>
<trkpt lat="46.2998760" lon="9.9397020">
	<ele>2126.60</ele>
	<time>2021-08-31T13:00:48.000Z</time>
</trkpt>
<trkpt lat="46.2998960" lon="9.9396810">
	<ele>2126.40</ele>
	<time>2021-08-31T13:00:51.000Z</time>
</trkpt>
<trkpt lat="46.2999070" lon="9.9396680">
	<ele>2126.20</ele>
	<time>2021-08-31T13:00:53.000Z</time>
</trkpt>
<trkpt lat="46.2999470" lon="9.9396310">
	<ele>2125.20</ele>
	<time>2021-08-31T13:00:59.000Z</time>
</trkpt>
<trkpt lat="46.2999510" lon="9.9396180">
	<ele>2125.00</ele>
	<time>2021-08-31T13:01:01.000Z</time>
</trkpt>
<trkpt lat="46.2999620" lon="9.9395920">
	<ele>2124.60</ele>
	<time>2021-08-31T13:01:04.000Z</time>
</trkpt>
<trkpt lat="46.2999650" lon="9.9395620">
	<ele>2124.20</ele>
	<time>2021-08-31T13:01:06.000Z</time>
</trkpt>
<trkpt lat="46.2999760" lon="9.9395410">
	<ele>2124.00</ele>
	<time>2021-08-31T13:01:08.000Z</time>
</trkpt>
<trkpt lat="46.2999870" lon="9.9395190">
	<ele>2123.80</ele>
	<time>2021-08-31T13:01:10.000Z</time>
</trkpt>
<trkpt lat="46.3000050" lon="9.9394500">
	<ele>2123.20</ele>
	<time>2021-08-31T13:01:17.000Z</time>
</trkpt>
<trkpt lat="46.3000120" lon="9.9394180">
	<ele>2122.60</ele>
	<time>2021-08-31T13:01:20.000Z</time>
</trkpt>
<trkpt lat="46.3000410" lon="9.9393390">
	<ele>2122.20</ele>
	<time>2021-08-31T13:01:26.000Z</time>
</trkpt>
<trkpt lat="46.3000970" lon="9.9392570">
	<ele>2122.40</ele>
	<time>2021-08-31T13:01:34.000Z</time>
</trkpt>
<trkpt lat="46.3001220" lon="9.9392210">
	<ele>2122.20</ele>
	<time>2021-08-31T13:01:37.000Z</time>
</trkpt>
<trkpt lat="46.3001290" lon="9.9392060">
	<ele>2122.00</ele>
	<time>2021-08-31T13:01:39.000Z</time>
</trkpt>
<trkpt lat="46.3001310" lon="9.9392050">
	<ele>2122.00</ele>
	<time>2021-08-31T13:01:40.000Z</time>
</trkpt>
<trkpt lat="46.3001320" lon="9.9392060">
	<ele>2122.00</ele>
	<time>2021-08-31T13:01:41.000Z</time>
</trkpt>
<trkpt lat="46.3001320" lon="9.9392040">
	<ele>2122.00</ele>
	<time>2021-08-31T13:01:42.000Z</time>
</trkpt>
<trkpt lat="46.3001470" lon="9.9391900">
	<ele>2122.00</ele>
	<time>2021-08-31T13:01:51.000Z</time>
</trkpt>
<trkpt lat="46.3001520" lon="9.9391900">
	<ele>2121.80</ele>
	<time>2021-08-31T13:01:53.000Z</time>
</trkpt>
<trkpt lat="46.3001530" lon="9.9391910">
	<ele>2122.00</ele>
	<time>2021-08-31T13:01:59.000Z</time>
</trkpt>
<trkpt lat="46.3001580" lon="9.9391390">
	<ele>2123.20</ele>
	<time>2021-08-31T13:02:09.000Z</time>
</trkpt>
<trkpt lat="46.3001570" lon="9.9390790">
	<ele>2123.80</ele>
	<time>2021-08-31T13:02:12.000Z</time>
</trkpt>
<trkpt lat="46.3001730" lon="9.9390460">
	<ele>2124.00</ele>
	<time>2021-08-31T13:02:14.000Z</time>
</trkpt>
<trkpt lat="46.3001770" lon="9.9390240">
	<ele>2124.00</ele>
	<time>2021-08-31T13:02:15.000Z</time>
</trkpt>
<trkpt lat="46.3001830" lon="9.9389640">
	<ele>2124.20</ele>
	<time>2021-08-31T13:02:19.000Z</time>
</trkpt>
<trkpt lat="46.3001950" lon="9.9389420">
	<ele>2124.60</ele>
	<time>2021-08-31T13:02:23.000Z</time>
</trkpt>
<trkpt lat="46.3002000" lon="9.9389250">
	<ele>2125.00</ele>
	<time>2021-08-31T13:02:26.000Z</time>
</trkpt>
<trkpt lat="46.3002070" lon="9.9389130">
	<ele>2125.20</ele>
	<time>2021-08-31T13:02:29.000Z</time>
</trkpt>
<trkpt lat="46.3002120" lon="9.9389110">
	<ele>2125.20</ele>
	<time>2021-08-31T13:02:30.000Z</time>
</trkpt>
<trkpt lat="46.3002300" lon="9.9389110">
	<ele>2125.40</ele>
	<time>2021-08-31T13:02:32.000Z</time>
</trkpt>
<trkpt lat="46.3002430" lon="9.9389170">
	<ele>2125.80</ele>
	<time>2021-08-31T13:02:34.000Z</time>
</trkpt>
<trkpt lat="46.3002670" lon="9.9389170">
	<ele>2126.40</ele>
	<time>2021-08-31T13:02:38.000Z</time>
</trkpt>
<trkpt lat="46.3002980" lon="9.9388590">
	<ele>2127.00</ele>
	<time>2021-08-31T13:02:46.000Z</time>
</trkpt>
<trkpt lat="46.3003100" lon="9.9388560">
	<ele>2127.00</ele>
	<time>2021-08-31T13:02:48.000Z</time>
</trkpt>
<trkpt lat="46.3003210" lon="9.9388620">
	<ele>2126.60</ele>
	<time>2021-08-31T13:02:51.000Z</time>
</trkpt>
<trkpt lat="46.3003620" lon="9.9388240">
	<ele>2125.80</ele>
	<time>2021-08-31T13:02:57.000Z</time>
</trkpt>
<trkpt lat="46.3003750" lon="9.9388180">
	<ele>2125.80</ele>
	<time>2021-08-31T13:02:58.000Z</time>
</trkpt>
<trkpt lat="46.3004240" lon="9.9387770">
	<ele>2125.20</ele>
	<time>2021-08-31T13:03:03.000Z</time>
</trkpt>
<trkpt lat="46.3004270" lon="9.9387630">
	<ele>2125.20</ele>
	<time>2021-08-31T13:03:04.000Z</time>
</trkpt>
<trkpt lat="46.3004390" lon="9.9387010">
	<ele>2124.60</ele>
	<time>2021-08-31T13:03:10.000Z</time>
</trkpt>
<trkpt lat="46.3004720" lon="9.9386550">
	<ele>2124.40</ele>
	<time>2021-08-31T13:03:16.000Z</time>
</trkpt>
<trkpt lat="46.3004840" lon="9.9386280">
	<ele>2124.20</ele>
	<time>2021-08-31T13:03:18.000Z</time>
</trkpt>
<trkpt lat="46.3005100" lon="9.9385500">
	<ele>2123.80</ele>
	<time>2021-08-31T13:03:24.000Z</time>
</trkpt>
<trkpt lat="46.3005500" lon="9.9384540">
	<ele>2123.80</ele>
	<time>2021-08-31T13:03:31.000Z</time>
</trkpt>
<trkpt lat="46.3005560" lon="9.9384390">
	<ele>2123.80</ele>
	<time>2021-08-31T13:03:32.000Z</time>
</trkpt>
<trkpt lat="46.3005820" lon="9.9383480">
	<ele>2124.00</ele>
	<time>2021-08-31T13:03:37.000Z</time>
</trkpt>
<trkpt lat="46.3006000" lon="9.9382960">
	<ele>2124.00</ele>
	<time>2021-08-31T13:03:41.000Z</time>
</trkpt>
<trkpt lat="46.3006140" lon="9.9382490">
	<ele>2125.00</ele>
	<time>2021-08-31T13:03:46.000Z</time>
</trkpt>
<trkpt lat="46.3006170" lon="9.9382390">
	<ele>2125.20</ele>
	<time>2021-08-31T13:03:47.000Z</time>
</trkpt>
<trkpt lat="46.3006240" lon="9.9382160">
	<ele>2125.40</ele>
	<time>2021-08-31T13:03:49.000Z</time>
</trkpt>
<trkpt lat="46.3006300" lon="9.9381460">
	<ele>2126.40</ele>
	<time>2021-08-31T13:03:55.000Z</time>
</trkpt>
<trkpt lat="46.3006290" lon="9.9381350">
	<ele>2126.60</ele>
	<time>2021-08-31T13:03:56.000Z</time>
</trkpt>
<trkpt lat="46.3006280" lon="9.9381200">
	<ele>2126.80</ele>
	<time>2021-08-31T13:03:57.000Z</time>
</trkpt>
<trkpt lat="46.3006270" lon="9.9380900">
	<ele>2127.00</ele>
	<time>2021-08-31T13:03:59.000Z</time>
</trkpt>
<trkpt lat="46.3006390" lon="9.9380030">
	<ele>2127.00</ele>
	<time>2021-08-31T13:04:05.000Z</time>
</trkpt>
<trkpt lat="46.3006440" lon="9.9379780">
	<ele>2126.80</ele>
	<time>2021-08-31T13:04:07.000Z</time>
</trkpt>
<trkpt lat="46.3006650" lon="9.9378830">
	<ele>2127.00</ele>
	<time>2021-08-31T13:04:14.000Z</time>
</trkpt>
<trkpt lat="46.3006760" lon="9.9378530">
	<ele>2127.00</ele>
	<time>2021-08-31T13:04:16.000Z</time>
</trkpt>
<trkpt lat="46.3006810" lon="9.9378090">
	<ele>2126.80</ele>
	<time>2021-08-31T13:04:20.000Z</time>
</trkpt>
<trkpt lat="46.3006830" lon="9.9377910">
	<ele>2126.60</ele>
	<time>2021-08-31T13:04:22.000Z</time>
</trkpt>
<trkpt lat="46.3006890" lon="9.9377710">
	<ele>2126.20</ele>
	<time>2021-08-31T13:04:24.000Z</time>
</trkpt>
<trkpt lat="46.3007150" lon="9.9376640">
	<ele>2125.40</ele>
	<time>2021-08-31T13:04:32.000Z</time>
</trkpt>
<trkpt lat="46.3007190" lon="9.9376470">
	<ele>2125.40</ele>
	<time>2021-08-31T13:04:33.000Z</time>
</trkpt>
<trkpt lat="46.3007290" lon="9.9376000">
	<ele>2125.40</ele>
	<time>2021-08-31T13:04:36.000Z</time>
</trkpt>
<trkpt lat="46.3007640" lon="9.9375590">
	<ele>2125.80</ele>
	<time>2021-08-31T13:04:40.000Z</time>
</trkpt>
<trkpt lat="46.3007970" lon="9.9375350">
	<ele>2125.80</ele>
	<time>2021-08-31T13:04:46.000Z</time>
</trkpt>
<trkpt lat="46.3007980" lon="9.9375310">
	<ele>2125.60</ele>
	<time>2021-08-31T13:04:47.000Z</time>
</trkpt>
<trkpt lat="46.3008100" lon="9.9375330">
	<ele>2125.40</ele>
	<time>2021-08-31T13:04:50.000Z</time>
</trkpt>
<trkpt lat="46.3008280" lon="9.9375390">
	<ele>2125.00</ele>
	<time>2021-08-31T13:04:54.000Z</time>
</trkpt>
<trkpt lat="46.3008300" lon="9.9375390">
	<ele>2124.80</ele>
	<time>2021-08-31T13:04:55.000Z</time>
</trkpt>
<trkpt lat="46.3008500" lon="9.9375420">
	<ele>2124.40</ele>
	<time>2021-08-31T13:04:59.000Z</time>
</trkpt>
<trkpt lat="46.3008610" lon="9.9375590">
	<ele>2123.80</ele>
	<time>2021-08-31T13:05:01.000Z</time>
</trkpt>
<trkpt lat="46.3008880" lon="9.9375540">
	<ele>2123.20</ele>
	<time>2021-08-31T13:05:04.000Z</time>
</trkpt>
<trkpt lat="46.3009400" lon="9.9375280">
	<ele>2122.60</ele>
	<time>2021-08-31T13:05:08.000Z</time>
</trkpt>
<trkpt lat="46.3009850" lon="9.9375170">
	<ele>2122.40</ele>
	<time>2021-08-31T13:05:14.000Z</time>
</trkpt>
<trkpt lat="46.3010210" lon="9.9375160">
	<ele>2122.40</ele>
	<time>2021-08-31T13:05:18.000Z</time>
</trkpt>
<trkpt lat="46.3010450" lon="9.9375220">
	<ele>2122.40</ele>
	<time>2021-08-31T13:05:21.000Z</time>
</trkpt>
<trkpt lat="46.3010580" lon="9.9375190">
	<ele>2122.20</ele>
	<time>2021-08-31T13:05:22.000Z</time>
</trkpt>
<trkpt lat="46.3010920" lon="9.9375020">
	<ele>2122.20</ele>
	<time>2021-08-31T13:05:25.000Z</time>
</trkpt>
<trkpt lat="46.3011360" lon="9.9374700">
	<ele>2122.00</ele>
	<time>2021-08-31T13:05:31.000Z</time>
</trkpt>
<trkpt lat="46.3011460" lon="9.9374700">
	<ele>2122.00</ele>
	<time>2021-08-31T13:05:32.000Z</time>
</trkpt>
<trkpt lat="46.3011650" lon="9.9374610">
	<ele>2121.80</ele>
	<time>2021-08-31T13:05:34.000Z</time>
</trkpt>
<trkpt lat="46.3011910" lon="9.9374540">
	<ele>2121.80</ele>
	<time>2021-08-31T13:05:38.000Z</time>
</trkpt>
<trkpt lat="46.3012670" lon="9.9374470">
	<ele>2122.20</ele>
	<time>2021-08-31T13:05:47.000Z</time>
</trkpt>
<trkpt lat="46.3013070" lon="9.9374650">
	<ele>2122.60</ele>
	<time>2021-08-31T13:05:53.000Z</time>
</trkpt>
<trkpt lat="46.3013470" lon="9.9374900">
	<ele>2121.80</ele>
	<time>2021-08-31T13:05:59.000Z</time>
</trkpt>
<trkpt lat="46.3013810" lon="9.9375000">
	<ele>2121.40</ele>
	<time>2021-08-31T13:06:04.000Z</time>
</trkpt>
<trkpt lat="46.3013990" lon="9.9374920">
	<ele>2121.20</ele>
	<time>2021-08-31T13:06:06.000Z</time>
</trkpt>
<trkpt lat="46.3014090" lon="9.9374930">
	<ele>2121.00</ele>
	<time>2021-08-31T13:06:07.000Z</time>
</trkpt>
<trkpt lat="46.3014660" lon="9.9374900">
	<ele>2120.20</ele>
	<time>2021-08-31T13:06:13.000Z</time>
</trkpt>
<trkpt lat="46.3014730" lon="9.9374890">
	<ele>2120.20</ele>
	<time>2021-08-31T13:06:14.000Z</time>
</trkpt>
<trkpt lat="46.3014800" lon="9.9374880">
	<ele>2120.00</ele>
	<time>2021-08-31T13:06:16.000Z</time>
</trkpt>
<trkpt lat="46.3014850" lon="9.9374890">
	<ele>2120.00</ele>
	<time>2021-08-31T13:06:17.000Z</time>
</trkpt>
<trkpt lat="46.3014980" lon="9.9374910">
	<ele>2119.60</ele>
	<time>2021-08-31T13:06:20.000Z</time>
</trkpt>
<trkpt lat="46.3015090" lon="9.9374930">
	<ele>2119.00</ele>
	<time>2021-08-31T13:06:23.000Z</time>
</trkpt>
<trkpt lat="46.3015440" lon="9.9375070">
	<ele>2118.00</ele>
	<time>2021-08-31T13:06:29.000Z</time>
</trkpt>
<trkpt lat="46.3015480" lon="9.9375080">
	<ele>2117.80</ele>
	<time>2021-08-31T13:06:30.000Z</time>
</trkpt>
<trkpt lat="46.3015720" lon="9.9375400">
	<ele>2116.80</ele>
	<time>2021-08-31T13:06:37.000Z</time>
</trkpt>
<trkpt lat="46.3015810" lon="9.9375360">
	<ele>2116.60</ele>
	<time>2021-08-31T13:06:38.000Z</time>
</trkpt>
<trkpt lat="46.3015900" lon="9.9375220">
	<ele>2116.20</ele>
	<time>2021-08-31T13:06:40.000Z</time>
</trkpt>
<trkpt lat="46.3015940" lon="9.9375120">
	<ele>2115.80</ele>
	<time>2021-08-31T13:06:42.000Z</time>
</trkpt>
<trkpt lat="46.3015890" lon="9.9375000">
	<ele>2115.60</ele>
	<time>2021-08-31T13:06:43.000Z</time>
</trkpt>
<trkpt lat="46.3015880" lon="9.9374910">
	<ele>2115.40</ele>
	<time>2021-08-31T13:06:45.000Z</time>
</trkpt>
<trkpt lat="46.3016100" lon="9.9374680">
	<ele>2114.60</ele>
	<time>2021-08-31T13:06:51.000Z</time>
</trkpt>
<trkpt lat="46.3016120" lon="9.9374350">
	<ele>2113.40</ele>
	<time>2021-08-31T13:06:56.000Z</time>
</trkpt>
<trkpt lat="46.3016140" lon="9.9374330">
	<ele>2113.40</ele>
	<time>2021-08-31T13:06:57.000Z</time>
</trkpt>
<trkpt lat="46.3016280" lon="9.9373630">
	<ele>2112.40</ele>
	<time>2021-08-31T13:07:04.000Z</time>
</trkpt>
<trkpt lat="46.3015940" lon="9.9373420">
	<ele>2111.40</ele>
	<time>2021-08-31T13:07:09.000Z</time>
</trkpt>
<trkpt lat="46.3015860" lon="9.9373370">
	<ele>2111.20</ele>
	<time>2021-08-31T13:07:10.000Z</time>
</trkpt>
<trkpt lat="46.3015730" lon="9.9373330">
	<ele>2110.40</ele>
	<time>2021-08-31T13:07:15.000Z</time>
</trkpt>
<trkpt lat="46.3015620" lon="9.9373230">
	<ele>2110.20</ele>
	<time>2021-08-31T13:07:25.000Z</time>
</trkpt>
<trkpt lat="46.3015620" lon="9.9373230">
	<ele>2110.20</ele>
	<time>2021-08-31T13:07:32.000Z</time>
</trkpt>
<trkpt lat="46.3015680" lon="9.9373240">
	<ele>2110.40</ele>
	<time>2021-08-31T13:07:40.000Z</time>
</trkpt>
<trkpt lat="46.3015700" lon="9.9373270">
	<ele>2110.00</ele>
	<time>2021-08-31T13:07:45.000Z</time>
</trkpt>
<trkpt lat="46.3015710" lon="9.9373250">
	<ele>2109.80</ele>
	<time>2021-08-31T13:07:48.000Z</time>
</trkpt>
<trkpt lat="46.3015710" lon="9.9373240">
	<ele>2109.80</ele>
	<time>2021-08-31T13:07:49.000Z</time>
</trkpt>
<trkpt lat="46.3015710" lon="9.9373230">
	<ele>2109.00</ele>
	<time>2021-08-31T13:07:53.000Z</time>
</trkpt>
<trkpt lat="46.3015700" lon="9.9373210">
	<ele>2107.80</ele>
	<time>2021-08-31T13:07:58.000Z</time>
</trkpt>
<trkpt lat="46.3015860" lon="9.9372480">
	<ele>2107.20</ele>
	<time>2021-08-31T13:08:04.000Z</time>
</trkpt>
<trkpt lat="46.3016050" lon="9.9372070">
	<ele>2106.80</ele>
	<time>2021-08-31T13:08:07.000Z</time>
</trkpt>
<trkpt lat="46.3016110" lon="9.9372000">
	<ele>2106.00</ele>
	<time>2021-08-31T13:08:12.000Z</time>
</trkpt>
<trkpt lat="46.3016220" lon="9.9371960">
	<ele>2105.80</ele>
	<time>2021-08-31T13:08:16.000Z</time>
</trkpt>
<trkpt lat="46.3016320" lon="9.9371910">
	<ele>2105.80</ele>
	<time>2021-08-31T13:08:18.000Z</time>
</trkpt>
<trkpt lat="46.3016500" lon="9.9371800">
	<ele>2105.20</ele>
	<time>2021-08-31T13:08:21.000Z</time>
</trkpt>
<trkpt lat="46.3016650" lon="9.9371740">
	<ele>2104.60</ele>
	<time>2021-08-31T13:08:23.000Z</time>
</trkpt>
<trkpt lat="46.3016890" lon="9.9371350">
	<ele>2103.60</ele>
	<time>2021-08-31T13:08:29.000Z</time>
</trkpt>
<trkpt lat="46.3016980" lon="9.9371350">
	<ele>2103.40</ele>
	<time>2021-08-31T13:08:31.000Z</time>
</trkpt>
<trkpt lat="46.3017140" lon="9.9371020">
	<ele>2103.00</ele>
	<time>2021-08-31T13:08:37.000Z</time>
</trkpt>
<trkpt lat="46.3017160" lon="9.9370930">
	<ele>2102.40</ele>
	<time>2021-08-31T13:08:38.000Z</time>
</trkpt>
<trkpt lat="46.3017440" lon="9.9370520">
	<ele>2101.40</ele>
	<time>2021-08-31T13:08:44.000Z</time>
</trkpt>
<trkpt lat="46.3017510" lon="9.9370490">
	<ele>2101.40</ele>
	<time>2021-08-31T13:08:45.000Z</time>
</trkpt>
<trkpt lat="46.3017860" lon="9.9369920">
	<ele>2100.40</ele>
	<time>2021-08-31T13:08:51.000Z</time>
</trkpt>
<trkpt lat="46.3017930" lon="9.9369780">
	<ele>2100.20</ele>
	<time>2021-08-31T13:08:52.000Z</time>
</trkpt>
<trkpt lat="46.3018350" lon="9.9369440">
	<ele>2099.80</ele>
	<time>2021-08-31T13:08:58.000Z</time>
</trkpt>
<trkpt lat="46.3018560" lon="9.9368710">
	<ele>2099.40</ele>
	<time>2021-08-31T13:09:05.000Z</time>
</trkpt>
<trkpt lat="46.3018750" lon="9.9367930">
	<ele>2099.60</ele>
	<time>2021-08-31T13:09:12.000Z</time>
</trkpt>
<trkpt lat="46.3019110" lon="9.9367160">
	<ele>2099.40</ele>
	<time>2021-08-31T13:09:20.000Z</time>
</trkpt>
<trkpt lat="46.3019190" lon="9.9367100">
	<ele>2099.20</ele>
	<time>2021-08-31T13:09:22.000Z</time>
</trkpt>
<trkpt lat="46.3019220" lon="9.9367060">
	<ele>2099.20</ele>
	<time>2021-08-31T13:09:23.000Z</time>
</trkpt>
<trkpt lat="46.3019210" lon="9.9367010">
	<ele>2099.20</ele>
	<time>2021-08-31T13:09:27.000Z</time>
</trkpt>
<trkpt lat="46.3019410" lon="9.9367010">
	<ele>2100.40</ele>
	<time>2021-08-31T13:09:50.000Z</time>
</trkpt>
<trkpt lat="46.3019900" lon="9.9366660">
	<ele>2101.20</ele>
	<time>2021-08-31T13:09:55.000Z</time>
</trkpt>
<trkpt lat="46.3020160" lon="9.9366530">
	<ele>2101.40</ele>
	<time>2021-08-31T13:09:57.000Z</time>
</trkpt>
<trkpt lat="46.3020440" lon="9.9366380">
	<ele>2101.60</ele>
	<time>2021-08-31T13:09:59.000Z</time>
</trkpt>
<trkpt lat="46.3020580" lon="9.9366100">
	<ele>2102.20</ele>
	<time>2021-08-31T13:10:02.000Z</time>
</trkpt>
<trkpt lat="46.3020650" lon="9.9365940">
	<ele>2102.60</ele>
	<time>2021-08-31T13:10:04.000Z</time>
</trkpt>
<trkpt lat="46.3020930" lon="9.9365540">
	<ele>2103.60</ele>
	<time>2021-08-31T13:10:10.000Z</time>
</trkpt>
<trkpt lat="46.3020960" lon="9.9365530">
	<ele>2103.80</ele>
	<time>2021-08-31T13:10:11.000Z</time>
</trkpt>
<trkpt lat="46.3021020" lon="9.9365540">
	<ele>2104.20</ele>
	<time>2021-08-31T13:10:13.000Z</time>
</trkpt>
<trkpt lat="46.3021000" lon="9.9365650">
	<ele>2104.60</ele>
	<time>2021-08-31T13:10:15.000Z</time>
</trkpt>
<trkpt lat="46.3020970" lon="9.9365710">
	<ele>2104.80</ele>
	<time>2021-08-31T13:10:16.000Z</time>
</trkpt>
<trkpt lat="46.3020890" lon="9.9365820">
	<ele>2105.20</ele>
	<time>2021-08-31T13:10:18.000Z</time>
</trkpt>
<trkpt lat="46.3020950" lon="9.9365970">
	<ele>2106.00</ele>
	<time>2021-08-31T13:10:22.000Z</time>
</trkpt>
<trkpt lat="46.3021010" lon="9.9365950">
	<ele>2106.00</ele>
	<time>2021-08-31T13:10:23.000Z</time>
</trkpt>
<trkpt lat="46.3021180" lon="9.9365880">
	<ele>2107.00</ele>
	<time>2021-08-31T13:10:27.000Z</time>
</trkpt>
<trkpt lat="46.3021330" lon="9.9365780">
	<ele>2107.20</ele>
	<time>2021-08-31T13:10:29.000Z</time>
</trkpt>
<trkpt lat="46.3021490" lon="9.9365720">
	<ele>2108.00</ele>
	<time>2021-08-31T13:10:32.000Z</time>
</trkpt>
<trkpt lat="46.3021680" lon="9.9365690">
	<ele>2108.60</ele>
	<time>2021-08-31T13:10:35.000Z</time>
</trkpt>
<trkpt lat="46.3021780" lon="9.9365590">
	<ele>2109.20</ele>
	<time>2021-08-31T13:10:39.000Z</time>
</trkpt>
<trkpt lat="46.3021810" lon="9.9365580">
	<ele>2109.20</ele>
	<time>2021-08-31T13:10:42.000Z</time>
</trkpt>
<trkpt lat="46.3022090" lon="9.9365260">
	<ele>2109.80</ele>
	<time>2021-08-31T13:10:47.000Z</time>
</trkpt>
<trkpt lat="46.3022190" lon="9.9364990">
	<ele>2110.20</ele>
	<time>2021-08-31T13:10:50.000Z</time>
</trkpt>
<trkpt lat="46.3022240" lon="9.9364770">
	<ele>2110.20</ele>
	<time>2021-08-31T13:10:54.000Z</time>
</trkpt>
<trkpt lat="46.3022330" lon="9.9364940">
	<ele>2109.80</ele>
	<time>2021-08-31T13:11:00.000Z</time>
</trkpt>
<trkpt lat="46.3022300" lon="9.9365000">
	<ele>2109.80</ele>
	<time>2021-08-31T13:11:09.000Z</time>
</trkpt>
<trkpt lat="46.3022330" lon="9.9364990">
	<ele>2109.40</ele>
	<time>2021-08-31T13:11:18.000Z</time>
</trkpt>
<trkpt lat="46.3022340" lon="9.9364940">
	<ele>2109.00</ele>
	<time>2021-08-31T13:11:22.000Z</time>
</trkpt>
<trkpt lat="46.3022580" lon="9.9364600">
	<ele>2109.20</ele>
	<time>2021-08-31T13:11:40.000Z</time>
</trkpt>
<trkpt lat="46.3022590" lon="9.9364600">
	<ele>2109.20</ele>
	<time>2021-08-31T13:11:43.000Z</time>
</trkpt>
<trkpt lat="46.3022620" lon="9.9364640">
	<ele>2109.20</ele>
	<time>2021-08-31T13:11:45.000Z</time>
</trkpt>
<trkpt lat="46.3022910" lon="9.9365120">
	<ele>2109.20</ele>
	<time>2021-08-31T13:11:50.000Z</time>
</trkpt>
<trkpt lat="46.3023420" lon="9.9365030">
	<ele>2109.20</ele>
	<time>2021-08-31T13:11:56.000Z</time>
</trkpt>
<trkpt lat="46.3023480" lon="9.9364930">
	<ele>2109.20</ele>
	<time>2021-08-31T13:11:57.000Z</time>
</trkpt>
<trkpt lat="46.3023780" lon="9.9365060">
	<ele>2109.20</ele>
	<time>2021-08-31T13:12:01.000Z</time>
</trkpt>
<trkpt lat="46.3024270" lon="9.9364860">
	<ele>2109.20</ele>
	<time>2021-08-31T13:12:07.000Z</time>
</trkpt>
<trkpt lat="46.3024370" lon="9.9364840">
	<ele>2109.20</ele>
	<time>2021-08-31T13:12:11.000Z</time>
</trkpt>
<trkpt lat="46.3024330" lon="9.9364840">
	<ele>2109.20</ele>
	<time>2021-08-31T13:12:12.000Z</time>
</trkpt>
<trkpt lat="46.3024400" lon="9.9364920">
	<ele>2107.40</ele>
	<time>2021-08-31T13:12:14.000Z</time>
</trkpt>
<trkpt lat="46.3024490" lon="9.9364980">
	<ele>2106.80</ele>
	<time>2021-08-31T13:12:16.000Z</time>
</trkpt>
<trkpt lat="46.3024580" lon="9.9364990">
	<ele>2106.60</ele>
	<time>2021-08-31T13:12:17.000Z</time>
</trkpt>
<trkpt lat="46.3024720" lon="9.9365030">
	<ele>2106.40</ele>
	<time>2021-08-31T13:12:19.000Z</time>
</trkpt>
<trkpt lat="46.3024830" lon="9.9365020">
	<ele>2106.20</ele>
	<time>2021-08-31T13:12:22.000Z</time>
</trkpt>
<trkpt lat="46.3024820" lon="9.9364910">
	<ele>2106.00</ele>
	<time>2021-08-31T13:12:24.000Z</time>
</trkpt>
<trkpt lat="46.3024800" lon="9.9364610">
	<ele>2106.20</ele>
	<time>2021-08-31T13:12:27.000Z</time>
</trkpt>
<trkpt lat="46.3024850" lon="9.9364610">
	<ele>2106.20</ele>
	<time>2021-08-31T13:12:28.000Z</time>
</trkpt>
<trkpt lat="46.3024870" lon="9.9364260">
	<ele>2106.60</ele>
	<time>2021-08-31T13:12:34.000Z</time>
</trkpt>
<trkpt lat="46.3024870" lon="9.9364290">
	<ele>2106.40</ele>
	<time>2021-08-31T13:12:43.000Z</time>
</trkpt>
<trkpt lat="46.3025230" lon="9.9365170">
	<ele>2106.40</ele>
	<time>2021-08-31T13:12:52.000Z</time>
</trkpt>
<trkpt lat="46.3025500" lon="9.9366000">
	<ele>2106.20</ele>
	<time>2021-08-31T13:12:56.000Z</time>
</trkpt>
<trkpt lat="46.3025570" lon="9.9366200">
	<ele>2106.20</ele>
	<time>2021-08-31T13:12:57.000Z</time>
</trkpt>
<trkpt lat="46.3025860" lon="9.9366620">
	<ele>2106.00</ele>
	<time>2021-08-31T13:13:02.000Z</time>
</trkpt>
<trkpt lat="46.3026430" lon="9.9367190">
	<ele>2105.40</ele>
	<time>2021-08-31T13:13:09.000Z</time>
</trkpt>
<trkpt lat="46.3026740" lon="9.9367460">
	<ele>2105.40</ele>
	<time>2021-08-31T13:13:13.000Z</time>
</trkpt>
<trkpt lat="46.3026790" lon="9.9367540">
	<ele>2105.20</ele>
	<time>2021-08-31T13:13:15.000Z</time>
</trkpt>
<trkpt lat="46.3026830" lon="9.9367900">
	<ele>2104.80</ele>
	<time>2021-08-31T13:13:20.000Z</time>
</trkpt>
<trkpt lat="46.3027140" lon="9.9367830">
	<ele>2104.20</ele>
	<time>2021-08-31T13:13:23.000Z</time>
</trkpt>
<trkpt lat="46.3027230" lon="9.9367800">
	<ele>2103.80</ele>
	<time>2021-08-31T13:13:26.000Z</time>
</trkpt>
<trkpt lat="46.3027260" lon="9.9367930">
	<ele>2103.20</ele>
	<time>2021-08-31T13:13:29.000Z</time>
</trkpt>
<trkpt lat="46.3027460" lon="9.9368190">
	<ele>2102.60</ele>
	<time>2021-08-31T13:13:33.000Z</time>
</trkpt>
<trkpt lat="46.3027550" lon="9.9368260">
	<ele>2102.00</ele>
	<time>2021-08-31T13:13:35.000Z</time>
</trkpt>
<trkpt lat="46.3027850" lon="9.9368420">
	<ele>2101.20</ele>
	<time>2021-08-31T13:13:41.000Z</time>
</trkpt>
<trkpt lat="46.3027900" lon="9.9368440">
	<ele>2100.80</ele>
	<time>2021-08-31T13:13:42.000Z</time>
</trkpt>
<trkpt lat="46.3027950" lon="9.9368430">
	<ele>2100.40</ele>
	<time>2021-08-31T13:13:44.000Z</time>
</trkpt>
<trkpt lat="46.3028120" lon="9.9368420">
	<ele>2099.80</ele>
	<time>2021-08-31T13:13:48.000Z</time>
</trkpt>
<trkpt lat="46.3028180" lon="9.9368150">
	<ele>2099.20</ele>
	<time>2021-08-31T13:13:51.000Z</time>
</trkpt>
<trkpt lat="46.3028140" lon="9.9368090">
	<ele>2098.80</ele>
	<time>2021-08-31T13:13:53.000Z</time>
</trkpt>
<trkpt lat="46.3028150" lon="9.9368070">
	<ele>2098.60</ele>
	<time>2021-08-31T13:13:54.000Z</time>
</trkpt>
<trkpt lat="46.3028190" lon="9.9367970">
	<ele>2098.20</ele>
	<time>2021-08-31T13:13:57.000Z</time>
</trkpt>
<trkpt lat="46.3028120" lon="9.9367650">
	<ele>2097.60</ele>
	<time>2021-08-31T13:14:01.000Z</time>
</trkpt>
<trkpt lat="46.3028120" lon="9.9367380">
	<ele>2097.00</ele>
	<time>2021-08-31T13:14:05.000Z</time>
</trkpt>
<trkpt lat="46.3028380" lon="9.9367380">
	<ele>2096.60</ele>
	<time>2021-08-31T13:14:09.000Z</time>
</trkpt>
<trkpt lat="46.3028520" lon="9.9367460">
	<ele>2095.80</ele>
	<time>2021-08-31T13:14:14.000Z</time>
</trkpt>
<trkpt lat="46.3028580" lon="9.9367340">
	<ele>2095.40</ele>
	<time>2021-08-31T13:14:16.000Z</time>
</trkpt>
<trkpt lat="46.3028610" lon="9.9367200">
	<ele>2095.00</ele>
	<time>2021-08-31T13:14:20.000Z</time>
</trkpt>
<trkpt lat="46.3029020" lon="9.9367240">
	<ele>2094.40</ele>
	<time>2021-08-31T13:14:24.000Z</time>
</trkpt>
<trkpt lat="46.3029100" lon="9.9367220">
	<ele>2094.20</ele>
	<time>2021-08-31T13:14:26.000Z</time>
</trkpt>
<trkpt lat="46.3029280" lon="9.9366810">
	<ele>2093.40</ele>
	<time>2021-08-31T13:14:32.000Z</time>
</trkpt>
<trkpt lat="46.3029520" lon="9.9366580">
	<ele>2092.40</ele>
	<time>2021-08-31T13:14:38.000Z</time>
</trkpt>
<trkpt lat="46.3029570" lon="9.9366570">
	<ele>2092.20</ele>
	<time>2021-08-31T13:14:39.000Z</time>
</trkpt>
<trkpt lat="46.3030060" lon="9.9366140">
	<ele>2091.00</ele>
	<time>2021-08-31T13:14:48.000Z</time>
</trkpt>
<trkpt lat="46.3030060" lon="9.9365800">
	<ele>2090.40</ele>
	<time>2021-08-31T13:14:52.000Z</time>
</trkpt>
<trkpt lat="46.3030070" lon="9.9365870">
	<ele>2090.00</ele>
	<time>2021-08-31T13:14:57.000Z</time>
</trkpt>
<trkpt lat="46.3030070" lon="9.9365810">
	<ele>2089.80</ele>
	<time>2021-08-31T13:14:58.000Z</time>
</trkpt>
<trkpt lat="46.3029850" lon="9.9365860">
	<ele>2088.80</ele>
	<time>2021-08-31T13:15:04.000Z</time>
</trkpt>
<trkpt lat="46.3029770" lon="9.9365540">
	<ele>2087.80</ele>
	<time>2021-08-31T13:15:11.000Z</time>
</trkpt>
<trkpt lat="46.3029790" lon="9.9365500">
	<ele>2087.60</ele>
	<time>2021-08-31T13:15:12.000Z</time>
</trkpt>
<trkpt lat="46.3029860" lon="9.9365100">
	<ele>2086.80</ele>
	<time>2021-08-31T13:15:18.000Z</time>
</trkpt>
<trkpt lat="46.3029950" lon="9.9365080">
	<ele>2086.20</ele>
	<time>2021-08-31T13:15:21.000Z</time>
</trkpt>
<trkpt lat="46.3029890" lon="9.9365120">
	<ele>2085.60</ele>
	<time>2021-08-31T13:15:24.000Z</time>
</trkpt>
<trkpt lat="46.3029980" lon="9.9365030">
	<ele>2084.80</ele>
	<time>2021-08-31T13:15:30.000Z</time>
</trkpt>
<trkpt lat="46.3030030" lon="9.9365040">
	<ele>2084.60</ele>
	<time>2021-08-31T13:15:31.000Z</time>
</trkpt>
<trkpt lat="46.3030560" lon="9.9364540">
	<ele>2083.80</ele>
	<time>2021-08-31T13:15:38.000Z</time>
</trkpt>
<trkpt lat="46.3030680" lon="9.9364080">
	<ele>2083.40</ele>
	<time>2021-08-31T13:15:45.000Z</time>
</trkpt>
<trkpt lat="46.3030800" lon="9.9363730">
	<ele>2082.40</ele>
	<time>2021-08-31T13:15:52.000Z</time>
</trkpt>
<trkpt lat="46.3030910" lon="9.9363220">
	<ele>2081.20</ele>
	<time>2021-08-31T13:15:58.000Z</time>
</trkpt>
<trkpt lat="46.3030970" lon="9.9363100">
	<ele>2081.00</ele>
	<time>2021-08-31T13:15:59.000Z</time>
</trkpt>
<trkpt lat="46.3031100" lon="9.9362290">
	<ele>2081.00</ele>
	<time>2021-08-31T13:16:05.000Z</time>
</trkpt>
<trkpt lat="46.3030850" lon="9.9361000">
	<ele>2080.60</ele>
	<time>2021-08-31T13:16:13.000Z</time>
</trkpt>
<trkpt lat="46.3030950" lon="9.9360210">
	<ele>2080.40</ele>
	<time>2021-08-31T13:16:19.000Z</time>
</trkpt>
<trkpt lat="46.3031070" lon="9.9359980">
	<ele>2080.40</ele>
	<time>2021-08-31T13:16:21.000Z</time>
</trkpt>
<trkpt lat="46.3031720" lon="9.9358980">
	<ele>2080.20</ele>
	<time>2021-08-31T13:16:31.000Z</time>
</trkpt>
<trkpt lat="46.3031800" lon="9.9358910">
	<ele>2080.00</ele>
	<time>2021-08-31T13:16:32.000Z</time>
</trkpt>
<trkpt lat="46.3032300" lon="9.9358170">
	<ele>2079.20</ele>
	<time>2021-08-31T13:16:38.000Z</time>
</trkpt>
<trkpt lat="46.3032410" lon="9.9358040">
	<ele>2079.00</ele>
	<time>2021-08-31T13:16:39.000Z</time>
</trkpt>
<trkpt lat="46.3033080" lon="9.9357610">
	<ele>2079.40</ele>
	<time>2021-08-31T13:16:46.000Z</time>
</trkpt>
<trkpt lat="46.3033130" lon="9.9357510">
	<ele>2079.60</ele>
	<time>2021-08-31T13:16:47.000Z</time>
</trkpt>
<trkpt lat="46.3033230" lon="9.9357470">
	<ele>2080.20</ele>
	<time>2021-08-31T13:16:49.000Z</time>
</trkpt>
<trkpt lat="46.3033240" lon="9.9357420">
	<ele>2080.40</ele>
	<time>2021-08-31T13:16:50.000Z</time>
</trkpt>
<trkpt lat="46.3033410" lon="9.9357270">
	<ele>2080.60</ele>
	<time>2021-08-31T13:16:53.000Z</time>
</trkpt>
<trkpt lat="46.3033530" lon="9.9357150">
	<ele>2081.20</ele>
	<time>2021-08-31T13:16:55.000Z</time>
</trkpt>
<trkpt lat="46.3033600" lon="9.9357090">
	<ele>2081.40</ele>
	<time>2021-08-31T13:16:56.000Z</time>
</trkpt>
<trkpt lat="46.3033820" lon="9.9356950">
	<ele>2081.40</ele>
	<time>2021-08-31T13:16:58.000Z</time>
</trkpt>
<trkpt lat="46.3033910" lon="9.9356920">
	<ele>2081.60</ele>
	<time>2021-08-31T13:16:59.000Z</time>
</trkpt>
<trkpt lat="46.3034370" lon="9.9356770">
	<ele>2081.00</ele>
	<time>2021-08-31T13:17:04.000Z</time>
</trkpt>
<trkpt lat="46.3034690" lon="9.9356760">
	<ele>2080.80</ele>
	<time>2021-08-31T13:17:08.000Z</time>
</trkpt>
<trkpt lat="46.3034910" lon="9.9356580">
	<ele>2080.20</ele>
	<time>2021-08-31T13:17:12.000Z</time>
</trkpt>
<trkpt lat="46.3034950" lon="9.9356560">
	<ele>2080.00</ele>
	<time>2021-08-31T13:17:13.000Z</time>
</trkpt>
<trkpt lat="46.3035120" lon="9.9356420">
	<ele>2079.80</ele>
	<time>2021-08-31T13:17:16.000Z</time>
</trkpt>
<trkpt lat="46.3035140" lon="9.9356330">
	<ele>2079.60</ele>
	<time>2021-08-31T13:17:20.000Z</time>
</trkpt>
<trkpt lat="46.3035420" lon="9.9356300">
	<ele>2079.40</ele>
	<time>2021-08-31T13:17:25.000Z</time>
</trkpt>
<trkpt lat="46.3035430" lon="9.9356270">
	<ele>2079.20</ele>
	<time>2021-08-31T13:17:26.000Z</time>
</trkpt>
<trkpt lat="46.3035470" lon="9.9356280">
	<ele>2079.20</ele>
	<time>2021-08-31T13:17:27.000Z</time>
</trkpt>
<trkpt lat="46.3035690" lon="9.9356250">
	<ele>2078.20</ele>
	<time>2021-08-31T13:17:34.000Z</time>
</trkpt>
<trkpt lat="46.3035760" lon="9.9356290">
	<ele>2078.20</ele>
	<time>2021-08-31T13:17:36.000Z</time>
</trkpt>
<trkpt lat="46.3036060" lon="9.9356410">
	<ele>2077.20</ele>
	<time>2021-08-31T13:17:42.000Z</time>
</trkpt>
<trkpt lat="46.3036080" lon="9.9356440">
	<ele>2077.00</ele>
	<time>2021-08-31T13:17:43.000Z</time>
</trkpt>
<trkpt lat="46.3036320" lon="9.9356390">
	<ele>2076.60</ele>
	<time>2021-08-31T13:17:49.000Z</time>
</trkpt>
<trkpt lat="46.3036430" lon="9.9356340">
	<ele>2076.00</ele>
	<time>2021-08-31T13:17:52.000Z</time>
</trkpt>
<trkpt lat="46.3036610" lon="9.9356620">
	<ele>2074.80</ele>
	<time>2021-08-31T13:17:57.000Z</time>
</trkpt>
<trkpt lat="46.3036660" lon="9.9356620">
	<ele>2074.60</ele>
	<time>2021-08-31T13:17:58.000Z</time>
</trkpt>
<trkpt lat="46.3036820" lon="9.9356640">
	<ele>2074.20</ele>
	<time>2021-08-31T13:18:02.000Z</time>
</trkpt>
<trkpt lat="46.3037000" lon="9.9356760">
	<ele>2073.60</ele>
	<time>2021-08-31T13:18:05.000Z</time>
</trkpt>
<trkpt lat="46.3037200" lon="9.9356890">
	<ele>2073.40</ele>
	<time>2021-08-31T13:18:08.000Z</time>
</trkpt>
<trkpt lat="46.3037500" lon="9.9357210">
	<ele>2072.80</ele>
	<time>2021-08-31T13:18:13.000Z</time>
</trkpt>
<trkpt lat="46.3037540" lon="9.9357160">
	<ele>2072.60</ele>
	<time>2021-08-31T13:18:14.000Z</time>
</trkpt>
<trkpt lat="46.3037520" lon="9.9356830">
	<ele>2072.40</ele>
	<time>2021-08-31T13:18:18.000Z</time>
</trkpt>
<trkpt lat="46.3037400" lon="9.9356530">
	<ele>2071.60</ele>
	<time>2021-08-31T13:18:24.000Z</time>
</trkpt>
<trkpt lat="46.3037440" lon="9.9356310">
	<ele>2071.20</ele>
	<time>2021-08-31T13:18:27.000Z</time>
</trkpt>
<trkpt lat="46.3037380" lon="9.9355980">
	<ele>2070.40</ele>
	<time>2021-08-31T13:18:31.000Z</time>
</trkpt>
<trkpt lat="46.3037210" lon="9.9355620">
	<ele>2069.20</ele>
	<time>2021-08-31T13:18:37.000Z</time>
</trkpt>
<trkpt lat="46.3037160" lon="9.9355460">
	<ele>2068.20</ele>
	<time>2021-08-31T13:18:41.000Z</time>
</trkpt>
<trkpt lat="46.3037150" lon="9.9355140">
	<ele>2067.60</ele>
	<time>2021-08-31T13:18:44.000Z</time>
</trkpt>
<trkpt lat="46.3037060" lon="9.9355040">
	<ele>2067.20</ele>
	<time>2021-08-31T13:18:47.000Z</time>
</trkpt>
<trkpt lat="46.3036900" lon="9.9354830">
	<ele>2066.40</ele>
	<time>2021-08-31T13:18:52.000Z</time>
</trkpt>
<trkpt lat="46.3036960" lon="9.9354750">
	<ele>2066.20</ele>
	<time>2021-08-31T13:18:54.000Z</time>
</trkpt>
<trkpt lat="46.3036990" lon="9.9354710">
	<ele>2065.80</ele>
	<time>2021-08-31T13:18:57.000Z</time>
</trkpt>
<trkpt lat="46.3037150" lon="9.9354550">
	<ele>2065.40</ele>
	<time>2021-08-31T13:19:01.000Z</time>
</trkpt>
<trkpt lat="46.3037220" lon="9.9354360">
	<ele>2065.00</ele>
	<time>2021-08-31T13:19:03.000Z</time>
</trkpt>
<trkpt lat="46.3037290" lon="9.9354220">
	<ele>2064.60</ele>
	<time>2021-08-31T13:19:05.000Z</time>
</trkpt>
<trkpt lat="46.3037240" lon="9.9353850">
	<ele>2063.80</ele>
	<time>2021-08-31T13:19:10.000Z</time>
</trkpt>
<trkpt lat="46.3037050" lon="9.9353470">
	<ele>2062.80</ele>
	<time>2021-08-31T13:19:15.000Z</time>
</trkpt>
<trkpt lat="46.3037010" lon="9.9353330">
	<ele>2062.40</ele>
	<time>2021-08-31T13:19:18.000Z</time>
</trkpt>
<trkpt lat="46.3036960" lon="9.9353030">
	<ele>2062.00</ele>
	<time>2021-08-31T13:19:21.000Z</time>
</trkpt>
<trkpt lat="46.3036900" lon="9.9352890">
	<ele>2061.80</ele>
	<time>2021-08-31T13:19:22.000Z</time>
</trkpt>
<trkpt lat="46.3036690" lon="9.9352860">
	<ele>2060.60</ele>
	<time>2021-08-31T13:19:26.000Z</time>
</trkpt>
<trkpt lat="46.3036640" lon="9.9352860">
	<ele>2060.60</ele>
	<time>2021-08-31T13:19:27.000Z</time>
</trkpt>
<trkpt lat="46.3036210" lon="9.9353040">
	<ele>2059.60</ele>
	<time>2021-08-31T13:19:34.000Z</time>
</trkpt>
<trkpt lat="46.3036190" lon="9.9353050">
	<ele>2059.60</ele>
	<time>2021-08-31T13:19:35.000Z</time>
</trkpt>
<trkpt lat="46.3036030" lon="9.9353210">
	<ele>2058.80</ele>
	<time>2021-08-31T13:19:38.000Z</time>
</trkpt>
<trkpt lat="46.3036010" lon="9.9353220">
	<ele>2058.40</ele>
	<time>2021-08-31T13:19:39.000Z</time>
</trkpt>
<trkpt lat="46.3035740" lon="9.9353280">
	<ele>2057.40</ele>
	<time>2021-08-31T13:19:44.000Z</time>
</trkpt>
<trkpt lat="46.3035670" lon="9.9353170">
	<ele>2057.20</ele>
	<time>2021-08-31T13:19:46.000Z</time>
</trkpt>
<trkpt lat="46.3035590" lon="9.9352780">
	<ele>2056.60</ele>
	<time>2021-08-31T13:19:50.000Z</time>
</trkpt>
<trkpt lat="46.3035760" lon="9.9352340">
	<ele>2056.20</ele>
	<time>2021-08-31T13:19:53.000Z</time>
</trkpt>
<trkpt lat="46.3035960" lon="9.9351780">
	<ele>2055.60</ele>
	<time>2021-08-31T13:19:57.000Z</time>
</trkpt>
<trkpt lat="46.3036210" lon="9.9351320">
	<ele>2055.80</ele>
	<time>2021-08-31T13:20:02.000Z</time>
</trkpt>
<trkpt lat="46.3036290" lon="9.9351180">
	<ele>2056.00</ele>
	<time>2021-08-31T13:20:04.000Z</time>
</trkpt>
<trkpt lat="46.3036500" lon="9.9350750">
	<ele>2056.00</ele>
	<time>2021-08-31T13:20:09.000Z</time>
</trkpt>
<trkpt lat="46.3036650" lon="9.9350620">
	<ele>2055.60</ele>
	<time>2021-08-31T13:20:11.000Z</time>
</trkpt>
<trkpt lat="46.3036750" lon="9.9350640">
	<ele>2055.20</ele>
	<time>2021-08-31T13:20:13.000Z</time>
</trkpt>
<trkpt lat="46.3036800" lon="9.9350680">
	<ele>2055.20</ele>
	<time>2021-08-31T13:20:14.000Z</time>
</trkpt>
<trkpt lat="46.3036920" lon="9.9350510">
	<ele>2054.40</ele>
	<time>2021-08-31T13:20:19.000Z</time>
</trkpt>
<trkpt lat="46.3036780" lon="9.9350370">
	<ele>2054.20</ele>
	<time>2021-08-31T13:20:21.000Z</time>
</trkpt>
<trkpt lat="46.3036610" lon="9.9350120">
	<ele>2053.60</ele>
	<time>2021-08-31T13:20:24.000Z</time>
</trkpt>
<trkpt lat="46.3036540" lon="9.9349960">
	<ele>2053.40</ele>
	<time>2021-08-31T13:20:26.000Z</time>
</trkpt>
<trkpt lat="46.3036480" lon="9.9349780">
	<ele>2053.00</ele>
	<time>2021-08-31T13:20:28.000Z</time>
</trkpt>
<trkpt lat="46.3036170" lon="9.9349410">
	<ele>2052.20</ele>
	<time>2021-08-31T13:20:33.000Z</time>
</trkpt>
<trkpt lat="46.3036130" lon="9.9349320">
	<ele>2051.80</ele>
	<time>2021-08-31T13:20:34.000Z</time>
</trkpt>
<trkpt lat="46.3035680" lon="9.9348620">
	<ele>2051.00</ele>
	<time>2021-08-31T13:20:41.000Z</time>
</trkpt>
<trkpt lat="46.3035640" lon="9.9348540">
	<ele>2050.80</ele>
	<time>2021-08-31T13:20:42.000Z</time>
</trkpt>
<trkpt lat="46.3035310" lon="9.9347920">
	<ele>2049.80</ele>
	<time>2021-08-31T13:20:49.000Z</time>
</trkpt>
<trkpt lat="46.3035300" lon="9.9347830">
	<ele>2049.60</ele>
	<time>2021-08-31T13:20:50.000Z</time>
</trkpt>
<trkpt lat="46.3035370" lon="9.9347500">
	<ele>2049.20</ele>
	<time>2021-08-31T13:20:54.000Z</time>
</trkpt>
<trkpt lat="46.3035370" lon="9.9347420">
	<ele>2049.00</ele>
	<time>2021-08-31T13:20:55.000Z</time>
</trkpt>
<trkpt lat="46.3035320" lon="9.9347200">
	<ele>2048.60</ele>
	<time>2021-08-31T13:20:57.000Z</time>
</trkpt>
<trkpt lat="46.3035040" lon="9.9346770">
	<ele>2047.60</ele>
	<time>2021-08-31T13:21:02.000Z</time>
</trkpt>
<trkpt lat="46.3034980" lon="9.9346620">
	<ele>2047.60</ele>
	<time>2021-08-31T13:21:03.000Z</time>
</trkpt>
<trkpt lat="46.3034920" lon="9.9346470">
	<ele>2047.40</ele>
	<time>2021-08-31T13:21:04.000Z</time>
</trkpt>
<trkpt lat="46.3034700" lon="9.9345620">
	<ele>2046.80</ele>
	<time>2021-08-31T13:21:09.000Z</time>
</trkpt>
<trkpt lat="46.3034640" lon="9.9345350">
	<ele>2046.60</ele>
	<time>2021-08-31T13:21:11.000Z</time>
</trkpt>
<trkpt lat="46.3034590" lon="9.9345050">
	<ele>2046.80</ele>
	<time>2021-08-31T13:21:13.000Z</time>
</trkpt>
<trkpt lat="46.3034510" lon="9.9344780">
	<ele>2046.80</ele>
	<time>2021-08-31T13:21:16.000Z</time>
</trkpt>
<trkpt lat="46.3034510" lon="9.9344850">
	<ele>2046.80</ele>
	<time>2021-08-31T13:21:18.000Z</time>
</trkpt>
<trkpt lat="46.3034620" lon="9.9345050">
	<ele>2046.80</ele>
	<time>2021-08-31T13:21:21.000Z</time>
</trkpt>
<trkpt lat="46.3034680" lon="9.9345380">
	<ele>2046.80</ele>
	<time>2021-08-31T13:21:25.000Z</time>
</trkpt>
<trkpt lat="46.3034720" lon="9.9345420">
	<ele>2046.80</ele>
	<time>2021-08-31T13:21:27.000Z</time>
</trkpt>
<trkpt lat="46.3034680" lon="9.9344760">
	<ele>2046.80</ele>
	<time>2021-08-31T13:21:32.000Z</time>
</trkpt>
<trkpt lat="46.3034550" lon="9.9344230">
	<ele>2046.60</ele>
	<time>2021-08-31T13:21:36.000Z</time>
</trkpt>
<trkpt lat="46.3034490" lon="9.9343950">
	<ele>2046.40</ele>
	<time>2021-08-31T13:21:39.000Z</time>
</trkpt>
<trkpt lat="46.3034450" lon="9.9343760">
	<ele>2046.00</ele>
	<time>2021-08-31T13:21:41.000Z</time>
</trkpt>
<trkpt lat="46.3034490" lon="9.9343370">
	<ele>2045.40</ele>
	<time>2021-08-31T13:21:44.000Z</time>
</trkpt>
<trkpt lat="46.3034440" lon="9.9343150">
	<ele>2045.20</ele>
	<time>2021-08-31T13:21:46.000Z</time>
</trkpt>
<trkpt lat="46.3034430" lon="9.9342740">
	<ele>2044.80</ele>
	<time>2021-08-31T13:21:49.000Z</time>
</trkpt>
<trkpt lat="46.3034430" lon="9.9342560">
	<ele>2044.40</ele>
	<time>2021-08-31T13:21:50.000Z</time>
</trkpt>
<trkpt lat="46.3034400" lon="9.9342030">
	<ele>2043.80</ele>
	<time>2021-08-31T13:21:53.000Z</time>
</trkpt>
<trkpt lat="46.3034450" lon="9.9341170">
	<ele>2043.40</ele>
	<time>2021-08-31T13:21:58.000Z</time>
</trkpt>
<trkpt lat="46.3034440" lon="9.9340970">
	<ele>2043.40</ele>
	<time>2021-08-31T13:21:59.000Z</time>
</trkpt>
<trkpt lat="46.3034350" lon="9.9340600">
	<ele>2043.20</ele>
	<time>2021-08-31T13:22:01.000Z</time>
</trkpt>
<trkpt lat="46.3034220" lon="9.9339580">
	<ele>2043.20</ele>
	<time>2021-08-31T13:22:07.000Z</time>
</trkpt>
<trkpt lat="46.3034230" lon="9.9339430">
	<ele>2043.00</ele>
	<time>2021-08-31T13:22:08.000Z</time>
</trkpt>
<trkpt lat="46.3034050" lon="9.9338690">
	<ele>2043.40</ele>
	<time>2021-08-31T13:22:13.000Z</time>
</trkpt>
<trkpt lat="46.3034010" lon="9.9338550">
	<ele>2043.40</ele>
	<time>2021-08-31T13:22:14.000Z</time>
</trkpt>
<trkpt lat="46.3033860" lon="9.9338080">
	<ele>2043.80</ele>
	<time>2021-08-31T13:22:17.000Z</time>
</trkpt>
<trkpt lat="46.3033780" lon="9.9337920">
	<ele>2044.00</ele>
	<time>2021-08-31T13:22:19.000Z</time>
</trkpt>
<trkpt lat="46.3033780" lon="9.9337550">
	<ele>2044.60</ele>
	<time>2021-08-31T13:22:22.000Z</time>
</trkpt>
<trkpt lat="46.3033760" lon="9.9337160">
	<ele>2045.00</ele>
	<time>2021-08-31T13:22:25.000Z</time>
</trkpt>
<trkpt lat="46.3033750" lon="9.9336690">
	<ele>2045.20</ele>
	<time>2021-08-31T13:22:28.000Z</time>
</trkpt>
<trkpt lat="46.3033690" lon="9.9336320">
	<ele>2045.00</ele>
	<time>2021-08-31T13:22:31.000Z</time>
</trkpt>
<trkpt lat="46.3033640" lon="9.9336180">
	<ele>2044.80</ele>
	<time>2021-08-31T13:22:32.000Z</time>
</trkpt>
<trkpt lat="46.3033730" lon="9.9335450">
	<ele>2044.40</ele>
	<time>2021-08-31T13:22:36.000Z</time>
</trkpt>
<trkpt lat="46.3033790" lon="9.9335150">
	<ele>2044.40</ele>
	<time>2021-08-31T13:22:38.000Z</time>
</trkpt>
<trkpt lat="46.3033850" lon="9.9334570">
	<ele>2044.40</ele>
	<time>2021-08-31T13:22:42.000Z</time>
</trkpt>
<trkpt lat="46.3033850" lon="9.9334120">
	<ele>2044.40</ele>
	<time>2021-08-31T13:22:45.000Z</time>
</trkpt>
<trkpt lat="46.3033900" lon="9.9333070">
	<ele>2044.80</ele>
	<time>2021-08-31T13:22:52.000Z</time>
</trkpt>
<trkpt lat="46.3033900" lon="9.9332920">
	<ele>2045.00</ele>
	<time>2021-08-31T13:22:53.000Z</time>
</trkpt>
<trkpt lat="46.3034070" lon="9.9332030">
	<ele>2045.60</ele>
	<time>2021-08-31T13:22:59.000Z</time>
</trkpt>
<trkpt lat="46.3034010" lon="9.9331580">
	<ele>2045.80</ele>
	<time>2021-08-31T13:23:02.000Z</time>
</trkpt>
<trkpt lat="46.3033970" lon="9.9330680">
	<ele>2046.20</ele>
	<time>2021-08-31T13:23:07.000Z</time>
</trkpt>
<trkpt lat="46.3033970" lon="9.9330360">
	<ele>2046.40</ele>
	<time>2021-08-31T13:23:09.000Z</time>
</trkpt>
<trkpt lat="46.3033980" lon="9.9330060">
	<ele>2046.60</ele>
	<time>2021-08-31T13:23:11.000Z</time>
</trkpt>
<trkpt lat="46.3034000" lon="9.9329590">
	<ele>2047.00</ele>
	<time>2021-08-31T13:23:14.000Z</time>
</trkpt>
<trkpt lat="46.3034040" lon="9.9329110">
	<ele>2047.20</ele>
	<time>2021-08-31T13:23:17.000Z</time>
</trkpt>
<trkpt lat="46.3034040" lon="9.9329000">
	<ele>2047.40</ele>
	<time>2021-08-31T13:23:18.000Z</time>
</trkpt>
<trkpt lat="46.3034090" lon="9.9328910">
	<ele>2047.40</ele>
	<time>2021-08-31T13:23:19.000Z</time>
</trkpt>
<trkpt lat="46.3034320" lon="9.9328410">
	<ele>2047.20</ele>
	<time>2021-08-31T13:23:24.000Z</time>
</trkpt>
<trkpt lat="46.3034300" lon="9.9328120">
	<ele>2047.00</ele>
	<time>2021-08-31T13:23:26.000Z</time>
</trkpt>
<trkpt lat="46.3034320" lon="9.9327310">
	<ele>2046.40</ele>
	<time>2021-08-31T13:23:31.000Z</time>
</trkpt>
<trkpt lat="46.3034310" lon="9.9326970">
	<ele>2046.20</ele>
	<time>2021-08-31T13:23:33.000Z</time>
</trkpt>
<trkpt lat="46.3034270" lon="9.9326340">
	<ele>2045.80</ele>
	<time>2021-08-31T13:23:37.000Z</time>
</trkpt>
<trkpt lat="46.3034200" lon="9.9326210">
	<ele>2045.60</ele>
	<time>2021-08-31T13:23:38.000Z</time>
</trkpt>
<trkpt lat="46.3034050" lon="9.9325740">
	<ele>2045.20</ele>
	<time>2021-08-31T13:23:42.000Z</time>
</trkpt>
<trkpt lat="46.3034030" lon="9.9324870">
	<ele>2044.60</ele>
	<time>2021-08-31T13:23:47.000Z</time>
</trkpt>
<trkpt lat="46.3034010" lon="9.9324500">
	<ele>2044.00</ele>
	<time>2021-08-31T13:23:50.000Z</time>
</trkpt>
<trkpt lat="46.3033980" lon="9.9324250">
	<ele>2043.60</ele>
	<time>2021-08-31T13:23:52.000Z</time>
</trkpt>
<trkpt lat="46.3033930" lon="9.9324120">
	<ele>2043.40</ele>
	<time>2021-08-31T13:23:53.000Z</time>
</trkpt>
<trkpt lat="46.3033870" lon="9.9323600">
	<ele>2043.00</ele>
	<time>2021-08-31T13:23:56.000Z</time>
</trkpt>
<trkpt lat="46.3033710" lon="9.9322980">
	<ele>2042.60</ele>
	<time>2021-08-31T13:24:00.000Z</time>
</trkpt>
<trkpt lat="46.3033690" lon="9.9322700">
	<ele>2042.40</ele>
	<time>2021-08-31T13:24:02.000Z</time>
</trkpt>
<trkpt lat="46.3033650" lon="9.9322480">
	<ele>2042.20</ele>
	<time>2021-08-31T13:24:04.000Z</time>
</trkpt>
<trkpt lat="46.3033540" lon="9.9322040">
	<ele>2041.60</ele>
	<time>2021-08-31T13:24:08.000Z</time>
</trkpt>
<trkpt lat="46.3033490" lon="9.9321900">
	<ele>2041.40</ele>
	<time>2021-08-31T13:24:10.000Z</time>
</trkpt>
<trkpt lat="46.3033460" lon="9.9321840">
	<ele>2041.20</ele>
	<time>2021-08-31T13:24:11.000Z</time>
</trkpt>
<trkpt lat="46.3033410" lon="9.9321680">
	<ele>2041.00</ele>
	<time>2021-08-31T13:24:13.000Z</time>
</trkpt>
<trkpt lat="46.3033410" lon="9.9321570">
	<ele>2040.40</ele>
	<time>2021-08-31T13:24:15.000Z</time>
</trkpt>
<trkpt lat="46.3033320" lon="9.9321470">
	<ele>2040.20</ele>
	<time>2021-08-31T13:24:17.000Z</time>
</trkpt>
<trkpt lat="46.3033370" lon="9.9321280">
	<ele>2039.60</ele>
	<time>2021-08-31T13:24:20.000Z</time>
</trkpt>
<trkpt lat="46.3033290" lon="9.9321160">
	<ele>2039.20</ele>
	<time>2021-08-31T13:24:22.000Z</time>
</trkpt>
<trkpt lat="46.3033280" lon="9.9321080">
	<ele>2038.80</ele>
	<time>2021-08-31T13:24:23.000Z</time>
</trkpt>
<trkpt lat="46.3033350" lon="9.9320970">
	<ele>2038.40</ele>
	<time>2021-08-31T13:24:25.000Z</time>
</trkpt>
<trkpt lat="46.3033250" lon="9.9320570">
	<ele>2037.60</ele>
	<time>2021-08-31T13:24:29.000Z</time>
</trkpt>
<trkpt lat="46.3033130" lon="9.9320090">
	<ele>2036.40</ele>
	<time>2021-08-31T13:24:35.000Z</time>
</trkpt>
<trkpt lat="46.3033020" lon="9.9319660">
	<ele>2035.40</ele>
	<time>2021-08-31T13:24:39.000Z</time>
</trkpt>
<trkpt lat="46.3033030" lon="9.9319190">
	<ele>2034.60</ele>
	<time>2021-08-31T13:24:44.000Z</time>
</trkpt>
<trkpt lat="46.3033050" lon="9.9318960">
	<ele>2034.20</ele>
	<time>2021-08-31T13:24:46.000Z</time>
</trkpt>
<trkpt lat="46.3032980" lon="9.9318660">
	<ele>2033.80</ele>
	<time>2021-08-31T13:24:49.000Z</time>
</trkpt>
<trkpt lat="46.3032940" lon="9.9318400">
	<ele>2033.20</ele>
	<time>2021-08-31T13:24:52.000Z</time>
</trkpt>
<trkpt lat="46.3032920" lon="9.9318340">
	<ele>2033.20</ele>
	<time>2021-08-31T13:24:53.000Z</time>
</trkpt>
<trkpt lat="46.3032940" lon="9.9318000">
	<ele>2032.60</ele>
	<time>2021-08-31T13:24:57.000Z</time>
</trkpt>
<trkpt lat="46.3032890" lon="9.9317820">
	<ele>2032.00</ele>
	<time>2021-08-31T13:24:59.000Z</time>
</trkpt>
<trkpt lat="46.3032870" lon="9.9317760">
	<ele>2031.80</ele>
	<time>2021-08-31T13:25:00.000Z</time>
</trkpt>
<trkpt lat="46.3032750" lon="9.9317340">
	<ele>2031.00</ele>
	<time>2021-08-31T13:25:05.000Z</time>
</trkpt>
<trkpt lat="46.3032620" lon="9.9316970">
	<ele>2030.00</ele>
	<time>2021-08-31T13:25:10.000Z</time>
</trkpt>
<trkpt lat="46.3032610" lon="9.9316850">
	<ele>2029.80</ele>
	<time>2021-08-31T13:25:11.000Z</time>
</trkpt>
<trkpt lat="46.3032530" lon="9.9316360">
	<ele>2028.60</ele>
	<time>2021-08-31T13:25:16.000Z</time>
</trkpt>
<trkpt lat="46.3032400" lon="9.9315960">
	<ele>2027.60</ele>
	<time>2021-08-31T13:25:21.000Z</time>
</trkpt>
<trkpt lat="46.3032220" lon="9.9315380">
	<ele>2026.60</ele>
	<time>2021-08-31T13:25:26.000Z</time>
</trkpt>
<trkpt lat="46.3032060" lon="9.9315030">
	<ele>2025.60</ele>
	<time>2021-08-31T13:25:31.000Z</time>
</trkpt>
<trkpt lat="46.3032020" lon="9.9315000">
	<ele>2025.60</ele>
	<time>2021-08-31T13:25:32.000Z</time>
</trkpt>
<trkpt lat="46.3031870" lon="9.9314490">
	<ele>2024.80</ele>
	<time>2021-08-31T13:25:39.000Z</time>
</trkpt>
<trkpt lat="46.3031860" lon="9.9314370">
	<ele>2024.80</ele>
	<time>2021-08-31T13:25:40.000Z</time>
</trkpt>
<trkpt lat="46.3031830" lon="9.9314270">
	<ele>2024.60</ele>
	<time>2021-08-31T13:25:41.000Z</time>
</trkpt>
<trkpt lat="46.3031740" lon="9.9313890">
	<ele>2024.00</ele>
	<time>2021-08-31T13:25:44.000Z</time>
</trkpt>
<trkpt lat="46.3031730" lon="9.9313760">
	<ele>2024.00</ele>
	<time>2021-08-31T13:25:45.000Z</time>
</trkpt>
<trkpt lat="46.3031650" lon="9.9313570">
	<ele>2023.40</ele>
	<time>2021-08-31T13:25:47.000Z</time>
</trkpt>
<trkpt lat="46.3031470" lon="9.9313270">
	<ele>2022.80</ele>
	<time>2021-08-31T13:25:50.000Z</time>
</trkpt>
<trkpt lat="46.3031100" lon="9.9312360">
	<ele>2022.60</ele>
	<time>2021-08-31T13:25:58.000Z</time>
</trkpt>
<trkpt lat="46.3030770" lon="9.9311850">
	<ele>2022.60</ele>
	<time>2021-08-31T13:26:03.000Z</time>
</trkpt>
<trkpt lat="46.3030590" lon="9.9311460">
	<ele>2022.60</ele>
	<time>2021-08-31T13:26:09.000Z</time>
</trkpt>
<trkpt lat="46.3030580" lon="9.9311390">
	<ele>2022.60</ele>
	<time>2021-08-31T13:26:10.000Z</time>
</trkpt>
<trkpt lat="46.3030540" lon="9.9311200">
	<ele>2022.60</ele>
	<time>2021-08-31T13:26:13.000Z</time>
</trkpt>
<trkpt lat="46.3030680" lon="9.9311390">
	<ele>2022.80</ele>
	<time>2021-08-31T13:26:20.000Z</time>
</trkpt>
<trkpt lat="46.3030760" lon="9.9311450">
	<ele>2023.00</ele>
	<time>2021-08-31T13:26:24.000Z</time>
</trkpt>
<trkpt lat="46.3030760" lon="9.9311550">
	<ele>2023.00</ele>
	<time>2021-08-31T13:26:26.000Z</time>
</trkpt>
<trkpt lat="46.3030840" lon="9.9311680">
	<ele>2022.40</ele>
	<time>2021-08-31T13:26:33.000Z</time>
</trkpt>
<trkpt lat="46.3030840" lon="9.9311680">
	<ele>2022.40</ele>
	<time>2021-08-31T13:26:36.000Z</time>
</trkpt>
<trkpt lat="46.3030830" lon="9.9311610">
	<ele>2023.00</ele>
	<time>2021-08-31T13:26:50.000Z</time>
</trkpt>
<trkpt lat="46.3031740" lon="9.9311230">
	<ele>2023.00</ele>
	<time>2021-08-31T13:26:57.000Z</time>
</trkpt>
<trkpt lat="46.3032790" lon="9.9310900">
	<ele>2022.80</ele>
	<time>2021-08-31T13:27:12.000Z</time>
</trkpt>
<trkpt lat="46.3033300" lon="9.9310280">
	<ele>2022.80</ele>
	<time>2021-08-31T13:27:15.000Z</time>
</trkpt>
<trkpt lat="46.3032940" lon="9.9310520">
	<ele>2022.80</ele>
	<time>2021-08-31T13:27:17.000Z</time>
</trkpt>
<trkpt lat="46.3032500" lon="9.9309890">
	<ele>2022.80</ele>
	<time>2021-08-31T13:27:30.000Z</time>
</trkpt>
<trkpt lat="46.3031310" lon="9.9309900">
	<ele>2022.60</ele>
	<time>2021-08-31T13:27:32.000Z</time>
</trkpt>
<trkpt lat="46.3030700" lon="9.9309700">
	<ele>2022.40</ele>
	<time>2021-08-31T13:27:34.000Z</time>
</trkpt>
<trkpt lat="46.3030440" lon="9.9309580">
	<ele>2022.40</ele>
	<time>2021-08-31T13:27:35.000Z</time>
</trkpt>
<trkpt lat="46.3030110" lon="9.9309130">
	<ele>2022.20</ele>
	<time>2021-08-31T13:27:37.000Z</time>
</trkpt>
<trkpt lat="46.3030450" lon="9.9308940">
	<ele>2022.20</ele>
	<time>2021-08-31T13:27:40.000Z</time>
</trkpt>
<trkpt lat="46.3030610" lon="9.9308900">
	<ele>2022.20</ele>
	<time>2021-08-31T13:27:41.000Z</time>
</trkpt>
<trkpt lat="46.3030550" lon="9.9308910">
	<ele>2022.00</ele>
	<time>2021-08-31T13:27:42.000Z</time>
</trkpt>
<trkpt lat="46.3030550" lon="9.9308540">
	<ele>2021.80</ele>
	<time>2021-08-31T13:27:46.000Z</time>
</trkpt>
<trkpt lat="46.3030470" lon="9.9308450">
	<ele>2022.00</ele>
	<time>2021-08-31T13:27:48.000Z</time>
</trkpt>
<trkpt lat="46.3030340" lon="9.9308320">
	<ele>2022.20</ele>
	<time>2021-08-31T13:27:51.000Z</time>
</trkpt>
<trkpt lat="46.3030450" lon="9.9308680">
	<ele>2022.20</ele>
	<time>2021-08-31T13:27:54.000Z</time>
</trkpt>
<trkpt lat="46.3030360" lon="9.9308750">
	<ele>2022.00</ele>
	<time>2021-08-31T13:27:55.000Z</time>
</trkpt>
<trkpt lat="46.3030100" lon="9.9308630">
	<ele>2022.00</ele>
	<time>2021-08-31T13:27:58.000Z</time>
</trkpt>
<trkpt lat="46.3030110" lon="9.9308640">
	<ele>2022.40</ele>
	<time>2021-08-31T13:28:00.000Z</time>
</trkpt>
<trkpt lat="46.3030090" lon="9.9308640">
	<ele>2022.40</ele>
	<time>2021-08-31T13:28:01.000Z</time>
</trkpt>
<trkpt lat="46.3030090" lon="9.9308290">
	<ele>2022.40</ele>
	<time>2021-08-31T13:28:03.000Z</time>
</trkpt>
<trkpt lat="46.3030070" lon="9.9308040">
	<ele>2022.40</ele>
	<time>2021-08-31T13:28:06.000Z</time>
</trkpt>
<trkpt lat="46.3029950" lon="9.9308150">
	<ele>2022.40</ele>
	<time>2021-08-31T13:28:07.000Z</time>
</trkpt>
<trkpt lat="46.3029970" lon="9.9308190">
	<ele>2022.40</ele>
	<time>2021-08-31T13:28:09.000Z</time>
</trkpt>
<trkpt lat="46.3029920" lon="9.9309020">
	<ele>2022.40</ele>
	<time>2021-08-31T13:28:15.000Z</time>
</trkpt>
<trkpt lat="46.3030020" lon="9.9309400">
	<ele>2022.40</ele>
	<time>2021-08-31T13:28:26.000Z</time>
</trkpt>
<trkpt lat="46.3030450" lon="9.9310100">
	<ele>2022.40</ele>
	<time>2021-08-31T13:28:29.000Z</time>
</trkpt>
<trkpt lat="46.3030810" lon="9.9310870">
	<ele>2022.40</ele>
	<time>2021-08-31T13:28:32.000Z</time>
</trkpt>
<trkpt lat="46.3031560" lon="9.9312420">
	<ele>2022.40</ele>
	<time>2021-08-31T13:28:38.000Z</time>
</trkpt>
<trkpt lat="46.3032020" lon="9.9313830">
	<ele>2023.40</ele>
	<time>2021-08-31T13:28:45.000Z</time>
</trkpt>
<trkpt lat="46.3032560" lon="9.9314590">
	<ele>2023.40</ele>
	<time>2021-08-31T13:28:52.000Z</time>
</trkpt>
<trkpt lat="46.3033020" lon="9.9314830">
	<ele>2022.40</ele>
	<time>2021-08-31T13:28:57.000Z</time>
</trkpt>
<trkpt lat="46.3033170" lon="9.9314800">
	<ele>2022.00</ele>
	<time>2021-08-31T13:28:59.000Z</time>
</trkpt>
<trkpt lat="46.3033250" lon="9.9314810">
	<ele>2021.60</ele>
	<time>2021-08-31T13:29:00.000Z</time>
</trkpt>
<trkpt lat="46.3033350" lon="9.9314820">
	<ele>2021.20</ele>
	<time>2021-08-31T13:29:01.000Z</time>
</trkpt>
<trkpt lat="46.3033770" lon="9.9314920">
	<ele>2020.20</ele>
	<time>2021-08-31T13:29:05.000Z</time>
</trkpt>
<trkpt lat="46.3033840" lon="9.9314900">
	<ele>2019.60</ele>
	<time>2021-08-31T13:29:08.000Z</time>
</trkpt>
<trkpt lat="46.3033750" lon="9.9314830">
	<ele>2019.40</ele>
	<time>2021-08-31T13:29:09.000Z</time>
</trkpt>
<trkpt lat="46.3033650" lon="9.9314760">
	<ele>2019.20</ele>
	<time>2021-08-31T13:29:10.000Z</time>
</trkpt>
<trkpt lat="46.3033310" lon="9.9314390">
	<ele>2018.80</ele>
	<time>2021-08-31T13:29:14.000Z</time>
</trkpt>
<trkpt lat="46.3033070" lon="9.9314090">
	<ele>2018.00</ele>
	<time>2021-08-31T13:29:17.000Z</time>
</trkpt>
<trkpt lat="46.3032790" lon="9.9313610">
	<ele>2017.40</ele>
	<time>2021-08-31T13:29:22.000Z</time>
</trkpt>
<trkpt lat="46.3032670" lon="9.9313460">
	<ele>2016.80</ele>
	<time>2021-08-31T13:29:24.000Z</time>
</trkpt>
<trkpt lat="46.3032380" lon="9.9313120">
	<ele>2016.00</ele>
	<time>2021-08-31T13:29:28.000Z</time>
</trkpt>
<trkpt lat="46.3032370" lon="9.9313020">
	<ele>2015.80</ele>
	<time>2021-08-31T13:29:29.000Z</time>
</trkpt>
<trkpt lat="46.3032300" lon="9.9312560">
	<ele>2015.20</ele>
	<time>2021-08-31T13:29:33.000Z</time>
</trkpt>
<trkpt lat="46.3032200" lon="9.9312330">
	<ele>2014.80</ele>
	<time>2021-08-31T13:29:35.000Z</time>
</trkpt>
<trkpt lat="46.3032160" lon="9.9312210">
	<ele>2014.60</ele>
	<time>2021-08-31T13:29:36.000Z</time>
</trkpt>
<trkpt lat="46.3031940" lon="9.9311780">
	<ele>2013.60</ele>
	<time>2021-08-31T13:29:40.000Z</time>
</trkpt>
<trkpt lat="46.3031680" lon="9.9311170">
	<ele>2012.60</ele>
	<time>2021-08-31T13:29:46.000Z</time>
</trkpt>
<trkpt lat="46.3031390" lon="9.9310670">
	<ele>2011.60</ele>
	<time>2021-08-31T13:29:51.000Z</time>
</trkpt>
<trkpt lat="46.3031230" lon="9.9310320">
	<ele>2011.00</ele>
	<time>2021-08-31T13:29:55.000Z</time>
</trkpt>
<trkpt lat="46.3031180" lon="9.9310020">
	<ele>2010.40</ele>
	<time>2021-08-31T13:29:58.000Z</time>
</trkpt>
<trkpt lat="46.3031040" lon="9.9309560">
	<ele>2009.60</ele>
	<time>2021-08-31T13:30:02.000Z</time>
</trkpt>
<trkpt lat="46.3030930" lon="9.9309360">
	<ele>2009.40</ele>
	<time>2021-08-31T13:30:04.000Z</time>
</trkpt>
<trkpt lat="46.3030730" lon="9.9309000">
	<ele>2008.80</ele>
	<time>2021-08-31T13:30:07.000Z</time>
</trkpt>
<trkpt lat="46.3030640" lon="9.9308800">
	<ele>2008.60</ele>
	<time>2021-08-31T13:30:09.000Z</time>
</trkpt>
<trkpt lat="46.3030610" lon="9.9308730">
	<ele>2008.40</ele>
	<time>2021-08-31T13:30:10.000Z</time>
</trkpt>
<trkpt lat="46.3030470" lon="9.9308520">
	<ele>2008.00</ele>
	<time>2021-08-31T13:30:12.000Z</time>
</trkpt>
<trkpt lat="46.3030140" lon="9.9307840">
	<ele>2007.20</ele>
	<time>2021-08-31T13:30:18.000Z</time>
</trkpt>
<trkpt lat="46.3030060" lon="9.9307640">
	<ele>2006.80</ele>
	<time>2021-08-31T13:30:20.000Z</time>
</trkpt>
<trkpt lat="46.3030010" lon="9.9307580">
	<ele>2006.40</ele>
	<time>2021-08-31T13:30:21.000Z</time>
</trkpt>
<trkpt lat="46.3029960" lon="9.9307500">
	<ele>2006.20</ele>
	<time>2021-08-31T13:30:22.000Z</time>
</trkpt>
<trkpt lat="46.3029910" lon="9.9307400">
	<ele>2006.20</ele>
	<time>2021-08-31T13:30:23.000Z</time>
</trkpt>
<trkpt lat="46.3029700" lon="9.9306980">
	<ele>2005.00</ele>
	<time>2021-08-31T13:30:27.000Z</time>
</trkpt>
<trkpt lat="46.3029560" lon="9.9306670">
	<ele>2004.60</ele>
	<time>2021-08-31T13:30:30.000Z</time>
</trkpt>
<trkpt lat="46.3029430" lon="9.9306330">
	<ele>2004.00</ele>
	<time>2021-08-31T13:30:33.000Z</time>
</trkpt>
<trkpt lat="46.3029250" lon="9.9305880">
	<ele>2003.20</ele>
	<time>2021-08-31T13:30:37.000Z</time>
</trkpt>
<trkpt lat="46.3029260" lon="9.9305600">
	<ele>2002.80</ele>
	<time>2021-08-31T13:30:39.000Z</time>
</trkpt>
<trkpt lat="46.3029370" lon="9.9305470">
	<ele>2002.60</ele>
	<time>2021-08-31T13:30:40.000Z</time>
</trkpt>
<trkpt lat="46.3029520" lon="9.9305330">
	<ele>2002.40</ele>
	<time>2021-08-31T13:30:42.000Z</time>
</trkpt>
<trkpt lat="46.3029680" lon="9.9305330">
	<ele>2001.80</ele>
	<time>2021-08-31T13:30:45.000Z</time>
</trkpt>
<trkpt lat="46.3029770" lon="9.9305300">
	<ele>2001.60</ele>
	<time>2021-08-31T13:30:46.000Z</time>
</trkpt>
<trkpt lat="46.3029970" lon="9.9305410">
	<ele>2001.20</ele>
	<time>2021-08-31T13:30:48.000Z</time>
</trkpt>
<trkpt lat="46.3030170" lon="9.9305520">
	<ele>2000.60</ele>
	<time>2021-08-31T13:30:50.000Z</time>
</trkpt>
<trkpt lat="46.3030750" lon="9.9305730">
	<ele>1999.20</ele>
	<time>2021-08-31T13:30:57.000Z</time>
</trkpt>
<trkpt lat="46.3030820" lon="9.9305810">
	<ele>1998.80</ele>
	<time>2021-08-31T13:30:58.000Z</time>
</trkpt>
<trkpt lat="46.3030950" lon="9.9305910">
	<ele>1998.60</ele>
	<time>2021-08-31T13:30:59.000Z</time>
</trkpt>
<trkpt lat="46.3031230" lon="9.9306010">
	<ele>1998.00</ele>
	<time>2021-08-31T13:31:02.000Z</time>
</trkpt>
<trkpt lat="46.3031660" lon="9.9306350">
	<ele>1997.40</ele>
	<time>2021-08-31T13:31:06.000Z</time>
</trkpt>
<trkpt lat="46.3031910" lon="9.9306470">
	<ele>1997.00</ele>
	<time>2021-08-31T13:31:08.000Z</time>
</trkpt>
<trkpt lat="46.3032520" lon="9.9306760">
	<ele>1996.20</ele>
	<time>2021-08-31T13:31:14.000Z</time>
</trkpt>
<trkpt lat="46.3032610" lon="9.9306790">
	<ele>1996.00</ele>
	<time>2021-08-31T13:31:15.000Z</time>
</trkpt>
<trkpt lat="46.3032710" lon="9.9306820">
	<ele>1995.80</ele>
	<time>2021-08-31T13:31:16.000Z</time>
</trkpt>
<trkpt lat="46.3033120" lon="9.9306950">
	<ele>1994.60</ele>
	<time>2021-08-31T13:31:21.000Z</time>
</trkpt>
<trkpt lat="46.3033540" lon="9.9307150">
	<ele>1994.00</ele>
	<time>2021-08-31T13:31:25.000Z</time>
</trkpt>
<trkpt lat="46.3033760" lon="9.9307300">
	<ele>1993.60</ele>
	<time>2021-08-31T13:31:27.000Z</time>
</trkpt>
<trkpt lat="46.3033950" lon="9.9307310">
	<ele>1992.80</ele>
	<time>2021-08-31T13:31:29.000Z</time>
</trkpt>
<trkpt lat="46.3034010" lon="9.9307230">
	<ele>1992.60</ele>
	<time>2021-08-31T13:31:30.000Z</time>
</trkpt>
<trkpt lat="46.3034050" lon="9.9307130">
	<ele>1992.40</ele>
	<time>2021-08-31T13:31:31.000Z</time>
</trkpt>
<trkpt lat="46.3034070" lon="9.9306980">
	<ele>1992.20</ele>
	<time>2021-08-31T13:31:32.000Z</time>
</trkpt>
<trkpt lat="46.3034190" lon="9.9306480">
	<ele>1991.40</ele>
	<time>2021-08-31T13:31:35.000Z</time>
</trkpt>
<trkpt lat="46.3034480" lon="9.9306060">
	<ele>1991.00</ele>
	<time>2021-08-31T13:31:38.000Z</time>
</trkpt>
<trkpt lat="46.3034890" lon="9.9305540">
	<ele>1990.40</ele>
	<time>2021-08-31T13:31:42.000Z</time>
</trkpt>
<trkpt lat="46.3035440" lon="9.9305120">
	<ele>1990.20</ele>
	<time>2021-08-31T13:31:48.000Z</time>
</trkpt>
<trkpt lat="46.3035740" lon="9.9304920">
	<ele>1990.00</ele>
	<time>2021-08-31T13:31:51.000Z</time>
</trkpt>
<trkpt lat="46.3035790" lon="9.9304800">
	<ele>1990.00</ele>
	<time>2021-08-31T13:31:52.000Z</time>
</trkpt>
<trkpt lat="46.3035750" lon="9.9304680">
	<ele>1990.00</ele>
	<time>2021-08-31T13:31:54.000Z</time>
</trkpt>
<trkpt lat="46.3035690" lon="9.9304750">
	<ele>1990.40</ele>
	<time>2021-08-31T13:31:56.000Z</time>
</trkpt>
<trkpt lat="46.3035610" lon="9.9304930">
	<ele>1990.60</ele>
	<time>2021-08-31T13:31:57.000Z</time>
</trkpt>
<trkpt lat="46.3035520" lon="9.9305380">
	<ele>1991.00</ele>
	<time>2021-08-31T13:31:59.000Z</time>
</trkpt>
<trkpt lat="46.3035250" lon="9.9305290">
	<ele>1991.60</ele>
	<time>2021-08-31T13:32:02.000Z</time>
</trkpt>
<trkpt lat="46.3035160" lon="9.9305230">
	<ele>1992.60</ele>
	<time>2021-08-31T13:32:06.000Z</time>
</trkpt>
<trkpt lat="46.3035160" lon="9.9305210">
	<ele>1992.80</ele>
	<time>2021-08-31T13:32:07.000Z</time>
</trkpt>
<trkpt lat="46.3035120" lon="9.9305190">
	<ele>1992.80</ele>
	<time>2021-08-31T13:32:08.000Z</time>
</trkpt>
<trkpt lat="46.3035100" lon="9.9305150">
	<ele>1993.00</ele>
	<time>2021-08-31T13:32:09.000Z</time>
</trkpt>
<trkpt lat="46.3035020" lon="9.9305130">
	<ele>1993.00</ele>
	<time>2021-08-31T13:32:12.000Z</time>
</trkpt>
<trkpt lat="46.3034960" lon="9.9305130">
	<ele>1993.20</ele>
	<time>2021-08-31T13:32:13.000Z</time>
</trkpt>
<trkpt lat="46.3034700" lon="9.9305490">
	<ele>1993.00</ele>
	<time>2021-08-31T13:32:16.000Z</time>
</trkpt>
<trkpt lat="46.3034580" lon="9.9305540">
	<ele>1992.80</ele>
	<time>2021-08-31T13:32:18.000Z</time>
</trkpt>
<trkpt lat="46.3034480" lon="9.9305810">
	<ele>1993.00</ele>
	<time>2021-08-31T13:32:23.000Z</time>
</trkpt>
<trkpt lat="46.3034560" lon="9.9305980">
	<ele>1992.40</ele>
	<time>2021-08-31T13:32:30.000Z</time>
</trkpt>
<trkpt lat="46.3034340" lon="9.9306180">
	<ele>1992.80</ele>
	<time>2021-08-31T13:32:35.000Z</time>
</trkpt>
<trkpt lat="46.3033990" lon="9.9305990">
	<ele>1992.80</ele>
	<time>2021-08-31T13:32:40.000Z</time>
</trkpt>
<trkpt lat="46.3034050" lon="9.9305970">
	<ele>1992.80</ele>
	<time>2021-08-31T13:32:41.000Z</time>
</trkpt>
<trkpt lat="46.3034380" lon="9.9305750">
	<ele>1992.60</ele>
	<time>2021-08-31T13:32:46.000Z</time>
</trkpt>
<trkpt lat="46.3034280" lon="9.9304600">
	<ele>1993.00</ele>
	<time>2021-08-31T13:43:29.000Z</time>
</trkpt>
<trkpt lat="46.3034380" lon="9.9304570">
	<ele>1993.00</ele>
	<time>2021-08-31T13:43:32.000Z</time>
</trkpt>
<trkpt lat="46.3034530" lon="9.9304330">
	<ele>1993.00</ele>
	<time>2021-08-31T13:43:35.000Z</time>
</trkpt>
<trkpt lat="46.3034570" lon="9.9304590">
	<ele>1993.00</ele>
	<time>2021-08-31T13:43:36.000Z</time>
</trkpt>
<trkpt lat="46.3035400" lon="9.9304060">
	<ele>1993.00</ele>
	<time>2021-08-31T13:43:42.000Z</time>
</trkpt>
<trkpt lat="46.3036040" lon="9.9304160">
	<ele>1993.00</ele>
	<time>2021-08-31T13:43:49.000Z</time>
</trkpt>
<trkpt lat="46.3036570" lon="9.9304470">
	<ele>1993.00</ele>
	<time>2021-08-31T13:43:53.000Z</time>
</trkpt>
<trkpt lat="46.3037060" lon="9.9304760">
	<ele>1991.60</ele>
	<time>2021-08-31T13:43:57.000Z</time>
</trkpt>
<trkpt lat="46.3037200" lon="9.9305030">
	<ele>1990.80</ele>
	<time>2021-08-31T13:43:58.000Z</time>
</trkpt>
<trkpt lat="46.3037280" lon="9.9305190">
	<ele>1990.60</ele>
	<time>2021-08-31T13:43:59.000Z</time>
</trkpt>
<trkpt lat="46.3037510" lon="9.9305790">
	<ele>1990.20</ele>
	<time>2021-08-31T13:44:02.000Z</time>
</trkpt>
</trkseg>
</trk>
</gpx>
